<?xml version="1.0" encoding="UTF-8" standalone="no" ?>
<gpx xmlns="http://www.topografix.com/GPX/1/1" xmlns:xsi="http://www.w3.org/2001/XMLSchema-instance" xsi:schemaLocation="http://www.topografix.com/GPX/1/1 http://www.topografix.com/GPX/1/1/gpx.xsd" version="1.1" creator="VisuGPX - https://www.visugpx.com">
  <metadata>
    <name>Les courses Nature de la Passionnée</name>
    <desc><![CDATA[versions 2017: Ne conviennent pas pour 2022!
#vitrimontpassion]]></desc>
  </metadata>
  <trk>
    <name><![CDATA[23km]]></name>
    <extensions>
      <line xmlns="http://www.topografix.com/GPX/gpx_style/0/2">
        <color>0000FF</color>
        <opacity>0.85</opacity>
        <width>9</width>
          <extensions>
            <sens>1</sens>
          </extensions>
      </line>
    </extensions>
    <trkseg>
      <trkpt lat="48.58483" lon="6.45126">
        <ele>287</ele>
        <time>2017-06-26T08:48:07Z</time>
      </trkpt>
      <trkpt lat="48.58482" lon="6.45124">
        <ele>287</ele>
        <time>2017-06-26T08:48:08Z</time>
      </trkpt>
      <trkpt lat="48.58481" lon="6.45123">
        <ele>287</ele>
        <time>2017-06-26T08:48:09Z</time>
      </trkpt>
      <trkpt lat="48.58479" lon="6.45122">
        <ele>287</ele>
        <time>2017-06-26T08:48:10Z</time>
      </trkpt>
      <trkpt lat="48.58477" lon="6.4512">
        <ele>287</ele>
        <time>2017-06-26T08:48:11Z</time>
      </trkpt>
      <trkpt lat="48.58474" lon="6.45117">
        <ele>287</ele>
        <time>2017-06-26T08:48:12Z</time>
      </trkpt>
      <trkpt lat="48.58471" lon="6.45115">
        <ele>287</ele>
        <time>2017-06-26T08:48:13Z</time>
      </trkpt>
      <trkpt lat="48.58469" lon="6.45113">
        <ele>287</ele>
        <time>2017-06-26T08:48:14Z</time>
      </trkpt>
      <trkpt lat="48.58466" lon="6.4511">
        <ele>287</ele>
        <time>2017-06-26T08:48:15Z</time>
      </trkpt>
      <trkpt lat="48.58463" lon="6.45108">
        <ele>287</ele>
        <time>2017-06-26T08:48:16Z</time>
      </trkpt>
      <trkpt lat="48.58461" lon="6.45106">
        <ele>287</ele>
        <time>2017-06-26T08:48:17Z</time>
      </trkpt>
      <trkpt lat="48.58458" lon="6.45104">
        <ele>287</ele>
        <time>2017-06-26T08:48:18Z</time>
      </trkpt>
      <trkpt lat="48.58456" lon="6.45101">
        <ele>287</ele>
        <time>2017-06-26T08:48:19Z</time>
      </trkpt>
      <trkpt lat="48.58453" lon="6.45099">
        <ele>287</ele>
        <time>2017-06-26T08:48:20Z</time>
      </trkpt>
      <trkpt lat="48.5845" lon="6.45097">
        <ele>287</ele>
        <time>2017-06-26T08:48:21Z</time>
      </trkpt>
      <trkpt lat="48.58448" lon="6.45095">
        <ele>287</ele>
        <time>2017-06-26T08:48:22Z</time>
      </trkpt>
      <trkpt lat="48.58445" lon="6.45093">
        <ele>287</ele>
        <time>2017-06-26T08:48:23Z</time>
      </trkpt>
      <trkpt lat="48.58443" lon="6.4509">
        <ele>286</ele>
        <time>2017-06-26T08:48:24Z</time>
      </trkpt>
      <trkpt lat="48.5844" lon="6.45088">
        <ele>286</ele>
        <time>2017-06-26T08:48:25Z</time>
      </trkpt>
      <trkpt lat="48.58438" lon="6.45085">
        <ele>286</ele>
        <time>2017-06-26T08:48:26Z</time>
      </trkpt>
      <trkpt lat="48.58435" lon="6.45083">
        <ele>286</ele>
        <time>2017-06-26T08:48:27Z</time>
      </trkpt>
      <trkpt lat="48.58433" lon="6.4508">
        <ele>286</ele>
        <time>2017-06-26T08:48:28Z</time>
      </trkpt>
      <trkpt lat="48.5843" lon="6.45077">
        <ele>286</ele>
        <time>2017-06-26T08:48:29Z</time>
      </trkpt>
      <trkpt lat="48.58428" lon="6.45075">
        <ele>286</ele>
        <time>2017-06-26T08:48:30Z</time>
      </trkpt>
      <trkpt lat="48.58426" lon="6.45072">
        <ele>286</ele>
        <time>2017-06-26T08:48:31Z</time>
      </trkpt>
      <trkpt lat="48.58423" lon="6.45069">
        <ele>286</ele>
        <time>2017-06-26T08:48:32Z</time>
      </trkpt>
      <trkpt lat="48.58421" lon="6.45066">
        <ele>286</ele>
        <time>2017-06-26T08:48:33Z</time>
      </trkpt>
      <trkpt lat="48.58419" lon="6.45064">
        <ele>287</ele>
        <time>2017-06-26T08:48:34Z</time>
      </trkpt>
      <trkpt lat="48.58416" lon="6.45061">
        <ele>287</ele>
        <time>2017-06-26T08:48:35Z</time>
      </trkpt>
      <trkpt lat="48.58414" lon="6.45058">
        <ele>287</ele>
        <time>2017-06-26T08:48:36Z</time>
      </trkpt>
      <trkpt lat="48.58412" lon="6.45056">
        <ele>287</ele>
        <time>2017-06-26T08:48:37Z</time>
      </trkpt>
      <trkpt lat="48.5841" lon="6.45054">
        <ele>287</ele>
        <time>2017-06-26T08:48:38Z</time>
      </trkpt>
      <trkpt lat="48.58407" lon="6.45051">
        <ele>287</ele>
        <time>2017-06-26T08:48:39Z</time>
      </trkpt>
      <trkpt lat="48.58405" lon="6.45049">
        <ele>287</ele>
        <time>2017-06-26T08:48:40Z</time>
      </trkpt>
      <trkpt lat="48.58403" lon="6.45047">
        <ele>287</ele>
        <time>2017-06-26T08:48:41Z</time>
      </trkpt>
      <trkpt lat="48.584" lon="6.45045">
        <ele>287</ele>
        <time>2017-06-26T08:48:42Z</time>
      </trkpt>
      <trkpt lat="48.58398" lon="6.45044">
        <ele>287</ele>
        <time>2017-06-26T08:48:43Z</time>
      </trkpt>
      <trkpt lat="48.58395" lon="6.45042">
        <ele>287</ele>
        <time>2017-06-26T08:48:44Z</time>
      </trkpt>
      <trkpt lat="48.58393" lon="6.4504">
        <ele>287</ele>
        <time>2017-06-26T08:48:45Z</time>
      </trkpt>
      <trkpt lat="48.58391" lon="6.45039">
        <ele>287</ele>
        <time>2017-06-26T08:48:46Z</time>
      </trkpt>
      <trkpt lat="48.58388" lon="6.45037">
        <ele>287</ele>
        <time>2017-06-26T08:48:47Z</time>
      </trkpt>
      <trkpt lat="48.58386" lon="6.45036">
        <ele>287</ele>
        <time>2017-06-26T08:48:48Z</time>
      </trkpt>
      <trkpt lat="48.58383" lon="6.45034">
        <ele>287</ele>
        <time>2017-06-26T08:48:49Z</time>
      </trkpt>
      <trkpt lat="48.5838" lon="6.45033">
        <ele>287</ele>
        <time>2017-06-26T08:48:50Z</time>
      </trkpt>
      <trkpt lat="48.58378" lon="6.45032">
        <ele>287</ele>
        <time>2017-06-26T08:48:51Z</time>
      </trkpt>
      <trkpt lat="48.58375" lon="6.4503">
        <ele>287</ele>
        <time>2017-06-26T08:48:52Z</time>
      </trkpt>
      <trkpt lat="48.58373" lon="6.45029">
        <ele>287</ele>
        <time>2017-06-26T08:48:53Z</time>
      </trkpt>
      <trkpt lat="48.5837" lon="6.45027">
        <ele>289</ele>
        <time>2017-06-26T08:48:54Z</time>
      </trkpt>
      <trkpt lat="48.58367" lon="6.45026">
        <ele>289</ele>
        <time>2017-06-26T08:48:55Z</time>
      </trkpt>
      <trkpt lat="48.58365" lon="6.45024">
        <ele>289</ele>
        <time>2017-06-26T08:48:56Z</time>
      </trkpt>
      <trkpt lat="48.58363" lon="6.45023">
        <ele>289</ele>
        <time>2017-06-26T08:48:57Z</time>
      </trkpt>
      <trkpt lat="48.58361" lon="6.45022">
        <ele>289</ele>
        <time>2017-06-26T08:48:58Z</time>
      </trkpt>
      <trkpt lat="48.58359" lon="6.45021">
        <ele>289</ele>
        <time>2017-06-26T08:48:59Z</time>
      </trkpt>
      <trkpt lat="48.58357" lon="6.4502">
        <ele>289</ele>
        <time>2017-06-26T08:49:00Z</time>
      </trkpt>
      <trkpt lat="48.58355" lon="6.45019">
        <ele>289</ele>
        <time>2017-06-26T08:49:01Z</time>
      </trkpt>
      <trkpt lat="48.58353" lon="6.45017">
        <ele>289</ele>
        <time>2017-06-26T08:49:02Z</time>
      </trkpt>
      <trkpt lat="48.58351" lon="6.45016">
        <ele>289</ele>
        <time>2017-06-26T08:49:03Z</time>
      </trkpt>
      <trkpt lat="48.58349" lon="6.45015">
        <ele>290</ele>
        <time>2017-06-26T08:49:04Z</time>
      </trkpt>
      <trkpt lat="48.58347" lon="6.45013">
        <ele>290</ele>
        <time>2017-06-26T08:49:05Z</time>
      </trkpt>
      <trkpt lat="48.58345" lon="6.45012">
        <ele>290</ele>
        <time>2017-06-26T08:49:06Z</time>
      </trkpt>
      <trkpt lat="48.58342" lon="6.45011">
        <ele>290</ele>
        <time>2017-06-26T08:49:07Z</time>
      </trkpt>
      <trkpt lat="48.5834" lon="6.45009">
        <ele>290</ele>
        <time>2017-06-26T08:49:08Z</time>
      </trkpt>
      <trkpt lat="48.58338" lon="6.45008">
        <ele>290</ele>
        <time>2017-06-26T08:49:09Z</time>
      </trkpt>
      <trkpt lat="48.58336" lon="6.45006">
        <ele>290</ele>
        <time>2017-06-26T08:49:10Z</time>
      </trkpt>
      <trkpt lat="48.58333" lon="6.45005">
        <ele>290</ele>
        <time>2017-06-26T08:49:11Z</time>
      </trkpt>
      <trkpt lat="48.58331" lon="6.45004">
        <ele>290</ele>
        <time>2017-06-26T08:49:12Z</time>
      </trkpt>
      <trkpt lat="48.58329" lon="6.45002">
        <ele>290</ele>
        <time>2017-06-26T08:49:13Z</time>
      </trkpt>
      <trkpt lat="48.58327" lon="6.45001">
        <ele>293</ele>
        <time>2017-06-26T08:49:14Z</time>
      </trkpt>
      <trkpt lat="48.58325" lon="6.44999">
        <ele>293</ele>
        <time>2017-06-26T08:49:15Z</time>
      </trkpt>
      <trkpt lat="48.58322" lon="6.44996">
        <ele>293</ele>
        <time>2017-06-26T08:49:16Z</time>
      </trkpt>
      <trkpt lat="48.5832" lon="6.44994">
        <ele>293</ele>
        <time>2017-06-26T08:49:17Z</time>
      </trkpt>
      <trkpt lat="48.58318" lon="6.44992">
        <ele>293</ele>
        <time>2017-06-26T08:49:18Z</time>
      </trkpt>
      <trkpt lat="48.58318" lon="6.44989">
        <ele>294</ele>
        <time>2017-06-26T08:49:19Z</time>
      </trkpt>
      <trkpt lat="48.58317" lon="6.44987">
        <ele>294</ele>
        <time>2017-06-26T08:49:20Z</time>
      </trkpt>
      <trkpt lat="48.58317" lon="6.44985">
        <ele>294</ele>
        <time>2017-06-26T08:49:21Z</time>
      </trkpt>
      <trkpt lat="48.58317" lon="6.44982">
        <ele>294</ele>
        <time>2017-06-26T08:49:22Z</time>
      </trkpt>
      <trkpt lat="48.58317" lon="6.4498">
        <ele>294</ele>
        <time>2017-06-26T08:49:23Z</time>
      </trkpt>
      <trkpt lat="48.58316" lon="6.44977">
        <ele>294</ele>
        <time>2017-06-26T08:49:24Z</time>
      </trkpt>
      <trkpt lat="48.58316" lon="6.44975">
        <ele>294</ele>
        <time>2017-06-26T08:49:25Z</time>
      </trkpt>
      <trkpt lat="48.58316" lon="6.44972">
        <ele>294</ele>
        <time>2017-06-26T08:49:26Z</time>
      </trkpt>
      <trkpt lat="48.58315" lon="6.44968">
        <ele>294</ele>
        <time>2017-06-26T08:49:27Z</time>
      </trkpt>
      <trkpt lat="48.58315" lon="6.44965">
        <ele>294</ele>
        <time>2017-06-26T08:49:28Z</time>
      </trkpt>
      <trkpt lat="48.58314" lon="6.44962">
        <ele>294</ele>
        <time>2017-06-26T08:49:29Z</time>
      </trkpt>
      <trkpt lat="48.58314" lon="6.44959">
        <ele>294</ele>
        <time>2017-06-26T08:49:30Z</time>
      </trkpt>
      <trkpt lat="48.58315" lon="6.44956">
        <ele>294</ele>
        <time>2017-06-26T08:49:31Z</time>
      </trkpt>
      <trkpt lat="48.58315" lon="6.44952">
        <ele>294</ele>
        <time>2017-06-26T08:49:32Z</time>
      </trkpt>
      <trkpt lat="48.58315" lon="6.44949">
        <ele>294</ele>
        <time>2017-06-26T08:49:33Z</time>
      </trkpt>
      <trkpt lat="48.58316" lon="6.44946">
        <ele>294</ele>
        <time>2017-06-26T08:49:34Z</time>
      </trkpt>
      <trkpt lat="48.58316" lon="6.44943">
        <ele>294</ele>
        <time>2017-06-26T08:49:35Z</time>
      </trkpt>
      <trkpt lat="48.58316" lon="6.44941">
        <ele>294</ele>
        <time>2017-06-26T08:49:36Z</time>
      </trkpt>
      <trkpt lat="48.58316" lon="6.44939">
        <ele>294</ele>
        <time>2017-06-26T08:49:37Z</time>
      </trkpt>
      <trkpt lat="48.58315" lon="6.44937">
        <ele>294</ele>
        <time>2017-06-26T08:49:38Z</time>
      </trkpt>
      <trkpt lat="48.58315" lon="6.44935">
        <ele>294</ele>
        <time>2017-06-26T08:49:39Z</time>
      </trkpt>
      <trkpt lat="48.58314" lon="6.44933">
        <ele>294</ele>
        <time>2017-06-26T08:49:40Z</time>
      </trkpt>
      <trkpt lat="48.58314" lon="6.44931">
        <ele>294</ele>
        <time>2017-06-26T08:49:41Z</time>
      </trkpt>
      <trkpt lat="48.58313" lon="6.44929">
        <ele>294</ele>
        <time>2017-06-26T08:49:42Z</time>
      </trkpt>
      <trkpt lat="48.58312" lon="6.44927">
        <ele>294</ele>
        <time>2017-06-26T08:49:43Z</time>
      </trkpt>
      <trkpt lat="48.58311" lon="6.44926">
        <ele>295</ele>
        <time>2017-06-26T08:49:44Z</time>
      </trkpt>
      <trkpt lat="48.5831" lon="6.44924">
        <ele>295</ele>
        <time>2017-06-26T08:49:45Z</time>
      </trkpt>
      <trkpt lat="48.58308" lon="6.44922">
        <ele>295</ele>
        <time>2017-06-26T08:49:46Z</time>
      </trkpt>
      <trkpt lat="48.58307" lon="6.44921">
        <ele>295</ele>
        <time>2017-06-26T08:49:47Z</time>
      </trkpt>
      <trkpt lat="48.58306" lon="6.44919">
        <ele>295</ele>
        <time>2017-06-26T08:49:48Z</time>
      </trkpt>
      <trkpt lat="48.58304" lon="6.44917">
        <ele>295</ele>
        <time>2017-06-26T08:49:49Z</time>
      </trkpt>
      <trkpt lat="48.58303" lon="6.44916">
        <ele>295</ele>
        <time>2017-06-26T08:49:50Z</time>
      </trkpt>
      <trkpt lat="48.58301" lon="6.44914">
        <ele>295</ele>
        <time>2017-06-26T08:49:51Z</time>
      </trkpt>
      <trkpt lat="48.583" lon="6.44912">
        <ele>295</ele>
        <time>2017-06-26T08:49:52Z</time>
      </trkpt>
      <trkpt lat="48.58298" lon="6.4491">
        <ele>295</ele>
        <time>2017-06-26T08:49:53Z</time>
      </trkpt>
      <trkpt lat="48.58297" lon="6.44909">
        <ele>295</ele>
        <time>2017-06-26T08:49:54Z</time>
      </trkpt>
      <trkpt lat="48.58295" lon="6.44906">
        <ele>295</ele>
        <time>2017-06-26T08:49:55Z</time>
      </trkpt>
      <trkpt lat="48.58293" lon="6.44904">
        <ele>295</ele>
        <time>2017-06-26T08:49:56Z</time>
      </trkpt>
      <trkpt lat="48.58291" lon="6.44901">
        <ele>295</ele>
        <time>2017-06-26T08:49:57Z</time>
      </trkpt>
      <trkpt lat="48.58288" lon="6.44899">
        <ele>295</ele>
        <time>2017-06-26T08:49:58Z</time>
      </trkpt>
      <trkpt lat="48.58287" lon="6.44897">
        <ele>295</ele>
        <time>2017-06-26T08:49:59Z</time>
      </trkpt>
      <trkpt lat="48.58285" lon="6.44896">
        <ele>295</ele>
        <time>2017-06-26T08:50:00Z</time>
      </trkpt>
      <trkpt lat="48.58283" lon="6.44894">
        <ele>295</ele>
        <time>2017-06-26T08:50:01Z</time>
      </trkpt>
      <trkpt lat="48.58281" lon="6.44893">
        <ele>295</ele>
        <time>2017-06-26T08:50:02Z</time>
      </trkpt>
      <trkpt lat="48.58279" lon="6.44891">
        <ele>295</ele>
        <time>2017-06-26T08:50:03Z</time>
      </trkpt>
      <trkpt lat="48.58277" lon="6.4489">
        <ele>295</ele>
        <time>2017-06-26T08:50:04Z</time>
      </trkpt>
      <trkpt lat="48.58276" lon="6.44889">
        <ele>295</ele>
        <time>2017-06-26T08:50:05Z</time>
      </trkpt>
      <trkpt lat="48.58274" lon="6.44888">
        <ele>295</ele>
        <time>2017-06-26T08:50:06Z</time>
      </trkpt>
      <trkpt lat="48.58272" lon="6.44887">
        <ele>295</ele>
        <time>2017-06-26T08:50:07Z</time>
      </trkpt>
      <trkpt lat="48.5827" lon="6.44885">
        <ele>295</ele>
        <time>2017-06-26T08:50:08Z</time>
      </trkpt>
      <trkpt lat="48.58269" lon="6.44884">
        <ele>295</ele>
        <time>2017-06-26T08:50:09Z</time>
      </trkpt>
      <trkpt lat="48.58266" lon="6.44883">
        <ele>295</ele>
        <time>2017-06-26T08:50:10Z</time>
      </trkpt>
      <trkpt lat="48.58264" lon="6.44881">
        <ele>295</ele>
        <time>2017-06-26T08:50:11Z</time>
      </trkpt>
      <trkpt lat="48.58262" lon="6.44879">
        <ele>295</ele>
        <time>2017-06-26T08:50:12Z</time>
      </trkpt>
      <trkpt lat="48.5826" lon="6.44878">
        <ele>295</ele>
        <time>2017-06-26T08:50:13Z</time>
      </trkpt>
      <trkpt lat="48.58258" lon="6.44876">
        <ele>296</ele>
        <time>2017-06-26T08:50:14Z</time>
      </trkpt>
      <trkpt lat="48.58256" lon="6.44875">
        <ele>296</ele>
        <time>2017-06-26T08:50:15Z</time>
      </trkpt>
      <trkpt lat="48.58254" lon="6.44873">
        <ele>296</ele>
        <time>2017-06-26T08:50:16Z</time>
      </trkpt>
      <trkpt lat="48.58252" lon="6.44872">
        <ele>296</ele>
        <time>2017-06-26T08:50:17Z</time>
      </trkpt>
      <trkpt lat="48.5825" lon="6.4487">
        <ele>296</ele>
        <time>2017-06-26T08:50:18Z</time>
      </trkpt>
      <trkpt lat="48.58248" lon="6.44869">
        <ele>296</ele>
        <time>2017-06-26T08:50:19Z</time>
      </trkpt>
      <trkpt lat="48.58246" lon="6.44867">
        <ele>296</ele>
        <time>2017-06-26T08:50:20Z</time>
      </trkpt>
      <trkpt lat="48.58244" lon="6.44866">
        <ele>296</ele>
        <time>2017-06-26T08:50:21Z</time>
      </trkpt>
      <trkpt lat="48.58242" lon="6.44864">
        <ele>296</ele>
        <time>2017-06-26T08:50:22Z</time>
      </trkpt>
      <trkpt lat="48.5824" lon="6.44863">
        <ele>296</ele>
        <time>2017-06-26T08:50:23Z</time>
      </trkpt>
      <trkpt lat="48.58238" lon="6.44861">
        <ele>296</ele>
        <time>2017-06-26T08:50:24Z</time>
      </trkpt>
      <trkpt lat="48.58235" lon="6.4486">
        <ele>296</ele>
        <time>2017-06-26T08:50:25Z</time>
      </trkpt>
      <trkpt lat="48.58233" lon="6.44858">
        <ele>296</ele>
        <time>2017-06-26T08:50:26Z</time>
      </trkpt>
      <trkpt lat="48.58231" lon="6.44856">
        <ele>296</ele>
        <time>2017-06-26T08:50:27Z</time>
      </trkpt>
      <trkpt lat="48.58228" lon="6.44855">
        <ele>296</ele>
        <time>2017-06-26T08:50:28Z</time>
      </trkpt>
      <trkpt lat="48.58226" lon="6.44854">
        <ele>296</ele>
        <time>2017-06-26T08:50:29Z</time>
      </trkpt>
      <trkpt lat="48.58223" lon="6.44853">
        <ele>296</ele>
        <time>2017-06-26T08:50:30Z</time>
      </trkpt>
      <trkpt lat="48.58221" lon="6.44852">
        <ele>296</ele>
        <time>2017-06-26T08:50:31Z</time>
      </trkpt>
      <trkpt lat="48.58219" lon="6.44851">
        <ele>296</ele>
        <time>2017-06-26T08:50:32Z</time>
      </trkpt>
      <trkpt lat="48.58216" lon="6.44851">
        <ele>296</ele>
        <time>2017-06-26T08:50:33Z</time>
      </trkpt>
      <trkpt lat="48.58214" lon="6.4485">
        <ele>297</ele>
        <time>2017-06-26T08:50:34Z</time>
      </trkpt>
      <trkpt lat="48.58212" lon="6.44849">
        <ele>297</ele>
        <time>2017-06-26T08:50:35Z</time>
      </trkpt>
      <trkpt lat="48.5821" lon="6.44848">
        <ele>297</ele>
        <time>2017-06-26T08:50:36Z</time>
      </trkpt>
      <trkpt lat="48.58207" lon="6.44847">
        <ele>297</ele>
        <time>2017-06-26T08:50:37Z</time>
      </trkpt>
      <trkpt lat="48.58205" lon="6.44846">
        <ele>297</ele>
        <time>2017-06-26T08:50:38Z</time>
      </trkpt>
      <trkpt lat="48.58203" lon="6.44844">
        <ele>297</ele>
        <time>2017-06-26T08:50:39Z</time>
      </trkpt>
      <trkpt lat="48.58202" lon="6.44842">
        <ele>297</ele>
        <time>2017-06-26T08:50:40Z</time>
      </trkpt>
      <trkpt lat="48.582" lon="6.4484">
        <ele>297</ele>
        <time>2017-06-26T08:50:41Z</time>
      </trkpt>
      <trkpt lat="48.58198" lon="6.44838">
        <ele>297</ele>
        <time>2017-06-26T08:50:42Z</time>
      </trkpt>
      <trkpt lat="48.58196" lon="6.44836">
        <ele>297</ele>
        <time>2017-06-26T08:50:43Z</time>
      </trkpt>
      <trkpt lat="48.58193" lon="6.44835">
        <ele>298</ele>
        <time>2017-06-26T08:50:44Z</time>
      </trkpt>
      <trkpt lat="48.58191" lon="6.44833">
        <ele>298</ele>
        <time>2017-06-26T08:50:45Z</time>
      </trkpt>
      <trkpt lat="48.58188" lon="6.44831">
        <ele>298</ele>
        <time>2017-06-26T08:50:46Z</time>
      </trkpt>
      <trkpt lat="48.58186" lon="6.44829">
        <ele>298</ele>
        <time>2017-06-26T08:50:47Z</time>
      </trkpt>
      <trkpt lat="48.58183" lon="6.44827">
        <ele>298</ele>
        <time>2017-06-26T08:50:48Z</time>
      </trkpt>
      <trkpt lat="48.58181" lon="6.44826">
        <ele>298</ele>
        <time>2017-06-26T08:50:49Z</time>
      </trkpt>
      <trkpt lat="48.58179" lon="6.44824">
        <ele>298</ele>
        <time>2017-06-26T08:50:50Z</time>
      </trkpt>
      <trkpt lat="48.58177" lon="6.44822">
        <ele>298</ele>
        <time>2017-06-26T08:50:51Z</time>
      </trkpt>
      <trkpt lat="48.58175" lon="6.4482">
        <ele>298</ele>
        <time>2017-06-26T08:50:52Z</time>
      </trkpt>
      <trkpt lat="48.58172" lon="6.44818">
        <ele>298</ele>
        <time>2017-06-26T08:50:53Z</time>
      </trkpt>
      <trkpt lat="48.5817" lon="6.44816">
        <ele>298</ele>
        <time>2017-06-26T08:50:54Z</time>
      </trkpt>
      <trkpt lat="48.58168" lon="6.44814">
        <ele>298</ele>
        <time>2017-06-26T08:50:55Z</time>
      </trkpt>
      <trkpt lat="48.58165" lon="6.44812">
        <ele>298</ele>
        <time>2017-06-26T08:50:56Z</time>
      </trkpt>
      <trkpt lat="48.58163" lon="6.44809">
        <ele>298</ele>
        <time>2017-06-26T08:50:57Z</time>
      </trkpt>
      <trkpt lat="48.58162" lon="6.44806">
        <ele>298</ele>
        <time>2017-06-26T08:50:58Z</time>
      </trkpt>
      <trkpt lat="48.5816" lon="6.44803">
        <ele>298</ele>
        <time>2017-06-26T08:50:59Z</time>
      </trkpt>
      <trkpt lat="48.58158" lon="6.448">
        <ele>298</ele>
        <time>2017-06-26T08:51:00Z</time>
      </trkpt>
      <trkpt lat="48.58156" lon="6.44798">
        <ele>298</ele>
        <time>2017-06-26T08:51:01Z</time>
      </trkpt>
      <trkpt lat="48.58154" lon="6.44795">
        <ele>298</ele>
        <time>2017-06-26T08:51:02Z</time>
      </trkpt>
      <trkpt lat="48.58153" lon="6.44792">
        <ele>298</ele>
        <time>2017-06-26T08:51:03Z</time>
      </trkpt>
      <trkpt lat="48.58151" lon="6.4479">
        <ele>299</ele>
        <time>2017-06-26T08:51:04Z</time>
      </trkpt>
      <trkpt lat="48.58149" lon="6.44787">
        <ele>299</ele>
        <time>2017-06-26T08:51:05Z</time>
      </trkpt>
      <trkpt lat="48.58148" lon="6.44785">
        <ele>299</ele>
        <time>2017-06-26T08:51:06Z</time>
      </trkpt>
      <trkpt lat="48.58146" lon="6.44782">
        <ele>299</ele>
        <time>2017-06-26T08:51:07Z</time>
      </trkpt>
      <trkpt lat="48.58145" lon="6.4478">
        <ele>299</ele>
        <time>2017-06-26T08:51:08Z</time>
      </trkpt>
      <trkpt lat="48.58143" lon="6.44778">
        <ele>299</ele>
        <time>2017-06-26T08:51:09Z</time>
      </trkpt>
      <trkpt lat="48.58141" lon="6.44775">
        <ele>299</ele>
        <time>2017-06-26T08:51:10Z</time>
      </trkpt>
      <trkpt lat="48.5814" lon="6.44772">
        <ele>299</ele>
        <time>2017-06-26T08:51:11Z</time>
      </trkpt>
      <trkpt lat="48.58138" lon="6.4477">
        <ele>299</ele>
        <time>2017-06-26T08:51:12Z</time>
      </trkpt>
      <trkpt lat="48.58136" lon="6.44767">
        <ele>299</ele>
        <time>2017-06-26T08:51:13Z</time>
      </trkpt>
      <trkpt lat="48.58134" lon="6.44764">
        <ele>299</ele>
        <time>2017-06-26T08:51:14Z</time>
      </trkpt>
      <trkpt lat="48.58133" lon="6.44761">
        <ele>299</ele>
        <time>2017-06-26T08:51:15Z</time>
      </trkpt>
      <trkpt lat="48.58131" lon="6.44759">
        <ele>299</ele>
        <time>2017-06-26T08:51:16Z</time>
      </trkpt>
      <trkpt lat="48.5813" lon="6.44756">
        <ele>299</ele>
        <time>2017-06-26T08:51:17Z</time>
      </trkpt>
      <trkpt lat="48.58129" lon="6.44754">
        <ele>299</ele>
        <time>2017-06-26T08:51:18Z</time>
      </trkpt>
      <trkpt lat="48.58128" lon="6.44751">
        <ele>299</ele>
        <time>2017-06-26T08:51:19Z</time>
      </trkpt>
      <trkpt lat="48.58127" lon="6.44749">
        <ele>299</ele>
        <time>2017-06-26T08:51:20Z</time>
      </trkpt>
      <trkpt lat="48.58125" lon="6.44746">
        <ele>299</ele>
        <time>2017-06-26T08:51:21Z</time>
      </trkpt>
      <trkpt lat="48.58124" lon="6.44744">
        <ele>299</ele>
        <time>2017-06-26T08:51:22Z</time>
      </trkpt>
      <trkpt lat="48.58123" lon="6.44742">
        <ele>299</ele>
        <time>2017-06-26T08:51:23Z</time>
      </trkpt>
      <trkpt lat="48.58121" lon="6.4474">
        <ele>301</ele>
        <time>2017-06-26T08:51:24Z</time>
      </trkpt>
      <trkpt lat="48.5812" lon="6.44738">
        <ele>301</ele>
        <time>2017-06-26T08:51:25Z</time>
      </trkpt>
      <trkpt lat="48.58119" lon="6.44735">
        <ele>301</ele>
        <time>2017-06-26T08:51:26Z</time>
      </trkpt>
      <trkpt lat="48.58117" lon="6.44733">
        <ele>301</ele>
        <time>2017-06-26T08:51:27Z</time>
      </trkpt>
      <trkpt lat="48.58115" lon="6.44731">
        <ele>301</ele>
        <time>2017-06-26T08:51:28Z</time>
      </trkpt>
      <trkpt lat="48.58113" lon="6.44728">
        <ele>301</ele>
        <time>2017-06-26T08:51:29Z</time>
      </trkpt>
      <trkpt lat="48.58111" lon="6.44726">
        <ele>301</ele>
        <time>2017-06-26T08:51:30Z</time>
      </trkpt>
      <trkpt lat="48.58109" lon="6.44724">
        <ele>301</ele>
        <time>2017-06-26T08:51:31Z</time>
      </trkpt>
      <trkpt lat="48.58107" lon="6.44721">
        <ele>301</ele>
        <time>2017-06-26T08:51:32Z</time>
      </trkpt>
      <trkpt lat="48.58105" lon="6.44719">
        <ele>301</ele>
        <time>2017-06-26T08:51:33Z</time>
      </trkpt>
      <trkpt lat="48.58103" lon="6.44716">
        <ele>301</ele>
        <time>2017-06-26T08:51:34Z</time>
      </trkpt>
      <trkpt lat="48.58101" lon="6.44714">
        <ele>301</ele>
        <time>2017-06-26T08:51:35Z</time>
      </trkpt>
      <trkpt lat="48.58099" lon="6.44712">
        <ele>301</ele>
        <time>2017-06-26T08:51:36Z</time>
      </trkpt>
      <trkpt lat="48.58098" lon="6.4471">
        <ele>301</ele>
        <time>2017-06-26T08:51:37Z</time>
      </trkpt>
      <trkpt lat="48.58096" lon="6.44708">
        <ele>301</ele>
        <time>2017-06-26T08:51:38Z</time>
      </trkpt>
      <trkpt lat="48.58094" lon="6.44707">
        <ele>301</ele>
        <time>2017-06-26T08:51:39Z</time>
      </trkpt>
      <trkpt lat="48.58092" lon="6.44705">
        <ele>301</ele>
        <time>2017-06-26T08:51:40Z</time>
      </trkpt>
      <trkpt lat="48.5809" lon="6.44703">
        <ele>301</ele>
        <time>2017-06-26T08:51:41Z</time>
      </trkpt>
      <trkpt lat="48.58088" lon="6.44702">
        <ele>301</ele>
        <time>2017-06-26T08:51:42Z</time>
      </trkpt>
      <trkpt lat="48.58086" lon="6.447">
        <ele>301</ele>
        <time>2017-06-26T08:51:43Z</time>
      </trkpt>
      <trkpt lat="48.58083" lon="6.44699">
        <ele>301</ele>
        <time>2017-06-26T08:51:44Z</time>
      </trkpt>
      <trkpt lat="48.58081" lon="6.44697">
        <ele>301</ele>
        <time>2017-06-26T08:51:45Z</time>
      </trkpt>
      <trkpt lat="48.58079" lon="6.44695">
        <ele>301</ele>
        <time>2017-06-26T08:51:46Z</time>
      </trkpt>
      <trkpt lat="48.58077" lon="6.44693">
        <ele>301</ele>
        <time>2017-06-26T08:51:47Z</time>
      </trkpt>
      <trkpt lat="48.58075" lon="6.44691">
        <ele>301</ele>
        <time>2017-06-26T08:51:48Z</time>
      </trkpt>
      <trkpt lat="48.58073" lon="6.44688">
        <ele>301</ele>
        <time>2017-06-26T08:51:49Z</time>
      </trkpt>
      <trkpt lat="48.58071" lon="6.44686">
        <ele>301</ele>
        <time>2017-06-26T08:51:50Z</time>
      </trkpt>
      <trkpt lat="48.58069" lon="6.44683">
        <ele>301</ele>
        <time>2017-06-26T08:51:51Z</time>
      </trkpt>
      <trkpt lat="48.58067" lon="6.44681">
        <ele>301</ele>
        <time>2017-06-26T08:51:52Z</time>
      </trkpt>
      <trkpt lat="48.58065" lon="6.44678">
        <ele>301</ele>
        <time>2017-06-26T08:51:53Z</time>
      </trkpt>
      <trkpt lat="48.58063" lon="6.44676">
        <ele>301</ele>
        <time>2017-06-26T08:51:54Z</time>
      </trkpt>
      <trkpt lat="48.5806" lon="6.44674">
        <ele>301</ele>
        <time>2017-06-26T08:51:55Z</time>
      </trkpt>
      <trkpt lat="48.58058" lon="6.44672">
        <ele>301</ele>
        <time>2017-06-26T08:51:56Z</time>
      </trkpt>
      <trkpt lat="48.58056" lon="6.4467">
        <ele>301</ele>
        <time>2017-06-26T08:51:57Z</time>
      </trkpt>
      <trkpt lat="48.58054" lon="6.44668">
        <ele>301</ele>
        <time>2017-06-26T08:51:58Z</time>
      </trkpt>
      <trkpt lat="48.58052" lon="6.44666">
        <ele>301</ele>
        <time>2017-06-26T08:51:59Z</time>
      </trkpt>
      <trkpt lat="48.58049" lon="6.44664">
        <ele>301</ele>
        <time>2017-06-26T08:52:00Z</time>
      </trkpt>
      <trkpt lat="48.58047" lon="6.44663">
        <ele>301</ele>
        <time>2017-06-26T08:52:01Z</time>
      </trkpt>
      <trkpt lat="48.58045" lon="6.44661">
        <ele>301</ele>
        <time>2017-06-26T08:52:02Z</time>
      </trkpt>
      <trkpt lat="48.58043" lon="6.44659">
        <ele>301</ele>
        <time>2017-06-26T08:52:03Z</time>
      </trkpt>
      <trkpt lat="48.58041" lon="6.44657">
        <ele>301</ele>
        <time>2017-06-26T08:52:04Z</time>
      </trkpt>
      <trkpt lat="48.58039" lon="6.44656">
        <ele>301</ele>
        <time>2017-06-26T08:52:05Z</time>
      </trkpt>
      <trkpt lat="48.58037" lon="6.44653">
        <ele>301</ele>
        <time>2017-06-26T08:52:06Z</time>
      </trkpt>
      <trkpt lat="48.58035" lon="6.4465">
        <ele>301</ele>
        <time>2017-06-26T08:52:07Z</time>
      </trkpt>
      <trkpt lat="48.58033" lon="6.44648">
        <ele>301</ele>
        <time>2017-06-26T08:52:08Z</time>
      </trkpt>
      <trkpt lat="48.58031" lon="6.44645">
        <ele>301</ele>
        <time>2017-06-26T08:52:09Z</time>
      </trkpt>
      <trkpt lat="48.58029" lon="6.44642">
        <ele>301</ele>
        <time>2017-06-26T08:52:10Z</time>
      </trkpt>
      <trkpt lat="48.58027" lon="6.4464">
        <ele>301</ele>
        <time>2017-06-26T08:52:11Z</time>
      </trkpt>
      <trkpt lat="48.58025" lon="6.44637">
        <ele>301</ele>
        <time>2017-06-26T08:52:12Z</time>
      </trkpt>
      <trkpt lat="48.58023" lon="6.44635">
        <ele>301</ele>
        <time>2017-06-26T08:52:13Z</time>
      </trkpt>
      <trkpt lat="48.58021" lon="6.44632">
        <ele>301</ele>
        <time>2017-06-26T08:52:14Z</time>
      </trkpt>
      <trkpt lat="48.58019" lon="6.4463">
        <ele>301</ele>
        <time>2017-06-26T08:52:15Z</time>
      </trkpt>
      <trkpt lat="48.58016" lon="6.44628">
        <ele>301</ele>
        <time>2017-06-26T08:52:16Z</time>
      </trkpt>
      <trkpt lat="48.58014" lon="6.44625">
        <ele>301</ele>
        <time>2017-06-26T08:52:17Z</time>
      </trkpt>
      <trkpt lat="48.58012" lon="6.44623">
        <ele>301</ele>
        <time>2017-06-26T08:52:18Z</time>
      </trkpt>
      <trkpt lat="48.5801" lon="6.44621">
        <ele>301</ele>
        <time>2017-06-26T08:52:19Z</time>
      </trkpt>
      <trkpt lat="48.58008" lon="6.44619">
        <ele>301</ele>
        <time>2017-06-26T08:52:20Z</time>
      </trkpt>
      <trkpt lat="48.58006" lon="6.44617">
        <ele>301</ele>
        <time>2017-06-26T08:52:21Z</time>
      </trkpt>
      <trkpt lat="48.58003" lon="6.44615">
        <ele>301</ele>
        <time>2017-06-26T08:52:22Z</time>
      </trkpt>
      <trkpt lat="48.58001" lon="6.44613">
        <ele>301</ele>
        <time>2017-06-26T08:52:23Z</time>
      </trkpt>
      <trkpt lat="48.57999" lon="6.44611">
        <ele>301</ele>
        <time>2017-06-26T08:52:24Z</time>
      </trkpt>
      <trkpt lat="48.57996" lon="6.44608">
        <ele>301</ele>
        <time>2017-06-26T08:52:25Z</time>
      </trkpt>
      <trkpt lat="48.57994" lon="6.44606">
        <ele>301</ele>
        <time>2017-06-26T08:52:26Z</time>
      </trkpt>
      <trkpt lat="48.57992" lon="6.44604">
        <ele>301</ele>
        <time>2017-06-26T08:52:27Z</time>
      </trkpt>
      <trkpt lat="48.5799" lon="6.44602">
        <ele>301</ele>
        <time>2017-06-26T08:52:28Z</time>
      </trkpt>
      <trkpt lat="48.57988" lon="6.446">
        <ele>301</ele>
        <time>2017-06-26T08:52:29Z</time>
      </trkpt>
      <trkpt lat="48.57986" lon="6.44598">
        <ele>301</ele>
        <time>2017-06-26T08:52:30Z</time>
      </trkpt>
      <trkpt lat="48.57985" lon="6.44596">
        <ele>301</ele>
        <time>2017-06-26T08:52:31Z</time>
      </trkpt>
      <trkpt lat="48.57983" lon="6.44594">
        <ele>301</ele>
        <time>2017-06-26T08:52:32Z</time>
      </trkpt>
      <trkpt lat="48.57981" lon="6.44592">
        <ele>301</ele>
        <time>2017-06-26T08:52:33Z</time>
      </trkpt>
      <trkpt lat="48.57979" lon="6.4459">
        <ele>301</ele>
        <time>2017-06-26T08:52:34Z</time>
      </trkpt>
      <trkpt lat="48.57978" lon="6.44588">
        <ele>301</ele>
        <time>2017-06-26T08:52:35Z</time>
      </trkpt>
      <trkpt lat="48.57976" lon="6.44586">
        <ele>301</ele>
        <time>2017-06-26T08:52:36Z</time>
      </trkpt>
      <trkpt lat="48.57974" lon="6.44584">
        <ele>301</ele>
        <time>2017-06-26T08:52:37Z</time>
      </trkpt>
      <trkpt lat="48.57972" lon="6.44581">
        <ele>301</ele>
        <time>2017-06-26T08:52:38Z</time>
      </trkpt>
      <trkpt lat="48.5797" lon="6.44579">
        <ele>301</ele>
        <time>2017-06-26T08:52:39Z</time>
      </trkpt>
      <trkpt lat="48.57968" lon="6.44577">
        <ele>301</ele>
        <time>2017-06-26T08:52:40Z</time>
      </trkpt>
      <trkpt lat="48.57969" lon="6.44578">
        <ele>301</ele>
        <time>2017-06-26T08:52:41Z</time>
      </trkpt>
      <trkpt lat="48.57969" lon="6.44579">
        <ele>301</ele>
        <time>2017-06-26T08:52:43Z</time>
      </trkpt>
      <trkpt lat="48.57969" lon="6.4458">
        <ele>301</ele>
        <time>2017-06-26T08:52:44Z</time>
      </trkpt>
      <trkpt lat="48.5797" lon="6.44581">
        <ele>301</ele>
        <time>2017-06-26T08:52:46Z</time>
      </trkpt>
      <trkpt lat="48.5797" lon="6.44582">
        <ele>301</ele>
        <time>2017-06-26T08:52:47Z</time>
      </trkpt>
      <trkpt lat="48.5797" lon="6.44583">
        <ele>301</ele>
        <time>2017-06-26T08:52:49Z</time>
      </trkpt>
      <trkpt lat="48.5797" lon="6.44584">
        <ele>301</ele>
        <time>2017-06-26T08:52:51Z</time>
      </trkpt>
      <trkpt lat="48.57971" lon="6.44585">
        <ele>301</ele>
        <time>2017-06-26T08:52:52Z</time>
      </trkpt>
      <trkpt lat="48.57971" lon="6.44586">
        <ele>301</ele>
        <time>2017-06-26T08:52:54Z</time>
      </trkpt>
      <trkpt lat="48.57971" lon="6.44587">
        <ele>301</ele>
        <time>2017-06-26T08:52:56Z</time>
      </trkpt>
      <trkpt lat="48.57972" lon="6.44588">
        <ele>301</ele>
        <time>2017-06-26T08:52:57Z</time>
      </trkpt>
      <trkpt lat="48.57972" lon="6.44589">
        <ele>301</ele>
        <time>2017-06-26T08:52:59Z</time>
      </trkpt>
      <trkpt lat="48.57972" lon="6.4459">
        <ele>301</ele>
        <time>2017-06-26T08:53:01Z</time>
      </trkpt>
      <trkpt lat="48.57972" lon="6.44591">
        <ele>301</ele>
        <time>2017-06-26T08:53:02Z</time>
      </trkpt>
      <trkpt lat="48.57973" lon="6.44591">
        <ele>301</ele>
        <time>2017-06-26T08:53:03Z</time>
      </trkpt>
      <trkpt lat="48.57973" lon="6.44592">
        <ele>301</ele>
        <time>2017-06-26T08:53:04Z</time>
      </trkpt>
      <trkpt lat="48.57973" lon="6.44593">
        <ele>301</ele>
        <time>2017-06-26T08:53:05Z</time>
      </trkpt>
      <trkpt lat="48.57975" lon="6.44594">
        <ele>301</ele>
        <time>2017-06-26T08:53:06Z</time>
      </trkpt>
      <trkpt lat="48.57976" lon="6.44596">
        <ele>301</ele>
        <time>2017-06-26T08:53:07Z</time>
      </trkpt>
      <trkpt lat="48.57978" lon="6.44597">
        <ele>301</ele>
        <time>2017-06-26T08:53:08Z</time>
      </trkpt>
      <trkpt lat="48.5798" lon="6.44599">
        <ele>301</ele>
        <time>2017-06-26T08:53:09Z</time>
      </trkpt>
      <trkpt lat="48.57982" lon="6.446">
        <ele>301</ele>
        <time>2017-06-26T08:53:10Z</time>
      </trkpt>
      <trkpt lat="48.57984" lon="6.44602">
        <ele>301</ele>
        <time>2017-06-26T08:53:11Z</time>
      </trkpt>
      <trkpt lat="48.57986" lon="6.44604">
        <ele>301</ele>
        <time>2017-06-26T08:53:12Z</time>
      </trkpt>
      <trkpt lat="48.57988" lon="6.44606">
        <ele>301</ele>
        <time>2017-06-26T08:53:13Z</time>
      </trkpt>
      <trkpt lat="48.57991" lon="6.44608">
        <ele>301</ele>
        <time>2017-06-26T08:53:14Z</time>
      </trkpt>
      <trkpt lat="48.57993" lon="6.4461">
        <ele>301</ele>
        <time>2017-06-26T08:53:15Z</time>
      </trkpt>
      <trkpt lat="48.57995" lon="6.44612">
        <ele>301</ele>
        <time>2017-06-26T08:53:16Z</time>
      </trkpt>
      <trkpt lat="48.57997" lon="6.44614">
        <ele>301</ele>
        <time>2017-06-26T08:53:17Z</time>
      </trkpt>
      <trkpt lat="48.57999" lon="6.44616">
        <ele>301</ele>
        <time>2017-06-26T08:53:18Z</time>
      </trkpt>
      <trkpt lat="48.58001" lon="6.44618">
        <ele>301</ele>
        <time>2017-06-26T08:53:19Z</time>
      </trkpt>
      <trkpt lat="48.58004" lon="6.44619">
        <ele>301</ele>
        <time>2017-06-26T08:53:20Z</time>
      </trkpt>
      <trkpt lat="48.58006" lon="6.44621">
        <ele>301</ele>
        <time>2017-06-26T08:53:21Z</time>
      </trkpt>
      <trkpt lat="48.58008" lon="6.44623">
        <ele>301</ele>
        <time>2017-06-26T08:53:22Z</time>
      </trkpt>
      <trkpt lat="48.5801" lon="6.44625">
        <ele>301</ele>
        <time>2017-06-26T08:53:23Z</time>
      </trkpt>
      <trkpt lat="48.58012" lon="6.44629">
        <ele>301</ele>
        <time>2017-06-26T08:53:24Z</time>
      </trkpt>
      <trkpt lat="48.58013" lon="6.44634">
        <ele>301</ele>
        <time>2017-06-26T08:53:25Z</time>
      </trkpt>
      <trkpt lat="48.58015" lon="6.44638">
        <ele>301</ele>
        <time>2017-06-26T08:53:26Z</time>
      </trkpt>
      <trkpt lat="48.58017" lon="6.44641">
        <ele>301</ele>
        <time>2017-06-26T08:53:27Z</time>
      </trkpt>
      <trkpt lat="48.5802" lon="6.44643">
        <ele>301</ele>
        <time>2017-06-26T08:53:28Z</time>
      </trkpt>
      <trkpt lat="48.58022" lon="6.44646">
        <ele>301</ele>
        <time>2017-06-26T08:53:29Z</time>
      </trkpt>
      <trkpt lat="48.58024" lon="6.44648">
        <ele>301</ele>
        <time>2017-06-26T08:53:30Z</time>
      </trkpt>
      <trkpt lat="48.58026" lon="6.4465">
        <ele>301</ele>
        <time>2017-06-26T08:53:31Z</time>
      </trkpt>
      <trkpt lat="48.58029" lon="6.44652">
        <ele>301</ele>
        <time>2017-06-26T08:53:32Z</time>
      </trkpt>
      <trkpt lat="48.58031" lon="6.44654">
        <ele>301</ele>
        <time>2017-06-26T08:53:33Z</time>
      </trkpt>
      <trkpt lat="48.58033" lon="6.44656">
        <ele>301</ele>
        <time>2017-06-26T08:53:34Z</time>
      </trkpt>
      <trkpt lat="48.58035" lon="6.44658">
        <ele>301</ele>
        <time>2017-06-26T08:53:35Z</time>
      </trkpt>
      <trkpt lat="48.58036" lon="6.44659">
        <ele>301</ele>
        <time>2017-06-26T08:53:36Z</time>
      </trkpt>
      <trkpt lat="48.58038" lon="6.44661">
        <ele>301</ele>
        <time>2017-06-26T08:53:37Z</time>
      </trkpt>
      <trkpt lat="48.5804" lon="6.44662">
        <ele>301</ele>
        <time>2017-06-26T08:53:38Z</time>
      </trkpt>
      <trkpt lat="48.58041" lon="6.44664">
        <ele>301</ele>
        <time>2017-06-26T08:53:39Z</time>
      </trkpt>
      <trkpt lat="48.58043" lon="6.44666">
        <ele>301</ele>
        <time>2017-06-26T08:53:40Z</time>
      </trkpt>
      <trkpt lat="48.58045" lon="6.44667">
        <ele>301</ele>
        <time>2017-06-26T08:53:41Z</time>
      </trkpt>
      <trkpt lat="48.58047" lon="6.44668">
        <ele>301</ele>
        <time>2017-06-26T08:53:42Z</time>
      </trkpt>
      <trkpt lat="48.58049" lon="6.4467">
        <ele>301</ele>
        <time>2017-06-26T08:53:43Z</time>
      </trkpt>
      <trkpt lat="48.58051" lon="6.44671">
        <ele>300</ele>
        <time>2017-06-26T08:53:44Z</time>
      </trkpt>
      <trkpt lat="48.58053" lon="6.44672">
        <ele>300</ele>
        <time>2017-06-26T08:53:45Z</time>
      </trkpt>
      <trkpt lat="48.58056" lon="6.44675">
        <ele>300</ele>
        <time>2017-06-26T08:53:46Z</time>
      </trkpt>
      <trkpt lat="48.58058" lon="6.44677">
        <ele>300</ele>
        <time>2017-06-26T08:53:47Z</time>
      </trkpt>
      <trkpt lat="48.5806" lon="6.44679">
        <ele>300</ele>
        <time>2017-06-26T08:53:48Z</time>
      </trkpt>
      <trkpt lat="48.58062" lon="6.44682">
        <ele>300</ele>
        <time>2017-06-26T08:53:49Z</time>
      </trkpt>
      <trkpt lat="48.58064" lon="6.44684">
        <ele>300</ele>
        <time>2017-06-26T08:53:50Z</time>
      </trkpt>
      <trkpt lat="48.58067" lon="6.44686">
        <ele>300</ele>
        <time>2017-06-26T08:53:51Z</time>
      </trkpt>
      <trkpt lat="48.58069" lon="6.44689">
        <ele>300</ele>
        <time>2017-06-26T08:53:52Z</time>
      </trkpt>
      <trkpt lat="48.58071" lon="6.44691">
        <ele>300</ele>
        <time>2017-06-26T08:53:53Z</time>
      </trkpt>
      <trkpt lat="48.58073" lon="6.44693">
        <ele>300</ele>
        <time>2017-06-26T08:53:54Z</time>
      </trkpt>
      <trkpt lat="48.58076" lon="6.44695">
        <ele>300</ele>
        <time>2017-06-26T08:53:55Z</time>
      </trkpt>
      <trkpt lat="48.58078" lon="6.44697">
        <ele>300</ele>
        <time>2017-06-26T08:53:56Z</time>
      </trkpt>
      <trkpt lat="48.5808" lon="6.447">
        <ele>300</ele>
        <time>2017-06-26T08:53:57Z</time>
      </trkpt>
      <trkpt lat="48.58083" lon="6.44702">
        <ele>300</ele>
        <time>2017-06-26T08:53:58Z</time>
      </trkpt>
      <trkpt lat="48.58085" lon="6.44705">
        <ele>300</ele>
        <time>2017-06-26T08:53:59Z</time>
      </trkpt>
      <trkpt lat="48.58087" lon="6.44708">
        <ele>300</ele>
        <time>2017-06-26T08:54:00Z</time>
      </trkpt>
      <trkpt lat="48.58089" lon="6.44711">
        <ele>300</ele>
        <time>2017-06-26T08:54:01Z</time>
      </trkpt>
      <trkpt lat="48.58091" lon="6.44714">
        <ele>300</ele>
        <time>2017-06-26T08:54:02Z</time>
      </trkpt>
      <trkpt lat="48.58093" lon="6.44717">
        <ele>300</ele>
        <time>2017-06-26T08:54:03Z</time>
      </trkpt>
      <trkpt lat="48.58095" lon="6.4472">
        <ele>300</ele>
        <time>2017-06-26T08:54:04Z</time>
      </trkpt>
      <trkpt lat="48.58098" lon="6.44722">
        <ele>300</ele>
        <time>2017-06-26T08:54:05Z</time>
      </trkpt>
      <trkpt lat="48.58099" lon="6.44725">
        <ele>300</ele>
        <time>2017-06-26T08:54:06Z</time>
      </trkpt>
      <trkpt lat="48.58101" lon="6.44728">
        <ele>300</ele>
        <time>2017-06-26T08:54:07Z</time>
      </trkpt>
      <trkpt lat="48.58102" lon="6.44732">
        <ele>300</ele>
        <time>2017-06-26T08:54:08Z</time>
      </trkpt>
      <trkpt lat="48.58104" lon="6.44735">
        <ele>300</ele>
        <time>2017-06-26T08:54:09Z</time>
      </trkpt>
      <trkpt lat="48.58106" lon="6.44737">
        <ele>300</ele>
        <time>2017-06-26T08:54:10Z</time>
      </trkpt>
      <trkpt lat="48.58108" lon="6.4474">
        <ele>300</ele>
        <time>2017-06-26T08:54:11Z</time>
      </trkpt>
      <trkpt lat="48.5811" lon="6.44743">
        <ele>300</ele>
        <time>2017-06-26T08:54:12Z</time>
      </trkpt>
      <trkpt lat="48.58112" lon="6.44746">
        <ele>300</ele>
        <time>2017-06-26T08:54:13Z</time>
      </trkpt>
      <trkpt lat="48.58114" lon="6.44749">
        <ele>300</ele>
        <time>2017-06-26T08:54:14Z</time>
      </trkpt>
      <trkpt lat="48.58115" lon="6.44752">
        <ele>300</ele>
        <time>2017-06-26T08:54:15Z</time>
      </trkpt>
      <trkpt lat="48.58117" lon="6.44755">
        <ele>300</ele>
        <time>2017-06-26T08:54:16Z</time>
      </trkpt>
      <trkpt lat="48.58119" lon="6.44758">
        <ele>300</ele>
        <time>2017-06-26T08:54:17Z</time>
      </trkpt>
      <trkpt lat="48.5812" lon="6.44761">
        <ele>300</ele>
        <time>2017-06-26T08:54:18Z</time>
      </trkpt>
      <trkpt lat="48.58122" lon="6.44765">
        <ele>300</ele>
        <time>2017-06-26T08:54:19Z</time>
      </trkpt>
      <trkpt lat="48.58124" lon="6.44768">
        <ele>300</ele>
        <time>2017-06-26T08:54:20Z</time>
      </trkpt>
      <trkpt lat="48.58126" lon="6.44771">
        <ele>300</ele>
        <time>2017-06-26T08:54:21Z</time>
      </trkpt>
      <trkpt lat="48.58128" lon="6.44774">
        <ele>300</ele>
        <time>2017-06-26T08:54:22Z</time>
      </trkpt>
      <trkpt lat="48.5813" lon="6.44778">
        <ele>300</ele>
        <time>2017-06-26T08:54:23Z</time>
      </trkpt>
      <trkpt lat="48.58133" lon="6.44782">
        <ele>299</ele>
        <time>2017-06-26T08:54:24Z</time>
      </trkpt>
      <trkpt lat="48.58135" lon="6.44784">
        <ele>299</ele>
        <time>2017-06-26T08:54:25Z</time>
      </trkpt>
      <trkpt lat="48.58137" lon="6.44787">
        <ele>299</ele>
        <time>2017-06-26T08:54:26Z</time>
      </trkpt>
      <trkpt lat="48.58139" lon="6.44789">
        <ele>299</ele>
        <time>2017-06-26T08:54:27Z</time>
      </trkpt>
      <trkpt lat="48.58141" lon="6.44791">
        <ele>299</ele>
        <time>2017-06-26T08:54:28Z</time>
      </trkpt>
      <trkpt lat="48.58143" lon="6.44794">
        <ele>299</ele>
        <time>2017-06-26T08:54:29Z</time>
      </trkpt>
      <trkpt lat="48.58145" lon="6.44797">
        <ele>299</ele>
        <time>2017-06-26T08:54:30Z</time>
      </trkpt>
      <trkpt lat="48.58147" lon="6.448">
        <ele>299</ele>
        <time>2017-06-26T08:54:31Z</time>
      </trkpt>
      <trkpt lat="48.58148" lon="6.44803">
        <ele>299</ele>
        <time>2017-06-26T08:54:32Z</time>
      </trkpt>
      <trkpt lat="48.5815" lon="6.44806">
        <ele>299</ele>
        <time>2017-06-26T08:54:33Z</time>
      </trkpt>
      <trkpt lat="48.58152" lon="6.44808">
        <ele>297</ele>
        <time>2017-06-26T08:54:34Z</time>
      </trkpt>
      <trkpt lat="48.58154" lon="6.44811">
        <ele>297</ele>
        <time>2017-06-26T08:54:35Z</time>
      </trkpt>
      <trkpt lat="48.58156" lon="6.44814">
        <ele>297</ele>
        <time>2017-06-26T08:54:36Z</time>
      </trkpt>
      <trkpt lat="48.58157" lon="6.44817">
        <ele>297</ele>
        <time>2017-06-26T08:54:37Z</time>
      </trkpt>
      <trkpt lat="48.58159" lon="6.44821">
        <ele>297</ele>
        <time>2017-06-26T08:54:38Z</time>
      </trkpt>
      <trkpt lat="48.5816" lon="6.44824">
        <ele>297</ele>
        <time>2017-06-26T08:54:39Z</time>
      </trkpt>
      <trkpt lat="48.58162" lon="6.44827">
        <ele>297</ele>
        <time>2017-06-26T08:54:40Z</time>
      </trkpt>
      <trkpt lat="48.58163" lon="6.4483">
        <ele>297</ele>
        <time>2017-06-26T08:54:41Z</time>
      </trkpt>
      <trkpt lat="48.58165" lon="6.44832">
        <ele>297</ele>
        <time>2017-06-26T08:54:42Z</time>
      </trkpt>
      <trkpt lat="48.58166" lon="6.44834">
        <ele>297</ele>
        <time>2017-06-26T08:54:43Z</time>
      </trkpt>
      <trkpt lat="48.58168" lon="6.44836">
        <ele>296</ele>
        <time>2017-06-26T08:54:44Z</time>
      </trkpt>
      <trkpt lat="48.5817" lon="6.44838">
        <ele>296</ele>
        <time>2017-06-26T08:54:45Z</time>
      </trkpt>
      <trkpt lat="48.58171" lon="6.44841">
        <ele>296</ele>
        <time>2017-06-26T08:54:46Z</time>
      </trkpt>
      <trkpt lat="48.58173" lon="6.44843">
        <ele>296</ele>
        <time>2017-06-26T08:54:47Z</time>
      </trkpt>
      <trkpt lat="48.58175" lon="6.44845">
        <ele>296</ele>
        <time>2017-06-26T08:54:48Z</time>
      </trkpt>
      <trkpt lat="48.58177" lon="6.44847">
        <ele>296</ele>
        <time>2017-06-26T08:54:49Z</time>
      </trkpt>
      <trkpt lat="48.58179" lon="6.4485">
        <ele>296</ele>
        <time>2017-06-26T08:54:50Z</time>
      </trkpt>
      <trkpt lat="48.58181" lon="6.44852">
        <ele>296</ele>
        <time>2017-06-26T08:54:51Z</time>
      </trkpt>
      <trkpt lat="48.58183" lon="6.44854">
        <ele>296</ele>
        <time>2017-06-26T08:54:52Z</time>
      </trkpt>
      <trkpt lat="48.58184" lon="6.44856">
        <ele>296</ele>
        <time>2017-06-26T08:54:53Z</time>
      </trkpt>
      <trkpt lat="48.58186" lon="6.44858">
        <ele>296</ele>
        <time>2017-06-26T08:54:54Z</time>
      </trkpt>
      <trkpt lat="48.58188" lon="6.4486">
        <ele>296</ele>
        <time>2017-06-26T08:54:55Z</time>
      </trkpt>
      <trkpt lat="48.5819" lon="6.44862">
        <ele>296</ele>
        <time>2017-06-26T08:54:56Z</time>
      </trkpt>
      <trkpt lat="48.58192" lon="6.44864">
        <ele>296</ele>
        <time>2017-06-26T08:54:57Z</time>
      </trkpt>
      <trkpt lat="48.58194" lon="6.44866">
        <ele>296</ele>
        <time>2017-06-26T08:54:58Z</time>
      </trkpt>
      <trkpt lat="48.58196" lon="6.44868">
        <ele>296</ele>
        <time>2017-06-26T08:54:59Z</time>
      </trkpt>
      <trkpt lat="48.58198" lon="6.4487">
        <ele>296</ele>
        <time>2017-06-26T08:55:00Z</time>
      </trkpt>
      <trkpt lat="48.582" lon="6.44872">
        <ele>296</ele>
        <time>2017-06-26T08:55:01Z</time>
      </trkpt>
      <trkpt lat="48.58202" lon="6.44874">
        <ele>296</ele>
        <time>2017-06-26T08:55:02Z</time>
      </trkpt>
      <trkpt lat="48.58204" lon="6.44875">
        <ele>296</ele>
        <time>2017-06-26T08:55:03Z</time>
      </trkpt>
      <trkpt lat="48.58206" lon="6.44877">
        <ele>295</ele>
        <time>2017-06-26T08:55:04Z</time>
      </trkpt>
      <trkpt lat="48.58208" lon="6.44879">
        <ele>295</ele>
        <time>2017-06-26T08:55:05Z</time>
      </trkpt>
      <trkpt lat="48.5821" lon="6.4488">
        <ele>295</ele>
        <time>2017-06-26T08:55:06Z</time>
      </trkpt>
      <trkpt lat="48.58212" lon="6.44882">
        <ele>295</ele>
        <time>2017-06-26T08:55:07Z</time>
      </trkpt>
      <trkpt lat="48.58214" lon="6.44884">
        <ele>295</ele>
        <time>2017-06-26T08:55:08Z</time>
      </trkpt>
      <trkpt lat="48.58216" lon="6.44885">
        <ele>295</ele>
        <time>2017-06-26T08:55:09Z</time>
      </trkpt>
      <trkpt lat="48.58218" lon="6.44887">
        <ele>295</ele>
        <time>2017-06-26T08:55:10Z</time>
      </trkpt>
      <trkpt lat="48.58221" lon="6.44889">
        <ele>295</ele>
        <time>2017-06-26T08:55:11Z</time>
      </trkpt>
      <trkpt lat="48.58224" lon="6.44892">
        <ele>295</ele>
        <time>2017-06-26T08:55:12Z</time>
      </trkpt>
      <trkpt lat="48.58226" lon="6.44894">
        <ele>295</ele>
        <time>2017-06-26T08:55:13Z</time>
      </trkpt>
      <trkpt lat="48.58229" lon="6.44896">
        <ele>295</ele>
        <time>2017-06-26T08:55:14Z</time>
      </trkpt>
      <trkpt lat="48.58231" lon="6.44899">
        <ele>295</ele>
        <time>2017-06-26T08:55:15Z</time>
      </trkpt>
      <trkpt lat="48.58234" lon="6.44901">
        <ele>295</ele>
        <time>2017-06-26T08:55:16Z</time>
      </trkpt>
      <trkpt lat="48.58237" lon="6.44904">
        <ele>295</ele>
        <time>2017-06-26T08:55:17Z</time>
      </trkpt>
      <trkpt lat="48.58239" lon="6.44906">
        <ele>295</ele>
        <time>2017-06-26T08:55:18Z</time>
      </trkpt>
      <trkpt lat="48.58241" lon="6.44908">
        <ele>295</ele>
        <time>2017-06-26T08:55:19Z</time>
      </trkpt>
      <trkpt lat="48.58244" lon="6.4491">
        <ele>295</ele>
        <time>2017-06-26T08:55:20Z</time>
      </trkpt>
      <trkpt lat="48.58246" lon="6.44912">
        <ele>295</ele>
        <time>2017-06-26T08:55:21Z</time>
      </trkpt>
      <trkpt lat="48.58249" lon="6.44914">
        <ele>295</ele>
        <time>2017-06-26T08:55:22Z</time>
      </trkpt>
      <trkpt lat="48.58251" lon="6.44916">
        <ele>295</ele>
        <time>2017-06-26T08:55:23Z</time>
      </trkpt>
      <trkpt lat="48.58254" lon="6.44919">
        <ele>294</ele>
        <time>2017-06-26T08:55:24Z</time>
      </trkpt>
      <trkpt lat="48.58256" lon="6.4492">
        <ele>294</ele>
        <time>2017-06-26T08:55:25Z</time>
      </trkpt>
      <trkpt lat="48.58259" lon="6.44922">
        <ele>294</ele>
        <time>2017-06-26T08:55:26Z</time>
      </trkpt>
      <trkpt lat="48.58262" lon="6.44924">
        <ele>294</ele>
        <time>2017-06-26T08:55:27Z</time>
      </trkpt>
      <trkpt lat="48.58264" lon="6.44926">
        <ele>294</ele>
        <time>2017-06-26T08:55:28Z</time>
      </trkpt>
      <trkpt lat="48.58266" lon="6.4493">
        <ele>294</ele>
        <time>2017-06-26T08:55:29Z</time>
      </trkpt>
      <trkpt lat="48.58268" lon="6.44935">
        <ele>294</ele>
        <time>2017-06-26T08:55:30Z</time>
      </trkpt>
      <trkpt lat="48.5827" lon="6.44939">
        <ele>294</ele>
        <time>2017-06-26T08:55:31Z</time>
      </trkpt>
      <trkpt lat="48.58271" lon="6.44945">
        <ele>294</ele>
        <time>2017-06-26T08:55:32Z</time>
      </trkpt>
      <trkpt lat="48.58272" lon="6.4495">
        <ele>294</ele>
        <time>2017-06-26T08:55:33Z</time>
      </trkpt>
      <trkpt lat="48.58273" lon="6.44956">
        <ele>293</ele>
        <time>2017-06-26T08:55:34Z</time>
      </trkpt>
      <trkpt lat="48.58274" lon="6.44959">
        <ele>293</ele>
        <time>2017-06-26T08:55:35Z</time>
      </trkpt>
      <trkpt lat="48.58275" lon="6.44963">
        <ele>293</ele>
        <time>2017-06-26T08:55:36Z</time>
      </trkpt>
      <trkpt lat="48.58276" lon="6.44966">
        <ele>293</ele>
        <time>2017-06-26T08:55:37Z</time>
      </trkpt>
      <trkpt lat="48.58277" lon="6.4497">
        <ele>293</ele>
        <time>2017-06-26T08:55:38Z</time>
      </trkpt>
      <trkpt lat="48.58276" lon="6.44973">
        <ele>293</ele>
        <time>2017-06-26T08:55:39Z</time>
      </trkpt>
      <trkpt lat="48.58274" lon="6.44976">
        <ele>293</ele>
        <time>2017-06-26T08:55:40Z</time>
      </trkpt>
      <trkpt lat="48.58273" lon="6.44979">
        <ele>293</ele>
        <time>2017-06-26T08:55:41Z</time>
      </trkpt>
      <trkpt lat="48.58272" lon="6.44982">
        <ele>293</ele>
        <time>2017-06-26T08:55:42Z</time>
      </trkpt>
      <trkpt lat="48.5827" lon="6.44985">
        <ele>293</ele>
        <time>2017-06-26T08:55:43Z</time>
      </trkpt>
      <trkpt lat="48.58269" lon="6.44988">
        <ele>290</ele>
        <time>2017-06-26T08:55:44Z</time>
      </trkpt>
      <trkpt lat="48.58268" lon="6.44992">
        <ele>290</ele>
        <time>2017-06-26T08:55:45Z</time>
      </trkpt>
      <trkpt lat="48.58266" lon="6.44995">
        <ele>290</ele>
        <time>2017-06-26T08:55:46Z</time>
      </trkpt>
      <trkpt lat="48.58265" lon="6.44999">
        <ele>290</ele>
        <time>2017-06-26T08:55:47Z</time>
      </trkpt>
      <trkpt lat="48.58263" lon="6.45002">
        <ele>290</ele>
        <time>2017-06-26T08:55:48Z</time>
      </trkpt>
      <trkpt lat="48.58261" lon="6.45006">
        <ele>289</ele>
        <time>2017-06-26T08:55:49Z</time>
      </trkpt>
      <trkpt lat="48.58259" lon="6.4501">
        <ele>289</ele>
        <time>2017-06-26T08:55:50Z</time>
      </trkpt>
      <trkpt lat="48.58257" lon="6.45014">
        <ele>289</ele>
        <time>2017-06-26T08:55:51Z</time>
      </trkpt>
      <trkpt lat="48.58255" lon="6.45017">
        <ele>289</ele>
        <time>2017-06-26T08:55:52Z</time>
      </trkpt>
      <trkpt lat="48.58254" lon="6.45021">
        <ele>289</ele>
        <time>2017-06-26T08:55:53Z</time>
      </trkpt>
      <trkpt lat="48.58252" lon="6.45024">
        <ele>288</ele>
        <time>2017-06-26T08:55:54Z</time>
      </trkpt>
      <trkpt lat="48.5825" lon="6.45027">
        <ele>288</ele>
        <time>2017-06-26T08:55:55Z</time>
      </trkpt>
      <trkpt lat="48.58249" lon="6.4503">
        <ele>288</ele>
        <time>2017-06-26T08:55:56Z</time>
      </trkpt>
      <trkpt lat="48.58247" lon="6.45034">
        <ele>288</ele>
        <time>2017-06-26T08:55:57Z</time>
      </trkpt>
      <trkpt lat="48.58245" lon="6.45037">
        <ele>288</ele>
        <time>2017-06-26T08:55:58Z</time>
      </trkpt>
      <trkpt lat="48.58243" lon="6.4504">
        <ele>287</ele>
        <time>2017-06-26T08:55:59Z</time>
      </trkpt>
      <trkpt lat="48.58242" lon="6.45043">
        <ele>287</ele>
        <time>2017-06-26T08:56:00Z</time>
      </trkpt>
      <trkpt lat="48.58241" lon="6.45046">
        <ele>287</ele>
        <time>2017-06-26T08:56:01Z</time>
      </trkpt>
      <trkpt lat="48.58239" lon="6.45049">
        <ele>287</ele>
        <time>2017-06-26T08:56:02Z</time>
      </trkpt>
      <trkpt lat="48.58238" lon="6.45052">
        <ele>287</ele>
        <time>2017-06-26T08:56:03Z</time>
      </trkpt>
      <trkpt lat="48.58237" lon="6.45056">
        <ele>284</ele>
        <time>2017-06-26T08:56:04Z</time>
      </trkpt>
      <trkpt lat="48.58235" lon="6.45059">
        <ele>284</ele>
        <time>2017-06-26T08:56:05Z</time>
      </trkpt>
      <trkpt lat="48.58233" lon="6.45063">
        <ele>284</ele>
        <time>2017-06-26T08:56:06Z</time>
      </trkpt>
      <trkpt lat="48.58231" lon="6.45066">
        <ele>284</ele>
        <time>2017-06-26T08:56:07Z</time>
      </trkpt>
      <trkpt lat="48.58229" lon="6.4507">
        <ele>284</ele>
        <time>2017-06-26T08:56:08Z</time>
      </trkpt>
      <trkpt lat="48.58227" lon="6.45074">
        <ele>284</ele>
        <time>2017-06-26T08:56:09Z</time>
      </trkpt>
      <trkpt lat="48.58226" lon="6.45077">
        <ele>284</ele>
        <time>2017-06-26T08:56:10Z</time>
      </trkpt>
      <trkpt lat="48.58224" lon="6.45081">
        <ele>284</ele>
        <time>2017-06-26T08:56:11Z</time>
      </trkpt>
      <trkpt lat="48.58222" lon="6.45084">
        <ele>284</ele>
        <time>2017-06-26T08:56:12Z</time>
      </trkpt>
      <trkpt lat="48.5822" lon="6.45088">
        <ele>284</ele>
        <time>2017-06-26T08:56:13Z</time>
      </trkpt>
      <trkpt lat="48.58219" lon="6.45092">
        <ele>283</ele>
        <time>2017-06-26T08:56:14Z</time>
      </trkpt>
      <trkpt lat="48.58217" lon="6.45096">
        <ele>283</ele>
        <time>2017-06-26T08:56:15Z</time>
      </trkpt>
      <trkpt lat="48.58215" lon="6.451">
        <ele>283</ele>
        <time>2017-06-26T08:56:16Z</time>
      </trkpt>
      <trkpt lat="48.58213" lon="6.45104">
        <ele>283</ele>
        <time>2017-06-26T08:56:17Z</time>
      </trkpt>
      <trkpt lat="48.58211" lon="6.45108">
        <ele>283</ele>
        <time>2017-06-26T08:56:18Z</time>
      </trkpt>
      <trkpt lat="48.58209" lon="6.45111">
        <ele>283</ele>
        <time>2017-06-26T08:56:19Z</time>
      </trkpt>
      <trkpt lat="48.58207" lon="6.45115">
        <ele>283</ele>
        <time>2017-06-26T08:56:20Z</time>
      </trkpt>
      <trkpt lat="48.58205" lon="6.45119">
        <ele>283</ele>
        <time>2017-06-26T08:56:21Z</time>
      </trkpt>
      <trkpt lat="48.58203" lon="6.45124">
        <ele>283</ele>
        <time>2017-06-26T08:56:22Z</time>
      </trkpt>
      <trkpt lat="48.58201" lon="6.45128">
        <ele>283</ele>
        <time>2017-06-26T08:56:23Z</time>
      </trkpt>
      <trkpt lat="48.58199" lon="6.45131">
        <ele>281</ele>
        <time>2017-06-26T08:56:24Z</time>
      </trkpt>
      <trkpt lat="48.58197" lon="6.45135">
        <ele>281</ele>
        <time>2017-06-26T08:56:25Z</time>
      </trkpt>
      <trkpt lat="48.58195" lon="6.45138">
        <ele>281</ele>
        <time>2017-06-26T08:56:26Z</time>
      </trkpt>
      <trkpt lat="48.58193" lon="6.45142">
        <ele>281</ele>
        <time>2017-06-26T08:56:27Z</time>
      </trkpt>
      <trkpt lat="48.58191" lon="6.45145">
        <ele>281</ele>
        <time>2017-06-26T08:56:28Z</time>
      </trkpt>
      <trkpt lat="48.58189" lon="6.45148">
        <ele>281</ele>
        <time>2017-06-26T08:56:29Z</time>
      </trkpt>
      <trkpt lat="48.58187" lon="6.45152">
        <ele>281</ele>
        <time>2017-06-26T08:56:30Z</time>
      </trkpt>
      <trkpt lat="48.58185" lon="6.45155">
        <ele>281</ele>
        <time>2017-06-26T08:56:31Z</time>
      </trkpt>
      <trkpt lat="48.58184" lon="6.45158">
        <ele>281</ele>
        <time>2017-06-26T08:56:32Z</time>
      </trkpt>
      <trkpt lat="48.58182" lon="6.4516">
        <ele>281</ele>
        <time>2017-06-26T08:56:33Z</time>
      </trkpt>
      <trkpt lat="48.58181" lon="6.45163">
        <ele>280</ele>
        <time>2017-06-26T08:56:34Z</time>
      </trkpt>
      <trkpt lat="48.58179" lon="6.45165">
        <ele>280</ele>
        <time>2017-06-26T08:56:35Z</time>
      </trkpt>
      <trkpt lat="48.58178" lon="6.45168">
        <ele>280</ele>
        <time>2017-06-26T08:56:36Z</time>
      </trkpt>
      <trkpt lat="48.58177" lon="6.45171">
        <ele>280</ele>
        <time>2017-06-26T08:56:37Z</time>
      </trkpt>
      <trkpt lat="48.58177" lon="6.45174">
        <ele>280</ele>
        <time>2017-06-26T08:56:38Z</time>
      </trkpt>
      <trkpt lat="48.58176" lon="6.45177">
        <ele>280</ele>
        <time>2017-06-26T08:56:39Z</time>
      </trkpt>
      <trkpt lat="48.58176" lon="6.4518">
        <ele>280</ele>
        <time>2017-06-26T08:56:40Z</time>
      </trkpt>
      <trkpt lat="48.58175" lon="6.45183">
        <ele>280</ele>
        <time>2017-06-26T08:56:41Z</time>
      </trkpt>
      <trkpt lat="48.58175" lon="6.45187">
        <ele>280</ele>
        <time>2017-06-26T08:56:42Z</time>
      </trkpt>
      <trkpt lat="48.58174" lon="6.4519">
        <ele>280</ele>
        <time>2017-06-26T08:56:43Z</time>
      </trkpt>
      <trkpt lat="48.58174" lon="6.45193">
        <ele>279</ele>
        <time>2017-06-26T08:56:44Z</time>
      </trkpt>
      <trkpt lat="48.58173" lon="6.45196">
        <ele>279</ele>
        <time>2017-06-26T08:56:45Z</time>
      </trkpt>
      <trkpt lat="48.58173" lon="6.452">
        <ele>279</ele>
        <time>2017-06-26T08:56:46Z</time>
      </trkpt>
      <trkpt lat="48.58172" lon="6.45203">
        <ele>279</ele>
        <time>2017-06-26T08:56:47Z</time>
      </trkpt>
      <trkpt lat="48.58171" lon="6.45206">
        <ele>279</ele>
        <time>2017-06-26T08:56:48Z</time>
      </trkpt>
      <trkpt lat="48.58171" lon="6.4521">
        <ele>279</ele>
        <time>2017-06-26T08:56:49Z</time>
      </trkpt>
      <trkpt lat="48.5817" lon="6.45213">
        <ele>279</ele>
        <time>2017-06-26T08:56:50Z</time>
      </trkpt>
      <trkpt lat="48.58169" lon="6.45217">
        <ele>279</ele>
        <time>2017-06-26T08:56:51Z</time>
      </trkpt>
      <trkpt lat="48.5817" lon="6.45219">
        <ele>279</ele>
        <time>2017-06-26T08:56:52Z</time>
      </trkpt>
      <trkpt lat="48.5817" lon="6.45222">
        <ele>279</ele>
        <time>2017-06-26T08:56:53Z</time>
      </trkpt>
      <trkpt lat="48.58171" lon="6.45224">
        <ele>279</ele>
        <time>2017-06-26T08:56:54Z</time>
      </trkpt>
      <trkpt lat="48.58171" lon="6.45227">
        <ele>279</ele>
        <time>2017-06-26T08:56:55Z</time>
      </trkpt>
      <trkpt lat="48.58172" lon="6.4523">
        <ele>279</ele>
        <time>2017-06-26T08:56:56Z</time>
      </trkpt>
      <trkpt lat="48.58172" lon="6.45232">
        <ele>279</ele>
        <time>2017-06-26T08:56:57Z</time>
      </trkpt>
      <trkpt lat="48.58172" lon="6.45235">
        <ele>279</ele>
        <time>2017-06-26T08:56:58Z</time>
      </trkpt>
      <trkpt lat="48.58172" lon="6.45239">
        <ele>279</ele>
        <time>2017-06-26T08:56:59Z</time>
      </trkpt>
      <trkpt lat="48.58172" lon="6.45242">
        <ele>279</ele>
        <time>2017-06-26T08:57:00Z</time>
      </trkpt>
      <trkpt lat="48.58171" lon="6.45245">
        <ele>279</ele>
        <time>2017-06-26T08:57:01Z</time>
      </trkpt>
      <trkpt lat="48.58171" lon="6.45248">
        <ele>279</ele>
        <time>2017-06-26T08:57:02Z</time>
      </trkpt>
      <trkpt lat="48.58171" lon="6.45252">
        <ele>279</ele>
        <time>2017-06-26T08:57:03Z</time>
      </trkpt>
      <trkpt lat="48.58171" lon="6.45256">
        <ele>277</ele>
        <time>2017-06-26T08:57:04Z</time>
      </trkpt>
      <trkpt lat="48.58171" lon="6.45259">
        <ele>277</ele>
        <time>2017-06-26T08:57:05Z</time>
      </trkpt>
      <trkpt lat="48.58172" lon="6.45263">
        <ele>277</ele>
        <time>2017-06-26T08:57:06Z</time>
      </trkpt>
      <trkpt lat="48.58172" lon="6.45266">
        <ele>277</ele>
        <time>2017-06-26T08:57:07Z</time>
      </trkpt>
      <trkpt lat="48.58173" lon="6.45271">
        <ele>277</ele>
        <time>2017-06-26T08:57:08Z</time>
      </trkpt>
      <trkpt lat="48.58174" lon="6.45275">
        <ele>277</ele>
        <time>2017-06-26T08:57:09Z</time>
      </trkpt>
      <trkpt lat="48.58175" lon="6.4528">
        <ele>277</ele>
        <time>2017-06-26T08:57:10Z</time>
      </trkpt>
      <trkpt lat="48.58177" lon="6.45284">
        <ele>277</ele>
        <time>2017-06-26T08:57:11Z</time>
      </trkpt>
      <trkpt lat="48.58177" lon="6.45288">
        <ele>277</ele>
        <time>2017-06-26T08:57:12Z</time>
      </trkpt>
      <trkpt lat="48.58178" lon="6.45292">
        <ele>277</ele>
        <time>2017-06-26T08:57:13Z</time>
      </trkpt>
      <trkpt lat="48.58178" lon="6.45296">
        <ele>277</ele>
        <time>2017-06-26T08:57:14Z</time>
      </trkpt>
      <trkpt lat="48.58179" lon="6.45299">
        <ele>277</ele>
        <time>2017-06-26T08:57:15Z</time>
      </trkpt>
      <trkpt lat="48.58179" lon="6.45303">
        <ele>277</ele>
        <time>2017-06-26T08:57:16Z</time>
      </trkpt>
      <trkpt lat="48.58179" lon="6.45307">
        <ele>277</ele>
        <time>2017-06-26T08:57:17Z</time>
      </trkpt>
      <trkpt lat="48.5818" lon="6.45311">
        <ele>277</ele>
        <time>2017-06-26T08:57:18Z</time>
      </trkpt>
      <trkpt lat="48.5818" lon="6.45315">
        <ele>277</ele>
        <time>2017-06-26T08:57:19Z</time>
      </trkpt>
      <trkpt lat="48.5818" lon="6.45318">
        <ele>277</ele>
        <time>2017-06-26T08:57:20Z</time>
      </trkpt>
      <trkpt lat="48.5818" lon="6.45321">
        <ele>277</ele>
        <time>2017-06-26T08:57:21Z</time>
      </trkpt>
      <trkpt lat="48.58181" lon="6.45324">
        <ele>277</ele>
        <time>2017-06-26T08:57:22Z</time>
      </trkpt>
      <trkpt lat="48.58181" lon="6.45327">
        <ele>277</ele>
        <time>2017-06-26T08:57:23Z</time>
      </trkpt>
      <trkpt lat="48.58181" lon="6.4533">
        <ele>277</ele>
        <time>2017-06-26T08:57:24Z</time>
      </trkpt>
      <trkpt lat="48.58182" lon="6.45333">
        <ele>277</ele>
        <time>2017-06-26T08:57:25Z</time>
      </trkpt>
      <trkpt lat="48.58182" lon="6.45336">
        <ele>277</ele>
        <time>2017-06-26T08:57:26Z</time>
      </trkpt>
      <trkpt lat="48.58182" lon="6.45339">
        <ele>277</ele>
        <time>2017-06-26T08:57:27Z</time>
      </trkpt>
      <trkpt lat="48.58183" lon="6.45342">
        <ele>277</ele>
        <time>2017-06-26T08:57:28Z</time>
      </trkpt>
      <trkpt lat="48.58183" lon="6.45345">
        <ele>277</ele>
        <time>2017-06-26T08:57:29Z</time>
      </trkpt>
      <trkpt lat="48.58183" lon="6.45348">
        <ele>277</ele>
        <time>2017-06-26T08:57:30Z</time>
      </trkpt>
      <trkpt lat="48.58184" lon="6.45352">
        <ele>277</ele>
        <time>2017-06-26T08:57:31Z</time>
      </trkpt>
      <trkpt lat="48.58184" lon="6.45356">
        <ele>277</ele>
        <time>2017-06-26T08:57:32Z</time>
      </trkpt>
      <trkpt lat="48.58185" lon="6.45359">
        <ele>277</ele>
        <time>2017-06-26T08:57:33Z</time>
      </trkpt>
      <trkpt lat="48.58185" lon="6.45363">
        <ele>276</ele>
        <time>2017-06-26T08:57:34Z</time>
      </trkpt>
      <trkpt lat="48.58185" lon="6.45366">
        <ele>276</ele>
        <time>2017-06-26T08:57:35Z</time>
      </trkpt>
      <trkpt lat="48.58186" lon="6.4537">
        <ele>276</ele>
        <time>2017-06-26T08:57:36Z</time>
      </trkpt>
      <trkpt lat="48.58187" lon="6.45374">
        <ele>276</ele>
        <time>2017-06-26T08:57:37Z</time>
      </trkpt>
      <trkpt lat="48.58187" lon="6.45377">
        <ele>276</ele>
        <time>2017-06-26T08:57:38Z</time>
      </trkpt>
      <trkpt lat="48.58188" lon="6.45381">
        <ele>276</ele>
        <time>2017-06-26T08:57:39Z</time>
      </trkpt>
      <trkpt lat="48.58188" lon="6.45385">
        <ele>276</ele>
        <time>2017-06-26T08:57:40Z</time>
      </trkpt>
      <trkpt lat="48.58189" lon="6.45389">
        <ele>276</ele>
        <time>2017-06-26T08:57:41Z</time>
      </trkpt>
      <trkpt lat="48.5819" lon="6.45393">
        <ele>276</ele>
        <time>2017-06-26T08:57:42Z</time>
      </trkpt>
      <trkpt lat="48.58191" lon="6.45398">
        <ele>276</ele>
        <time>2017-06-26T08:57:43Z</time>
      </trkpt>
      <trkpt lat="48.58192" lon="6.45402">
        <ele>276</ele>
        <time>2017-06-26T08:57:44Z</time>
      </trkpt>
      <trkpt lat="48.58193" lon="6.45406">
        <ele>276</ele>
        <time>2017-06-26T08:57:45Z</time>
      </trkpt>
      <trkpt lat="48.58194" lon="6.4541">
        <ele>276</ele>
        <time>2017-06-26T08:57:46Z</time>
      </trkpt>
      <trkpt lat="48.58194" lon="6.45414">
        <ele>276</ele>
        <time>2017-06-26T08:57:47Z</time>
      </trkpt>
      <trkpt lat="48.58196" lon="6.45418">
        <ele>276</ele>
        <time>2017-06-26T08:57:48Z</time>
      </trkpt>
      <trkpt lat="48.58197" lon="6.45422">
        <ele>276</ele>
        <time>2017-06-26T08:57:49Z</time>
      </trkpt>
      <trkpt lat="48.58198" lon="6.45426">
        <ele>276</ele>
        <time>2017-06-26T08:57:50Z</time>
      </trkpt>
      <trkpt lat="48.58199" lon="6.4543">
        <ele>276</ele>
        <time>2017-06-26T08:57:51Z</time>
      </trkpt>
      <trkpt lat="48.58199" lon="6.45435">
        <ele>276</ele>
        <time>2017-06-26T08:57:52Z</time>
      </trkpt>
      <trkpt lat="48.58199" lon="6.4544">
        <ele>276</ele>
        <time>2017-06-26T08:57:53Z</time>
      </trkpt>
      <trkpt lat="48.58199" lon="6.45446">
        <ele>276</ele>
        <time>2017-06-26T08:57:54Z</time>
      </trkpt>
      <trkpt lat="48.58199" lon="6.4545">
        <ele>276</ele>
        <time>2017-06-26T08:57:55Z</time>
      </trkpt>
      <trkpt lat="48.58199" lon="6.45454">
        <ele>276</ele>
        <time>2017-06-26T08:57:56Z</time>
      </trkpt>
      <trkpt lat="48.58199" lon="6.45458">
        <ele>276</ele>
        <time>2017-06-26T08:57:57Z</time>
      </trkpt>
      <trkpt lat="48.58199" lon="6.45463">
        <ele>276</ele>
        <time>2017-06-26T08:57:58Z</time>
      </trkpt>
      <trkpt lat="48.58199" lon="6.45466">
        <ele>276</ele>
        <time>2017-06-26T08:57:59Z</time>
      </trkpt>
      <trkpt lat="48.58199" lon="6.4547">
        <ele>276</ele>
        <time>2017-06-26T08:58:00Z</time>
      </trkpt>
      <trkpt lat="48.582" lon="6.45473">
        <ele>276</ele>
        <time>2017-06-26T08:58:01Z</time>
      </trkpt>
      <trkpt lat="48.582" lon="6.45477">
        <ele>276</ele>
        <time>2017-06-26T08:58:02Z</time>
      </trkpt>
      <trkpt lat="48.582" lon="6.45481">
        <ele>276</ele>
        <time>2017-06-26T08:58:03Z</time>
      </trkpt>
      <trkpt lat="48.58201" lon="6.45484">
        <ele>274</ele>
        <time>2017-06-26T08:58:04Z</time>
      </trkpt>
      <trkpt lat="48.58201" lon="6.45488">
        <ele>274</ele>
        <time>2017-06-26T08:58:05Z</time>
      </trkpt>
      <trkpt lat="48.58202" lon="6.45492">
        <ele>274</ele>
        <time>2017-06-26T08:58:06Z</time>
      </trkpt>
      <trkpt lat="48.58202" lon="6.45495">
        <ele>274</ele>
        <time>2017-06-26T08:58:07Z</time>
      </trkpt>
      <trkpt lat="48.58203" lon="6.45499">
        <ele>274</ele>
        <time>2017-06-26T08:58:08Z</time>
      </trkpt>
      <trkpt lat="48.58204" lon="6.45503">
        <ele>274</ele>
        <time>2017-06-26T08:58:09Z</time>
      </trkpt>
      <trkpt lat="48.58205" lon="6.45507">
        <ele>274</ele>
        <time>2017-06-26T08:58:10Z</time>
      </trkpt>
      <trkpt lat="48.58206" lon="6.45511">
        <ele>274</ele>
        <time>2017-06-26T08:58:11Z</time>
      </trkpt>
      <trkpt lat="48.58206" lon="6.45516">
        <ele>274</ele>
        <time>2017-06-26T08:58:12Z</time>
      </trkpt>
      <trkpt lat="48.58207" lon="6.4552">
        <ele>274</ele>
        <time>2017-06-26T08:58:13Z</time>
      </trkpt>
      <trkpt lat="48.58208" lon="6.45524">
        <ele>274</ele>
        <time>2017-06-26T08:58:14Z</time>
      </trkpt>
      <trkpt lat="48.58209" lon="6.45529">
        <ele>274</ele>
        <time>2017-06-26T08:58:15Z</time>
      </trkpt>
      <trkpt lat="48.5821" lon="6.45533">
        <ele>274</ele>
        <time>2017-06-26T08:58:16Z</time>
      </trkpt>
      <trkpt lat="48.58212" lon="6.45537">
        <ele>274</ele>
        <time>2017-06-26T08:58:17Z</time>
      </trkpt>
      <trkpt lat="48.58213" lon="6.45541">
        <ele>274</ele>
        <time>2017-06-26T08:58:18Z</time>
      </trkpt>
      <trkpt lat="48.58214" lon="6.45545">
        <ele>274</ele>
        <time>2017-06-26T08:58:19Z</time>
      </trkpt>
      <trkpt lat="48.58215" lon="6.45549">
        <ele>274</ele>
        <time>2017-06-26T08:58:20Z</time>
      </trkpt>
      <trkpt lat="48.58215" lon="6.45553">
        <ele>274</ele>
        <time>2017-06-26T08:58:21Z</time>
      </trkpt>
      <trkpt lat="48.58215" lon="6.45557">
        <ele>274</ele>
        <time>2017-06-26T08:58:22Z</time>
      </trkpt>
      <trkpt lat="48.58216" lon="6.45561">
        <ele>274</ele>
        <time>2017-06-26T08:58:23Z</time>
      </trkpt>
      <trkpt lat="48.58215" lon="6.45564">
        <ele>274</ele>
        <time>2017-06-26T08:58:24Z</time>
      </trkpt>
      <trkpt lat="48.58215" lon="6.45568">
        <ele>274</ele>
        <time>2017-06-26T08:58:25Z</time>
      </trkpt>
      <trkpt lat="48.58215" lon="6.45571">
        <ele>274</ele>
        <time>2017-06-26T08:58:26Z</time>
      </trkpt>
      <trkpt lat="48.58214" lon="6.45575">
        <ele>274</ele>
        <time>2017-06-26T08:58:27Z</time>
      </trkpt>
      <trkpt lat="48.58214" lon="6.45578">
        <ele>274</ele>
        <time>2017-06-26T08:58:28Z</time>
      </trkpt>
      <trkpt lat="48.58212" lon="6.4558">
        <ele>274</ele>
        <time>2017-06-26T08:58:29Z</time>
      </trkpt>
      <trkpt lat="48.5821" lon="6.45582">
        <ele>274</ele>
        <time>2017-06-26T08:58:30Z</time>
      </trkpt>
      <trkpt lat="48.58208" lon="6.45584">
        <ele>274</ele>
        <time>2017-06-26T08:58:31Z</time>
      </trkpt>
      <trkpt lat="48.58206" lon="6.45586">
        <ele>274</ele>
        <time>2017-06-26T08:58:32Z</time>
      </trkpt>
      <trkpt lat="48.58203" lon="6.45587">
        <ele>274</ele>
        <time>2017-06-26T08:58:33Z</time>
      </trkpt>
      <trkpt lat="48.582" lon="6.45587">
        <ele>273</ele>
        <time>2017-06-26T08:58:34Z</time>
      </trkpt>
      <trkpt lat="48.58197" lon="6.45588">
        <ele>273</ele>
        <time>2017-06-26T08:58:35Z</time>
      </trkpt>
      <trkpt lat="48.58194" lon="6.45589">
        <ele>273</ele>
        <time>2017-06-26T08:58:36Z</time>
      </trkpt>
      <trkpt lat="48.58191" lon="6.45588">
        <ele>273</ele>
        <time>2017-06-26T08:58:37Z</time>
      </trkpt>
      <trkpt lat="48.58188" lon="6.45587">
        <ele>273</ele>
        <time>2017-06-26T08:58:38Z</time>
      </trkpt>
      <trkpt lat="48.58186" lon="6.45586">
        <ele>273</ele>
        <time>2017-06-26T08:58:39Z</time>
      </trkpt>
      <trkpt lat="48.58183" lon="6.45586">
        <ele>273</ele>
        <time>2017-06-26T08:58:40Z</time>
      </trkpt>
      <trkpt lat="48.58181" lon="6.45584">
        <ele>273</ele>
        <time>2017-06-26T08:58:41Z</time>
      </trkpt>
      <trkpt lat="48.58179" lon="6.45583">
        <ele>273</ele>
        <time>2017-06-26T08:58:42Z</time>
      </trkpt>
      <trkpt lat="48.58177" lon="6.45582">
        <ele>273</ele>
        <time>2017-06-26T08:58:43Z</time>
      </trkpt>
      <trkpt lat="48.58175" lon="6.45581">
        <ele>275</ele>
        <time>2017-06-26T08:58:44Z</time>
      </trkpt>
      <trkpt lat="48.58173" lon="6.45579">
        <ele>275</ele>
        <time>2017-06-26T08:58:45Z</time>
      </trkpt>
      <trkpt lat="48.58172" lon="6.4558">
        <ele>275</ele>
        <time>2017-06-26T08:58:46Z</time>
      </trkpt>
      <trkpt lat="48.58171" lon="6.45581">
        <ele>275</ele>
        <time>2017-06-26T08:58:47Z</time>
      </trkpt>
      <trkpt lat="48.5817" lon="6.45582">
        <ele>275</ele>
        <time>2017-06-26T08:58:48Z</time>
      </trkpt>
      <trkpt lat="48.58169" lon="6.45582">
        <ele>275</ele>
        <time>2017-06-26T08:58:49Z</time>
      </trkpt>
      <trkpt lat="48.58168" lon="6.45583">
        <ele>275</ele>
        <time>2017-06-26T08:58:50Z</time>
      </trkpt>
      <trkpt lat="48.58167" lon="6.45584">
        <ele>275</ele>
        <time>2017-06-26T08:58:51Z</time>
      </trkpt>
      <trkpt lat="48.58166" lon="6.45585">
        <ele>275</ele>
        <time>2017-06-26T08:58:52Z</time>
      </trkpt>
      <trkpt lat="48.58165" lon="6.45585">
        <ele>275</ele>
        <time>2017-06-26T08:58:53Z</time>
      </trkpt>
      <trkpt lat="48.58164" lon="6.45586">
        <ele>277</ele>
        <time>2017-06-26T08:58:54Z</time>
      </trkpt>
      <trkpt lat="48.58163" lon="6.45588">
        <ele>277</ele>
        <time>2017-06-26T08:58:55Z</time>
      </trkpt>
      <trkpt lat="48.58161" lon="6.45589">
        <ele>277</ele>
        <time>2017-06-26T08:58:56Z</time>
      </trkpt>
      <trkpt lat="48.5816" lon="6.45591">
        <ele>277</ele>
        <time>2017-06-26T08:58:57Z</time>
      </trkpt>
      <trkpt lat="48.58158" lon="6.45593">
        <ele>277</ele>
        <time>2017-06-26T08:58:58Z</time>
      </trkpt>
      <trkpt lat="48.58157" lon="6.45594">
        <ele>278</ele>
        <time>2017-06-26T08:58:59Z</time>
      </trkpt>
      <trkpt lat="48.58155" lon="6.45596">
        <ele>278</ele>
        <time>2017-06-26T08:59:00Z</time>
      </trkpt>
      <trkpt lat="48.58153" lon="6.45598">
        <ele>278</ele>
        <time>2017-06-26T08:59:01Z</time>
      </trkpt>
      <trkpt lat="48.58151" lon="6.456">
        <ele>278</ele>
        <time>2017-06-26T08:59:02Z</time>
      </trkpt>
      <trkpt lat="48.58148" lon="6.45601">
        <ele>278</ele>
        <time>2017-06-26T08:59:03Z</time>
      </trkpt>
      <trkpt lat="48.58146" lon="6.45603">
        <ele>279</ele>
        <time>2017-06-26T08:59:04Z</time>
      </trkpt>
      <trkpt lat="48.58144" lon="6.45605">
        <ele>279</ele>
        <time>2017-06-26T08:59:05Z</time>
      </trkpt>
      <trkpt lat="48.58142" lon="6.45607">
        <ele>279</ele>
        <time>2017-06-26T08:59:06Z</time>
      </trkpt>
      <trkpt lat="48.5814" lon="6.45608">
        <ele>279</ele>
        <time>2017-06-26T08:59:07Z</time>
      </trkpt>
      <trkpt lat="48.58138" lon="6.4561">
        <ele>279</ele>
        <time>2017-06-26T08:59:08Z</time>
      </trkpt>
      <trkpt lat="48.58136" lon="6.45612">
        <ele>279</ele>
        <time>2017-06-26T08:59:09Z</time>
      </trkpt>
      <trkpt lat="48.58134" lon="6.45613">
        <ele>279</ele>
        <time>2017-06-26T08:59:10Z</time>
      </trkpt>
      <trkpt lat="48.58132" lon="6.45614">
        <ele>279</ele>
        <time>2017-06-26T08:59:11Z</time>
      </trkpt>
      <trkpt lat="48.5813" lon="6.45616">
        <ele>279</ele>
        <time>2017-06-26T08:59:12Z</time>
      </trkpt>
      <trkpt lat="48.58128" lon="6.45617">
        <ele>279</ele>
        <time>2017-06-26T08:59:13Z</time>
      </trkpt>
      <trkpt lat="48.58126" lon="6.45619">
        <ele>281</ele>
        <time>2017-06-26T08:59:14Z</time>
      </trkpt>
      <trkpt lat="48.58125" lon="6.4562">
        <ele>281</ele>
        <time>2017-06-26T08:59:15Z</time>
      </trkpt>
      <trkpt lat="48.58123" lon="6.45622">
        <ele>281</ele>
        <time>2017-06-26T08:59:16Z</time>
      </trkpt>
      <trkpt lat="48.58121" lon="6.45624">
        <ele>281</ele>
        <time>2017-06-26T08:59:17Z</time>
      </trkpt>
      <trkpt lat="48.58119" lon="6.45626">
        <ele>281</ele>
        <time>2017-06-26T08:59:18Z</time>
      </trkpt>
      <trkpt lat="48.58117" lon="6.45627">
        <ele>281</ele>
        <time>2017-06-26T08:59:19Z</time>
      </trkpt>
      <trkpt lat="48.58115" lon="6.45629">
        <ele>281</ele>
        <time>2017-06-26T08:59:20Z</time>
      </trkpt>
      <trkpt lat="48.58113" lon="6.45631">
        <ele>281</ele>
        <time>2017-06-26T08:59:21Z</time>
      </trkpt>
      <trkpt lat="48.58112" lon="6.45632">
        <ele>281</ele>
        <time>2017-06-26T08:59:22Z</time>
      </trkpt>
      <trkpt lat="48.5811" lon="6.45633">
        <ele>281</ele>
        <time>2017-06-26T08:59:23Z</time>
      </trkpt>
      <trkpt lat="48.58108" lon="6.45635">
        <ele>281</ele>
        <time>2017-06-26T08:59:24Z</time>
      </trkpt>
      <trkpt lat="48.58106" lon="6.45636">
        <ele>281</ele>
        <time>2017-06-26T08:59:25Z</time>
      </trkpt>
      <trkpt lat="48.58104" lon="6.45638">
        <ele>281</ele>
        <time>2017-06-26T08:59:26Z</time>
      </trkpt>
      <trkpt lat="48.58101" lon="6.4564">
        <ele>281</ele>
        <time>2017-06-26T08:59:27Z</time>
      </trkpt>
      <trkpt lat="48.58099" lon="6.45642">
        <ele>281</ele>
        <time>2017-06-26T08:59:28Z</time>
      </trkpt>
      <trkpt lat="48.58096" lon="6.45645">
        <ele>281</ele>
        <time>2017-06-26T08:59:29Z</time>
      </trkpt>
      <trkpt lat="48.58093" lon="6.45647">
        <ele>281</ele>
        <time>2017-06-26T08:59:30Z</time>
      </trkpt>
      <trkpt lat="48.58091" lon="6.45649">
        <ele>281</ele>
        <time>2017-06-26T08:59:31Z</time>
      </trkpt>
      <trkpt lat="48.58088" lon="6.45651">
        <ele>281</ele>
        <time>2017-06-26T08:59:32Z</time>
      </trkpt>
      <trkpt lat="48.58085" lon="6.45654">
        <ele>281</ele>
        <time>2017-06-26T08:59:33Z</time>
      </trkpt>
      <trkpt lat="48.58083" lon="6.45655">
        <ele>282</ele>
        <time>2017-06-26T08:59:34Z</time>
      </trkpt>
      <trkpt lat="48.58081" lon="6.45657">
        <ele>282</ele>
        <time>2017-06-26T08:59:35Z</time>
      </trkpt>
      <trkpt lat="48.58079" lon="6.45659">
        <ele>282</ele>
        <time>2017-06-26T08:59:36Z</time>
      </trkpt>
      <trkpt lat="48.58077" lon="6.45661">
        <ele>282</ele>
        <time>2017-06-26T08:59:37Z</time>
      </trkpt>
      <trkpt lat="48.58075" lon="6.45662">
        <ele>282</ele>
        <time>2017-06-26T08:59:38Z</time>
      </trkpt>
      <trkpt lat="48.58073" lon="6.45664">
        <ele>282</ele>
        <time>2017-06-26T08:59:39Z</time>
      </trkpt>
      <trkpt lat="48.58071" lon="6.45666">
        <ele>282</ele>
        <time>2017-06-26T08:59:40Z</time>
      </trkpt>
      <trkpt lat="48.58069" lon="6.45668">
        <ele>282</ele>
        <time>2017-06-26T08:59:41Z</time>
      </trkpt>
      <trkpt lat="48.58066" lon="6.4567">
        <ele>282</ele>
        <time>2017-06-26T08:59:42Z</time>
      </trkpt>
      <trkpt lat="48.58064" lon="6.45672">
        <ele>282</ele>
        <time>2017-06-26T08:59:43Z</time>
      </trkpt>
      <trkpt lat="48.58062" lon="6.45674">
        <ele>283</ele>
        <time>2017-06-26T08:59:44Z</time>
      </trkpt>
      <trkpt lat="48.58059" lon="6.45676">
        <ele>283</ele>
        <time>2017-06-26T08:59:45Z</time>
      </trkpt>
      <trkpt lat="48.58057" lon="6.45678">
        <ele>283</ele>
        <time>2017-06-26T08:59:46Z</time>
      </trkpt>
      <trkpt lat="48.58055" lon="6.45679">
        <ele>283</ele>
        <time>2017-06-26T08:59:47Z</time>
      </trkpt>
      <trkpt lat="48.58052" lon="6.45681">
        <ele>283</ele>
        <time>2017-06-26T08:59:48Z</time>
      </trkpt>
      <trkpt lat="48.5805" lon="6.45682">
        <ele>283</ele>
        <time>2017-06-26T08:59:49Z</time>
      </trkpt>
      <trkpt lat="48.58047" lon="6.45684">
        <ele>283</ele>
        <time>2017-06-26T08:59:50Z</time>
      </trkpt>
      <trkpt lat="48.58046" lon="6.45685">
        <ele>283</ele>
        <time>2017-06-26T08:59:51Z</time>
      </trkpt>
      <trkpt lat="48.58044" lon="6.45687">
        <ele>283</ele>
        <time>2017-06-26T08:59:52Z</time>
      </trkpt>
      <trkpt lat="48.58043" lon="6.45688">
        <ele>283</ele>
        <time>2017-06-26T08:59:53Z</time>
      </trkpt>
      <trkpt lat="48.58041" lon="6.45689">
        <ele>283</ele>
        <time>2017-06-26T08:59:54Z</time>
      </trkpt>
      <trkpt lat="48.5804" lon="6.45691">
        <ele>283</ele>
        <time>2017-06-26T08:59:55Z</time>
      </trkpt>
      <trkpt lat="48.58038" lon="6.45692">
        <ele>283</ele>
        <time>2017-06-26T08:59:56Z</time>
      </trkpt>
      <trkpt lat="48.58036" lon="6.45694">
        <ele>283</ele>
        <time>2017-06-26T08:59:57Z</time>
      </trkpt>
      <trkpt lat="48.58034" lon="6.45695">
        <ele>283</ele>
        <time>2017-06-26T08:59:58Z</time>
      </trkpt>
      <trkpt lat="48.58032" lon="6.45697">
        <ele>283</ele>
        <time>2017-06-26T08:59:59Z</time>
      </trkpt>
      <trkpt lat="48.5803" lon="6.45699">
        <ele>283</ele>
        <time>2017-06-26T09:00:00Z</time>
      </trkpt>
      <trkpt lat="48.58028" lon="6.457">
        <ele>283</ele>
        <time>2017-06-26T09:00:01Z</time>
      </trkpt>
      <trkpt lat="48.58026" lon="6.45703">
        <ele>283</ele>
        <time>2017-06-26T09:00:02Z</time>
      </trkpt>
      <trkpt lat="48.58024" lon="6.45705">
        <ele>283</ele>
        <time>2017-06-26T09:00:03Z</time>
      </trkpt>
      <trkpt lat="48.58021" lon="6.45708">
        <ele>283</ele>
        <time>2017-06-26T09:00:04Z</time>
      </trkpt>
      <trkpt lat="48.58019" lon="6.4571">
        <ele>283</ele>
        <time>2017-06-26T09:00:05Z</time>
      </trkpt>
      <trkpt lat="48.58016" lon="6.45712">
        <ele>283</ele>
        <time>2017-06-26T09:00:06Z</time>
      </trkpt>
      <trkpt lat="48.58013" lon="6.45714">
        <ele>283</ele>
        <time>2017-06-26T09:00:07Z</time>
      </trkpt>
      <trkpt lat="48.5801" lon="6.45716">
        <ele>283</ele>
        <time>2017-06-26T09:00:08Z</time>
      </trkpt>
      <trkpt lat="48.58007" lon="6.45718">
        <ele>283</ele>
        <time>2017-06-26T09:00:09Z</time>
      </trkpt>
      <trkpt lat="48.58004" lon="6.4572">
        <ele>283</ele>
        <time>2017-06-26T09:00:10Z</time>
      </trkpt>
      <trkpt lat="48.58002" lon="6.45721">
        <ele>283</ele>
        <time>2017-06-26T09:00:11Z</time>
      </trkpt>
      <trkpt lat="48.57999" lon="6.45723">
        <ele>283</ele>
        <time>2017-06-26T09:00:12Z</time>
      </trkpt>
      <trkpt lat="48.57997" lon="6.45725">
        <ele>283</ele>
        <time>2017-06-26T09:00:13Z</time>
      </trkpt>
      <trkpt lat="48.57994" lon="6.45726">
        <ele>281</ele>
        <time>2017-06-26T09:00:14Z</time>
      </trkpt>
      <trkpt lat="48.57992" lon="6.45728">
        <ele>281</ele>
        <time>2017-06-26T09:00:15Z</time>
      </trkpt>
      <trkpt lat="48.5799" lon="6.4573">
        <ele>281</ele>
        <time>2017-06-26T09:00:16Z</time>
      </trkpt>
      <trkpt lat="48.57987" lon="6.45732">
        <ele>281</ele>
        <time>2017-06-26T09:00:17Z</time>
      </trkpt>
      <trkpt lat="48.57985" lon="6.45733">
        <ele>281</ele>
        <time>2017-06-26T09:00:18Z</time>
      </trkpt>
      <trkpt lat="48.57982" lon="6.45734">
        <ele>281</ele>
        <time>2017-06-26T09:00:19Z</time>
      </trkpt>
      <trkpt lat="48.5798" lon="6.45735">
        <ele>281</ele>
        <time>2017-06-26T09:00:20Z</time>
      </trkpt>
      <trkpt lat="48.57977" lon="6.45736">
        <ele>281</ele>
        <time>2017-06-26T09:00:21Z</time>
      </trkpt>
      <trkpt lat="48.57975" lon="6.45736">
        <ele>281</ele>
        <time>2017-06-26T09:00:22Z</time>
      </trkpt>
      <trkpt lat="48.57972" lon="6.45736">
        <ele>281</ele>
        <time>2017-06-26T09:00:23Z</time>
      </trkpt>
      <trkpt lat="48.5797" lon="6.45736">
        <ele>278</ele>
        <time>2017-06-26T09:00:24Z</time>
      </trkpt>
      <trkpt lat="48.57967" lon="6.45736">
        <ele>278</ele>
        <time>2017-06-26T09:00:25Z</time>
      </trkpt>
      <trkpt lat="48.57965" lon="6.45736">
        <ele>278</ele>
        <time>2017-06-26T09:00:26Z</time>
      </trkpt>
      <trkpt lat="48.57962" lon="6.45737">
        <ele>278</ele>
        <time>2017-06-26T09:00:27Z</time>
      </trkpt>
      <trkpt lat="48.57959" lon="6.45737">
        <ele>278</ele>
        <time>2017-06-26T09:00:28Z</time>
      </trkpt>
      <trkpt lat="48.57956" lon="6.45738">
        <ele>277</ele>
        <time>2017-06-26T09:00:29Z</time>
      </trkpt>
      <trkpt lat="48.57953" lon="6.45738">
        <ele>277</ele>
        <time>2017-06-26T09:00:30Z</time>
      </trkpt>
      <trkpt lat="48.5795" lon="6.45738">
        <ele>277</ele>
        <time>2017-06-26T09:00:31Z</time>
      </trkpt>
      <trkpt lat="48.57947" lon="6.45738">
        <ele>277</ele>
        <time>2017-06-26T09:00:32Z</time>
      </trkpt>
      <trkpt lat="48.57945" lon="6.45737">
        <ele>277</ele>
        <time>2017-06-26T09:00:33Z</time>
      </trkpt>
      <trkpt lat="48.57942" lon="6.45737">
        <ele>275</ele>
        <time>2017-06-26T09:00:34Z</time>
      </trkpt>
      <trkpt lat="48.57939" lon="6.45736">
        <ele>275</ele>
        <time>2017-06-26T09:00:35Z</time>
      </trkpt>
      <trkpt lat="48.57936" lon="6.45735">
        <ele>275</ele>
        <time>2017-06-26T09:00:36Z</time>
      </trkpt>
      <trkpt lat="48.57933" lon="6.45735">
        <ele>275</ele>
        <time>2017-06-26T09:00:37Z</time>
      </trkpt>
      <trkpt lat="48.5793" lon="6.45734">
        <ele>275</ele>
        <time>2017-06-26T09:00:38Z</time>
      </trkpt>
      <trkpt lat="48.57927" lon="6.4573">
        <ele>274</ele>
        <time>2017-06-26T09:00:39Z</time>
      </trkpt>
      <trkpt lat="48.57925" lon="6.45727">
        <ele>274</ele>
        <time>2017-06-26T09:00:40Z</time>
      </trkpt>
      <trkpt lat="48.57923" lon="6.45723">
        <ele>274</ele>
        <time>2017-06-26T09:00:41Z</time>
      </trkpt>
      <trkpt lat="48.57921" lon="6.4572">
        <ele>274</ele>
        <time>2017-06-26T09:00:42Z</time>
      </trkpt>
      <trkpt lat="48.57919" lon="6.45716">
        <ele>274</ele>
        <time>2017-06-26T09:00:43Z</time>
      </trkpt>
      <trkpt lat="48.57917" lon="6.45713">
        <ele>275</ele>
        <time>2017-06-26T09:00:44Z</time>
      </trkpt>
      <trkpt lat="48.57915" lon="6.4571">
        <ele>275</ele>
        <time>2017-06-26T09:00:45Z</time>
      </trkpt>
      <trkpt lat="48.57914" lon="6.45707">
        <ele>275</ele>
        <time>2017-06-26T09:00:46Z</time>
      </trkpt>
      <trkpt lat="48.57913" lon="6.45704">
        <ele>275</ele>
        <time>2017-06-26T09:00:47Z</time>
      </trkpt>
      <trkpt lat="48.57912" lon="6.457">
        <ele>275</ele>
        <time>2017-06-26T09:00:48Z</time>
      </trkpt>
      <trkpt lat="48.57911" lon="6.45697">
        <ele>275</ele>
        <time>2017-06-26T09:00:49Z</time>
      </trkpt>
      <trkpt lat="48.5791" lon="6.45694">
        <ele>275</ele>
        <time>2017-06-26T09:00:50Z</time>
      </trkpt>
      <trkpt lat="48.57909" lon="6.45691">
        <ele>275</ele>
        <time>2017-06-26T09:00:51Z</time>
      </trkpt>
      <trkpt lat="48.57908" lon="6.45687">
        <ele>275</ele>
        <time>2017-06-26T09:00:52Z</time>
      </trkpt>
      <trkpt lat="48.57907" lon="6.45684">
        <ele>275</ele>
        <time>2017-06-26T09:00:53Z</time>
      </trkpt>
      <trkpt lat="48.57905" lon="6.4568">
        <ele>275</ele>
        <time>2017-06-26T09:00:54Z</time>
      </trkpt>
      <trkpt lat="48.57904" lon="6.45677">
        <ele>275</ele>
        <time>2017-06-26T09:00:55Z</time>
      </trkpt>
      <trkpt lat="48.57904" lon="6.45674">
        <ele>275</ele>
        <time>2017-06-26T09:00:56Z</time>
      </trkpt>
      <trkpt lat="48.57903" lon="6.45672">
        <ele>275</ele>
        <time>2017-06-26T09:00:57Z</time>
      </trkpt>
      <trkpt lat="48.57902" lon="6.45669">
        <ele>275</ele>
        <time>2017-06-26T09:00:58Z</time>
      </trkpt>
      <trkpt lat="48.57901" lon="6.45666">
        <ele>275</ele>
        <time>2017-06-26T09:00:59Z</time>
      </trkpt>
      <trkpt lat="48.579" lon="6.45663">
        <ele>275</ele>
        <time>2017-06-26T09:01:00Z</time>
      </trkpt>
      <trkpt lat="48.57899" lon="6.4566">
        <ele>275</ele>
        <time>2017-06-26T09:01:01Z</time>
      </trkpt>
      <trkpt lat="48.57898" lon="6.45657">
        <ele>275</ele>
        <time>2017-06-26T09:01:02Z</time>
      </trkpt>
      <trkpt lat="48.57897" lon="6.45654">
        <ele>275</ele>
        <time>2017-06-26T09:01:03Z</time>
      </trkpt>
      <trkpt lat="48.57896" lon="6.45651">
        <ele>277</ele>
        <time>2017-06-26T09:01:04Z</time>
      </trkpt>
      <trkpt lat="48.57895" lon="6.45648">
        <ele>277</ele>
        <time>2017-06-26T09:01:05Z</time>
      </trkpt>
      <trkpt lat="48.57894" lon="6.45646">
        <ele>277</ele>
        <time>2017-06-26T09:01:06Z</time>
      </trkpt>
      <trkpt lat="48.57892" lon="6.45643">
        <ele>277</ele>
        <time>2017-06-26T09:01:07Z</time>
      </trkpt>
      <trkpt lat="48.57891" lon="6.4564">
        <ele>277</ele>
        <time>2017-06-26T09:01:08Z</time>
      </trkpt>
      <trkpt lat="48.5789" lon="6.45638">
        <ele>277</ele>
        <time>2017-06-26T09:01:09Z</time>
      </trkpt>
      <trkpt lat="48.5789" lon="6.45635">
        <ele>277</ele>
        <time>2017-06-26T09:01:10Z</time>
      </trkpt>
      <trkpt lat="48.57889" lon="6.45632">
        <ele>277</ele>
        <time>2017-06-26T09:01:11Z</time>
      </trkpt>
      <trkpt lat="48.57889" lon="6.45629">
        <ele>277</ele>
        <time>2017-06-26T09:01:12Z</time>
      </trkpt>
      <trkpt lat="48.57888" lon="6.45626">
        <ele>277</ele>
        <time>2017-06-26T09:01:13Z</time>
      </trkpt>
      <trkpt lat="48.57887" lon="6.45623">
        <ele>277</ele>
        <time>2017-06-26T09:01:14Z</time>
      </trkpt>
      <trkpt lat="48.57887" lon="6.45619">
        <ele>277</ele>
        <time>2017-06-26T09:01:15Z</time>
      </trkpt>
      <trkpt lat="48.57886" lon="6.45616">
        <ele>277</ele>
        <time>2017-06-26T09:01:16Z</time>
      </trkpt>
      <trkpt lat="48.57885" lon="6.45613">
        <ele>277</ele>
        <time>2017-06-26T09:01:17Z</time>
      </trkpt>
      <trkpt lat="48.57884" lon="6.4561">
        <ele>277</ele>
        <time>2017-06-26T09:01:18Z</time>
      </trkpt>
      <trkpt lat="48.57884" lon="6.45607">
        <ele>277</ele>
        <time>2017-06-26T09:01:19Z</time>
      </trkpt>
      <trkpt lat="48.57883" lon="6.45604">
        <ele>277</ele>
        <time>2017-06-26T09:01:20Z</time>
      </trkpt>
      <trkpt lat="48.57883" lon="6.45601">
        <ele>277</ele>
        <time>2017-06-26T09:01:21Z</time>
      </trkpt>
      <trkpt lat="48.57883" lon="6.45598">
        <ele>277</ele>
        <time>2017-06-26T09:01:22Z</time>
      </trkpt>
      <trkpt lat="48.57882" lon="6.45594">
        <ele>277</ele>
        <time>2017-06-26T09:01:23Z</time>
      </trkpt>
      <trkpt lat="48.57882" lon="6.45591">
        <ele>279</ele>
        <time>2017-06-26T09:01:24Z</time>
      </trkpt>
      <trkpt lat="48.57881" lon="6.45589">
        <ele>279</ele>
        <time>2017-06-26T09:01:25Z</time>
      </trkpt>
      <trkpt lat="48.5788" lon="6.45587">
        <ele>279</ele>
        <time>2017-06-26T09:01:26Z</time>
      </trkpt>
      <trkpt lat="48.5788" lon="6.45584">
        <ele>279</ele>
        <time>2017-06-26T09:01:27Z</time>
      </trkpt>
      <trkpt lat="48.57879" lon="6.45582">
        <ele>279</ele>
        <time>2017-06-26T09:01:28Z</time>
      </trkpt>
      <trkpt lat="48.57878" lon="6.45579">
        <ele>279</ele>
        <time>2017-06-26T09:01:29Z</time>
      </trkpt>
      <trkpt lat="48.57877" lon="6.45577">
        <ele>279</ele>
        <time>2017-06-26T09:01:30Z</time>
      </trkpt>
      <trkpt lat="48.57875" lon="6.45574">
        <ele>279</ele>
        <time>2017-06-26T09:01:31Z</time>
      </trkpt>
      <trkpt lat="48.57873" lon="6.45572">
        <ele>279</ele>
        <time>2017-06-26T09:01:32Z</time>
      </trkpt>
      <trkpt lat="48.57872" lon="6.45569">
        <ele>279</ele>
        <time>2017-06-26T09:01:33Z</time>
      </trkpt>
      <trkpt lat="48.5787" lon="6.45566">
        <ele>280</ele>
        <time>2017-06-26T09:01:34Z</time>
      </trkpt>
      <trkpt lat="48.57868" lon="6.45564">
        <ele>280</ele>
        <time>2017-06-26T09:01:35Z</time>
      </trkpt>
      <trkpt lat="48.57867" lon="6.45561">
        <ele>280</ele>
        <time>2017-06-26T09:01:36Z</time>
      </trkpt>
      <trkpt lat="48.57866" lon="6.45559">
        <ele>280</ele>
        <time>2017-06-26T09:01:37Z</time>
      </trkpt>
      <trkpt lat="48.57865" lon="6.45556">
        <ele>280</ele>
        <time>2017-06-26T09:01:38Z</time>
      </trkpt>
      <trkpt lat="48.57863" lon="6.45554">
        <ele>280</ele>
        <time>2017-06-26T09:01:39Z</time>
      </trkpt>
      <trkpt lat="48.57863" lon="6.4555">
        <ele>280</ele>
        <time>2017-06-26T09:01:40Z</time>
      </trkpt>
      <trkpt lat="48.57862" lon="6.45545">
        <ele>280</ele>
        <time>2017-06-26T09:01:41Z</time>
      </trkpt>
      <trkpt lat="48.57862" lon="6.45541">
        <ele>280</ele>
        <time>2017-06-26T09:01:42Z</time>
      </trkpt>
      <trkpt lat="48.57862" lon="6.45537">
        <ele>280</ele>
        <time>2017-06-26T09:01:43Z</time>
      </trkpt>
      <trkpt lat="48.57861" lon="6.45537">
        <ele>282</ele>
        <time>2017-06-26T09:01:44Z</time>
      </trkpt>
      <trkpt lat="48.57861" lon="6.45538">
        <ele>282</ele>
        <time>2017-06-26T09:01:45Z</time>
      </trkpt>
      <trkpt lat="48.57861" lon="6.45539">
        <ele>282</ele>
        <time>2017-06-26T09:01:47Z</time>
      </trkpt>
      <trkpt lat="48.57861" lon="6.4554">
        <ele>282</ele>
        <time>2017-06-26T09:01:48Z</time>
      </trkpt>
      <trkpt lat="48.5786" lon="6.45541">
        <ele>282</ele>
        <time>2017-06-26T09:01:50Z</time>
      </trkpt>
      <trkpt lat="48.5786" lon="6.45542">
        <ele>282</ele>
        <time>2017-06-26T09:01:52Z</time>
      </trkpt>
      <trkpt lat="48.5786" lon="6.45543">
        <ele>280</ele>
        <time>2017-06-26T09:01:54Z</time>
      </trkpt>
      <trkpt lat="48.57859" lon="6.45543">
        <ele>280</ele>
        <time>2017-06-26T09:01:55Z</time>
      </trkpt>
      <trkpt lat="48.57859" lon="6.45544">
        <ele>280</ele>
        <time>2017-06-26T09:01:56Z</time>
      </trkpt>
      <trkpt lat="48.57859" lon="6.45545">
        <ele>280</ele>
        <time>2017-06-26T09:01:58Z</time>
      </trkpt>
      <trkpt lat="48.57859" lon="6.45546">
        <ele>280</ele>
        <time>2017-06-26T09:02:00Z</time>
      </trkpt>
      <trkpt lat="48.57858" lon="6.45546">
        <ele>280</ele>
        <time>2017-06-26T09:02:01Z</time>
      </trkpt>
      <trkpt lat="48.57858" lon="6.45547">
        <ele>280</ele>
        <time>2017-06-26T09:02:02Z</time>
      </trkpt>
      <trkpt lat="48.57858" lon="6.45548">
        <ele>280</ele>
        <time>2017-06-26T09:02:03Z</time>
      </trkpt>
      <trkpt lat="48.57858" lon="6.45549">
        <ele>283</ele>
        <time>2017-06-26T09:02:05Z</time>
      </trkpt>
      <trkpt lat="48.57857" lon="6.4555">
        <ele>283</ele>
        <time>2017-06-26T09:02:07Z</time>
      </trkpt>
      <trkpt lat="48.57857" lon="6.45551">
        <ele>283</ele>
        <time>2017-06-26T09:02:09Z</time>
      </trkpt>
      <trkpt lat="48.57856" lon="6.45554">
        <ele>283</ele>
        <time>2017-06-26T09:02:10Z</time>
      </trkpt>
      <trkpt lat="48.57855" lon="6.45557">
        <ele>283</ele>
        <time>2017-06-26T09:02:11Z</time>
      </trkpt>
      <trkpt lat="48.57854" lon="6.4556">
        <ele>283</ele>
        <time>2017-06-26T09:02:12Z</time>
      </trkpt>
      <trkpt lat="48.57853" lon="6.45564">
        <ele>283</ele>
        <time>2017-06-26T09:02:13Z</time>
      </trkpt>
      <trkpt lat="48.57852" lon="6.45567">
        <ele>283</ele>
        <time>2017-06-26T09:02:14Z</time>
      </trkpt>
      <trkpt lat="48.5785" lon="6.4557">
        <ele>283</ele>
        <time>2017-06-26T09:02:15Z</time>
      </trkpt>
      <trkpt lat="48.57848" lon="6.45573">
        <ele>283</ele>
        <time>2017-06-26T09:02:16Z</time>
      </trkpt>
      <trkpt lat="48.57847" lon="6.45576">
        <ele>283</ele>
        <time>2017-06-26T09:02:17Z</time>
      </trkpt>
      <trkpt lat="48.57845" lon="6.45579">
        <ele>283</ele>
        <time>2017-06-26T09:02:18Z</time>
      </trkpt>
      <trkpt lat="48.57843" lon="6.45582">
        <ele>283</ele>
        <time>2017-06-26T09:02:19Z</time>
      </trkpt>
      <trkpt lat="48.57842" lon="6.45585">
        <ele>283</ele>
        <time>2017-06-26T09:02:20Z</time>
      </trkpt>
      <trkpt lat="48.5784" lon="6.45588">
        <ele>283</ele>
        <time>2017-06-26T09:02:21Z</time>
      </trkpt>
      <trkpt lat="48.57839" lon="6.4559">
        <ele>283</ele>
        <time>2017-06-26T09:02:22Z</time>
      </trkpt>
      <trkpt lat="48.57837" lon="6.45593">
        <ele>283</ele>
        <time>2017-06-26T09:02:23Z</time>
      </trkpt>
      <trkpt lat="48.57836" lon="6.45595">
        <ele>283</ele>
        <time>2017-06-26T09:02:24Z</time>
      </trkpt>
      <trkpt lat="48.57834" lon="6.45598">
        <ele>283</ele>
        <time>2017-06-26T09:02:25Z</time>
      </trkpt>
      <trkpt lat="48.57832" lon="6.456">
        <ele>283</ele>
        <time>2017-06-26T09:02:26Z</time>
      </trkpt>
      <trkpt lat="48.57831" lon="6.45603">
        <ele>283</ele>
        <time>2017-06-26T09:02:27Z</time>
      </trkpt>
      <trkpt lat="48.57829" lon="6.45605">
        <ele>283</ele>
        <time>2017-06-26T09:02:28Z</time>
      </trkpt>
      <trkpt lat="48.57828" lon="6.45608">
        <ele>283</ele>
        <time>2017-06-26T09:02:29Z</time>
      </trkpt>
      <trkpt lat="48.57827" lon="6.45611">
        <ele>283</ele>
        <time>2017-06-26T09:02:30Z</time>
      </trkpt>
      <trkpt lat="48.57826" lon="6.45614">
        <ele>283</ele>
        <time>2017-06-26T09:02:31Z</time>
      </trkpt>
      <trkpt lat="48.57825" lon="6.45617">
        <ele>283</ele>
        <time>2017-06-26T09:02:32Z</time>
      </trkpt>
      <trkpt lat="48.57824" lon="6.4562">
        <ele>283</ele>
        <time>2017-06-26T09:02:33Z</time>
      </trkpt>
      <trkpt lat="48.57822" lon="6.45623">
        <ele>284</ele>
        <time>2017-06-26T09:02:34Z</time>
      </trkpt>
      <trkpt lat="48.57821" lon="6.45625">
        <ele>284</ele>
        <time>2017-06-26T09:02:35Z</time>
      </trkpt>
      <trkpt lat="48.5782" lon="6.45628">
        <ele>284</ele>
        <time>2017-06-26T09:02:36Z</time>
      </trkpt>
      <trkpt lat="48.57818" lon="6.45631">
        <ele>284</ele>
        <time>2017-06-26T09:02:37Z</time>
      </trkpt>
      <trkpt lat="48.57817" lon="6.45634">
        <ele>284</ele>
        <time>2017-06-26T09:02:38Z</time>
      </trkpt>
      <trkpt lat="48.57815" lon="6.45637">
        <ele>284</ele>
        <time>2017-06-26T09:02:39Z</time>
      </trkpt>
      <trkpt lat="48.57814" lon="6.4564">
        <ele>284</ele>
        <time>2017-06-26T09:02:40Z</time>
      </trkpt>
      <trkpt lat="48.57812" lon="6.45643">
        <ele>284</ele>
        <time>2017-06-26T09:02:41Z</time>
      </trkpt>
      <trkpt lat="48.5781" lon="6.45646">
        <ele>284</ele>
        <time>2017-06-26T09:02:42Z</time>
      </trkpt>
      <trkpt lat="48.57809" lon="6.45648">
        <ele>284</ele>
        <time>2017-06-26T09:02:43Z</time>
      </trkpt>
      <trkpt lat="48.57808" lon="6.45651">
        <ele>284</ele>
        <time>2017-06-26T09:02:44Z</time>
      </trkpt>
      <trkpt lat="48.57807" lon="6.45653">
        <ele>284</ele>
        <time>2017-06-26T09:02:45Z</time>
      </trkpt>
      <trkpt lat="48.57805" lon="6.45655">
        <ele>284</ele>
        <time>2017-06-26T09:02:46Z</time>
      </trkpt>
      <trkpt lat="48.57804" lon="6.45658">
        <ele>284</ele>
        <time>2017-06-26T09:02:47Z</time>
      </trkpt>
      <trkpt lat="48.57803" lon="6.45661">
        <ele>284</ele>
        <time>2017-06-26T09:02:48Z</time>
      </trkpt>
      <trkpt lat="48.57801" lon="6.45663">
        <ele>284</ele>
        <time>2017-06-26T09:02:49Z</time>
      </trkpt>
      <trkpt lat="48.578" lon="6.45666">
        <ele>284</ele>
        <time>2017-06-26T09:02:50Z</time>
      </trkpt>
      <trkpt lat="48.57798" lon="6.45668">
        <ele>284</ele>
        <time>2017-06-26T09:02:51Z</time>
      </trkpt>
      <trkpt lat="48.57797" lon="6.45671">
        <ele>284</ele>
        <time>2017-06-26T09:02:52Z</time>
      </trkpt>
      <trkpt lat="48.57795" lon="6.45673">
        <ele>284</ele>
        <time>2017-06-26T09:02:53Z</time>
      </trkpt>
      <trkpt lat="48.57794" lon="6.45675">
        <ele>283</ele>
        <time>2017-06-26T09:02:54Z</time>
      </trkpt>
      <trkpt lat="48.57792" lon="6.45677">
        <ele>283</ele>
        <time>2017-06-26T09:02:55Z</time>
      </trkpt>
      <trkpt lat="48.57791" lon="6.4568">
        <ele>283</ele>
        <time>2017-06-26T09:02:56Z</time>
      </trkpt>
      <trkpt lat="48.57789" lon="6.45682">
        <ele>283</ele>
        <time>2017-06-26T09:02:57Z</time>
      </trkpt>
      <trkpt lat="48.57787" lon="6.45683">
        <ele>283</ele>
        <time>2017-06-26T09:02:58Z</time>
      </trkpt>
      <trkpt lat="48.57785" lon="6.45685">
        <ele>283</ele>
        <time>2017-06-26T09:02:59Z</time>
      </trkpt>
      <trkpt lat="48.57782" lon="6.45686">
        <ele>283</ele>
        <time>2017-06-26T09:03:00Z</time>
      </trkpt>
      <trkpt lat="48.5778" lon="6.45688">
        <ele>283</ele>
        <time>2017-06-26T09:03:01Z</time>
      </trkpt>
      <trkpt lat="48.57777" lon="6.45689">
        <ele>283</ele>
        <time>2017-06-26T09:03:02Z</time>
      </trkpt>
      <trkpt lat="48.57773" lon="6.45691">
        <ele>283</ele>
        <time>2017-06-26T09:03:03Z</time>
      </trkpt>
      <trkpt lat="48.57769" lon="6.45692">
        <ele>283</ele>
        <time>2017-06-26T09:03:04Z</time>
      </trkpt>
      <trkpt lat="48.57765" lon="6.45694">
        <ele>283</ele>
        <time>2017-06-26T09:03:05Z</time>
      </trkpt>
      <trkpt lat="48.57761" lon="6.45695">
        <ele>283</ele>
        <time>2017-06-26T09:03:06Z</time>
      </trkpt>
      <trkpt lat="48.57757" lon="6.45696">
        <ele>283</ele>
        <time>2017-06-26T09:03:07Z</time>
      </trkpt>
      <trkpt lat="48.57754" lon="6.45697">
        <ele>283</ele>
        <time>2017-06-26T09:03:08Z</time>
      </trkpt>
      <trkpt lat="48.57752" lon="6.45698">
        <ele>283</ele>
        <time>2017-06-26T09:03:09Z</time>
      </trkpt>
      <trkpt lat="48.5775" lon="6.45699">
        <ele>283</ele>
        <time>2017-06-26T09:03:10Z</time>
      </trkpt>
      <trkpt lat="48.57747" lon="6.457">
        <ele>283</ele>
        <time>2017-06-26T09:03:11Z</time>
      </trkpt>
      <trkpt lat="48.57745" lon="6.45701">
        <ele>283</ele>
        <time>2017-06-26T09:03:12Z</time>
      </trkpt>
      <trkpt lat="48.57743" lon="6.45701">
        <ele>283</ele>
        <time>2017-06-26T09:03:13Z</time>
      </trkpt>
      <trkpt lat="48.5774" lon="6.45702">
        <ele>283</ele>
        <time>2017-06-26T09:03:14Z</time>
      </trkpt>
      <trkpt lat="48.57737" lon="6.45703">
        <ele>283</ele>
        <time>2017-06-26T09:03:15Z</time>
      </trkpt>
      <trkpt lat="48.57733" lon="6.45704">
        <ele>283</ele>
        <time>2017-06-26T09:03:16Z</time>
      </trkpt>
      <trkpt lat="48.57731" lon="6.45705">
        <ele>283</ele>
        <time>2017-06-26T09:03:17Z</time>
      </trkpt>
      <trkpt lat="48.57729" lon="6.45705">
        <ele>283</ele>
        <time>2017-06-26T09:03:18Z</time>
      </trkpt>
      <trkpt lat="48.57727" lon="6.45706">
        <ele>283</ele>
        <time>2017-06-26T09:03:19Z</time>
      </trkpt>
      <trkpt lat="48.57725" lon="6.45706">
        <ele>283</ele>
        <time>2017-06-26T09:03:20Z</time>
      </trkpt>
      <trkpt lat="48.57723" lon="6.45707">
        <ele>283</ele>
        <time>2017-06-26T09:03:21Z</time>
      </trkpt>
      <trkpt lat="48.57721" lon="6.45707">
        <ele>283</ele>
        <time>2017-06-26T09:03:22Z</time>
      </trkpt>
      <trkpt lat="48.57719" lon="6.45707">
        <ele>283</ele>
        <time>2017-06-26T09:03:23Z</time>
      </trkpt>
      <trkpt lat="48.57717" lon="6.45707">
        <ele>283</ele>
        <time>2017-06-26T09:03:24Z</time>
      </trkpt>
      <trkpt lat="48.57716" lon="6.45707">
        <ele>283</ele>
        <time>2017-06-26T09:03:25Z</time>
      </trkpt>
      <trkpt lat="48.57714" lon="6.45707">
        <ele>283</ele>
        <time>2017-06-26T09:03:26Z</time>
      </trkpt>
      <trkpt lat="48.57712" lon="6.45707">
        <ele>283</ele>
        <time>2017-06-26T09:03:27Z</time>
      </trkpt>
      <trkpt lat="48.5771" lon="6.45707">
        <ele>283</ele>
        <time>2017-06-26T09:03:28Z</time>
      </trkpt>
      <trkpt lat="48.57708" lon="6.45707">
        <ele>283</ele>
        <time>2017-06-26T09:03:29Z</time>
      </trkpt>
      <trkpt lat="48.57706" lon="6.45707">
        <ele>283</ele>
        <time>2017-06-26T09:03:30Z</time>
      </trkpt>
      <trkpt lat="48.57704" lon="6.45707">
        <ele>283</ele>
        <time>2017-06-26T09:03:31Z</time>
      </trkpt>
      <trkpt lat="48.57702" lon="6.45707">
        <ele>283</ele>
        <time>2017-06-26T09:03:32Z</time>
      </trkpt>
      <trkpt lat="48.57699" lon="6.45707">
        <ele>283</ele>
        <time>2017-06-26T09:03:33Z</time>
      </trkpt>
      <trkpt lat="48.57696" lon="6.45708">
        <ele>283</ele>
        <time>2017-06-26T09:03:34Z</time>
      </trkpt>
      <trkpt lat="48.57693" lon="6.45708">
        <ele>283</ele>
        <time>2017-06-26T09:03:35Z</time>
      </trkpt>
      <trkpt lat="48.5769" lon="6.45708">
        <ele>283</ele>
        <time>2017-06-26T09:03:36Z</time>
      </trkpt>
      <trkpt lat="48.57686" lon="6.45709">
        <ele>283</ele>
        <time>2017-06-26T09:03:37Z</time>
      </trkpt>
      <trkpt lat="48.57683" lon="6.45709">
        <ele>283</ele>
        <time>2017-06-26T09:03:38Z</time>
      </trkpt>
      <trkpt lat="48.57679" lon="6.45709">
        <ele>283</ele>
        <time>2017-06-26T09:03:39Z</time>
      </trkpt>
      <trkpt lat="48.57675" lon="6.4571">
        <ele>283</ele>
        <time>2017-06-26T09:03:40Z</time>
      </trkpt>
      <trkpt lat="48.57671" lon="6.4571">
        <ele>283</ele>
        <time>2017-06-26T09:03:41Z</time>
      </trkpt>
      <trkpt lat="48.57667" lon="6.4571">
        <ele>283</ele>
        <time>2017-06-26T09:03:42Z</time>
      </trkpt>
      <trkpt lat="48.57664" lon="6.45711">
        <ele>283</ele>
        <time>2017-06-26T09:03:43Z</time>
      </trkpt>
      <trkpt lat="48.57661" lon="6.45711">
        <ele>282</ele>
        <time>2017-06-26T09:03:44Z</time>
      </trkpt>
      <trkpt lat="48.57658" lon="6.45711">
        <ele>282</ele>
        <time>2017-06-26T09:03:45Z</time>
      </trkpt>
      <trkpt lat="48.57656" lon="6.45712">
        <ele>282</ele>
        <time>2017-06-26T09:03:46Z</time>
      </trkpt>
      <trkpt lat="48.57653" lon="6.45712">
        <ele>282</ele>
        <time>2017-06-26T09:03:47Z</time>
      </trkpt>
      <trkpt lat="48.5765" lon="6.45712">
        <ele>282</ele>
        <time>2017-06-26T09:03:48Z</time>
      </trkpt>
      <trkpt lat="48.57648" lon="6.45712">
        <ele>282</ele>
        <time>2017-06-26T09:03:49Z</time>
      </trkpt>
      <trkpt lat="48.57645" lon="6.45712">
        <ele>282</ele>
        <time>2017-06-26T09:03:50Z</time>
      </trkpt>
      <trkpt lat="48.57642" lon="6.45712">
        <ele>282</ele>
        <time>2017-06-26T09:03:51Z</time>
      </trkpt>
      <trkpt lat="48.57638" lon="6.45713">
        <ele>282</ele>
        <time>2017-06-26T09:03:52Z</time>
      </trkpt>
      <trkpt lat="48.57635" lon="6.45714">
        <ele>282</ele>
        <time>2017-06-26T09:03:53Z</time>
      </trkpt>
      <trkpt lat="48.57632" lon="6.45714">
        <ele>280</ele>
        <time>2017-06-26T09:03:54Z</time>
      </trkpt>
      <trkpt lat="48.5763" lon="6.45714">
        <ele>280</ele>
        <time>2017-06-26T09:03:55Z</time>
      </trkpt>
      <trkpt lat="48.57628" lon="6.45714">
        <ele>280</ele>
        <time>2017-06-26T09:03:56Z</time>
      </trkpt>
      <trkpt lat="48.57626" lon="6.45714">
        <ele>280</ele>
        <time>2017-06-26T09:03:57Z</time>
      </trkpt>
      <trkpt lat="48.57623" lon="6.45714">
        <ele>280</ele>
        <time>2017-06-26T09:03:58Z</time>
      </trkpt>
      <trkpt lat="48.57621" lon="6.45714">
        <ele>280</ele>
        <time>2017-06-26T09:03:59Z</time>
      </trkpt>
      <trkpt lat="48.57618" lon="6.45715">
        <ele>280</ele>
        <time>2017-06-26T09:04:00Z</time>
      </trkpt>
      <trkpt lat="48.57616" lon="6.45716">
        <ele>280</ele>
        <time>2017-06-26T09:04:01Z</time>
      </trkpt>
      <trkpt lat="48.57613" lon="6.45717">
        <ele>280</ele>
        <time>2017-06-26T09:04:02Z</time>
      </trkpt>
      <trkpt lat="48.57611" lon="6.45718">
        <ele>280</ele>
        <time>2017-06-26T09:04:03Z</time>
      </trkpt>
      <trkpt lat="48.57608" lon="6.45719">
        <ele>278</ele>
        <time>2017-06-26T09:04:04Z</time>
      </trkpt>
      <trkpt lat="48.57605" lon="6.4572">
        <ele>278</ele>
        <time>2017-06-26T09:04:05Z</time>
      </trkpt>
      <trkpt lat="48.57603" lon="6.45721">
        <ele>278</ele>
        <time>2017-06-26T09:04:06Z</time>
      </trkpt>
      <trkpt lat="48.576" lon="6.45721">
        <ele>278</ele>
        <time>2017-06-26T09:04:07Z</time>
      </trkpt>
      <trkpt lat="48.57598" lon="6.45722">
        <ele>278</ele>
        <time>2017-06-26T09:04:08Z</time>
      </trkpt>
      <trkpt lat="48.57595" lon="6.45723">
        <ele>278</ele>
        <time>2017-06-26T09:04:09Z</time>
      </trkpt>
      <trkpt lat="48.57592" lon="6.45723">
        <ele>278</ele>
        <time>2017-06-26T09:04:10Z</time>
      </trkpt>
      <trkpt lat="48.5759" lon="6.45724">
        <ele>278</ele>
        <time>2017-06-26T09:04:11Z</time>
      </trkpt>
      <trkpt lat="48.57587" lon="6.45724">
        <ele>278</ele>
        <time>2017-06-26T09:04:12Z</time>
      </trkpt>
      <trkpt lat="48.57584" lon="6.45724">
        <ele>278</ele>
        <time>2017-06-26T09:04:13Z</time>
      </trkpt>
      <trkpt lat="48.57582" lon="6.45725">
        <ele>277</ele>
        <time>2017-06-26T09:04:14Z</time>
      </trkpt>
      <trkpt lat="48.57579" lon="6.45725">
        <ele>277</ele>
        <time>2017-06-26T09:04:15Z</time>
      </trkpt>
      <trkpt lat="48.57576" lon="6.45725">
        <ele>277</ele>
        <time>2017-06-26T09:04:16Z</time>
      </trkpt>
      <trkpt lat="48.57573" lon="6.45724">
        <ele>277</ele>
        <time>2017-06-26T09:04:17Z</time>
      </trkpt>
      <trkpt lat="48.5757" lon="6.45724">
        <ele>277</ele>
        <time>2017-06-26T09:04:18Z</time>
      </trkpt>
      <trkpt lat="48.57568" lon="6.45724">
        <ele>277</ele>
        <time>2017-06-26T09:04:19Z</time>
      </trkpt>
      <trkpt lat="48.57566" lon="6.45724">
        <ele>277</ele>
        <time>2017-06-26T09:04:20Z</time>
      </trkpt>
      <trkpt lat="48.57564" lon="6.45724">
        <ele>277</ele>
        <time>2017-06-26T09:04:21Z</time>
      </trkpt>
      <trkpt lat="48.57563" lon="6.45724">
        <ele>277</ele>
        <time>2017-06-26T09:04:22Z</time>
      </trkpt>
      <trkpt lat="48.57561" lon="6.45724">
        <ele>277</ele>
        <time>2017-06-26T09:04:23Z</time>
      </trkpt>
      <trkpt lat="48.57559" lon="6.45723">
        <ele>275</ele>
        <time>2017-06-26T09:04:24Z</time>
      </trkpt>
      <trkpt lat="48.57558" lon="6.45725">
        <ele>275</ele>
        <time>2017-06-26T09:04:25Z</time>
      </trkpt>
      <trkpt lat="48.57556" lon="6.45726">
        <ele>275</ele>
        <time>2017-06-26T09:04:26Z</time>
      </trkpt>
      <trkpt lat="48.57554" lon="6.45728">
        <ele>275</ele>
        <time>2017-06-26T09:04:27Z</time>
      </trkpt>
      <trkpt lat="48.57553" lon="6.45729">
        <ele>275</ele>
        <time>2017-06-26T09:04:28Z</time>
      </trkpt>
      <trkpt lat="48.57551" lon="6.45731">
        <ele>274</ele>
        <time>2017-06-26T09:04:29Z</time>
      </trkpt>
      <trkpt lat="48.5755" lon="6.45732">
        <ele>274</ele>
        <time>2017-06-26T09:04:30Z</time>
      </trkpt>
      <trkpt lat="48.57548" lon="6.45734">
        <ele>274</ele>
        <time>2017-06-26T09:04:31Z</time>
      </trkpt>
      <trkpt lat="48.57545" lon="6.45735">
        <ele>274</ele>
        <time>2017-06-26T09:04:32Z</time>
      </trkpt>
      <trkpt lat="48.57543" lon="6.45737">
        <ele>274</ele>
        <time>2017-06-26T09:04:33Z</time>
      </trkpt>
      <trkpt lat="48.57541" lon="6.45738">
        <ele>274</ele>
        <time>2017-06-26T09:04:34Z</time>
      </trkpt>
      <trkpt lat="48.57538" lon="6.4574">
        <ele>274</ele>
        <time>2017-06-26T09:04:35Z</time>
      </trkpt>
      <trkpt lat="48.57536" lon="6.45742">
        <ele>274</ele>
        <time>2017-06-26T09:04:36Z</time>
      </trkpt>
      <trkpt lat="48.57533" lon="6.45744">
        <ele>274</ele>
        <time>2017-06-26T09:04:37Z</time>
      </trkpt>
      <trkpt lat="48.57531" lon="6.45745">
        <ele>274</ele>
        <time>2017-06-26T09:04:38Z</time>
      </trkpt>
      <trkpt lat="48.57528" lon="6.45746">
        <ele>274</ele>
        <time>2017-06-26T09:04:39Z</time>
      </trkpt>
      <trkpt lat="48.57525" lon="6.45747">
        <ele>274</ele>
        <time>2017-06-26T09:04:40Z</time>
      </trkpt>
      <trkpt lat="48.57522" lon="6.45749">
        <ele>274</ele>
        <time>2017-06-26T09:04:41Z</time>
      </trkpt>
      <trkpt lat="48.5752" lon="6.4575">
        <ele>274</ele>
        <time>2017-06-26T09:04:42Z</time>
      </trkpt>
      <trkpt lat="48.57517" lon="6.45751">
        <ele>274</ele>
        <time>2017-06-26T09:04:43Z</time>
      </trkpt>
      <trkpt lat="48.57515" lon="6.45752">
        <ele>272</ele>
        <time>2017-06-26T09:04:44Z</time>
      </trkpt>
      <trkpt lat="48.57512" lon="6.45753">
        <ele>272</ele>
        <time>2017-06-26T09:04:45Z</time>
      </trkpt>
      <trkpt lat="48.5751" lon="6.45754">
        <ele>272</ele>
        <time>2017-06-26T09:04:46Z</time>
      </trkpt>
      <trkpt lat="48.57508" lon="6.45755">
        <ele>272</ele>
        <time>2017-06-26T09:04:47Z</time>
      </trkpt>
      <trkpt lat="48.57506" lon="6.45756">
        <ele>272</ele>
        <time>2017-06-26T09:04:48Z</time>
      </trkpt>
      <trkpt lat="48.57504" lon="6.45757">
        <ele>272</ele>
        <time>2017-06-26T09:04:49Z</time>
      </trkpt>
      <trkpt lat="48.57502" lon="6.45757">
        <ele>272</ele>
        <time>2017-06-26T09:04:50Z</time>
      </trkpt>
      <trkpt lat="48.57499" lon="6.45758">
        <ele>272</ele>
        <time>2017-06-26T09:04:51Z</time>
      </trkpt>
      <trkpt lat="48.57497" lon="6.45759">
        <ele>272</ele>
        <time>2017-06-26T09:04:52Z</time>
      </trkpt>
      <trkpt lat="48.57494" lon="6.4576">
        <ele>272</ele>
        <time>2017-06-26T09:04:53Z</time>
      </trkpt>
      <trkpt lat="48.57491" lon="6.45761">
        <ele>271</ele>
        <time>2017-06-26T09:04:54Z</time>
      </trkpt>
      <trkpt lat="48.57489" lon="6.45762">
        <ele>271</ele>
        <time>2017-06-26T09:04:55Z</time>
      </trkpt>
      <trkpt lat="48.57486" lon="6.45763">
        <ele>271</ele>
        <time>2017-06-26T09:04:56Z</time>
      </trkpt>
      <trkpt lat="48.57484" lon="6.45765">
        <ele>271</ele>
        <time>2017-06-26T09:04:57Z</time>
      </trkpt>
      <trkpt lat="48.57481" lon="6.45766">
        <ele>271</ele>
        <time>2017-06-26T09:04:58Z</time>
      </trkpt>
      <trkpt lat="48.57479" lon="6.45767">
        <ele>271</ele>
        <time>2017-06-26T09:04:59Z</time>
      </trkpt>
      <trkpt lat="48.57477" lon="6.45769">
        <ele>271</ele>
        <time>2017-06-26T09:05:00Z</time>
      </trkpt>
      <trkpt lat="48.57474" lon="6.45771">
        <ele>271</ele>
        <time>2017-06-26T09:05:01Z</time>
      </trkpt>
      <trkpt lat="48.57472" lon="6.45773">
        <ele>271</ele>
        <time>2017-06-26T09:05:02Z</time>
      </trkpt>
      <trkpt lat="48.5747" lon="6.45775">
        <ele>271</ele>
        <time>2017-06-26T09:05:03Z</time>
      </trkpt>
      <trkpt lat="48.57467" lon="6.45776">
        <ele>269</ele>
        <time>2017-06-26T09:05:04Z</time>
      </trkpt>
      <trkpt lat="48.57464" lon="6.45778">
        <ele>269</ele>
        <time>2017-06-26T09:05:05Z</time>
      </trkpt>
      <trkpt lat="48.57461" lon="6.4578">
        <ele>269</ele>
        <time>2017-06-26T09:05:06Z</time>
      </trkpt>
      <trkpt lat="48.57458" lon="6.45782">
        <ele>269</ele>
        <time>2017-06-26T09:05:07Z</time>
      </trkpt>
      <trkpt lat="48.57455" lon="6.45783">
        <ele>269</ele>
        <time>2017-06-26T09:05:08Z</time>
      </trkpt>
      <trkpt lat="48.57453" lon="6.45785">
        <ele>269</ele>
        <time>2017-06-26T09:05:09Z</time>
      </trkpt>
      <trkpt lat="48.5745" lon="6.45787">
        <ele>269</ele>
        <time>2017-06-26T09:05:10Z</time>
      </trkpt>
      <trkpt lat="48.57447" lon="6.45789">
        <ele>269</ele>
        <time>2017-06-26T09:05:11Z</time>
      </trkpt>
      <trkpt lat="48.57445" lon="6.4579">
        <ele>269</ele>
        <time>2017-06-26T09:05:12Z</time>
      </trkpt>
      <trkpt lat="48.57443" lon="6.45792">
        <ele>269</ele>
        <time>2017-06-26T09:05:13Z</time>
      </trkpt>
      <trkpt lat="48.57441" lon="6.45794">
        <ele>269</ele>
        <time>2017-06-26T09:05:14Z</time>
      </trkpt>
      <trkpt lat="48.57438" lon="6.45796">
        <ele>269</ele>
        <time>2017-06-26T09:05:15Z</time>
      </trkpt>
      <trkpt lat="48.57436" lon="6.45797">
        <ele>269</ele>
        <time>2017-06-26T09:05:16Z</time>
      </trkpt>
      <trkpt lat="48.57433" lon="6.45798">
        <ele>269</ele>
        <time>2017-06-26T09:05:17Z</time>
      </trkpt>
      <trkpt lat="48.57431" lon="6.45799">
        <ele>269</ele>
        <time>2017-06-26T09:05:18Z</time>
      </trkpt>
      <trkpt lat="48.57428" lon="6.45801">
        <ele>269</ele>
        <time>2017-06-26T09:05:19Z</time>
      </trkpt>
      <trkpt lat="48.57426" lon="6.45802">
        <ele>269</ele>
        <time>2017-06-26T09:05:20Z</time>
      </trkpt>
      <trkpt lat="48.57423" lon="6.45803">
        <ele>269</ele>
        <time>2017-06-26T09:05:21Z</time>
      </trkpt>
      <trkpt lat="48.57421" lon="6.45804">
        <ele>269</ele>
        <time>2017-06-26T09:05:22Z</time>
      </trkpt>
      <trkpt lat="48.57419" lon="6.45805">
        <ele>269</ele>
        <time>2017-06-26T09:05:23Z</time>
      </trkpt>
      <trkpt lat="48.57416" lon="6.45807">
        <ele>268</ele>
        <time>2017-06-26T09:05:24Z</time>
      </trkpt>
      <trkpt lat="48.57413" lon="6.45809">
        <ele>268</ele>
        <time>2017-06-26T09:05:25Z</time>
      </trkpt>
      <trkpt lat="48.57411" lon="6.4581">
        <ele>268</ele>
        <time>2017-06-26T09:05:26Z</time>
      </trkpt>
      <trkpt lat="48.57408" lon="6.45812">
        <ele>268</ele>
        <time>2017-06-26T09:05:27Z</time>
      </trkpt>
      <trkpt lat="48.57406" lon="6.45813">
        <ele>268</ele>
        <time>2017-06-26T09:05:28Z</time>
      </trkpt>
      <trkpt lat="48.57404" lon="6.45814">
        <ele>268</ele>
        <time>2017-06-26T09:05:29Z</time>
      </trkpt>
      <trkpt lat="48.57402" lon="6.45815">
        <ele>268</ele>
        <time>2017-06-26T09:05:30Z</time>
      </trkpt>
      <trkpt lat="48.574" lon="6.45817">
        <ele>268</ele>
        <time>2017-06-26T09:05:31Z</time>
      </trkpt>
      <trkpt lat="48.57398" lon="6.45818">
        <ele>268</ele>
        <time>2017-06-26T09:05:32Z</time>
      </trkpt>
      <trkpt lat="48.57396" lon="6.45819">
        <ele>268</ele>
        <time>2017-06-26T09:05:33Z</time>
      </trkpt>
      <trkpt lat="48.57395" lon="6.45821">
        <ele>268</ele>
        <time>2017-06-26T09:05:34Z</time>
      </trkpt>
      <trkpt lat="48.57393" lon="6.45823">
        <ele>268</ele>
        <time>2017-06-26T09:05:35Z</time>
      </trkpt>
      <trkpt lat="48.57391" lon="6.45824">
        <ele>268</ele>
        <time>2017-06-26T09:05:36Z</time>
      </trkpt>
      <trkpt lat="48.5739" lon="6.45826">
        <ele>268</ele>
        <time>2017-06-26T09:05:37Z</time>
      </trkpt>
      <trkpt lat="48.57388" lon="6.45827">
        <ele>268</ele>
        <time>2017-06-26T09:05:38Z</time>
      </trkpt>
      <trkpt lat="48.57385" lon="6.45828">
        <ele>268</ele>
        <time>2017-06-26T09:05:39Z</time>
      </trkpt>
      <trkpt lat="48.57382" lon="6.45829">
        <ele>268</ele>
        <time>2017-06-26T09:05:40Z</time>
      </trkpt>
      <trkpt lat="48.57378" lon="6.4583">
        <ele>268</ele>
        <time>2017-06-26T09:05:41Z</time>
      </trkpt>
      <trkpt lat="48.57376" lon="6.45831">
        <ele>268</ele>
        <time>2017-06-26T09:05:42Z</time>
      </trkpt>
      <trkpt lat="48.57373" lon="6.45832">
        <ele>268</ele>
        <time>2017-06-26T09:05:43Z</time>
      </trkpt>
      <trkpt lat="48.5737" lon="6.45833">
        <ele>267</ele>
        <time>2017-06-26T09:05:44Z</time>
      </trkpt>
      <trkpt lat="48.57367" lon="6.45834">
        <ele>267</ele>
        <time>2017-06-26T09:05:45Z</time>
      </trkpt>
      <trkpt lat="48.57364" lon="6.45835">
        <ele>267</ele>
        <time>2017-06-26T09:05:46Z</time>
      </trkpt>
      <trkpt lat="48.57362" lon="6.45836">
        <ele>267</ele>
        <time>2017-06-26T09:05:47Z</time>
      </trkpt>
      <trkpt lat="48.57359" lon="6.45837">
        <ele>267</ele>
        <time>2017-06-26T09:05:48Z</time>
      </trkpt>
      <trkpt lat="48.57356" lon="6.45838">
        <ele>267</ele>
        <time>2017-06-26T09:05:49Z</time>
      </trkpt>
      <trkpt lat="48.57353" lon="6.45839">
        <ele>267</ele>
        <time>2017-06-26T09:05:50Z</time>
      </trkpt>
      <trkpt lat="48.5735" lon="6.4584">
        <ele>267</ele>
        <time>2017-06-26T09:05:51Z</time>
      </trkpt>
      <trkpt lat="48.57348" lon="6.45841">
        <ele>267</ele>
        <time>2017-06-26T09:05:52Z</time>
      </trkpt>
      <trkpt lat="48.57345" lon="6.45842">
        <ele>267</ele>
        <time>2017-06-26T09:05:53Z</time>
      </trkpt>
      <trkpt lat="48.57342" lon="6.45843">
        <ele>266</ele>
        <time>2017-06-26T09:05:54Z</time>
      </trkpt>
      <trkpt lat="48.57339" lon="6.45844">
        <ele>266</ele>
        <time>2017-06-26T09:05:55Z</time>
      </trkpt>
      <trkpt lat="48.57336" lon="6.45845">
        <ele>266</ele>
        <time>2017-06-26T09:05:56Z</time>
      </trkpt>
      <trkpt lat="48.57333" lon="6.45846">
        <ele>266</ele>
        <time>2017-06-26T09:05:57Z</time>
      </trkpt>
      <trkpt lat="48.57331" lon="6.45847">
        <ele>266</ele>
        <time>2017-06-26T09:05:58Z</time>
      </trkpt>
      <trkpt lat="48.57328" lon="6.45848">
        <ele>266</ele>
        <time>2017-06-26T09:05:59Z</time>
      </trkpt>
      <trkpt lat="48.57325" lon="6.45848">
        <ele>266</ele>
        <time>2017-06-26T09:06:00Z</time>
      </trkpt>
      <trkpt lat="48.57323" lon="6.45849">
        <ele>266</ele>
        <time>2017-06-26T09:06:01Z</time>
      </trkpt>
      <trkpt lat="48.5732" lon="6.45849">
        <ele>266</ele>
        <time>2017-06-26T09:06:02Z</time>
      </trkpt>
      <trkpt lat="48.57318" lon="6.45849">
        <ele>266</ele>
        <time>2017-06-26T09:06:03Z</time>
      </trkpt>
      <trkpt lat="48.57316" lon="6.4585">
        <ele>263</ele>
        <time>2017-06-26T09:06:04Z</time>
      </trkpt>
      <trkpt lat="48.57313" lon="6.4585">
        <ele>263</ele>
        <time>2017-06-26T09:06:05Z</time>
      </trkpt>
      <trkpt lat="48.57311" lon="6.4585">
        <ele>263</ele>
        <time>2017-06-26T09:06:06Z</time>
      </trkpt>
      <trkpt lat="48.57309" lon="6.4585">
        <ele>263</ele>
        <time>2017-06-26T09:06:07Z</time>
      </trkpt>
      <trkpt lat="48.57306" lon="6.45851">
        <ele>263</ele>
        <time>2017-06-26T09:06:08Z</time>
      </trkpt>
      <trkpt lat="48.57304" lon="6.45851">
        <ele>263</ele>
        <time>2017-06-26T09:06:09Z</time>
      </trkpt>
      <trkpt lat="48.57301" lon="6.45852">
        <ele>263</ele>
        <time>2017-06-26T09:06:10Z</time>
      </trkpt>
      <trkpt lat="48.57299" lon="6.45853">
        <ele>263</ele>
        <time>2017-06-26T09:06:11Z</time>
      </trkpt>
      <trkpt lat="48.57296" lon="6.45853">
        <ele>263</ele>
        <time>2017-06-26T09:06:12Z</time>
      </trkpt>
      <trkpt lat="48.57294" lon="6.45854">
        <ele>263</ele>
        <time>2017-06-26T09:06:13Z</time>
      </trkpt>
      <trkpt lat="48.57291" lon="6.45854">
        <ele>263</ele>
        <time>2017-06-26T09:06:14Z</time>
      </trkpt>
      <trkpt lat="48.57289" lon="6.45854">
        <ele>263</ele>
        <time>2017-06-26T09:06:15Z</time>
      </trkpt>
      <trkpt lat="48.57287" lon="6.45855">
        <ele>263</ele>
        <time>2017-06-26T09:06:16Z</time>
      </trkpt>
      <trkpt lat="48.57284" lon="6.45855">
        <ele>263</ele>
        <time>2017-06-26T09:06:17Z</time>
      </trkpt>
      <trkpt lat="48.57282" lon="6.45856">
        <ele>263</ele>
        <time>2017-06-26T09:06:18Z</time>
      </trkpt>
      <trkpt lat="48.57279" lon="6.45856">
        <ele>263</ele>
        <time>2017-06-26T09:06:19Z</time>
      </trkpt>
      <trkpt lat="48.57277" lon="6.45856">
        <ele>263</ele>
        <time>2017-06-26T09:06:20Z</time>
      </trkpt>
      <trkpt lat="48.57274" lon="6.45856">
        <ele>263</ele>
        <time>2017-06-26T09:06:21Z</time>
      </trkpt>
      <trkpt lat="48.57272" lon="6.45856">
        <ele>263</ele>
        <time>2017-06-26T09:06:22Z</time>
      </trkpt>
      <trkpt lat="48.5727" lon="6.45855">
        <ele>263</ele>
        <time>2017-06-26T09:06:23Z</time>
      </trkpt>
      <trkpt lat="48.57267" lon="6.45855">
        <ele>263</ele>
        <time>2017-06-26T09:06:24Z</time>
      </trkpt>
      <trkpt lat="48.57265" lon="6.45855">
        <ele>263</ele>
        <time>2017-06-26T09:06:25Z</time>
      </trkpt>
      <trkpt lat="48.57262" lon="6.45854">
        <ele>263</ele>
        <time>2017-06-26T09:06:26Z</time>
      </trkpt>
      <trkpt lat="48.5726" lon="6.45854">
        <ele>263</ele>
        <time>2017-06-26T09:06:27Z</time>
      </trkpt>
      <trkpt lat="48.57257" lon="6.45854">
        <ele>263</ele>
        <time>2017-06-26T09:06:28Z</time>
      </trkpt>
      <trkpt lat="48.57255" lon="6.45854">
        <ele>263</ele>
        <time>2017-06-26T09:06:29Z</time>
      </trkpt>
      <trkpt lat="48.57252" lon="6.45853">
        <ele>263</ele>
        <time>2017-06-26T09:06:30Z</time>
      </trkpt>
      <trkpt lat="48.57249" lon="6.45853">
        <ele>263</ele>
        <time>2017-06-26T09:06:31Z</time>
      </trkpt>
      <trkpt lat="48.57246" lon="6.45852">
        <ele>263</ele>
        <time>2017-06-26T09:06:32Z</time>
      </trkpt>
      <trkpt lat="48.57243" lon="6.45852">
        <ele>263</ele>
        <time>2017-06-26T09:06:33Z</time>
      </trkpt>
      <trkpt lat="48.5724" lon="6.45851">
        <ele>263</ele>
        <time>2017-06-26T09:06:34Z</time>
      </trkpt>
      <trkpt lat="48.57237" lon="6.4585">
        <ele>263</ele>
        <time>2017-06-26T09:06:35Z</time>
      </trkpt>
      <trkpt lat="48.57234" lon="6.45849">
        <ele>263</ele>
        <time>2017-06-26T09:06:36Z</time>
      </trkpt>
      <trkpt lat="48.57231" lon="6.45848">
        <ele>263</ele>
        <time>2017-06-26T09:06:37Z</time>
      </trkpt>
      <trkpt lat="48.57228" lon="6.45847">
        <ele>263</ele>
        <time>2017-06-26T09:06:38Z</time>
      </trkpt>
      <trkpt lat="48.57225" lon="6.45845">
        <ele>263</ele>
        <time>2017-06-26T09:06:39Z</time>
      </trkpt>
      <trkpt lat="48.57222" lon="6.45842">
        <ele>263</ele>
        <time>2017-06-26T09:06:40Z</time>
      </trkpt>
      <trkpt lat="48.57219" lon="6.4584">
        <ele>263</ele>
        <time>2017-06-26T09:06:41Z</time>
      </trkpt>
      <trkpt lat="48.57217" lon="6.45837">
        <ele>263</ele>
        <time>2017-06-26T09:06:42Z</time>
      </trkpt>
      <trkpt lat="48.57215" lon="6.45833">
        <ele>263</ele>
        <time>2017-06-26T09:06:43Z</time>
      </trkpt>
      <trkpt lat="48.57214" lon="6.4583">
        <ele>263</ele>
        <time>2017-06-26T09:06:44Z</time>
      </trkpt>
      <trkpt lat="48.57213" lon="6.45826">
        <ele>263</ele>
        <time>2017-06-26T09:06:45Z</time>
      </trkpt>
      <trkpt lat="48.57212" lon="6.45822">
        <ele>263</ele>
        <time>2017-06-26T09:06:46Z</time>
      </trkpt>
      <trkpt lat="48.57212" lon="6.45818">
        <ele>263</ele>
        <time>2017-06-26T09:06:47Z</time>
      </trkpt>
      <trkpt lat="48.57212" lon="6.45815">
        <ele>263</ele>
        <time>2017-06-26T09:06:48Z</time>
      </trkpt>
      <trkpt lat="48.57212" lon="6.45811">
        <ele>263</ele>
        <time>2017-06-26T09:06:49Z</time>
      </trkpt>
      <trkpt lat="48.57212" lon="6.45807">
        <ele>263</ele>
        <time>2017-06-26T09:06:50Z</time>
      </trkpt>
      <trkpt lat="48.57213" lon="6.45804">
        <ele>263</ele>
        <time>2017-06-26T09:06:51Z</time>
      </trkpt>
      <trkpt lat="48.57214" lon="6.45801">
        <ele>263</ele>
        <time>2017-06-26T09:06:52Z</time>
      </trkpt>
      <trkpt lat="48.57215" lon="6.45798">
        <ele>263</ele>
        <time>2017-06-26T09:06:53Z</time>
      </trkpt>
      <trkpt lat="48.57216" lon="6.45794">
        <ele>263</ele>
        <time>2017-06-26T09:06:54Z</time>
      </trkpt>
      <trkpt lat="48.57217" lon="6.45791">
        <ele>263</ele>
        <time>2017-06-26T09:06:55Z</time>
      </trkpt>
      <trkpt lat="48.57218" lon="6.45789">
        <ele>263</ele>
        <time>2017-06-26T09:06:56Z</time>
      </trkpt>
      <trkpt lat="48.57219" lon="6.45787">
        <ele>263</ele>
        <time>2017-06-26T09:06:57Z</time>
      </trkpt>
      <trkpt lat="48.57221" lon="6.45784">
        <ele>263</ele>
        <time>2017-06-26T09:06:58Z</time>
      </trkpt>
      <trkpt lat="48.57222" lon="6.45782">
        <ele>263</ele>
        <time>2017-06-26T09:06:59Z</time>
      </trkpt>
      <trkpt lat="48.57223" lon="6.4578">
        <ele>263</ele>
        <time>2017-06-26T09:07:00Z</time>
      </trkpt>
      <trkpt lat="48.57224" lon="6.45778">
        <ele>263</ele>
        <time>2017-06-26T09:07:01Z</time>
      </trkpt>
      <trkpt lat="48.57223" lon="6.45776">
        <ele>263</ele>
        <time>2017-06-26T09:07:02Z</time>
      </trkpt>
      <trkpt lat="48.57222" lon="6.45775">
        <ele>263</ele>
        <time>2017-06-26T09:07:03Z</time>
      </trkpt>
      <trkpt lat="48.57221" lon="6.45774">
        <ele>264</ele>
        <time>2017-06-26T09:07:04Z</time>
      </trkpt>
      <trkpt lat="48.5722" lon="6.45772">
        <ele>264</ele>
        <time>2017-06-26T09:07:05Z</time>
      </trkpt>
      <trkpt lat="48.57219" lon="6.45771">
        <ele>264</ele>
        <time>2017-06-26T09:07:06Z</time>
      </trkpt>
      <trkpt lat="48.57218" lon="6.45769">
        <ele>264</ele>
        <time>2017-06-26T09:07:07Z</time>
      </trkpt>
      <trkpt lat="48.57217" lon="6.45768">
        <ele>264</ele>
        <time>2017-06-26T09:07:08Z</time>
      </trkpt>
      <trkpt lat="48.57214" lon="6.45767">
        <ele>264</ele>
        <time>2017-06-26T09:07:09Z</time>
      </trkpt>
      <trkpt lat="48.57211" lon="6.45767">
        <ele>264</ele>
        <time>2017-06-26T09:07:10Z</time>
      </trkpt>
      <trkpt lat="48.57208" lon="6.45766">
        <ele>264</ele>
        <time>2017-06-26T09:07:11Z</time>
      </trkpt>
      <trkpt lat="48.57205" lon="6.45765">
        <ele>264</ele>
        <time>2017-06-26T09:07:12Z</time>
      </trkpt>
      <trkpt lat="48.57203" lon="6.45764">
        <ele>264</ele>
        <time>2017-06-26T09:07:13Z</time>
      </trkpt>
      <trkpt lat="48.572" lon="6.45763">
        <ele>264</ele>
        <time>2017-06-26T09:07:14Z</time>
      </trkpt>
      <trkpt lat="48.57198" lon="6.45761">
        <ele>264</ele>
        <time>2017-06-26T09:07:15Z</time>
      </trkpt>
      <trkpt lat="48.57196" lon="6.4576">
        <ele>264</ele>
        <time>2017-06-26T09:07:16Z</time>
      </trkpt>
      <trkpt lat="48.57193" lon="6.4576">
        <ele>264</ele>
        <time>2017-06-26T09:07:17Z</time>
      </trkpt>
      <trkpt lat="48.5719" lon="6.4576">
        <ele>264</ele>
        <time>2017-06-26T09:07:18Z</time>
      </trkpt>
      <trkpt lat="48.57188" lon="6.45759">
        <ele>264</ele>
        <time>2017-06-26T09:07:19Z</time>
      </trkpt>
      <trkpt lat="48.57185" lon="6.45759">
        <ele>264</ele>
        <time>2017-06-26T09:07:20Z</time>
      </trkpt>
      <trkpt lat="48.57183" lon="6.45758">
        <ele>264</ele>
        <time>2017-06-26T09:07:21Z</time>
      </trkpt>
      <trkpt lat="48.5718" lon="6.45757">
        <ele>264</ele>
        <time>2017-06-26T09:07:22Z</time>
      </trkpt>
      <trkpt lat="48.57178" lon="6.45756">
        <ele>264</ele>
        <time>2017-06-26T09:07:23Z</time>
      </trkpt>
      <trkpt lat="48.57175" lon="6.45755">
        <ele>263</ele>
        <time>2017-06-26T09:07:24Z</time>
      </trkpt>
      <trkpt lat="48.57173" lon="6.45754">
        <ele>263</ele>
        <time>2017-06-26T09:07:25Z</time>
      </trkpt>
      <trkpt lat="48.57172" lon="6.45753">
        <ele>263</ele>
        <time>2017-06-26T09:07:26Z</time>
      </trkpt>
      <trkpt lat="48.5717" lon="6.45752">
        <ele>263</ele>
        <time>2017-06-26T09:07:27Z</time>
      </trkpt>
      <trkpt lat="48.57168" lon="6.45751">
        <ele>263</ele>
        <time>2017-06-26T09:07:28Z</time>
      </trkpt>
      <trkpt lat="48.57166" lon="6.45749">
        <ele>263</ele>
        <time>2017-06-26T09:07:29Z</time>
      </trkpt>
      <trkpt lat="48.57164" lon="6.45748">
        <ele>263</ele>
        <time>2017-06-26T09:07:30Z</time>
      </trkpt>
      <trkpt lat="48.57162" lon="6.45747">
        <ele>263</ele>
        <time>2017-06-26T09:07:31Z</time>
      </trkpt>
      <trkpt lat="48.57159" lon="6.45746">
        <ele>263</ele>
        <time>2017-06-26T09:07:32Z</time>
      </trkpt>
      <trkpt lat="48.57157" lon="6.45744">
        <ele>263</ele>
        <time>2017-06-26T09:07:33Z</time>
      </trkpt>
      <trkpt lat="48.57155" lon="6.45743">
        <ele>262</ele>
        <time>2017-06-26T09:07:34Z</time>
      </trkpt>
      <trkpt lat="48.57152" lon="6.45742">
        <ele>262</ele>
        <time>2017-06-26T09:07:35Z</time>
      </trkpt>
      <trkpt lat="48.5715" lon="6.45741">
        <ele>262</ele>
        <time>2017-06-26T09:07:36Z</time>
      </trkpt>
      <trkpt lat="48.57147" lon="6.4574">
        <ele>262</ele>
        <time>2017-06-26T09:07:37Z</time>
      </trkpt>
      <trkpt lat="48.57145" lon="6.45738">
        <ele>262</ele>
        <time>2017-06-26T09:07:38Z</time>
      </trkpt>
      <trkpt lat="48.57141" lon="6.45737">
        <ele>262</ele>
        <time>2017-06-26T09:07:39Z</time>
      </trkpt>
      <trkpt lat="48.57138" lon="6.45736">
        <ele>262</ele>
        <time>2017-06-26T09:07:40Z</time>
      </trkpt>
      <trkpt lat="48.57135" lon="6.45734">
        <ele>262</ele>
        <time>2017-06-26T09:07:41Z</time>
      </trkpt>
      <trkpt lat="48.57134" lon="6.45732">
        <ele>262</ele>
        <time>2017-06-26T09:07:42Z</time>
      </trkpt>
      <trkpt lat="48.57132" lon="6.45729">
        <ele>262</ele>
        <time>2017-06-26T09:07:43Z</time>
      </trkpt>
      <trkpt lat="48.57131" lon="6.45727">
        <ele>261</ele>
        <time>2017-06-26T09:07:44Z</time>
      </trkpt>
      <trkpt lat="48.5713" lon="6.45724">
        <ele>261</ele>
        <time>2017-06-26T09:07:45Z</time>
      </trkpt>
      <trkpt lat="48.57128" lon="6.45722">
        <ele>261</ele>
        <time>2017-06-26T09:07:46Z</time>
      </trkpt>
      <trkpt lat="48.57126" lon="6.45721">
        <ele>261</ele>
        <time>2017-06-26T09:07:47Z</time>
      </trkpt>
      <trkpt lat="48.57125" lon="6.45721">
        <ele>261</ele>
        <time>2017-06-26T09:07:48Z</time>
      </trkpt>
      <trkpt lat="48.57123" lon="6.4572">
        <ele>261</ele>
        <time>2017-06-26T09:07:49Z</time>
      </trkpt>
      <trkpt lat="48.57121" lon="6.4572">
        <ele>261</ele>
        <time>2017-06-26T09:07:50Z</time>
      </trkpt>
      <trkpt lat="48.57119" lon="6.45719">
        <ele>261</ele>
        <time>2017-06-26T09:07:51Z</time>
      </trkpt>
      <trkpt lat="48.57117" lon="6.45719">
        <ele>261</ele>
        <time>2017-06-26T09:07:52Z</time>
      </trkpt>
      <trkpt lat="48.57115" lon="6.45719">
        <ele>261</ele>
        <time>2017-06-26T09:07:53Z</time>
      </trkpt>
      <trkpt lat="48.57113" lon="6.45719">
        <ele>261</ele>
        <time>2017-06-26T09:07:54Z</time>
      </trkpt>
      <trkpt lat="48.57112" lon="6.45719">
        <ele>261</ele>
        <time>2017-06-26T09:07:55Z</time>
      </trkpt>
      <trkpt lat="48.5711" lon="6.45719">
        <ele>261</ele>
        <time>2017-06-26T09:07:56Z</time>
      </trkpt>
      <trkpt lat="48.57108" lon="6.45719">
        <ele>261</ele>
        <time>2017-06-26T09:07:57Z</time>
      </trkpt>
      <trkpt lat="48.57105" lon="6.45718">
        <ele>261</ele>
        <time>2017-06-26T09:07:58Z</time>
      </trkpt>
      <trkpt lat="48.57102" lon="6.45717">
        <ele>261</ele>
        <time>2017-06-26T09:07:59Z</time>
      </trkpt>
      <trkpt lat="48.571" lon="6.45715">
        <ele>261</ele>
        <time>2017-06-26T09:08:00Z</time>
      </trkpt>
      <trkpt lat="48.57097" lon="6.45714">
        <ele>261</ele>
        <time>2017-06-26T09:08:01Z</time>
      </trkpt>
      <trkpt lat="48.57094" lon="6.45712">
        <ele>261</ele>
        <time>2017-06-26T09:08:02Z</time>
      </trkpt>
      <trkpt lat="48.57091" lon="6.45711">
        <ele>261</ele>
        <time>2017-06-26T09:08:03Z</time>
      </trkpt>
      <trkpt lat="48.57089" lon="6.4571">
        <ele>260</ele>
        <time>2017-06-26T09:08:04Z</time>
      </trkpt>
      <trkpt lat="48.57087" lon="6.45709">
        <ele>260</ele>
        <time>2017-06-26T09:08:05Z</time>
      </trkpt>
      <trkpt lat="48.57085" lon="6.45708">
        <ele>260</ele>
        <time>2017-06-26T09:08:06Z</time>
      </trkpt>
      <trkpt lat="48.57083" lon="6.45707">
        <ele>260</ele>
        <time>2017-06-26T09:08:07Z</time>
      </trkpt>
      <trkpt lat="48.57081" lon="6.45706">
        <ele>260</ele>
        <time>2017-06-26T09:08:08Z</time>
      </trkpt>
      <trkpt lat="48.57079" lon="6.45706">
        <ele>260</ele>
        <time>2017-06-26T09:08:09Z</time>
      </trkpt>
      <trkpt lat="48.57077" lon="6.45705">
        <ele>260</ele>
        <time>2017-06-26T09:08:10Z</time>
      </trkpt>
      <trkpt lat="48.57075" lon="6.45704">
        <ele>260</ele>
        <time>2017-06-26T09:08:11Z</time>
      </trkpt>
      <trkpt lat="48.57073" lon="6.45704">
        <ele>260</ele>
        <time>2017-06-26T09:08:12Z</time>
      </trkpt>
      <trkpt lat="48.57071" lon="6.45703">
        <ele>260</ele>
        <time>2017-06-26T09:08:13Z</time>
      </trkpt>
      <trkpt lat="48.57069" lon="6.45702">
        <ele>260</ele>
        <time>2017-06-26T09:08:14Z</time>
      </trkpt>
      <trkpt lat="48.57066" lon="6.45701">
        <ele>260</ele>
        <time>2017-06-26T09:08:15Z</time>
      </trkpt>
      <trkpt lat="48.57064" lon="6.45699">
        <ele>260</ele>
        <time>2017-06-26T09:08:16Z</time>
      </trkpt>
      <trkpt lat="48.57062" lon="6.45698">
        <ele>260</ele>
        <time>2017-06-26T09:08:17Z</time>
      </trkpt>
      <trkpt lat="48.5706" lon="6.45697">
        <ele>260</ele>
        <time>2017-06-26T09:08:18Z</time>
      </trkpt>
      <trkpt lat="48.57058" lon="6.45695">
        <ele>260</ele>
        <time>2017-06-26T09:08:19Z</time>
      </trkpt>
      <trkpt lat="48.57056" lon="6.45694">
        <ele>260</ele>
        <time>2017-06-26T09:08:20Z</time>
      </trkpt>
      <trkpt lat="48.57054" lon="6.45693">
        <ele>260</ele>
        <time>2017-06-26T09:08:21Z</time>
      </trkpt>
      <trkpt lat="48.57051" lon="6.45692">
        <ele>260</ele>
        <time>2017-06-26T09:08:22Z</time>
      </trkpt>
      <trkpt lat="48.57049" lon="6.45691">
        <ele>260</ele>
        <time>2017-06-26T09:08:23Z</time>
      </trkpt>
      <trkpt lat="48.57047" lon="6.4569">
        <ele>260</ele>
        <time>2017-06-26T09:08:24Z</time>
      </trkpt>
      <trkpt lat="48.57044" lon="6.45689">
        <ele>260</ele>
        <time>2017-06-26T09:08:25Z</time>
      </trkpt>
      <trkpt lat="48.57042" lon="6.45688">
        <ele>260</ele>
        <time>2017-06-26T09:08:26Z</time>
      </trkpt>
      <trkpt lat="48.57039" lon="6.45688">
        <ele>260</ele>
        <time>2017-06-26T09:08:27Z</time>
      </trkpt>
      <trkpt lat="48.57036" lon="6.45687">
        <ele>260</ele>
        <time>2017-06-26T09:08:28Z</time>
      </trkpt>
      <trkpt lat="48.57032" lon="6.45687">
        <ele>260</ele>
        <time>2017-06-26T09:08:29Z</time>
      </trkpt>
      <trkpt lat="48.57029" lon="6.45686">
        <ele>260</ele>
        <time>2017-06-26T09:08:30Z</time>
      </trkpt>
      <trkpt lat="48.57026" lon="6.45685">
        <ele>260</ele>
        <time>2017-06-26T09:08:31Z</time>
      </trkpt>
      <trkpt lat="48.57023" lon="6.45684">
        <ele>260</ele>
        <time>2017-06-26T09:08:32Z</time>
      </trkpt>
      <trkpt lat="48.57021" lon="6.45683">
        <ele>260</ele>
        <time>2017-06-26T09:08:33Z</time>
      </trkpt>
      <trkpt lat="48.57018" lon="6.45683">
        <ele>259</ele>
        <time>2017-06-26T09:08:34Z</time>
      </trkpt>
      <trkpt lat="48.57016" lon="6.45681">
        <ele>259</ele>
        <time>2017-06-26T09:08:35Z</time>
      </trkpt>
      <trkpt lat="48.57014" lon="6.45679">
        <ele>259</ele>
        <time>2017-06-26T09:08:36Z</time>
      </trkpt>
      <trkpt lat="48.57012" lon="6.45678">
        <ele>259</ele>
        <time>2017-06-26T09:08:37Z</time>
      </trkpt>
      <trkpt lat="48.57011" lon="6.45676">
        <ele>259</ele>
        <time>2017-06-26T09:08:38Z</time>
      </trkpt>
      <trkpt lat="48.57009" lon="6.45675">
        <ele>259</ele>
        <time>2017-06-26T09:08:39Z</time>
      </trkpt>
      <trkpt lat="48.57006" lon="6.45674">
        <ele>259</ele>
        <time>2017-06-26T09:08:40Z</time>
      </trkpt>
      <trkpt lat="48.57002" lon="6.45673">
        <ele>259</ele>
        <time>2017-06-26T09:08:41Z</time>
      </trkpt>
      <trkpt lat="48.56999" lon="6.45671">
        <ele>259</ele>
        <time>2017-06-26T09:08:42Z</time>
      </trkpt>
      <trkpt lat="48.56997" lon="6.4567">
        <ele>259</ele>
        <time>2017-06-26T09:08:43Z</time>
      </trkpt>
      <trkpt lat="48.56995" lon="6.45668">
        <ele>259</ele>
        <time>2017-06-26T09:08:44Z</time>
      </trkpt>
      <trkpt lat="48.56994" lon="6.45666">
        <ele>259</ele>
        <time>2017-06-26T09:08:45Z</time>
      </trkpt>
      <trkpt lat="48.56992" lon="6.45664">
        <ele>259</ele>
        <time>2017-06-26T09:08:46Z</time>
      </trkpt>
      <trkpt lat="48.5699" lon="6.45662">
        <ele>259</ele>
        <time>2017-06-26T09:08:47Z</time>
      </trkpt>
      <trkpt lat="48.56988" lon="6.45661">
        <ele>259</ele>
        <time>2017-06-26T09:08:48Z</time>
      </trkpt>
      <trkpt lat="48.56986" lon="6.4566">
        <ele>259</ele>
        <time>2017-06-26T09:08:49Z</time>
      </trkpt>
      <trkpt lat="48.56984" lon="6.45659">
        <ele>259</ele>
        <time>2017-06-26T09:08:50Z</time>
      </trkpt>
      <trkpt lat="48.56982" lon="6.45658">
        <ele>259</ele>
        <time>2017-06-26T09:08:51Z</time>
      </trkpt>
      <trkpt lat="48.56981" lon="6.45657">
        <ele>259</ele>
        <time>2017-06-26T09:08:52Z</time>
      </trkpt>
      <trkpt lat="48.56978" lon="6.45656">
        <ele>259</ele>
        <time>2017-06-26T09:08:53Z</time>
      </trkpt>
      <trkpt lat="48.56975" lon="6.45654">
        <ele>258</ele>
        <time>2017-06-26T09:08:54Z</time>
      </trkpt>
      <trkpt lat="48.56972" lon="6.45653">
        <ele>258</ele>
        <time>2017-06-26T09:08:55Z</time>
      </trkpt>
      <trkpt lat="48.5697" lon="6.45652">
        <ele>258</ele>
        <time>2017-06-26T09:08:56Z</time>
      </trkpt>
      <trkpt lat="48.56967" lon="6.45651">
        <ele>258</ele>
        <time>2017-06-26T09:08:57Z</time>
      </trkpt>
      <trkpt lat="48.56964" lon="6.4565">
        <ele>258</ele>
        <time>2017-06-26T09:08:58Z</time>
      </trkpt>
      <trkpt lat="48.56962" lon="6.45649">
        <ele>258</ele>
        <time>2017-06-26T09:08:59Z</time>
      </trkpt>
      <trkpt lat="48.56959" lon="6.45648">
        <ele>258</ele>
        <time>2017-06-26T09:09:00Z</time>
      </trkpt>
      <trkpt lat="48.56958" lon="6.45647">
        <ele>258</ele>
        <time>2017-06-26T09:09:01Z</time>
      </trkpt>
      <trkpt lat="48.56956" lon="6.45647">
        <ele>258</ele>
        <time>2017-06-26T09:09:02Z</time>
      </trkpt>
      <trkpt lat="48.56955" lon="6.45647">
        <ele>258</ele>
        <time>2017-06-26T09:09:03Z</time>
      </trkpt>
      <trkpt lat="48.56954" lon="6.45646">
        <ele>258</ele>
        <time>2017-06-26T09:09:04Z</time>
      </trkpt>
      <trkpt lat="48.56953" lon="6.45646">
        <ele>258</ele>
        <time>2017-06-26T09:09:05Z</time>
      </trkpt>
      <trkpt lat="48.56951" lon="6.45646">
        <ele>258</ele>
        <time>2017-06-26T09:09:06Z</time>
      </trkpt>
      <trkpt lat="48.5695" lon="6.45645">
        <ele>258</ele>
        <time>2017-06-26T09:09:07Z</time>
      </trkpt>
      <trkpt lat="48.56949" lon="6.45645">
        <ele>258</ele>
        <time>2017-06-26T09:09:08Z</time>
      </trkpt>
      <trkpt lat="48.56946" lon="6.45644">
        <ele>258</ele>
        <time>2017-06-26T09:09:09Z</time>
      </trkpt>
      <trkpt lat="48.56943" lon="6.45643">
        <ele>258</ele>
        <time>2017-06-26T09:09:10Z</time>
      </trkpt>
      <trkpt lat="48.56941" lon="6.45642">
        <ele>258</ele>
        <time>2017-06-26T09:09:11Z</time>
      </trkpt>
      <trkpt lat="48.56938" lon="6.45641">
        <ele>258</ele>
        <time>2017-06-26T09:09:12Z</time>
      </trkpt>
      <trkpt lat="48.56934" lon="6.45639">
        <ele>258</ele>
        <time>2017-06-26T09:09:13Z</time>
      </trkpt>
      <trkpt lat="48.56931" lon="6.45638">
        <ele>258</ele>
        <time>2017-06-26T09:09:14Z</time>
      </trkpt>
      <trkpt lat="48.56927" lon="6.45637">
        <ele>258</ele>
        <time>2017-06-26T09:09:15Z</time>
      </trkpt>
      <trkpt lat="48.56925" lon="6.45636">
        <ele>258</ele>
        <time>2017-06-26T09:09:16Z</time>
      </trkpt>
      <trkpt lat="48.56923" lon="6.45635">
        <ele>258</ele>
        <time>2017-06-26T09:09:17Z</time>
      </trkpt>
      <trkpt lat="48.56921" lon="6.45633">
        <ele>258</ele>
        <time>2017-06-26T09:09:18Z</time>
      </trkpt>
      <trkpt lat="48.56919" lon="6.45632">
        <ele>258</ele>
        <time>2017-06-26T09:09:19Z</time>
      </trkpt>
      <trkpt lat="48.56917" lon="6.45631">
        <ele>258</ele>
        <time>2017-06-26T09:09:20Z</time>
      </trkpt>
      <trkpt lat="48.56915" lon="6.45629">
        <ele>258</ele>
        <time>2017-06-26T09:09:21Z</time>
      </trkpt>
      <trkpt lat="48.56914" lon="6.45628">
        <ele>258</ele>
        <time>2017-06-26T09:09:22Z</time>
      </trkpt>
      <trkpt lat="48.56912" lon="6.45626">
        <ele>258</ele>
        <time>2017-06-26T09:09:23Z</time>
      </trkpt>
      <trkpt lat="48.5691" lon="6.45625">
        <ele>258</ele>
        <time>2017-06-26T09:09:24Z</time>
      </trkpt>
      <trkpt lat="48.56908" lon="6.45624">
        <ele>258</ele>
        <time>2017-06-26T09:09:25Z</time>
      </trkpt>
      <trkpt lat="48.56906" lon="6.45622">
        <ele>258</ele>
        <time>2017-06-26T09:09:26Z</time>
      </trkpt>
      <trkpt lat="48.56904" lon="6.45621">
        <ele>258</ele>
        <time>2017-06-26T09:09:27Z</time>
      </trkpt>
      <trkpt lat="48.56902" lon="6.45619">
        <ele>258</ele>
        <time>2017-06-26T09:09:28Z</time>
      </trkpt>
      <trkpt lat="48.569" lon="6.45618">
        <ele>258</ele>
        <time>2017-06-26T09:09:29Z</time>
      </trkpt>
      <trkpt lat="48.56898" lon="6.45616">
        <ele>258</ele>
        <time>2017-06-26T09:09:30Z</time>
      </trkpt>
      <trkpt lat="48.56896" lon="6.45615">
        <ele>258</ele>
        <time>2017-06-26T09:09:31Z</time>
      </trkpt>
      <trkpt lat="48.56894" lon="6.45613">
        <ele>258</ele>
        <time>2017-06-26T09:09:32Z</time>
      </trkpt>
      <trkpt lat="48.56891" lon="6.45611">
        <ele>258</ele>
        <time>2017-06-26T09:09:33Z</time>
      </trkpt>
      <trkpt lat="48.56889" lon="6.45609">
        <ele>258</ele>
        <time>2017-06-26T09:09:34Z</time>
      </trkpt>
      <trkpt lat="48.56887" lon="6.45607">
        <ele>258</ele>
        <time>2017-06-26T09:09:35Z</time>
      </trkpt>
      <trkpt lat="48.56884" lon="6.45605">
        <ele>258</ele>
        <time>2017-06-26T09:09:36Z</time>
      </trkpt>
      <trkpt lat="48.56882" lon="6.45603">
        <ele>258</ele>
        <time>2017-06-26T09:09:37Z</time>
      </trkpt>
      <trkpt lat="48.5688" lon="6.45601">
        <ele>258</ele>
        <time>2017-06-26T09:09:38Z</time>
      </trkpt>
      <trkpt lat="48.56877" lon="6.45599">
        <ele>258</ele>
        <time>2017-06-26T09:09:39Z</time>
      </trkpt>
      <trkpt lat="48.56875" lon="6.45597">
        <ele>258</ele>
        <time>2017-06-26T09:09:40Z</time>
      </trkpt>
      <trkpt lat="48.56873" lon="6.45594">
        <ele>258</ele>
        <time>2017-06-26T09:09:41Z</time>
      </trkpt>
      <trkpt lat="48.56871" lon="6.45592">
        <ele>258</ele>
        <time>2017-06-26T09:09:42Z</time>
      </trkpt>
      <trkpt lat="48.56869" lon="6.45589">
        <ele>258</ele>
        <time>2017-06-26T09:09:43Z</time>
      </trkpt>
      <trkpt lat="48.56868" lon="6.45586">
        <ele>257</ele>
        <time>2017-06-26T09:09:44Z</time>
      </trkpt>
      <trkpt lat="48.56866" lon="6.45583">
        <ele>257</ele>
        <time>2017-06-26T09:09:45Z</time>
      </trkpt>
      <trkpt lat="48.56864" lon="6.4558">
        <ele>257</ele>
        <time>2017-06-26T09:09:46Z</time>
      </trkpt>
      <trkpt lat="48.56862" lon="6.45577">
        <ele>257</ele>
        <time>2017-06-26T09:09:47Z</time>
      </trkpt>
      <trkpt lat="48.56861" lon="6.45575">
        <ele>257</ele>
        <time>2017-06-26T09:09:48Z</time>
      </trkpt>
      <trkpt lat="48.5686" lon="6.45573">
        <ele>257</ele>
        <time>2017-06-26T09:09:49Z</time>
      </trkpt>
      <trkpt lat="48.56858" lon="6.45571">
        <ele>257</ele>
        <time>2017-06-26T09:09:50Z</time>
      </trkpt>
      <trkpt lat="48.56857" lon="6.45569">
        <ele>257</ele>
        <time>2017-06-26T09:09:51Z</time>
      </trkpt>
      <trkpt lat="48.56855" lon="6.45567">
        <ele>257</ele>
        <time>2017-06-26T09:09:52Z</time>
      </trkpt>
      <trkpt lat="48.56854" lon="6.45565">
        <ele>257</ele>
        <time>2017-06-26T09:09:53Z</time>
      </trkpt>
      <trkpt lat="48.56851" lon="6.45563">
        <ele>257</ele>
        <time>2017-06-26T09:09:54Z</time>
      </trkpt>
      <trkpt lat="48.56849" lon="6.45561">
        <ele>257</ele>
        <time>2017-06-26T09:09:55Z</time>
      </trkpt>
      <trkpt lat="48.56846" lon="6.45558">
        <ele>257</ele>
        <time>2017-06-26T09:09:56Z</time>
      </trkpt>
      <trkpt lat="48.56844" lon="6.45556">
        <ele>257</ele>
        <time>2017-06-26T09:09:57Z</time>
      </trkpt>
      <trkpt lat="48.56842" lon="6.45553">
        <ele>257</ele>
        <time>2017-06-26T09:09:58Z</time>
      </trkpt>
      <trkpt lat="48.5684" lon="6.4555">
        <ele>257</ele>
        <time>2017-06-26T09:09:59Z</time>
      </trkpt>
      <trkpt lat="48.56838" lon="6.45546">
        <ele>257</ele>
        <time>2017-06-26T09:10:00Z</time>
      </trkpt>
      <trkpt lat="48.56836" lon="6.45543">
        <ele>257</ele>
        <time>2017-06-26T09:10:01Z</time>
      </trkpt>
      <trkpt lat="48.56835" lon="6.45541">
        <ele>257</ele>
        <time>2017-06-26T09:10:02Z</time>
      </trkpt>
      <trkpt lat="48.56833" lon="6.45539">
        <ele>257</ele>
        <time>2017-06-26T09:10:03Z</time>
      </trkpt>
      <trkpt lat="48.56832" lon="6.45536">
        <ele>256</ele>
        <time>2017-06-26T09:10:04Z</time>
      </trkpt>
      <trkpt lat="48.5683" lon="6.45534">
        <ele>256</ele>
        <time>2017-06-26T09:10:05Z</time>
      </trkpt>
      <trkpt lat="48.56829" lon="6.45532">
        <ele>256</ele>
        <time>2017-06-26T09:10:06Z</time>
      </trkpt>
      <trkpt lat="48.56827" lon="6.4553">
        <ele>256</ele>
        <time>2017-06-26T09:10:07Z</time>
      </trkpt>
      <trkpt lat="48.56826" lon="6.45527">
        <ele>256</ele>
        <time>2017-06-26T09:10:08Z</time>
      </trkpt>
      <trkpt lat="48.56824" lon="6.45525">
        <ele>256</ele>
        <time>2017-06-26T09:10:09Z</time>
      </trkpt>
      <trkpt lat="48.56823" lon="6.45522">
        <ele>256</ele>
        <time>2017-06-26T09:10:10Z</time>
      </trkpt>
      <trkpt lat="48.56821" lon="6.4552">
        <ele>256</ele>
        <time>2017-06-26T09:10:11Z</time>
      </trkpt>
      <trkpt lat="48.56819" lon="6.45517">
        <ele>256</ele>
        <time>2017-06-26T09:10:12Z</time>
      </trkpt>
      <trkpt lat="48.56817" lon="6.45515">
        <ele>256</ele>
        <time>2017-06-26T09:10:13Z</time>
      </trkpt>
      <trkpt lat="48.56815" lon="6.45513">
        <ele>256</ele>
        <time>2017-06-26T09:10:14Z</time>
      </trkpt>
      <trkpt lat="48.56813" lon="6.4551">
        <ele>256</ele>
        <time>2017-06-26T09:10:15Z</time>
      </trkpt>
      <trkpt lat="48.56811" lon="6.45508">
        <ele>256</ele>
        <time>2017-06-26T09:10:16Z</time>
      </trkpt>
      <trkpt lat="48.5681" lon="6.45505">
        <ele>256</ele>
        <time>2017-06-26T09:10:17Z</time>
      </trkpt>
      <trkpt lat="48.56808" lon="6.45503">
        <ele>256</ele>
        <time>2017-06-26T09:10:18Z</time>
      </trkpt>
      <trkpt lat="48.56806" lon="6.455">
        <ele>256</ele>
        <time>2017-06-26T09:10:19Z</time>
      </trkpt>
      <trkpt lat="48.56804" lon="6.45498">
        <ele>256</ele>
        <time>2017-06-26T09:10:20Z</time>
      </trkpt>
      <trkpt lat="48.56803" lon="6.45496">
        <ele>256</ele>
        <time>2017-06-26T09:10:21Z</time>
      </trkpt>
      <trkpt lat="48.56801" lon="6.45493">
        <ele>256</ele>
        <time>2017-06-26T09:10:22Z</time>
      </trkpt>
      <trkpt lat="48.56799" lon="6.45491">
        <ele>256</ele>
        <time>2017-06-26T09:10:23Z</time>
      </trkpt>
      <trkpt lat="48.56797" lon="6.45489">
        <ele>255</ele>
        <time>2017-06-26T09:10:24Z</time>
      </trkpt>
      <trkpt lat="48.56796" lon="6.45487">
        <ele>255</ele>
        <time>2017-06-26T09:10:25Z</time>
      </trkpt>
      <trkpt lat="48.56794" lon="6.45484">
        <ele>255</ele>
        <time>2017-06-26T09:10:26Z</time>
      </trkpt>
      <trkpt lat="48.56792" lon="6.4548">
        <ele>255</ele>
        <time>2017-06-26T09:10:27Z</time>
      </trkpt>
      <trkpt lat="48.56791" lon="6.45477">
        <ele>255</ele>
        <time>2017-06-26T09:10:28Z</time>
      </trkpt>
      <trkpt lat="48.56789" lon="6.45474">
        <ele>255</ele>
        <time>2017-06-26T09:10:29Z</time>
      </trkpt>
      <trkpt lat="48.56788" lon="6.45472">
        <ele>255</ele>
        <time>2017-06-26T09:10:30Z</time>
      </trkpt>
      <trkpt lat="48.56786" lon="6.45471">
        <ele>255</ele>
        <time>2017-06-26T09:10:31Z</time>
      </trkpt>
      <trkpt lat="48.56785" lon="6.45469">
        <ele>255</ele>
        <time>2017-06-26T09:10:32Z</time>
      </trkpt>
      <trkpt lat="48.56784" lon="6.45467">
        <ele>255</ele>
        <time>2017-06-26T09:10:33Z</time>
      </trkpt>
      <trkpt lat="48.56783" lon="6.45465">
        <ele>255</ele>
        <time>2017-06-26T09:10:34Z</time>
      </trkpt>
      <trkpt lat="48.56782" lon="6.45463">
        <ele>255</ele>
        <time>2017-06-26T09:10:35Z</time>
      </trkpt>
      <trkpt lat="48.56781" lon="6.45461">
        <ele>255</ele>
        <time>2017-06-26T09:10:36Z</time>
      </trkpt>
      <trkpt lat="48.56779" lon="6.45459">
        <ele>255</ele>
        <time>2017-06-26T09:10:37Z</time>
      </trkpt>
      <trkpt lat="48.56777" lon="6.45457">
        <ele>255</ele>
        <time>2017-06-26T09:10:38Z</time>
      </trkpt>
      <trkpt lat="48.56775" lon="6.45455">
        <ele>255</ele>
        <time>2017-06-26T09:10:39Z</time>
      </trkpt>
      <trkpt lat="48.56773" lon="6.45453">
        <ele>255</ele>
        <time>2017-06-26T09:10:40Z</time>
      </trkpt>
      <trkpt lat="48.56771" lon="6.45451">
        <ele>255</ele>
        <time>2017-06-26T09:10:41Z</time>
      </trkpt>
      <trkpt lat="48.5677" lon="6.45448">
        <ele>255</ele>
        <time>2017-06-26T09:10:42Z</time>
      </trkpt>
      <trkpt lat="48.56769" lon="6.45444">
        <ele>255</ele>
        <time>2017-06-26T09:10:43Z</time>
      </trkpt>
      <trkpt lat="48.56768" lon="6.45441">
        <ele>255</ele>
        <time>2017-06-26T09:10:44Z</time>
      </trkpt>
      <trkpt lat="48.56766" lon="6.45437">
        <ele>255</ele>
        <time>2017-06-26T09:10:45Z</time>
      </trkpt>
      <trkpt lat="48.56765" lon="6.45435">
        <ele>255</ele>
        <time>2017-06-26T09:10:46Z</time>
      </trkpt>
      <trkpt lat="48.56763" lon="6.45433">
        <ele>255</ele>
        <time>2017-06-26T09:10:47Z</time>
      </trkpt>
      <trkpt lat="48.56761" lon="6.45431">
        <ele>255</ele>
        <time>2017-06-26T09:10:48Z</time>
      </trkpt>
      <trkpt lat="48.5676" lon="6.45428">
        <ele>255</ele>
        <time>2017-06-26T09:10:49Z</time>
      </trkpt>
      <trkpt lat="48.56758" lon="6.45426">
        <ele>255</ele>
        <time>2017-06-26T09:10:50Z</time>
      </trkpt>
      <trkpt lat="48.56756" lon="6.45423">
        <ele>255</ele>
        <time>2017-06-26T09:10:51Z</time>
      </trkpt>
      <trkpt lat="48.56754" lon="6.45421">
        <ele>255</ele>
        <time>2017-06-26T09:10:52Z</time>
      </trkpt>
      <trkpt lat="48.56752" lon="6.45418">
        <ele>255</ele>
        <time>2017-06-26T09:10:53Z</time>
      </trkpt>
      <trkpt lat="48.5675" lon="6.45415">
        <ele>255</ele>
        <time>2017-06-26T09:10:54Z</time>
      </trkpt>
      <trkpt lat="48.56748" lon="6.45413">
        <ele>255</ele>
        <time>2017-06-26T09:10:55Z</time>
      </trkpt>
      <trkpt lat="48.56747" lon="6.4541">
        <ele>255</ele>
        <time>2017-06-26T09:10:56Z</time>
      </trkpt>
      <trkpt lat="48.56745" lon="6.45407">
        <ele>255</ele>
        <time>2017-06-26T09:10:57Z</time>
      </trkpt>
      <trkpt lat="48.56743" lon="6.45405">
        <ele>255</ele>
        <time>2017-06-26T09:10:58Z</time>
      </trkpt>
      <trkpt lat="48.56742" lon="6.45402">
        <ele>255</ele>
        <time>2017-06-26T09:10:59Z</time>
      </trkpt>
      <trkpt lat="48.5674" lon="6.454">
        <ele>255</ele>
        <time>2017-06-26T09:11:00Z</time>
      </trkpt>
      <trkpt lat="48.56739" lon="6.45397">
        <ele>255</ele>
        <time>2017-06-26T09:11:01Z</time>
      </trkpt>
      <trkpt lat="48.56738" lon="6.45395">
        <ele>255</ele>
        <time>2017-06-26T09:11:02Z</time>
      </trkpt>
      <trkpt lat="48.56737" lon="6.45392">
        <ele>255</ele>
        <time>2017-06-26T09:11:03Z</time>
      </trkpt>
      <trkpt lat="48.56735" lon="6.45391">
        <ele>253</ele>
        <time>2017-06-26T09:11:04Z</time>
      </trkpt>
      <trkpt lat="48.56733" lon="6.45389">
        <ele>253</ele>
        <time>2017-06-26T09:11:05Z</time>
      </trkpt>
      <trkpt lat="48.56731" lon="6.45388">
        <ele>253</ele>
        <time>2017-06-26T09:11:06Z</time>
      </trkpt>
      <trkpt lat="48.56729" lon="6.45386">
        <ele>253</ele>
        <time>2017-06-26T09:11:07Z</time>
      </trkpt>
      <trkpt lat="48.56728" lon="6.45385">
        <ele>253</ele>
        <time>2017-06-26T09:11:08Z</time>
      </trkpt>
      <trkpt lat="48.56726" lon="6.45382">
        <ele>253</ele>
        <time>2017-06-26T09:11:09Z</time>
      </trkpt>
      <trkpt lat="48.56724" lon="6.45379">
        <ele>253</ele>
        <time>2017-06-26T09:11:10Z</time>
      </trkpt>
      <trkpt lat="48.56723" lon="6.45377">
        <ele>253</ele>
        <time>2017-06-26T09:11:11Z</time>
      </trkpt>
      <trkpt lat="48.56721" lon="6.45374">
        <ele>253</ele>
        <time>2017-06-26T09:11:12Z</time>
      </trkpt>
      <trkpt lat="48.5672" lon="6.45371">
        <ele>253</ele>
        <time>2017-06-26T09:11:13Z</time>
      </trkpt>
      <trkpt lat="48.56718" lon="6.45369">
        <ele>252</ele>
        <time>2017-06-26T09:11:14Z</time>
      </trkpt>
      <trkpt lat="48.56717" lon="6.45367">
        <ele>252</ele>
        <time>2017-06-26T09:11:15Z</time>
      </trkpt>
      <trkpt lat="48.56716" lon="6.45365">
        <ele>252</ele>
        <time>2017-06-26T09:11:16Z</time>
      </trkpt>
      <trkpt lat="48.56715" lon="6.45363">
        <ele>252</ele>
        <time>2017-06-26T09:11:17Z</time>
      </trkpt>
      <trkpt lat="48.56714" lon="6.45361">
        <ele>252</ele>
        <time>2017-06-26T09:11:18Z</time>
      </trkpt>
      <trkpt lat="48.56712" lon="6.45358">
        <ele>252</ele>
        <time>2017-06-26T09:11:19Z</time>
      </trkpt>
      <trkpt lat="48.56712" lon="6.45357">
        <ele>252</ele>
        <time>2017-06-26T09:11:20Z</time>
      </trkpt>
      <trkpt lat="48.56711" lon="6.45356">
        <ele>252</ele>
        <time>2017-06-26T09:11:21Z</time>
      </trkpt>
      <trkpt lat="48.5671" lon="6.45355">
        <ele>252</ele>
        <time>2017-06-26T09:11:22Z</time>
      </trkpt>
      <trkpt lat="48.56709" lon="6.45353">
        <ele>252</ele>
        <time>2017-06-26T09:11:23Z</time>
      </trkpt>
      <trkpt lat="48.56708" lon="6.45352">
        <ele>252</ele>
        <time>2017-06-26T09:11:24Z</time>
      </trkpt>
      <trkpt lat="48.56707" lon="6.45351">
        <ele>252</ele>
        <time>2017-06-26T09:11:25Z</time>
      </trkpt>
      <trkpt lat="48.56706" lon="6.45349">
        <ele>252</ele>
        <time>2017-06-26T09:11:26Z</time>
      </trkpt>
      <trkpt lat="48.56705" lon="6.45348">
        <ele>252</ele>
        <time>2017-06-26T09:11:27Z</time>
      </trkpt>
      <trkpt lat="48.56703" lon="6.45347">
        <ele>252</ele>
        <time>2017-06-26T09:11:28Z</time>
      </trkpt>
      <trkpt lat="48.56702" lon="6.45345">
        <ele>252</ele>
        <time>2017-06-26T09:11:29Z</time>
      </trkpt>
      <trkpt lat="48.56701" lon="6.45344">
        <ele>252</ele>
        <time>2017-06-26T09:11:30Z</time>
      </trkpt>
      <trkpt lat="48.56699" lon="6.45342">
        <ele>252</ele>
        <time>2017-06-26T09:11:31Z</time>
      </trkpt>
      <trkpt lat="48.56698" lon="6.45341">
        <ele>252</ele>
        <time>2017-06-26T09:11:32Z</time>
      </trkpt>
      <trkpt lat="48.56696" lon="6.4534">
        <ele>252</ele>
        <time>2017-06-26T09:11:33Z</time>
      </trkpt>
      <trkpt lat="48.56695" lon="6.45338">
        <ele>252</ele>
        <time>2017-06-26T09:11:34Z</time>
      </trkpt>
      <trkpt lat="48.56693" lon="6.45335">
        <ele>252</ele>
        <time>2017-06-26T09:11:35Z</time>
      </trkpt>
      <trkpt lat="48.56691" lon="6.45333">
        <ele>252</ele>
        <time>2017-06-26T09:11:36Z</time>
      </trkpt>
      <trkpt lat="48.56689" lon="6.45331">
        <ele>252</ele>
        <time>2017-06-26T09:11:37Z</time>
      </trkpt>
      <trkpt lat="48.56687" lon="6.45329">
        <ele>252</ele>
        <time>2017-06-26T09:11:38Z</time>
      </trkpt>
      <trkpt lat="48.56686" lon="6.45326">
        <ele>252</ele>
        <time>2017-06-26T09:11:39Z</time>
      </trkpt>
      <trkpt lat="48.56685" lon="6.45324">
        <ele>252</ele>
        <time>2017-06-26T09:11:40Z</time>
      </trkpt>
      <trkpt lat="48.56683" lon="6.45321">
        <ele>252</ele>
        <time>2017-06-26T09:11:41Z</time>
      </trkpt>
      <trkpt lat="48.56682" lon="6.45318">
        <ele>252</ele>
        <time>2017-06-26T09:11:42Z</time>
      </trkpt>
      <trkpt lat="48.56681" lon="6.45316">
        <ele>252</ele>
        <time>2017-06-26T09:11:43Z</time>
      </trkpt>
      <trkpt lat="48.56679" lon="6.45314">
        <ele>252</ele>
        <time>2017-06-26T09:11:44Z</time>
      </trkpt>
      <trkpt lat="48.56678" lon="6.45311">
        <ele>252</ele>
        <time>2017-06-26T09:11:45Z</time>
      </trkpt>
      <trkpt lat="48.56676" lon="6.45309">
        <ele>252</ele>
        <time>2017-06-26T09:11:46Z</time>
      </trkpt>
      <trkpt lat="48.56675" lon="6.45307">
        <ele>252</ele>
        <time>2017-06-26T09:11:47Z</time>
      </trkpt>
      <trkpt lat="48.56673" lon="6.45305">
        <ele>252</ele>
        <time>2017-06-26T09:11:48Z</time>
      </trkpt>
      <trkpt lat="48.56671" lon="6.45303">
        <ele>252</ele>
        <time>2017-06-26T09:11:49Z</time>
      </trkpt>
      <trkpt lat="48.56669" lon="6.453">
        <ele>252</ele>
        <time>2017-06-26T09:11:50Z</time>
      </trkpt>
      <trkpt lat="48.56667" lon="6.45298">
        <ele>252</ele>
        <time>2017-06-26T09:11:51Z</time>
      </trkpt>
      <trkpt lat="48.56664" lon="6.45296">
        <ele>252</ele>
        <time>2017-06-26T09:11:52Z</time>
      </trkpt>
      <trkpt lat="48.56662" lon="6.45294">
        <ele>252</ele>
        <time>2017-06-26T09:11:53Z</time>
      </trkpt>
      <trkpt lat="48.5666" lon="6.45291">
        <ele>250</ele>
        <time>2017-06-26T09:11:54Z</time>
      </trkpt>
      <trkpt lat="48.56658" lon="6.45288">
        <ele>250</ele>
        <time>2017-06-26T09:11:55Z</time>
      </trkpt>
      <trkpt lat="48.56656" lon="6.45286">
        <ele>250</ele>
        <time>2017-06-26T09:11:56Z</time>
      </trkpt>
      <trkpt lat="48.56654" lon="6.45284">
        <ele>250</ele>
        <time>2017-06-26T09:11:57Z</time>
      </trkpt>
      <trkpt lat="48.56652" lon="6.45282">
        <ele>250</ele>
        <time>2017-06-26T09:11:58Z</time>
      </trkpt>
      <trkpt lat="48.56651" lon="6.4528">
        <ele>250</ele>
        <time>2017-06-26T09:11:59Z</time>
      </trkpt>
      <trkpt lat="48.56649" lon="6.45278">
        <ele>250</ele>
        <time>2017-06-26T09:12:00Z</time>
      </trkpt>
      <trkpt lat="48.56647" lon="6.45276">
        <ele>250</ele>
        <time>2017-06-26T09:12:01Z</time>
      </trkpt>
      <trkpt lat="48.56646" lon="6.45273">
        <ele>250</ele>
        <time>2017-06-26T09:12:02Z</time>
      </trkpt>
      <trkpt lat="48.56645" lon="6.45271">
        <ele>250</ele>
        <time>2017-06-26T09:12:03Z</time>
      </trkpt>
      <trkpt lat="48.56643" lon="6.45269">
        <ele>250</ele>
        <time>2017-06-26T09:12:04Z</time>
      </trkpt>
      <trkpt lat="48.56642" lon="6.45266">
        <ele>250</ele>
        <time>2017-06-26T09:12:05Z</time>
      </trkpt>
      <trkpt lat="48.56641" lon="6.45264">
        <ele>250</ele>
        <time>2017-06-26T09:12:06Z</time>
      </trkpt>
      <trkpt lat="48.5664" lon="6.45263">
        <ele>250</ele>
        <time>2017-06-26T09:12:07Z</time>
      </trkpt>
      <trkpt lat="48.56638" lon="6.45261">
        <ele>250</ele>
        <time>2017-06-26T09:12:08Z</time>
      </trkpt>
      <trkpt lat="48.56637" lon="6.4526">
        <ele>250</ele>
        <time>2017-06-26T09:12:09Z</time>
      </trkpt>
      <trkpt lat="48.56636" lon="6.45259">
        <ele>250</ele>
        <time>2017-06-26T09:12:10Z</time>
      </trkpt>
      <trkpt lat="48.56635" lon="6.45258">
        <ele>250</ele>
        <time>2017-06-26T09:12:11Z</time>
      </trkpt>
      <trkpt lat="48.56633" lon="6.45256">
        <ele>250</ele>
        <time>2017-06-26T09:12:12Z</time>
      </trkpt>
      <trkpt lat="48.56632" lon="6.45255">
        <ele>250</ele>
        <time>2017-06-26T09:12:13Z</time>
      </trkpt>
      <trkpt lat="48.56632" lon="6.45256">
        <ele>250</ele>
        <time>2017-06-26T09:12:14Z</time>
      </trkpt>
      <trkpt lat="48.56633" lon="6.45257">
        <ele>250</ele>
        <time>2017-06-26T09:12:15Z</time>
      </trkpt>
      <trkpt lat="48.56633" lon="6.45258">
        <ele>250</ele>
        <time>2017-06-26T09:12:16Z</time>
      </trkpt>
      <trkpt lat="48.56633" lon="6.4526">
        <ele>250</ele>
        <time>2017-06-26T09:12:17Z</time>
      </trkpt>
      <trkpt lat="48.56633" lon="6.45261">
        <ele>250</ele>
        <time>2017-06-26T09:12:18Z</time>
      </trkpt>
      <trkpt lat="48.56634" lon="6.45262">
        <ele>250</ele>
        <time>2017-06-26T09:12:19Z</time>
      </trkpt>
      <trkpt lat="48.56634" lon="6.45263">
        <ele>250</ele>
        <time>2017-06-26T09:12:20Z</time>
      </trkpt>
      <trkpt lat="48.56634" lon="6.45264">
        <ele>250</ele>
        <time>2017-06-26T09:12:21Z</time>
      </trkpt>
      <trkpt lat="48.56634" lon="6.45265">
        <ele>250</ele>
        <time>2017-06-26T09:12:22Z</time>
      </trkpt>
      <trkpt lat="48.56634" lon="6.45267">
        <ele>250</ele>
        <time>2017-06-26T09:12:23Z</time>
      </trkpt>
      <trkpt lat="48.56635" lon="6.45268">
        <ele>250</ele>
        <time>2017-06-26T09:12:24Z</time>
      </trkpt>
      <trkpt lat="48.56635" lon="6.45269">
        <ele>250</ele>
        <time>2017-06-26T09:12:25Z</time>
      </trkpt>
      <trkpt lat="48.56635" lon="6.4527">
        <ele>250</ele>
        <time>2017-06-26T09:12:26Z</time>
      </trkpt>
      <trkpt lat="48.56635" lon="6.45271">
        <ele>250</ele>
        <time>2017-06-26T09:12:27Z</time>
      </trkpt>
      <trkpt lat="48.56635" lon="6.45274">
        <ele>250</ele>
        <time>2017-06-26T09:12:28Z</time>
      </trkpt>
      <trkpt lat="48.56635" lon="6.45276">
        <ele>250</ele>
        <time>2017-06-26T09:12:29Z</time>
      </trkpt>
      <trkpt lat="48.56635" lon="6.45279">
        <ele>250</ele>
        <time>2017-06-26T09:12:30Z</time>
      </trkpt>
      <trkpt lat="48.56635" lon="6.45282">
        <ele>250</ele>
        <time>2017-06-26T09:12:31Z</time>
      </trkpt>
      <trkpt lat="48.56635" lon="6.45284">
        <ele>250</ele>
        <time>2017-06-26T09:12:32Z</time>
      </trkpt>
      <trkpt lat="48.56635" lon="6.45287">
        <ele>250</ele>
        <time>2017-06-26T09:12:33Z</time>
      </trkpt>
      <trkpt lat="48.56635" lon="6.45289">
        <ele>252</ele>
        <time>2017-06-26T09:12:34Z</time>
      </trkpt>
      <trkpt lat="48.56635" lon="6.45291">
        <ele>252</ele>
        <time>2017-06-26T09:12:35Z</time>
      </trkpt>
      <trkpt lat="48.56636" lon="6.45293">
        <ele>252</ele>
        <time>2017-06-26T09:12:36Z</time>
      </trkpt>
      <trkpt lat="48.56636" lon="6.45295">
        <ele>252</ele>
        <time>2017-06-26T09:12:37Z</time>
      </trkpt>
      <trkpt lat="48.56636" lon="6.45297">
        <ele>252</ele>
        <time>2017-06-26T09:12:38Z</time>
      </trkpt>
      <trkpt lat="48.56636" lon="6.45299">
        <ele>252</ele>
        <time>2017-06-26T09:12:39Z</time>
      </trkpt>
      <trkpt lat="48.56636" lon="6.45301">
        <ele>252</ele>
        <time>2017-06-26T09:12:40Z</time>
      </trkpt>
      <trkpt lat="48.56637" lon="6.45303">
        <ele>252</ele>
        <time>2017-06-26T09:12:41Z</time>
      </trkpt>
      <trkpt lat="48.56637" lon="6.45305">
        <ele>252</ele>
        <time>2017-06-26T09:12:42Z</time>
      </trkpt>
      <trkpt lat="48.56637" lon="6.45307">
        <ele>252</ele>
        <time>2017-06-26T09:12:43Z</time>
      </trkpt>
      <trkpt lat="48.56638" lon="6.45309">
        <ele>254</ele>
        <time>2017-06-26T09:12:44Z</time>
      </trkpt>
      <trkpt lat="48.56638" lon="6.45312">
        <ele>254</ele>
        <time>2017-06-26T09:12:45Z</time>
      </trkpt>
      <trkpt lat="48.56638" lon="6.45314">
        <ele>254</ele>
        <time>2017-06-26T09:12:46Z</time>
      </trkpt>
      <trkpt lat="48.56639" lon="6.45317">
        <ele>254</ele>
        <time>2017-06-26T09:12:47Z</time>
      </trkpt>
      <trkpt lat="48.56639" lon="6.45319">
        <ele>254</ele>
        <time>2017-06-26T09:12:48Z</time>
      </trkpt>
      <trkpt lat="48.56639" lon="6.45322">
        <ele>254</ele>
        <time>2017-06-26T09:12:49Z</time>
      </trkpt>
      <trkpt lat="48.56639" lon="6.45324">
        <ele>254</ele>
        <time>2017-06-26T09:12:50Z</time>
      </trkpt>
      <trkpt lat="48.56639" lon="6.45326">
        <ele>254</ele>
        <time>2017-06-26T09:12:51Z</time>
      </trkpt>
      <trkpt lat="48.56639" lon="6.45328">
        <ele>254</ele>
        <time>2017-06-26T09:12:52Z</time>
      </trkpt>
      <trkpt lat="48.56639" lon="6.45331">
        <ele>254</ele>
        <time>2017-06-26T09:12:53Z</time>
      </trkpt>
      <trkpt lat="48.56639" lon="6.45333">
        <ele>256</ele>
        <time>2017-06-26T09:12:54Z</time>
      </trkpt>
      <trkpt lat="48.56639" lon="6.45335">
        <ele>256</ele>
        <time>2017-06-26T09:12:55Z</time>
      </trkpt>
      <trkpt lat="48.56638" lon="6.45338">
        <ele>256</ele>
        <time>2017-06-26T09:12:56Z</time>
      </trkpt>
      <trkpt lat="48.56638" lon="6.45341">
        <ele>256</ele>
        <time>2017-06-26T09:12:57Z</time>
      </trkpt>
      <trkpt lat="48.56637" lon="6.45344">
        <ele>256</ele>
        <time>2017-06-26T09:12:58Z</time>
      </trkpt>
      <trkpt lat="48.56637" lon="6.45347">
        <ele>256</ele>
        <time>2017-06-26T09:12:59Z</time>
      </trkpt>
      <trkpt lat="48.56637" lon="6.45349">
        <ele>256</ele>
        <time>2017-06-26T09:13:00Z</time>
      </trkpt>
      <trkpt lat="48.56636" lon="6.45352">
        <ele>256</ele>
        <time>2017-06-26T09:13:01Z</time>
      </trkpt>
      <trkpt lat="48.56636" lon="6.45355">
        <ele>256</ele>
        <time>2017-06-26T09:13:02Z</time>
      </trkpt>
      <trkpt lat="48.56635" lon="6.45358">
        <ele>256</ele>
        <time>2017-06-26T09:13:03Z</time>
      </trkpt>
      <trkpt lat="48.56635" lon="6.45361">
        <ele>258</ele>
        <time>2017-06-26T09:13:04Z</time>
      </trkpt>
      <trkpt lat="48.56634" lon="6.45364">
        <ele>258</ele>
        <time>2017-06-26T09:13:05Z</time>
      </trkpt>
      <trkpt lat="48.56634" lon="6.45367">
        <ele>258</ele>
        <time>2017-06-26T09:13:06Z</time>
      </trkpt>
      <trkpt lat="48.56633" lon="6.4537">
        <ele>258</ele>
        <time>2017-06-26T09:13:07Z</time>
      </trkpt>
      <trkpt lat="48.56633" lon="6.45372">
        <ele>258</ele>
        <time>2017-06-26T09:13:08Z</time>
      </trkpt>
      <trkpt lat="48.56632" lon="6.45374">
        <ele>258</ele>
        <time>2017-06-26T09:13:09Z</time>
      </trkpt>
      <trkpt lat="48.56632" lon="6.45377">
        <ele>258</ele>
        <time>2017-06-26T09:13:10Z</time>
      </trkpt>
      <trkpt lat="48.56631" lon="6.45379">
        <ele>258</ele>
        <time>2017-06-26T09:13:11Z</time>
      </trkpt>
      <trkpt lat="48.56631" lon="6.45382">
        <ele>258</ele>
        <time>2017-06-26T09:13:12Z</time>
      </trkpt>
      <trkpt lat="48.5663" lon="6.45385">
        <ele>258</ele>
        <time>2017-06-26T09:13:13Z</time>
      </trkpt>
      <trkpt lat="48.5663" lon="6.45387">
        <ele>259</ele>
        <time>2017-06-26T09:13:14Z</time>
      </trkpt>
      <trkpt lat="48.56629" lon="6.4539">
        <ele>259</ele>
        <time>2017-06-26T09:13:15Z</time>
      </trkpt>
      <trkpt lat="48.56629" lon="6.45393">
        <ele>259</ele>
        <time>2017-06-26T09:13:16Z</time>
      </trkpt>
      <trkpt lat="48.56629" lon="6.45395">
        <ele>259</ele>
        <time>2017-06-26T09:13:17Z</time>
      </trkpt>
      <trkpt lat="48.56628" lon="6.45398">
        <ele>259</ele>
        <time>2017-06-26T09:13:18Z</time>
      </trkpt>
      <trkpt lat="48.56628" lon="6.45401">
        <ele>259</ele>
        <time>2017-06-26T09:13:19Z</time>
      </trkpt>
      <trkpt lat="48.56627" lon="6.45403">
        <ele>259</ele>
        <time>2017-06-26T09:13:20Z</time>
      </trkpt>
      <trkpt lat="48.56627" lon="6.45406">
        <ele>259</ele>
        <time>2017-06-26T09:13:21Z</time>
      </trkpt>
      <trkpt lat="48.56627" lon="6.45409">
        <ele>259</ele>
        <time>2017-06-26T09:13:22Z</time>
      </trkpt>
      <trkpt lat="48.56626" lon="6.45411">
        <ele>259</ele>
        <time>2017-06-26T09:13:23Z</time>
      </trkpt>
      <trkpt lat="48.56626" lon="6.45414">
        <ele>261</ele>
        <time>2017-06-26T09:13:24Z</time>
      </trkpt>
      <trkpt lat="48.56626" lon="6.45416">
        <ele>261</ele>
        <time>2017-06-26T09:13:25Z</time>
      </trkpt>
      <trkpt lat="48.56625" lon="6.45419">
        <ele>261</ele>
        <time>2017-06-26T09:13:26Z</time>
      </trkpt>
      <trkpt lat="48.56625" lon="6.45422">
        <ele>261</ele>
        <time>2017-06-26T09:13:27Z</time>
      </trkpt>
      <trkpt lat="48.56625" lon="6.45424">
        <ele>261</ele>
        <time>2017-06-26T09:13:28Z</time>
      </trkpt>
      <trkpt lat="48.56625" lon="6.45427">
        <ele>261</ele>
        <time>2017-06-26T09:13:29Z</time>
      </trkpt>
      <trkpt lat="48.56625" lon="6.4543">
        <ele>261</ele>
        <time>2017-06-26T09:13:30Z</time>
      </trkpt>
      <trkpt lat="48.56625" lon="6.45432">
        <ele>261</ele>
        <time>2017-06-26T09:13:31Z</time>
      </trkpt>
      <trkpt lat="48.56625" lon="6.45434">
        <ele>261</ele>
        <time>2017-06-26T09:13:32Z</time>
      </trkpt>
      <trkpt lat="48.56625" lon="6.45437">
        <ele>261</ele>
        <time>2017-06-26T09:13:33Z</time>
      </trkpt>
      <trkpt lat="48.56625" lon="6.45439">
        <ele>264</ele>
        <time>2017-06-26T09:13:34Z</time>
      </trkpt>
      <trkpt lat="48.56625" lon="6.45441">
        <ele>264</ele>
        <time>2017-06-26T09:13:35Z</time>
      </trkpt>
      <trkpt lat="48.56625" lon="6.45444">
        <ele>264</ele>
        <time>2017-06-26T09:13:36Z</time>
      </trkpt>
      <trkpt lat="48.56625" lon="6.45446">
        <ele>264</ele>
        <time>2017-06-26T09:13:37Z</time>
      </trkpt>
      <trkpt lat="48.56624" lon="6.45449">
        <ele>264</ele>
        <time>2017-06-26T09:13:38Z</time>
      </trkpt>
      <trkpt lat="48.56624" lon="6.45451">
        <ele>264</ele>
        <time>2017-06-26T09:13:39Z</time>
      </trkpt>
      <trkpt lat="48.56624" lon="6.45454">
        <ele>264</ele>
        <time>2017-06-26T09:13:40Z</time>
      </trkpt>
      <trkpt lat="48.56623" lon="6.45456">
        <ele>264</ele>
        <time>2017-06-26T09:13:41Z</time>
      </trkpt>
      <trkpt lat="48.56623" lon="6.45459">
        <ele>264</ele>
        <time>2017-06-26T09:13:42Z</time>
      </trkpt>
      <trkpt lat="48.56623" lon="6.45461">
        <ele>264</ele>
        <time>2017-06-26T09:13:43Z</time>
      </trkpt>
      <trkpt lat="48.56622" lon="6.45464">
        <ele>266</ele>
        <time>2017-06-26T09:13:44Z</time>
      </trkpt>
      <trkpt lat="48.56622" lon="6.45466">
        <ele>266</ele>
        <time>2017-06-26T09:13:45Z</time>
      </trkpt>
      <trkpt lat="48.56622" lon="6.45468">
        <ele>266</ele>
        <time>2017-06-26T09:13:46Z</time>
      </trkpt>
      <trkpt lat="48.56621" lon="6.45471">
        <ele>266</ele>
        <time>2017-06-26T09:13:47Z</time>
      </trkpt>
      <trkpt lat="48.56621" lon="6.45473">
        <ele>266</ele>
        <time>2017-06-26T09:13:48Z</time>
      </trkpt>
      <trkpt lat="48.56621" lon="6.45475">
        <ele>266</ele>
        <time>2017-06-26T09:13:49Z</time>
      </trkpt>
      <trkpt lat="48.5662" lon="6.45478">
        <ele>266</ele>
        <time>2017-06-26T09:13:50Z</time>
      </trkpt>
      <trkpt lat="48.5662" lon="6.4548">
        <ele>266</ele>
        <time>2017-06-26T09:13:51Z</time>
      </trkpt>
      <trkpt lat="48.56619" lon="6.45483">
        <ele>266</ele>
        <time>2017-06-26T09:13:52Z</time>
      </trkpt>
      <trkpt lat="48.56619" lon="6.45486">
        <ele>266</ele>
        <time>2017-06-26T09:13:53Z</time>
      </trkpt>
      <trkpt lat="48.56618" lon="6.45488">
        <ele>268</ele>
        <time>2017-06-26T09:13:54Z</time>
      </trkpt>
      <trkpt lat="48.56618" lon="6.45491">
        <ele>268</ele>
        <time>2017-06-26T09:13:55Z</time>
      </trkpt>
      <trkpt lat="48.56617" lon="6.45494">
        <ele>268</ele>
        <time>2017-06-26T09:13:56Z</time>
      </trkpt>
      <trkpt lat="48.56617" lon="6.45496">
        <ele>268</ele>
        <time>2017-06-26T09:13:57Z</time>
      </trkpt>
      <trkpt lat="48.56617" lon="6.45498">
        <ele>268</ele>
        <time>2017-06-26T09:13:58Z</time>
      </trkpt>
      <trkpt lat="48.56617" lon="6.455">
        <ele>268</ele>
        <time>2017-06-26T09:13:59Z</time>
      </trkpt>
      <trkpt lat="48.56618" lon="6.45502">
        <ele>268</ele>
        <time>2017-06-26T09:14:00Z</time>
      </trkpt>
      <trkpt lat="48.56618" lon="6.45504">
        <ele>268</ele>
        <time>2017-06-26T09:14:01Z</time>
      </trkpt>
      <trkpt lat="48.56618" lon="6.45506">
        <ele>268</ele>
        <time>2017-06-26T09:14:02Z</time>
      </trkpt>
      <trkpt lat="48.56618" lon="6.45509">
        <ele>268</ele>
        <time>2017-06-26T09:14:03Z</time>
      </trkpt>
      <trkpt lat="48.56618" lon="6.45511">
        <ele>270</ele>
        <time>2017-06-26T09:14:04Z</time>
      </trkpt>
      <trkpt lat="48.56618" lon="6.45513">
        <ele>270</ele>
        <time>2017-06-26T09:14:05Z</time>
      </trkpt>
      <trkpt lat="48.56618" lon="6.45515">
        <ele>270</ele>
        <time>2017-06-26T09:14:06Z</time>
      </trkpt>
      <trkpt lat="48.56618" lon="6.45518">
        <ele>270</ele>
        <time>2017-06-26T09:14:07Z</time>
      </trkpt>
      <trkpt lat="48.56618" lon="6.4552">
        <ele>270</ele>
        <time>2017-06-26T09:14:08Z</time>
      </trkpt>
      <trkpt lat="48.56618" lon="6.45523">
        <ele>270</ele>
        <time>2017-06-26T09:14:09Z</time>
      </trkpt>
      <trkpt lat="48.56618" lon="6.45525">
        <ele>270</ele>
        <time>2017-06-26T09:14:10Z</time>
      </trkpt>
      <trkpt lat="48.56618" lon="6.45528">
        <ele>270</ele>
        <time>2017-06-26T09:14:11Z</time>
      </trkpt>
      <trkpt lat="48.56618" lon="6.4553">
        <ele>270</ele>
        <time>2017-06-26T09:14:12Z</time>
      </trkpt>
      <trkpt lat="48.56618" lon="6.45532">
        <ele>270</ele>
        <time>2017-06-26T09:14:13Z</time>
      </trkpt>
      <trkpt lat="48.56618" lon="6.45535">
        <ele>271</ele>
        <time>2017-06-26T09:14:14Z</time>
      </trkpt>
      <trkpt lat="48.56617" lon="6.45537">
        <ele>271</ele>
        <time>2017-06-26T09:14:15Z</time>
      </trkpt>
      <trkpt lat="48.56617" lon="6.45539">
        <ele>271</ele>
        <time>2017-06-26T09:14:16Z</time>
      </trkpt>
      <trkpt lat="48.56617" lon="6.45542">
        <ele>271</ele>
        <time>2017-06-26T09:14:17Z</time>
      </trkpt>
      <trkpt lat="48.56617" lon="6.45544">
        <ele>271</ele>
        <time>2017-06-26T09:14:18Z</time>
      </trkpt>
      <trkpt lat="48.56616" lon="6.45546">
        <ele>271</ele>
        <time>2017-06-26T09:14:19Z</time>
      </trkpt>
      <trkpt lat="48.56616" lon="6.45548">
        <ele>271</ele>
        <time>2017-06-26T09:14:20Z</time>
      </trkpt>
      <trkpt lat="48.56615" lon="6.45551">
        <ele>271</ele>
        <time>2017-06-26T09:14:21Z</time>
      </trkpt>
      <trkpt lat="48.56615" lon="6.45553">
        <ele>271</ele>
        <time>2017-06-26T09:14:22Z</time>
      </trkpt>
      <trkpt lat="48.56614" lon="6.45555">
        <ele>271</ele>
        <time>2017-06-26T09:14:23Z</time>
      </trkpt>
      <trkpt lat="48.56614" lon="6.45558">
        <ele>273</ele>
        <time>2017-06-26T09:14:24Z</time>
      </trkpt>
      <trkpt lat="48.56613" lon="6.4556">
        <ele>273</ele>
        <time>2017-06-26T09:14:25Z</time>
      </trkpt>
      <trkpt lat="48.56613" lon="6.45562">
        <ele>273</ele>
        <time>2017-06-26T09:14:26Z</time>
      </trkpt>
      <trkpt lat="48.56612" lon="6.45564">
        <ele>273</ele>
        <time>2017-06-26T09:14:27Z</time>
      </trkpt>
      <trkpt lat="48.56612" lon="6.45566">
        <ele>273</ele>
        <time>2017-06-26T09:14:28Z</time>
      </trkpt>
      <trkpt lat="48.56611" lon="6.45568">
        <ele>273</ele>
        <time>2017-06-26T09:14:29Z</time>
      </trkpt>
      <trkpt lat="48.56611" lon="6.4557">
        <ele>273</ele>
        <time>2017-06-26T09:14:30Z</time>
      </trkpt>
      <trkpt lat="48.5661" lon="6.45572">
        <ele>273</ele>
        <time>2017-06-26T09:14:31Z</time>
      </trkpt>
      <trkpt lat="48.5661" lon="6.45575">
        <ele>273</ele>
        <time>2017-06-26T09:14:32Z</time>
      </trkpt>
      <trkpt lat="48.56608" lon="6.45576">
        <ele>273</ele>
        <time>2017-06-26T09:14:33Z</time>
      </trkpt>
      <trkpt lat="48.56606" lon="6.45578">
        <ele>276</ele>
        <time>2017-06-26T09:14:34Z</time>
      </trkpt>
      <trkpt lat="48.56604" lon="6.45579">
        <ele>276</ele>
        <time>2017-06-26T09:14:35Z</time>
      </trkpt>
      <trkpt lat="48.56602" lon="6.4558">
        <ele>276</ele>
        <time>2017-06-26T09:14:36Z</time>
      </trkpt>
      <trkpt lat="48.566" lon="6.45582">
        <ele>276</ele>
        <time>2017-06-26T09:14:37Z</time>
      </trkpt>
      <trkpt lat="48.56597" lon="6.45582">
        <ele>276</ele>
        <time>2017-06-26T09:14:38Z</time>
      </trkpt>
      <trkpt lat="48.56595" lon="6.45581">
        <ele>276</ele>
        <time>2017-06-26T09:14:39Z</time>
      </trkpt>
      <trkpt lat="48.56593" lon="6.45581">
        <ele>276</ele>
        <time>2017-06-26T09:14:40Z</time>
      </trkpt>
      <trkpt lat="48.5659" lon="6.4558">
        <ele>276</ele>
        <time>2017-06-26T09:14:41Z</time>
      </trkpt>
      <trkpt lat="48.56588" lon="6.4558">
        <ele>276</ele>
        <time>2017-06-26T09:14:42Z</time>
      </trkpt>
      <trkpt lat="48.56587" lon="6.45581">
        <ele>276</ele>
        <time>2017-06-26T09:14:43Z</time>
      </trkpt>
      <trkpt lat="48.56586" lon="6.45582">
        <ele>277</ele>
        <time>2017-06-26T09:14:44Z</time>
      </trkpt>
      <trkpt lat="48.56585" lon="6.45583">
        <ele>277</ele>
        <time>2017-06-26T09:14:45Z</time>
      </trkpt>
      <trkpt lat="48.56584" lon="6.45584">
        <ele>277</ele>
        <time>2017-06-26T09:14:46Z</time>
      </trkpt>
      <trkpt lat="48.56583" lon="6.45585">
        <ele>277</ele>
        <time>2017-06-26T09:14:47Z</time>
      </trkpt>
      <trkpt lat="48.56582" lon="6.45587">
        <ele>277</ele>
        <time>2017-06-26T09:14:48Z</time>
      </trkpt>
      <trkpt lat="48.56582" lon="6.45588">
        <ele>277</ele>
        <time>2017-06-26T09:14:49Z</time>
      </trkpt>
      <trkpt lat="48.56581" lon="6.45589">
        <ele>277</ele>
        <time>2017-06-26T09:14:50Z</time>
      </trkpt>
      <trkpt lat="48.5658" lon="6.4559">
        <ele>277</ele>
        <time>2017-06-26T09:14:51Z</time>
      </trkpt>
      <trkpt lat="48.56579" lon="6.45593">
        <ele>277</ele>
        <time>2017-06-26T09:14:52Z</time>
      </trkpt>
      <trkpt lat="48.56579" lon="6.45595">
        <ele>277</ele>
        <time>2017-06-26T09:14:53Z</time>
      </trkpt>
      <trkpt lat="48.56578" lon="6.45598">
        <ele>278</ele>
        <time>2017-06-26T09:14:54Z</time>
      </trkpt>
      <trkpt lat="48.56578" lon="6.456">
        <ele>278</ele>
        <time>2017-06-26T09:14:55Z</time>
      </trkpt>
      <trkpt lat="48.56578" lon="6.45603">
        <ele>278</ele>
        <time>2017-06-26T09:14:56Z</time>
      </trkpt>
      <trkpt lat="48.56577" lon="6.45605">
        <ele>278</ele>
        <time>2017-06-26T09:14:57Z</time>
      </trkpt>
      <trkpt lat="48.56577" lon="6.45608">
        <ele>278</ele>
        <time>2017-06-26T09:14:58Z</time>
      </trkpt>
      <trkpt lat="48.56577" lon="6.4561">
        <ele>278</ele>
        <time>2017-06-26T09:14:59Z</time>
      </trkpt>
      <trkpt lat="48.56576" lon="6.45612">
        <ele>278</ele>
        <time>2017-06-26T09:15:00Z</time>
      </trkpt>
      <trkpt lat="48.56576" lon="6.45614">
        <ele>278</ele>
        <time>2017-06-26T09:15:01Z</time>
      </trkpt>
      <trkpt lat="48.56576" lon="6.45617">
        <ele>278</ele>
        <time>2017-06-26T09:15:02Z</time>
      </trkpt>
      <trkpt lat="48.56576" lon="6.45619">
        <ele>278</ele>
        <time>2017-06-26T09:15:03Z</time>
      </trkpt>
      <trkpt lat="48.56575" lon="6.45621">
        <ele>280</ele>
        <time>2017-06-26T09:15:04Z</time>
      </trkpt>
      <trkpt lat="48.56575" lon="6.45624">
        <ele>280</ele>
        <time>2017-06-26T09:15:05Z</time>
      </trkpt>
      <trkpt lat="48.56575" lon="6.45626">
        <ele>280</ele>
        <time>2017-06-26T09:15:06Z</time>
      </trkpt>
      <trkpt lat="48.56575" lon="6.45628">
        <ele>280</ele>
        <time>2017-06-26T09:15:07Z</time>
      </trkpt>
      <trkpt lat="48.56575" lon="6.45631">
        <ele>280</ele>
        <time>2017-06-26T09:15:08Z</time>
      </trkpt>
      <trkpt lat="48.56575" lon="6.45633">
        <ele>280</ele>
        <time>2017-06-26T09:15:09Z</time>
      </trkpt>
      <trkpt lat="48.56575" lon="6.45636">
        <ele>280</ele>
        <time>2017-06-26T09:15:10Z</time>
      </trkpt>
      <trkpt lat="48.56575" lon="6.45638">
        <ele>280</ele>
        <time>2017-06-26T09:15:11Z</time>
      </trkpt>
      <trkpt lat="48.56574" lon="6.4564">
        <ele>280</ele>
        <time>2017-06-26T09:15:12Z</time>
      </trkpt>
      <trkpt lat="48.56574" lon="6.45643">
        <ele>280</ele>
        <time>2017-06-26T09:15:13Z</time>
      </trkpt>
      <trkpt lat="48.56574" lon="6.45645">
        <ele>282</ele>
        <time>2017-06-26T09:15:14Z</time>
      </trkpt>
      <trkpt lat="48.56574" lon="6.45647">
        <ele>282</ele>
        <time>2017-06-26T09:15:15Z</time>
      </trkpt>
      <trkpt lat="48.56573" lon="6.4565">
        <ele>282</ele>
        <time>2017-06-26T09:15:16Z</time>
      </trkpt>
      <trkpt lat="48.56573" lon="6.45652">
        <ele>282</ele>
        <time>2017-06-26T09:15:17Z</time>
      </trkpt>
      <trkpt lat="48.56573" lon="6.45654">
        <ele>282</ele>
        <time>2017-06-26T09:15:18Z</time>
      </trkpt>
      <trkpt lat="48.56573" lon="6.45657">
        <ele>282</ele>
        <time>2017-06-26T09:15:19Z</time>
      </trkpt>
      <trkpt lat="48.56572" lon="6.45659">
        <ele>282</ele>
        <time>2017-06-26T09:15:20Z</time>
      </trkpt>
      <trkpt lat="48.56572" lon="6.45662">
        <ele>282</ele>
        <time>2017-06-26T09:15:21Z</time>
      </trkpt>
      <trkpt lat="48.56572" lon="6.45664">
        <ele>282</ele>
        <time>2017-06-26T09:15:22Z</time>
      </trkpt>
      <trkpt lat="48.56572" lon="6.45667">
        <ele>282</ele>
        <time>2017-06-26T09:15:23Z</time>
      </trkpt>
      <trkpt lat="48.56572" lon="6.45669">
        <ele>283</ele>
        <time>2017-06-26T09:15:24Z</time>
      </trkpt>
      <trkpt lat="48.56571" lon="6.45673">
        <ele>283</ele>
        <time>2017-06-26T09:15:25Z</time>
      </trkpt>
      <trkpt lat="48.56571" lon="6.45676">
        <ele>283</ele>
        <time>2017-06-26T09:15:26Z</time>
      </trkpt>
      <trkpt lat="48.5657" lon="6.45679">
        <ele>283</ele>
        <time>2017-06-26T09:15:27Z</time>
      </trkpt>
      <trkpt lat="48.5657" lon="6.45682">
        <ele>283</ele>
        <time>2017-06-26T09:15:28Z</time>
      </trkpt>
      <trkpt lat="48.56569" lon="6.45685">
        <ele>283</ele>
        <time>2017-06-26T09:15:29Z</time>
      </trkpt>
      <trkpt lat="48.56568" lon="6.45689">
        <ele>283</ele>
        <time>2017-06-26T09:15:30Z</time>
      </trkpt>
      <trkpt lat="48.56566" lon="6.45692">
        <ele>283</ele>
        <time>2017-06-26T09:15:31Z</time>
      </trkpt>
      <trkpt lat="48.56565" lon="6.45695">
        <ele>283</ele>
        <time>2017-06-26T09:15:32Z</time>
      </trkpt>
      <trkpt lat="48.56563" lon="6.45699">
        <ele>283</ele>
        <time>2017-06-26T09:15:33Z</time>
      </trkpt>
      <trkpt lat="48.56561" lon="6.45703">
        <ele>283</ele>
        <time>2017-06-26T09:15:34Z</time>
      </trkpt>
      <trkpt lat="48.5656" lon="6.45706">
        <ele>283</ele>
        <time>2017-06-26T09:15:35Z</time>
      </trkpt>
      <trkpt lat="48.56558" lon="6.4571">
        <ele>283</ele>
        <time>2017-06-26T09:15:36Z</time>
      </trkpt>
      <trkpt lat="48.56556" lon="6.45713">
        <ele>283</ele>
        <time>2017-06-26T09:15:37Z</time>
      </trkpt>
      <trkpt lat="48.56556" lon="6.45716">
        <ele>283</ele>
        <time>2017-06-26T09:15:38Z</time>
      </trkpt>
      <trkpt lat="48.56555" lon="6.45719">
        <ele>283</ele>
        <time>2017-06-26T09:15:39Z</time>
      </trkpt>
      <trkpt lat="48.56554" lon="6.45723">
        <ele>283</ele>
        <time>2017-06-26T09:15:40Z</time>
      </trkpt>
      <trkpt lat="48.56553" lon="6.45726">
        <ele>283</ele>
        <time>2017-06-26T09:15:41Z</time>
      </trkpt>
      <trkpt lat="48.56552" lon="6.45729">
        <ele>283</ele>
        <time>2017-06-26T09:15:42Z</time>
      </trkpt>
      <trkpt lat="48.56552" lon="6.45732">
        <ele>283</ele>
        <time>2017-06-26T09:15:43Z</time>
      </trkpt>
      <trkpt lat="48.56552" lon="6.45735">
        <ele>282</ele>
        <time>2017-06-26T09:15:44Z</time>
      </trkpt>
      <trkpt lat="48.56552" lon="6.45738">
        <ele>282</ele>
        <time>2017-06-26T09:15:45Z</time>
      </trkpt>
      <trkpt lat="48.56552" lon="6.45741">
        <ele>282</ele>
        <time>2017-06-26T09:15:46Z</time>
      </trkpt>
      <trkpt lat="48.56552" lon="6.45744">
        <ele>282</ele>
        <time>2017-06-26T09:15:47Z</time>
      </trkpt>
      <trkpt lat="48.5655" lon="6.45745">
        <ele>282</ele>
        <time>2017-06-26T09:15:48Z</time>
      </trkpt>
      <trkpt lat="48.56548" lon="6.45747">
        <ele>282</ele>
        <time>2017-06-26T09:15:49Z</time>
      </trkpt>
      <trkpt lat="48.56546" lon="6.45749">
        <ele>282</ele>
        <time>2017-06-26T09:15:50Z</time>
      </trkpt>
      <trkpt lat="48.56545" lon="6.45751">
        <ele>282</ele>
        <time>2017-06-26T09:15:51Z</time>
      </trkpt>
      <trkpt lat="48.56543" lon="6.45753">
        <ele>282</ele>
        <time>2017-06-26T09:15:52Z</time>
      </trkpt>
      <trkpt lat="48.5654" lon="6.45753">
        <ele>282</ele>
        <time>2017-06-26T09:15:53Z</time>
      </trkpt>
      <trkpt lat="48.56538" lon="6.45753">
        <ele>282</ele>
        <time>2017-06-26T09:15:54Z</time>
      </trkpt>
      <trkpt lat="48.56535" lon="6.45752">
        <ele>282</ele>
        <time>2017-06-26T09:15:55Z</time>
      </trkpt>
      <trkpt lat="48.56532" lon="6.45752">
        <ele>282</ele>
        <time>2017-06-26T09:15:56Z</time>
      </trkpt>
      <trkpt lat="48.5653" lon="6.45753">
        <ele>282</ele>
        <time>2017-06-26T09:15:57Z</time>
      </trkpt>
      <trkpt lat="48.56529" lon="6.45753">
        <ele>282</ele>
        <time>2017-06-26T09:15:58Z</time>
      </trkpt>
      <trkpt lat="48.56527" lon="6.45754">
        <ele>282</ele>
        <time>2017-06-26T09:15:59Z</time>
      </trkpt>
      <trkpt lat="48.56525" lon="6.45755">
        <ele>282</ele>
        <time>2017-06-26T09:16:00Z</time>
      </trkpt>
      <trkpt lat="48.56523" lon="6.45755">
        <ele>282</ele>
        <time>2017-06-26T09:16:01Z</time>
      </trkpt>
      <trkpt lat="48.56522" lon="6.45756">
        <ele>282</ele>
        <time>2017-06-26T09:16:02Z</time>
      </trkpt>
      <trkpt lat="48.56519" lon="6.45757">
        <ele>282</ele>
        <time>2017-06-26T09:16:03Z</time>
      </trkpt>
      <trkpt lat="48.56517" lon="6.45759">
        <ele>277</ele>
        <time>2017-06-26T09:16:04Z</time>
      </trkpt>
      <trkpt lat="48.56515" lon="6.4576">
        <ele>277</ele>
        <time>2017-06-26T09:16:05Z</time>
      </trkpt>
      <trkpt lat="48.56513" lon="6.45761">
        <ele>277</ele>
        <time>2017-06-26T09:16:06Z</time>
      </trkpt>
      <trkpt lat="48.56511" lon="6.45762">
        <ele>277</ele>
        <time>2017-06-26T09:16:07Z</time>
      </trkpt>
      <trkpt lat="48.56508" lon="6.45763">
        <ele>277</ele>
        <time>2017-06-26T09:16:08Z</time>
      </trkpt>
      <trkpt lat="48.56506" lon="6.45763">
        <ele>277</ele>
        <time>2017-06-26T09:16:09Z</time>
      </trkpt>
      <trkpt lat="48.56503" lon="6.45763">
        <ele>277</ele>
        <time>2017-06-26T09:16:10Z</time>
      </trkpt>
      <trkpt lat="48.56501" lon="6.45763">
        <ele>276</ele>
        <time>2017-06-26T09:16:11Z</time>
      </trkpt>
      <trkpt lat="48.56499" lon="6.45764">
        <ele>276</ele>
        <time>2017-06-26T09:16:12Z</time>
      </trkpt>
      <trkpt lat="48.56498" lon="6.45764">
        <ele>276</ele>
        <time>2017-06-26T09:16:13Z</time>
      </trkpt>
      <trkpt lat="48.56497" lon="6.45765">
        <ele>275</ele>
        <time>2017-06-26T09:16:14Z</time>
      </trkpt>
      <trkpt lat="48.56495" lon="6.45765">
        <ele>275</ele>
        <time>2017-06-26T09:16:15Z</time>
      </trkpt>
      <trkpt lat="48.56494" lon="6.45766">
        <ele>275</ele>
        <time>2017-06-26T09:16:16Z</time>
      </trkpt>
      <trkpt lat="48.56493" lon="6.45766">
        <ele>275</ele>
        <time>2017-06-26T09:16:17Z</time>
      </trkpt>
      <trkpt lat="48.56492" lon="6.45767">
        <ele>275</ele>
        <time>2017-06-26T09:16:18Z</time>
      </trkpt>
      <trkpt lat="48.5649" lon="6.45767">
        <ele>275</ele>
        <time>2017-06-26T09:16:19Z</time>
      </trkpt>
      <trkpt lat="48.56488" lon="6.45768">
        <ele>275</ele>
        <time>2017-06-26T09:16:20Z</time>
      </trkpt>
      <trkpt lat="48.56486" lon="6.45768">
        <ele>275</ele>
        <time>2017-06-26T09:16:21Z</time>
      </trkpt>
      <trkpt lat="48.56485" lon="6.45769">
        <ele>275</ele>
        <time>2017-06-26T09:16:22Z</time>
      </trkpt>
      <trkpt lat="48.56483" lon="6.45769">
        <ele>275</ele>
        <time>2017-06-26T09:16:23Z</time>
      </trkpt>
      <trkpt lat="48.56481" lon="6.4577">
        <ele>272</ele>
        <time>2017-06-26T09:16:24Z</time>
      </trkpt>
      <trkpt lat="48.56478" lon="6.4577">
        <ele>272</ele>
        <time>2017-06-26T09:16:25Z</time>
      </trkpt>
      <trkpt lat="48.56476" lon="6.4577">
        <ele>272</ele>
        <time>2017-06-26T09:16:26Z</time>
      </trkpt>
      <trkpt lat="48.56473" lon="6.4577">
        <ele>272</ele>
        <time>2017-06-26T09:16:27Z</time>
      </trkpt>
      <trkpt lat="48.56471" lon="6.4577">
        <ele>272</ele>
        <time>2017-06-26T09:16:28Z</time>
      </trkpt>
      <trkpt lat="48.56468" lon="6.4577">
        <ele>270</ele>
        <time>2017-06-26T09:16:29Z</time>
      </trkpt>
      <trkpt lat="48.56466" lon="6.45769">
        <ele>270</ele>
        <time>2017-06-26T09:16:30Z</time>
      </trkpt>
      <trkpt lat="48.56464" lon="6.45768">
        <ele>270</ele>
        <time>2017-06-26T09:16:31Z</time>
      </trkpt>
      <trkpt lat="48.56461" lon="6.45767">
        <ele>270</ele>
        <time>2017-06-26T09:16:32Z</time>
      </trkpt>
      <trkpt lat="48.56459" lon="6.45767">
        <ele>270</ele>
        <time>2017-06-26T09:16:33Z</time>
      </trkpt>
      <trkpt lat="48.56457" lon="6.45766">
        <ele>268</ele>
        <time>2017-06-26T09:16:34Z</time>
      </trkpt>
      <trkpt lat="48.56456" lon="6.45766">
        <ele>268</ele>
        <time>2017-06-26T09:16:35Z</time>
      </trkpt>
      <trkpt lat="48.56455" lon="6.45767">
        <ele>268</ele>
        <time>2017-06-26T09:16:36Z</time>
      </trkpt>
      <trkpt lat="48.56455" lon="6.45768">
        <ele>268</ele>
        <time>2017-06-26T09:16:37Z</time>
      </trkpt>
      <trkpt lat="48.56454" lon="6.45768">
        <ele>268</ele>
        <time>2017-06-26T09:16:38Z</time>
      </trkpt>
      <trkpt lat="48.56453" lon="6.45769">
        <ele>265</ele>
        <time>2017-06-26T09:16:39Z</time>
      </trkpt>
      <trkpt lat="48.56452" lon="6.4577">
        <ele>265</ele>
        <time>2017-06-26T09:16:40Z</time>
      </trkpt>
      <trkpt lat="48.56451" lon="6.45771">
        <ele>265</ele>
        <time>2017-06-26T09:16:42Z</time>
      </trkpt>
      <trkpt lat="48.5645" lon="6.45772">
        <ele>265</ele>
        <time>2017-06-26T09:16:43Z</time>
      </trkpt>
      <trkpt lat="48.56449" lon="6.45772">
        <ele>262</ele>
        <time>2017-06-26T09:16:44Z</time>
      </trkpt>
      <trkpt lat="48.56449" lon="6.45773">
        <ele>260</ele>
        <time>2017-06-26T09:16:45Z</time>
      </trkpt>
      <trkpt lat="48.56448" lon="6.45773">
        <ele>260</ele>
        <time>2017-06-26T09:16:46Z</time>
      </trkpt>
      <trkpt lat="48.56446" lon="6.45776">
        <ele>259</ele>
        <time>2017-06-26T09:16:47Z</time>
      </trkpt>
      <trkpt lat="48.56445" lon="6.45779">
        <ele>258</ele>
        <time>2017-06-26T09:16:48Z</time>
      </trkpt>
      <trkpt lat="48.56443" lon="6.45781">
        <ele>258</ele>
        <time>2017-06-26T09:16:49Z</time>
      </trkpt>
      <trkpt lat="48.56442" lon="6.45784">
        <ele>258</ele>
        <time>2017-06-26T09:16:50Z</time>
      </trkpt>
      <trkpt lat="48.5644" lon="6.45786">
        <ele>257</ele>
        <time>2017-06-26T09:16:51Z</time>
      </trkpt>
      <trkpt lat="48.56439" lon="6.45789">
        <ele>256</ele>
        <time>2017-06-26T09:16:52Z</time>
      </trkpt>
      <trkpt lat="48.56438" lon="6.45791">
        <ele>255</ele>
        <time>2017-06-26T09:16:53Z</time>
      </trkpt>
      <trkpt lat="48.56437" lon="6.45794">
        <ele>254</ele>
        <time>2017-06-26T09:16:54Z</time>
      </trkpt>
      <trkpt lat="48.56436" lon="6.45796">
        <ele>254</ele>
        <time>2017-06-26T09:16:55Z</time>
      </trkpt>
      <trkpt lat="48.56434" lon="6.45799">
        <ele>254</ele>
        <time>2017-06-26T09:16:56Z</time>
      </trkpt>
      <trkpt lat="48.56432" lon="6.45801">
        <ele>254</ele>
        <time>2017-06-26T09:16:57Z</time>
      </trkpt>
      <trkpt lat="48.56429" lon="6.45802">
        <ele>253</ele>
        <time>2017-06-26T09:16:58Z</time>
      </trkpt>
      <trkpt lat="48.56427" lon="6.45804">
        <ele>252</ele>
        <time>2017-06-26T09:16:59Z</time>
      </trkpt>
      <trkpt lat="48.56424" lon="6.45806">
        <ele>252</ele>
        <time>2017-06-26T09:17:00Z</time>
      </trkpt>
      <trkpt lat="48.56422" lon="6.45808">
        <ele>252</ele>
        <time>2017-06-26T09:17:01Z</time>
      </trkpt>
      <trkpt lat="48.56421" lon="6.4581">
        <ele>252</ele>
        <time>2017-06-26T09:17:02Z</time>
      </trkpt>
      <trkpt lat="48.56419" lon="6.45812">
        <ele>251</ele>
        <time>2017-06-26T09:17:03Z</time>
      </trkpt>
      <trkpt lat="48.56417" lon="6.45814">
        <ele>250</ele>
        <time>2017-06-26T09:17:04Z</time>
      </trkpt>
      <trkpt lat="48.56415" lon="6.45816">
        <ele>250</ele>
        <time>2017-06-26T09:17:05Z</time>
      </trkpt>
      <trkpt lat="48.56414" lon="6.45819">
        <ele>250</ele>
        <time>2017-06-26T09:17:06Z</time>
      </trkpt>
      <trkpt lat="48.56412" lon="6.45822">
        <ele>250</ele>
        <time>2017-06-26T09:17:07Z</time>
      </trkpt>
      <trkpt lat="48.5641" lon="6.45824">
        <ele>250</ele>
        <time>2017-06-26T09:17:08Z</time>
      </trkpt>
      <trkpt lat="48.56409" lon="6.45827">
        <ele>249</ele>
        <time>2017-06-26T09:17:09Z</time>
      </trkpt>
      <trkpt lat="48.56407" lon="6.45829">
        <ele>249</ele>
        <time>2017-06-26T09:17:10Z</time>
      </trkpt>
      <trkpt lat="48.56403" lon="6.45832">
        <ele>249</ele>
        <time>2017-06-26T09:17:11Z</time>
      </trkpt>
      <trkpt lat="48.56399" lon="6.45834">
        <ele>249</ele>
        <time>2017-06-26T09:17:12Z</time>
      </trkpt>
      <trkpt lat="48.56395" lon="6.45836">
        <ele>249</ele>
        <time>2017-06-26T09:17:13Z</time>
      </trkpt>
      <trkpt lat="48.56392" lon="6.45835">
        <ele>248</ele>
        <time>2017-06-26T09:17:14Z</time>
      </trkpt>
      <trkpt lat="48.56388" lon="6.45833">
        <ele>248</ele>
        <time>2017-06-26T09:17:15Z</time>
      </trkpt>
      <trkpt lat="48.56385" lon="6.45832">
        <ele>248</ele>
        <time>2017-06-26T09:17:16Z</time>
      </trkpt>
      <trkpt lat="48.56383" lon="6.45829">
        <ele>248</ele>
        <time>2017-06-26T09:17:17Z</time>
      </trkpt>
      <trkpt lat="48.56381" lon="6.45826">
        <ele>248</ele>
        <time>2017-06-26T09:17:18Z</time>
      </trkpt>
      <trkpt lat="48.5638" lon="6.45823">
        <ele>248</ele>
        <time>2017-06-26T09:17:19Z</time>
      </trkpt>
      <trkpt lat="48.56378" lon="6.4582">
        <ele>248</ele>
        <time>2017-06-26T09:17:20Z</time>
      </trkpt>
      <trkpt lat="48.56377" lon="6.45817">
        <ele>248</ele>
        <time>2017-06-26T09:17:21Z</time>
      </trkpt>
      <trkpt lat="48.56376" lon="6.45814">
        <ele>248</ele>
        <time>2017-06-26T09:17:22Z</time>
      </trkpt>
      <trkpt lat="48.56375" lon="6.45811">
        <ele>248</ele>
        <time>2017-06-26T09:17:23Z</time>
      </trkpt>
      <trkpt lat="48.56374" lon="6.45808">
        <ele>248</ele>
        <time>2017-06-26T09:17:24Z</time>
      </trkpt>
      <trkpt lat="48.56373" lon="6.45805">
        <ele>248</ele>
        <time>2017-06-26T09:17:25Z</time>
      </trkpt>
      <trkpt lat="48.56373" lon="6.45802">
        <ele>248</ele>
        <time>2017-06-26T09:17:26Z</time>
      </trkpt>
      <trkpt lat="48.56372" lon="6.45799">
        <ele>248</ele>
        <time>2017-06-26T09:17:27Z</time>
      </trkpt>
      <trkpt lat="48.56372" lon="6.45796">
        <ele>248</ele>
        <time>2017-06-26T09:17:28Z</time>
      </trkpt>
      <trkpt lat="48.56371" lon="6.45793">
        <ele>248</ele>
        <time>2017-06-26T09:17:29Z</time>
      </trkpt>
      <trkpt lat="48.5637" lon="6.45789">
        <ele>248</ele>
        <time>2017-06-26T09:17:30Z</time>
      </trkpt>
      <trkpt lat="48.5637" lon="6.45786">
        <ele>248</ele>
        <time>2017-06-26T09:17:31Z</time>
      </trkpt>
      <trkpt lat="48.56369" lon="6.45782">
        <ele>248</ele>
        <time>2017-06-26T09:17:32Z</time>
      </trkpt>
      <trkpt lat="48.56368" lon="6.45779">
        <ele>248</ele>
        <time>2017-06-26T09:17:33Z</time>
      </trkpt>
      <trkpt lat="48.56367" lon="6.45775">
        <ele>250</ele>
        <time>2017-06-26T09:17:34Z</time>
      </trkpt>
      <trkpt lat="48.56367" lon="6.45772">
        <ele>250</ele>
        <time>2017-06-26T09:17:35Z</time>
      </trkpt>
      <trkpt lat="48.56366" lon="6.45769">
        <ele>250</ele>
        <time>2017-06-26T09:17:36Z</time>
      </trkpt>
      <trkpt lat="48.56366" lon="6.45765">
        <ele>250</ele>
        <time>2017-06-26T09:17:37Z</time>
      </trkpt>
      <trkpt lat="48.56366" lon="6.45762">
        <ele>250</ele>
        <time>2017-06-26T09:17:38Z</time>
      </trkpt>
      <trkpt lat="48.56365" lon="6.45759">
        <ele>250</ele>
        <time>2017-06-26T09:17:39Z</time>
      </trkpt>
      <trkpt lat="48.56365" lon="6.45755">
        <ele>250</ele>
        <time>2017-06-26T09:17:40Z</time>
      </trkpt>
      <trkpt lat="48.56364" lon="6.45752">
        <ele>250</ele>
        <time>2017-06-26T09:17:41Z</time>
      </trkpt>
      <trkpt lat="48.56364" lon="6.45749">
        <ele>250</ele>
        <time>2017-06-26T09:17:42Z</time>
      </trkpt>
      <trkpt lat="48.56363" lon="6.45746">
        <ele>250</ele>
        <time>2017-06-26T09:17:43Z</time>
      </trkpt>
      <trkpt lat="48.56362" lon="6.45743">
        <ele>252</ele>
        <time>2017-06-26T09:17:44Z</time>
      </trkpt>
      <trkpt lat="48.56362" lon="6.4574">
        <ele>252</ele>
        <time>2017-06-26T09:17:45Z</time>
      </trkpt>
      <trkpt lat="48.56361" lon="6.45737">
        <ele>252</ele>
        <time>2017-06-26T09:17:46Z</time>
      </trkpt>
      <trkpt lat="48.56361" lon="6.45734">
        <ele>252</ele>
        <time>2017-06-26T09:17:47Z</time>
      </trkpt>
      <trkpt lat="48.5636" lon="6.4573">
        <ele>252</ele>
        <time>2017-06-26T09:17:48Z</time>
      </trkpt>
      <trkpt lat="48.5636" lon="6.45727">
        <ele>252</ele>
        <time>2017-06-26T09:17:49Z</time>
      </trkpt>
      <trkpt lat="48.56359" lon="6.45724">
        <ele>252</ele>
        <time>2017-06-26T09:17:50Z</time>
      </trkpt>
      <trkpt lat="48.56358" lon="6.45721">
        <ele>252</ele>
        <time>2017-06-26T09:17:51Z</time>
      </trkpt>
      <trkpt lat="48.56357" lon="6.45718">
        <ele>252</ele>
        <time>2017-06-26T09:17:52Z</time>
      </trkpt>
      <trkpt lat="48.56357" lon="6.45715">
        <ele>252</ele>
        <time>2017-06-26T09:17:53Z</time>
      </trkpt>
      <trkpt lat="48.56356" lon="6.45712">
        <ele>253</ele>
        <time>2017-06-26T09:17:54Z</time>
      </trkpt>
      <trkpt lat="48.56355" lon="6.45709">
        <ele>253</ele>
        <time>2017-06-26T09:17:55Z</time>
      </trkpt>
      <trkpt lat="48.56354" lon="6.45707">
        <ele>253</ele>
        <time>2017-06-26T09:17:56Z</time>
      </trkpt>
      <trkpt lat="48.56353" lon="6.45704">
        <ele>253</ele>
        <time>2017-06-26T09:17:57Z</time>
      </trkpt>
      <trkpt lat="48.56353" lon="6.45701">
        <ele>253</ele>
        <time>2017-06-26T09:17:58Z</time>
      </trkpt>
      <trkpt lat="48.56352" lon="6.45699">
        <ele>253</ele>
        <time>2017-06-26T09:17:59Z</time>
      </trkpt>
      <trkpt lat="48.56351" lon="6.45696">
        <ele>253</ele>
        <time>2017-06-26T09:18:00Z</time>
      </trkpt>
      <trkpt lat="48.5635" lon="6.45694">
        <ele>253</ele>
        <time>2017-06-26T09:18:01Z</time>
      </trkpt>
      <trkpt lat="48.5635" lon="6.45691">
        <ele>253</ele>
        <time>2017-06-26T09:18:02Z</time>
      </trkpt>
      <trkpt lat="48.56349" lon="6.45688">
        <ele>253</ele>
        <time>2017-06-26T09:18:03Z</time>
      </trkpt>
      <trkpt lat="48.56349" lon="6.45686">
        <ele>255</ele>
        <time>2017-06-26T09:18:04Z</time>
      </trkpt>
      <trkpt lat="48.56348" lon="6.45683">
        <ele>255</ele>
        <time>2017-06-26T09:18:05Z</time>
      </trkpt>
      <trkpt lat="48.56348" lon="6.45681">
        <ele>255</ele>
        <time>2017-06-26T09:18:06Z</time>
      </trkpt>
      <trkpt lat="48.56347" lon="6.45678">
        <ele>255</ele>
        <time>2017-06-26T09:18:07Z</time>
      </trkpt>
      <trkpt lat="48.56347" lon="6.45675">
        <ele>255</ele>
        <time>2017-06-26T09:18:08Z</time>
      </trkpt>
      <trkpt lat="48.56347" lon="6.45673">
        <ele>255</ele>
        <time>2017-06-26T09:18:09Z</time>
      </trkpt>
      <trkpt lat="48.56346" lon="6.4567">
        <ele>255</ele>
        <time>2017-06-26T09:18:10Z</time>
      </trkpt>
      <trkpt lat="48.56346" lon="6.45667">
        <ele>255</ele>
        <time>2017-06-26T09:18:11Z</time>
      </trkpt>
      <trkpt lat="48.56345" lon="6.45665">
        <ele>255</ele>
        <time>2017-06-26T09:18:12Z</time>
      </trkpt>
      <trkpt lat="48.56345" lon="6.45662">
        <ele>255</ele>
        <time>2017-06-26T09:18:13Z</time>
      </trkpt>
      <trkpt lat="48.56344" lon="6.45659">
        <ele>255</ele>
        <time>2017-06-26T09:18:14Z</time>
      </trkpt>
      <trkpt lat="48.56344" lon="6.45657">
        <ele>255</ele>
        <time>2017-06-26T09:18:15Z</time>
      </trkpt>
      <trkpt lat="48.56343" lon="6.45654">
        <ele>255</ele>
        <time>2017-06-26T09:18:16Z</time>
      </trkpt>
      <trkpt lat="48.56342" lon="6.45651">
        <ele>255</ele>
        <time>2017-06-26T09:18:17Z</time>
      </trkpt>
      <trkpt lat="48.56341" lon="6.45649">
        <ele>255</ele>
        <time>2017-06-26T09:18:18Z</time>
      </trkpt>
      <trkpt lat="48.56341" lon="6.45646">
        <ele>255</ele>
        <time>2017-06-26T09:18:19Z</time>
      </trkpt>
      <trkpt lat="48.5634" lon="6.45643">
        <ele>255</ele>
        <time>2017-06-26T09:18:20Z</time>
      </trkpt>
      <trkpt lat="48.5634" lon="6.4564">
        <ele>255</ele>
        <time>2017-06-26T09:18:21Z</time>
      </trkpt>
      <trkpt lat="48.56339" lon="6.45637">
        <ele>255</ele>
        <time>2017-06-26T09:18:22Z</time>
      </trkpt>
      <trkpt lat="48.56338" lon="6.45634">
        <ele>255</ele>
        <time>2017-06-26T09:18:23Z</time>
      </trkpt>
      <trkpt lat="48.56338" lon="6.45631">
        <ele>257</ele>
        <time>2017-06-26T09:18:24Z</time>
      </trkpt>
      <trkpt lat="48.56337" lon="6.45629">
        <ele>257</ele>
        <time>2017-06-26T09:18:25Z</time>
      </trkpt>
      <trkpt lat="48.56337" lon="6.45626">
        <ele>257</ele>
        <time>2017-06-26T09:18:26Z</time>
      </trkpt>
      <trkpt lat="48.56336" lon="6.45624">
        <ele>257</ele>
        <time>2017-06-26T09:18:27Z</time>
      </trkpt>
      <trkpt lat="48.56335" lon="6.45622">
        <ele>257</ele>
        <time>2017-06-26T09:18:28Z</time>
      </trkpt>
      <trkpt lat="48.56335" lon="6.45619">
        <ele>257</ele>
        <time>2017-06-26T09:18:29Z</time>
      </trkpt>
      <trkpt lat="48.56334" lon="6.45617">
        <ele>257</ele>
        <time>2017-06-26T09:18:30Z</time>
      </trkpt>
      <trkpt lat="48.56334" lon="6.45614">
        <ele>257</ele>
        <time>2017-06-26T09:18:31Z</time>
      </trkpt>
      <trkpt lat="48.56333" lon="6.45611">
        <ele>257</ele>
        <time>2017-06-26T09:18:32Z</time>
      </trkpt>
      <trkpt lat="48.56333" lon="6.45609">
        <ele>257</ele>
        <time>2017-06-26T09:18:33Z</time>
      </trkpt>
      <trkpt lat="48.56332" lon="6.45606">
        <ele>257</ele>
        <time>2017-06-26T09:18:34Z</time>
      </trkpt>
      <trkpt lat="48.56332" lon="6.45603">
        <ele>259</ele>
        <time>2017-06-26T09:18:35Z</time>
      </trkpt>
      <trkpt lat="48.56331" lon="6.45601">
        <ele>259</ele>
        <time>2017-06-26T09:18:36Z</time>
      </trkpt>
      <trkpt lat="48.56331" lon="6.45598">
        <ele>259</ele>
        <time>2017-06-26T09:18:37Z</time>
      </trkpt>
      <trkpt lat="48.5633" lon="6.45596">
        <ele>259</ele>
        <time>2017-06-26T09:18:38Z</time>
      </trkpt>
      <trkpt lat="48.5633" lon="6.45593">
        <ele>259</ele>
        <time>2017-06-26T09:18:39Z</time>
      </trkpt>
      <trkpt lat="48.56329" lon="6.45591">
        <ele>260</ele>
        <time>2017-06-26T09:18:40Z</time>
      </trkpt>
      <trkpt lat="48.56328" lon="6.45589">
        <ele>260</ele>
        <time>2017-06-26T09:18:41Z</time>
      </trkpt>
      <trkpt lat="48.56328" lon="6.45586">
        <ele>260</ele>
        <time>2017-06-26T09:18:42Z</time>
      </trkpt>
      <trkpt lat="48.56327" lon="6.45584">
        <ele>260</ele>
        <time>2017-06-26T09:18:43Z</time>
      </trkpt>
      <trkpt lat="48.56327" lon="6.45581">
        <ele>260</ele>
        <time>2017-06-26T09:18:44Z</time>
      </trkpt>
      <trkpt lat="48.56327" lon="6.45578">
        <ele>261</ele>
        <time>2017-06-26T09:18:45Z</time>
      </trkpt>
      <trkpt lat="48.56326" lon="6.45576">
        <ele>261</ele>
        <time>2017-06-26T09:18:46Z</time>
      </trkpt>
      <trkpt lat="48.56326" lon="6.45573">
        <ele>261</ele>
        <time>2017-06-26T09:18:47Z</time>
      </trkpt>
      <trkpt lat="48.56325" lon="6.4557">
        <ele>261</ele>
        <time>2017-06-26T09:18:48Z</time>
      </trkpt>
      <trkpt lat="48.56325" lon="6.45568">
        <ele>261</ele>
        <time>2017-06-26T09:18:49Z</time>
      </trkpt>
      <trkpt lat="48.56324" lon="6.45565">
        <ele>261</ele>
        <time>2017-06-26T09:18:50Z</time>
      </trkpt>
      <trkpt lat="48.56324" lon="6.45562">
        <ele>261</ele>
        <time>2017-06-26T09:18:51Z</time>
      </trkpt>
      <trkpt lat="48.56324" lon="6.4556">
        <ele>261</ele>
        <time>2017-06-26T09:18:52Z</time>
      </trkpt>
      <trkpt lat="48.56323" lon="6.45557">
        <ele>261</ele>
        <time>2017-06-26T09:18:53Z</time>
      </trkpt>
      <trkpt lat="48.56323" lon="6.45554">
        <ele>261</ele>
        <time>2017-06-26T09:18:54Z</time>
      </trkpt>
      <trkpt lat="48.56323" lon="6.45551">
        <ele>263</ele>
        <time>2017-06-26T09:18:55Z</time>
      </trkpt>
      <trkpt lat="48.56323" lon="6.45548">
        <ele>263</ele>
        <time>2017-06-26T09:18:56Z</time>
      </trkpt>
      <trkpt lat="48.56323" lon="6.45545">
        <ele>263</ele>
        <time>2017-06-26T09:18:57Z</time>
      </trkpt>
      <trkpt lat="48.56323" lon="6.45542">
        <ele>263</ele>
        <time>2017-06-26T09:18:58Z</time>
      </trkpt>
      <trkpt lat="48.56323" lon="6.45539">
        <ele>263</ele>
        <time>2017-06-26T09:18:59Z</time>
      </trkpt>
      <trkpt lat="48.56323" lon="6.45536">
        <ele>263</ele>
        <time>2017-06-26T09:19:00Z</time>
      </trkpt>
      <trkpt lat="48.56323" lon="6.45534">
        <ele>263</ele>
        <time>2017-06-26T09:19:01Z</time>
      </trkpt>
      <trkpt lat="48.56322" lon="6.45532">
        <ele>263</ele>
        <time>2017-06-26T09:19:02Z</time>
      </trkpt>
      <trkpt lat="48.56322" lon="6.45529">
        <ele>263</ele>
        <time>2017-06-26T09:19:03Z</time>
      </trkpt>
      <trkpt lat="48.56321" lon="6.45527">
        <ele>263</ele>
        <time>2017-06-26T09:19:04Z</time>
      </trkpt>
      <trkpt lat="48.56321" lon="6.45524">
        <ele>264</ele>
        <time>2017-06-26T09:19:05Z</time>
      </trkpt>
      <trkpt lat="48.5632" lon="6.45522">
        <ele>264</ele>
        <time>2017-06-26T09:19:06Z</time>
      </trkpt>
      <trkpt lat="48.56319" lon="6.45519">
        <ele>264</ele>
        <time>2017-06-26T09:19:07Z</time>
      </trkpt>
      <trkpt lat="48.56319" lon="6.45517">
        <ele>264</ele>
        <time>2017-06-26T09:19:08Z</time>
      </trkpt>
      <trkpt lat="48.56318" lon="6.45515">
        <ele>264</ele>
        <time>2017-06-26T09:19:09Z</time>
      </trkpt>
      <trkpt lat="48.56317" lon="6.45513">
        <ele>264</ele>
        <time>2017-06-26T09:19:10Z</time>
      </trkpt>
      <trkpt lat="48.56317" lon="6.45511">
        <ele>264</ele>
        <time>2017-06-26T09:19:11Z</time>
      </trkpt>
      <trkpt lat="48.56316" lon="6.45508">
        <ele>264</ele>
        <time>2017-06-26T09:19:12Z</time>
      </trkpt>
      <trkpt lat="48.56316" lon="6.45505">
        <ele>264</ele>
        <time>2017-06-26T09:19:13Z</time>
      </trkpt>
      <trkpt lat="48.56316" lon="6.45502">
        <ele>264</ele>
        <time>2017-06-26T09:19:14Z</time>
      </trkpt>
      <trkpt lat="48.56315" lon="6.45499">
        <ele>266</ele>
        <time>2017-06-26T09:19:15Z</time>
      </trkpt>
      <trkpt lat="48.56315" lon="6.45496">
        <ele>266</ele>
        <time>2017-06-26T09:19:16Z</time>
      </trkpt>
      <trkpt lat="48.56315" lon="6.45493">
        <ele>266</ele>
        <time>2017-06-26T09:19:17Z</time>
      </trkpt>
      <trkpt lat="48.56314" lon="6.45491">
        <ele>266</ele>
        <time>2017-06-26T09:19:18Z</time>
      </trkpt>
      <trkpt lat="48.56314" lon="6.45488">
        <ele>266</ele>
        <time>2017-06-26T09:19:19Z</time>
      </trkpt>
      <trkpt lat="48.56313" lon="6.45485">
        <ele>266</ele>
        <time>2017-06-26T09:19:20Z</time>
      </trkpt>
      <trkpt lat="48.56312" lon="6.45483">
        <ele>266</ele>
        <time>2017-06-26T09:19:21Z</time>
      </trkpt>
      <trkpt lat="48.56312" lon="6.4548">
        <ele>266</ele>
        <time>2017-06-26T09:19:22Z</time>
      </trkpt>
      <trkpt lat="48.56311" lon="6.45478">
        <ele>266</ele>
        <time>2017-06-26T09:19:23Z</time>
      </trkpt>
      <trkpt lat="48.56311" lon="6.45475">
        <ele>266</ele>
        <time>2017-06-26T09:19:24Z</time>
      </trkpt>
      <trkpt lat="48.5631" lon="6.45472">
        <ele>268</ele>
        <time>2017-06-26T09:19:25Z</time>
      </trkpt>
      <trkpt lat="48.5631" lon="6.45469">
        <ele>268</ele>
        <time>2017-06-26T09:19:26Z</time>
      </trkpt>
      <trkpt lat="48.56309" lon="6.45466">
        <ele>268</ele>
        <time>2017-06-26T09:19:27Z</time>
      </trkpt>
      <trkpt lat="48.56309" lon="6.45463">
        <ele>268</ele>
        <time>2017-06-26T09:19:28Z</time>
      </trkpt>
      <trkpt lat="48.56308" lon="6.4546">
        <ele>268</ele>
        <time>2017-06-26T09:19:29Z</time>
      </trkpt>
      <trkpt lat="48.56308" lon="6.45458">
        <ele>268</ele>
        <time>2017-06-26T09:19:30Z</time>
      </trkpt>
      <trkpt lat="48.56307" lon="6.45455">
        <ele>268</ele>
        <time>2017-06-26T09:19:31Z</time>
      </trkpt>
      <trkpt lat="48.56307" lon="6.45452">
        <ele>268</ele>
        <time>2017-06-26T09:19:32Z</time>
      </trkpt>
      <trkpt lat="48.56306" lon="6.4545">
        <ele>268</ele>
        <time>2017-06-26T09:19:33Z</time>
      </trkpt>
      <trkpt lat="48.56305" lon="6.45447">
        <ele>268</ele>
        <time>2017-06-26T09:19:34Z</time>
      </trkpt>
      <trkpt lat="48.56305" lon="6.45444">
        <ele>270</ele>
        <time>2017-06-26T09:19:35Z</time>
      </trkpt>
      <trkpt lat="48.56304" lon="6.45441">
        <ele>270</ele>
        <time>2017-06-26T09:19:36Z</time>
      </trkpt>
      <trkpt lat="48.56304" lon="6.45438">
        <ele>270</ele>
        <time>2017-06-26T09:19:37Z</time>
      </trkpt>
      <trkpt lat="48.56303" lon="6.45435">
        <ele>270</ele>
        <time>2017-06-26T09:19:38Z</time>
      </trkpt>
      <trkpt lat="48.56303" lon="6.45432">
        <ele>270</ele>
        <time>2017-06-26T09:19:39Z</time>
      </trkpt>
      <trkpt lat="48.56303" lon="6.45429">
        <ele>270</ele>
        <time>2017-06-26T09:19:40Z</time>
      </trkpt>
      <trkpt lat="48.56302" lon="6.45426">
        <ele>270</ele>
        <time>2017-06-26T09:19:41Z</time>
      </trkpt>
      <trkpt lat="48.56302" lon="6.45423">
        <ele>270</ele>
        <time>2017-06-26T09:19:42Z</time>
      </trkpt>
      <trkpt lat="48.56302" lon="6.4542">
        <ele>270</ele>
        <time>2017-06-26T09:19:43Z</time>
      </trkpt>
      <trkpt lat="48.56302" lon="6.45417">
        <ele>270</ele>
        <time>2017-06-26T09:19:44Z</time>
      </trkpt>
      <trkpt lat="48.56301" lon="6.45415">
        <ele>270</ele>
        <time>2017-06-26T09:19:45Z</time>
      </trkpt>
      <trkpt lat="48.56301" lon="6.45412">
        <ele>270</ele>
        <time>2017-06-26T09:19:46Z</time>
      </trkpt>
      <trkpt lat="48.563" lon="6.45409">
        <ele>270</ele>
        <time>2017-06-26T09:19:47Z</time>
      </trkpt>
      <trkpt lat="48.563" lon="6.45406">
        <ele>270</ele>
        <time>2017-06-26T09:19:48Z</time>
      </trkpt>
      <trkpt lat="48.563" lon="6.45403">
        <ele>270</ele>
        <time>2017-06-26T09:19:49Z</time>
      </trkpt>
      <trkpt lat="48.56299" lon="6.454">
        <ele>270</ele>
        <time>2017-06-26T09:19:50Z</time>
      </trkpt>
      <trkpt lat="48.56299" lon="6.45397">
        <ele>270</ele>
        <time>2017-06-26T09:19:51Z</time>
      </trkpt>
      <trkpt lat="48.56299" lon="6.45394">
        <ele>270</ele>
        <time>2017-06-26T09:19:52Z</time>
      </trkpt>
      <trkpt lat="48.56298" lon="6.45391">
        <ele>270</ele>
        <time>2017-06-26T09:19:53Z</time>
      </trkpt>
      <trkpt lat="48.56298" lon="6.45388">
        <ele>270</ele>
        <time>2017-06-26T09:19:54Z</time>
      </trkpt>
      <trkpt lat="48.56298" lon="6.45386">
        <ele>271</ele>
        <time>2017-06-26T09:19:55Z</time>
      </trkpt>
      <trkpt lat="48.56297" lon="6.45382">
        <ele>271</ele>
        <time>2017-06-26T09:19:56Z</time>
      </trkpt>
      <trkpt lat="48.56297" lon="6.45379">
        <ele>271</ele>
        <time>2017-06-26T09:19:57Z</time>
      </trkpt>
      <trkpt lat="48.56297" lon="6.45375">
        <ele>271</ele>
        <time>2017-06-26T09:19:58Z</time>
      </trkpt>
      <trkpt lat="48.56297" lon="6.45372">
        <ele>271</ele>
        <time>2017-06-26T09:19:59Z</time>
      </trkpt>
      <trkpt lat="48.56296" lon="6.45369">
        <ele>271</ele>
        <time>2017-06-26T09:20:00Z</time>
      </trkpt>
      <trkpt lat="48.56296" lon="6.45366">
        <ele>271</ele>
        <time>2017-06-26T09:20:01Z</time>
      </trkpt>
      <trkpt lat="48.56295" lon="6.45364">
        <ele>271</ele>
        <time>2017-06-26T09:20:02Z</time>
      </trkpt>
      <trkpt lat="48.56294" lon="6.45361">
        <ele>271</ele>
        <time>2017-06-26T09:20:03Z</time>
      </trkpt>
      <trkpt lat="48.56293" lon="6.45358">
        <ele>271</ele>
        <time>2017-06-26T09:20:04Z</time>
      </trkpt>
      <trkpt lat="48.56292" lon="6.45355">
        <ele>271</ele>
        <time>2017-06-26T09:20:05Z</time>
      </trkpt>
      <trkpt lat="48.56292" lon="6.45352">
        <ele>271</ele>
        <time>2017-06-26T09:20:06Z</time>
      </trkpt>
      <trkpt lat="48.56291" lon="6.45349">
        <ele>271</ele>
        <time>2017-06-26T09:20:07Z</time>
      </trkpt>
      <trkpt lat="48.5629" lon="6.45347">
        <ele>271</ele>
        <time>2017-06-26T09:20:08Z</time>
      </trkpt>
      <trkpt lat="48.56289" lon="6.45344">
        <ele>271</ele>
        <time>2017-06-26T09:20:09Z</time>
      </trkpt>
      <trkpt lat="48.56288" lon="6.45341">
        <ele>271</ele>
        <time>2017-06-26T09:20:10Z</time>
      </trkpt>
      <trkpt lat="48.56287" lon="6.45338">
        <ele>271</ele>
        <time>2017-06-26T09:20:11Z</time>
      </trkpt>
      <trkpt lat="48.56287" lon="6.45336">
        <ele>271</ele>
        <time>2017-06-26T09:20:12Z</time>
      </trkpt>
      <trkpt lat="48.56286" lon="6.45333">
        <ele>271</ele>
        <time>2017-06-26T09:20:13Z</time>
      </trkpt>
      <trkpt lat="48.56285" lon="6.4533">
        <ele>271</ele>
        <time>2017-06-26T09:20:14Z</time>
      </trkpt>
      <trkpt lat="48.56284" lon="6.45327">
        <ele>270</ele>
        <time>2017-06-26T09:20:15Z</time>
      </trkpt>
      <trkpt lat="48.56283" lon="6.45325">
        <ele>270</ele>
        <time>2017-06-26T09:20:16Z</time>
      </trkpt>
      <trkpt lat="48.56282" lon="6.45323">
        <ele>270</ele>
        <time>2017-06-26T09:20:17Z</time>
      </trkpt>
      <trkpt lat="48.5628" lon="6.45321">
        <ele>270</ele>
        <time>2017-06-26T09:20:18Z</time>
      </trkpt>
      <trkpt lat="48.56279" lon="6.45318">
        <ele>270</ele>
        <time>2017-06-26T09:20:19Z</time>
      </trkpt>
      <trkpt lat="48.56278" lon="6.45316">
        <ele>270</ele>
        <time>2017-06-26T09:20:20Z</time>
      </trkpt>
      <trkpt lat="48.56277" lon="6.45314">
        <ele>270</ele>
        <time>2017-06-26T09:20:21Z</time>
      </trkpt>
      <trkpt lat="48.56275" lon="6.45311">
        <ele>270</ele>
        <time>2017-06-26T09:20:22Z</time>
      </trkpt>
      <trkpt lat="48.56274" lon="6.45309">
        <ele>270</ele>
        <time>2017-06-26T09:20:23Z</time>
      </trkpt>
      <trkpt lat="48.56272" lon="6.45306">
        <ele>270</ele>
        <time>2017-06-26T09:20:24Z</time>
      </trkpt>
      <trkpt lat="48.56271" lon="6.45304">
        <ele>270</ele>
        <time>2017-06-26T09:20:25Z</time>
      </trkpt>
      <trkpt lat="48.56269" lon="6.45301">
        <ele>270</ele>
        <time>2017-06-26T09:20:26Z</time>
      </trkpt>
      <trkpt lat="48.56267" lon="6.45298">
        <ele>270</ele>
        <time>2017-06-26T09:20:27Z</time>
      </trkpt>
      <trkpt lat="48.56265" lon="6.45295">
        <ele>270</ele>
        <time>2017-06-26T09:20:28Z</time>
      </trkpt>
      <trkpt lat="48.56264" lon="6.45293">
        <ele>270</ele>
        <time>2017-06-26T09:20:29Z</time>
      </trkpt>
      <trkpt lat="48.56262" lon="6.4529">
        <ele>270</ele>
        <time>2017-06-26T09:20:30Z</time>
      </trkpt>
      <trkpt lat="48.5626" lon="6.45288">
        <ele>270</ele>
        <time>2017-06-26T09:20:31Z</time>
      </trkpt>
      <trkpt lat="48.56258" lon="6.45285">
        <ele>270</ele>
        <time>2017-06-26T09:20:32Z</time>
      </trkpt>
      <trkpt lat="48.56256" lon="6.45283">
        <ele>270</ele>
        <time>2017-06-26T09:20:33Z</time>
      </trkpt>
      <trkpt lat="48.56254" lon="6.4528">
        <ele>270</ele>
        <time>2017-06-26T09:20:34Z</time>
      </trkpt>
      <trkpt lat="48.56253" lon="6.45278">
        <ele>267</ele>
        <time>2017-06-26T09:20:35Z</time>
      </trkpt>
      <trkpt lat="48.56251" lon="6.45275">
        <ele>267</ele>
        <time>2017-06-26T09:20:36Z</time>
      </trkpt>
      <trkpt lat="48.56249" lon="6.45273">
        <ele>267</ele>
        <time>2017-06-26T09:20:37Z</time>
      </trkpt>
      <trkpt lat="48.56247" lon="6.4527">
        <ele>267</ele>
        <time>2017-06-26T09:20:38Z</time>
      </trkpt>
      <trkpt lat="48.56246" lon="6.45267">
        <ele>267</ele>
        <time>2017-06-26T09:20:39Z</time>
      </trkpt>
      <trkpt lat="48.56244" lon="6.45265">
        <ele>266</ele>
        <time>2017-06-26T09:20:40Z</time>
      </trkpt>
      <trkpt lat="48.56243" lon="6.45262">
        <ele>266</ele>
        <time>2017-06-26T09:20:41Z</time>
      </trkpt>
      <trkpt lat="48.56241" lon="6.45259">
        <ele>266</ele>
        <time>2017-06-26T09:20:42Z</time>
      </trkpt>
      <trkpt lat="48.5624" lon="6.45256">
        <ele>266</ele>
        <time>2017-06-26T09:20:43Z</time>
      </trkpt>
      <trkpt lat="48.56239" lon="6.45254">
        <ele>266</ele>
        <time>2017-06-26T09:20:44Z</time>
      </trkpt>
      <trkpt lat="48.56238" lon="6.45251">
        <ele>266</ele>
        <time>2017-06-26T09:20:45Z</time>
      </trkpt>
      <trkpt lat="48.56237" lon="6.45248">
        <ele>266</ele>
        <time>2017-06-26T09:20:46Z</time>
      </trkpt>
      <trkpt lat="48.56236" lon="6.45245">
        <ele>266</ele>
        <time>2017-06-26T09:20:47Z</time>
      </trkpt>
      <trkpt lat="48.56236" lon="6.45242">
        <ele>266</ele>
        <time>2017-06-26T09:20:48Z</time>
      </trkpt>
      <trkpt lat="48.56235" lon="6.45238">
        <ele>266</ele>
        <time>2017-06-26T09:20:49Z</time>
      </trkpt>
      <trkpt lat="48.56234" lon="6.45235">
        <ele>266</ele>
        <time>2017-06-26T09:20:50Z</time>
      </trkpt>
      <trkpt lat="48.56235" lon="6.45232">
        <ele>266</ele>
        <time>2017-06-26T09:20:51Z</time>
      </trkpt>
      <trkpt lat="48.56236" lon="6.45229">
        <ele>266</ele>
        <time>2017-06-26T09:20:52Z</time>
      </trkpt>
      <trkpt lat="48.56237" lon="6.45226">
        <ele>266</ele>
        <time>2017-06-26T09:20:53Z</time>
      </trkpt>
      <trkpt lat="48.56238" lon="6.45223">
        <ele>266</ele>
        <time>2017-06-26T09:20:54Z</time>
      </trkpt>
      <trkpt lat="48.56239" lon="6.4522">
        <ele>264</ele>
        <time>2017-06-26T09:20:55Z</time>
      </trkpt>
      <trkpt lat="48.5624" lon="6.45217">
        <ele>264</ele>
        <time>2017-06-26T09:20:56Z</time>
      </trkpt>
      <trkpt lat="48.56242" lon="6.45213">
        <ele>264</ele>
        <time>2017-06-26T09:20:57Z</time>
      </trkpt>
      <trkpt lat="48.56244" lon="6.4521">
        <ele>264</ele>
        <time>2017-06-26T09:20:58Z</time>
      </trkpt>
      <trkpt lat="48.56246" lon="6.45207">
        <ele>264</ele>
        <time>2017-06-26T09:20:59Z</time>
      </trkpt>
      <trkpt lat="48.56247" lon="6.45204">
        <ele>261</ele>
        <time>2017-06-26T09:21:00Z</time>
      </trkpt>
      <trkpt lat="48.56249" lon="6.45201">
        <ele>261</ele>
        <time>2017-06-26T09:21:01Z</time>
      </trkpt>
      <trkpt lat="48.56251" lon="6.45198">
        <ele>261</ele>
        <time>2017-06-26T09:21:02Z</time>
      </trkpt>
      <trkpt lat="48.56253" lon="6.45195">
        <ele>261</ele>
        <time>2017-06-26T09:21:03Z</time>
      </trkpt>
      <trkpt lat="48.56254" lon="6.45193">
        <ele>261</ele>
        <time>2017-06-26T09:21:04Z</time>
      </trkpt>
      <trkpt lat="48.56255" lon="6.4519">
        <ele>258</ele>
        <time>2017-06-26T09:21:05Z</time>
      </trkpt>
      <trkpt lat="48.56257" lon="6.45187">
        <ele>258</ele>
        <time>2017-06-26T09:21:06Z</time>
      </trkpt>
      <trkpt lat="48.56258" lon="6.45184">
        <ele>258</ele>
        <time>2017-06-26T09:21:07Z</time>
      </trkpt>
      <trkpt lat="48.56259" lon="6.45182">
        <ele>258</ele>
        <time>2017-06-26T09:21:08Z</time>
      </trkpt>
      <trkpt lat="48.5626" lon="6.45178">
        <ele>257</ele>
        <time>2017-06-26T09:21:09Z</time>
      </trkpt>
      <trkpt lat="48.56261" lon="6.45175">
        <ele>257</ele>
        <time>2017-06-26T09:21:10Z</time>
      </trkpt>
      <trkpt lat="48.56262" lon="6.45172">
        <ele>257</ele>
        <time>2017-06-26T09:21:11Z</time>
      </trkpt>
      <trkpt lat="48.56263" lon="6.45168">
        <ele>256</ele>
        <time>2017-06-26T09:21:12Z</time>
      </trkpt>
      <trkpt lat="48.56264" lon="6.45165">
        <ele>255</ele>
        <time>2017-06-26T09:21:13Z</time>
      </trkpt>
      <trkpt lat="48.56265" lon="6.45161">
        <ele>255</ele>
        <time>2017-06-26T09:21:14Z</time>
      </trkpt>
      <trkpt lat="48.56266" lon="6.45158">
        <ele>255</ele>
        <time>2017-06-26T09:21:15Z</time>
      </trkpt>
      <trkpt lat="48.56267" lon="6.45154">
        <ele>255</ele>
        <time>2017-06-26T09:21:16Z</time>
      </trkpt>
      <trkpt lat="48.56268" lon="6.4515">
        <ele>255</ele>
        <time>2017-06-26T09:21:17Z</time>
      </trkpt>
      <trkpt lat="48.56269" lon="6.45147">
        <ele>255</ele>
        <time>2017-06-26T09:21:18Z</time>
      </trkpt>
      <trkpt lat="48.5627" lon="6.45144">
        <ele>255</ele>
        <time>2017-06-26T09:21:19Z</time>
      </trkpt>
      <trkpt lat="48.5627" lon="6.4514">
        <ele>254</ele>
        <time>2017-06-26T09:21:20Z</time>
      </trkpt>
      <trkpt lat="48.56271" lon="6.45137">
        <ele>254</ele>
        <time>2017-06-26T09:21:21Z</time>
      </trkpt>
      <trkpt lat="48.56271" lon="6.45134">
        <ele>254</ele>
        <time>2017-06-26T09:21:22Z</time>
      </trkpt>
      <trkpt lat="48.56272" lon="6.45131">
        <ele>254</ele>
        <time>2017-06-26T09:21:23Z</time>
      </trkpt>
      <trkpt lat="48.56272" lon="6.45128">
        <ele>254</ele>
        <time>2017-06-26T09:21:24Z</time>
      </trkpt>
      <trkpt lat="48.56273" lon="6.45125">
        <ele>252</ele>
        <time>2017-06-26T09:21:25Z</time>
      </trkpt>
      <trkpt lat="48.56273" lon="6.45122">
        <ele>252</ele>
        <time>2017-06-26T09:21:26Z</time>
      </trkpt>
      <trkpt lat="48.56274" lon="6.45118">
        <ele>252</ele>
        <time>2017-06-26T09:21:27Z</time>
      </trkpt>
      <trkpt lat="48.56274" lon="6.45115">
        <ele>252</ele>
        <time>2017-06-26T09:21:28Z</time>
      </trkpt>
      <trkpt lat="48.56275" lon="6.45111">
        <ele>252</ele>
        <time>2017-06-26T09:21:29Z</time>
      </trkpt>
      <trkpt lat="48.56276" lon="6.45107">
        <ele>249</ele>
        <time>2017-06-26T09:21:30Z</time>
      </trkpt>
      <trkpt lat="48.56276" lon="6.45104">
        <ele>249</ele>
        <time>2017-06-26T09:21:31Z</time>
      </trkpt>
      <trkpt lat="48.56277" lon="6.45101">
        <ele>249</ele>
        <time>2017-06-26T09:21:32Z</time>
      </trkpt>
      <trkpt lat="48.56278" lon="6.45098">
        <ele>249</ele>
        <time>2017-06-26T09:21:33Z</time>
      </trkpt>
      <trkpt lat="48.56279" lon="6.45094">
        <ele>249</ele>
        <time>2017-06-26T09:21:34Z</time>
      </trkpt>
      <trkpt lat="48.56279" lon="6.45091">
        <ele>247</ele>
        <time>2017-06-26T09:21:35Z</time>
      </trkpt>
      <trkpt lat="48.5628" lon="6.45088">
        <ele>247</ele>
        <time>2017-06-26T09:21:36Z</time>
      </trkpt>
      <trkpt lat="48.56281" lon="6.45085">
        <ele>247</ele>
        <time>2017-06-26T09:21:37Z</time>
      </trkpt>
      <trkpt lat="48.56282" lon="6.45082">
        <ele>247</ele>
        <time>2017-06-26T09:21:38Z</time>
      </trkpt>
      <trkpt lat="48.56283" lon="6.45079">
        <ele>247</ele>
        <time>2017-06-26T09:21:39Z</time>
      </trkpt>
      <trkpt lat="48.56284" lon="6.45076">
        <ele>246</ele>
        <time>2017-06-26T09:21:40Z</time>
      </trkpt>
      <trkpt lat="48.56285" lon="6.45072">
        <ele>246</ele>
        <time>2017-06-26T09:21:41Z</time>
      </trkpt>
      <trkpt lat="48.56286" lon="6.45069">
        <ele>246</ele>
        <time>2017-06-26T09:21:42Z</time>
      </trkpt>
      <trkpt lat="48.56287" lon="6.45066">
        <ele>246</ele>
        <time>2017-06-26T09:21:43Z</time>
      </trkpt>
      <trkpt lat="48.56288" lon="6.45063">
        <ele>246</ele>
        <time>2017-06-26T09:21:44Z</time>
      </trkpt>
      <trkpt lat="48.56289" lon="6.4506">
        <ele>245</ele>
        <time>2017-06-26T09:21:45Z</time>
      </trkpt>
      <trkpt lat="48.56291" lon="6.45057">
        <ele>245</ele>
        <time>2017-06-26T09:21:46Z</time>
      </trkpt>
      <trkpt lat="48.56293" lon="6.45055">
        <ele>245</ele>
        <time>2017-06-26T09:21:47Z</time>
      </trkpt>
      <trkpt lat="48.56294" lon="6.45052">
        <ele>245</ele>
        <time>2017-06-26T09:21:48Z</time>
      </trkpt>
      <trkpt lat="48.56296" lon="6.45049">
        <ele>245</ele>
        <time>2017-06-26T09:21:49Z</time>
      </trkpt>
      <trkpt lat="48.56298" lon="6.45046">
        <ele>244</ele>
        <time>2017-06-26T09:21:50Z</time>
      </trkpt>
      <trkpt lat="48.56299" lon="6.45044">
        <ele>244</ele>
        <time>2017-06-26T09:21:51Z</time>
      </trkpt>
      <trkpt lat="48.56299" lon="6.45041">
        <ele>244</ele>
        <time>2017-06-26T09:21:52Z</time>
      </trkpt>
      <trkpt lat="48.563" lon="6.45038">
        <ele>244</ele>
        <time>2017-06-26T09:21:53Z</time>
      </trkpt>
      <trkpt lat="48.56301" lon="6.45036">
        <ele>244</ele>
        <time>2017-06-26T09:21:54Z</time>
      </trkpt>
      <trkpt lat="48.56302" lon="6.45033">
        <ele>245</ele>
        <time>2017-06-26T09:21:55Z</time>
      </trkpt>
      <trkpt lat="48.56302" lon="6.4503">
        <ele>245</ele>
        <time>2017-06-26T09:21:56Z</time>
      </trkpt>
      <trkpt lat="48.56302" lon="6.45028">
        <ele>245</ele>
        <time>2017-06-26T09:21:57Z</time>
      </trkpt>
      <trkpt lat="48.56302" lon="6.45026">
        <ele>245</ele>
        <time>2017-06-26T09:21:58Z</time>
      </trkpt>
      <trkpt lat="48.56301" lon="6.45024">
        <ele>245</ele>
        <time>2017-06-26T09:21:59Z</time>
      </trkpt>
      <trkpt lat="48.56301" lon="6.45021">
        <ele>245</ele>
        <time>2017-06-26T09:22:00Z</time>
      </trkpt>
      <trkpt lat="48.56301" lon="6.45019">
        <ele>245</ele>
        <time>2017-06-26T09:22:01Z</time>
      </trkpt>
      <trkpt lat="48.563" lon="6.45017">
        <ele>245</ele>
        <time>2017-06-26T09:22:02Z</time>
      </trkpt>
      <trkpt lat="48.563" lon="6.45015">
        <ele>245</ele>
        <time>2017-06-26T09:22:03Z</time>
      </trkpt>
      <trkpt lat="48.56298" lon="6.45013">
        <ele>245</ele>
        <time>2017-06-26T09:22:04Z</time>
      </trkpt>
      <trkpt lat="48.56296" lon="6.45012">
        <ele>243</ele>
        <time>2017-06-26T09:22:05Z</time>
      </trkpt>
      <trkpt lat="48.56294" lon="6.4501">
        <ele>243</ele>
        <time>2017-06-26T09:22:06Z</time>
      </trkpt>
      <trkpt lat="48.56292" lon="6.45009">
        <ele>243</ele>
        <time>2017-06-26T09:22:07Z</time>
      </trkpt>
      <trkpt lat="48.5629" lon="6.45007">
        <ele>243</ele>
        <time>2017-06-26T09:22:08Z</time>
      </trkpt>
      <trkpt lat="48.56288" lon="6.45006">
        <ele>243</ele>
        <time>2017-06-26T09:22:09Z</time>
      </trkpt>
      <trkpt lat="48.56286" lon="6.45005">
        <ele>243</ele>
        <time>2017-06-26T09:22:10Z</time>
      </trkpt>
      <trkpt lat="48.56284" lon="6.45004">
        <ele>243</ele>
        <time>2017-06-26T09:22:11Z</time>
      </trkpt>
      <trkpt lat="48.56282" lon="6.45003">
        <ele>243</ele>
        <time>2017-06-26T09:22:12Z</time>
      </trkpt>
      <trkpt lat="48.56279" lon="6.45001">
        <ele>243</ele>
        <time>2017-06-26T09:22:13Z</time>
      </trkpt>
      <trkpt lat="48.56277" lon="6.45">
        <ele>243</ele>
        <time>2017-06-26T09:22:14Z</time>
      </trkpt>
      <trkpt lat="48.56274" lon="6.44998">
        <ele>244</ele>
        <time>2017-06-26T09:22:15Z</time>
      </trkpt>
      <trkpt lat="48.56271" lon="6.44996">
        <ele>244</ele>
        <time>2017-06-26T09:22:16Z</time>
      </trkpt>
      <trkpt lat="48.56269" lon="6.44994">
        <ele>244</ele>
        <time>2017-06-26T09:22:17Z</time>
      </trkpt>
      <trkpt lat="48.56266" lon="6.44992">
        <ele>244</ele>
        <time>2017-06-26T09:22:18Z</time>
      </trkpt>
      <trkpt lat="48.56263" lon="6.44991">
        <ele>244</ele>
        <time>2017-06-26T09:22:19Z</time>
      </trkpt>
      <trkpt lat="48.56261" lon="6.44989">
        <ele>244</ele>
        <time>2017-06-26T09:22:20Z</time>
      </trkpt>
      <trkpt lat="48.56258" lon="6.44987">
        <ele>244</ele>
        <time>2017-06-26T09:22:21Z</time>
      </trkpt>
      <trkpt lat="48.56255" lon="6.44986">
        <ele>244</ele>
        <time>2017-06-26T09:22:22Z</time>
      </trkpt>
      <trkpt lat="48.56253" lon="6.44985">
        <ele>244</ele>
        <time>2017-06-26T09:22:23Z</time>
      </trkpt>
      <trkpt lat="48.5625" lon="6.44984">
        <ele>244</ele>
        <time>2017-06-26T09:22:24Z</time>
      </trkpt>
      <trkpt lat="48.56247" lon="6.44983">
        <ele>244</ele>
        <time>2017-06-26T09:22:25Z</time>
      </trkpt>
      <trkpt lat="48.56246" lon="6.44981">
        <ele>244</ele>
        <time>2017-06-26T09:22:26Z</time>
      </trkpt>
      <trkpt lat="48.56244" lon="6.44979">
        <ele>244</ele>
        <time>2017-06-26T09:22:27Z</time>
      </trkpt>
      <trkpt lat="48.56242" lon="6.44976">
        <ele>244</ele>
        <time>2017-06-26T09:22:28Z</time>
      </trkpt>
      <trkpt lat="48.5624" lon="6.44974">
        <ele>244</ele>
        <time>2017-06-26T09:22:29Z</time>
      </trkpt>
      <trkpt lat="48.56239" lon="6.44971">
        <ele>244</ele>
        <time>2017-06-26T09:22:30Z</time>
      </trkpt>
      <trkpt lat="48.56238" lon="6.44969">
        <ele>244</ele>
        <time>2017-06-26T09:22:31Z</time>
      </trkpt>
      <trkpt lat="48.56238" lon="6.44966">
        <ele>244</ele>
        <time>2017-06-26T09:22:32Z</time>
      </trkpt>
      <trkpt lat="48.56237" lon="6.44964">
        <ele>244</ele>
        <time>2017-06-26T09:22:33Z</time>
      </trkpt>
      <trkpt lat="48.56236" lon="6.44961">
        <ele>244</ele>
        <time>2017-06-26T09:22:34Z</time>
      </trkpt>
      <trkpt lat="48.56236" lon="6.44959">
        <ele>245</ele>
        <time>2017-06-26T09:22:35Z</time>
      </trkpt>
      <trkpt lat="48.56235" lon="6.44956">
        <ele>245</ele>
        <time>2017-06-26T09:22:36Z</time>
      </trkpt>
      <trkpt lat="48.56236" lon="6.44954">
        <ele>245</ele>
        <time>2017-06-26T09:22:37Z</time>
      </trkpt>
      <trkpt lat="48.56236" lon="6.44953">
        <ele>245</ele>
        <time>2017-06-26T09:22:38Z</time>
      </trkpt>
      <trkpt lat="48.56237" lon="6.44951">
        <ele>245</ele>
        <time>2017-06-26T09:22:39Z</time>
      </trkpt>
      <trkpt lat="48.56237" lon="6.44949">
        <ele>245</ele>
        <time>2017-06-26T09:22:40Z</time>
      </trkpt>
      <trkpt lat="48.56238" lon="6.44947">
        <ele>245</ele>
        <time>2017-06-26T09:22:41Z</time>
      </trkpt>
      <trkpt lat="48.56239" lon="6.44945">
        <ele>245</ele>
        <time>2017-06-26T09:22:42Z</time>
      </trkpt>
      <trkpt lat="48.56239" lon="6.44944">
        <ele>245</ele>
        <time>2017-06-26T09:22:43Z</time>
      </trkpt>
      <trkpt lat="48.5624" lon="6.44942">
        <ele>245</ele>
        <time>2017-06-26T09:22:44Z</time>
      </trkpt>
      <trkpt lat="48.5624" lon="6.4494">
        <ele>246</ele>
        <time>2017-06-26T09:22:45Z</time>
      </trkpt>
      <trkpt lat="48.56241" lon="6.44938">
        <ele>246</ele>
        <time>2017-06-26T09:22:46Z</time>
      </trkpt>
      <trkpt lat="48.56242" lon="6.44936">
        <ele>246</ele>
        <time>2017-06-26T09:22:47Z</time>
      </trkpt>
      <trkpt lat="48.56242" lon="6.44934">
        <ele>246</ele>
        <time>2017-06-26T09:22:48Z</time>
      </trkpt>
      <trkpt lat="48.56243" lon="6.44932">
        <ele>246</ele>
        <time>2017-06-26T09:22:49Z</time>
      </trkpt>
      <trkpt lat="48.56243" lon="6.4493">
        <ele>246</ele>
        <time>2017-06-26T09:22:50Z</time>
      </trkpt>
      <trkpt lat="48.56244" lon="6.44928">
        <ele>246</ele>
        <time>2017-06-26T09:22:51Z</time>
      </trkpt>
      <trkpt lat="48.56245" lon="6.44925">
        <ele>246</ele>
        <time>2017-06-26T09:22:52Z</time>
      </trkpt>
      <trkpt lat="48.56247" lon="6.44922">
        <ele>246</ele>
        <time>2017-06-26T09:22:53Z</time>
      </trkpt>
      <trkpt lat="48.56248" lon="6.44919">
        <ele>246</ele>
        <time>2017-06-26T09:22:54Z</time>
      </trkpt>
      <trkpt lat="48.56249" lon="6.44917">
        <ele>249</ele>
        <time>2017-06-26T09:22:55Z</time>
      </trkpt>
      <trkpt lat="48.5625" lon="6.44914">
        <ele>249</ele>
        <time>2017-06-26T09:22:56Z</time>
      </trkpt>
      <trkpt lat="48.56251" lon="6.44912">
        <ele>249</ele>
        <time>2017-06-26T09:22:57Z</time>
      </trkpt>
      <trkpt lat="48.56252" lon="6.44909">
        <ele>249</ele>
        <time>2017-06-26T09:22:58Z</time>
      </trkpt>
      <trkpt lat="48.56252" lon="6.44907">
        <ele>249</ele>
        <time>2017-06-26T09:22:59Z</time>
      </trkpt>
      <trkpt lat="48.56253" lon="6.44905">
        <ele>251</ele>
        <time>2017-06-26T09:23:00Z</time>
      </trkpt>
      <trkpt lat="48.56254" lon="6.44903">
        <ele>251</ele>
        <time>2017-06-26T09:23:01Z</time>
      </trkpt>
      <trkpt lat="48.56254" lon="6.44901">
        <ele>251</ele>
        <time>2017-06-26T09:23:02Z</time>
      </trkpt>
      <trkpt lat="48.56255" lon="6.44899">
        <ele>251</ele>
        <time>2017-06-26T09:23:03Z</time>
      </trkpt>
      <trkpt lat="48.56255" lon="6.44897">
        <ele>251</ele>
        <time>2017-06-26T09:23:04Z</time>
      </trkpt>
      <trkpt lat="48.56256" lon="6.44895">
        <ele>251</ele>
        <time>2017-06-26T09:23:05Z</time>
      </trkpt>
      <trkpt lat="48.56256" lon="6.44893">
        <ele>251</ele>
        <time>2017-06-26T09:23:06Z</time>
      </trkpt>
      <trkpt lat="48.56257" lon="6.44891">
        <ele>251</ele>
        <time>2017-06-26T09:23:07Z</time>
      </trkpt>
      <trkpt lat="48.56257" lon="6.44889">
        <ele>251</ele>
        <time>2017-06-26T09:23:08Z</time>
      </trkpt>
      <trkpt lat="48.56258" lon="6.44887">
        <ele>251</ele>
        <time>2017-06-26T09:23:09Z</time>
      </trkpt>
      <trkpt lat="48.56259" lon="6.44885">
        <ele>251</ele>
        <time>2017-06-26T09:23:10Z</time>
      </trkpt>
      <trkpt lat="48.56259" lon="6.44883">
        <ele>251</ele>
        <time>2017-06-26T09:23:11Z</time>
      </trkpt>
      <trkpt lat="48.5626" lon="6.44881">
        <ele>251</ele>
        <time>2017-06-26T09:23:12Z</time>
      </trkpt>
      <trkpt lat="48.5626" lon="6.44879">
        <ele>251</ele>
        <time>2017-06-26T09:23:13Z</time>
      </trkpt>
      <trkpt lat="48.56261" lon="6.44877">
        <ele>251</ele>
        <time>2017-06-26T09:23:14Z</time>
      </trkpt>
      <trkpt lat="48.56261" lon="6.44874">
        <ele>252</ele>
        <time>2017-06-26T09:23:15Z</time>
      </trkpt>
      <trkpt lat="48.56262" lon="6.44872">
        <ele>252</ele>
        <time>2017-06-26T09:23:16Z</time>
      </trkpt>
      <trkpt lat="48.56262" lon="6.4487">
        <ele>252</ele>
        <time>2017-06-26T09:23:17Z</time>
      </trkpt>
      <trkpt lat="48.56263" lon="6.44868">
        <ele>252</ele>
        <time>2017-06-26T09:23:18Z</time>
      </trkpt>
      <trkpt lat="48.56264" lon="6.44866">
        <ele>252</ele>
        <time>2017-06-26T09:23:19Z</time>
      </trkpt>
      <trkpt lat="48.56264" lon="6.44863">
        <ele>252</ele>
        <time>2017-06-26T09:23:20Z</time>
      </trkpt>
      <trkpt lat="48.56265" lon="6.44861">
        <ele>252</ele>
        <time>2017-06-26T09:23:21Z</time>
      </trkpt>
      <trkpt lat="48.56266" lon="6.44859">
        <ele>252</ele>
        <time>2017-06-26T09:23:22Z</time>
      </trkpt>
      <trkpt lat="48.56266" lon="6.44857">
        <ele>252</ele>
        <time>2017-06-26T09:23:23Z</time>
      </trkpt>
      <trkpt lat="48.56267" lon="6.44854">
        <ele>252</ele>
        <time>2017-06-26T09:23:24Z</time>
      </trkpt>
      <trkpt lat="48.56268" lon="6.44852">
        <ele>255</ele>
        <time>2017-06-26T09:23:25Z</time>
      </trkpt>
      <trkpt lat="48.56268" lon="6.44849">
        <ele>255</ele>
        <time>2017-06-26T09:23:26Z</time>
      </trkpt>
      <trkpt lat="48.56269" lon="6.44847">
        <ele>255</ele>
        <time>2017-06-26T09:23:27Z</time>
      </trkpt>
      <trkpt lat="48.5627" lon="6.44844">
        <ele>255</ele>
        <time>2017-06-26T09:23:28Z</time>
      </trkpt>
      <trkpt lat="48.56271" lon="6.44842">
        <ele>255</ele>
        <time>2017-06-26T09:23:29Z</time>
      </trkpt>
      <trkpt lat="48.56271" lon="6.4484">
        <ele>255</ele>
        <time>2017-06-26T09:23:30Z</time>
      </trkpt>
      <trkpt lat="48.56272" lon="6.44838">
        <ele>255</ele>
        <time>2017-06-26T09:23:31Z</time>
      </trkpt>
      <trkpt lat="48.56273" lon="6.44835">
        <ele>255</ele>
        <time>2017-06-26T09:23:32Z</time>
      </trkpt>
      <trkpt lat="48.56274" lon="6.44833">
        <ele>255</ele>
        <time>2017-06-26T09:23:33Z</time>
      </trkpt>
      <trkpt lat="48.56275" lon="6.44831">
        <ele>255</ele>
        <time>2017-06-26T09:23:34Z</time>
      </trkpt>
      <trkpt lat="48.56275" lon="6.44829">
        <ele>256</ele>
        <time>2017-06-26T09:23:35Z</time>
      </trkpt>
      <trkpt lat="48.56276" lon="6.44826">
        <ele>256</ele>
        <time>2017-06-26T09:23:36Z</time>
      </trkpt>
      <trkpt lat="48.56277" lon="6.44824">
        <ele>256</ele>
        <time>2017-06-26T09:23:37Z</time>
      </trkpt>
      <trkpt lat="48.56278" lon="6.44822">
        <ele>256</ele>
        <time>2017-06-26T09:23:38Z</time>
      </trkpt>
      <trkpt lat="48.56278" lon="6.44819">
        <ele>256</ele>
        <time>2017-06-26T09:23:39Z</time>
      </trkpt>
      <trkpt lat="48.56279" lon="6.44817">
        <ele>256</ele>
        <time>2017-06-26T09:23:40Z</time>
      </trkpt>
      <trkpt lat="48.5628" lon="6.44815">
        <ele>256</ele>
        <time>2017-06-26T09:23:41Z</time>
      </trkpt>
      <trkpt lat="48.56281" lon="6.44812">
        <ele>256</ele>
        <time>2017-06-26T09:23:42Z</time>
      </trkpt>
      <trkpt lat="48.56281" lon="6.4481">
        <ele>256</ele>
        <time>2017-06-26T09:23:43Z</time>
      </trkpt>
      <trkpt lat="48.56282" lon="6.44808">
        <ele>256</ele>
        <time>2017-06-26T09:23:44Z</time>
      </trkpt>
      <trkpt lat="48.56283" lon="6.44805">
        <ele>258</ele>
        <time>2017-06-26T09:23:45Z</time>
      </trkpt>
      <trkpt lat="48.56284" lon="6.44803">
        <ele>258</ele>
        <time>2017-06-26T09:23:46Z</time>
      </trkpt>
      <trkpt lat="48.56285" lon="6.448">
        <ele>258</ele>
        <time>2017-06-26T09:23:47Z</time>
      </trkpt>
      <trkpt lat="48.56285" lon="6.44798">
        <ele>258</ele>
        <time>2017-06-26T09:23:48Z</time>
      </trkpt>
      <trkpt lat="48.56286" lon="6.44796">
        <ele>258</ele>
        <time>2017-06-26T09:23:49Z</time>
      </trkpt>
      <trkpt lat="48.56287" lon="6.44793">
        <ele>258</ele>
        <time>2017-06-26T09:23:50Z</time>
      </trkpt>
      <trkpt lat="48.56287" lon="6.44791">
        <ele>258</ele>
        <time>2017-06-26T09:23:51Z</time>
      </trkpt>
      <trkpt lat="48.56288" lon="6.44789">
        <ele>258</ele>
        <time>2017-06-26T09:23:52Z</time>
      </trkpt>
      <trkpt lat="48.56288" lon="6.44786">
        <ele>258</ele>
        <time>2017-06-26T09:23:53Z</time>
      </trkpt>
      <trkpt lat="48.56289" lon="6.44784">
        <ele>258</ele>
        <time>2017-06-26T09:23:54Z</time>
      </trkpt>
      <trkpt lat="48.56289" lon="6.44782">
        <ele>259</ele>
        <time>2017-06-26T09:23:55Z</time>
      </trkpt>
      <trkpt lat="48.5629" lon="6.4478">
        <ele>259</ele>
        <time>2017-06-26T09:23:56Z</time>
      </trkpt>
      <trkpt lat="48.56291" lon="6.44777">
        <ele>259</ele>
        <time>2017-06-26T09:23:57Z</time>
      </trkpt>
      <trkpt lat="48.56292" lon="6.44775">
        <ele>259</ele>
        <time>2017-06-26T09:23:58Z</time>
      </trkpt>
      <trkpt lat="48.56293" lon="6.44773">
        <ele>259</ele>
        <time>2017-06-26T09:23:59Z</time>
      </trkpt>
      <trkpt lat="48.56293" lon="6.44771">
        <ele>259</ele>
        <time>2017-06-26T09:24:00Z</time>
      </trkpt>
      <trkpt lat="48.56294" lon="6.44768">
        <ele>259</ele>
        <time>2017-06-26T09:24:01Z</time>
      </trkpt>
      <trkpt lat="48.56295" lon="6.44766">
        <ele>259</ele>
        <time>2017-06-26T09:24:02Z</time>
      </trkpt>
      <trkpt lat="48.56296" lon="6.44763">
        <ele>259</ele>
        <time>2017-06-26T09:24:03Z</time>
      </trkpt>
      <trkpt lat="48.56297" lon="6.4476">
        <ele>259</ele>
        <time>2017-06-26T09:24:04Z</time>
      </trkpt>
      <trkpt lat="48.56297" lon="6.44757">
        <ele>261</ele>
        <time>2017-06-26T09:24:05Z</time>
      </trkpt>
      <trkpt lat="48.56298" lon="6.44754">
        <ele>261</ele>
        <time>2017-06-26T09:24:06Z</time>
      </trkpt>
      <trkpt lat="48.56299" lon="6.44751">
        <ele>261</ele>
        <time>2017-06-26T09:24:07Z</time>
      </trkpt>
      <trkpt lat="48.563" lon="6.44748">
        <ele>261</ele>
        <time>2017-06-26T09:24:08Z</time>
      </trkpt>
      <trkpt lat="48.56301" lon="6.44745">
        <ele>261</ele>
        <time>2017-06-26T09:24:09Z</time>
      </trkpt>
      <trkpt lat="48.56302" lon="6.44742">
        <ele>261</ele>
        <time>2017-06-26T09:24:10Z</time>
      </trkpt>
      <trkpt lat="48.56303" lon="6.44739">
        <ele>261</ele>
        <time>2017-06-26T09:24:11Z</time>
      </trkpt>
      <trkpt lat="48.56304" lon="6.44737">
        <ele>261</ele>
        <time>2017-06-26T09:24:12Z</time>
      </trkpt>
      <trkpt lat="48.56305" lon="6.44736">
        <ele>261</ele>
        <time>2017-06-26T09:24:13Z</time>
      </trkpt>
      <trkpt lat="48.56307" lon="6.44735">
        <ele>261</ele>
        <time>2017-06-26T09:24:14Z</time>
      </trkpt>
      <trkpt lat="48.56308" lon="6.44734">
        <ele>262</ele>
        <time>2017-06-26T09:24:15Z</time>
      </trkpt>
      <trkpt lat="48.56309" lon="6.44733">
        <ele>262</ele>
        <time>2017-06-26T09:24:16Z</time>
      </trkpt>
      <trkpt lat="48.56311" lon="6.44732">
        <ele>262</ele>
        <time>2017-06-26T09:24:17Z</time>
      </trkpt>
      <trkpt lat="48.56312" lon="6.44731">
        <ele>262</ele>
        <time>2017-06-26T09:24:18Z</time>
      </trkpt>
      <trkpt lat="48.56314" lon="6.44731">
        <ele>262</ele>
        <time>2017-06-26T09:24:19Z</time>
      </trkpt>
      <trkpt lat="48.56317" lon="6.44732">
        <ele>262</ele>
        <time>2017-06-26T09:24:20Z</time>
      </trkpt>
      <trkpt lat="48.56319" lon="6.44732">
        <ele>262</ele>
        <time>2017-06-26T09:24:21Z</time>
      </trkpt>
      <trkpt lat="48.56321" lon="6.44733">
        <ele>262</ele>
        <time>2017-06-26T09:24:22Z</time>
      </trkpt>
      <trkpt lat="48.56323" lon="6.44733">
        <ele>262</ele>
        <time>2017-06-26T09:24:23Z</time>
      </trkpt>
      <trkpt lat="48.56326" lon="6.44734">
        <ele>262</ele>
        <time>2017-06-26T09:24:24Z</time>
      </trkpt>
      <trkpt lat="48.56328" lon="6.44735">
        <ele>262</ele>
        <time>2017-06-26T09:24:25Z</time>
      </trkpt>
      <trkpt lat="48.5633" lon="6.44736">
        <ele>262</ele>
        <time>2017-06-26T09:24:26Z</time>
      </trkpt>
      <trkpt lat="48.56332" lon="6.44737">
        <ele>262</ele>
        <time>2017-06-26T09:24:27Z</time>
      </trkpt>
      <trkpt lat="48.56335" lon="6.44738">
        <ele>262</ele>
        <time>2017-06-26T09:24:28Z</time>
      </trkpt>
      <trkpt lat="48.56337" lon="6.44739">
        <ele>262</ele>
        <time>2017-06-26T09:24:29Z</time>
      </trkpt>
      <trkpt lat="48.56339" lon="6.44739">
        <ele>262</ele>
        <time>2017-06-26T09:24:30Z</time>
      </trkpt>
      <trkpt lat="48.56342" lon="6.4474">
        <ele>262</ele>
        <time>2017-06-26T09:24:31Z</time>
      </trkpt>
      <trkpt lat="48.56344" lon="6.44741">
        <ele>262</ele>
        <time>2017-06-26T09:24:32Z</time>
      </trkpt>
      <trkpt lat="48.56346" lon="6.44741">
        <ele>262</ele>
        <time>2017-06-26T09:24:33Z</time>
      </trkpt>
      <trkpt lat="48.56348" lon="6.44742">
        <ele>262</ele>
        <time>2017-06-26T09:24:34Z</time>
      </trkpt>
      <trkpt lat="48.5635" lon="6.44743">
        <ele>262</ele>
        <time>2017-06-26T09:24:35Z</time>
      </trkpt>
      <trkpt lat="48.56353" lon="6.44744">
        <ele>262</ele>
        <time>2017-06-26T09:24:36Z</time>
      </trkpt>
      <trkpt lat="48.56355" lon="6.44744">
        <ele>262</ele>
        <time>2017-06-26T09:24:37Z</time>
      </trkpt>
      <trkpt lat="48.56357" lon="6.44745">
        <ele>262</ele>
        <time>2017-06-26T09:24:38Z</time>
      </trkpt>
      <trkpt lat="48.56359" lon="6.44746">
        <ele>262</ele>
        <time>2017-06-26T09:24:39Z</time>
      </trkpt>
      <trkpt lat="48.56361" lon="6.44747">
        <ele>262</ele>
        <time>2017-06-26T09:24:40Z</time>
      </trkpt>
      <trkpt lat="48.56363" lon="6.44748">
        <ele>262</ele>
        <time>2017-06-26T09:24:41Z</time>
      </trkpt>
      <trkpt lat="48.56365" lon="6.44748">
        <ele>262</ele>
        <time>2017-06-26T09:24:42Z</time>
      </trkpt>
      <trkpt lat="48.56367" lon="6.44749">
        <ele>262</ele>
        <time>2017-06-26T09:24:43Z</time>
      </trkpt>
      <trkpt lat="48.56369" lon="6.44751">
        <ele>262</ele>
        <time>2017-06-26T09:24:44Z</time>
      </trkpt>
      <trkpt lat="48.56371" lon="6.44752">
        <ele>262</ele>
        <time>2017-06-26T09:24:45Z</time>
      </trkpt>
      <trkpt lat="48.56373" lon="6.44753">
        <ele>262</ele>
        <time>2017-06-26T09:24:46Z</time>
      </trkpt>
      <trkpt lat="48.56375" lon="6.44755">
        <ele>262</ele>
        <time>2017-06-26T09:24:47Z</time>
      </trkpt>
      <trkpt lat="48.56377" lon="6.44756">
        <ele>262</ele>
        <time>2017-06-26T09:24:48Z</time>
      </trkpt>
      <trkpt lat="48.56379" lon="6.44757">
        <ele>262</ele>
        <time>2017-06-26T09:24:49Z</time>
      </trkpt>
      <trkpt lat="48.56381" lon="6.44758">
        <ele>262</ele>
        <time>2017-06-26T09:24:50Z</time>
      </trkpt>
      <trkpt lat="48.56383" lon="6.44759">
        <ele>262</ele>
        <time>2017-06-26T09:24:51Z</time>
      </trkpt>
      <trkpt lat="48.56385" lon="6.4476">
        <ele>262</ele>
        <time>2017-06-26T09:24:52Z</time>
      </trkpt>
      <trkpt lat="48.56387" lon="6.44761">
        <ele>262</ele>
        <time>2017-06-26T09:24:53Z</time>
      </trkpt>
      <trkpt lat="48.56388" lon="6.44762">
        <ele>262</ele>
        <time>2017-06-26T09:24:54Z</time>
      </trkpt>
      <trkpt lat="48.5639" lon="6.44763">
        <ele>263</ele>
        <time>2017-06-26T09:24:55Z</time>
      </trkpt>
      <trkpt lat="48.56391" lon="6.44764">
        <ele>263</ele>
        <time>2017-06-26T09:24:56Z</time>
      </trkpt>
      <trkpt lat="48.56392" lon="6.44765">
        <ele>263</ele>
        <time>2017-06-26T09:24:57Z</time>
      </trkpt>
      <trkpt lat="48.56397" lon="6.44769">
        <ele>263</ele>
        <time>2017-06-26T09:24:58Z</time>
      </trkpt>
      <trkpt lat="48.56398" lon="6.4477">
        <ele>263</ele>
        <time>2017-06-26T09:24:59Z</time>
      </trkpt>
      <trkpt lat="48.564" lon="6.44771">
        <ele>263</ele>
        <time>2017-06-26T09:25:00Z</time>
      </trkpt>
      <trkpt lat="48.56401" lon="6.44772">
        <ele>263</ele>
        <time>2017-06-26T09:25:01Z</time>
      </trkpt>
      <trkpt lat="48.56402" lon="6.44774">
        <ele>263</ele>
        <time>2017-06-26T09:25:02Z</time>
      </trkpt>
      <trkpt lat="48.56406" lon="6.44778">
        <ele>263</ele>
        <time>2017-06-26T09:25:03Z</time>
      </trkpt>
      <trkpt lat="48.56408" lon="6.44779">
        <ele>263</ele>
        <time>2017-06-26T09:25:04Z</time>
      </trkpt>
      <trkpt lat="48.5641" lon="6.44781">
        <ele>263</ele>
        <time>2017-06-26T09:25:05Z</time>
      </trkpt>
      <trkpt lat="48.56411" lon="6.44782">
        <ele>263</ele>
        <time>2017-06-26T09:25:06Z</time>
      </trkpt>
      <trkpt lat="48.56413" lon="6.44784">
        <ele>263</ele>
        <time>2017-06-26T09:25:07Z</time>
      </trkpt>
      <trkpt lat="48.56415" lon="6.44785">
        <ele>263</ele>
        <time>2017-06-26T09:25:08Z</time>
      </trkpt>
      <trkpt lat="48.56416" lon="6.44786">
        <ele>263</ele>
        <time>2017-06-26T09:25:09Z</time>
      </trkpt>
      <trkpt lat="48.56418" lon="6.44787">
        <ele>263</ele>
        <time>2017-06-26T09:25:10Z</time>
      </trkpt>
      <trkpt lat="48.56419" lon="6.44788">
        <ele>263</ele>
        <time>2017-06-26T09:25:11Z</time>
      </trkpt>
      <trkpt lat="48.5642" lon="6.44789">
        <ele>263</ele>
        <time>2017-06-26T09:25:12Z</time>
      </trkpt>
      <trkpt lat="48.56426" lon="6.44792">
        <ele>263</ele>
        <time>2017-06-26T09:25:13Z</time>
      </trkpt>
      <trkpt lat="48.56427" lon="6.44793">
        <ele>263</ele>
        <time>2017-06-26T09:25:14Z</time>
      </trkpt>
      <trkpt lat="48.56428" lon="6.44793">
        <ele>263</ele>
        <time>2017-06-26T09:25:15Z</time>
      </trkpt>
      <trkpt lat="48.5643" lon="6.44794">
        <ele>263</ele>
        <time>2017-06-26T09:25:16Z</time>
      </trkpt>
      <trkpt lat="48.56431" lon="6.44795">
        <ele>263</ele>
        <time>2017-06-26T09:25:17Z</time>
      </trkpt>
      <trkpt lat="48.56437" lon="6.44797">
        <ele>263</ele>
        <time>2017-06-26T09:25:18Z</time>
      </trkpt>
      <trkpt lat="48.56438" lon="6.44798">
        <ele>263</ele>
        <time>2017-06-26T09:25:19Z</time>
      </trkpt>
      <trkpt lat="48.56439" lon="6.44798">
        <ele>263</ele>
        <time>2017-06-26T09:25:20Z</time>
      </trkpt>
      <trkpt lat="48.5644" lon="6.44799">
        <ele>263</ele>
        <time>2017-06-26T09:25:21Z</time>
      </trkpt>
      <trkpt lat="48.56441" lon="6.44799">
        <ele>263</ele>
        <time>2017-06-26T09:25:22Z</time>
      </trkpt>
      <trkpt lat="48.56442" lon="6.448">
        <ele>263</ele>
        <time>2017-06-26T09:25:23Z</time>
      </trkpt>
      <trkpt lat="48.56448" lon="6.44803">
        <ele>263</ele>
        <time>2017-06-26T09:25:24Z</time>
      </trkpt>
      <trkpt lat="48.5645" lon="6.44804">
        <ele>264</ele>
        <time>2017-06-26T09:25:25Z</time>
      </trkpt>
      <trkpt lat="48.56451" lon="6.44806">
        <ele>264</ele>
        <time>2017-06-26T09:25:26Z</time>
      </trkpt>
      <trkpt lat="48.56453" lon="6.44807">
        <ele>264</ele>
        <time>2017-06-26T09:25:27Z</time>
      </trkpt>
      <trkpt lat="48.56455" lon="6.44808">
        <ele>264</ele>
        <time>2017-06-26T09:25:28Z</time>
      </trkpt>
      <trkpt lat="48.56457" lon="6.4481">
        <ele>264</ele>
        <time>2017-06-26T09:25:29Z</time>
      </trkpt>
      <trkpt lat="48.56458" lon="6.44811">
        <ele>264</ele>
        <time>2017-06-26T09:25:30Z</time>
      </trkpt>
      <trkpt lat="48.5646" lon="6.44812">
        <ele>264</ele>
        <time>2017-06-26T09:25:31Z</time>
      </trkpt>
      <trkpt lat="48.56461" lon="6.44814">
        <ele>264</ele>
        <time>2017-06-26T09:25:32Z</time>
      </trkpt>
      <trkpt lat="48.56466" lon="6.44818">
        <ele>264</ele>
        <time>2017-06-26T09:25:33Z</time>
      </trkpt>
      <trkpt lat="48.56467" lon="6.44819">
        <ele>264</ele>
        <time>2017-06-26T09:25:34Z</time>
      </trkpt>
      <trkpt lat="48.56469" lon="6.44819">
        <ele>264</ele>
        <time>2017-06-26T09:25:35Z</time>
      </trkpt>
      <trkpt lat="48.5647" lon="6.4482">
        <ele>264</ele>
        <time>2017-06-26T09:25:36Z</time>
      </trkpt>
      <trkpt lat="48.56471" lon="6.44821">
        <ele>264</ele>
        <time>2017-06-26T09:25:37Z</time>
      </trkpt>
      <trkpt lat="48.56477" lon="6.44824">
        <ele>264</ele>
        <time>2017-06-26T09:25:38Z</time>
      </trkpt>
      <trkpt lat="48.56478" lon="6.44825">
        <ele>264</ele>
        <time>2017-06-26T09:25:39Z</time>
      </trkpt>
      <trkpt lat="48.56479" lon="6.44825">
        <ele>264</ele>
        <time>2017-06-26T09:25:40Z</time>
      </trkpt>
      <trkpt lat="48.56481" lon="6.44826">
        <ele>264</ele>
        <time>2017-06-26T09:25:41Z</time>
      </trkpt>
      <trkpt lat="48.56482" lon="6.44826">
        <ele>264</ele>
        <time>2017-06-26T09:25:42Z</time>
      </trkpt>
      <trkpt lat="48.56487" lon="6.44829">
        <ele>264</ele>
        <time>2017-06-26T09:25:43Z</time>
      </trkpt>
      <trkpt lat="48.56488" lon="6.4483">
        <ele>264</ele>
        <time>2017-06-26T09:25:44Z</time>
      </trkpt>
      <trkpt lat="48.56489" lon="6.4483">
        <ele>265</ele>
        <time>2017-06-26T09:25:45Z</time>
      </trkpt>
      <trkpt lat="48.5649" lon="6.44831">
        <ele>265</ele>
        <time>2017-06-26T09:25:46Z</time>
      </trkpt>
      <trkpt lat="48.56491" lon="6.44832">
        <ele>265</ele>
        <time>2017-06-26T09:25:47Z</time>
      </trkpt>
      <trkpt lat="48.56492" lon="6.44832">
        <ele>265</ele>
        <time>2017-06-26T09:25:48Z</time>
      </trkpt>
      <trkpt lat="48.56497" lon="6.44836">
        <ele>265</ele>
        <time>2017-06-26T09:25:49Z</time>
      </trkpt>
      <trkpt lat="48.56499" lon="6.44836">
        <ele>265</ele>
        <time>2017-06-26T09:25:50Z</time>
      </trkpt>
      <trkpt lat="48.565" lon="6.44837">
        <ele>265</ele>
        <time>2017-06-26T09:25:51Z</time>
      </trkpt>
      <trkpt lat="48.56502" lon="6.44838">
        <ele>265</ele>
        <time>2017-06-26T09:25:52Z</time>
      </trkpt>
      <trkpt lat="48.56503" lon="6.44839">
        <ele>265</ele>
        <time>2017-06-26T09:25:53Z</time>
      </trkpt>
      <trkpt lat="48.56509" lon="6.44842">
        <ele>265</ele>
        <time>2017-06-26T09:25:54Z</time>
      </trkpt>
      <trkpt lat="48.5651" lon="6.44843">
        <ele>266</ele>
        <time>2017-06-26T09:25:55Z</time>
      </trkpt>
      <trkpt lat="48.56511" lon="6.44844">
        <ele>266</ele>
        <time>2017-06-26T09:25:56Z</time>
      </trkpt>
      <trkpt lat="48.56513" lon="6.44844">
        <ele>266</ele>
        <time>2017-06-26T09:25:57Z</time>
      </trkpt>
      <trkpt lat="48.56514" lon="6.44845">
        <ele>266</ele>
        <time>2017-06-26T09:25:58Z</time>
      </trkpt>
      <trkpt lat="48.56519" lon="6.44848">
        <ele>266</ele>
        <time>2017-06-26T09:25:59Z</time>
      </trkpt>
      <trkpt lat="48.56521" lon="6.44849">
        <ele>266</ele>
        <time>2017-06-26T09:26:00Z</time>
      </trkpt>
      <trkpt lat="48.56522" lon="6.4485">
        <ele>266</ele>
        <time>2017-06-26T09:26:01Z</time>
      </trkpt>
      <trkpt lat="48.56523" lon="6.44852">
        <ele>266</ele>
        <time>2017-06-26T09:26:02Z</time>
      </trkpt>
      <trkpt lat="48.56524" lon="6.44853">
        <ele>266</ele>
        <time>2017-06-26T09:26:03Z</time>
      </trkpt>
      <trkpt lat="48.5653" lon="6.44857">
        <ele>266</ele>
        <time>2017-06-26T09:26:04Z</time>
      </trkpt>
      <trkpt lat="48.56531" lon="6.44858">
        <ele>266</ele>
        <time>2017-06-26T09:26:05Z</time>
      </trkpt>
      <trkpt lat="48.56532" lon="6.44858">
        <ele>266</ele>
        <time>2017-06-26T09:26:06Z</time>
      </trkpt>
      <trkpt lat="48.56533" lon="6.44859">
        <ele>266</ele>
        <time>2017-06-26T09:26:07Z</time>
      </trkpt>
      <trkpt lat="48.56534" lon="6.4486">
        <ele>266</ele>
        <time>2017-06-26T09:26:08Z</time>
      </trkpt>
      <trkpt lat="48.56535" lon="6.44861">
        <ele>266</ele>
        <time>2017-06-26T09:26:09Z</time>
      </trkpt>
      <trkpt lat="48.56541" lon="6.44864">
        <ele>266</ele>
        <time>2017-06-26T09:26:10Z</time>
      </trkpt>
      <trkpt lat="48.56544" lon="6.44866">
        <ele>266</ele>
        <time>2017-06-26T09:26:11Z</time>
      </trkpt>
      <trkpt lat="48.56547" lon="6.44868">
        <ele>266</ele>
        <time>2017-06-26T09:26:12Z</time>
      </trkpt>
      <trkpt lat="48.5655" lon="6.4487">
        <ele>266</ele>
        <time>2017-06-26T09:26:13Z</time>
      </trkpt>
      <trkpt lat="48.56553" lon="6.44871">
        <ele>266</ele>
        <time>2017-06-26T09:26:14Z</time>
      </trkpt>
      <trkpt lat="48.56555" lon="6.44873">
        <ele>266</ele>
        <time>2017-06-26T09:26:15Z</time>
      </trkpt>
      <trkpt lat="48.56559" lon="6.44876">
        <ele>266</ele>
        <time>2017-06-26T09:26:16Z</time>
      </trkpt>
      <trkpt lat="48.56562" lon="6.44878">
        <ele>266</ele>
        <time>2017-06-26T09:26:17Z</time>
      </trkpt>
      <trkpt lat="48.56564" lon="6.44879">
        <ele>266</ele>
        <time>2017-06-26T09:26:18Z</time>
      </trkpt>
      <trkpt lat="48.56566" lon="6.44881">
        <ele>266</ele>
        <time>2017-06-26T09:26:19Z</time>
      </trkpt>
      <trkpt lat="48.56569" lon="6.44882">
        <ele>266</ele>
        <time>2017-06-26T09:26:20Z</time>
      </trkpt>
      <trkpt lat="48.56571" lon="6.44883">
        <ele>266</ele>
        <time>2017-06-26T09:26:21Z</time>
      </trkpt>
      <trkpt lat="48.56572" lon="6.44884">
        <ele>266</ele>
        <time>2017-06-26T09:26:22Z</time>
      </trkpt>
      <trkpt lat="48.56574" lon="6.44886">
        <ele>266</ele>
        <time>2017-06-26T09:26:23Z</time>
      </trkpt>
      <trkpt lat="48.5658" lon="6.44889">
        <ele>266</ele>
        <time>2017-06-26T09:26:24Z</time>
      </trkpt>
      <trkpt lat="48.56581" lon="6.44889">
        <ele>266</ele>
        <time>2017-06-26T09:26:25Z</time>
      </trkpt>
      <trkpt lat="48.56582" lon="6.4489">
        <ele>266</ele>
        <time>2017-06-26T09:26:26Z</time>
      </trkpt>
      <trkpt lat="48.56583" lon="6.44891">
        <ele>266</ele>
        <time>2017-06-26T09:26:27Z</time>
      </trkpt>
      <trkpt lat="48.56584" lon="6.44892">
        <ele>266</ele>
        <time>2017-06-26T09:26:28Z</time>
      </trkpt>
      <trkpt lat="48.56589" lon="6.44895">
        <ele>266</ele>
        <time>2017-06-26T09:26:29Z</time>
      </trkpt>
      <trkpt lat="48.5659" lon="6.44896">
        <ele>266</ele>
        <time>2017-06-26T09:26:30Z</time>
      </trkpt>
      <trkpt lat="48.56591" lon="6.44896">
        <ele>266</ele>
        <time>2017-06-26T09:26:31Z</time>
      </trkpt>
      <trkpt lat="48.56592" lon="6.44897">
        <ele>266</ele>
        <time>2017-06-26T09:26:32Z</time>
      </trkpt>
      <trkpt lat="48.56593" lon="6.44898">
        <ele>266</ele>
        <time>2017-06-26T09:26:33Z</time>
      </trkpt>
      <trkpt lat="48.56594" lon="6.44899">
        <ele>265</ele>
        <time>2017-06-26T09:26:35Z</time>
      </trkpt>
      <trkpt lat="48.56599" lon="6.44903">
        <ele>265</ele>
        <time>2017-06-26T09:26:36Z</time>
      </trkpt>
      <trkpt lat="48.56601" lon="6.44904">
        <ele>265</ele>
        <time>2017-06-26T09:26:37Z</time>
      </trkpt>
      <trkpt lat="48.56602" lon="6.44904">
        <ele>265</ele>
        <time>2017-06-26T09:26:38Z</time>
      </trkpt>
      <trkpt lat="48.56603" lon="6.44905">
        <ele>265</ele>
        <time>2017-06-26T09:26:39Z</time>
      </trkpt>
      <trkpt lat="48.56604" lon="6.44906">
        <ele>265</ele>
        <time>2017-06-26T09:26:40Z</time>
      </trkpt>
      <trkpt lat="48.56609" lon="6.44909">
        <ele>265</ele>
        <time>2017-06-26T09:26:41Z</time>
      </trkpt>
      <trkpt lat="48.56611" lon="6.4491">
        <ele>265</ele>
        <time>2017-06-26T09:26:42Z</time>
      </trkpt>
      <trkpt lat="48.56613" lon="6.44912">
        <ele>265</ele>
        <time>2017-06-26T09:26:43Z</time>
      </trkpt>
      <trkpt lat="48.56615" lon="6.44913">
        <ele>265</ele>
        <time>2017-06-26T09:26:44Z</time>
      </trkpt>
      <trkpt lat="48.56616" lon="6.44914">
        <ele>264</ele>
        <time>2017-06-26T09:26:45Z</time>
      </trkpt>
      <trkpt lat="48.56618" lon="6.44915">
        <ele>264</ele>
        <time>2017-06-26T09:26:46Z</time>
      </trkpt>
      <trkpt lat="48.56619" lon="6.44916">
        <ele>264</ele>
        <time>2017-06-26T09:26:47Z</time>
      </trkpt>
      <trkpt lat="48.56621" lon="6.44917">
        <ele>264</ele>
        <time>2017-06-26T09:26:48Z</time>
      </trkpt>
      <trkpt lat="48.56622" lon="6.44919">
        <ele>264</ele>
        <time>2017-06-26T09:26:49Z</time>
      </trkpt>
      <trkpt lat="48.56623" lon="6.4492">
        <ele>264</ele>
        <time>2017-06-26T09:26:50Z</time>
      </trkpt>
      <trkpt lat="48.56627" lon="6.44925">
        <ele>264</ele>
        <time>2017-06-26T09:26:51Z</time>
      </trkpt>
      <trkpt lat="48.56628" lon="6.44925">
        <ele>264</ele>
        <time>2017-06-26T09:26:52Z</time>
      </trkpt>
      <trkpt lat="48.56629" lon="6.44925">
        <ele>264</ele>
        <time>2017-06-26T09:26:53Z</time>
      </trkpt>
      <trkpt lat="48.5663" lon="6.44925">
        <ele>263</ele>
        <time>2017-06-26T09:26:55Z</time>
      </trkpt>
      <trkpt lat="48.56631" lon="6.44925">
        <ele>263</ele>
        <time>2017-06-26T09:26:56Z</time>
      </trkpt>
      <trkpt lat="48.56632" lon="6.44925">
        <ele>263</ele>
        <time>2017-06-26T09:26:58Z</time>
      </trkpt>
      <trkpt lat="48.56633" lon="6.44925">
        <ele>263</ele>
        <time>2017-06-26T09:26:59Z</time>
      </trkpt>
      <trkpt lat="48.56638" lon="6.44925">
        <ele>263</ele>
        <time>2017-06-26T09:27:00Z</time>
      </trkpt>
      <trkpt lat="48.56638" lon="6.44924">
        <ele>263</ele>
        <time>2017-06-26T09:27:01Z</time>
      </trkpt>
      <trkpt lat="48.56639" lon="6.44924">
        <ele>263</ele>
        <time>2017-06-26T09:27:02Z</time>
      </trkpt>
      <trkpt lat="48.56639" lon="6.44923">
        <ele>263</ele>
        <time>2017-06-26T09:27:03Z</time>
      </trkpt>
      <trkpt lat="48.56639" lon="6.44922">
        <ele>263</ele>
        <time>2017-06-26T09:27:04Z</time>
      </trkpt>
      <trkpt lat="48.5664" lon="6.44922">
        <ele>263</ele>
        <time>2017-06-26T09:27:05Z</time>
      </trkpt>
      <trkpt lat="48.5664" lon="6.44921">
        <ele>263</ele>
        <time>2017-06-26T09:27:06Z</time>
      </trkpt>
      <trkpt lat="48.56641" lon="6.4492">
        <ele>263</ele>
        <time>2017-06-26T09:27:07Z</time>
      </trkpt>
      <trkpt lat="48.56641" lon="6.44919">
        <ele>263</ele>
        <time>2017-06-26T09:27:08Z</time>
      </trkpt>
      <trkpt lat="48.56644" lon="6.44912">
        <ele>263</ele>
        <time>2017-06-26T09:27:10Z</time>
      </trkpt>
      <trkpt lat="48.56645" lon="6.4491">
        <ele>263</ele>
        <time>2017-06-26T09:27:11Z</time>
      </trkpt>
      <trkpt lat="48.56646" lon="6.44908">
        <ele>263</ele>
        <time>2017-06-26T09:27:12Z</time>
      </trkpt>
      <trkpt lat="48.56647" lon="6.44906">
        <ele>263</ele>
        <time>2017-06-26T09:27:13Z</time>
      </trkpt>
      <trkpt lat="48.56648" lon="6.44903">
        <ele>263</ele>
        <time>2017-06-26T09:27:14Z</time>
      </trkpt>
      <trkpt lat="48.56649" lon="6.44901">
        <ele>263</ele>
        <time>2017-06-26T09:27:15Z</time>
      </trkpt>
      <trkpt lat="48.5665" lon="6.44899">
        <ele>263</ele>
        <time>2017-06-26T09:27:16Z</time>
      </trkpt>
      <trkpt lat="48.5665" lon="6.44897">
        <ele>263</ele>
        <time>2017-06-26T09:27:17Z</time>
      </trkpt>
      <trkpt lat="48.56651" lon="6.44896">
        <ele>263</ele>
        <time>2017-06-26T09:27:18Z</time>
      </trkpt>
      <trkpt lat="48.56652" lon="6.44894">
        <ele>263</ele>
        <time>2017-06-26T09:27:19Z</time>
      </trkpt>
      <trkpt lat="48.56653" lon="6.44893">
        <ele>263</ele>
        <time>2017-06-26T09:27:20Z</time>
      </trkpt>
      <trkpt lat="48.56655" lon="6.44886">
        <ele>263</ele>
        <time>2017-06-26T09:27:21Z</time>
      </trkpt>
      <trkpt lat="48.56656" lon="6.44884">
        <ele>263</ele>
        <time>2017-06-26T09:27:22Z</time>
      </trkpt>
      <trkpt lat="48.56657" lon="6.44882">
        <ele>263</ele>
        <time>2017-06-26T09:27:23Z</time>
      </trkpt>
      <trkpt lat="48.56658" lon="6.4488">
        <ele>263</ele>
        <time>2017-06-26T09:27:24Z</time>
      </trkpt>
      <trkpt lat="48.56659" lon="6.44877">
        <ele>263</ele>
        <time>2017-06-26T09:27:25Z</time>
      </trkpt>
      <trkpt lat="48.5666" lon="6.44875">
        <ele>263</ele>
        <time>2017-06-26T09:27:26Z</time>
      </trkpt>
      <trkpt lat="48.5666" lon="6.44873">
        <ele>263</ele>
        <time>2017-06-26T09:27:27Z</time>
      </trkpt>
      <trkpt lat="48.56661" lon="6.44872">
        <ele>263</ele>
        <time>2017-06-26T09:27:28Z</time>
      </trkpt>
      <trkpt lat="48.56661" lon="6.44871">
        <ele>263</ele>
        <time>2017-06-26T09:27:29Z</time>
      </trkpt>
      <trkpt lat="48.56661" lon="6.4487">
        <ele>263</ele>
        <time>2017-06-26T09:27:30Z</time>
      </trkpt>
      <trkpt lat="48.56662" lon="6.44869">
        <ele>263</ele>
        <time>2017-06-26T09:27:31Z</time>
      </trkpt>
      <trkpt lat="48.56662" lon="6.44868">
        <ele>263</ele>
        <time>2017-06-26T09:27:32Z</time>
      </trkpt>
      <trkpt lat="48.56662" lon="6.44867">
        <ele>263</ele>
        <time>2017-06-26T09:27:33Z</time>
      </trkpt>
      <trkpt lat="48.56662" lon="6.44866">
        <ele>263</ele>
        <time>2017-06-26T09:27:34Z</time>
      </trkpt>
      <trkpt lat="48.56663" lon="6.44865">
        <ele>266</ele>
        <time>2017-06-26T09:27:35Z</time>
      </trkpt>
      <trkpt lat="48.56665" lon="6.44857">
        <ele>266</ele>
        <time>2017-06-26T09:27:36Z</time>
      </trkpt>
      <trkpt lat="48.56665" lon="6.44856">
        <ele>266</ele>
        <time>2017-06-26T09:27:37Z</time>
      </trkpt>
      <trkpt lat="48.56666" lon="6.44855">
        <ele>266</ele>
        <time>2017-06-26T09:27:38Z</time>
      </trkpt>
      <trkpt lat="48.56666" lon="6.44854">
        <ele>266</ele>
        <time>2017-06-26T09:27:39Z</time>
      </trkpt>
      <trkpt lat="48.56666" lon="6.44853">
        <ele>267</ele>
        <time>2017-06-26T09:27:40Z</time>
      </trkpt>
      <trkpt lat="48.56667" lon="6.44852">
        <ele>267</ele>
        <time>2017-06-26T09:27:41Z</time>
      </trkpt>
      <trkpt lat="48.56667" lon="6.4485">
        <ele>267</ele>
        <time>2017-06-26T09:27:42Z</time>
      </trkpt>
      <trkpt lat="48.5667" lon="6.44843">
        <ele>267</ele>
        <time>2017-06-26T09:27:43Z</time>
      </trkpt>
      <trkpt lat="48.5667" lon="6.44842">
        <ele>267</ele>
        <time>2017-06-26T09:27:44Z</time>
      </trkpt>
      <trkpt lat="48.5667" lon="6.4484">
        <ele>269</ele>
        <time>2017-06-26T09:27:45Z</time>
      </trkpt>
      <trkpt lat="48.56671" lon="6.44839">
        <ele>269</ele>
        <time>2017-06-26T09:27:46Z</time>
      </trkpt>
      <trkpt lat="48.56671" lon="6.44837">
        <ele>269</ele>
        <time>2017-06-26T09:27:47Z</time>
      </trkpt>
      <trkpt lat="48.56672" lon="6.44836">
        <ele>269</ele>
        <time>2017-06-26T09:27:48Z</time>
      </trkpt>
      <trkpt lat="48.56674" lon="6.44828">
        <ele>269</ele>
        <time>2017-06-26T09:27:49Z</time>
      </trkpt>
      <trkpt lat="48.56674" lon="6.44827">
        <ele>270</ele>
        <time>2017-06-26T09:27:50Z</time>
      </trkpt>
      <trkpt lat="48.56675" lon="6.44825">
        <ele>270</ele>
        <time>2017-06-26T09:27:51Z</time>
      </trkpt>
      <trkpt lat="48.56675" lon="6.44824">
        <ele>270</ele>
        <time>2017-06-26T09:27:52Z</time>
      </trkpt>
      <trkpt lat="48.56675" lon="6.44823">
        <ele>270</ele>
        <time>2017-06-26T09:27:53Z</time>
      </trkpt>
      <trkpt lat="48.56676" lon="6.44822">
        <ele>270</ele>
        <time>2017-06-26T09:27:54Z</time>
      </trkpt>
      <trkpt lat="48.56676" lon="6.4482">
        <ele>270</ele>
        <time>2017-06-26T09:27:55Z</time>
      </trkpt>
      <trkpt lat="48.56678" lon="6.44813">
        <ele>270</ele>
        <time>2017-06-26T09:27:56Z</time>
      </trkpt>
      <trkpt lat="48.56678" lon="6.44812">
        <ele>270</ele>
        <time>2017-06-26T09:27:57Z</time>
      </trkpt>
      <trkpt lat="48.56679" lon="6.4481">
        <ele>270</ele>
        <time>2017-06-26T09:27:58Z</time>
      </trkpt>
      <trkpt lat="48.56679" lon="6.44809">
        <ele>270</ele>
        <time>2017-06-26T09:27:59Z</time>
      </trkpt>
      <trkpt lat="48.5668" lon="6.44808">
        <ele>270</ele>
        <time>2017-06-26T09:28:00Z</time>
      </trkpt>
      <trkpt lat="48.5668" lon="6.44806">
        <ele>270</ele>
        <time>2017-06-26T09:28:01Z</time>
      </trkpt>
      <trkpt lat="48.56681" lon="6.44805">
        <ele>270</ele>
        <time>2017-06-26T09:28:02Z</time>
      </trkpt>
      <trkpt lat="48.56684" lon="6.44797">
        <ele>270</ele>
        <time>2017-06-26T09:28:03Z</time>
      </trkpt>
      <trkpt lat="48.56684" lon="6.44795">
        <ele>270</ele>
        <time>2017-06-26T09:28:04Z</time>
      </trkpt>
      <trkpt lat="48.56684" lon="6.44794">
        <ele>273</ele>
        <time>2017-06-26T09:28:05Z</time>
      </trkpt>
      <trkpt lat="48.56685" lon="6.44793">
        <ele>273</ele>
        <time>2017-06-26T09:28:06Z</time>
      </trkpt>
      <trkpt lat="48.56685" lon="6.44791">
        <ele>273</ele>
        <time>2017-06-26T09:28:07Z</time>
      </trkpt>
      <trkpt lat="48.56686" lon="6.4479">
        <ele>273</ele>
        <time>2017-06-26T09:28:08Z</time>
      </trkpt>
      <trkpt lat="48.56688" lon="6.44782">
        <ele>273</ele>
        <time>2017-06-26T09:28:09Z</time>
      </trkpt>
      <trkpt lat="48.56688" lon="6.4478">
        <ele>274</ele>
        <time>2017-06-26T09:28:10Z</time>
      </trkpt>
      <trkpt lat="48.56689" lon="6.44779">
        <ele>274</ele>
        <time>2017-06-26T09:28:11Z</time>
      </trkpt>
      <trkpt lat="48.56689" lon="6.44777">
        <ele>274</ele>
        <time>2017-06-26T09:28:12Z</time>
      </trkpt>
      <trkpt lat="48.5669" lon="6.44775">
        <ele>274</ele>
        <time>2017-06-26T09:28:13Z</time>
      </trkpt>
      <trkpt lat="48.56691" lon="6.44767">
        <ele>274</ele>
        <time>2017-06-26T09:28:14Z</time>
      </trkpt>
      <trkpt lat="48.56692" lon="6.44766">
        <ele>275</ele>
        <time>2017-06-26T09:28:15Z</time>
      </trkpt>
      <trkpt lat="48.56692" lon="6.44765">
        <ele>275</ele>
        <time>2017-06-26T09:28:16Z</time>
      </trkpt>
      <trkpt lat="48.56692" lon="6.44764">
        <ele>275</ele>
        <time>2017-06-26T09:28:17Z</time>
      </trkpt>
      <trkpt lat="48.56693" lon="6.44762">
        <ele>275</ele>
        <time>2017-06-26T09:28:18Z</time>
      </trkpt>
      <trkpt lat="48.56693" lon="6.44761">
        <ele>275</ele>
        <time>2017-06-26T09:28:19Z</time>
      </trkpt>
      <trkpt lat="48.56694" lon="6.4476">
        <ele>275</ele>
        <time>2017-06-26T09:28:20Z</time>
      </trkpt>
      <trkpt lat="48.56696" lon="6.44752">
        <ele>275</ele>
        <time>2017-06-26T09:28:21Z</time>
      </trkpt>
      <trkpt lat="48.56696" lon="6.44751">
        <ele>275</ele>
        <time>2017-06-26T09:28:22Z</time>
      </trkpt>
      <trkpt lat="48.56696" lon="6.44749">
        <ele>275</ele>
        <time>2017-06-26T09:28:23Z</time>
      </trkpt>
      <trkpt lat="48.56697" lon="6.44748">
        <ele>275</ele>
        <time>2017-06-26T09:28:24Z</time>
      </trkpt>
      <trkpt lat="48.56697" lon="6.44747">
        <ele>276</ele>
        <time>2017-06-26T09:28:25Z</time>
      </trkpt>
      <trkpt lat="48.56697" lon="6.44745">
        <ele>276</ele>
        <time>2017-06-26T09:28:26Z</time>
      </trkpt>
      <trkpt lat="48.56697" lon="6.44744">
        <ele>276</ele>
        <time>2017-06-26T09:28:27Z</time>
      </trkpt>
      <trkpt lat="48.56699" lon="6.44736">
        <ele>276</ele>
        <time>2017-06-26T09:28:28Z</time>
      </trkpt>
      <trkpt lat="48.56699" lon="6.44734">
        <ele>276</ele>
        <time>2017-06-26T09:28:29Z</time>
      </trkpt>
      <trkpt lat="48.56699" lon="6.44733">
        <ele>276</ele>
        <time>2017-06-26T09:28:30Z</time>
      </trkpt>
      <trkpt lat="48.567" lon="6.44732">
        <ele>276</ele>
        <time>2017-06-26T09:28:31Z</time>
      </trkpt>
      <trkpt lat="48.567" lon="6.4473">
        <ele>276</ele>
        <time>2017-06-26T09:28:32Z</time>
      </trkpt>
      <trkpt lat="48.567" lon="6.44729">
        <ele>276</ele>
        <time>2017-06-26T09:28:33Z</time>
      </trkpt>
      <trkpt lat="48.56701" lon="6.44728">
        <ele>276</ele>
        <time>2017-06-26T09:28:34Z</time>
      </trkpt>
      <trkpt lat="48.56702" lon="6.4472">
        <ele>277</ele>
        <time>2017-06-26T09:28:35Z</time>
      </trkpt>
      <trkpt lat="48.56703" lon="6.44718">
        <ele>277</ele>
        <time>2017-06-26T09:28:36Z</time>
      </trkpt>
      <trkpt lat="48.56704" lon="6.44715">
        <ele>277</ele>
        <time>2017-06-26T09:28:37Z</time>
      </trkpt>
      <trkpt lat="48.56705" lon="6.44713">
        <ele>277</ele>
        <time>2017-06-26T09:28:38Z</time>
      </trkpt>
      <trkpt lat="48.56705" lon="6.44711">
        <ele>277</ele>
        <time>2017-06-26T09:28:39Z</time>
      </trkpt>
      <trkpt lat="48.56706" lon="6.44708">
        <ele>277</ele>
        <time>2017-06-26T09:28:40Z</time>
      </trkpt>
      <trkpt lat="48.56707" lon="6.44706">
        <ele>277</ele>
        <time>2017-06-26T09:28:41Z</time>
      </trkpt>
      <trkpt lat="48.56707" lon="6.44705">
        <ele>277</ele>
        <time>2017-06-26T09:28:42Z</time>
      </trkpt>
      <trkpt lat="48.56708" lon="6.44703">
        <ele>277</ele>
        <time>2017-06-26T09:28:43Z</time>
      </trkpt>
      <trkpt lat="48.56709" lon="6.44701">
        <ele>277</ele>
        <time>2017-06-26T09:28:44Z</time>
      </trkpt>
      <trkpt lat="48.56709" lon="6.447">
        <ele>279</ele>
        <time>2017-06-26T09:28:45Z</time>
      </trkpt>
      <trkpt lat="48.5671" lon="6.44698">
        <ele>279</ele>
        <time>2017-06-26T09:28:46Z</time>
      </trkpt>
      <trkpt lat="48.56712" lon="6.4469">
        <ele>279</ele>
        <time>2017-06-26T09:28:47Z</time>
      </trkpt>
      <trkpt lat="48.56713" lon="6.44689">
        <ele>279</ele>
        <time>2017-06-26T09:28:48Z</time>
      </trkpt>
      <trkpt lat="48.56713" lon="6.44688">
        <ele>279</ele>
        <time>2017-06-26T09:28:49Z</time>
      </trkpt>
      <trkpt lat="48.56713" lon="6.44687">
        <ele>279</ele>
        <time>2017-06-26T09:28:50Z</time>
      </trkpt>
      <trkpt lat="48.56713" lon="6.44686">
        <ele>279</ele>
        <time>2017-06-26T09:28:51Z</time>
      </trkpt>
      <trkpt lat="48.56714" lon="6.44684">
        <ele>279</ele>
        <time>2017-06-26T09:28:52Z</time>
      </trkpt>
      <trkpt lat="48.56714" lon="6.44683">
        <ele>279</ele>
        <time>2017-06-26T09:28:53Z</time>
      </trkpt>
      <trkpt lat="48.56714" lon="6.44682">
        <ele>279</ele>
        <time>2017-06-26T09:28:54Z</time>
      </trkpt>
      <trkpt lat="48.56716" lon="6.44675">
        <ele>281</ele>
        <time>2017-06-26T09:28:55Z</time>
      </trkpt>
      <trkpt lat="48.56717" lon="6.44674">
        <ele>281</ele>
        <time>2017-06-26T09:28:56Z</time>
      </trkpt>
      <trkpt lat="48.56717" lon="6.44673">
        <ele>281</ele>
        <time>2017-06-26T09:28:57Z</time>
      </trkpt>
      <trkpt lat="48.56717" lon="6.44672">
        <ele>281</ele>
        <time>2017-06-26T09:28:58Z</time>
      </trkpt>
      <trkpt lat="48.56718" lon="6.4467">
        <ele>281</ele>
        <time>2017-06-26T09:28:59Z</time>
      </trkpt>
      <trkpt lat="48.56718" lon="6.44669">
        <ele>281</ele>
        <time>2017-06-26T09:29:00Z</time>
      </trkpt>
      <trkpt lat="48.56719" lon="6.44668">
        <ele>281</ele>
        <time>2017-06-26T09:29:01Z</time>
      </trkpt>
      <trkpt lat="48.56719" lon="6.44667">
        <ele>281</ele>
        <time>2017-06-26T09:29:02Z</time>
      </trkpt>
      <trkpt lat="48.56722" lon="6.44659">
        <ele>281</ele>
        <time>2017-06-26T09:29:03Z</time>
      </trkpt>
      <trkpt lat="48.56722" lon="6.44658">
        <ele>281</ele>
        <time>2017-06-26T09:29:04Z</time>
      </trkpt>
      <trkpt lat="48.56723" lon="6.44657">
        <ele>282</ele>
        <time>2017-06-26T09:29:05Z</time>
      </trkpt>
      <trkpt lat="48.56723" lon="6.44656">
        <ele>282</ele>
        <time>2017-06-26T09:29:06Z</time>
      </trkpt>
      <trkpt lat="48.56724" lon="6.44655">
        <ele>282</ele>
        <time>2017-06-26T09:29:07Z</time>
      </trkpt>
      <trkpt lat="48.56724" lon="6.44654">
        <ele>282</ele>
        <time>2017-06-26T09:29:08Z</time>
      </trkpt>
      <trkpt lat="48.56724" lon="6.44653">
        <ele>282</ele>
        <time>2017-06-26T09:29:09Z</time>
      </trkpt>
      <trkpt lat="48.56725" lon="6.44652">
        <ele>282</ele>
        <time>2017-06-26T09:29:10Z</time>
      </trkpt>
      <trkpt lat="48.56727" lon="6.44645">
        <ele>282</ele>
        <time>2017-06-26T09:29:11Z</time>
      </trkpt>
      <trkpt lat="48.56728" lon="6.44642">
        <ele>282</ele>
        <time>2017-06-26T09:29:12Z</time>
      </trkpt>
      <trkpt lat="48.56728" lon="6.4464">
        <ele>282</ele>
        <time>2017-06-26T09:29:13Z</time>
      </trkpt>
      <trkpt lat="48.56729" lon="6.44637">
        <ele>282</ele>
        <time>2017-06-26T09:29:14Z</time>
      </trkpt>
      <trkpt lat="48.5673" lon="6.44635">
        <ele>283</ele>
        <time>2017-06-26T09:29:15Z</time>
      </trkpt>
      <trkpt lat="48.5673" lon="6.44632">
        <ele>283</ele>
        <time>2017-06-26T09:29:16Z</time>
      </trkpt>
      <trkpt lat="48.56731" lon="6.4463">
        <ele>283</ele>
        <time>2017-06-26T09:29:17Z</time>
      </trkpt>
      <trkpt lat="48.56731" lon="6.44628">
        <ele>283</ele>
        <time>2017-06-26T09:29:18Z</time>
      </trkpt>
      <trkpt lat="48.56732" lon="6.44626">
        <ele>283</ele>
        <time>2017-06-26T09:29:19Z</time>
      </trkpt>
      <trkpt lat="48.56732" lon="6.44624">
        <ele>283</ele>
        <time>2017-06-26T09:29:20Z</time>
      </trkpt>
      <trkpt lat="48.56732" lon="6.44622">
        <ele>283</ele>
        <time>2017-06-26T09:29:21Z</time>
      </trkpt>
      <trkpt lat="48.56734" lon="6.44614">
        <ele>283</ele>
        <time>2017-06-26T09:29:22Z</time>
      </trkpt>
      <trkpt lat="48.56735" lon="6.44611">
        <ele>283</ele>
        <time>2017-06-26T09:29:23Z</time>
      </trkpt>
      <trkpt lat="48.56735" lon="6.44609">
        <ele>283</ele>
        <time>2017-06-26T09:29:24Z</time>
      </trkpt>
      <trkpt lat="48.56736" lon="6.44607">
        <ele>283</ele>
        <time>2017-06-26T09:29:25Z</time>
      </trkpt>
      <trkpt lat="48.56737" lon="6.44604">
        <ele>283</ele>
        <time>2017-06-26T09:29:26Z</time>
      </trkpt>
      <trkpt lat="48.56737" lon="6.44602">
        <ele>283</ele>
        <time>2017-06-26T09:29:27Z</time>
      </trkpt>
      <trkpt lat="48.56738" lon="6.446">
        <ele>283</ele>
        <time>2017-06-26T09:29:28Z</time>
      </trkpt>
      <trkpt lat="48.56739" lon="6.44598">
        <ele>283</ele>
        <time>2017-06-26T09:29:29Z</time>
      </trkpt>
      <trkpt lat="48.56739" lon="6.44597">
        <ele>283</ele>
        <time>2017-06-26T09:29:30Z</time>
      </trkpt>
      <trkpt lat="48.56739" lon="6.44595">
        <ele>283</ele>
        <time>2017-06-26T09:29:31Z</time>
      </trkpt>
      <trkpt lat="48.5674" lon="6.44593">
        <ele>283</ele>
        <time>2017-06-26T09:29:32Z</time>
      </trkpt>
      <trkpt lat="48.5674" lon="6.44592">
        <ele>283</ele>
        <time>2017-06-26T09:29:33Z</time>
      </trkpt>
      <trkpt lat="48.56742" lon="6.44584">
        <ele>283</ele>
        <time>2017-06-26T09:29:34Z</time>
      </trkpt>
      <trkpt lat="48.56743" lon="6.44582">
        <ele>284</ele>
        <time>2017-06-26T09:29:35Z</time>
      </trkpt>
      <trkpt lat="48.56744" lon="6.4458">
        <ele>284</ele>
        <time>2017-06-26T09:29:36Z</time>
      </trkpt>
      <trkpt lat="48.56744" lon="6.44579">
        <ele>284</ele>
        <time>2017-06-26T09:29:37Z</time>
      </trkpt>
      <trkpt lat="48.56745" lon="6.44577">
        <ele>284</ele>
        <time>2017-06-26T09:29:38Z</time>
      </trkpt>
      <trkpt lat="48.56748" lon="6.44569">
        <ele>284</ele>
        <time>2017-06-26T09:29:39Z</time>
      </trkpt>
      <trkpt lat="48.56748" lon="6.44567">
        <ele>284</ele>
        <time>2017-06-26T09:29:40Z</time>
      </trkpt>
      <trkpt lat="48.56748" lon="6.44565">
        <ele>284</ele>
        <time>2017-06-26T09:29:41Z</time>
      </trkpt>
      <trkpt lat="48.56748" lon="6.44563">
        <ele>284</ele>
        <time>2017-06-26T09:29:42Z</time>
      </trkpt>
      <trkpt lat="48.56748" lon="6.44561">
        <ele>284</ele>
        <time>2017-06-26T09:29:43Z</time>
      </trkpt>
      <trkpt lat="48.56748" lon="6.44558">
        <ele>284</ele>
        <time>2017-06-26T09:29:44Z</time>
      </trkpt>
      <trkpt lat="48.56748" lon="6.44556">
        <ele>285</ele>
        <time>2017-06-26T09:29:45Z</time>
      </trkpt>
      <trkpt lat="48.56748" lon="6.44554">
        <ele>285</ele>
        <time>2017-06-26T09:29:46Z</time>
      </trkpt>
      <trkpt lat="48.56747" lon="6.44553">
        <ele>285</ele>
        <time>2017-06-26T09:29:47Z</time>
      </trkpt>
      <trkpt lat="48.56746" lon="6.44552">
        <ele>285</ele>
        <time>2017-06-26T09:29:49Z</time>
      </trkpt>
      <trkpt lat="48.56746" lon="6.44551">
        <ele>285</ele>
        <time>2017-06-26T09:29:50Z</time>
      </trkpt>
      <trkpt lat="48.56745" lon="6.44551">
        <ele>285</ele>
        <time>2017-06-26T09:29:51Z</time>
      </trkpt>
      <trkpt lat="48.56745" lon="6.4455">
        <ele>285</ele>
        <time>2017-06-26T09:29:52Z</time>
      </trkpt>
      <trkpt lat="48.56744" lon="6.44549">
        <ele>285</ele>
        <time>2017-06-26T09:29:53Z</time>
      </trkpt>
      <trkpt lat="48.56743" lon="6.44549">
        <ele>285</ele>
        <time>2017-06-26T09:29:54Z</time>
      </trkpt>
      <trkpt lat="48.56739" lon="6.44543">
        <ele>285</ele>
        <time>2017-06-26T09:29:55Z</time>
      </trkpt>
      <trkpt lat="48.56738" lon="6.44543">
        <ele>285</ele>
        <time>2017-06-26T09:29:56Z</time>
      </trkpt>
      <trkpt lat="48.56738" lon="6.44542">
        <ele>285</ele>
        <time>2017-06-26T09:29:57Z</time>
      </trkpt>
      <trkpt lat="48.56737" lon="6.44542">
        <ele>285</ele>
        <time>2017-06-26T09:29:58Z</time>
      </trkpt>
      <trkpt lat="48.56736" lon="6.44541">
        <ele>285</ele>
        <time>2017-06-26T09:29:59Z</time>
      </trkpt>
      <trkpt lat="48.56735" lon="6.44541">
        <ele>285</ele>
        <time>2017-06-26T09:30:00Z</time>
      </trkpt>
      <trkpt lat="48.56734" lon="6.4454">
        <ele>285</ele>
        <time>2017-06-26T09:30:01Z</time>
      </trkpt>
      <trkpt lat="48.56729" lon="6.44537">
        <ele>285</ele>
        <time>2017-06-26T09:30:02Z</time>
      </trkpt>
      <trkpt lat="48.56728" lon="6.44536">
        <ele>285</ele>
        <time>2017-06-26T09:30:03Z</time>
      </trkpt>
      <trkpt lat="48.56726" lon="6.44535">
        <ele>285</ele>
        <time>2017-06-26T09:30:04Z</time>
      </trkpt>
      <trkpt lat="48.56725" lon="6.44534">
        <ele>284</ele>
        <time>2017-06-26T09:30:05Z</time>
      </trkpt>
      <trkpt lat="48.56723" lon="6.44533">
        <ele>284</ele>
        <time>2017-06-26T09:30:06Z</time>
      </trkpt>
      <trkpt lat="48.56721" lon="6.44532">
        <ele>284</ele>
        <time>2017-06-26T09:30:07Z</time>
      </trkpt>
      <trkpt lat="48.5672" lon="6.44531">
        <ele>284</ele>
        <time>2017-06-26T09:30:08Z</time>
      </trkpt>
      <trkpt lat="48.56719" lon="6.4453">
        <ele>284</ele>
        <time>2017-06-26T09:30:09Z</time>
      </trkpt>
      <trkpt lat="48.56717" lon="6.44529">
        <ele>284</ele>
        <time>2017-06-26T09:30:10Z</time>
      </trkpt>
      <trkpt lat="48.56716" lon="6.44529">
        <ele>284</ele>
        <time>2017-06-26T09:30:11Z</time>
      </trkpt>
      <trkpt lat="48.56715" lon="6.44528">
        <ele>284</ele>
        <time>2017-06-26T09:30:12Z</time>
      </trkpt>
      <trkpt lat="48.56714" lon="6.44528">
        <ele>284</ele>
        <time>2017-06-26T09:30:13Z</time>
      </trkpt>
      <trkpt lat="48.56709" lon="6.44524">
        <ele>284</ele>
        <time>2017-06-26T09:30:14Z</time>
      </trkpt>
      <trkpt lat="48.56707" lon="6.44524">
        <ele>284</ele>
        <time>2017-06-26T09:30:15Z</time>
      </trkpt>
      <trkpt lat="48.56706" lon="6.44523">
        <ele>284</ele>
        <time>2017-06-26T09:30:16Z</time>
      </trkpt>
      <trkpt lat="48.56705" lon="6.44522">
        <ele>284</ele>
        <time>2017-06-26T09:30:17Z</time>
      </trkpt>
      <trkpt lat="48.56703" lon="6.44521">
        <ele>284</ele>
        <time>2017-06-26T09:30:18Z</time>
      </trkpt>
      <trkpt lat="48.56698" lon="6.44517">
        <ele>284</ele>
        <time>2017-06-26T09:30:19Z</time>
      </trkpt>
      <trkpt lat="48.56697" lon="6.44516">
        <ele>284</ele>
        <time>2017-06-26T09:30:20Z</time>
      </trkpt>
      <trkpt lat="48.56696" lon="6.44514">
        <ele>284</ele>
        <time>2017-06-26T09:30:21Z</time>
      </trkpt>
      <trkpt lat="48.56696" lon="6.44512">
        <ele>284</ele>
        <time>2017-06-26T09:30:22Z</time>
      </trkpt>
      <trkpt lat="48.56695" lon="6.44511">
        <ele>284</ele>
        <time>2017-06-26T09:30:23Z</time>
      </trkpt>
      <trkpt lat="48.56692" lon="6.44504">
        <ele>284</ele>
        <time>2017-06-26T09:30:24Z</time>
      </trkpt>
      <trkpt lat="48.56692" lon="6.44502">
        <ele>283</ele>
        <time>2017-06-26T09:30:25Z</time>
      </trkpt>
      <trkpt lat="48.56693" lon="6.44501">
        <ele>283</ele>
        <time>2017-06-26T09:30:26Z</time>
      </trkpt>
      <trkpt lat="48.56693" lon="6.44499">
        <ele>283</ele>
        <time>2017-06-26T09:30:27Z</time>
      </trkpt>
      <trkpt lat="48.56693" lon="6.44498">
        <ele>283</ele>
        <time>2017-06-26T09:30:28Z</time>
      </trkpt>
      <trkpt lat="48.56693" lon="6.44496">
        <ele>283</ele>
        <time>2017-06-26T09:30:29Z</time>
      </trkpt>
      <trkpt lat="48.56694" lon="6.44488">
        <ele>283</ele>
        <time>2017-06-26T09:30:30Z</time>
      </trkpt>
      <trkpt lat="48.56695" lon="6.44487">
        <ele>283</ele>
        <time>2017-06-26T09:30:31Z</time>
      </trkpt>
      <trkpt lat="48.56695" lon="6.44486">
        <ele>283</ele>
        <time>2017-06-26T09:30:32Z</time>
      </trkpt>
      <trkpt lat="48.56696" lon="6.44484">
        <ele>283</ele>
        <time>2017-06-26T09:30:33Z</time>
      </trkpt>
      <trkpt lat="48.56696" lon="6.44483">
        <ele>283</ele>
        <time>2017-06-26T09:30:34Z</time>
      </trkpt>
      <trkpt lat="48.56696" lon="6.44481">
        <ele>284</ele>
        <time>2017-06-26T09:30:35Z</time>
      </trkpt>
      <trkpt lat="48.56697" lon="6.4448">
        <ele>284</ele>
        <time>2017-06-26T09:30:36Z</time>
      </trkpt>
      <trkpt lat="48.56699" lon="6.44472">
        <ele>284</ele>
        <time>2017-06-26T09:30:37Z</time>
      </trkpt>
      <trkpt lat="48.56699" lon="6.4447">
        <ele>284</ele>
        <time>2017-06-26T09:30:38Z</time>
      </trkpt>
      <trkpt lat="48.567" lon="6.44468">
        <ele>284</ele>
        <time>2017-06-26T09:30:39Z</time>
      </trkpt>
      <trkpt lat="48.567" lon="6.44466">
        <ele>284</ele>
        <time>2017-06-26T09:30:40Z</time>
      </trkpt>
      <trkpt lat="48.56701" lon="6.44464">
        <ele>284</ele>
        <time>2017-06-26T09:30:41Z</time>
      </trkpt>
      <trkpt lat="48.56703" lon="6.44457">
        <ele>284</ele>
        <time>2017-06-26T09:30:42Z</time>
      </trkpt>
      <trkpt lat="48.56704" lon="6.44455">
        <ele>284</ele>
        <time>2017-06-26T09:30:43Z</time>
      </trkpt>
      <trkpt lat="48.56704" lon="6.44453">
        <ele>284</ele>
        <time>2017-06-26T09:30:44Z</time>
      </trkpt>
      <trkpt lat="48.56705" lon="6.44451">
        <ele>284</ele>
        <time>2017-06-26T09:30:45Z</time>
      </trkpt>
      <trkpt lat="48.56705" lon="6.44449">
        <ele>284</ele>
        <time>2017-06-26T09:30:46Z</time>
      </trkpt>
      <trkpt lat="48.56708" lon="6.44441">
        <ele>284</ele>
        <time>2017-06-26T09:30:47Z</time>
      </trkpt>
      <trkpt lat="48.56708" lon="6.44438">
        <ele>284</ele>
        <time>2017-06-26T09:30:48Z</time>
      </trkpt>
      <trkpt lat="48.56709" lon="6.44436">
        <ele>284</ele>
        <time>2017-06-26T09:30:49Z</time>
      </trkpt>
      <trkpt lat="48.5671" lon="6.44434">
        <ele>284</ele>
        <time>2017-06-26T09:30:50Z</time>
      </trkpt>
      <trkpt lat="48.56712" lon="6.44427">
        <ele>284</ele>
        <time>2017-06-26T09:30:51Z</time>
      </trkpt>
      <trkpt lat="48.56713" lon="6.44424">
        <ele>284</ele>
        <time>2017-06-26T09:30:52Z</time>
      </trkpt>
      <trkpt lat="48.56714" lon="6.44421">
        <ele>284</ele>
        <time>2017-06-26T09:30:53Z</time>
      </trkpt>
      <trkpt lat="48.56715" lon="6.44419">
        <ele>284</ele>
        <time>2017-06-26T09:30:54Z</time>
      </trkpt>
      <trkpt lat="48.56716" lon="6.44416">
        <ele>285</ele>
        <time>2017-06-26T09:30:55Z</time>
      </trkpt>
      <trkpt lat="48.56717" lon="6.44413">
        <ele>285</ele>
        <time>2017-06-26T09:30:56Z</time>
      </trkpt>
      <trkpt lat="48.56718" lon="6.44411">
        <ele>285</ele>
        <time>2017-06-26T09:30:57Z</time>
      </trkpt>
      <trkpt lat="48.56719" lon="6.44408">
        <ele>285</ele>
        <time>2017-06-26T09:30:58Z</time>
      </trkpt>
      <trkpt lat="48.5672" lon="6.44405">
        <ele>285</ele>
        <time>2017-06-26T09:30:59Z</time>
      </trkpt>
      <trkpt lat="48.56721" lon="6.44403">
        <ele>285</ele>
        <time>2017-06-26T09:31:00Z</time>
      </trkpt>
      <trkpt lat="48.56722" lon="6.444">
        <ele>285</ele>
        <time>2017-06-26T09:31:01Z</time>
      </trkpt>
      <trkpt lat="48.56723" lon="6.44399">
        <ele>285</ele>
        <time>2017-06-26T09:31:02Z</time>
      </trkpt>
      <trkpt lat="48.56723" lon="6.44397">
        <ele>285</ele>
        <time>2017-06-26T09:31:03Z</time>
      </trkpt>
      <trkpt lat="48.56724" lon="6.44396">
        <ele>285</ele>
        <time>2017-06-26T09:31:04Z</time>
      </trkpt>
      <trkpt lat="48.56724" lon="6.44394">
        <ele>285</ele>
        <time>2017-06-26T09:31:05Z</time>
      </trkpt>
      <trkpt lat="48.56725" lon="6.44393">
        <ele>285</ele>
        <time>2017-06-26T09:31:06Z</time>
      </trkpt>
      <trkpt lat="48.56727" lon="6.44385">
        <ele>285</ele>
        <time>2017-06-26T09:31:07Z</time>
      </trkpt>
      <trkpt lat="48.56727" lon="6.44383">
        <ele>285</ele>
        <time>2017-06-26T09:31:08Z</time>
      </trkpt>
      <trkpt lat="48.56728" lon="6.4438">
        <ele>285</ele>
        <time>2017-06-26T09:31:09Z</time>
      </trkpt>
      <trkpt lat="48.56729" lon="6.44378">
        <ele>285</ele>
        <time>2017-06-26T09:31:10Z</time>
      </trkpt>
      <trkpt lat="48.56731" lon="6.44371">
        <ele>285</ele>
        <time>2017-06-26T09:31:11Z</time>
      </trkpt>
      <trkpt lat="48.56731" lon="6.44369">
        <ele>285</ele>
        <time>2017-06-26T09:31:12Z</time>
      </trkpt>
      <trkpt lat="48.56732" lon="6.44367">
        <ele>285</ele>
        <time>2017-06-26T09:31:13Z</time>
      </trkpt>
      <trkpt lat="48.56733" lon="6.44365">
        <ele>285</ele>
        <time>2017-06-26T09:31:14Z</time>
      </trkpt>
      <trkpt lat="48.56733" lon="6.44363">
        <ele>285</ele>
        <time>2017-06-26T09:31:15Z</time>
      </trkpt>
      <trkpt lat="48.56735" lon="6.44355">
        <ele>285</ele>
        <time>2017-06-26T09:31:16Z</time>
      </trkpt>
      <trkpt lat="48.56736" lon="6.44353">
        <ele>285</ele>
        <time>2017-06-26T09:31:17Z</time>
      </trkpt>
      <trkpt lat="48.56737" lon="6.44352">
        <ele>285</ele>
        <time>2017-06-26T09:31:18Z</time>
      </trkpt>
      <trkpt lat="48.56737" lon="6.4435">
        <ele>285</ele>
        <time>2017-06-26T09:31:19Z</time>
      </trkpt>
      <trkpt lat="48.56738" lon="6.44348">
        <ele>285</ele>
        <time>2017-06-26T09:31:20Z</time>
      </trkpt>
      <trkpt lat="48.56741" lon="6.4434">
        <ele>285</ele>
        <time>2017-06-26T09:31:21Z</time>
      </trkpt>
      <trkpt lat="48.56741" lon="6.44338">
        <ele>285</ele>
        <time>2017-06-26T09:31:22Z</time>
      </trkpt>
      <trkpt lat="48.56742" lon="6.44337">
        <ele>285</ele>
        <time>2017-06-26T09:31:23Z</time>
      </trkpt>
      <trkpt lat="48.56742" lon="6.44335">
        <ele>285</ele>
        <time>2017-06-26T09:31:24Z</time>
      </trkpt>
      <trkpt lat="48.56743" lon="6.44333">
        <ele>285</ele>
        <time>2017-06-26T09:31:25Z</time>
      </trkpt>
      <trkpt lat="48.56743" lon="6.44332">
        <ele>285</ele>
        <time>2017-06-26T09:31:26Z</time>
      </trkpt>
      <trkpt lat="48.56746" lon="6.44324">
        <ele>285</ele>
        <time>2017-06-26T09:31:27Z</time>
      </trkpt>
      <trkpt lat="48.56746" lon="6.44322">
        <ele>285</ele>
        <time>2017-06-26T09:31:28Z</time>
      </trkpt>
      <trkpt lat="48.56747" lon="6.4432">
        <ele>285</ele>
        <time>2017-06-26T09:31:29Z</time>
      </trkpt>
      <trkpt lat="48.56747" lon="6.44318">
        <ele>285</ele>
        <time>2017-06-26T09:31:30Z</time>
      </trkpt>
      <trkpt lat="48.56748" lon="6.44317">
        <ele>285</ele>
        <time>2017-06-26T09:31:31Z</time>
      </trkpt>
      <trkpt lat="48.5675" lon="6.44309">
        <ele>285</ele>
        <time>2017-06-26T09:31:32Z</time>
      </trkpt>
      <trkpt lat="48.56751" lon="6.44308">
        <ele>285</ele>
        <time>2017-06-26T09:31:33Z</time>
      </trkpt>
      <trkpt lat="48.56752" lon="6.44306">
        <ele>285</ele>
        <time>2017-06-26T09:31:34Z</time>
      </trkpt>
      <trkpt lat="48.56752" lon="6.44304">
        <ele>285</ele>
        <time>2017-06-26T09:31:35Z</time>
      </trkpt>
      <trkpt lat="48.56753" lon="6.44302">
        <ele>285</ele>
        <time>2017-06-26T09:31:36Z</time>
      </trkpt>
      <trkpt lat="48.56755" lon="6.44295">
        <ele>285</ele>
        <time>2017-06-26T09:31:37Z</time>
      </trkpt>
      <trkpt lat="48.56755" lon="6.44293">
        <ele>285</ele>
        <time>2017-06-26T09:31:38Z</time>
      </trkpt>
      <trkpt lat="48.56756" lon="6.44291">
        <ele>285</ele>
        <time>2017-06-26T09:31:39Z</time>
      </trkpt>
      <trkpt lat="48.56756" lon="6.44289">
        <ele>285</ele>
        <time>2017-06-26T09:31:40Z</time>
      </trkpt>
      <trkpt lat="48.56757" lon="6.44287">
        <ele>285</ele>
        <time>2017-06-26T09:31:41Z</time>
      </trkpt>
      <trkpt lat="48.56758" lon="6.44279">
        <ele>285</ele>
        <time>2017-06-26T09:31:42Z</time>
      </trkpt>
      <trkpt lat="48.56759" lon="6.44275">
        <ele>285</ele>
        <time>2017-06-26T09:31:43Z</time>
      </trkpt>
      <trkpt lat="48.5676" lon="6.44272">
        <ele>285</ele>
        <time>2017-06-26T09:31:44Z</time>
      </trkpt>
      <trkpt lat="48.56761" lon="6.44268">
        <ele>285</ele>
        <time>2017-06-26T09:31:45Z</time>
      </trkpt>
      <trkpt lat="48.56762" lon="6.44265">
        <ele>285</ele>
        <time>2017-06-26T09:31:46Z</time>
      </trkpt>
      <trkpt lat="48.56762" lon="6.44263">
        <ele>285</ele>
        <time>2017-06-26T09:31:47Z</time>
      </trkpt>
      <trkpt lat="48.56763" lon="6.44261">
        <ele>285</ele>
        <time>2017-06-26T09:31:48Z</time>
      </trkpt>
      <trkpt lat="48.56764" lon="6.44259">
        <ele>285</ele>
        <time>2017-06-26T09:31:49Z</time>
      </trkpt>
      <trkpt lat="48.56765" lon="6.44257">
        <ele>285</ele>
        <time>2017-06-26T09:31:50Z</time>
      </trkpt>
      <trkpt lat="48.56767" lon="6.4425">
        <ele>285</ele>
        <time>2017-06-26T09:31:51Z</time>
      </trkpt>
      <trkpt lat="48.56768" lon="6.44247">
        <ele>285</ele>
        <time>2017-06-26T09:31:52Z</time>
      </trkpt>
      <trkpt lat="48.56769" lon="6.44245">
        <ele>285</ele>
        <time>2017-06-26T09:31:53Z</time>
      </trkpt>
      <trkpt lat="48.5677" lon="6.44242">
        <ele>285</ele>
        <time>2017-06-26T09:31:54Z</time>
      </trkpt>
      <trkpt lat="48.56772" lon="6.44235">
        <ele>285</ele>
        <time>2017-06-26T09:31:55Z</time>
      </trkpt>
      <trkpt lat="48.56773" lon="6.44233">
        <ele>285</ele>
        <time>2017-06-26T09:31:56Z</time>
      </trkpt>
      <trkpt lat="48.56774" lon="6.4423">
        <ele>285</ele>
        <time>2017-06-26T09:31:57Z</time>
      </trkpt>
      <trkpt lat="48.56775" lon="6.44227">
        <ele>285</ele>
        <time>2017-06-26T09:31:58Z</time>
      </trkpt>
      <trkpt lat="48.56778" lon="6.44219">
        <ele>285</ele>
        <time>2017-06-26T09:31:59Z</time>
      </trkpt>
      <trkpt lat="48.56778" lon="6.44217">
        <ele>285</ele>
        <time>2017-06-26T09:32:00Z</time>
      </trkpt>
      <trkpt lat="48.56779" lon="6.44214">
        <ele>285</ele>
        <time>2017-06-26T09:32:01Z</time>
      </trkpt>
      <trkpt lat="48.5678" lon="6.44211">
        <ele>285</ele>
        <time>2017-06-26T09:32:02Z</time>
      </trkpt>
      <trkpt lat="48.56781" lon="6.44208">
        <ele>285</ele>
        <time>2017-06-26T09:32:03Z</time>
      </trkpt>
      <trkpt lat="48.56781" lon="6.44206">
        <ele>285</ele>
        <time>2017-06-26T09:32:04Z</time>
      </trkpt>
      <trkpt lat="48.56782" lon="6.44204">
        <ele>284</ele>
        <time>2017-06-26T09:32:05Z</time>
      </trkpt>
      <trkpt lat="48.56783" lon="6.44202">
        <ele>284</ele>
        <time>2017-06-26T09:32:06Z</time>
      </trkpt>
      <trkpt lat="48.56783" lon="6.442">
        <ele>284</ele>
        <time>2017-06-26T09:32:07Z</time>
      </trkpt>
      <trkpt lat="48.56784" lon="6.44198">
        <ele>284</ele>
        <time>2017-06-26T09:32:08Z</time>
      </trkpt>
      <trkpt lat="48.56786" lon="6.4419">
        <ele>284</ele>
        <time>2017-06-26T09:32:09Z</time>
      </trkpt>
      <trkpt lat="48.56786" lon="6.44188">
        <ele>284</ele>
        <time>2017-06-26T09:32:10Z</time>
      </trkpt>
      <trkpt lat="48.56787" lon="6.44185">
        <ele>284</ele>
        <time>2017-06-26T09:32:11Z</time>
      </trkpt>
      <trkpt lat="48.56788" lon="6.44183">
        <ele>284</ele>
        <time>2017-06-26T09:32:12Z</time>
      </trkpt>
      <trkpt lat="48.56789" lon="6.44176">
        <ele>284</ele>
        <time>2017-06-26T09:32:13Z</time>
      </trkpt>
      <trkpt lat="48.5679" lon="6.44172">
        <ele>284</ele>
        <time>2017-06-26T09:32:14Z</time>
      </trkpt>
      <trkpt lat="48.56791" lon="6.44168">
        <ele>284</ele>
        <time>2017-06-26T09:32:15Z</time>
      </trkpt>
      <trkpt lat="48.56792" lon="6.44165">
        <ele>284</ele>
        <time>2017-06-26T09:32:16Z</time>
      </trkpt>
      <trkpt lat="48.56792" lon="6.44161">
        <ele>284</ele>
        <time>2017-06-26T09:32:17Z</time>
      </trkpt>
      <trkpt lat="48.56793" lon="6.44157">
        <ele>284</ele>
        <time>2017-06-26T09:32:18Z</time>
      </trkpt>
      <trkpt lat="48.56794" lon="6.44154">
        <ele>284</ele>
        <time>2017-06-26T09:32:19Z</time>
      </trkpt>
      <trkpt lat="48.56795" lon="6.4415">
        <ele>284</ele>
        <time>2017-06-26T09:32:20Z</time>
      </trkpt>
      <trkpt lat="48.56795" lon="6.44146">
        <ele>284</ele>
        <time>2017-06-26T09:32:21Z</time>
      </trkpt>
      <trkpt lat="48.56796" lon="6.44145">
        <ele>284</ele>
        <time>2017-06-26T09:32:22Z</time>
      </trkpt>
      <trkpt lat="48.56797" lon="6.44143">
        <ele>284</ele>
        <time>2017-06-26T09:32:23Z</time>
      </trkpt>
      <trkpt lat="48.56798" lon="6.44142">
        <ele>284</ele>
        <time>2017-06-26T09:32:24Z</time>
      </trkpt>
      <trkpt lat="48.56799" lon="6.4414">
        <ele>283</ele>
        <time>2017-06-26T09:32:25Z</time>
      </trkpt>
      <trkpt lat="48.56804" lon="6.44134">
        <ele>283</ele>
        <time>2017-06-26T09:32:26Z</time>
      </trkpt>
      <trkpt lat="48.56805" lon="6.44135">
        <ele>283</ele>
        <time>2017-06-26T09:32:27Z</time>
      </trkpt>
      <trkpt lat="48.56807" lon="6.44135">
        <ele>283</ele>
        <time>2017-06-26T09:32:28Z</time>
      </trkpt>
      <trkpt lat="48.56809" lon="6.44135">
        <ele>283</ele>
        <time>2017-06-26T09:32:29Z</time>
      </trkpt>
      <trkpt lat="48.56815" lon="6.44136">
        <ele>283</ele>
        <time>2017-06-26T09:32:30Z</time>
      </trkpt>
      <trkpt lat="48.56817" lon="6.44137">
        <ele>283</ele>
        <time>2017-06-26T09:32:31Z</time>
      </trkpt>
      <trkpt lat="48.56819" lon="6.44138">
        <ele>283</ele>
        <time>2017-06-26T09:32:32Z</time>
      </trkpt>
      <trkpt lat="48.56821" lon="6.44139">
        <ele>283</ele>
        <time>2017-06-26T09:32:33Z</time>
      </trkpt>
      <trkpt lat="48.56826" lon="6.44141">
        <ele>283</ele>
        <time>2017-06-26T09:32:34Z</time>
      </trkpt>
      <trkpt lat="48.56829" lon="6.44142">
        <ele>283</ele>
        <time>2017-06-26T09:32:35Z</time>
      </trkpt>
      <trkpt lat="48.56831" lon="6.44143">
        <ele>283</ele>
        <time>2017-06-26T09:32:36Z</time>
      </trkpt>
      <trkpt lat="48.56834" lon="6.44145">
        <ele>283</ele>
        <time>2017-06-26T09:32:37Z</time>
      </trkpt>
      <trkpt lat="48.56836" lon="6.44146">
        <ele>283</ele>
        <time>2017-06-26T09:32:38Z</time>
      </trkpt>
      <trkpt lat="48.56836" lon="6.44145">
        <ele>283</ele>
        <time>2017-06-26T09:32:39Z</time>
      </trkpt>
      <trkpt lat="48.56837" lon="6.44144">
        <ele>283</ele>
        <time>2017-06-26T09:32:40Z</time>
      </trkpt>
      <trkpt lat="48.56837" lon="6.44143">
        <ele>283</ele>
        <time>2017-06-26T09:32:41Z</time>
      </trkpt>
      <trkpt lat="48.56838" lon="6.44142">
        <ele>283</ele>
        <time>2017-06-26T09:32:42Z</time>
      </trkpt>
      <trkpt lat="48.56838" lon="6.44141">
        <ele>283</ele>
        <time>2017-06-26T09:32:43Z</time>
      </trkpt>
      <trkpt lat="48.56839" lon="6.44141">
        <ele>283</ele>
        <time>2017-06-26T09:32:44Z</time>
      </trkpt>
      <trkpt lat="48.56839" lon="6.4414">
        <ele>283</ele>
        <time>2017-06-26T09:32:45Z</time>
      </trkpt>
      <trkpt lat="48.56839" lon="6.44139">
        <ele>283</ele>
        <time>2017-06-26T09:32:46Z</time>
      </trkpt>
      <trkpt lat="48.56843" lon="6.44133">
        <ele>283</ele>
        <time>2017-06-26T09:32:47Z</time>
      </trkpt>
      <trkpt lat="48.56843" lon="6.44131">
        <ele>283</ele>
        <time>2017-06-26T09:32:48Z</time>
      </trkpt>
      <trkpt lat="48.56844" lon="6.4413">
        <ele>283</ele>
        <time>2017-06-26T09:32:49Z</time>
      </trkpt>
      <trkpt lat="48.56845" lon="6.44128">
        <ele>283</ele>
        <time>2017-06-26T09:32:50Z</time>
      </trkpt>
      <trkpt lat="48.56845" lon="6.44127">
        <ele>283</ele>
        <time>2017-06-26T09:32:51Z</time>
      </trkpt>
      <trkpt lat="48.56846" lon="6.44126">
        <ele>283</ele>
        <time>2017-06-26T09:32:52Z</time>
      </trkpt>
      <trkpt lat="48.56849" lon="6.44119">
        <ele>283</ele>
        <time>2017-06-26T09:32:53Z</time>
      </trkpt>
      <trkpt lat="48.56849" lon="6.44116">
        <ele>283</ele>
        <time>2017-06-26T09:32:54Z</time>
      </trkpt>
      <trkpt lat="48.5685" lon="6.44113">
        <ele>283</ele>
        <time>2017-06-26T09:32:55Z</time>
      </trkpt>
      <trkpt lat="48.5685" lon="6.44111">
        <ele>283</ele>
        <time>2017-06-26T09:32:56Z</time>
      </trkpt>
      <trkpt lat="48.56851" lon="6.44108">
        <ele>283</ele>
        <time>2017-06-26T09:32:57Z</time>
      </trkpt>
      <trkpt lat="48.56851" lon="6.44105">
        <ele>283</ele>
        <time>2017-06-26T09:32:58Z</time>
      </trkpt>
      <trkpt lat="48.56852" lon="6.44103">
        <ele>283</ele>
        <time>2017-06-26T09:32:59Z</time>
      </trkpt>
      <trkpt lat="48.56852" lon="6.44101">
        <ele>283</ele>
        <time>2017-06-26T09:33:00Z</time>
      </trkpt>
      <trkpt lat="48.56853" lon="6.441">
        <ele>283</ele>
        <time>2017-06-26T09:33:01Z</time>
      </trkpt>
      <trkpt lat="48.56854" lon="6.44098">
        <ele>283</ele>
        <time>2017-06-26T09:33:02Z</time>
      </trkpt>
      <trkpt lat="48.56856" lon="6.44091">
        <ele>283</ele>
        <time>2017-06-26T09:33:03Z</time>
      </trkpt>
      <trkpt lat="48.56857" lon="6.44087">
        <ele>283</ele>
        <time>2017-06-26T09:33:04Z</time>
      </trkpt>
      <trkpt lat="48.56858" lon="6.44084">
        <ele>283</ele>
        <time>2017-06-26T09:33:05Z</time>
      </trkpt>
      <trkpt lat="48.5686" lon="6.44081">
        <ele>283</ele>
        <time>2017-06-26T09:33:06Z</time>
      </trkpt>
      <trkpt lat="48.56861" lon="6.44077">
        <ele>283</ele>
        <time>2017-06-26T09:33:07Z</time>
      </trkpt>
      <trkpt lat="48.56862" lon="6.44075">
        <ele>283</ele>
        <time>2017-06-26T09:33:08Z</time>
      </trkpt>
      <trkpt lat="48.56863" lon="6.44072">
        <ele>283</ele>
        <time>2017-06-26T09:33:09Z</time>
      </trkpt>
      <trkpt lat="48.56864" lon="6.44069">
        <ele>283</ele>
        <time>2017-06-26T09:33:10Z</time>
      </trkpt>
      <trkpt lat="48.56865" lon="6.44067">
        <ele>283</ele>
        <time>2017-06-26T09:33:11Z</time>
      </trkpt>
      <trkpt lat="48.56866" lon="6.44064">
        <ele>283</ele>
        <time>2017-06-26T09:33:12Z</time>
      </trkpt>
      <trkpt lat="48.56866" lon="6.44062">
        <ele>283</ele>
        <time>2017-06-26T09:33:13Z</time>
      </trkpt>
      <trkpt lat="48.56867" lon="6.4406">
        <ele>283</ele>
        <time>2017-06-26T09:33:14Z</time>
      </trkpt>
      <trkpt lat="48.56867" lon="6.44059">
        <ele>283</ele>
        <time>2017-06-26T09:33:15Z</time>
      </trkpt>
      <trkpt lat="48.56867" lon="6.44057">
        <ele>283</ele>
        <time>2017-06-26T09:33:16Z</time>
      </trkpt>
      <trkpt lat="48.56869" lon="6.44049">
        <ele>283</ele>
        <time>2017-06-26T09:33:17Z</time>
      </trkpt>
      <trkpt lat="48.5687" lon="6.44046">
        <ele>283</ele>
        <time>2017-06-26T09:33:18Z</time>
      </trkpt>
      <trkpt lat="48.56871" lon="6.44042">
        <ele>283</ele>
        <time>2017-06-26T09:33:19Z</time>
      </trkpt>
      <trkpt lat="48.56872" lon="6.44039">
        <ele>283</ele>
        <time>2017-06-26T09:33:20Z</time>
      </trkpt>
      <trkpt lat="48.56874" lon="6.44036">
        <ele>283</ele>
        <time>2017-06-26T09:33:21Z</time>
      </trkpt>
      <trkpt lat="48.56874" lon="6.44034">
        <ele>283</ele>
        <time>2017-06-26T09:33:22Z</time>
      </trkpt>
      <trkpt lat="48.56875" lon="6.44033">
        <ele>284</ele>
        <time>2017-06-26T09:33:23Z</time>
      </trkpt>
      <trkpt lat="48.56875" lon="6.44031">
        <ele>284</ele>
        <time>2017-06-26T09:33:24Z</time>
      </trkpt>
      <trkpt lat="48.56875" lon="6.4403">
        <ele>284</ele>
        <time>2017-06-26T09:33:25Z</time>
      </trkpt>
      <trkpt lat="48.56876" lon="6.44028">
        <ele>284</ele>
        <time>2017-06-26T09:33:26Z</time>
      </trkpt>
      <trkpt lat="48.56878" lon="6.44021">
        <ele>284</ele>
        <time>2017-06-26T09:33:27Z</time>
      </trkpt>
      <trkpt lat="48.56878" lon="6.44019">
        <ele>284</ele>
        <time>2017-06-26T09:33:28Z</time>
      </trkpt>
      <trkpt lat="48.56879" lon="6.44017">
        <ele>284</ele>
        <time>2017-06-26T09:33:29Z</time>
      </trkpt>
      <trkpt lat="48.56879" lon="6.44015">
        <ele>284</ele>
        <time>2017-06-26T09:33:30Z</time>
      </trkpt>
      <trkpt lat="48.5688" lon="6.44014">
        <ele>284</ele>
        <time>2017-06-26T09:33:31Z</time>
      </trkpt>
      <trkpt lat="48.56882" lon="6.44006">
        <ele>284</ele>
        <time>2017-06-26T09:33:32Z</time>
      </trkpt>
      <trkpt lat="48.56883" lon="6.44004">
        <ele>284</ele>
        <time>2017-06-26T09:33:33Z</time>
      </trkpt>
      <trkpt lat="48.56884" lon="6.44001">
        <ele>284</ele>
        <time>2017-06-26T09:33:34Z</time>
      </trkpt>
      <trkpt lat="48.56884" lon="6.43998">
        <ele>284</ele>
        <time>2017-06-26T09:33:35Z</time>
      </trkpt>
      <trkpt lat="48.56885" lon="6.43996">
        <ele>284</ele>
        <time>2017-06-26T09:33:36Z</time>
      </trkpt>
      <trkpt lat="48.56886" lon="6.43993">
        <ele>285</ele>
        <time>2017-06-26T09:33:37Z</time>
      </trkpt>
      <trkpt lat="48.56887" lon="6.43991">
        <ele>285</ele>
        <time>2017-06-26T09:33:38Z</time>
      </trkpt>
      <trkpt lat="48.56887" lon="6.4399">
        <ele>285</ele>
        <time>2017-06-26T09:33:39Z</time>
      </trkpt>
      <trkpt lat="48.56888" lon="6.43989">
        <ele>285</ele>
        <time>2017-06-26T09:33:40Z</time>
      </trkpt>
      <trkpt lat="48.56888" lon="6.43987">
        <ele>285</ele>
        <time>2017-06-26T09:33:41Z</time>
      </trkpt>
      <trkpt lat="48.56889" lon="6.43986">
        <ele>285</ele>
        <time>2017-06-26T09:33:42Z</time>
      </trkpt>
      <trkpt lat="48.56892" lon="6.43978">
        <ele>285</ele>
        <time>2017-06-26T09:33:43Z</time>
      </trkpt>
      <trkpt lat="48.56892" lon="6.43977">
        <ele>285</ele>
        <time>2017-06-26T09:33:44Z</time>
      </trkpt>
      <trkpt lat="48.56893" lon="6.43976">
        <ele>285</ele>
        <time>2017-06-26T09:33:45Z</time>
      </trkpt>
      <trkpt lat="48.56893" lon="6.43975">
        <ele>285</ele>
        <time>2017-06-26T09:33:46Z</time>
      </trkpt>
      <trkpt lat="48.56894" lon="6.43974">
        <ele>285</ele>
        <time>2017-06-26T09:33:47Z</time>
      </trkpt>
      <trkpt lat="48.56894" lon="6.43973">
        <ele>285</ele>
        <time>2017-06-26T09:33:48Z</time>
      </trkpt>
      <trkpt lat="48.56895" lon="6.43971">
        <ele>285</ele>
        <time>2017-06-26T09:33:49Z</time>
      </trkpt>
      <trkpt lat="48.56898" lon="6.43964">
        <ele>285</ele>
        <time>2017-06-26T09:33:50Z</time>
      </trkpt>
      <trkpt lat="48.56899" lon="6.43963">
        <ele>285</ele>
        <time>2017-06-26T09:33:51Z</time>
      </trkpt>
      <trkpt lat="48.56899" lon="6.43961">
        <ele>285</ele>
        <time>2017-06-26T09:33:52Z</time>
      </trkpt>
      <trkpt lat="48.569" lon="6.43959">
        <ele>285</ele>
        <time>2017-06-26T09:33:53Z</time>
      </trkpt>
      <trkpt lat="48.56901" lon="6.43957">
        <ele>285</ele>
        <time>2017-06-26T09:33:54Z</time>
      </trkpt>
      <trkpt lat="48.56904" lon="6.43949">
        <ele>286</ele>
        <time>2017-06-26T09:33:55Z</time>
      </trkpt>
      <trkpt lat="48.56905" lon="6.43946">
        <ele>286</ele>
        <time>2017-06-26T09:33:56Z</time>
      </trkpt>
      <trkpt lat="48.56906" lon="6.43943">
        <ele>286</ele>
        <time>2017-06-26T09:33:57Z</time>
      </trkpt>
      <trkpt lat="48.56907" lon="6.4394">
        <ele>286</ele>
        <time>2017-06-26T09:33:58Z</time>
      </trkpt>
      <trkpt lat="48.56909" lon="6.43937">
        <ele>286</ele>
        <time>2017-06-26T09:33:59Z</time>
      </trkpt>
      <trkpt lat="48.56909" lon="6.43935">
        <ele>286</ele>
        <time>2017-06-26T09:34:00Z</time>
      </trkpt>
      <trkpt lat="48.5691" lon="6.43932">
        <ele>286</ele>
        <time>2017-06-26T09:34:01Z</time>
      </trkpt>
      <trkpt lat="48.56911" lon="6.4393">
        <ele>286</ele>
        <time>2017-06-26T09:34:02Z</time>
      </trkpt>
      <trkpt lat="48.56911" lon="6.43927">
        <ele>286</ele>
        <time>2017-06-26T09:34:03Z</time>
      </trkpt>
      <trkpt lat="48.56912" lon="6.43925">
        <ele>286</ele>
        <time>2017-06-26T09:34:04Z</time>
      </trkpt>
      <trkpt lat="48.56913" lon="6.43923">
        <ele>286</ele>
        <time>2017-06-26T09:34:05Z</time>
      </trkpt>
      <trkpt lat="48.56914" lon="6.43921">
        <ele>286</ele>
        <time>2017-06-26T09:34:06Z</time>
      </trkpt>
      <trkpt lat="48.56915" lon="6.43919">
        <ele>286</ele>
        <time>2017-06-26T09:34:07Z</time>
      </trkpt>
      <trkpt lat="48.56915" lon="6.43918">
        <ele>286</ele>
        <time>2017-06-26T09:34:08Z</time>
      </trkpt>
      <trkpt lat="48.56916" lon="6.43916">
        <ele>286</ele>
        <time>2017-06-26T09:34:09Z</time>
      </trkpt>
      <trkpt lat="48.5692" lon="6.43909">
        <ele>286</ele>
        <time>2017-06-26T09:34:10Z</time>
      </trkpt>
      <trkpt lat="48.56921" lon="6.43906">
        <ele>286</ele>
        <time>2017-06-26T09:34:11Z</time>
      </trkpt>
      <trkpt lat="48.56922" lon="6.43902">
        <ele>286</ele>
        <time>2017-06-26T09:34:12Z</time>
      </trkpt>
      <trkpt lat="48.56924" lon="6.43899">
        <ele>286</ele>
        <time>2017-06-26T09:34:13Z</time>
      </trkpt>
      <trkpt lat="48.56925" lon="6.43896">
        <ele>286</ele>
        <time>2017-06-26T09:34:14Z</time>
      </trkpt>
      <trkpt lat="48.56926" lon="6.43893">
        <ele>287</ele>
        <time>2017-06-26T09:34:15Z</time>
      </trkpt>
      <trkpt lat="48.56927" lon="6.43891">
        <ele>287</ele>
        <time>2017-06-26T09:34:16Z</time>
      </trkpt>
      <trkpt lat="48.56928" lon="6.43888">
        <ele>287</ele>
        <time>2017-06-26T09:34:17Z</time>
      </trkpt>
      <trkpt lat="48.5693" lon="6.43881">
        <ele>287</ele>
        <time>2017-06-26T09:34:18Z</time>
      </trkpt>
      <trkpt lat="48.56931" lon="6.43878">
        <ele>288</ele>
        <time>2017-06-26T09:34:19Z</time>
      </trkpt>
      <trkpt lat="48.56932" lon="6.43875">
        <ele>288</ele>
        <time>2017-06-26T09:34:20Z</time>
      </trkpt>
      <trkpt lat="48.56933" lon="6.43871">
        <ele>288</ele>
        <time>2017-06-26T09:34:21Z</time>
      </trkpt>
      <trkpt lat="48.56934" lon="6.43868">
        <ele>288</ele>
        <time>2017-06-26T09:34:22Z</time>
      </trkpt>
      <trkpt lat="48.56935" lon="6.43866">
        <ele>288</ele>
        <time>2017-06-26T09:34:23Z</time>
      </trkpt>
      <trkpt lat="48.56935" lon="6.43864">
        <ele>288</ele>
        <time>2017-06-26T09:34:24Z</time>
      </trkpt>
      <trkpt lat="48.56936" lon="6.43862">
        <ele>288</ele>
        <time>2017-06-26T09:34:25Z</time>
      </trkpt>
      <trkpt lat="48.56936" lon="6.4386">
        <ele>288</ele>
        <time>2017-06-26T09:34:26Z</time>
      </trkpt>
      <trkpt lat="48.56938" lon="6.43852">
        <ele>288</ele>
        <time>2017-06-26T09:34:27Z</time>
      </trkpt>
      <trkpt lat="48.56939" lon="6.4385">
        <ele>288</ele>
        <time>2017-06-26T09:34:28Z</time>
      </trkpt>
      <trkpt lat="48.5694" lon="6.43847">
        <ele>288</ele>
        <time>2017-06-26T09:34:29Z</time>
      </trkpt>
      <trkpt lat="48.56941" lon="6.43844">
        <ele>288</ele>
        <time>2017-06-26T09:34:30Z</time>
      </trkpt>
      <trkpt lat="48.56942" lon="6.43841">
        <ele>288</ele>
        <time>2017-06-26T09:34:31Z</time>
      </trkpt>
      <trkpt lat="48.56943" lon="6.43838">
        <ele>288</ele>
        <time>2017-06-26T09:34:32Z</time>
      </trkpt>
      <trkpt lat="48.56944" lon="6.43835">
        <ele>288</ele>
        <time>2017-06-26T09:34:33Z</time>
      </trkpt>
      <trkpt lat="48.56945" lon="6.43831">
        <ele>288</ele>
        <time>2017-06-26T09:34:34Z</time>
      </trkpt>
      <trkpt lat="48.56946" lon="6.43828">
        <ele>287</ele>
        <time>2017-06-26T09:34:35Z</time>
      </trkpt>
      <trkpt lat="48.56947" lon="6.43824">
        <ele>287</ele>
        <time>2017-06-26T09:34:36Z</time>
      </trkpt>
      <trkpt lat="48.56947" lon="6.43823">
        <ele>287</ele>
        <time>2017-06-26T09:34:37Z</time>
      </trkpt>
      <trkpt lat="48.56948" lon="6.43821">
        <ele>287</ele>
        <time>2017-06-26T09:34:38Z</time>
      </trkpt>
      <trkpt lat="48.56949" lon="6.4382">
        <ele>287</ele>
        <time>2017-06-26T09:34:39Z</time>
      </trkpt>
      <trkpt lat="48.56949" lon="6.43818">
        <ele>287</ele>
        <time>2017-06-26T09:34:40Z</time>
      </trkpt>
      <trkpt lat="48.5695" lon="6.43817">
        <ele>287</ele>
        <time>2017-06-26T09:34:41Z</time>
      </trkpt>
      <trkpt lat="48.56953" lon="6.43809">
        <ele>287</ele>
        <time>2017-06-26T09:34:42Z</time>
      </trkpt>
      <trkpt lat="48.56954" lon="6.43807">
        <ele>287</ele>
        <time>2017-06-26T09:34:43Z</time>
      </trkpt>
      <trkpt lat="48.56956" lon="6.43804">
        <ele>287</ele>
        <time>2017-06-26T09:34:44Z</time>
      </trkpt>
      <trkpt lat="48.56957" lon="6.43801">
        <ele>287</ele>
        <time>2017-06-26T09:34:45Z</time>
      </trkpt>
      <trkpt lat="48.5696" lon="6.43793">
        <ele>287</ele>
        <time>2017-06-26T09:34:46Z</time>
      </trkpt>
      <trkpt lat="48.56961" lon="6.43789">
        <ele>287</ele>
        <time>2017-06-26T09:34:47Z</time>
      </trkpt>
      <trkpt lat="48.56962" lon="6.43785">
        <ele>287</ele>
        <time>2017-06-26T09:34:48Z</time>
      </trkpt>
      <trkpt lat="48.56963" lon="6.43782">
        <ele>287</ele>
        <time>2017-06-26T09:34:49Z</time>
      </trkpt>
      <trkpt lat="48.56964" lon="6.43778">
        <ele>287</ele>
        <time>2017-06-26T09:34:50Z</time>
      </trkpt>
      <trkpt lat="48.56964" lon="6.43775">
        <ele>287</ele>
        <time>2017-06-26T09:34:51Z</time>
      </trkpt>
      <trkpt lat="48.56965" lon="6.43773">
        <ele>287</ele>
        <time>2017-06-26T09:34:52Z</time>
      </trkpt>
      <trkpt lat="48.56966" lon="6.4377">
        <ele>287</ele>
        <time>2017-06-26T09:34:53Z</time>
      </trkpt>
      <trkpt lat="48.56968" lon="6.43762">
        <ele>287</ele>
        <time>2017-06-26T09:34:54Z</time>
      </trkpt>
      <trkpt lat="48.56968" lon="6.43759">
        <ele>287</ele>
        <time>2017-06-26T09:34:55Z</time>
      </trkpt>
      <trkpt lat="48.56969" lon="6.43757">
        <ele>287</ele>
        <time>2017-06-26T09:34:56Z</time>
      </trkpt>
      <trkpt lat="48.5697" lon="6.43755">
        <ele>287</ele>
        <time>2017-06-26T09:34:57Z</time>
      </trkpt>
      <trkpt lat="48.56972" lon="6.43747">
        <ele>287</ele>
        <time>2017-06-26T09:34:58Z</time>
      </trkpt>
      <trkpt lat="48.56973" lon="6.43746">
        <ele>287</ele>
        <time>2017-06-26T09:34:59Z</time>
      </trkpt>
      <trkpt lat="48.56974" lon="6.43744">
        <ele>287</ele>
        <time>2017-06-26T09:35:00Z</time>
      </trkpt>
      <trkpt lat="48.56974" lon="6.43743">
        <ele>287</ele>
        <time>2017-06-26T09:35:01Z</time>
      </trkpt>
      <trkpt lat="48.56975" lon="6.43741">
        <ele>287</ele>
        <time>2017-06-26T09:35:02Z</time>
      </trkpt>
      <trkpt lat="48.56975" lon="6.43739">
        <ele>287</ele>
        <time>2017-06-26T09:35:03Z</time>
      </trkpt>
      <trkpt lat="48.56978" lon="6.43732">
        <ele>287</ele>
        <time>2017-06-26T09:35:04Z</time>
      </trkpt>
      <trkpt lat="48.56978" lon="6.43729">
        <ele>285</ele>
        <time>2017-06-26T09:35:05Z</time>
      </trkpt>
      <trkpt lat="48.56979" lon="6.43726">
        <ele>285</ele>
        <time>2017-06-26T09:35:06Z</time>
      </trkpt>
      <trkpt lat="48.56979" lon="6.43724">
        <ele>285</ele>
        <time>2017-06-26T09:35:07Z</time>
      </trkpt>
      <trkpt lat="48.5698" lon="6.43716">
        <ele>285</ele>
        <time>2017-06-26T09:35:08Z</time>
      </trkpt>
      <trkpt lat="48.56982" lon="6.43714">
        <ele>285</ele>
        <time>2017-06-26T09:35:09Z</time>
      </trkpt>
      <trkpt lat="48.56983" lon="6.43711">
        <ele>285</ele>
        <time>2017-06-26T09:35:10Z</time>
      </trkpt>
      <trkpt lat="48.56984" lon="6.43709">
        <ele>285</ele>
        <time>2017-06-26T09:35:11Z</time>
      </trkpt>
      <trkpt lat="48.56985" lon="6.43707">
        <ele>285</ele>
        <time>2017-06-26T09:35:12Z</time>
      </trkpt>
      <trkpt lat="48.56987" lon="6.43704">
        <ele>285</ele>
        <time>2017-06-26T09:35:13Z</time>
      </trkpt>
      <trkpt lat="48.56988" lon="6.43703">
        <ele>285</ele>
        <time>2017-06-26T09:35:14Z</time>
      </trkpt>
      <trkpt lat="48.56989" lon="6.43701">
        <ele>285</ele>
        <time>2017-06-26T09:35:15Z</time>
      </trkpt>
      <trkpt lat="48.5699" lon="6.437">
        <ele>285</ele>
        <time>2017-06-26T09:35:16Z</time>
      </trkpt>
      <trkpt lat="48.56991" lon="6.43698">
        <ele>285</ele>
        <time>2017-06-26T09:35:17Z</time>
      </trkpt>
      <trkpt lat="48.56994" lon="6.43692">
        <ele>285</ele>
        <time>2017-06-26T09:35:18Z</time>
      </trkpt>
      <trkpt lat="48.56995" lon="6.4369">
        <ele>285</ele>
        <time>2017-06-26T09:35:19Z</time>
      </trkpt>
      <trkpt lat="48.56996" lon="6.43688">
        <ele>285</ele>
        <time>2017-06-26T09:35:20Z</time>
      </trkpt>
      <trkpt lat="48.56998" lon="6.43686">
        <ele>285</ele>
        <time>2017-06-26T09:35:21Z</time>
      </trkpt>
      <trkpt lat="48.57001" lon="6.43679">
        <ele>285</ele>
        <time>2017-06-26T09:35:22Z</time>
      </trkpt>
      <trkpt lat="48.57002" lon="6.43675">
        <ele>285</ele>
        <time>2017-06-26T09:35:23Z</time>
      </trkpt>
      <trkpt lat="48.57003" lon="6.43672">
        <ele>285</ele>
        <time>2017-06-26T09:35:24Z</time>
      </trkpt>
      <trkpt lat="48.57005" lon="6.43669">
        <ele>283</ele>
        <time>2017-06-26T09:35:25Z</time>
      </trkpt>
      <trkpt lat="48.57006" lon="6.43665">
        <ele>283</ele>
        <time>2017-06-26T09:35:26Z</time>
      </trkpt>
      <trkpt lat="48.57007" lon="6.43664">
        <ele>283</ele>
        <time>2017-06-26T09:35:27Z</time>
      </trkpt>
      <trkpt lat="48.57008" lon="6.43662">
        <ele>283</ele>
        <time>2017-06-26T09:35:28Z</time>
      </trkpt>
      <trkpt lat="48.57009" lon="6.4366">
        <ele>283</ele>
        <time>2017-06-26T09:35:29Z</time>
      </trkpt>
      <trkpt lat="48.57009" lon="6.43658">
        <ele>283</ele>
        <time>2017-06-26T09:35:30Z</time>
      </trkpt>
      <trkpt lat="48.57012" lon="6.43651">
        <ele>283</ele>
        <time>2017-06-26T09:35:31Z</time>
      </trkpt>
      <trkpt lat="48.57013" lon="6.43649">
        <ele>283</ele>
        <time>2017-06-26T09:35:32Z</time>
      </trkpt>
      <trkpt lat="48.57014" lon="6.43646">
        <ele>283</ele>
        <time>2017-06-26T09:35:33Z</time>
      </trkpt>
      <trkpt lat="48.57014" lon="6.43644">
        <ele>283</ele>
        <time>2017-06-26T09:35:34Z</time>
      </trkpt>
      <trkpt lat="48.57015" lon="6.43642">
        <ele>281</ele>
        <time>2017-06-26T09:35:35Z</time>
      </trkpt>
      <trkpt lat="48.57016" lon="6.43639">
        <ele>281</ele>
        <time>2017-06-26T09:35:36Z</time>
      </trkpt>
      <trkpt lat="48.57017" lon="6.43637">
        <ele>281</ele>
        <time>2017-06-26T09:35:37Z</time>
      </trkpt>
      <trkpt lat="48.57017" lon="6.43635">
        <ele>281</ele>
        <time>2017-06-26T09:35:38Z</time>
      </trkpt>
      <trkpt lat="48.57017" lon="6.43633">
        <ele>281</ele>
        <time>2017-06-26T09:35:39Z</time>
      </trkpt>
      <trkpt lat="48.57017" lon="6.43631">
        <ele>281</ele>
        <time>2017-06-26T09:35:40Z</time>
      </trkpt>
      <trkpt lat="48.57017" lon="6.43629">
        <ele>281</ele>
        <time>2017-06-26T09:35:41Z</time>
      </trkpt>
      <trkpt lat="48.57017" lon="6.43627">
        <ele>281</ele>
        <time>2017-06-26T09:35:42Z</time>
      </trkpt>
      <trkpt lat="48.57017" lon="6.43625">
        <ele>281</ele>
        <time>2017-06-26T09:35:43Z</time>
      </trkpt>
      <trkpt lat="48.57018" lon="6.43622">
        <ele>281</ele>
        <time>2017-06-26T09:35:44Z</time>
      </trkpt>
      <trkpt lat="48.57018" lon="6.4362">
        <ele>277</ele>
        <time>2017-06-26T09:35:45Z</time>
      </trkpt>
      <trkpt lat="48.57018" lon="6.43617">
        <ele>277</ele>
        <time>2017-06-26T09:35:46Z</time>
      </trkpt>
      <trkpt lat="48.57018" lon="6.43615">
        <ele>277</ele>
        <time>2017-06-26T09:35:47Z</time>
      </trkpt>
      <trkpt lat="48.57018" lon="6.43612">
        <ele>277</ele>
        <time>2017-06-26T09:35:48Z</time>
      </trkpt>
      <trkpt lat="48.57018" lon="6.4361">
        <ele>277</ele>
        <time>2017-06-26T09:35:49Z</time>
      </trkpt>
      <trkpt lat="48.57018" lon="6.43607">
        <ele>274</ele>
        <time>2017-06-26T09:35:50Z</time>
      </trkpt>
      <trkpt lat="48.57018" lon="6.43606">
        <ele>274</ele>
        <time>2017-06-26T09:35:51Z</time>
      </trkpt>
      <trkpt lat="48.57018" lon="6.43604">
        <ele>274</ele>
        <time>2017-06-26T09:35:52Z</time>
      </trkpt>
      <trkpt lat="48.57018" lon="6.43603">
        <ele>274</ele>
        <time>2017-06-26T09:35:53Z</time>
      </trkpt>
      <trkpt lat="48.57018" lon="6.43602">
        <ele>274</ele>
        <time>2017-06-26T09:35:54Z</time>
      </trkpt>
      <trkpt lat="48.57018" lon="6.436">
        <ele>275</ele>
        <time>2017-06-26T09:35:55Z</time>
      </trkpt>
      <trkpt lat="48.57018" lon="6.43599">
        <ele>275</ele>
        <time>2017-06-26T09:35:56Z</time>
      </trkpt>
      <trkpt lat="48.57018" lon="6.43591">
        <ele>275</ele>
        <time>2017-06-26T09:35:57Z</time>
      </trkpt>
      <trkpt lat="48.57018" lon="6.43589">
        <ele>275</ele>
        <time>2017-06-26T09:35:58Z</time>
      </trkpt>
      <trkpt lat="48.57018" lon="6.43588">
        <ele>275</ele>
        <time>2017-06-26T09:35:59Z</time>
      </trkpt>
      <trkpt lat="48.57018" lon="6.43587">
        <ele>277</ele>
        <time>2017-06-26T09:36:00Z</time>
      </trkpt>
      <trkpt lat="48.57018" lon="6.43585">
        <ele>277</ele>
        <time>2017-06-26T09:36:01Z</time>
      </trkpt>
      <trkpt lat="48.57018" lon="6.43584">
        <ele>277</ele>
        <time>2017-06-26T09:36:02Z</time>
      </trkpt>
      <trkpt lat="48.57018" lon="6.43582">
        <ele>277</ele>
        <time>2017-06-26T09:36:03Z</time>
      </trkpt>
      <trkpt lat="48.57018" lon="6.43581">
        <ele>277</ele>
        <time>2017-06-26T09:36:04Z</time>
      </trkpt>
      <trkpt lat="48.57018" lon="6.4358">
        <ele>277</ele>
        <time>2017-06-26T09:36:05Z</time>
      </trkpt>
      <trkpt lat="48.57017" lon="6.43578">
        <ele>277</ele>
        <time>2017-06-26T09:36:06Z</time>
      </trkpt>
      <trkpt lat="48.57017" lon="6.43577">
        <ele>277</ele>
        <time>2017-06-26T09:36:07Z</time>
      </trkpt>
      <trkpt lat="48.57017" lon="6.43576">
        <ele>277</ele>
        <time>2017-06-26T09:36:08Z</time>
      </trkpt>
      <trkpt lat="48.57017" lon="6.43575">
        <ele>277</ele>
        <time>2017-06-26T09:36:09Z</time>
      </trkpt>
      <trkpt lat="48.57017" lon="6.43574">
        <ele>277</ele>
        <time>2017-06-26T09:36:10Z</time>
      </trkpt>
      <trkpt lat="48.57017" lon="6.43573">
        <ele>277</ele>
        <time>2017-06-26T09:36:11Z</time>
      </trkpt>
      <trkpt lat="48.57017" lon="6.43572">
        <ele>277</ele>
        <time>2017-06-26T09:36:12Z</time>
      </trkpt>
      <trkpt lat="48.57017" lon="6.43571">
        <ele>277</ele>
        <time>2017-06-26T09:36:13Z</time>
      </trkpt>
      <trkpt lat="48.57016" lon="6.43569">
        <ele>277</ele>
        <time>2017-06-26T09:36:14Z</time>
      </trkpt>
      <trkpt lat="48.57016" lon="6.43568">
        <ele>278</ele>
        <time>2017-06-26T09:36:15Z</time>
      </trkpt>
      <trkpt lat="48.57015" lon="6.4356">
        <ele>278</ele>
        <time>2017-06-26T09:36:16Z</time>
      </trkpt>
      <trkpt lat="48.57014" lon="6.43558">
        <ele>278</ele>
        <time>2017-06-26T09:36:17Z</time>
      </trkpt>
      <trkpt lat="48.57013" lon="6.43557">
        <ele>278</ele>
        <time>2017-06-26T09:36:18Z</time>
      </trkpt>
      <trkpt lat="48.57012" lon="6.43555">
        <ele>278</ele>
        <time>2017-06-26T09:36:19Z</time>
      </trkpt>
      <trkpt lat="48.5701" lon="6.43554">
        <ele>278</ele>
        <time>2017-06-26T09:36:20Z</time>
      </trkpt>
      <trkpt lat="48.57009" lon="6.43552">
        <ele>278</ele>
        <time>2017-06-26T09:36:21Z</time>
      </trkpt>
      <trkpt lat="48.57008" lon="6.4355">
        <ele>278</ele>
        <time>2017-06-26T09:36:22Z</time>
      </trkpt>
      <trkpt lat="48.57007" lon="6.43547">
        <ele>278</ele>
        <time>2017-06-26T09:36:23Z</time>
      </trkpt>
      <trkpt lat="48.57006" lon="6.43544">
        <ele>278</ele>
        <time>2017-06-26T09:36:24Z</time>
      </trkpt>
      <trkpt lat="48.57005" lon="6.43541">
        <ele>278</ele>
        <time>2017-06-26T09:36:25Z</time>
      </trkpt>
      <trkpt lat="48.57004" lon="6.43538">
        <ele>278</ele>
        <time>2017-06-26T09:36:26Z</time>
      </trkpt>
      <trkpt lat="48.57003" lon="6.43537">
        <ele>278</ele>
        <time>2017-06-26T09:36:27Z</time>
      </trkpt>
      <trkpt lat="48.57002" lon="6.43535">
        <ele>278</ele>
        <time>2017-06-26T09:36:28Z</time>
      </trkpt>
      <trkpt lat="48.57001" lon="6.43533">
        <ele>278</ele>
        <time>2017-06-26T09:36:29Z</time>
      </trkpt>
      <trkpt lat="48.57" lon="6.43532">
        <ele>278</ele>
        <time>2017-06-26T09:36:30Z</time>
      </trkpt>
      <trkpt lat="48.56997" lon="6.43525">
        <ele>278</ele>
        <time>2017-06-26T09:36:31Z</time>
      </trkpt>
      <trkpt lat="48.56996" lon="6.43524">
        <ele>278</ele>
        <time>2017-06-26T09:36:32Z</time>
      </trkpt>
      <trkpt lat="48.56995" lon="6.43522">
        <ele>278</ele>
        <time>2017-06-26T09:36:33Z</time>
      </trkpt>
      <trkpt lat="48.56994" lon="6.43521">
        <ele>278</ele>
        <time>2017-06-26T09:36:34Z</time>
      </trkpt>
      <trkpt lat="48.56993" lon="6.43519">
        <ele>277</ele>
        <time>2017-06-26T09:36:35Z</time>
      </trkpt>
      <trkpt lat="48.56989" lon="6.43513">
        <ele>277</ele>
        <time>2017-06-26T09:36:36Z</time>
      </trkpt>
      <trkpt lat="48.56988" lon="6.43511">
        <ele>277</ele>
        <time>2017-06-26T09:36:37Z</time>
      </trkpt>
      <trkpt lat="48.56987" lon="6.4351">
        <ele>277</ele>
        <time>2017-06-26T09:36:38Z</time>
      </trkpt>
      <trkpt lat="48.56986" lon="6.43509">
        <ele>277</ele>
        <time>2017-06-26T09:36:39Z</time>
      </trkpt>
      <trkpt lat="48.56985" lon="6.43507">
        <ele>277</ele>
        <time>2017-06-26T09:36:40Z</time>
      </trkpt>
      <trkpt lat="48.56985" lon="6.43506">
        <ele>277</ele>
        <time>2017-06-26T09:36:41Z</time>
      </trkpt>
      <trkpt lat="48.5698" lon="6.435">
        <ele>277</ele>
        <time>2017-06-26T09:36:42Z</time>
      </trkpt>
      <trkpt lat="48.56979" lon="6.43499">
        <ele>277</ele>
        <time>2017-06-26T09:36:43Z</time>
      </trkpt>
      <trkpt lat="48.56978" lon="6.43498">
        <ele>277</ele>
        <time>2017-06-26T09:36:44Z</time>
      </trkpt>
      <trkpt lat="48.56977" lon="6.43497">
        <ele>276</ele>
        <time>2017-06-26T09:36:45Z</time>
      </trkpt>
      <trkpt lat="48.56976" lon="6.43496">
        <ele>276</ele>
        <time>2017-06-26T09:36:46Z</time>
      </trkpt>
      <trkpt lat="48.56972" lon="6.43492">
        <ele>276</ele>
        <time>2017-06-26T09:36:47Z</time>
      </trkpt>
      <trkpt lat="48.56971" lon="6.4349">
        <ele>276</ele>
        <time>2017-06-26T09:36:48Z</time>
      </trkpt>
      <trkpt lat="48.5697" lon="6.43489">
        <ele>276</ele>
        <time>2017-06-26T09:36:49Z</time>
      </trkpt>
      <trkpt lat="48.5697" lon="6.43488">
        <ele>276</ele>
        <time>2017-06-26T09:36:50Z</time>
      </trkpt>
      <trkpt lat="48.56969" lon="6.43486">
        <ele>276</ele>
        <time>2017-06-26T09:36:51Z</time>
      </trkpt>
      <trkpt lat="48.56968" lon="6.43485">
        <ele>276</ele>
        <time>2017-06-26T09:36:52Z</time>
      </trkpt>
      <trkpt lat="48.56965" lon="6.43478">
        <ele>276</ele>
        <time>2017-06-26T09:36:53Z</time>
      </trkpt>
      <trkpt lat="48.56964" lon="6.43477">
        <ele>276</ele>
        <time>2017-06-26T09:36:54Z</time>
      </trkpt>
      <trkpt lat="48.56963" lon="6.43476">
        <ele>276</ele>
        <time>2017-06-26T09:36:55Z</time>
      </trkpt>
      <trkpt lat="48.56962" lon="6.43474">
        <ele>276</ele>
        <time>2017-06-26T09:36:56Z</time>
      </trkpt>
      <trkpt lat="48.56961" lon="6.43473">
        <ele>276</ele>
        <time>2017-06-26T09:36:57Z</time>
      </trkpt>
      <trkpt lat="48.56957" lon="6.43468">
        <ele>276</ele>
        <time>2017-06-26T09:36:58Z</time>
      </trkpt>
      <trkpt lat="48.56956" lon="6.43466">
        <ele>276</ele>
        <time>2017-06-26T09:36:59Z</time>
      </trkpt>
      <trkpt lat="48.56954" lon="6.43465">
        <ele>276</ele>
        <time>2017-06-26T09:37:00Z</time>
      </trkpt>
      <trkpt lat="48.56953" lon="6.43463">
        <ele>276</ele>
        <time>2017-06-26T09:37:01Z</time>
      </trkpt>
      <trkpt lat="48.56948" lon="6.43459">
        <ele>276</ele>
        <time>2017-06-26T09:37:02Z</time>
      </trkpt>
      <trkpt lat="48.56947" lon="6.43458">
        <ele>276</ele>
        <time>2017-06-26T09:37:03Z</time>
      </trkpt>
      <trkpt lat="48.56946" lon="6.43456">
        <ele>276</ele>
        <time>2017-06-26T09:37:04Z</time>
      </trkpt>
      <trkpt lat="48.56946" lon="6.43454">
        <ele>276</ele>
        <time>2017-06-26T09:37:05Z</time>
      </trkpt>
      <trkpt lat="48.56945" lon="6.43453">
        <ele>276</ele>
        <time>2017-06-26T09:37:06Z</time>
      </trkpt>
      <trkpt lat="48.56941" lon="6.43446">
        <ele>276</ele>
        <time>2017-06-26T09:37:07Z</time>
      </trkpt>
      <trkpt lat="48.56941" lon="6.43444">
        <ele>276</ele>
        <time>2017-06-26T09:37:08Z</time>
      </trkpt>
      <trkpt lat="48.5694" lon="6.43442">
        <ele>276</ele>
        <time>2017-06-26T09:37:09Z</time>
      </trkpt>
      <trkpt lat="48.5694" lon="6.4344">
        <ele>276</ele>
        <time>2017-06-26T09:37:10Z</time>
      </trkpt>
      <trkpt lat="48.56939" lon="6.43438">
        <ele>276</ele>
        <time>2017-06-26T09:37:11Z</time>
      </trkpt>
      <trkpt lat="48.56938" lon="6.43431">
        <ele>276</ele>
        <time>2017-06-26T09:37:12Z</time>
      </trkpt>
      <trkpt lat="48.56939" lon="6.43429">
        <ele>276</ele>
        <time>2017-06-26T09:37:13Z</time>
      </trkpt>
      <trkpt lat="48.56939" lon="6.43427">
        <ele>276</ele>
        <time>2017-06-26T09:37:14Z</time>
      </trkpt>
      <trkpt lat="48.5694" lon="6.43426">
        <ele>276</ele>
        <time>2017-06-26T09:37:15Z</time>
      </trkpt>
      <trkpt lat="48.56941" lon="6.43424">
        <ele>276</ele>
        <time>2017-06-26T09:37:16Z</time>
      </trkpt>
      <trkpt lat="48.56943" lon="6.43417">
        <ele>276</ele>
        <time>2017-06-26T09:37:17Z</time>
      </trkpt>
      <trkpt lat="48.56944" lon="6.43415">
        <ele>276</ele>
        <time>2017-06-26T09:37:18Z</time>
      </trkpt>
      <trkpt lat="48.56945" lon="6.43412">
        <ele>276</ele>
        <time>2017-06-26T09:37:19Z</time>
      </trkpt>
      <trkpt lat="48.56946" lon="6.43409">
        <ele>276</ele>
        <time>2017-06-26T09:37:20Z</time>
      </trkpt>
      <trkpt lat="48.56948" lon="6.43407">
        <ele>276</ele>
        <time>2017-06-26T09:37:21Z</time>
      </trkpt>
      <trkpt lat="48.56949" lon="6.43404">
        <ele>276</ele>
        <time>2017-06-26T09:37:22Z</time>
      </trkpt>
      <trkpt lat="48.56949" lon="6.43403">
        <ele>276</ele>
        <time>2017-06-26T09:37:23Z</time>
      </trkpt>
      <trkpt lat="48.56949" lon="6.43402">
        <ele>276</ele>
        <time>2017-06-26T09:37:24Z</time>
      </trkpt>
      <trkpt lat="48.56949" lon="6.434">
        <ele>278</ele>
        <time>2017-06-26T09:37:25Z</time>
      </trkpt>
      <trkpt lat="48.56949" lon="6.43399">
        <ele>278</ele>
        <time>2017-06-26T09:37:26Z</time>
      </trkpt>
      <trkpt lat="48.5695" lon="6.43398">
        <ele>278</ele>
        <time>2017-06-26T09:37:27Z</time>
      </trkpt>
      <trkpt lat="48.5695" lon="6.43396">
        <ele>278</ele>
        <time>2017-06-26T09:37:28Z</time>
      </trkpt>
      <trkpt lat="48.56951" lon="6.43388">
        <ele>278</ele>
        <time>2017-06-26T09:37:29Z</time>
      </trkpt>
      <trkpt lat="48.56951" lon="6.43387">
        <ele>278</ele>
        <time>2017-06-26T09:37:30Z</time>
      </trkpt>
      <trkpt lat="48.56951" lon="6.43385">
        <ele>278</ele>
        <time>2017-06-26T09:37:31Z</time>
      </trkpt>
      <trkpt lat="48.56951" lon="6.43383">
        <ele>278</ele>
        <time>2017-06-26T09:37:32Z</time>
      </trkpt>
      <trkpt lat="48.56951" lon="6.43382">
        <ele>278</ele>
        <time>2017-06-26T09:37:33Z</time>
      </trkpt>
      <trkpt lat="48.56951" lon="6.4338">
        <ele>278</ele>
        <time>2017-06-26T09:37:34Z</time>
      </trkpt>
      <trkpt lat="48.56951" lon="6.43372">
        <ele>279</ele>
        <time>2017-06-26T09:37:35Z</time>
      </trkpt>
      <trkpt lat="48.5695" lon="6.4337">
        <ele>279</ele>
        <time>2017-06-26T09:37:36Z</time>
      </trkpt>
      <trkpt lat="48.56949" lon="6.43368">
        <ele>279</ele>
        <time>2017-06-26T09:37:37Z</time>
      </trkpt>
      <trkpt lat="48.56949" lon="6.43365">
        <ele>279</ele>
        <time>2017-06-26T09:37:38Z</time>
      </trkpt>
      <trkpt lat="48.56948" lon="6.43363">
        <ele>279</ele>
        <time>2017-06-26T09:37:39Z</time>
      </trkpt>
      <trkpt lat="48.56948" lon="6.43361">
        <ele>279</ele>
        <time>2017-06-26T09:37:40Z</time>
      </trkpt>
      <trkpt lat="48.56947" lon="6.43358">
        <ele>279</ele>
        <time>2017-06-26T09:37:41Z</time>
      </trkpt>
      <trkpt lat="48.56946" lon="6.43357">
        <ele>279</ele>
        <time>2017-06-26T09:37:42Z</time>
      </trkpt>
      <trkpt lat="48.56945" lon="6.43356">
        <ele>279</ele>
        <time>2017-06-26T09:37:43Z</time>
      </trkpt>
      <trkpt lat="48.56944" lon="6.43355">
        <ele>279</ele>
        <time>2017-06-26T09:37:44Z</time>
      </trkpt>
      <trkpt lat="48.56943" lon="6.43355">
        <ele>279</ele>
        <time>2017-06-26T09:37:45Z</time>
      </trkpt>
      <trkpt lat="48.56942" lon="6.43354">
        <ele>279</ele>
        <time>2017-06-26T09:37:46Z</time>
      </trkpt>
      <trkpt lat="48.56938" lon="6.43349">
        <ele>279</ele>
        <time>2017-06-26T09:37:47Z</time>
      </trkpt>
      <trkpt lat="48.56937" lon="6.43348">
        <ele>279</ele>
        <time>2017-06-26T09:37:48Z</time>
      </trkpt>
      <trkpt lat="48.56936" lon="6.43347">
        <ele>279</ele>
        <time>2017-06-26T09:37:49Z</time>
      </trkpt>
      <trkpt lat="48.56935" lon="6.43346">
        <ele>279</ele>
        <time>2017-06-26T09:37:50Z</time>
      </trkpt>
      <trkpt lat="48.56934" lon="6.43345">
        <ele>279</ele>
        <time>2017-06-26T09:37:51Z</time>
      </trkpt>
      <trkpt lat="48.56933" lon="6.43344">
        <ele>279</ele>
        <time>2017-06-26T09:37:52Z</time>
      </trkpt>
      <trkpt lat="48.56928" lon="6.43339">
        <ele>279</ele>
        <time>2017-06-26T09:37:53Z</time>
      </trkpt>
      <trkpt lat="48.56927" lon="6.43338">
        <ele>279</ele>
        <time>2017-06-26T09:37:54Z</time>
      </trkpt>
      <trkpt lat="48.56925" lon="6.43337">
        <ele>278</ele>
        <time>2017-06-26T09:37:55Z</time>
      </trkpt>
      <trkpt lat="48.56923" lon="6.43336">
        <ele>278</ele>
        <time>2017-06-26T09:37:56Z</time>
      </trkpt>
      <trkpt lat="48.56918" lon="6.43333">
        <ele>278</ele>
        <time>2017-06-26T09:37:57Z</time>
      </trkpt>
      <trkpt lat="48.56917" lon="6.43331">
        <ele>278</ele>
        <time>2017-06-26T09:37:58Z</time>
      </trkpt>
      <trkpt lat="48.56915" lon="6.4333">
        <ele>278</ele>
        <time>2017-06-26T09:37:59Z</time>
      </trkpt>
      <trkpt lat="48.56914" lon="6.43328">
        <ele>278</ele>
        <time>2017-06-26T09:38:00Z</time>
      </trkpt>
      <trkpt lat="48.56912" lon="6.43326">
        <ele>278</ele>
        <time>2017-06-26T09:38:01Z</time>
      </trkpt>
      <trkpt lat="48.5691" lon="6.43325">
        <ele>278</ele>
        <time>2017-06-26T09:38:02Z</time>
      </trkpt>
      <trkpt lat="48.5691" lon="6.43323">
        <ele>278</ele>
        <time>2017-06-26T09:38:03Z</time>
      </trkpt>
      <trkpt lat="48.56909" lon="6.43322">
        <ele>278</ele>
        <time>2017-06-26T09:38:04Z</time>
      </trkpt>
      <trkpt lat="48.56908" lon="6.43321">
        <ele>278</ele>
        <time>2017-06-26T09:38:05Z</time>
      </trkpt>
      <trkpt lat="48.56907" lon="6.4332">
        <ele>278</ele>
        <time>2017-06-26T09:38:06Z</time>
      </trkpt>
      <trkpt lat="48.56907" lon="6.43319">
        <ele>278</ele>
        <time>2017-06-26T09:38:07Z</time>
      </trkpt>
      <trkpt lat="48.56903" lon="6.43313">
        <ele>278</ele>
        <time>2017-06-26T09:38:08Z</time>
      </trkpt>
      <trkpt lat="48.56901" lon="6.43311">
        <ele>278</ele>
        <time>2017-06-26T09:38:09Z</time>
      </trkpt>
      <trkpt lat="48.56899" lon="6.4331">
        <ele>278</ele>
        <time>2017-06-26T09:38:10Z</time>
      </trkpt>
      <trkpt lat="48.56898" lon="6.43308">
        <ele>278</ele>
        <time>2017-06-26T09:38:11Z</time>
      </trkpt>
      <trkpt lat="48.56896" lon="6.43306">
        <ele>278</ele>
        <time>2017-06-26T09:38:12Z</time>
      </trkpt>
      <trkpt lat="48.56894" lon="6.43305">
        <ele>278</ele>
        <time>2017-06-26T09:38:13Z</time>
      </trkpt>
      <trkpt lat="48.56893" lon="6.43304">
        <ele>278</ele>
        <time>2017-06-26T09:38:14Z</time>
      </trkpt>
      <trkpt lat="48.56892" lon="6.43303">
        <ele>278</ele>
        <time>2017-06-26T09:38:15Z</time>
      </trkpt>
      <trkpt lat="48.56891" lon="6.43302">
        <ele>278</ele>
        <time>2017-06-26T09:38:16Z</time>
      </trkpt>
      <trkpt lat="48.5689" lon="6.43301">
        <ele>278</ele>
        <time>2017-06-26T09:38:17Z</time>
      </trkpt>
      <trkpt lat="48.56885" lon="6.43298">
        <ele>278</ele>
        <time>2017-06-26T09:38:18Z</time>
      </trkpt>
      <trkpt lat="48.56884" lon="6.43297">
        <ele>278</ele>
        <time>2017-06-26T09:38:19Z</time>
      </trkpt>
      <trkpt lat="48.56883" lon="6.43296">
        <ele>278</ele>
        <time>2017-06-26T09:38:20Z</time>
      </trkpt>
      <trkpt lat="48.56881" lon="6.43295">
        <ele>278</ele>
        <time>2017-06-26T09:38:21Z</time>
      </trkpt>
      <trkpt lat="48.5688" lon="6.43294">
        <ele>278</ele>
        <time>2017-06-26T09:38:22Z</time>
      </trkpt>
      <trkpt lat="48.56875" lon="6.4329">
        <ele>278</ele>
        <time>2017-06-26T09:38:23Z</time>
      </trkpt>
      <trkpt lat="48.56874" lon="6.43288">
        <ele>278</ele>
        <time>2017-06-26T09:38:24Z</time>
      </trkpt>
      <trkpt lat="48.56872" lon="6.43286">
        <ele>278</ele>
        <time>2017-06-26T09:38:25Z</time>
      </trkpt>
      <trkpt lat="48.56871" lon="6.43284">
        <ele>278</ele>
        <time>2017-06-26T09:38:26Z</time>
      </trkpt>
      <trkpt lat="48.56869" lon="6.43282">
        <ele>278</ele>
        <time>2017-06-26T09:38:27Z</time>
      </trkpt>
      <trkpt lat="48.56868" lon="6.4328">
        <ele>278</ele>
        <time>2017-06-26T09:38:28Z</time>
      </trkpt>
      <trkpt lat="48.56867" lon="6.43279">
        <ele>278</ele>
        <time>2017-06-26T09:38:29Z</time>
      </trkpt>
      <trkpt lat="48.56865" lon="6.43278">
        <ele>278</ele>
        <time>2017-06-26T09:38:30Z</time>
      </trkpt>
      <trkpt lat="48.56864" lon="6.43276">
        <ele>278</ele>
        <time>2017-06-26T09:38:31Z</time>
      </trkpt>
      <trkpt lat="48.56863" lon="6.43275">
        <ele>278</ele>
        <time>2017-06-26T09:38:32Z</time>
      </trkpt>
      <trkpt lat="48.56859" lon="6.4327">
        <ele>278</ele>
        <time>2017-06-26T09:38:33Z</time>
      </trkpt>
      <trkpt lat="48.56858" lon="6.43269">
        <ele>278</ele>
        <time>2017-06-26T09:38:34Z</time>
      </trkpt>
      <trkpt lat="48.56856" lon="6.43268">
        <ele>278</ele>
        <time>2017-06-26T09:38:35Z</time>
      </trkpt>
      <trkpt lat="48.56855" lon="6.43267">
        <ele>278</ele>
        <time>2017-06-26T09:38:36Z</time>
      </trkpt>
      <trkpt lat="48.56854" lon="6.43266">
        <ele>278</ele>
        <time>2017-06-26T09:38:37Z</time>
      </trkpt>
      <trkpt lat="48.56848" lon="6.43262">
        <ele>278</ele>
        <time>2017-06-26T09:38:38Z</time>
      </trkpt>
      <trkpt lat="48.56845" lon="6.4326">
        <ele>278</ele>
        <time>2017-06-26T09:38:39Z</time>
      </trkpt>
      <trkpt lat="48.56842" lon="6.43259">
        <ele>278</ele>
        <time>2017-06-26T09:38:40Z</time>
      </trkpt>
      <trkpt lat="48.56838" lon="6.43258">
        <ele>278</ele>
        <time>2017-06-26T09:38:41Z</time>
      </trkpt>
      <trkpt lat="48.56837" lon="6.43257">
        <ele>278</ele>
        <time>2017-06-26T09:38:42Z</time>
      </trkpt>
      <trkpt lat="48.56835" lon="6.43256">
        <ele>278</ele>
        <time>2017-06-26T09:38:43Z</time>
      </trkpt>
      <trkpt lat="48.56834" lon="6.43255">
        <ele>278</ele>
        <time>2017-06-26T09:38:44Z</time>
      </trkpt>
      <trkpt lat="48.56829" lon="6.43251">
        <ele>278</ele>
        <time>2017-06-26T09:38:45Z</time>
      </trkpt>
      <trkpt lat="48.56828" lon="6.4325">
        <ele>278</ele>
        <time>2017-06-26T09:38:46Z</time>
      </trkpt>
      <trkpt lat="48.56827" lon="6.43248">
        <ele>278</ele>
        <time>2017-06-26T09:38:47Z</time>
      </trkpt>
      <trkpt lat="48.56826" lon="6.43247">
        <ele>278</ele>
        <time>2017-06-26T09:38:48Z</time>
      </trkpt>
      <trkpt lat="48.56825" lon="6.43245">
        <ele>278</ele>
        <time>2017-06-26T09:38:49Z</time>
      </trkpt>
      <trkpt lat="48.56821" lon="6.43239">
        <ele>278</ele>
        <time>2017-06-26T09:38:50Z</time>
      </trkpt>
      <trkpt lat="48.5682" lon="6.43238">
        <ele>278</ele>
        <time>2017-06-26T09:38:51Z</time>
      </trkpt>
      <trkpt lat="48.5682" lon="6.43237">
        <ele>278</ele>
        <time>2017-06-26T09:38:52Z</time>
      </trkpt>
      <trkpt lat="48.56819" lon="6.43236">
        <ele>278</ele>
        <time>2017-06-26T09:38:53Z</time>
      </trkpt>
      <trkpt lat="48.56818" lon="6.43234">
        <ele>278</ele>
        <time>2017-06-26T09:38:54Z</time>
      </trkpt>
      <trkpt lat="48.56817" lon="6.43233">
        <ele>277</ele>
        <time>2017-06-26T09:38:55Z</time>
      </trkpt>
      <trkpt lat="48.56813" lon="6.43227">
        <ele>277</ele>
        <time>2017-06-26T09:38:56Z</time>
      </trkpt>
      <trkpt lat="48.56813" lon="6.43228">
        <ele>277</ele>
        <time>2017-06-26T09:38:57Z</time>
      </trkpt>
      <trkpt lat="48.56812" lon="6.43229">
        <ele>277</ele>
        <time>2017-06-26T09:39:00Z</time>
      </trkpt>
      <trkpt lat="48.56812" lon="6.4323">
        <ele>277</ele>
        <time>2017-06-26T09:39:04Z</time>
      </trkpt>
      <trkpt lat="48.56811" lon="6.4323">
        <ele>278</ele>
        <time>2017-06-26T09:39:05Z</time>
      </trkpt>
      <trkpt lat="48.56811" lon="6.43231">
        <ele>278</ele>
        <time>2017-06-26T09:39:07Z</time>
      </trkpt>
      <trkpt lat="48.5681" lon="6.43231">
        <ele>278</ele>
        <time>2017-06-26T09:39:10Z</time>
      </trkpt>
      <trkpt lat="48.5681" lon="6.43232">
        <ele>278</ele>
        <time>2017-06-26T09:39:11Z</time>
      </trkpt>
      <trkpt lat="48.5681" lon="6.43233">
        <ele>278</ele>
        <time>2017-06-26T09:39:14Z</time>
      </trkpt>
      <trkpt lat="48.56809" lon="6.43233">
        <ele>277</ele>
        <time>2017-06-26T09:39:15Z</time>
      </trkpt>
      <trkpt lat="48.56805" lon="6.43238">
        <ele>277</ele>
        <time>2017-06-26T09:39:16Z</time>
      </trkpt>
      <trkpt lat="48.56804" lon="6.43241">
        <ele>277</ele>
        <time>2017-06-26T09:39:17Z</time>
      </trkpt>
      <trkpt lat="48.56802" lon="6.43243">
        <ele>277</ele>
        <time>2017-06-26T09:39:18Z</time>
      </trkpt>
      <trkpt lat="48.568" lon="6.43246">
        <ele>277</ele>
        <time>2017-06-26T09:39:19Z</time>
      </trkpt>
      <trkpt lat="48.56798" lon="6.43248">
        <ele>277</ele>
        <time>2017-06-26T09:39:20Z</time>
      </trkpt>
      <trkpt lat="48.56797" lon="6.43251">
        <ele>277</ele>
        <time>2017-06-26T09:39:21Z</time>
      </trkpt>
      <trkpt lat="48.56796" lon="6.43253">
        <ele>277</ele>
        <time>2017-06-26T09:39:22Z</time>
      </trkpt>
      <trkpt lat="48.56795" lon="6.43255">
        <ele>277</ele>
        <time>2017-06-26T09:39:23Z</time>
      </trkpt>
      <trkpt lat="48.56793" lon="6.43257">
        <ele>277</ele>
        <time>2017-06-26T09:39:24Z</time>
      </trkpt>
      <trkpt lat="48.56792" lon="6.43259">
        <ele>276</ele>
        <time>2017-06-26T09:39:25Z</time>
      </trkpt>
      <trkpt lat="48.56792" lon="6.43262">
        <ele>276</ele>
        <time>2017-06-26T09:39:26Z</time>
      </trkpt>
      <trkpt lat="48.56792" lon="6.43264">
        <ele>276</ele>
        <time>2017-06-26T09:39:27Z</time>
      </trkpt>
      <trkpt lat="48.56792" lon="6.43267">
        <ele>276</ele>
        <time>2017-06-26T09:39:28Z</time>
      </trkpt>
      <trkpt lat="48.56792" lon="6.43269">
        <ele>276</ele>
        <time>2017-06-26T09:39:29Z</time>
      </trkpt>
      <trkpt lat="48.56792" lon="6.43271">
        <ele>276</ele>
        <time>2017-06-26T09:39:30Z</time>
      </trkpt>
      <trkpt lat="48.56792" lon="6.43274">
        <ele>276</ele>
        <time>2017-06-26T09:39:31Z</time>
      </trkpt>
      <trkpt lat="48.56792" lon="6.43276">
        <ele>276</ele>
        <time>2017-06-26T09:39:32Z</time>
      </trkpt>
      <trkpt lat="48.56791" lon="6.43277">
        <ele>276</ele>
        <time>2017-06-26T09:39:33Z</time>
      </trkpt>
      <trkpt lat="48.56791" lon="6.43279">
        <ele>276</ele>
        <time>2017-06-26T09:39:34Z</time>
      </trkpt>
      <trkpt lat="48.5679" lon="6.43281">
        <ele>274</ele>
        <time>2017-06-26T09:39:35Z</time>
      </trkpt>
      <trkpt lat="48.5679" lon="6.43282">
        <ele>274</ele>
        <time>2017-06-26T09:39:36Z</time>
      </trkpt>
      <trkpt lat="48.5679" lon="6.43284">
        <ele>274</ele>
        <time>2017-06-26T09:39:37Z</time>
      </trkpt>
      <trkpt lat="48.56789" lon="6.43286">
        <ele>274</ele>
        <time>2017-06-26T09:39:38Z</time>
      </trkpt>
      <trkpt lat="48.56789" lon="6.43288">
        <ele>274</ele>
        <time>2017-06-26T09:39:39Z</time>
      </trkpt>
      <trkpt lat="48.56788" lon="6.43289">
        <ele>273</ele>
        <time>2017-06-26T09:39:40Z</time>
      </trkpt>
      <trkpt lat="48.56788" lon="6.43291">
        <ele>273</ele>
        <time>2017-06-26T09:39:41Z</time>
      </trkpt>
      <trkpt lat="48.56787" lon="6.43293">
        <ele>273</ele>
        <time>2017-06-26T09:39:42Z</time>
      </trkpt>
      <trkpt lat="48.56787" lon="6.43294">
        <ele>273</ele>
        <time>2017-06-26T09:39:43Z</time>
      </trkpt>
      <trkpt lat="48.56787" lon="6.43296">
        <ele>273</ele>
        <time>2017-06-26T09:39:44Z</time>
      </trkpt>
      <trkpt lat="48.56784" lon="6.43304">
        <ele>271</ele>
        <time>2017-06-26T09:39:45Z</time>
      </trkpt>
      <trkpt lat="48.56784" lon="6.43307">
        <ele>271</ele>
        <time>2017-06-26T09:39:46Z</time>
      </trkpt>
      <trkpt lat="48.56783" lon="6.4331">
        <ele>271</ele>
        <time>2017-06-26T09:39:47Z</time>
      </trkpt>
      <trkpt lat="48.56782" lon="6.43313">
        <ele>271</ele>
        <time>2017-06-26T09:39:48Z</time>
      </trkpt>
      <trkpt lat="48.56782" lon="6.43316">
        <ele>271</ele>
        <time>2017-06-26T09:39:49Z</time>
      </trkpt>
      <trkpt lat="48.56781" lon="6.43319">
        <ele>270</ele>
        <time>2017-06-26T09:39:50Z</time>
      </trkpt>
      <trkpt lat="48.5678" lon="6.4332">
        <ele>270</ele>
        <time>2017-06-26T09:39:51Z</time>
      </trkpt>
      <trkpt lat="48.56779" lon="6.43322">
        <ele>270</ele>
        <time>2017-06-26T09:39:52Z</time>
      </trkpt>
      <trkpt lat="48.56779" lon="6.43324">
        <ele>270</ele>
        <time>2017-06-26T09:39:53Z</time>
      </trkpt>
      <trkpt lat="48.56778" lon="6.43326">
        <ele>270</ele>
        <time>2017-06-26T09:39:54Z</time>
      </trkpt>
      <trkpt lat="48.56775" lon="6.43333">
        <ele>269</ele>
        <time>2017-06-26T09:39:55Z</time>
      </trkpt>
      <trkpt lat="48.56774" lon="6.43335">
        <ele>269</ele>
        <time>2017-06-26T09:39:56Z</time>
      </trkpt>
      <trkpt lat="48.56773" lon="6.43336">
        <ele>269</ele>
        <time>2017-06-26T09:39:57Z</time>
      </trkpt>
      <trkpt lat="48.56773" lon="6.43338">
        <ele>269</ele>
        <time>2017-06-26T09:39:58Z</time>
      </trkpt>
      <trkpt lat="48.56772" lon="6.4334">
        <ele>269</ele>
        <time>2017-06-26T09:39:59Z</time>
      </trkpt>
      <trkpt lat="48.56769" lon="6.43346">
        <ele>269</ele>
        <time>2017-06-26T09:40:00Z</time>
      </trkpt>
      <trkpt lat="48.56768" lon="6.43348">
        <ele>269</ele>
        <time>2017-06-26T09:40:01Z</time>
      </trkpt>
      <trkpt lat="48.56766" lon="6.43349">
        <ele>269</ele>
        <time>2017-06-26T09:40:02Z</time>
      </trkpt>
      <trkpt lat="48.56765" lon="6.43351">
        <ele>269</ele>
        <time>2017-06-26T09:40:03Z</time>
      </trkpt>
      <trkpt lat="48.56764" lon="6.43352">
        <ele>269</ele>
        <time>2017-06-26T09:40:04Z</time>
      </trkpt>
      <trkpt lat="48.56758" lon="6.43358">
        <ele>265</ele>
        <time>2017-06-26T09:40:05Z</time>
      </trkpt>
      <trkpt lat="48.56756" lon="6.4336">
        <ele>265</ele>
        <time>2017-06-26T09:40:06Z</time>
      </trkpt>
      <trkpt lat="48.56754" lon="6.43361">
        <ele>265</ele>
        <time>2017-06-26T09:40:07Z</time>
      </trkpt>
      <trkpt lat="48.56751" lon="6.43363">
        <ele>265</ele>
        <time>2017-06-26T09:40:08Z</time>
      </trkpt>
      <trkpt lat="48.56749" lon="6.43364">
        <ele>265</ele>
        <time>2017-06-26T09:40:09Z</time>
      </trkpt>
      <trkpt lat="48.56748" lon="6.43364">
        <ele>265</ele>
        <time>2017-06-26T09:40:10Z</time>
      </trkpt>
      <trkpt lat="48.56747" lon="6.43365">
        <ele>265</ele>
        <time>2017-06-26T09:40:11Z</time>
      </trkpt>
      <trkpt lat="48.56745" lon="6.43365">
        <ele>265</ele>
        <time>2017-06-26T09:40:12Z</time>
      </trkpt>
      <trkpt lat="48.56744" lon="6.43366">
        <ele>265</ele>
        <time>2017-06-26T09:40:13Z</time>
      </trkpt>
      <trkpt lat="48.56743" lon="6.43366">
        <ele>265</ele>
        <time>2017-06-26T09:40:14Z</time>
      </trkpt>
      <trkpt lat="48.56737" lon="6.43368">
        <ele>264</ele>
        <time>2017-06-26T09:40:15Z</time>
      </trkpt>
      <trkpt lat="48.56736" lon="6.43368">
        <ele>264</ele>
        <time>2017-06-26T09:40:16Z</time>
      </trkpt>
      <trkpt lat="48.56734" lon="6.43368">
        <ele>264</ele>
        <time>2017-06-26T09:40:17Z</time>
      </trkpt>
      <trkpt lat="48.56733" lon="6.43368">
        <ele>264</ele>
        <time>2017-06-26T09:40:18Z</time>
      </trkpt>
      <trkpt lat="48.56731" lon="6.43368">
        <ele>264</ele>
        <time>2017-06-26T09:40:19Z</time>
      </trkpt>
      <trkpt lat="48.56725" lon="6.43369">
        <ele>264</ele>
        <time>2017-06-26T09:40:20Z</time>
      </trkpt>
      <trkpt lat="48.56722" lon="6.43369">
        <ele>264</ele>
        <time>2017-06-26T09:40:21Z</time>
      </trkpt>
      <trkpt lat="48.5672" lon="6.4337">
        <ele>264</ele>
        <time>2017-06-26T09:40:22Z</time>
      </trkpt>
      <trkpt lat="48.56717" lon="6.4337">
        <ele>264</ele>
        <time>2017-06-26T09:40:23Z</time>
      </trkpt>
      <trkpt lat="48.56715" lon="6.4337">
        <ele>264</ele>
        <time>2017-06-26T09:40:24Z</time>
      </trkpt>
      <trkpt lat="48.56713" lon="6.4337">
        <ele>261</ele>
        <time>2017-06-26T09:40:25Z</time>
      </trkpt>
      <trkpt lat="48.56711" lon="6.4337">
        <ele>261</ele>
        <time>2017-06-26T09:40:26Z</time>
      </trkpt>
      <trkpt lat="48.56709" lon="6.4337">
        <ele>261</ele>
        <time>2017-06-26T09:40:27Z</time>
      </trkpt>
      <trkpt lat="48.56704" lon="6.4337">
        <ele>261</ele>
        <time>2017-06-26T09:40:28Z</time>
      </trkpt>
      <trkpt lat="48.56702" lon="6.43369">
        <ele>261</ele>
        <time>2017-06-26T09:40:29Z</time>
      </trkpt>
      <trkpt lat="48.567" lon="6.43368">
        <ele>260</ele>
        <time>2017-06-26T09:40:30Z</time>
      </trkpt>
      <trkpt lat="48.56698" lon="6.43367">
        <ele>260</ele>
        <time>2017-06-26T09:40:31Z</time>
      </trkpt>
      <trkpt lat="48.56693" lon="6.43364">
        <ele>260</ele>
        <time>2017-06-26T09:40:32Z</time>
      </trkpt>
      <trkpt lat="48.56691" lon="6.43364">
        <ele>260</ele>
        <time>2017-06-26T09:40:33Z</time>
      </trkpt>
      <trkpt lat="48.56689" lon="6.43364">
        <ele>260</ele>
        <time>2017-06-26T09:40:34Z</time>
      </trkpt>
      <trkpt lat="48.56687" lon="6.43364">
        <ele>262</ele>
        <time>2017-06-26T09:40:35Z</time>
      </trkpt>
      <trkpt lat="48.56681" lon="6.43363">
        <ele>262</ele>
        <time>2017-06-26T09:40:36Z</time>
      </trkpt>
      <trkpt lat="48.5668" lon="6.43363">
        <ele>262</ele>
        <time>2017-06-26T09:40:37Z</time>
      </trkpt>
      <trkpt lat="48.56679" lon="6.43363">
        <ele>262</ele>
        <time>2017-06-26T09:40:38Z</time>
      </trkpt>
      <trkpt lat="48.56677" lon="6.43363">
        <ele>262</ele>
        <time>2017-06-26T09:40:39Z</time>
      </trkpt>
      <trkpt lat="48.56676" lon="6.43363">
        <ele>262</ele>
        <time>2017-06-26T09:40:40Z</time>
      </trkpt>
      <trkpt lat="48.56671" lon="6.43363">
        <ele>262</ele>
        <time>2017-06-26T09:40:41Z</time>
      </trkpt>
      <trkpt lat="48.56669" lon="6.43361">
        <ele>262</ele>
        <time>2017-06-26T09:40:42Z</time>
      </trkpt>
      <trkpt lat="48.56667" lon="6.4336">
        <ele>262</ele>
        <time>2017-06-26T09:40:43Z</time>
      </trkpt>
      <trkpt lat="48.56665" lon="6.43359">
        <ele>262</ele>
        <time>2017-06-26T09:40:44Z</time>
      </trkpt>
      <trkpt lat="48.56664" lon="6.43358">
        <ele>260</ele>
        <time>2017-06-26T09:40:45Z</time>
      </trkpt>
      <trkpt lat="48.56662" lon="6.43357">
        <ele>260</ele>
        <time>2017-06-26T09:40:46Z</time>
      </trkpt>
      <trkpt lat="48.5666" lon="6.43355">
        <ele>260</ele>
        <time>2017-06-26T09:40:47Z</time>
      </trkpt>
      <trkpt lat="48.56658" lon="6.43353">
        <ele>260</ele>
        <time>2017-06-26T09:40:48Z</time>
      </trkpt>
      <trkpt lat="48.56656" lon="6.43351">
        <ele>260</ele>
        <time>2017-06-26T09:40:49Z</time>
      </trkpt>
      <trkpt lat="48.56654" lon="6.43349">
        <ele>260</ele>
        <time>2017-06-26T09:40:50Z</time>
      </trkpt>
      <trkpt lat="48.56652" lon="6.43348">
        <ele>260</ele>
        <time>2017-06-26T09:40:51Z</time>
      </trkpt>
      <trkpt lat="48.56651" lon="6.43347">
        <ele>260</ele>
        <time>2017-06-26T09:40:52Z</time>
      </trkpt>
      <trkpt lat="48.5665" lon="6.43346">
        <ele>260</ele>
        <time>2017-06-26T09:40:53Z</time>
      </trkpt>
      <trkpt lat="48.56649" lon="6.43345">
        <ele>260</ele>
        <time>2017-06-26T09:40:54Z</time>
      </trkpt>
      <trkpt lat="48.56644" lon="6.4334">
        <ele>258</ele>
        <time>2017-06-26T09:40:55Z</time>
      </trkpt>
      <trkpt lat="48.56643" lon="6.43339">
        <ele>258</ele>
        <time>2017-06-26T09:40:56Z</time>
      </trkpt>
      <trkpt lat="48.56642" lon="6.43338">
        <ele>258</ele>
        <time>2017-06-26T09:40:57Z</time>
      </trkpt>
      <trkpt lat="48.56641" lon="6.43336">
        <ele>258</ele>
        <time>2017-06-26T09:40:58Z</time>
      </trkpt>
      <trkpt lat="48.56639" lon="6.43335">
        <ele>258</ele>
        <time>2017-06-26T09:40:59Z</time>
      </trkpt>
      <trkpt lat="48.56635" lon="6.43329">
        <ele>257</ele>
        <time>2017-06-26T09:41:00Z</time>
      </trkpt>
      <trkpt lat="48.56634" lon="6.43327">
        <ele>257</ele>
        <time>2017-06-26T09:41:01Z</time>
      </trkpt>
      <trkpt lat="48.56632" lon="6.43324">
        <ele>257</ele>
        <time>2017-06-26T09:41:02Z</time>
      </trkpt>
      <trkpt lat="48.56631" lon="6.43322">
        <ele>257</ele>
        <time>2017-06-26T09:41:03Z</time>
      </trkpt>
      <trkpt lat="48.5663" lon="6.4332">
        <ele>257</ele>
        <time>2017-06-26T09:41:04Z</time>
      </trkpt>
      <trkpt lat="48.56628" lon="6.43318">
        <ele>257</ele>
        <time>2017-06-26T09:41:05Z</time>
      </trkpt>
      <trkpt lat="48.56627" lon="6.43315">
        <ele>257</ele>
        <time>2017-06-26T09:41:06Z</time>
      </trkpt>
      <trkpt lat="48.56626" lon="6.43313">
        <ele>257</ele>
        <time>2017-06-26T09:41:07Z</time>
      </trkpt>
      <trkpt lat="48.56625" lon="6.43311">
        <ele>257</ele>
        <time>2017-06-26T09:41:08Z</time>
      </trkpt>
      <trkpt lat="48.56622" lon="6.43304">
        <ele>257</ele>
        <time>2017-06-26T09:41:09Z</time>
      </trkpt>
      <trkpt lat="48.56621" lon="6.43301">
        <ele>257</ele>
        <time>2017-06-26T09:41:10Z</time>
      </trkpt>
      <trkpt lat="48.56619" lon="6.43298">
        <ele>257</ele>
        <time>2017-06-26T09:41:11Z</time>
      </trkpt>
      <trkpt lat="48.56618" lon="6.43295">
        <ele>257</ele>
        <time>2017-06-26T09:41:12Z</time>
      </trkpt>
      <trkpt lat="48.56617" lon="6.43291">
        <ele>257</ele>
        <time>2017-06-26T09:41:13Z</time>
      </trkpt>
      <trkpt lat="48.56616" lon="6.43289">
        <ele>257</ele>
        <time>2017-06-26T09:41:14Z</time>
      </trkpt>
      <trkpt lat="48.56615" lon="6.43287">
        <ele>257</ele>
        <time>2017-06-26T09:41:15Z</time>
      </trkpt>
      <trkpt lat="48.56615" lon="6.43285">
        <ele>257</ele>
        <time>2017-06-26T09:41:16Z</time>
      </trkpt>
      <trkpt lat="48.56612" lon="6.43278">
        <ele>257</ele>
        <time>2017-06-26T09:41:17Z</time>
      </trkpt>
      <trkpt lat="48.56611" lon="6.43276">
        <ele>257</ele>
        <time>2017-06-26T09:41:18Z</time>
      </trkpt>
      <trkpt lat="48.5661" lon="6.43275">
        <ele>257</ele>
        <time>2017-06-26T09:41:19Z</time>
      </trkpt>
      <trkpt lat="48.56609" lon="6.43273">
        <ele>257</ele>
        <time>2017-06-26T09:41:20Z</time>
      </trkpt>
      <trkpt lat="48.56608" lon="6.43271">
        <ele>257</ele>
        <time>2017-06-26T09:41:21Z</time>
      </trkpt>
      <trkpt lat="48.56605" lon="6.43265">
        <ele>257</ele>
        <time>2017-06-26T09:41:22Z</time>
      </trkpt>
      <trkpt lat="48.56604" lon="6.43264">
        <ele>257</ele>
        <time>2017-06-26T09:41:23Z</time>
      </trkpt>
      <trkpt lat="48.56603" lon="6.43262">
        <ele>257</ele>
        <time>2017-06-26T09:41:24Z</time>
      </trkpt>
      <trkpt lat="48.56602" lon="6.43261">
        <ele>257</ele>
        <time>2017-06-26T09:41:25Z</time>
      </trkpt>
      <trkpt lat="48.56601" lon="6.4326">
        <ele>257</ele>
        <time>2017-06-26T09:41:26Z</time>
      </trkpt>
      <trkpt lat="48.56597" lon="6.43256">
        <ele>257</ele>
        <time>2017-06-26T09:41:27Z</time>
      </trkpt>
      <trkpt lat="48.56595" lon="6.43254">
        <ele>257</ele>
        <time>2017-06-26T09:41:28Z</time>
      </trkpt>
      <trkpt lat="48.56594" lon="6.43253">
        <ele>257</ele>
        <time>2017-06-26T09:41:29Z</time>
      </trkpt>
      <trkpt lat="48.56593" lon="6.43252">
        <ele>257</ele>
        <time>2017-06-26T09:41:30Z</time>
      </trkpt>
      <trkpt lat="48.56592" lon="6.43251">
        <ele>257</ele>
        <time>2017-06-26T09:41:31Z</time>
      </trkpt>
      <trkpt lat="48.56588" lon="6.43246">
        <ele>257</ele>
        <time>2017-06-26T09:41:32Z</time>
      </trkpt>
      <trkpt lat="48.56585" lon="6.43244">
        <ele>257</ele>
        <time>2017-06-26T09:41:33Z</time>
      </trkpt>
      <trkpt lat="48.56583" lon="6.43243">
        <ele>257</ele>
        <time>2017-06-26T09:41:34Z</time>
      </trkpt>
      <trkpt lat="48.5658" lon="6.43242">
        <ele>255</ele>
        <time>2017-06-26T09:41:35Z</time>
      </trkpt>
      <trkpt lat="48.56578" lon="6.4324">
        <ele>255</ele>
        <time>2017-06-26T09:41:36Z</time>
      </trkpt>
      <trkpt lat="48.56577" lon="6.43239">
        <ele>255</ele>
        <time>2017-06-26T09:41:37Z</time>
      </trkpt>
      <trkpt lat="48.56576" lon="6.43238">
        <ele>255</ele>
        <time>2017-06-26T09:41:38Z</time>
      </trkpt>
      <trkpt lat="48.56575" lon="6.43237">
        <ele>255</ele>
        <time>2017-06-26T09:41:39Z</time>
      </trkpt>
      <trkpt lat="48.56574" lon="6.43236">
        <ele>255</ele>
        <time>2017-06-26T09:41:40Z</time>
      </trkpt>
      <trkpt lat="48.56574" lon="6.43235">
        <ele>255</ele>
        <time>2017-06-26T09:41:41Z</time>
      </trkpt>
      <trkpt lat="48.56569" lon="6.4323">
        <ele>255</ele>
        <time>2017-06-26T09:41:42Z</time>
      </trkpt>
      <trkpt lat="48.56568" lon="6.43228">
        <ele>255</ele>
        <time>2017-06-26T09:41:43Z</time>
      </trkpt>
      <trkpt lat="48.56567" lon="6.43227">
        <ele>255</ele>
        <time>2017-06-26T09:41:44Z</time>
      </trkpt>
      <trkpt lat="48.56566" lon="6.43226">
        <ele>254</ele>
        <time>2017-06-26T09:41:45Z</time>
      </trkpt>
      <trkpt lat="48.56565" lon="6.43225">
        <ele>254</ele>
        <time>2017-06-26T09:41:46Z</time>
      </trkpt>
      <trkpt lat="48.5656" lon="6.4322">
        <ele>254</ele>
        <time>2017-06-26T09:41:47Z</time>
      </trkpt>
      <trkpt lat="48.56559" lon="6.43219">
        <ele>254</ele>
        <time>2017-06-26T09:41:48Z</time>
      </trkpt>
      <trkpt lat="48.56558" lon="6.43218">
        <ele>254</ele>
        <time>2017-06-26T09:41:49Z</time>
      </trkpt>
      <trkpt lat="48.56557" lon="6.43217">
        <ele>254</ele>
        <time>2017-06-26T09:41:50Z</time>
      </trkpt>
      <trkpt lat="48.56555" lon="6.43216">
        <ele>254</ele>
        <time>2017-06-26T09:41:51Z</time>
      </trkpt>
      <trkpt lat="48.56551" lon="6.43211">
        <ele>254</ele>
        <time>2017-06-26T09:41:52Z</time>
      </trkpt>
      <trkpt lat="48.56549" lon="6.43209">
        <ele>254</ele>
        <time>2017-06-26T09:41:53Z</time>
      </trkpt>
      <trkpt lat="48.56547" lon="6.43206">
        <ele>254</ele>
        <time>2017-06-26T09:41:54Z</time>
      </trkpt>
      <trkpt lat="48.56545" lon="6.43204">
        <ele>254</ele>
        <time>2017-06-26T09:41:55Z</time>
      </trkpt>
      <trkpt lat="48.56543" lon="6.43202">
        <ele>254</ele>
        <time>2017-06-26T09:41:56Z</time>
      </trkpt>
      <trkpt lat="48.56541" lon="6.432">
        <ele>254</ele>
        <time>2017-06-26T09:41:57Z</time>
      </trkpt>
      <trkpt lat="48.56539" lon="6.43199">
        <ele>254</ele>
        <time>2017-06-26T09:41:58Z</time>
      </trkpt>
      <trkpt lat="48.56537" lon="6.43198">
        <ele>254</ele>
        <time>2017-06-26T09:41:59Z</time>
      </trkpt>
      <trkpt lat="48.56532" lon="6.43195">
        <ele>254</ele>
        <time>2017-06-26T09:42:00Z</time>
      </trkpt>
      <trkpt lat="48.56532" lon="6.43194">
        <ele>254</ele>
        <time>2017-06-26T09:42:01Z</time>
      </trkpt>
      <trkpt lat="48.56531" lon="6.43193">
        <ele>254</ele>
        <time>2017-06-26T09:42:02Z</time>
      </trkpt>
      <trkpt lat="48.56531" lon="6.43191">
        <ele>254</ele>
        <time>2017-06-26T09:42:03Z</time>
      </trkpt>
      <trkpt lat="48.5653" lon="6.4319">
        <ele>254</ele>
        <time>2017-06-26T09:42:04Z</time>
      </trkpt>
      <trkpt lat="48.5653" lon="6.43189">
        <ele>252</ele>
        <time>2017-06-26T09:42:05Z</time>
      </trkpt>
      <trkpt lat="48.5653" lon="6.43188">
        <ele>252</ele>
        <time>2017-06-26T09:42:06Z</time>
      </trkpt>
      <trkpt lat="48.56529" lon="6.43187">
        <ele>252</ele>
        <time>2017-06-26T09:42:07Z</time>
      </trkpt>
      <trkpt lat="48.56529" lon="6.43186">
        <ele>252</ele>
        <time>2017-06-26T09:42:08Z</time>
      </trkpt>
      <trkpt lat="48.56529" lon="6.43185">
        <ele>252</ele>
        <time>2017-06-26T09:42:09Z</time>
      </trkpt>
      <trkpt lat="48.56528" lon="6.43183">
        <ele>252</ele>
        <time>2017-06-26T09:42:10Z</time>
      </trkpt>
      <trkpt lat="48.56529" lon="6.43183">
        <ele>252</ele>
        <time>2017-06-26T09:42:12Z</time>
      </trkpt>
      <trkpt lat="48.5653" lon="6.43182">
        <ele>252</ele>
        <time>2017-06-26T09:42:15Z</time>
      </trkpt>
      <trkpt lat="48.56531" lon="6.43182">
        <ele>252</ele>
        <time>2017-06-26T09:42:19Z</time>
      </trkpt>
      <trkpt lat="48.56531" lon="6.43181">
        <ele>252</ele>
        <time>2017-06-26T09:42:20Z</time>
      </trkpt>
      <trkpt lat="48.56532" lon="6.43181">
        <ele>252</ele>
        <time>2017-06-26T09:42:23Z</time>
      </trkpt>
      <trkpt lat="48.56532" lon="6.4318">
        <ele>252</ele>
        <time>2017-06-26T09:42:25Z</time>
      </trkpt>
      <trkpt lat="48.56533" lon="6.4318">
        <ele>252</ele>
        <time>2017-06-26T09:42:27Z</time>
      </trkpt>
      <trkpt lat="48.56534" lon="6.43179">
        <ele>252</ele>
        <time>2017-06-26T09:42:30Z</time>
      </trkpt>
      <trkpt lat="48.56535" lon="6.43179">
        <ele>252</ele>
        <time>2017-06-26T09:42:32Z</time>
      </trkpt>
      <trkpt lat="48.56536" lon="6.43179">
        <ele>252</ele>
        <time>2017-06-26T09:42:33Z</time>
      </trkpt>
      <trkpt lat="48.56537" lon="6.43178">
        <ele>254</ele>
        <time>2017-06-26T09:42:35Z</time>
      </trkpt>
      <trkpt lat="48.56538" lon="6.43178">
        <ele>254</ele>
        <time>2017-06-26T09:42:36Z</time>
      </trkpt>
      <trkpt lat="48.56539" lon="6.43178">
        <ele>254</ele>
        <time>2017-06-26T09:42:37Z</time>
      </trkpt>
      <trkpt lat="48.5654" lon="6.43178">
        <ele>254</ele>
        <time>2017-06-26T09:42:38Z</time>
      </trkpt>
      <trkpt lat="48.56541" lon="6.43177">
        <ele>254</ele>
        <time>2017-06-26T09:42:39Z</time>
      </trkpt>
      <trkpt lat="48.56542" lon="6.43177">
        <ele>254</ele>
        <time>2017-06-26T09:42:40Z</time>
      </trkpt>
      <trkpt lat="48.56543" lon="6.43178">
        <ele>254</ele>
        <time>2017-06-26T09:42:41Z</time>
      </trkpt>
      <trkpt lat="48.56545" lon="6.43179">
        <ele>254</ele>
        <time>2017-06-26T09:42:42Z</time>
      </trkpt>
      <trkpt lat="48.56546" lon="6.4318">
        <ele>254</ele>
        <time>2017-06-26T09:42:43Z</time>
      </trkpt>
      <trkpt lat="48.56548" lon="6.4318">
        <ele>254</ele>
        <time>2017-06-26T09:42:44Z</time>
      </trkpt>
      <trkpt lat="48.56549" lon="6.43181">
        <ele>254</ele>
        <time>2017-06-26T09:42:45Z</time>
      </trkpt>
      <trkpt lat="48.56551" lon="6.43182">
        <ele>254</ele>
        <time>2017-06-26T09:42:46Z</time>
      </trkpt>
      <trkpt lat="48.56553" lon="6.43183">
        <ele>254</ele>
        <time>2017-06-26T09:42:47Z</time>
      </trkpt>
      <trkpt lat="48.56555" lon="6.43184">
        <ele>254</ele>
        <time>2017-06-26T09:42:48Z</time>
      </trkpt>
      <trkpt lat="48.56557" lon="6.43184">
        <ele>254</ele>
        <time>2017-06-26T09:42:49Z</time>
      </trkpt>
      <trkpt lat="48.56559" lon="6.43185">
        <ele>254</ele>
        <time>2017-06-26T09:42:50Z</time>
      </trkpt>
      <trkpt lat="48.56561" lon="6.43186">
        <ele>254</ele>
        <time>2017-06-26T09:42:51Z</time>
      </trkpt>
      <trkpt lat="48.56562" lon="6.43186">
        <ele>254</ele>
        <time>2017-06-26T09:42:52Z</time>
      </trkpt>
      <trkpt lat="48.56563" lon="6.43187">
        <ele>254</ele>
        <time>2017-06-26T09:42:53Z</time>
      </trkpt>
      <trkpt lat="48.56565" lon="6.43188">
        <ele>254</ele>
        <time>2017-06-26T09:42:54Z</time>
      </trkpt>
      <trkpt lat="48.56566" lon="6.43188">
        <ele>254</ele>
        <time>2017-06-26T09:42:55Z</time>
      </trkpt>
      <trkpt lat="48.56571" lon="6.43191">
        <ele>254</ele>
        <time>2017-06-26T09:42:56Z</time>
      </trkpt>
      <trkpt lat="48.56572" lon="6.43191">
        <ele>254</ele>
        <time>2017-06-26T09:42:57Z</time>
      </trkpt>
      <trkpt lat="48.56573" lon="6.43192">
        <ele>254</ele>
        <time>2017-06-26T09:42:58Z</time>
      </trkpt>
      <trkpt lat="48.56575" lon="6.43193">
        <ele>254</ele>
        <time>2017-06-26T09:42:59Z</time>
      </trkpt>
      <trkpt lat="48.56576" lon="6.43194">
        <ele>254</ele>
        <time>2017-06-26T09:43:00Z</time>
      </trkpt>
      <trkpt lat="48.56581" lon="6.43197">
        <ele>254</ele>
        <time>2017-06-26T09:43:01Z</time>
      </trkpt>
      <trkpt lat="48.56583" lon="6.43198">
        <ele>254</ele>
        <time>2017-06-26T09:43:02Z</time>
      </trkpt>
      <trkpt lat="48.56584" lon="6.43199">
        <ele>254</ele>
        <time>2017-06-26T09:43:03Z</time>
      </trkpt>
      <trkpt lat="48.56586" lon="6.43201">
        <ele>254</ele>
        <time>2017-06-26T09:43:04Z</time>
      </trkpt>
      <trkpt lat="48.56591" lon="6.43205">
        <ele>255</ele>
        <time>2017-06-26T09:43:05Z</time>
      </trkpt>
      <trkpt lat="48.56592" lon="6.43206">
        <ele>255</ele>
        <time>2017-06-26T09:43:06Z</time>
      </trkpt>
      <trkpt lat="48.56594" lon="6.43207">
        <ele>255</ele>
        <time>2017-06-26T09:43:07Z</time>
      </trkpt>
      <trkpt lat="48.56596" lon="6.43208">
        <ele>255</ele>
        <time>2017-06-26T09:43:08Z</time>
      </trkpt>
      <trkpt lat="48.56601" lon="6.43212">
        <ele>255</ele>
        <time>2017-06-26T09:43:09Z</time>
      </trkpt>
      <trkpt lat="48.56602" lon="6.43213">
        <ele>255</ele>
        <time>2017-06-26T09:43:10Z</time>
      </trkpt>
      <trkpt lat="48.56604" lon="6.43215">
        <ele>255</ele>
        <time>2017-06-26T09:43:11Z</time>
      </trkpt>
      <trkpt lat="48.56606" lon="6.43216">
        <ele>255</ele>
        <time>2017-06-26T09:43:12Z</time>
      </trkpt>
      <trkpt lat="48.56607" lon="6.43218">
        <ele>255</ele>
        <time>2017-06-26T09:43:13Z</time>
      </trkpt>
      <trkpt lat="48.56609" lon="6.43219">
        <ele>255</ele>
        <time>2017-06-26T09:43:14Z</time>
      </trkpt>
      <trkpt lat="48.5661" lon="6.43221">
        <ele>256</ele>
        <time>2017-06-26T09:43:15Z</time>
      </trkpt>
      <trkpt lat="48.56611" lon="6.43222">
        <ele>256</ele>
        <time>2017-06-26T09:43:16Z</time>
      </trkpt>
      <trkpt lat="48.56612" lon="6.43224">
        <ele>256</ele>
        <time>2017-06-26T09:43:17Z</time>
      </trkpt>
      <trkpt lat="48.56613" lon="6.43225">
        <ele>256</ele>
        <time>2017-06-26T09:43:18Z</time>
      </trkpt>
      <trkpt lat="48.56617" lon="6.43231">
        <ele>256</ele>
        <time>2017-06-26T09:43:19Z</time>
      </trkpt>
      <trkpt lat="48.56618" lon="6.43232">
        <ele>256</ele>
        <time>2017-06-26T09:43:20Z</time>
      </trkpt>
      <trkpt lat="48.56619" lon="6.43234">
        <ele>256</ele>
        <time>2017-06-26T09:43:21Z</time>
      </trkpt>
      <trkpt lat="48.5662" lon="6.43235">
        <ele>256</ele>
        <time>2017-06-26T09:43:22Z</time>
      </trkpt>
      <trkpt lat="48.56622" lon="6.43237">
        <ele>256</ele>
        <time>2017-06-26T09:43:23Z</time>
      </trkpt>
      <trkpt lat="48.56626" lon="6.43242">
        <ele>256</ele>
        <time>2017-06-26T09:43:24Z</time>
      </trkpt>
      <trkpt lat="48.56628" lon="6.43244">
        <ele>258</ele>
        <time>2017-06-26T09:43:25Z</time>
      </trkpt>
      <trkpt lat="48.56629" lon="6.43245">
        <ele>258</ele>
        <time>2017-06-26T09:43:26Z</time>
      </trkpt>
      <trkpt lat="48.5663" lon="6.43247">
        <ele>258</ele>
        <time>2017-06-26T09:43:27Z</time>
      </trkpt>
      <trkpt lat="48.56632" lon="6.43249">
        <ele>258</ele>
        <time>2017-06-26T09:43:28Z</time>
      </trkpt>
      <trkpt lat="48.56633" lon="6.4325">
        <ele>258</ele>
        <time>2017-06-26T09:43:29Z</time>
      </trkpt>
      <trkpt lat="48.56634" lon="6.43252">
        <ele>258</ele>
        <time>2017-06-26T09:43:30Z</time>
      </trkpt>
      <trkpt lat="48.56635" lon="6.43253">
        <ele>258</ele>
        <time>2017-06-26T09:43:31Z</time>
      </trkpt>
      <trkpt lat="48.56636" lon="6.43255">
        <ele>258</ele>
        <time>2017-06-26T09:43:32Z</time>
      </trkpt>
      <trkpt lat="48.56637" lon="6.43256">
        <ele>258</ele>
        <time>2017-06-26T09:43:33Z</time>
      </trkpt>
      <trkpt lat="48.56638" lon="6.43258">
        <ele>258</ele>
        <time>2017-06-26T09:43:34Z</time>
      </trkpt>
      <trkpt lat="48.56641" lon="6.43263">
        <ele>258</ele>
        <time>2017-06-26T09:43:35Z</time>
      </trkpt>
      <trkpt lat="48.56642" lon="6.43265">
        <ele>258</ele>
        <time>2017-06-26T09:43:36Z</time>
      </trkpt>
      <trkpt lat="48.56642" lon="6.43266">
        <ele>258</ele>
        <time>2017-06-26T09:43:37Z</time>
      </trkpt>
      <trkpt lat="48.56643" lon="6.43268">
        <ele>258</ele>
        <time>2017-06-26T09:43:38Z</time>
      </trkpt>
      <trkpt lat="48.56644" lon="6.43269">
        <ele>258</ele>
        <time>2017-06-26T09:43:39Z</time>
      </trkpt>
      <trkpt lat="48.56644" lon="6.43271">
        <ele>258</ele>
        <time>2017-06-26T09:43:40Z</time>
      </trkpt>
      <trkpt lat="48.56647" lon="6.43279">
        <ele>258</ele>
        <time>2017-06-26T09:43:41Z</time>
      </trkpt>
      <trkpt lat="48.56648" lon="6.4328">
        <ele>258</ele>
        <time>2017-06-26T09:43:42Z</time>
      </trkpt>
      <trkpt lat="48.56648" lon="6.43281">
        <ele>258</ele>
        <time>2017-06-26T09:43:43Z</time>
      </trkpt>
      <trkpt lat="48.56649" lon="6.43283">
        <ele>258</ele>
        <time>2017-06-26T09:43:44Z</time>
      </trkpt>
      <trkpt lat="48.5665" lon="6.43284">
        <ele>258</ele>
        <time>2017-06-26T09:43:45Z</time>
      </trkpt>
      <trkpt lat="48.56651" lon="6.43286">
        <ele>258</ele>
        <time>2017-06-26T09:43:46Z</time>
      </trkpt>
      <trkpt lat="48.56654" lon="6.43293">
        <ele>258</ele>
        <time>2017-06-26T09:43:47Z</time>
      </trkpt>
      <trkpt lat="48.56655" lon="6.43295">
        <ele>258</ele>
        <time>2017-06-26T09:43:48Z</time>
      </trkpt>
      <trkpt lat="48.56657" lon="6.43297">
        <ele>258</ele>
        <time>2017-06-26T09:43:49Z</time>
      </trkpt>
      <trkpt lat="48.56658" lon="6.43299">
        <ele>258</ele>
        <time>2017-06-26T09:43:50Z</time>
      </trkpt>
      <trkpt lat="48.56662" lon="6.43304">
        <ele>258</ele>
        <time>2017-06-26T09:43:51Z</time>
      </trkpt>
      <trkpt lat="48.56662" lon="6.43306">
        <ele>257</ele>
        <time>2017-06-26T09:43:52Z</time>
      </trkpt>
      <trkpt lat="48.56663" lon="6.43308">
        <ele>257</ele>
        <time>2017-06-26T09:43:53Z</time>
      </trkpt>
      <trkpt lat="48.56664" lon="6.43309">
        <ele>257</ele>
        <time>2017-06-26T09:43:54Z</time>
      </trkpt>
      <trkpt lat="48.56664" lon="6.43311">
        <ele>257</ele>
        <time>2017-06-26T09:43:55Z</time>
      </trkpt>
      <trkpt lat="48.56667" lon="6.43318">
        <ele>257</ele>
        <time>2017-06-26T09:43:56Z</time>
      </trkpt>
      <trkpt lat="48.56668" lon="6.43319">
        <ele>257</ele>
        <time>2017-06-26T09:43:57Z</time>
      </trkpt>
      <trkpt lat="48.56669" lon="6.4332">
        <ele>257</ele>
        <time>2017-06-26T09:43:58Z</time>
      </trkpt>
      <trkpt lat="48.56671" lon="6.43321">
        <ele>257</ele>
        <time>2017-06-26T09:43:59Z</time>
      </trkpt>
      <trkpt lat="48.56672" lon="6.43321">
        <ele>257</ele>
        <time>2017-06-26T09:44:00Z</time>
      </trkpt>
      <trkpt lat="48.56673" lon="6.43322">
        <ele>257</ele>
        <time>2017-06-26T09:44:01Z</time>
      </trkpt>
      <trkpt lat="48.56674" lon="6.43323">
        <ele>257</ele>
        <time>2017-06-26T09:44:02Z</time>
      </trkpt>
      <trkpt lat="48.56675" lon="6.43324">
        <ele>257</ele>
        <time>2017-06-26T09:44:03Z</time>
      </trkpt>
      <trkpt lat="48.56677" lon="6.43325">
        <ele>257</ele>
        <time>2017-06-26T09:44:04Z</time>
      </trkpt>
      <trkpt lat="48.56678" lon="6.43325">
        <ele>260</ele>
        <time>2017-06-26T09:44:05Z</time>
      </trkpt>
      <trkpt lat="48.5668" lon="6.43325">
        <ele>260</ele>
        <time>2017-06-26T09:44:06Z</time>
      </trkpt>
      <trkpt lat="48.56682" lon="6.43325">
        <ele>260</ele>
        <time>2017-06-26T09:44:07Z</time>
      </trkpt>
      <trkpt lat="48.56684" lon="6.43326">
        <ele>260</ele>
        <time>2017-06-26T09:44:08Z</time>
      </trkpt>
      <trkpt lat="48.56686" lon="6.43326">
        <ele>260</ele>
        <time>2017-06-26T09:44:09Z</time>
      </trkpt>
      <trkpt lat="48.56687" lon="6.43327">
        <ele>260</ele>
        <time>2017-06-26T09:44:10Z</time>
      </trkpt>
      <trkpt lat="48.56688" lon="6.43328">
        <ele>260</ele>
        <time>2017-06-26T09:44:11Z</time>
      </trkpt>
      <trkpt lat="48.5669" lon="6.4333">
        <ele>260</ele>
        <time>2017-06-26T09:44:12Z</time>
      </trkpt>
      <trkpt lat="48.56691" lon="6.43331">
        <ele>260</ele>
        <time>2017-06-26T09:44:13Z</time>
      </trkpt>
      <trkpt lat="48.56696" lon="6.43336">
        <ele>260</ele>
        <time>2017-06-26T09:44:14Z</time>
      </trkpt>
      <trkpt lat="48.56697" lon="6.43337">
        <ele>260</ele>
        <time>2017-06-26T09:44:15Z</time>
      </trkpt>
      <trkpt lat="48.56698" lon="6.43338">
        <ele>260</ele>
        <time>2017-06-26T09:44:16Z</time>
      </trkpt>
      <trkpt lat="48.56699" lon="6.43339">
        <ele>260</ele>
        <time>2017-06-26T09:44:17Z</time>
      </trkpt>
      <trkpt lat="48.567" lon="6.4334">
        <ele>260</ele>
        <time>2017-06-26T09:44:18Z</time>
      </trkpt>
      <trkpt lat="48.56704" lon="6.43344">
        <ele>260</ele>
        <time>2017-06-26T09:44:19Z</time>
      </trkpt>
      <trkpt lat="48.56706" lon="6.43345">
        <ele>260</ele>
        <time>2017-06-26T09:44:20Z</time>
      </trkpt>
      <trkpt lat="48.56707" lon="6.43346">
        <ele>260</ele>
        <time>2017-06-26T09:44:21Z</time>
      </trkpt>
      <trkpt lat="48.56708" lon="6.43346">
        <ele>260</ele>
        <time>2017-06-26T09:44:22Z</time>
      </trkpt>
      <trkpt lat="48.56709" lon="6.43347">
        <ele>260</ele>
        <time>2017-06-26T09:44:23Z</time>
      </trkpt>
      <trkpt lat="48.5671" lon="6.43347">
        <ele>260</ele>
        <time>2017-06-26T09:44:24Z</time>
      </trkpt>
      <trkpt lat="48.56711" lon="6.43348">
        <ele>261</ele>
        <time>2017-06-26T09:44:25Z</time>
      </trkpt>
      <trkpt lat="48.56712" lon="6.43348">
        <ele>261</ele>
        <time>2017-06-26T09:44:26Z</time>
      </trkpt>
      <trkpt lat="48.56714" lon="6.43349">
        <ele>261</ele>
        <time>2017-06-26T09:44:27Z</time>
      </trkpt>
      <trkpt lat="48.56715" lon="6.43349">
        <ele>261</ele>
        <time>2017-06-26T09:44:29Z</time>
      </trkpt>
      <trkpt lat="48.56716" lon="6.43349">
        <ele>261</ele>
        <time>2017-06-26T09:44:30Z</time>
      </trkpt>
      <trkpt lat="48.56717" lon="6.43349">
        <ele>261</ele>
        <time>2017-06-26T09:44:32Z</time>
      </trkpt>
      <trkpt lat="48.56718" lon="6.43349">
        <ele>261</ele>
        <time>2017-06-26T09:44:33Z</time>
      </trkpt>
      <trkpt lat="48.56719" lon="6.43349">
        <ele>263</ele>
        <time>2017-06-26T09:44:35Z</time>
      </trkpt>
      <trkpt lat="48.56724" lon="6.4335">
        <ele>263</ele>
        <time>2017-06-26T09:44:36Z</time>
      </trkpt>
      <trkpt lat="48.56725" lon="6.4335">
        <ele>263</ele>
        <time>2017-06-26T09:44:37Z</time>
      </trkpt>
      <trkpt lat="48.56727" lon="6.4335">
        <ele>263</ele>
        <time>2017-06-26T09:44:38Z</time>
      </trkpt>
      <trkpt lat="48.56728" lon="6.4335">
        <ele>263</ele>
        <time>2017-06-26T09:44:39Z</time>
      </trkpt>
      <trkpt lat="48.56729" lon="6.43351">
        <ele>263</ele>
        <time>2017-06-26T09:44:40Z</time>
      </trkpt>
      <trkpt lat="48.5673" lon="6.43351">
        <ele>263</ele>
        <time>2017-06-26T09:44:41Z</time>
      </trkpt>
      <trkpt lat="48.56731" lon="6.43351">
        <ele>263</ele>
        <time>2017-06-26T09:44:42Z</time>
      </trkpt>
      <trkpt lat="48.56733" lon="6.43351">
        <ele>263</ele>
        <time>2017-06-26T09:44:43Z</time>
      </trkpt>
      <trkpt lat="48.56734" lon="6.43351">
        <ele>263</ele>
        <time>2017-06-26T09:44:44Z</time>
      </trkpt>
      <trkpt lat="48.56735" lon="6.43351">
        <ele>265</ele>
        <time>2017-06-26T09:44:45Z</time>
      </trkpt>
      <trkpt lat="48.56736" lon="6.43351">
        <ele>265</ele>
        <time>2017-06-26T09:44:46Z</time>
      </trkpt>
      <trkpt lat="48.56737" lon="6.43351">
        <ele>265</ele>
        <time>2017-06-26T09:44:47Z</time>
      </trkpt>
      <trkpt lat="48.56738" lon="6.43351">
        <ele>265</ele>
        <time>2017-06-26T09:44:48Z</time>
      </trkpt>
      <trkpt lat="48.56739" lon="6.43351">
        <ele>265</ele>
        <time>2017-06-26T09:44:49Z</time>
      </trkpt>
      <trkpt lat="48.5674" lon="6.4335">
        <ele>265</ele>
        <time>2017-06-26T09:44:50Z</time>
      </trkpt>
      <trkpt lat="48.56741" lon="6.4335">
        <ele>265</ele>
        <time>2017-06-26T09:44:51Z</time>
      </trkpt>
      <trkpt lat="48.56742" lon="6.4335">
        <ele>265</ele>
        <time>2017-06-26T09:44:52Z</time>
      </trkpt>
      <trkpt lat="48.56743" lon="6.4335">
        <ele>265</ele>
        <time>2017-06-26T09:44:53Z</time>
      </trkpt>
      <trkpt lat="48.56743" lon="6.43349">
        <ele>265</ele>
        <time>2017-06-26T09:44:54Z</time>
      </trkpt>
      <trkpt lat="48.56744" lon="6.43348">
        <ele>267</ele>
        <time>2017-06-26T09:44:55Z</time>
      </trkpt>
      <trkpt lat="48.56745" lon="6.43347">
        <ele>267</ele>
        <time>2017-06-26T09:44:56Z</time>
      </trkpt>
      <trkpt lat="48.56745" lon="6.43346">
        <ele>267</ele>
        <time>2017-06-26T09:44:57Z</time>
      </trkpt>
      <trkpt lat="48.56746" lon="6.43345">
        <ele>267</ele>
        <time>2017-06-26T09:44:58Z</time>
      </trkpt>
      <trkpt lat="48.56747" lon="6.43344">
        <ele>267</ele>
        <time>2017-06-26T09:44:59Z</time>
      </trkpt>
      <trkpt lat="48.56747" lon="6.43343">
        <ele>269</ele>
        <time>2017-06-26T09:45:00Z</time>
      </trkpt>
      <trkpt lat="48.56748" lon="6.43341">
        <ele>269</ele>
        <time>2017-06-26T09:45:01Z</time>
      </trkpt>
      <trkpt lat="48.56748" lon="6.4334">
        <ele>269</ele>
        <time>2017-06-26T09:45:02Z</time>
      </trkpt>
      <trkpt lat="48.56749" lon="6.43339">
        <ele>269</ele>
        <time>2017-06-26T09:45:03Z</time>
      </trkpt>
      <trkpt lat="48.5675" lon="6.43338">
        <ele>269</ele>
        <time>2017-06-26T09:45:04Z</time>
      </trkpt>
      <trkpt lat="48.56751" lon="6.43337">
        <ele>269</ele>
        <time>2017-06-26T09:45:05Z</time>
      </trkpt>
      <trkpt lat="48.56752" lon="6.43335">
        <ele>269</ele>
        <time>2017-06-26T09:45:06Z</time>
      </trkpt>
      <trkpt lat="48.56753" lon="6.43334">
        <ele>269</ele>
        <time>2017-06-26T09:45:07Z</time>
      </trkpt>
      <trkpt lat="48.56754" lon="6.43332">
        <ele>269</ele>
        <time>2017-06-26T09:45:08Z</time>
      </trkpt>
      <trkpt lat="48.56755" lon="6.43331">
        <ele>269</ele>
        <time>2017-06-26T09:45:09Z</time>
      </trkpt>
      <trkpt lat="48.56756" lon="6.4333">
        <ele>269</ele>
        <time>2017-06-26T09:45:10Z</time>
      </trkpt>
      <trkpt lat="48.56757" lon="6.43328">
        <ele>269</ele>
        <time>2017-06-26T09:45:11Z</time>
      </trkpt>
      <trkpt lat="48.56758" lon="6.43327">
        <ele>269</ele>
        <time>2017-06-26T09:45:12Z</time>
      </trkpt>
      <trkpt lat="48.56759" lon="6.43325">
        <ele>269</ele>
        <time>2017-06-26T09:45:13Z</time>
      </trkpt>
      <trkpt lat="48.5676" lon="6.43324">
        <ele>269</ele>
        <time>2017-06-26T09:45:14Z</time>
      </trkpt>
      <trkpt lat="48.56761" lon="6.43323">
        <ele>270</ele>
        <time>2017-06-26T09:45:15Z</time>
      </trkpt>
      <trkpt lat="48.56762" lon="6.43321">
        <ele>270</ele>
        <time>2017-06-26T09:45:16Z</time>
      </trkpt>
      <trkpt lat="48.56762" lon="6.4332">
        <ele>270</ele>
        <time>2017-06-26T09:45:17Z</time>
      </trkpt>
      <trkpt lat="48.56763" lon="6.43318">
        <ele>270</ele>
        <time>2017-06-26T09:45:18Z</time>
      </trkpt>
      <trkpt lat="48.56764" lon="6.43317">
        <ele>270</ele>
        <time>2017-06-26T09:45:19Z</time>
      </trkpt>
      <trkpt lat="48.56765" lon="6.43315">
        <ele>270</ele>
        <time>2017-06-26T09:45:20Z</time>
      </trkpt>
      <trkpt lat="48.56765" lon="6.43313">
        <ele>270</ele>
        <time>2017-06-26T09:45:21Z</time>
      </trkpt>
      <trkpt lat="48.56766" lon="6.43311">
        <ele>270</ele>
        <time>2017-06-26T09:45:22Z</time>
      </trkpt>
      <trkpt lat="48.56767" lon="6.4331">
        <ele>270</ele>
        <time>2017-06-26T09:45:23Z</time>
      </trkpt>
      <trkpt lat="48.56767" lon="6.43308">
        <ele>270</ele>
        <time>2017-06-26T09:45:24Z</time>
      </trkpt>
      <trkpt lat="48.56768" lon="6.43306">
        <ele>272</ele>
        <time>2017-06-26T09:45:25Z</time>
      </trkpt>
      <trkpt lat="48.56768" lon="6.43305">
        <ele>272</ele>
        <time>2017-06-26T09:45:26Z</time>
      </trkpt>
      <trkpt lat="48.56769" lon="6.43303">
        <ele>272</ele>
        <time>2017-06-26T09:45:27Z</time>
      </trkpt>
      <trkpt lat="48.5677" lon="6.43301">
        <ele>272</ele>
        <time>2017-06-26T09:45:28Z</time>
      </trkpt>
      <trkpt lat="48.5677" lon="6.433">
        <ele>272</ele>
        <time>2017-06-26T09:45:29Z</time>
      </trkpt>
      <trkpt lat="48.56771" lon="6.43298">
        <ele>272</ele>
        <time>2017-06-26T09:45:30Z</time>
      </trkpt>
      <trkpt lat="48.56772" lon="6.43296">
        <ele>272</ele>
        <time>2017-06-26T09:45:31Z</time>
      </trkpt>
      <trkpt lat="48.56772" lon="6.43295">
        <ele>272</ele>
        <time>2017-06-26T09:45:32Z</time>
      </trkpt>
      <trkpt lat="48.56772" lon="6.43294">
        <ele>272</ele>
        <time>2017-06-26T09:45:33Z</time>
      </trkpt>
      <trkpt lat="48.56773" lon="6.43293">
        <ele>272</ele>
        <time>2017-06-26T09:45:34Z</time>
      </trkpt>
      <trkpt lat="48.56773" lon="6.43292">
        <ele>273</ele>
        <time>2017-06-26T09:45:35Z</time>
      </trkpt>
      <trkpt lat="48.56773" lon="6.43291">
        <ele>273</ele>
        <time>2017-06-26T09:45:36Z</time>
      </trkpt>
      <trkpt lat="48.56774" lon="6.43289">
        <ele>273</ele>
        <time>2017-06-26T09:45:37Z</time>
      </trkpt>
      <trkpt lat="48.56776" lon="6.43282">
        <ele>273</ele>
        <time>2017-06-26T09:45:38Z</time>
      </trkpt>
      <trkpt lat="48.56776" lon="6.4328">
        <ele>273</ele>
        <time>2017-06-26T09:45:39Z</time>
      </trkpt>
      <trkpt lat="48.56776" lon="6.43278">
        <ele>273</ele>
        <time>2017-06-26T09:45:40Z</time>
      </trkpt>
      <trkpt lat="48.56777" lon="6.43276">
        <ele>273</ele>
        <time>2017-06-26T09:45:41Z</time>
      </trkpt>
      <trkpt lat="48.56777" lon="6.43274">
        <ele>273</ele>
        <time>2017-06-26T09:45:42Z</time>
      </trkpt>
      <trkpt lat="48.56777" lon="6.43272">
        <ele>273</ele>
        <time>2017-06-26T09:45:43Z</time>
      </trkpt>
      <trkpt lat="48.56777" lon="6.4327">
        <ele>273</ele>
        <time>2017-06-26T09:45:44Z</time>
      </trkpt>
      <trkpt lat="48.56777" lon="6.43267">
        <ele>274</ele>
        <time>2017-06-26T09:45:45Z</time>
      </trkpt>
      <trkpt lat="48.56778" lon="6.43264">
        <ele>274</ele>
        <time>2017-06-26T09:45:46Z</time>
      </trkpt>
      <trkpt lat="48.56778" lon="6.4326">
        <ele>274</ele>
        <time>2017-06-26T09:45:47Z</time>
      </trkpt>
      <trkpt lat="48.56778" lon="6.43257">
        <ele>274</ele>
        <time>2017-06-26T09:45:48Z</time>
      </trkpt>
      <trkpt lat="48.5678" lon="6.43255">
        <ele>274</ele>
        <time>2017-06-26T09:45:49Z</time>
      </trkpt>
      <trkpt lat="48.56781" lon="6.43252">
        <ele>274</ele>
        <time>2017-06-26T09:45:50Z</time>
      </trkpt>
      <trkpt lat="48.56782" lon="6.4325">
        <ele>274</ele>
        <time>2017-06-26T09:45:51Z</time>
      </trkpt>
      <trkpt lat="48.56784" lon="6.43247">
        <ele>274</ele>
        <time>2017-06-26T09:45:52Z</time>
      </trkpt>
      <trkpt lat="48.56785" lon="6.43246">
        <ele>274</ele>
        <time>2017-06-26T09:45:53Z</time>
      </trkpt>
      <trkpt lat="48.56787" lon="6.43244">
        <ele>274</ele>
        <time>2017-06-26T09:45:54Z</time>
      </trkpt>
      <trkpt lat="48.56788" lon="6.43242">
        <ele>276</ele>
        <time>2017-06-26T09:45:55Z</time>
      </trkpt>
      <trkpt lat="48.5679" lon="6.4324">
        <ele>276</ele>
        <time>2017-06-26T09:45:56Z</time>
      </trkpt>
      <trkpt lat="48.56791" lon="6.43239">
        <ele>276</ele>
        <time>2017-06-26T09:45:57Z</time>
      </trkpt>
      <trkpt lat="48.56792" lon="6.43237">
        <ele>276</ele>
        <time>2017-06-26T09:45:58Z</time>
      </trkpt>
      <trkpt lat="48.56793" lon="6.43235">
        <ele>276</ele>
        <time>2017-06-26T09:45:59Z</time>
      </trkpt>
      <trkpt lat="48.56794" lon="6.43233">
        <ele>276</ele>
        <time>2017-06-26T09:46:00Z</time>
      </trkpt>
      <trkpt lat="48.56795" lon="6.43231">
        <ele>276</ele>
        <time>2017-06-26T09:46:01Z</time>
      </trkpt>
      <trkpt lat="48.56795" lon="6.43229">
        <ele>276</ele>
        <time>2017-06-26T09:46:02Z</time>
      </trkpt>
      <trkpt lat="48.56796" lon="6.43227">
        <ele>276</ele>
        <time>2017-06-26T09:46:03Z</time>
      </trkpt>
      <trkpt lat="48.56797" lon="6.43225">
        <ele>276</ele>
        <time>2017-06-26T09:46:04Z</time>
      </trkpt>
      <trkpt lat="48.56798" lon="6.43223">
        <ele>277</ele>
        <time>2017-06-26T09:46:05Z</time>
      </trkpt>
      <trkpt lat="48.56799" lon="6.43221">
        <ele>277</ele>
        <time>2017-06-26T09:46:06Z</time>
      </trkpt>
      <trkpt lat="48.568" lon="6.43219">
        <ele>277</ele>
        <time>2017-06-26T09:46:07Z</time>
      </trkpt>
      <trkpt lat="48.56801" lon="6.43217">
        <ele>277</ele>
        <time>2017-06-26T09:46:08Z</time>
      </trkpt>
      <trkpt lat="48.56802" lon="6.43215">
        <ele>277</ele>
        <time>2017-06-26T09:46:09Z</time>
      </trkpt>
      <trkpt lat="48.56803" lon="6.43213">
        <ele>277</ele>
        <time>2017-06-26T09:46:10Z</time>
      </trkpt>
      <trkpt lat="48.56804" lon="6.43211">
        <ele>277</ele>
        <time>2017-06-26T09:46:11Z</time>
      </trkpt>
      <trkpt lat="48.56804" lon="6.43209">
        <ele>277</ele>
        <time>2017-06-26T09:46:12Z</time>
      </trkpt>
      <trkpt lat="48.56805" lon="6.43207">
        <ele>277</ele>
        <time>2017-06-26T09:46:13Z</time>
      </trkpt>
      <trkpt lat="48.56806" lon="6.43204">
        <ele>277</ele>
        <time>2017-06-26T09:46:14Z</time>
      </trkpt>
      <trkpt lat="48.56807" lon="6.43202">
        <ele>278</ele>
        <time>2017-06-26T09:46:15Z</time>
      </trkpt>
      <trkpt lat="48.56808" lon="6.432">
        <ele>278</ele>
        <time>2017-06-26T09:46:16Z</time>
      </trkpt>
      <trkpt lat="48.56809" lon="6.43198">
        <ele>278</ele>
        <time>2017-06-26T09:46:17Z</time>
      </trkpt>
      <trkpt lat="48.5681" lon="6.43196">
        <ele>278</ele>
        <time>2017-06-26T09:46:18Z</time>
      </trkpt>
      <trkpt lat="48.5681" lon="6.43194">
        <ele>278</ele>
        <time>2017-06-26T09:46:19Z</time>
      </trkpt>
      <trkpt lat="48.56811" lon="6.43192">
        <ele>278</ele>
        <time>2017-06-26T09:46:20Z</time>
      </trkpt>
      <trkpt lat="48.56812" lon="6.4319">
        <ele>278</ele>
        <time>2017-06-26T09:46:21Z</time>
      </trkpt>
      <trkpt lat="48.56812" lon="6.43188">
        <ele>278</ele>
        <time>2017-06-26T09:46:22Z</time>
      </trkpt>
      <trkpt lat="48.56813" lon="6.43185">
        <ele>278</ele>
        <time>2017-06-26T09:46:23Z</time>
      </trkpt>
      <trkpt lat="48.56814" lon="6.43183">
        <ele>278</ele>
        <time>2017-06-26T09:46:24Z</time>
      </trkpt>
      <trkpt lat="48.56814" lon="6.43181">
        <ele>279</ele>
        <time>2017-06-26T09:46:25Z</time>
      </trkpt>
      <trkpt lat="48.56815" lon="6.43179">
        <ele>279</ele>
        <time>2017-06-26T09:46:26Z</time>
      </trkpt>
      <trkpt lat="48.56816" lon="6.43177">
        <ele>279</ele>
        <time>2017-06-26T09:46:27Z</time>
      </trkpt>
      <trkpt lat="48.56817" lon="6.43174">
        <ele>279</ele>
        <time>2017-06-26T09:46:28Z</time>
      </trkpt>
      <trkpt lat="48.56817" lon="6.43172">
        <ele>279</ele>
        <time>2017-06-26T09:46:29Z</time>
      </trkpt>
      <trkpt lat="48.56818" lon="6.4317">
        <ele>279</ele>
        <time>2017-06-26T09:46:30Z</time>
      </trkpt>
      <trkpt lat="48.56819" lon="6.43168">
        <ele>279</ele>
        <time>2017-06-26T09:46:31Z</time>
      </trkpt>
      <trkpt lat="48.5682" lon="6.43166">
        <ele>279</ele>
        <time>2017-06-26T09:46:32Z</time>
      </trkpt>
      <trkpt lat="48.5682" lon="6.43165">
        <ele>279</ele>
        <time>2017-06-26T09:46:33Z</time>
      </trkpt>
      <trkpt lat="48.56821" lon="6.43163">
        <ele>279</ele>
        <time>2017-06-26T09:46:34Z</time>
      </trkpt>
      <trkpt lat="48.56822" lon="6.43162">
        <ele>279</ele>
        <time>2017-06-26T09:46:35Z</time>
      </trkpt>
      <trkpt lat="48.56822" lon="6.4316">
        <ele>279</ele>
        <time>2017-06-26T09:46:36Z</time>
      </trkpt>
      <trkpt lat="48.56826" lon="6.43153">
        <ele>279</ele>
        <time>2017-06-26T09:46:37Z</time>
      </trkpt>
      <trkpt lat="48.56827" lon="6.43151">
        <ele>279</ele>
        <time>2017-06-26T09:46:38Z</time>
      </trkpt>
      <trkpt lat="48.56828" lon="6.43148">
        <ele>279</ele>
        <time>2017-06-26T09:46:39Z</time>
      </trkpt>
      <trkpt lat="48.56829" lon="6.43146">
        <ele>279</ele>
        <time>2017-06-26T09:46:40Z</time>
      </trkpt>
      <trkpt lat="48.5683" lon="6.43143">
        <ele>279</ele>
        <time>2017-06-26T09:46:41Z</time>
      </trkpt>
      <trkpt lat="48.56831" lon="6.43141">
        <ele>279</ele>
        <time>2017-06-26T09:46:42Z</time>
      </trkpt>
      <trkpt lat="48.56832" lon="6.43139">
        <ele>279</ele>
        <time>2017-06-26T09:46:43Z</time>
      </trkpt>
      <trkpt lat="48.56833" lon="6.43136">
        <ele>279</ele>
        <time>2017-06-26T09:46:44Z</time>
      </trkpt>
      <trkpt lat="48.56834" lon="6.43134">
        <ele>279</ele>
        <time>2017-06-26T09:46:45Z</time>
      </trkpt>
      <trkpt lat="48.56836" lon="6.43127">
        <ele>279</ele>
        <time>2017-06-26T09:46:46Z</time>
      </trkpt>
      <trkpt lat="48.56837" lon="6.43125">
        <ele>279</ele>
        <time>2017-06-26T09:46:47Z</time>
      </trkpt>
      <trkpt lat="48.56838" lon="6.43123">
        <ele>279</ele>
        <time>2017-06-26T09:46:48Z</time>
      </trkpt>
      <trkpt lat="48.56839" lon="6.43121">
        <ele>279</ele>
        <time>2017-06-26T09:46:49Z</time>
      </trkpt>
      <trkpt lat="48.56839" lon="6.43119">
        <ele>279</ele>
        <time>2017-06-26T09:46:50Z</time>
      </trkpt>
      <trkpt lat="48.56842" lon="6.43111">
        <ele>279</ele>
        <time>2017-06-26T09:46:51Z</time>
      </trkpt>
      <trkpt lat="48.56843" lon="6.43108">
        <ele>279</ele>
        <time>2017-06-26T09:46:52Z</time>
      </trkpt>
      <trkpt lat="48.56844" lon="6.43105">
        <ele>279</ele>
        <time>2017-06-26T09:46:53Z</time>
      </trkpt>
      <trkpt lat="48.56845" lon="6.43102">
        <ele>279</ele>
        <time>2017-06-26T09:46:54Z</time>
      </trkpt>
      <trkpt lat="48.56846" lon="6.43099">
        <ele>280</ele>
        <time>2017-06-26T09:46:55Z</time>
      </trkpt>
      <trkpt lat="48.56847" lon="6.43096">
        <ele>280</ele>
        <time>2017-06-26T09:46:56Z</time>
      </trkpt>
      <trkpt lat="48.56848" lon="6.43093">
        <ele>280</ele>
        <time>2017-06-26T09:46:57Z</time>
      </trkpt>
      <trkpt lat="48.56849" lon="6.4309">
        <ele>280</ele>
        <time>2017-06-26T09:46:58Z</time>
      </trkpt>
      <trkpt lat="48.5685" lon="6.43087">
        <ele>280</ele>
        <time>2017-06-26T09:46:59Z</time>
      </trkpt>
      <trkpt lat="48.56851" lon="6.43084">
        <ele>280</ele>
        <time>2017-06-26T09:47:00Z</time>
      </trkpt>
      <trkpt lat="48.56852" lon="6.43082">
        <ele>280</ele>
        <time>2017-06-26T09:47:01Z</time>
      </trkpt>
      <trkpt lat="48.56853" lon="6.43079">
        <ele>280</ele>
        <time>2017-06-26T09:47:02Z</time>
      </trkpt>
      <trkpt lat="48.56854" lon="6.43077">
        <ele>280</ele>
        <time>2017-06-26T09:47:03Z</time>
      </trkpt>
      <trkpt lat="48.56855" lon="6.43074">
        <ele>280</ele>
        <time>2017-06-26T09:47:04Z</time>
      </trkpt>
      <trkpt lat="48.56856" lon="6.43072">
        <ele>279</ele>
        <time>2017-06-26T09:47:05Z</time>
      </trkpt>
      <trkpt lat="48.56857" lon="6.43069">
        <ele>279</ele>
        <time>2017-06-26T09:47:06Z</time>
      </trkpt>
      <trkpt lat="48.56858" lon="6.43067">
        <ele>279</ele>
        <time>2017-06-26T09:47:07Z</time>
      </trkpt>
      <trkpt lat="48.56859" lon="6.43064">
        <ele>279</ele>
        <time>2017-06-26T09:47:08Z</time>
      </trkpt>
      <trkpt lat="48.5686" lon="6.43061">
        <ele>279</ele>
        <time>2017-06-26T09:47:09Z</time>
      </trkpt>
      <trkpt lat="48.56861" lon="6.43058">
        <ele>279</ele>
        <time>2017-06-26T09:47:10Z</time>
      </trkpt>
      <trkpt lat="48.56862" lon="6.43055">
        <ele>279</ele>
        <time>2017-06-26T09:47:11Z</time>
      </trkpt>
      <trkpt lat="48.56863" lon="6.43052">
        <ele>279</ele>
        <time>2017-06-26T09:47:12Z</time>
      </trkpt>
      <trkpt lat="48.56864" lon="6.43048">
        <ele>279</ele>
        <time>2017-06-26T09:47:13Z</time>
      </trkpt>
      <trkpt lat="48.56866" lon="6.43046">
        <ele>279</ele>
        <time>2017-06-26T09:47:14Z</time>
      </trkpt>
      <trkpt lat="48.56868" lon="6.43043">
        <ele>279</ele>
        <time>2017-06-26T09:47:15Z</time>
      </trkpt>
      <trkpt lat="48.56869" lon="6.4304">
        <ele>279</ele>
        <time>2017-06-26T09:47:16Z</time>
      </trkpt>
      <trkpt lat="48.56871" lon="6.43037">
        <ele>279</ele>
        <time>2017-06-26T09:47:17Z</time>
      </trkpt>
      <trkpt lat="48.56873" lon="6.43035">
        <ele>279</ele>
        <time>2017-06-26T09:47:18Z</time>
      </trkpt>
      <trkpt lat="48.56874" lon="6.43032">
        <ele>279</ele>
        <time>2017-06-26T09:47:19Z</time>
      </trkpt>
      <trkpt lat="48.56876" lon="6.43029">
        <ele>279</ele>
        <time>2017-06-26T09:47:20Z</time>
      </trkpt>
      <trkpt lat="48.56877" lon="6.43027">
        <ele>279</ele>
        <time>2017-06-26T09:47:21Z</time>
      </trkpt>
      <trkpt lat="48.56878" lon="6.43024">
        <ele>279</ele>
        <time>2017-06-26T09:47:22Z</time>
      </trkpt>
      <trkpt lat="48.56879" lon="6.43021">
        <ele>279</ele>
        <time>2017-06-26T09:47:23Z</time>
      </trkpt>
      <trkpt lat="48.5688" lon="6.43018">
        <ele>279</ele>
        <time>2017-06-26T09:47:24Z</time>
      </trkpt>
      <trkpt lat="48.56882" lon="6.43015">
        <ele>279</ele>
        <time>2017-06-26T09:47:25Z</time>
      </trkpt>
      <trkpt lat="48.56883" lon="6.43012">
        <ele>279</ele>
        <time>2017-06-26T09:47:26Z</time>
      </trkpt>
      <trkpt lat="48.56885" lon="6.43009">
        <ele>279</ele>
        <time>2017-06-26T09:47:27Z</time>
      </trkpt>
      <trkpt lat="48.56887" lon="6.43006">
        <ele>279</ele>
        <time>2017-06-26T09:47:28Z</time>
      </trkpt>
      <trkpt lat="48.5689" lon="6.43004">
        <ele>279</ele>
        <time>2017-06-26T09:47:29Z</time>
      </trkpt>
      <trkpt lat="48.56892" lon="6.43002">
        <ele>279</ele>
        <time>2017-06-26T09:47:30Z</time>
      </trkpt>
      <trkpt lat="48.56895" lon="6.43">
        <ele>279</ele>
        <time>2017-06-26T09:47:31Z</time>
      </trkpt>
      <trkpt lat="48.56897" lon="6.43">
        <ele>279</ele>
        <time>2017-06-26T09:47:32Z</time>
      </trkpt>
      <trkpt lat="48.56899" lon="6.43">
        <ele>279</ele>
        <time>2017-06-26T09:47:33Z</time>
      </trkpt>
      <trkpt lat="48.56902" lon="6.42999">
        <ele>279</ele>
        <time>2017-06-26T09:47:34Z</time>
      </trkpt>
      <trkpt lat="48.56904" lon="6.42999">
        <ele>280</ele>
        <time>2017-06-26T09:47:35Z</time>
      </trkpt>
      <trkpt lat="48.56907" lon="6.43001">
        <ele>280</ele>
        <time>2017-06-26T09:47:36Z</time>
      </trkpt>
      <trkpt lat="48.56911" lon="6.43002">
        <ele>280</ele>
        <time>2017-06-26T09:47:37Z</time>
      </trkpt>
      <trkpt lat="48.56914" lon="6.43004">
        <ele>280</ele>
        <time>2017-06-26T09:47:38Z</time>
      </trkpt>
      <trkpt lat="48.56917" lon="6.43005">
        <ele>280</ele>
        <time>2017-06-26T09:47:39Z</time>
      </trkpt>
      <trkpt lat="48.5692" lon="6.43007">
        <ele>280</ele>
        <time>2017-06-26T09:47:40Z</time>
      </trkpt>
      <trkpt lat="48.56923" lon="6.43008">
        <ele>280</ele>
        <time>2017-06-26T09:47:41Z</time>
      </trkpt>
      <trkpt lat="48.56925" lon="6.43009">
        <ele>280</ele>
        <time>2017-06-26T09:47:42Z</time>
      </trkpt>
      <trkpt lat="48.56926" lon="6.4301">
        <ele>280</ele>
        <time>2017-06-26T09:47:43Z</time>
      </trkpt>
      <trkpt lat="48.56928" lon="6.4301">
        <ele>280</ele>
        <time>2017-06-26T09:47:44Z</time>
      </trkpt>
      <trkpt lat="48.56933" lon="6.43013">
        <ele>280</ele>
        <time>2017-06-26T09:47:45Z</time>
      </trkpt>
      <trkpt lat="48.56935" lon="6.43014">
        <ele>280</ele>
        <time>2017-06-26T09:47:46Z</time>
      </trkpt>
      <trkpt lat="48.56938" lon="6.43015">
        <ele>280</ele>
        <time>2017-06-26T09:47:47Z</time>
      </trkpt>
      <trkpt lat="48.5694" lon="6.43016">
        <ele>280</ele>
        <time>2017-06-26T09:47:48Z</time>
      </trkpt>
      <trkpt lat="48.56942" lon="6.43017">
        <ele>280</ele>
        <time>2017-06-26T09:47:49Z</time>
      </trkpt>
      <trkpt lat="48.56945" lon="6.43019">
        <ele>280</ele>
        <time>2017-06-26T09:47:50Z</time>
      </trkpt>
      <trkpt lat="48.56947" lon="6.4302">
        <ele>280</ele>
        <time>2017-06-26T09:47:51Z</time>
      </trkpt>
      <trkpt lat="48.56949" lon="6.43022">
        <ele>280</ele>
        <time>2017-06-26T09:47:52Z</time>
      </trkpt>
      <trkpt lat="48.56951" lon="6.43023">
        <ele>280</ele>
        <time>2017-06-26T09:47:53Z</time>
      </trkpt>
      <trkpt lat="48.56952" lon="6.43022">
        <ele>280</ele>
        <time>2017-06-26T09:47:54Z</time>
      </trkpt>
      <trkpt lat="48.56952" lon="6.43021">
        <ele>281</ele>
        <time>2017-06-26T09:47:55Z</time>
      </trkpt>
      <trkpt lat="48.56953" lon="6.4302">
        <ele>281</ele>
        <time>2017-06-26T09:47:56Z</time>
      </trkpt>
      <trkpt lat="48.56954" lon="6.4302">
        <ele>281</ele>
        <time>2017-06-26T09:47:57Z</time>
      </trkpt>
      <trkpt lat="48.56954" lon="6.43019">
        <ele>281</ele>
        <time>2017-06-26T09:47:58Z</time>
      </trkpt>
      <trkpt lat="48.56955" lon="6.43018">
        <ele>280</ele>
        <time>2017-06-26T09:47:59Z</time>
      </trkpt>
      <trkpt lat="48.56956" lon="6.43017">
        <ele>280</ele>
        <time>2017-06-26T09:48:00Z</time>
      </trkpt>
      <trkpt lat="48.56956" lon="6.43016">
        <ele>280</ele>
        <time>2017-06-26T09:48:01Z</time>
      </trkpt>
      <trkpt lat="48.56957" lon="6.43015">
        <ele>280</ele>
        <time>2017-06-26T09:48:02Z</time>
      </trkpt>
      <trkpt lat="48.56957" lon="6.43014">
        <ele>280</ele>
        <time>2017-06-26T09:48:03Z</time>
      </trkpt>
      <trkpt lat="48.56958" lon="6.43012">
        <ele>280</ele>
        <time>2017-06-26T09:48:04Z</time>
      </trkpt>
      <trkpt lat="48.56959" lon="6.4301">
        <ele>280</ele>
        <time>2017-06-26T09:48:05Z</time>
      </trkpt>
      <trkpt lat="48.5696" lon="6.43008">
        <ele>280</ele>
        <time>2017-06-26T09:48:06Z</time>
      </trkpt>
      <trkpt lat="48.5696" lon="6.43006">
        <ele>280</ele>
        <time>2017-06-26T09:48:07Z</time>
      </trkpt>
      <trkpt lat="48.56961" lon="6.43003">
        <ele>280</ele>
        <time>2017-06-26T09:48:08Z</time>
      </trkpt>
      <trkpt lat="48.56962" lon="6.43001">
        <ele>280</ele>
        <time>2017-06-26T09:48:09Z</time>
      </trkpt>
      <trkpt lat="48.56963" lon="6.42998">
        <ele>279</ele>
        <time>2017-06-26T09:48:10Z</time>
      </trkpt>
      <trkpt lat="48.56964" lon="6.42995">
        <ele>279</ele>
        <time>2017-06-26T09:48:11Z</time>
      </trkpt>
      <trkpt lat="48.56964" lon="6.42993">
        <ele>279</ele>
        <time>2017-06-26T09:48:12Z</time>
      </trkpt>
      <trkpt lat="48.56965" lon="6.4299">
        <ele>279</ele>
        <time>2017-06-26T09:48:13Z</time>
      </trkpt>
      <trkpt lat="48.56966" lon="6.42988">
        <ele>279</ele>
        <time>2017-06-26T09:48:14Z</time>
      </trkpt>
      <trkpt lat="48.56966" lon="6.42986">
        <ele>279</ele>
        <time>2017-06-26T09:48:15Z</time>
      </trkpt>
      <trkpt lat="48.56967" lon="6.42985">
        <ele>279</ele>
        <time>2017-06-26T09:48:16Z</time>
      </trkpt>
      <trkpt lat="48.56968" lon="6.42983">
        <ele>279</ele>
        <time>2017-06-26T09:48:17Z</time>
      </trkpt>
      <trkpt lat="48.5697" lon="6.42976">
        <ele>279</ele>
        <time>2017-06-26T09:48:18Z</time>
      </trkpt>
      <trkpt lat="48.56971" lon="6.42974">
        <ele>279</ele>
        <time>2017-06-26T09:48:19Z</time>
      </trkpt>
      <trkpt lat="48.56971" lon="6.42972">
        <ele>279</ele>
        <time>2017-06-26T09:48:20Z</time>
      </trkpt>
      <trkpt lat="48.56972" lon="6.4297">
        <ele>279</ele>
        <time>2017-06-26T09:48:21Z</time>
      </trkpt>
      <trkpt lat="48.56973" lon="6.42968">
        <ele>279</ele>
        <time>2017-06-26T09:48:22Z</time>
      </trkpt>
      <trkpt lat="48.56975" lon="6.42961">
        <ele>279</ele>
        <time>2017-06-26T09:48:23Z</time>
      </trkpt>
      <trkpt lat="48.56976" lon="6.42959">
        <ele>279</ele>
        <time>2017-06-26T09:48:24Z</time>
      </trkpt>
      <trkpt lat="48.56978" lon="6.42956">
        <ele>278</ele>
        <time>2017-06-26T09:48:25Z</time>
      </trkpt>
      <trkpt lat="48.56979" lon="6.42954">
        <ele>278</ele>
        <time>2017-06-26T09:48:26Z</time>
      </trkpt>
      <trkpt lat="48.5698" lon="6.42951">
        <ele>278</ele>
        <time>2017-06-26T09:48:27Z</time>
      </trkpt>
      <trkpt lat="48.56981" lon="6.42949">
        <ele>278</ele>
        <time>2017-06-26T09:48:28Z</time>
      </trkpt>
      <trkpt lat="48.56982" lon="6.42946">
        <ele>278</ele>
        <time>2017-06-26T09:48:29Z</time>
      </trkpt>
      <trkpt lat="48.56983" lon="6.42943">
        <ele>278</ele>
        <time>2017-06-26T09:48:30Z</time>
      </trkpt>
      <trkpt lat="48.56984" lon="6.4294">
        <ele>278</ele>
        <time>2017-06-26T09:48:31Z</time>
      </trkpt>
      <trkpt lat="48.56984" lon="6.42937">
        <ele>278</ele>
        <time>2017-06-26T09:48:32Z</time>
      </trkpt>
      <trkpt lat="48.56985" lon="6.42935">
        <ele>278</ele>
        <time>2017-06-26T09:48:33Z</time>
      </trkpt>
      <trkpt lat="48.56985" lon="6.42933">
        <ele>278</ele>
        <time>2017-06-26T09:48:34Z</time>
      </trkpt>
      <trkpt lat="48.56986" lon="6.42931">
        <ele>277</ele>
        <time>2017-06-26T09:48:35Z</time>
      </trkpt>
      <trkpt lat="48.56986" lon="6.42929">
        <ele>277</ele>
        <time>2017-06-26T09:48:36Z</time>
      </trkpt>
      <trkpt lat="48.56986" lon="6.42928">
        <ele>277</ele>
        <time>2017-06-26T09:48:37Z</time>
      </trkpt>
      <trkpt lat="48.56986" lon="6.42926">
        <ele>277</ele>
        <time>2017-06-26T09:48:38Z</time>
      </trkpt>
      <trkpt lat="48.56987" lon="6.42917">
        <ele>277</ele>
        <time>2017-06-26T09:48:39Z</time>
      </trkpt>
      <trkpt lat="48.56987" lon="6.42914">
        <ele>277</ele>
        <time>2017-06-26T09:48:40Z</time>
      </trkpt>
      <trkpt lat="48.56987" lon="6.42911">
        <ele>277</ele>
        <time>2017-06-26T09:48:41Z</time>
      </trkpt>
      <trkpt lat="48.56987" lon="6.42908">
        <ele>277</ele>
        <time>2017-06-26T09:48:42Z</time>
      </trkpt>
      <trkpt lat="48.56988" lon="6.42904">
        <ele>277</ele>
        <time>2017-06-26T09:48:43Z</time>
      </trkpt>
      <trkpt lat="48.56988" lon="6.42901">
        <ele>277</ele>
        <time>2017-06-26T09:48:44Z</time>
      </trkpt>
      <trkpt lat="48.56988" lon="6.42898">
        <ele>274</ele>
        <time>2017-06-26T09:48:45Z</time>
      </trkpt>
      <trkpt lat="48.56988" lon="6.42896">
        <ele>274</ele>
        <time>2017-06-26T09:48:46Z</time>
      </trkpt>
      <trkpt lat="48.56989" lon="6.42893">
        <ele>274</ele>
        <time>2017-06-26T09:48:47Z</time>
      </trkpt>
      <trkpt lat="48.5699" lon="6.42884">
        <ele>274</ele>
        <time>2017-06-26T09:48:48Z</time>
      </trkpt>
      <trkpt lat="48.56991" lon="6.42881">
        <ele>274</ele>
        <time>2017-06-26T09:48:49Z</time>
      </trkpt>
      <trkpt lat="48.56992" lon="6.42877">
        <ele>273</ele>
        <time>2017-06-26T09:48:50Z</time>
      </trkpt>
      <trkpt lat="48.56993" lon="6.42873">
        <ele>273</ele>
        <time>2017-06-26T09:48:51Z</time>
      </trkpt>
      <trkpt lat="48.56994" lon="6.4287">
        <ele>273</ele>
        <time>2017-06-26T09:48:52Z</time>
      </trkpt>
      <trkpt lat="48.56994" lon="6.42868">
        <ele>273</ele>
        <time>2017-06-26T09:48:53Z</time>
      </trkpt>
      <trkpt lat="48.56995" lon="6.42866">
        <ele>273</ele>
        <time>2017-06-26T09:48:54Z</time>
      </trkpt>
      <trkpt lat="48.56995" lon="6.42864">
        <ele>272</ele>
        <time>2017-06-26T09:48:55Z</time>
      </trkpt>
      <trkpt lat="48.56995" lon="6.42862">
        <ele>272</ele>
        <time>2017-06-26T09:48:56Z</time>
      </trkpt>
      <trkpt lat="48.56997" lon="6.42855">
        <ele>272</ele>
        <time>2017-06-26T09:48:57Z</time>
      </trkpt>
      <trkpt lat="48.56998" lon="6.42851">
        <ele>272</ele>
        <time>2017-06-26T09:48:58Z</time>
      </trkpt>
      <trkpt lat="48.56999" lon="6.42848">
        <ele>272</ele>
        <time>2017-06-26T09:48:59Z</time>
      </trkpt>
      <trkpt lat="48.56999" lon="6.42844">
        <ele>271</ele>
        <time>2017-06-26T09:49:00Z</time>
      </trkpt>
      <trkpt lat="48.57" lon="6.4284">
        <ele>271</ele>
        <time>2017-06-26T09:49:01Z</time>
      </trkpt>
      <trkpt lat="48.57001" lon="6.42838">
        <ele>271</ele>
        <time>2017-06-26T09:49:02Z</time>
      </trkpt>
      <trkpt lat="48.57001" lon="6.42836">
        <ele>271</ele>
        <time>2017-06-26T09:49:03Z</time>
      </trkpt>
      <trkpt lat="48.57002" lon="6.42834">
        <ele>271</ele>
        <time>2017-06-26T09:49:04Z</time>
      </trkpt>
      <trkpt lat="48.57003" lon="6.42832">
        <ele>268</ele>
        <time>2017-06-26T09:49:05Z</time>
      </trkpt>
      <trkpt lat="48.57005" lon="6.42824">
        <ele>268</ele>
        <time>2017-06-26T09:49:06Z</time>
      </trkpt>
      <trkpt lat="48.57005" lon="6.42823">
        <ele>268</ele>
        <time>2017-06-26T09:49:07Z</time>
      </trkpt>
      <trkpt lat="48.57005" lon="6.42822">
        <ele>268</ele>
        <time>2017-06-26T09:49:09Z</time>
      </trkpt>
      <trkpt lat="48.57005" lon="6.42821">
        <ele>269</ele>
        <time>2017-06-26T09:49:12Z</time>
      </trkpt>
      <trkpt lat="48.57005" lon="6.4282">
        <ele>269</ele>
        <time>2017-06-26T09:49:14Z</time>
      </trkpt>
      <trkpt lat="48.57004" lon="6.4282">
        <ele>271</ele>
        <time>2017-06-26T09:49:15Z</time>
      </trkpt>
      <trkpt lat="48.57004" lon="6.42819">
        <ele>271</ele>
        <time>2017-06-26T09:49:16Z</time>
      </trkpt>
      <trkpt lat="48.57004" lon="6.42818">
        <ele>271</ele>
        <time>2017-06-26T09:49:18Z</time>
      </trkpt>
      <trkpt lat="48.57004" lon="6.42817">
        <ele>272</ele>
        <time>2017-06-26T09:49:20Z</time>
      </trkpt>
      <trkpt lat="48.57004" lon="6.42816">
        <ele>272</ele>
        <time>2017-06-26T09:49:22Z</time>
      </trkpt>
      <trkpt lat="48.57002" lon="6.42808">
        <ele>272</ele>
        <time>2017-06-26T09:49:23Z</time>
      </trkpt>
      <trkpt lat="48.57001" lon="6.42807">
        <ele>272</ele>
        <time>2017-06-26T09:49:24Z</time>
      </trkpt>
      <trkpt lat="48.56999" lon="6.42806">
        <ele>272</ele>
        <time>2017-06-26T09:49:25Z</time>
      </trkpt>
      <trkpt lat="48.56998" lon="6.42805">
        <ele>272</ele>
        <time>2017-06-26T09:49:26Z</time>
      </trkpt>
      <trkpt lat="48.56997" lon="6.42804">
        <ele>272</ele>
        <time>2017-06-26T09:49:27Z</time>
      </trkpt>
      <trkpt lat="48.56992" lon="6.428">
        <ele>272</ele>
        <time>2017-06-26T09:49:28Z</time>
      </trkpt>
      <trkpt lat="48.56991" lon="6.42799">
        <ele>272</ele>
        <time>2017-06-26T09:49:29Z</time>
      </trkpt>
      <trkpt lat="48.5699" lon="6.42799">
        <ele>272</ele>
        <time>2017-06-26T09:49:30Z</time>
      </trkpt>
      <trkpt lat="48.56989" lon="6.42798">
        <ele>272</ele>
        <time>2017-06-26T09:49:31Z</time>
      </trkpt>
      <trkpt lat="48.56988" lon="6.42797">
        <ele>272</ele>
        <time>2017-06-26T09:49:32Z</time>
      </trkpt>
      <trkpt lat="48.56987" lon="6.42796">
        <ele>272</ele>
        <time>2017-06-26T09:49:33Z</time>
      </trkpt>
      <trkpt lat="48.56982" lon="6.42793">
        <ele>272</ele>
        <time>2017-06-26T09:49:34Z</time>
      </trkpt>
      <trkpt lat="48.5698" lon="6.42792">
        <ele>272</ele>
        <time>2017-06-26T09:49:35Z</time>
      </trkpt>
      <trkpt lat="48.56979" lon="6.42792">
        <ele>272</ele>
        <time>2017-06-26T09:49:36Z</time>
      </trkpt>
      <trkpt lat="48.56978" lon="6.42791">
        <ele>272</ele>
        <time>2017-06-26T09:49:37Z</time>
      </trkpt>
      <trkpt lat="48.56977" lon="6.4279">
        <ele>272</ele>
        <time>2017-06-26T09:49:38Z</time>
      </trkpt>
      <trkpt lat="48.56972" lon="6.42788">
        <ele>272</ele>
        <time>2017-06-26T09:49:39Z</time>
      </trkpt>
      <trkpt lat="48.5697" lon="6.42787">
        <ele>272</ele>
        <time>2017-06-26T09:49:40Z</time>
      </trkpt>
      <trkpt lat="48.56968" lon="6.42786">
        <ele>272</ele>
        <time>2017-06-26T09:49:41Z</time>
      </trkpt>
      <trkpt lat="48.56966" lon="6.42786">
        <ele>272</ele>
        <time>2017-06-26T09:49:42Z</time>
      </trkpt>
      <trkpt lat="48.56964" lon="6.42785">
        <ele>272</ele>
        <time>2017-06-26T09:49:43Z</time>
      </trkpt>
      <trkpt lat="48.56962" lon="6.42784">
        <ele>272</ele>
        <time>2017-06-26T09:49:44Z</time>
      </trkpt>
      <trkpt lat="48.56961" lon="6.42784">
        <ele>271</ele>
        <time>2017-06-26T09:49:45Z</time>
      </trkpt>
      <trkpt lat="48.56959" lon="6.42783">
        <ele>271</ele>
        <time>2017-06-26T09:49:46Z</time>
      </trkpt>
      <trkpt lat="48.56958" lon="6.42783">
        <ele>271</ele>
        <time>2017-06-26T09:49:47Z</time>
      </trkpt>
      <trkpt lat="48.56957" lon="6.42782">
        <ele>271</ele>
        <time>2017-06-26T09:49:48Z</time>
      </trkpt>
      <trkpt lat="48.56952" lon="6.4278">
        <ele>271</ele>
        <time>2017-06-26T09:49:49Z</time>
      </trkpt>
      <trkpt lat="48.56951" lon="6.42779">
        <ele>271</ele>
        <time>2017-06-26T09:49:50Z</time>
      </trkpt>
      <trkpt lat="48.56949" lon="6.42778">
        <ele>271</ele>
        <time>2017-06-26T09:49:51Z</time>
      </trkpt>
      <trkpt lat="48.56948" lon="6.42777">
        <ele>271</ele>
        <time>2017-06-26T09:49:52Z</time>
      </trkpt>
      <trkpt lat="48.56947" lon="6.42776">
        <ele>271</ele>
        <time>2017-06-26T09:49:53Z</time>
      </trkpt>
      <trkpt lat="48.56943" lon="6.42771">
        <ele>271</ele>
        <time>2017-06-26T09:49:54Z</time>
      </trkpt>
      <trkpt lat="48.56942" lon="6.42769">
        <ele>271</ele>
        <time>2017-06-26T09:49:55Z</time>
      </trkpt>
      <trkpt lat="48.56941" lon="6.42768">
        <ele>271</ele>
        <time>2017-06-26T09:49:56Z</time>
      </trkpt>
      <trkpt lat="48.5694" lon="6.42766">
        <ele>271</ele>
        <time>2017-06-26T09:49:57Z</time>
      </trkpt>
      <trkpt lat="48.56939" lon="6.42765">
        <ele>271</ele>
        <time>2017-06-26T09:49:58Z</time>
      </trkpt>
      <trkpt lat="48.56935" lon="6.42758">
        <ele>271</ele>
        <time>2017-06-26T09:49:59Z</time>
      </trkpt>
      <trkpt lat="48.56933" lon="6.42757">
        <ele>271</ele>
        <time>2017-06-26T09:50:00Z</time>
      </trkpt>
      <trkpt lat="48.56932" lon="6.42755">
        <ele>271</ele>
        <time>2017-06-26T09:50:01Z</time>
      </trkpt>
      <trkpt lat="48.5693" lon="6.42754">
        <ele>271</ele>
        <time>2017-06-26T09:50:02Z</time>
      </trkpt>
      <trkpt lat="48.56928" lon="6.42752">
        <ele>271</ele>
        <time>2017-06-26T09:50:03Z</time>
      </trkpt>
      <trkpt lat="48.56926" lon="6.42751">
        <ele>271</ele>
        <time>2017-06-26T09:50:04Z</time>
      </trkpt>
      <trkpt lat="48.56925" lon="6.4275">
        <ele>270</ele>
        <time>2017-06-26T09:50:05Z</time>
      </trkpt>
      <trkpt lat="48.56924" lon="6.4275">
        <ele>270</ele>
        <time>2017-06-26T09:50:06Z</time>
      </trkpt>
      <trkpt lat="48.56922" lon="6.42749">
        <ele>270</ele>
        <time>2017-06-26T09:50:07Z</time>
      </trkpt>
      <trkpt lat="48.56921" lon="6.42749">
        <ele>270</ele>
        <time>2017-06-26T09:50:08Z</time>
      </trkpt>
      <trkpt lat="48.56915" lon="6.42747">
        <ele>270</ele>
        <time>2017-06-26T09:50:09Z</time>
      </trkpt>
      <trkpt lat="48.56914" lon="6.42746">
        <ele>270</ele>
        <time>2017-06-26T09:50:12Z</time>
      </trkpt>
      <trkpt lat="48.56913" lon="6.42745">
        <ele>271</ele>
        <time>2017-06-26T09:50:15Z</time>
      </trkpt>
      <trkpt lat="48.56912" lon="6.42744">
        <ele>271</ele>
        <time>2017-06-26T09:50:19Z</time>
      </trkpt>
      <trkpt lat="48.56911" lon="6.42744">
        <ele>271</ele>
        <time>2017-06-26T09:50:22Z</time>
      </trkpt>
      <trkpt lat="48.56911" lon="6.42743">
        <ele>271</ele>
        <time>2017-06-26T09:50:23Z</time>
      </trkpt>
      <trkpt lat="48.5691" lon="6.42743">
        <ele>271</ele>
        <time>2017-06-26T09:50:25Z</time>
      </trkpt>
      <trkpt lat="48.5691" lon="6.42742">
        <ele>271</ele>
        <time>2017-06-26T09:50:27Z</time>
      </trkpt>
      <trkpt lat="48.56909" lon="6.42742">
        <ele>271</ele>
        <time>2017-06-26T09:50:29Z</time>
      </trkpt>
      <trkpt lat="48.56909" lon="6.42741">
        <ele>271</ele>
        <time>2017-06-26T09:50:31Z</time>
      </trkpt>
      <trkpt lat="48.56908" lon="6.42741">
        <ele>271</ele>
        <time>2017-06-26T09:50:32Z</time>
      </trkpt>
      <trkpt lat="48.56908" lon="6.4274">
        <ele>270</ele>
        <time>2017-06-26T09:50:36Z</time>
      </trkpt>
      <trkpt lat="48.56907" lon="6.42739">
        <ele>270</ele>
        <time>2017-06-26T09:50:43Z</time>
      </trkpt>
      <trkpt lat="48.56907" lon="6.42738">
        <ele>270</ele>
        <time>2017-06-26T09:50:50Z</time>
      </trkpt>
      <trkpt lat="48.56906" lon="6.42738">
        <ele>270</ele>
        <time>2017-06-26T09:50:55Z</time>
      </trkpt>
      <trkpt lat="48.56906" lon="6.42737">
        <ele>270</ele>
        <time>2017-06-26T09:50:57Z</time>
      </trkpt>
      <trkpt lat="48.56906" lon="6.42736">
        <ele>270</ele>
        <time>2017-06-26T09:51:04Z</time>
      </trkpt>
      <trkpt lat="48.56905" lon="6.42736">
        <ele>271</ele>
        <time>2017-06-26T09:51:07Z</time>
      </trkpt>
      <trkpt lat="48.56905" lon="6.42735">
        <ele>271</ele>
        <time>2017-06-26T09:51:11Z</time>
      </trkpt>
      <trkpt lat="48.56905" lon="6.42734">
        <ele>271</ele>
        <time>2017-06-26T09:51:18Z</time>
      </trkpt>
      <trkpt lat="48.56904" lon="6.42734">
        <ele>271</ele>
        <time>2017-06-26T09:51:19Z</time>
      </trkpt>
      <trkpt lat="48.56904" lon="6.42733">
        <ele>270</ele>
        <time>2017-06-26T09:51:25Z</time>
      </trkpt>
      <trkpt lat="48.56903" lon="6.42733">
        <ele>270</ele>
        <time>2017-06-26T09:51:32Z</time>
      </trkpt>
      <trkpt lat="48.56903" lon="6.42732">
        <ele>270</ele>
        <time>2017-06-26T09:51:33Z</time>
      </trkpt>
      <trkpt lat="48.56903" lon="6.42731">
        <ele>270</ele>
        <time>2017-06-26T09:51:40Z</time>
      </trkpt>
      <trkpt lat="48.56902" lon="6.42731">
        <ele>270</ele>
        <time>2017-06-26T09:51:44Z</time>
      </trkpt>
      <trkpt lat="48.56901" lon="6.4273">
        <ele>269</ele>
        <time>2017-06-26T09:51:46Z</time>
      </trkpt>
      <trkpt lat="48.569" lon="6.4273">
        <ele>269</ele>
        <time>2017-06-26T09:51:47Z</time>
      </trkpt>
      <trkpt lat="48.56899" lon="6.4273">
        <ele>269</ele>
        <time>2017-06-26T09:51:48Z</time>
      </trkpt>
      <trkpt lat="48.56898" lon="6.4273">
        <ele>269</ele>
        <time>2017-06-26T09:51:49Z</time>
      </trkpt>
      <trkpt lat="48.56897" lon="6.42729">
        <ele>269</ele>
        <time>2017-06-26T09:51:50Z</time>
      </trkpt>
      <trkpt lat="48.56892" lon="6.42728">
        <ele>269</ele>
        <time>2017-06-26T09:51:51Z</time>
      </trkpt>
      <trkpt lat="48.5689" lon="6.42727">
        <ele>269</ele>
        <time>2017-06-26T09:51:52Z</time>
      </trkpt>
      <trkpt lat="48.56889" lon="6.42726">
        <ele>269</ele>
        <time>2017-06-26T09:51:53Z</time>
      </trkpt>
      <trkpt lat="48.56887" lon="6.42725">
        <ele>269</ele>
        <time>2017-06-26T09:51:54Z</time>
      </trkpt>
      <trkpt lat="48.56886" lon="6.42724">
        <ele>269</ele>
        <time>2017-06-26T09:51:55Z</time>
      </trkpt>
      <trkpt lat="48.56884" lon="6.42723">
        <ele>269</ele>
        <time>2017-06-26T09:51:56Z</time>
      </trkpt>
      <trkpt lat="48.56883" lon="6.42722">
        <ele>269</ele>
        <time>2017-06-26T09:51:57Z</time>
      </trkpt>
      <trkpt lat="48.56882" lon="6.42722">
        <ele>269</ele>
        <time>2017-06-26T09:51:58Z</time>
      </trkpt>
      <trkpt lat="48.56881" lon="6.42721">
        <ele>269</ele>
        <time>2017-06-26T09:51:59Z</time>
      </trkpt>
      <trkpt lat="48.5688" lon="6.4272">
        <ele>269</ele>
        <time>2017-06-26T09:52:01Z</time>
      </trkpt>
      <trkpt lat="48.56879" lon="6.4272">
        <ele>269</ele>
        <time>2017-06-26T09:52:02Z</time>
      </trkpt>
      <trkpt lat="48.56878" lon="6.42719">
        <ele>269</ele>
        <time>2017-06-26T09:52:03Z</time>
      </trkpt>
      <trkpt lat="48.56873" lon="6.42715">
        <ele>268</ele>
        <time>2017-06-26T09:52:05Z</time>
      </trkpt>
      <trkpt lat="48.56871" lon="6.42714">
        <ele>268</ele>
        <time>2017-06-26T09:52:06Z</time>
      </trkpt>
      <trkpt lat="48.5687" lon="6.42713">
        <ele>268</ele>
        <time>2017-06-26T09:52:07Z</time>
      </trkpt>
      <trkpt lat="48.56868" lon="6.42712">
        <ele>268</ele>
        <time>2017-06-26T09:52:08Z</time>
      </trkpt>
      <trkpt lat="48.56867" lon="6.42712">
        <ele>268</ele>
        <time>2017-06-26T09:52:09Z</time>
      </trkpt>
      <trkpt lat="48.56865" lon="6.42711">
        <ele>268</ele>
        <time>2017-06-26T09:52:10Z</time>
      </trkpt>
      <trkpt lat="48.56864" lon="6.4271">
        <ele>268</ele>
        <time>2017-06-26T09:52:11Z</time>
      </trkpt>
      <trkpt lat="48.56863" lon="6.42709">
        <ele>268</ele>
        <time>2017-06-26T09:52:12Z</time>
      </trkpt>
      <trkpt lat="48.56862" lon="6.42708">
        <ele>268</ele>
        <time>2017-06-26T09:52:13Z</time>
      </trkpt>
      <trkpt lat="48.56861" lon="6.42708">
        <ele>268</ele>
        <time>2017-06-26T09:52:14Z</time>
      </trkpt>
      <trkpt lat="48.5686" lon="6.42707">
        <ele>268</ele>
        <time>2017-06-26T09:52:15Z</time>
      </trkpt>
      <trkpt lat="48.56858" lon="6.42707">
        <ele>268</ele>
        <time>2017-06-26T09:52:16Z</time>
      </trkpt>
      <trkpt lat="48.56857" lon="6.42706">
        <ele>268</ele>
        <time>2017-06-26T09:52:17Z</time>
      </trkpt>
      <trkpt lat="48.56856" lon="6.42706">
        <ele>268</ele>
        <time>2017-06-26T09:52:18Z</time>
      </trkpt>
      <trkpt lat="48.56855" lon="6.42705">
        <ele>268</ele>
        <time>2017-06-26T09:52:19Z</time>
      </trkpt>
      <trkpt lat="48.56854" lon="6.42704">
        <ele>268</ele>
        <time>2017-06-26T09:52:22Z</time>
      </trkpt>
      <trkpt lat="48.56854" lon="6.42703">
        <ele>268</ele>
        <time>2017-06-26T09:52:24Z</time>
      </trkpt>
      <trkpt lat="48.56853" lon="6.42703">
        <ele>268</ele>
        <time>2017-06-26T09:52:26Z</time>
      </trkpt>
      <trkpt lat="48.56853" lon="6.42702">
        <ele>268</ele>
        <time>2017-06-26T09:52:27Z</time>
      </trkpt>
      <trkpt lat="48.56853" lon="6.42701">
        <ele>268</ele>
        <time>2017-06-26T09:52:29Z</time>
      </trkpt>
      <trkpt lat="48.56852" lon="6.42701">
        <ele>268</ele>
        <time>2017-06-26T09:52:30Z</time>
      </trkpt>
      <trkpt lat="48.56852" lon="6.427">
        <ele>268</ele>
        <time>2017-06-26T09:52:32Z</time>
      </trkpt>
      <trkpt lat="48.56851" lon="6.42699">
        <ele>268</ele>
        <time>2017-06-26T09:52:34Z</time>
      </trkpt>
      <trkpt lat="48.56851" lon="6.42698">
        <ele>266</ele>
        <time>2017-06-26T09:52:37Z</time>
      </trkpt>
      <trkpt lat="48.5685" lon="6.42698">
        <ele>266</ele>
        <time>2017-06-26T09:52:38Z</time>
      </trkpt>
      <trkpt lat="48.5685" lon="6.42697">
        <ele>266</ele>
        <time>2017-06-26T09:52:39Z</time>
      </trkpt>
      <trkpt lat="48.56849" lon="6.42696">
        <ele>266</ele>
        <time>2017-06-26T09:52:42Z</time>
      </trkpt>
      <trkpt lat="48.56848" lon="6.42695">
        <ele>266</ele>
        <time>2017-06-26T09:52:43Z</time>
      </trkpt>
      <trkpt lat="48.56848" lon="6.42694">
        <ele>266</ele>
        <time>2017-06-26T09:52:44Z</time>
      </trkpt>
      <trkpt lat="48.56847" lon="6.42693">
        <ele>267</ele>
        <time>2017-06-26T09:52:45Z</time>
      </trkpt>
      <trkpt lat="48.56847" lon="6.42692">
        <ele>267</ele>
        <time>2017-06-26T09:52:46Z</time>
      </trkpt>
      <trkpt lat="48.56846" lon="6.42691">
        <ele>267</ele>
        <time>2017-06-26T09:52:47Z</time>
      </trkpt>
      <trkpt lat="48.56845" lon="6.4269">
        <ele>267</ele>
        <time>2017-06-26T09:52:48Z</time>
      </trkpt>
      <trkpt lat="48.56845" lon="6.42689">
        <ele>267</ele>
        <time>2017-06-26T09:52:49Z</time>
      </trkpt>
      <trkpt lat="48.56845" lon="6.42688">
        <ele>267</ele>
        <time>2017-06-26T09:52:50Z</time>
      </trkpt>
      <trkpt lat="48.56844" lon="6.42688">
        <ele>267</ele>
        <time>2017-06-26T09:52:51Z</time>
      </trkpt>
      <trkpt lat="48.56843" lon="6.42687">
        <ele>267</ele>
        <time>2017-06-26T09:52:57Z</time>
      </trkpt>
      <trkpt lat="48.56842" lon="6.42687">
        <ele>267</ele>
        <time>2017-06-26T09:53:02Z</time>
      </trkpt>
      <trkpt lat="48.56842" lon="6.42686">
        <ele>267</ele>
        <time>2017-06-26T09:53:03Z</time>
      </trkpt>
      <trkpt lat="48.56841" lon="6.42686">
        <ele>268</ele>
        <time>2017-06-26T09:53:07Z</time>
      </trkpt>
      <trkpt lat="48.56841" lon="6.42685">
        <ele>268</ele>
        <time>2017-06-26T09:53:10Z</time>
      </trkpt>
      <trkpt lat="48.5684" lon="6.42685">
        <ele>268</ele>
        <time>2017-06-26T09:53:13Z</time>
      </trkpt>
      <trkpt lat="48.5684" lon="6.42684">
        <ele>268</ele>
        <time>2017-06-26T09:53:16Z</time>
      </trkpt>
      <trkpt lat="48.56839" lon="6.42684">
        <ele>268</ele>
        <time>2017-06-26T09:53:18Z</time>
      </trkpt>
      <trkpt lat="48.56839" lon="6.42683">
        <ele>268</ele>
        <time>2017-06-26T09:53:22Z</time>
      </trkpt>
      <trkpt lat="48.56838" lon="6.42683">
        <ele>268</ele>
        <time>2017-06-26T09:53:23Z</time>
      </trkpt>
      <trkpt lat="48.56837" lon="6.42683">
        <ele>267</ele>
        <time>2017-06-26T09:53:28Z</time>
      </trkpt>
      <trkpt lat="48.56837" lon="6.42682">
        <ele>267</ele>
        <time>2017-06-26T09:53:29Z</time>
      </trkpt>
      <trkpt lat="48.56836" lon="6.42681">
        <ele>267</ele>
        <time>2017-06-26T09:53:34Z</time>
      </trkpt>
      <trkpt lat="48.56836" lon="6.4268">
        <ele>268</ele>
        <time>2017-06-26T09:53:35Z</time>
      </trkpt>
      <trkpt lat="48.56835" lon="6.4268">
        <ele>268</ele>
        <time>2017-06-26T09:53:36Z</time>
      </trkpt>
      <trkpt lat="48.56835" lon="6.42679">
        <ele>268</ele>
        <time>2017-06-26T09:53:37Z</time>
      </trkpt>
      <trkpt lat="48.56834" lon="6.42678">
        <ele>268</ele>
        <time>2017-06-26T09:53:38Z</time>
      </trkpt>
      <trkpt lat="48.56834" lon="6.42677">
        <ele>268</ele>
        <time>2017-06-26T09:53:40Z</time>
      </trkpt>
      <trkpt lat="48.56833" lon="6.42676">
        <ele>268</ele>
        <time>2017-06-26T09:53:41Z</time>
      </trkpt>
      <trkpt lat="48.56832" lon="6.42675">
        <ele>268</ele>
        <time>2017-06-26T09:53:43Z</time>
      </trkpt>
      <trkpt lat="48.56832" lon="6.42674">
        <ele>268</ele>
        <time>2017-06-26T09:53:44Z</time>
      </trkpt>
      <trkpt lat="48.56831" lon="6.42673">
        <ele>268</ele>
        <time>2017-06-26T09:53:45Z</time>
      </trkpt>
      <trkpt lat="48.56831" lon="6.42672">
        <ele>268</ele>
        <time>2017-06-26T09:53:47Z</time>
      </trkpt>
      <trkpt lat="48.5683" lon="6.42671">
        <ele>268</ele>
        <time>2017-06-26T09:53:48Z</time>
      </trkpt>
      <trkpt lat="48.56829" lon="6.4267">
        <ele>268</ele>
        <time>2017-06-26T09:53:50Z</time>
      </trkpt>
      <trkpt lat="48.56828" lon="6.4267">
        <ele>268</ele>
        <time>2017-06-26T09:53:52Z</time>
      </trkpt>
      <trkpt lat="48.56828" lon="6.42669">
        <ele>268</ele>
        <time>2017-06-26T09:53:53Z</time>
      </trkpt>
      <trkpt lat="48.56827" lon="6.42669">
        <ele>266</ele>
        <time>2017-06-26T09:53:55Z</time>
      </trkpt>
      <trkpt lat="48.56826" lon="6.42668">
        <ele>266</ele>
        <time>2017-06-26T09:53:57Z</time>
      </trkpt>
      <trkpt lat="48.56825" lon="6.42668">
        <ele>266</ele>
        <time>2017-06-26T09:53:59Z</time>
      </trkpt>
      <trkpt lat="48.56825" lon="6.42667">
        <ele>266</ele>
        <time>2017-06-26T09:54:00Z</time>
      </trkpt>
      <trkpt lat="48.5682" lon="6.42664">
        <ele>266</ele>
        <time>2017-06-26T09:54:01Z</time>
      </trkpt>
      <trkpt lat="48.56819" lon="6.42664">
        <ele>266</ele>
        <time>2017-06-26T09:54:02Z</time>
      </trkpt>
      <trkpt lat="48.56819" lon="6.42663">
        <ele>266</ele>
        <time>2017-06-26T09:54:03Z</time>
      </trkpt>
      <trkpt lat="48.56818" lon="6.42663">
        <ele>266</ele>
        <time>2017-06-26T09:54:04Z</time>
      </trkpt>
      <trkpt lat="48.56817" lon="6.42662">
        <ele>260</ele>
        <time>2017-06-26T09:54:06Z</time>
      </trkpt>
      <trkpt lat="48.56816" lon="6.42662">
        <ele>260</ele>
        <time>2017-06-26T09:54:07Z</time>
      </trkpt>
      <trkpt lat="48.56815" lon="6.42661">
        <ele>260</ele>
        <time>2017-06-26T09:54:09Z</time>
      </trkpt>
      <trkpt lat="48.56814" lon="6.42661">
        <ele>259</ele>
        <time>2017-06-26T09:54:10Z</time>
      </trkpt>
      <trkpt lat="48.56813" lon="6.4266">
        <ele>259</ele>
        <time>2017-06-26T09:54:12Z</time>
      </trkpt>
      <trkpt lat="48.56812" lon="6.4266">
        <ele>259</ele>
        <time>2017-06-26T09:54:13Z</time>
      </trkpt>
      <trkpt lat="48.5681" lon="6.4266">
        <ele>260</ele>
        <time>2017-06-26T09:54:15Z</time>
      </trkpt>
      <trkpt lat="48.56809" lon="6.42661">
        <ele>260</ele>
        <time>2017-06-26T09:54:16Z</time>
      </trkpt>
      <trkpt lat="48.56808" lon="6.42661">
        <ele>260</ele>
        <time>2017-06-26T09:54:17Z</time>
      </trkpt>
      <trkpt lat="48.56806" lon="6.42661">
        <ele>260</ele>
        <time>2017-06-26T09:54:18Z</time>
      </trkpt>
      <trkpt lat="48.56805" lon="6.42662">
        <ele>260</ele>
        <time>2017-06-26T09:54:19Z</time>
      </trkpt>
      <trkpt lat="48.56804" lon="6.42662">
        <ele>260</ele>
        <time>2017-06-26T09:54:20Z</time>
      </trkpt>
      <trkpt lat="48.56802" lon="6.42663">
        <ele>260</ele>
        <time>2017-06-26T09:54:21Z</time>
      </trkpt>
      <trkpt lat="48.56801" lon="6.42663">
        <ele>260</ele>
        <time>2017-06-26T09:54:23Z</time>
      </trkpt>
      <trkpt lat="48.568" lon="6.42663">
        <ele>261</ele>
        <time>2017-06-26T09:54:25Z</time>
      </trkpt>
      <trkpt lat="48.56799" lon="6.42663">
        <ele>261</ele>
        <time>2017-06-26T09:54:26Z</time>
      </trkpt>
      <trkpt lat="48.56799" lon="6.42664">
        <ele>261</ele>
        <time>2017-06-26T09:54:27Z</time>
      </trkpt>
      <trkpt lat="48.56798" lon="6.42664">
        <ele>261</ele>
        <time>2017-06-26T09:54:28Z</time>
      </trkpt>
      <trkpt lat="48.56797" lon="6.42664">
        <ele>261</ele>
        <time>2017-06-26T09:54:29Z</time>
      </trkpt>
      <trkpt lat="48.56796" lon="6.42664">
        <ele>261</ele>
        <time>2017-06-26T09:54:31Z</time>
      </trkpt>
      <trkpt lat="48.56795" lon="6.42664">
        <ele>261</ele>
        <time>2017-06-26T09:54:32Z</time>
      </trkpt>
      <trkpt lat="48.56795" lon="6.42665">
        <ele>261</ele>
        <time>2017-06-26T09:54:33Z</time>
      </trkpt>
      <trkpt lat="48.56794" lon="6.42665">
        <ele>261</ele>
        <time>2017-06-26T09:54:34Z</time>
      </trkpt>
      <trkpt lat="48.56793" lon="6.42665">
        <ele>265</ele>
        <time>2017-06-26T09:54:35Z</time>
      </trkpt>
      <trkpt lat="48.56792" lon="6.42665">
        <ele>265</ele>
        <time>2017-06-26T09:54:36Z</time>
      </trkpt>
      <trkpt lat="48.56791" lon="6.42665">
        <ele>265</ele>
        <time>2017-06-26T09:54:37Z</time>
      </trkpt>
      <trkpt lat="48.5679" lon="6.42664">
        <ele>265</ele>
        <time>2017-06-26T09:54:38Z</time>
      </trkpt>
      <trkpt lat="48.56789" lon="6.42664">
        <ele>265</ele>
        <time>2017-06-26T09:54:39Z</time>
      </trkpt>
      <trkpt lat="48.56787" lon="6.42664">
        <ele>266</ele>
        <time>2017-06-26T09:54:40Z</time>
      </trkpt>
      <trkpt lat="48.56786" lon="6.42664">
        <ele>266</ele>
        <time>2017-06-26T09:54:41Z</time>
      </trkpt>
      <trkpt lat="48.56785" lon="6.42664">
        <ele>266</ele>
        <time>2017-06-26T09:54:42Z</time>
      </trkpt>
      <trkpt lat="48.56784" lon="6.42663">
        <ele>266</ele>
        <time>2017-06-26T09:54:43Z</time>
      </trkpt>
      <trkpt lat="48.56784" lon="6.42661">
        <ele>266</ele>
        <time>2017-06-26T09:54:44Z</time>
      </trkpt>
      <trkpt lat="48.56783" lon="6.4266">
        <ele>267</ele>
        <time>2017-06-26T09:54:45Z</time>
      </trkpt>
      <trkpt lat="48.56782" lon="6.42659">
        <ele>267</ele>
        <time>2017-06-26T09:54:46Z</time>
      </trkpt>
      <trkpt lat="48.56781" lon="6.42657">
        <ele>267</ele>
        <time>2017-06-26T09:54:47Z</time>
      </trkpt>
      <trkpt lat="48.5678" lon="6.42656">
        <ele>267</ele>
        <time>2017-06-26T09:54:48Z</time>
      </trkpt>
      <trkpt lat="48.56779" lon="6.42655">
        <ele>267</ele>
        <time>2017-06-26T09:54:49Z</time>
      </trkpt>
      <trkpt lat="48.56779" lon="6.42652">
        <ele>267</ele>
        <time>2017-06-26T09:54:50Z</time>
      </trkpt>
      <trkpt lat="48.56778" lon="6.4265">
        <ele>267</ele>
        <time>2017-06-26T09:54:51Z</time>
      </trkpt>
      <trkpt lat="48.56777" lon="6.42648">
        <ele>267</ele>
        <time>2017-06-26T09:54:52Z</time>
      </trkpt>
      <trkpt lat="48.56777" lon="6.42646">
        <ele>267</ele>
        <time>2017-06-26T09:54:53Z</time>
      </trkpt>
      <trkpt lat="48.56776" lon="6.42644">
        <ele>267</ele>
        <time>2017-06-26T09:54:54Z</time>
      </trkpt>
      <trkpt lat="48.56775" lon="6.42642">
        <ele>266</ele>
        <time>2017-06-26T09:54:55Z</time>
      </trkpt>
      <trkpt lat="48.56774" lon="6.42641">
        <ele>266</ele>
        <time>2017-06-26T09:54:56Z</time>
      </trkpt>
      <trkpt lat="48.56773" lon="6.4264">
        <ele>266</ele>
        <time>2017-06-26T09:54:57Z</time>
      </trkpt>
      <trkpt lat="48.56772" lon="6.42639">
        <ele>266</ele>
        <time>2017-06-26T09:54:58Z</time>
      </trkpt>
      <trkpt lat="48.5677" lon="6.42638">
        <ele>266</ele>
        <time>2017-06-26T09:54:59Z</time>
      </trkpt>
      <trkpt lat="48.56769" lon="6.42637">
        <ele>266</ele>
        <time>2017-06-26T09:55:00Z</time>
      </trkpt>
      <trkpt lat="48.56768" lon="6.42635">
        <ele>266</ele>
        <time>2017-06-26T09:55:01Z</time>
      </trkpt>
      <trkpt lat="48.56766" lon="6.42634">
        <ele>266</ele>
        <time>2017-06-26T09:55:02Z</time>
      </trkpt>
      <trkpt lat="48.56765" lon="6.42632">
        <ele>266</ele>
        <time>2017-06-26T09:55:03Z</time>
      </trkpt>
      <trkpt lat="48.56764" lon="6.4263">
        <ele>266</ele>
        <time>2017-06-26T09:55:04Z</time>
      </trkpt>
      <trkpt lat="48.56762" lon="6.42628">
        <ele>265</ele>
        <time>2017-06-26T09:55:05Z</time>
      </trkpt>
      <trkpt lat="48.56761" lon="6.42626">
        <ele>265</ele>
        <time>2017-06-26T09:55:06Z</time>
      </trkpt>
      <trkpt lat="48.5676" lon="6.42624">
        <ele>265</ele>
        <time>2017-06-26T09:55:07Z</time>
      </trkpt>
      <trkpt lat="48.5676" lon="6.42622">
        <ele>265</ele>
        <time>2017-06-26T09:55:08Z</time>
      </trkpt>
      <trkpt lat="48.56759" lon="6.42621">
        <ele>265</ele>
        <time>2017-06-26T09:55:09Z</time>
      </trkpt>
      <trkpt lat="48.56759" lon="6.42619">
        <ele>265</ele>
        <time>2017-06-26T09:55:10Z</time>
      </trkpt>
      <trkpt lat="48.56759" lon="6.42618">
        <ele>265</ele>
        <time>2017-06-26T09:55:11Z</time>
      </trkpt>
      <trkpt lat="48.56758" lon="6.42616">
        <ele>265</ele>
        <time>2017-06-26T09:55:12Z</time>
      </trkpt>
      <trkpt lat="48.56758" lon="6.42614">
        <ele>265</ele>
        <time>2017-06-26T09:55:13Z</time>
      </trkpt>
      <trkpt lat="48.56758" lon="6.42613">
        <ele>265</ele>
        <time>2017-06-26T09:55:14Z</time>
      </trkpt>
      <trkpt lat="48.56757" lon="6.42611">
        <ele>262</ele>
        <time>2017-06-26T09:55:15Z</time>
      </trkpt>
      <trkpt lat="48.56757" lon="6.4261">
        <ele>262</ele>
        <time>2017-06-26T09:55:16Z</time>
      </trkpt>
      <trkpt lat="48.56757" lon="6.42608">
        <ele>262</ele>
        <time>2017-06-26T09:55:17Z</time>
      </trkpt>
      <trkpt lat="48.56757" lon="6.42606">
        <ele>262</ele>
        <time>2017-06-26T09:55:18Z</time>
      </trkpt>
      <trkpt lat="48.56756" lon="6.42605">
        <ele>262</ele>
        <time>2017-06-26T09:55:19Z</time>
      </trkpt>
      <trkpt lat="48.56756" lon="6.42603">
        <ele>259</ele>
        <time>2017-06-26T09:55:20Z</time>
      </trkpt>
      <trkpt lat="48.56756" lon="6.42601">
        <ele>259</ele>
        <time>2017-06-26T09:55:21Z</time>
      </trkpt>
      <trkpt lat="48.56756" lon="6.42599">
        <ele>259</ele>
        <time>2017-06-26T09:55:22Z</time>
      </trkpt>
      <trkpt lat="48.56756" lon="6.42598">
        <ele>259</ele>
        <time>2017-06-26T09:55:23Z</time>
      </trkpt>
      <trkpt lat="48.56756" lon="6.42596">
        <ele>259</ele>
        <time>2017-06-26T09:55:24Z</time>
      </trkpt>
      <trkpt lat="48.56755" lon="6.42594">
        <ele>258</ele>
        <time>2017-06-26T09:55:25Z</time>
      </trkpt>
      <trkpt lat="48.56755" lon="6.42593">
        <ele>258</ele>
        <time>2017-06-26T09:55:26Z</time>
      </trkpt>
      <trkpt lat="48.56755" lon="6.42592">
        <ele>258</ele>
        <time>2017-06-26T09:55:27Z</time>
      </trkpt>
      <trkpt lat="48.56755" lon="6.42591">
        <ele>258</ele>
        <time>2017-06-26T09:55:29Z</time>
      </trkpt>
      <trkpt lat="48.56755" lon="6.4259">
        <ele>258</ele>
        <time>2017-06-26T09:55:30Z</time>
      </trkpt>
      <trkpt lat="48.56755" lon="6.42589">
        <ele>258</ele>
        <time>2017-06-26T09:55:31Z</time>
      </trkpt>
      <trkpt lat="48.56755" lon="6.42588">
        <ele>258</ele>
        <time>2017-06-26T09:55:32Z</time>
      </trkpt>
      <trkpt lat="48.56755" lon="6.42587">
        <ele>258</ele>
        <time>2017-06-26T09:55:33Z</time>
      </trkpt>
      <trkpt lat="48.56755" lon="6.42586">
        <ele>258</ele>
        <time>2017-06-26T09:55:34Z</time>
      </trkpt>
      <trkpt lat="48.56755" lon="6.42585">
        <ele>259</ele>
        <time>2017-06-26T09:55:36Z</time>
      </trkpt>
      <trkpt lat="48.56755" lon="6.42584">
        <ele>259</ele>
        <time>2017-06-26T09:55:37Z</time>
      </trkpt>
      <trkpt lat="48.56755" lon="6.42583">
        <ele>259</ele>
        <time>2017-06-26T09:55:38Z</time>
      </trkpt>
      <trkpt lat="48.56755" lon="6.42582">
        <ele>259</ele>
        <time>2017-06-26T09:55:39Z</time>
      </trkpt>
      <trkpt lat="48.56755" lon="6.42581">
        <ele>259</ele>
        <time>2017-06-26T09:55:40Z</time>
      </trkpt>
      <trkpt lat="48.56755" lon="6.4258">
        <ele>259</ele>
        <time>2017-06-26T09:55:42Z</time>
      </trkpt>
      <trkpt lat="48.56755" lon="6.42579">
        <ele>259</ele>
        <time>2017-06-26T09:55:43Z</time>
      </trkpt>
      <trkpt lat="48.56756" lon="6.42578">
        <ele>259</ele>
        <time>2017-06-26T09:55:44Z</time>
      </trkpt>
      <trkpt lat="48.56756" lon="6.42577">
        <ele>260</ele>
        <time>2017-06-26T09:55:46Z</time>
      </trkpt>
      <trkpt lat="48.56757" lon="6.42576">
        <ele>260</ele>
        <time>2017-06-26T09:55:48Z</time>
      </trkpt>
      <trkpt lat="48.56757" lon="6.42575">
        <ele>260</ele>
        <time>2017-06-26T09:55:49Z</time>
      </trkpt>
      <trkpt lat="48.56758" lon="6.42574">
        <ele>260</ele>
        <time>2017-06-26T09:55:51Z</time>
      </trkpt>
      <trkpt lat="48.56758" lon="6.42573">
        <ele>260</ele>
        <time>2017-06-26T09:55:53Z</time>
      </trkpt>
      <trkpt lat="48.56759" lon="6.42573">
        <ele>260</ele>
        <time>2017-06-26T09:55:54Z</time>
      </trkpt>
      <trkpt lat="48.56759" lon="6.42572">
        <ele>262</ele>
        <time>2017-06-26T09:55:55Z</time>
      </trkpt>
      <trkpt lat="48.56759" lon="6.42571">
        <ele>262</ele>
        <time>2017-06-26T09:55:56Z</time>
      </trkpt>
      <trkpt lat="48.5676" lon="6.4257">
        <ele>262</ele>
        <time>2017-06-26T09:55:58Z</time>
      </trkpt>
      <trkpt lat="48.5676" lon="6.42569">
        <ele>262</ele>
        <time>2017-06-26T09:56:00Z</time>
      </trkpt>
      <trkpt lat="48.56761" lon="6.42568">
        <ele>262</ele>
        <time>2017-06-26T09:56:01Z</time>
      </trkpt>
      <trkpt lat="48.56761" lon="6.42567">
        <ele>262</ele>
        <time>2017-06-26T09:56:03Z</time>
      </trkpt>
      <trkpt lat="48.56762" lon="6.42567">
        <ele>262</ele>
        <time>2017-06-26T09:56:04Z</time>
      </trkpt>
      <trkpt lat="48.56761" lon="6.42566">
        <ele>263</ele>
        <time>2017-06-26T09:56:05Z</time>
      </trkpt>
      <trkpt lat="48.56761" lon="6.42565">
        <ele>263</ele>
        <time>2017-06-26T09:56:06Z</time>
      </trkpt>
      <trkpt lat="48.56761" lon="6.42564">
        <ele>263</ele>
        <time>2017-06-26T09:56:07Z</time>
      </trkpt>
      <trkpt lat="48.5676" lon="6.42562">
        <ele>263</ele>
        <time>2017-06-26T09:56:08Z</time>
      </trkpt>
      <trkpt lat="48.5676" lon="6.42561">
        <ele>263</ele>
        <time>2017-06-26T09:56:09Z</time>
      </trkpt>
      <trkpt lat="48.5676" lon="6.4256">
        <ele>263</ele>
        <time>2017-06-26T09:56:10Z</time>
      </trkpt>
      <trkpt lat="48.5676" lon="6.42559">
        <ele>263</ele>
        <time>2017-06-26T09:56:11Z</time>
      </trkpt>
      <trkpt lat="48.56759" lon="6.42558">
        <ele>263</ele>
        <time>2017-06-26T09:56:12Z</time>
      </trkpt>
      <trkpt lat="48.56759" lon="6.42557">
        <ele>263</ele>
        <time>2017-06-26T09:56:13Z</time>
      </trkpt>
      <trkpt lat="48.56759" lon="6.42556">
        <ele>263</ele>
        <time>2017-06-26T09:56:14Z</time>
      </trkpt>
      <trkpt lat="48.56759" lon="6.42555">
        <ele>265</ele>
        <time>2017-06-26T09:56:15Z</time>
      </trkpt>
      <trkpt lat="48.56758" lon="6.42554">
        <ele>265</ele>
        <time>2017-06-26T09:56:16Z</time>
      </trkpt>
      <trkpt lat="48.56758" lon="6.42553">
        <ele>265</ele>
        <time>2017-06-26T09:56:17Z</time>
      </trkpt>
      <trkpt lat="48.56758" lon="6.42552">
        <ele>265</ele>
        <time>2017-06-26T09:56:18Z</time>
      </trkpt>
      <trkpt lat="48.56757" lon="6.4255">
        <ele>265</ele>
        <time>2017-06-26T09:56:19Z</time>
      </trkpt>
      <trkpt lat="48.56756" lon="6.42548">
        <ele>265</ele>
        <time>2017-06-26T09:56:20Z</time>
      </trkpt>
      <trkpt lat="48.56756" lon="6.42547">
        <ele>265</ele>
        <time>2017-06-26T09:56:21Z</time>
      </trkpt>
      <trkpt lat="48.56755" lon="6.42545">
        <ele>265</ele>
        <time>2017-06-26T09:56:22Z</time>
      </trkpt>
      <trkpt lat="48.56754" lon="6.42543">
        <ele>265</ele>
        <time>2017-06-26T09:56:23Z</time>
      </trkpt>
      <trkpt lat="48.56753" lon="6.42542">
        <ele>265</ele>
        <time>2017-06-26T09:56:24Z</time>
      </trkpt>
      <trkpt lat="48.56753" lon="6.4254">
        <ele>266</ele>
        <time>2017-06-26T09:56:25Z</time>
      </trkpt>
      <trkpt lat="48.56752" lon="6.42538">
        <ele>266</ele>
        <time>2017-06-26T09:56:26Z</time>
      </trkpt>
      <trkpt lat="48.56751" lon="6.42537">
        <ele>266</ele>
        <time>2017-06-26T09:56:27Z</time>
      </trkpt>
      <trkpt lat="48.5675" lon="6.42535">
        <ele>266</ele>
        <time>2017-06-26T09:56:28Z</time>
      </trkpt>
      <trkpt lat="48.56748" lon="6.42534">
        <ele>266</ele>
        <time>2017-06-26T09:56:29Z</time>
      </trkpt>
      <trkpt lat="48.56747" lon="6.42532">
        <ele>266</ele>
        <time>2017-06-26T09:56:30Z</time>
      </trkpt>
      <trkpt lat="48.56746" lon="6.4253">
        <ele>266</ele>
        <time>2017-06-26T09:56:31Z</time>
      </trkpt>
      <trkpt lat="48.56745" lon="6.42529">
        <ele>266</ele>
        <time>2017-06-26T09:56:32Z</time>
      </trkpt>
      <trkpt lat="48.56744" lon="6.42527">
        <ele>266</ele>
        <time>2017-06-26T09:56:33Z</time>
      </trkpt>
      <trkpt lat="48.56743" lon="6.42527">
        <ele>266</ele>
        <time>2017-06-26T09:56:34Z</time>
      </trkpt>
      <trkpt lat="48.56742" lon="6.42527">
        <ele>267</ele>
        <time>2017-06-26T09:56:36Z</time>
      </trkpt>
      <trkpt lat="48.56741" lon="6.42526">
        <ele>267</ele>
        <time>2017-06-26T09:56:38Z</time>
      </trkpt>
      <trkpt lat="48.5674" lon="6.42526">
        <ele>267</ele>
        <time>2017-06-26T09:56:40Z</time>
      </trkpt>
      <trkpt lat="48.56739" lon="6.42526">
        <ele>267</ele>
        <time>2017-06-26T09:56:42Z</time>
      </trkpt>
      <trkpt lat="48.56739" lon="6.42525">
        <ele>267</ele>
        <time>2017-06-26T09:56:43Z</time>
      </trkpt>
      <trkpt lat="48.56738" lon="6.42525">
        <ele>267</ele>
        <time>2017-06-26T09:56:44Z</time>
      </trkpt>
      <trkpt lat="48.56737" lon="6.42525">
        <ele>263</ele>
        <time>2017-06-26T09:56:46Z</time>
      </trkpt>
      <trkpt lat="48.56737" lon="6.42524">
        <ele>263</ele>
        <time>2017-06-26T09:56:47Z</time>
      </trkpt>
      <trkpt lat="48.56736" lon="6.42524">
        <ele>263</ele>
        <time>2017-06-26T09:56:48Z</time>
      </trkpt>
      <trkpt lat="48.56735" lon="6.42524">
        <ele>260</ele>
        <time>2017-06-26T09:56:50Z</time>
      </trkpt>
      <trkpt lat="48.56734" lon="6.42523">
        <ele>260</ele>
        <time>2017-06-26T09:56:52Z</time>
      </trkpt>
      <trkpt lat="48.56733" lon="6.42523">
        <ele>260</ele>
        <time>2017-06-26T09:56:53Z</time>
      </trkpt>
      <trkpt lat="48.56731" lon="6.42523">
        <ele>260</ele>
        <time>2017-06-26T09:56:54Z</time>
      </trkpt>
      <trkpt lat="48.5673" lon="6.42523">
        <ele>258</ele>
        <time>2017-06-26T09:56:55Z</time>
      </trkpt>
      <trkpt lat="48.56729" lon="6.42523">
        <ele>257</ele>
        <time>2017-06-26T09:56:56Z</time>
      </trkpt>
      <trkpt lat="48.56727" lon="6.42523">
        <ele>257</ele>
        <time>2017-06-26T09:56:57Z</time>
      </trkpt>
      <trkpt lat="48.56726" lon="6.42523">
        <ele>257</ele>
        <time>2017-06-26T09:56:58Z</time>
      </trkpt>
      <trkpt lat="48.56725" lon="6.42523">
        <ele>257</ele>
        <time>2017-06-26T09:56:59Z</time>
      </trkpt>
      <trkpt lat="48.56723" lon="6.42522">
        <ele>257</ele>
        <time>2017-06-26T09:57:00Z</time>
      </trkpt>
      <trkpt lat="48.56723" lon="6.42521">
        <ele>257</ele>
        <time>2017-06-26T09:57:01Z</time>
      </trkpt>
      <trkpt lat="48.56722" lon="6.4252">
        <ele>259</ele>
        <time>2017-06-26T09:57:02Z</time>
      </trkpt>
      <trkpt lat="48.56721" lon="6.42518">
        <ele>259</ele>
        <time>2017-06-26T09:57:03Z</time>
      </trkpt>
      <trkpt lat="48.56721" lon="6.42517">
        <ele>259</ele>
        <time>2017-06-26T09:57:04Z</time>
      </trkpt>
      <trkpt lat="48.5672" lon="6.42515">
        <ele>259</ele>
        <time>2017-06-26T09:57:05Z</time>
      </trkpt>
      <trkpt lat="48.5672" lon="6.42514">
        <ele>259</ele>
        <time>2017-06-26T09:57:06Z</time>
      </trkpt>
      <trkpt lat="48.56719" lon="6.42512">
        <ele>259</ele>
        <time>2017-06-26T09:57:07Z</time>
      </trkpt>
      <trkpt lat="48.56718" lon="6.42511">
        <ele>259</ele>
        <time>2017-06-26T09:57:08Z</time>
      </trkpt>
      <trkpt lat="48.56718" lon="6.42509">
        <ele>259</ele>
        <time>2017-06-26T09:57:09Z</time>
      </trkpt>
      <trkpt lat="48.56718" lon="6.42508">
        <ele>259</ele>
        <time>2017-06-26T09:57:10Z</time>
      </trkpt>
      <trkpt lat="48.56717" lon="6.42506">
        <ele>259</ele>
        <time>2017-06-26T09:57:11Z</time>
      </trkpt>
      <trkpt lat="48.56717" lon="6.42505">
        <ele>259</ele>
        <time>2017-06-26T09:57:12Z</time>
      </trkpt>
      <trkpt lat="48.56717" lon="6.42503">
        <ele>259</ele>
        <time>2017-06-26T09:57:13Z</time>
      </trkpt>
      <trkpt lat="48.56717" lon="6.42501">
        <ele>259</ele>
        <time>2017-06-26T09:57:14Z</time>
      </trkpt>
      <trkpt lat="48.56717" lon="6.425">
        <ele>260</ele>
        <time>2017-06-26T09:57:15Z</time>
      </trkpt>
      <trkpt lat="48.56717" lon="6.42498">
        <ele>260</ele>
        <time>2017-06-26T09:57:16Z</time>
      </trkpt>
      <trkpt lat="48.56717" lon="6.42497">
        <ele>260</ele>
        <time>2017-06-26T09:57:17Z</time>
      </trkpt>
      <trkpt lat="48.56716" lon="6.42495">
        <ele>260</ele>
        <time>2017-06-26T09:57:18Z</time>
      </trkpt>
      <trkpt lat="48.56716" lon="6.42493">
        <ele>260</ele>
        <time>2017-06-26T09:57:19Z</time>
      </trkpt>
      <trkpt lat="48.56717" lon="6.42492">
        <ele>260</ele>
        <time>2017-06-26T09:57:20Z</time>
      </trkpt>
      <trkpt lat="48.56717" lon="6.42491">
        <ele>260</ele>
        <time>2017-06-26T09:57:21Z</time>
      </trkpt>
      <trkpt lat="48.56718" lon="6.42489">
        <ele>260</ele>
        <time>2017-06-26T09:57:22Z</time>
      </trkpt>
      <trkpt lat="48.56718" lon="6.42488">
        <ele>260</ele>
        <time>2017-06-26T09:57:23Z</time>
      </trkpt>
      <trkpt lat="48.56719" lon="6.42487">
        <ele>260</ele>
        <time>2017-06-26T09:57:24Z</time>
      </trkpt>
      <trkpt lat="48.56719" lon="6.42485">
        <ele>261</ele>
        <time>2017-06-26T09:57:25Z</time>
      </trkpt>
      <trkpt lat="48.5672" lon="6.42484">
        <ele>261</ele>
        <time>2017-06-26T09:57:26Z</time>
      </trkpt>
      <trkpt lat="48.5672" lon="6.42483">
        <ele>261</ele>
        <time>2017-06-26T09:57:27Z</time>
      </trkpt>
      <trkpt lat="48.56721" lon="6.42481">
        <ele>261</ele>
        <time>2017-06-26T09:57:28Z</time>
      </trkpt>
      <trkpt lat="48.56721" lon="6.4248">
        <ele>261</ele>
        <time>2017-06-26T09:57:29Z</time>
      </trkpt>
      <trkpt lat="48.56721" lon="6.42478">
        <ele>261</ele>
        <time>2017-06-26T09:57:30Z</time>
      </trkpt>
      <trkpt lat="48.56722" lon="6.42476">
        <ele>261</ele>
        <time>2017-06-26T09:57:31Z</time>
      </trkpt>
      <trkpt lat="48.56722" lon="6.42475">
        <ele>261</ele>
        <time>2017-06-26T09:57:32Z</time>
      </trkpt>
      <trkpt lat="48.56723" lon="6.42473">
        <ele>261</ele>
        <time>2017-06-26T09:57:33Z</time>
      </trkpt>
      <trkpt lat="48.56723" lon="6.42472">
        <ele>261</ele>
        <time>2017-06-26T09:57:34Z</time>
      </trkpt>
      <trkpt lat="48.56724" lon="6.4247">
        <ele>263</ele>
        <time>2017-06-26T09:57:35Z</time>
      </trkpt>
      <trkpt lat="48.56723" lon="6.42469">
        <ele>263</ele>
        <time>2017-06-26T09:57:36Z</time>
      </trkpt>
      <trkpt lat="48.56723" lon="6.42467">
        <ele>263</ele>
        <time>2017-06-26T09:57:37Z</time>
      </trkpt>
      <trkpt lat="48.56722" lon="6.42466">
        <ele>263</ele>
        <time>2017-06-26T09:57:38Z</time>
      </trkpt>
      <trkpt lat="48.56722" lon="6.42464">
        <ele>263</ele>
        <time>2017-06-26T09:57:39Z</time>
      </trkpt>
      <trkpt lat="48.56722" lon="6.42463">
        <ele>263</ele>
        <time>2017-06-26T09:57:40Z</time>
      </trkpt>
      <trkpt lat="48.56721" lon="6.42461">
        <ele>263</ele>
        <time>2017-06-26T09:57:41Z</time>
      </trkpt>
      <trkpt lat="48.56721" lon="6.4246">
        <ele>263</ele>
        <time>2017-06-26T09:57:42Z</time>
      </trkpt>
      <trkpt lat="48.5672" lon="6.42458">
        <ele>263</ele>
        <time>2017-06-26T09:57:43Z</time>
      </trkpt>
      <trkpt lat="48.56719" lon="6.42456">
        <ele>263</ele>
        <time>2017-06-26T09:57:44Z</time>
      </trkpt>
      <trkpt lat="48.56718" lon="6.42454">
        <ele>265</ele>
        <time>2017-06-26T09:57:45Z</time>
      </trkpt>
      <trkpt lat="48.56717" lon="6.42452">
        <ele>265</ele>
        <time>2017-06-26T09:57:46Z</time>
      </trkpt>
      <trkpt lat="48.56716" lon="6.42451">
        <ele>265</ele>
        <time>2017-06-26T09:57:47Z</time>
      </trkpt>
      <trkpt lat="48.56716" lon="6.42449">
        <ele>265</ele>
        <time>2017-06-26T09:57:48Z</time>
      </trkpt>
      <trkpt lat="48.56715" lon="6.42447">
        <ele>265</ele>
        <time>2017-06-26T09:57:49Z</time>
      </trkpt>
      <trkpt lat="48.56714" lon="6.42445">
        <ele>265</ele>
        <time>2017-06-26T09:57:50Z</time>
      </trkpt>
      <trkpt lat="48.56714" lon="6.42444">
        <ele>265</ele>
        <time>2017-06-26T09:57:51Z</time>
      </trkpt>
      <trkpt lat="48.56713" lon="6.42442">
        <ele>265</ele>
        <time>2017-06-26T09:57:52Z</time>
      </trkpt>
      <trkpt lat="48.56712" lon="6.4244">
        <ele>265</ele>
        <time>2017-06-26T09:57:53Z</time>
      </trkpt>
      <trkpt lat="48.56711" lon="6.42439">
        <ele>265</ele>
        <time>2017-06-26T09:57:54Z</time>
      </trkpt>
      <trkpt lat="48.5671" lon="6.42436">
        <ele>265</ele>
        <time>2017-06-26T09:57:55Z</time>
      </trkpt>
      <trkpt lat="48.56708" lon="6.42434">
        <ele>265</ele>
        <time>2017-06-26T09:57:56Z</time>
      </trkpt>
      <trkpt lat="48.56707" lon="6.42432">
        <ele>265</ele>
        <time>2017-06-26T09:57:57Z</time>
      </trkpt>
      <trkpt lat="48.56706" lon="6.4243">
        <ele>265</ele>
        <time>2017-06-26T09:57:58Z</time>
      </trkpt>
      <trkpt lat="48.56704" lon="6.42428">
        <ele>265</ele>
        <time>2017-06-26T09:57:59Z</time>
      </trkpt>
      <trkpt lat="48.56702" lon="6.42426">
        <ele>265</ele>
        <time>2017-06-26T09:58:00Z</time>
      </trkpt>
      <trkpt lat="48.56699" lon="6.42424">
        <ele>265</ele>
        <time>2017-06-26T09:58:01Z</time>
      </trkpt>
      <trkpt lat="48.56697" lon="6.42422">
        <ele>265</ele>
        <time>2017-06-26T09:58:02Z</time>
      </trkpt>
      <trkpt lat="48.56694" lon="6.4242">
        <ele>265</ele>
        <time>2017-06-26T09:58:03Z</time>
      </trkpt>
      <trkpt lat="48.56693" lon="6.42419">
        <ele>265</ele>
        <time>2017-06-26T09:58:04Z</time>
      </trkpt>
      <trkpt lat="48.56691" lon="6.42417">
        <ele>264</ele>
        <time>2017-06-26T09:58:05Z</time>
      </trkpt>
      <trkpt lat="48.56689" lon="6.42416">
        <ele>264</ele>
        <time>2017-06-26T09:58:06Z</time>
      </trkpt>
      <trkpt lat="48.56687" lon="6.42414">
        <ele>264</ele>
        <time>2017-06-26T09:58:07Z</time>
      </trkpt>
      <trkpt lat="48.56685" lon="6.42412">
        <ele>264</ele>
        <time>2017-06-26T09:58:08Z</time>
      </trkpt>
      <trkpt lat="48.56684" lon="6.4241">
        <ele>264</ele>
        <time>2017-06-26T09:58:09Z</time>
      </trkpt>
      <trkpt lat="48.56682" lon="6.42408">
        <ele>264</ele>
        <time>2017-06-26T09:58:10Z</time>
      </trkpt>
      <trkpt lat="48.5668" lon="6.42405">
        <ele>264</ele>
        <time>2017-06-26T09:58:11Z</time>
      </trkpt>
      <trkpt lat="48.56679" lon="6.42403">
        <ele>264</ele>
        <time>2017-06-26T09:58:12Z</time>
      </trkpt>
      <trkpt lat="48.56677" lon="6.42401">
        <ele>264</ele>
        <time>2017-06-26T09:58:13Z</time>
      </trkpt>
      <trkpt lat="48.56675" lon="6.42398">
        <ele>264</ele>
        <time>2017-06-26T09:58:14Z</time>
      </trkpt>
      <trkpt lat="48.56673" lon="6.42395">
        <ele>264</ele>
        <time>2017-06-26T09:58:15Z</time>
      </trkpt>
      <trkpt lat="48.56671" lon="6.42393">
        <ele>264</ele>
        <time>2017-06-26T09:58:16Z</time>
      </trkpt>
      <trkpt lat="48.5667" lon="6.4239">
        <ele>264</ele>
        <time>2017-06-26T09:58:17Z</time>
      </trkpt>
      <trkpt lat="48.56668" lon="6.42388">
        <ele>264</ele>
        <time>2017-06-26T09:58:18Z</time>
      </trkpt>
      <trkpt lat="48.56666" lon="6.42385">
        <ele>264</ele>
        <time>2017-06-26T09:58:19Z</time>
      </trkpt>
      <trkpt lat="48.56664" lon="6.42382">
        <ele>264</ele>
        <time>2017-06-26T09:58:20Z</time>
      </trkpt>
      <trkpt lat="48.56663" lon="6.4238">
        <ele>264</ele>
        <time>2017-06-26T09:58:21Z</time>
      </trkpt>
      <trkpt lat="48.56661" lon="6.42377">
        <ele>264</ele>
        <time>2017-06-26T09:58:22Z</time>
      </trkpt>
      <trkpt lat="48.56659" lon="6.42374">
        <ele>264</ele>
        <time>2017-06-26T09:58:23Z</time>
      </trkpt>
      <trkpt lat="48.56658" lon="6.4237">
        <ele>264</ele>
        <time>2017-06-26T09:58:24Z</time>
      </trkpt>
      <trkpt lat="48.56656" lon="6.42367">
        <ele>263</ele>
        <time>2017-06-26T09:58:25Z</time>
      </trkpt>
      <trkpt lat="48.56655" lon="6.42364">
        <ele>263</ele>
        <time>2017-06-26T09:58:26Z</time>
      </trkpt>
      <trkpt lat="48.56653" lon="6.42361">
        <ele>263</ele>
        <time>2017-06-26T09:58:27Z</time>
      </trkpt>
      <trkpt lat="48.56651" lon="6.42359">
        <ele>263</ele>
        <time>2017-06-26T09:58:28Z</time>
      </trkpt>
      <trkpt lat="48.56649" lon="6.42357">
        <ele>263</ele>
        <time>2017-06-26T09:58:29Z</time>
      </trkpt>
      <trkpt lat="48.56647" lon="6.42354">
        <ele>263</ele>
        <time>2017-06-26T09:58:30Z</time>
      </trkpt>
      <trkpt lat="48.56646" lon="6.42352">
        <ele>263</ele>
        <time>2017-06-26T09:58:31Z</time>
      </trkpt>
      <trkpt lat="48.56644" lon="6.42349">
        <ele>263</ele>
        <time>2017-06-26T09:58:32Z</time>
      </trkpt>
      <trkpt lat="48.56642" lon="6.42347">
        <ele>263</ele>
        <time>2017-06-26T09:58:33Z</time>
      </trkpt>
      <trkpt lat="48.5664" lon="6.42344">
        <ele>263</ele>
        <time>2017-06-26T09:58:34Z</time>
      </trkpt>
      <trkpt lat="48.56639" lon="6.42342">
        <ele>261</ele>
        <time>2017-06-26T09:58:35Z</time>
      </trkpt>
      <trkpt lat="48.56637" lon="6.4234">
        <ele>261</ele>
        <time>2017-06-26T09:58:36Z</time>
      </trkpt>
      <trkpt lat="48.56635" lon="6.42338">
        <ele>261</ele>
        <time>2017-06-26T09:58:37Z</time>
      </trkpt>
      <trkpt lat="48.56633" lon="6.42335">
        <ele>261</ele>
        <time>2017-06-26T09:58:38Z</time>
      </trkpt>
      <trkpt lat="48.56631" lon="6.42333">
        <ele>261</ele>
        <time>2017-06-26T09:58:39Z</time>
      </trkpt>
      <trkpt lat="48.56629" lon="6.42331">
        <ele>261</ele>
        <time>2017-06-26T09:58:40Z</time>
      </trkpt>
      <trkpt lat="48.56628" lon="6.42329">
        <ele>261</ele>
        <time>2017-06-26T09:58:41Z</time>
      </trkpt>
      <trkpt lat="48.56626" lon="6.42326">
        <ele>261</ele>
        <time>2017-06-26T09:58:42Z</time>
      </trkpt>
      <trkpt lat="48.56625" lon="6.42324">
        <ele>261</ele>
        <time>2017-06-26T09:58:43Z</time>
      </trkpt>
      <trkpt lat="48.56623" lon="6.42322">
        <ele>261</ele>
        <time>2017-06-26T09:58:44Z</time>
      </trkpt>
      <trkpt lat="48.56622" lon="6.42319">
        <ele>259</ele>
        <time>2017-06-26T09:58:45Z</time>
      </trkpt>
      <trkpt lat="48.5662" lon="6.42316">
        <ele>259</ele>
        <time>2017-06-26T09:58:46Z</time>
      </trkpt>
      <trkpt lat="48.56619" lon="6.42313">
        <ele>259</ele>
        <time>2017-06-26T09:58:47Z</time>
      </trkpt>
      <trkpt lat="48.56617" lon="6.4231">
        <ele>259</ele>
        <time>2017-06-26T09:58:48Z</time>
      </trkpt>
      <trkpt lat="48.56616" lon="6.42307">
        <ele>259</ele>
        <time>2017-06-26T09:58:49Z</time>
      </trkpt>
      <trkpt lat="48.56614" lon="6.42303">
        <ele>258</ele>
        <time>2017-06-26T09:58:50Z</time>
      </trkpt>
      <trkpt lat="48.56612" lon="6.42298">
        <ele>258</ele>
        <time>2017-06-26T09:58:51Z</time>
      </trkpt>
      <trkpt lat="48.5661" lon="6.42293">
        <ele>258</ele>
        <time>2017-06-26T09:58:52Z</time>
      </trkpt>
      <trkpt lat="48.56609" lon="6.4229">
        <ele>258</ele>
        <time>2017-06-26T09:58:53Z</time>
      </trkpt>
      <trkpt lat="48.56608" lon="6.42287">
        <ele>258</ele>
        <time>2017-06-26T09:58:54Z</time>
      </trkpt>
      <trkpt lat="48.56606" lon="6.42284">
        <ele>257</ele>
        <time>2017-06-26T09:58:55Z</time>
      </trkpt>
      <trkpt lat="48.56605" lon="6.42281">
        <ele>257</ele>
        <time>2017-06-26T09:58:56Z</time>
      </trkpt>
      <trkpt lat="48.56604" lon="6.42278">
        <ele>257</ele>
        <time>2017-06-26T09:58:57Z</time>
      </trkpt>
      <trkpt lat="48.56603" lon="6.42275">
        <ele>257</ele>
        <time>2017-06-26T09:58:58Z</time>
      </trkpt>
      <trkpt lat="48.56601" lon="6.42272">
        <ele>257</ele>
        <time>2017-06-26T09:58:59Z</time>
      </trkpt>
      <trkpt lat="48.566" lon="6.42269">
        <ele>257</ele>
        <time>2017-06-26T09:59:00Z</time>
      </trkpt>
      <trkpt lat="48.56599" lon="6.42266">
        <ele>257</ele>
        <time>2017-06-26T09:59:01Z</time>
      </trkpt>
      <trkpt lat="48.56599" lon="6.42263">
        <ele>257</ele>
        <time>2017-06-26T09:59:02Z</time>
      </trkpt>
      <trkpt lat="48.56598" lon="6.4226">
        <ele>257</ele>
        <time>2017-06-26T09:59:03Z</time>
      </trkpt>
      <trkpt lat="48.56597" lon="6.42257">
        <ele>257</ele>
        <time>2017-06-26T09:59:04Z</time>
      </trkpt>
      <trkpt lat="48.56597" lon="6.42254">
        <ele>256</ele>
        <time>2017-06-26T09:59:05Z</time>
      </trkpt>
      <trkpt lat="48.56597" lon="6.42251">
        <ele>256</ele>
        <time>2017-06-26T09:59:06Z</time>
      </trkpt>
      <trkpt lat="48.56597" lon="6.42248">
        <ele>256</ele>
        <time>2017-06-26T09:59:07Z</time>
      </trkpt>
      <trkpt lat="48.56597" lon="6.42245">
        <ele>256</ele>
        <time>2017-06-26T09:59:08Z</time>
      </trkpt>
      <trkpt lat="48.56597" lon="6.42242">
        <ele>256</ele>
        <time>2017-06-26T09:59:09Z</time>
      </trkpt>
      <trkpt lat="48.56597" lon="6.42239">
        <ele>256</ele>
        <time>2017-06-26T09:59:10Z</time>
      </trkpt>
      <trkpt lat="48.56597" lon="6.42237">
        <ele>256</ele>
        <time>2017-06-26T09:59:11Z</time>
      </trkpt>
      <trkpt lat="48.56597" lon="6.42234">
        <ele>256</ele>
        <time>2017-06-26T09:59:12Z</time>
      </trkpt>
      <trkpt lat="48.56597" lon="6.42232">
        <ele>256</ele>
        <time>2017-06-26T09:59:13Z</time>
      </trkpt>
      <trkpt lat="48.56597" lon="6.4223">
        <ele>256</ele>
        <time>2017-06-26T09:59:14Z</time>
      </trkpt>
      <trkpt lat="48.56597" lon="6.42228">
        <ele>258</ele>
        <time>2017-06-26T09:59:15Z</time>
      </trkpt>
      <trkpt lat="48.56597" lon="6.42225">
        <ele>258</ele>
        <time>2017-06-26T09:59:16Z</time>
      </trkpt>
      <trkpt lat="48.56597" lon="6.42223">
        <ele>258</ele>
        <time>2017-06-26T09:59:17Z</time>
      </trkpt>
      <trkpt lat="48.56596" lon="6.42221">
        <ele>258</ele>
        <time>2017-06-26T09:59:18Z</time>
      </trkpt>
      <trkpt lat="48.56595" lon="6.42218">
        <ele>258</ele>
        <time>2017-06-26T09:59:19Z</time>
      </trkpt>
      <trkpt lat="48.56595" lon="6.42216">
        <ele>258</ele>
        <time>2017-06-26T09:59:20Z</time>
      </trkpt>
      <trkpt lat="48.56594" lon="6.42213">
        <ele>258</ele>
        <time>2017-06-26T09:59:21Z</time>
      </trkpt>
      <trkpt lat="48.56593" lon="6.42211">
        <ele>258</ele>
        <time>2017-06-26T09:59:22Z</time>
      </trkpt>
      <trkpt lat="48.56593" lon="6.42209">
        <ele>258</ele>
        <time>2017-06-26T09:59:23Z</time>
      </trkpt>
      <trkpt lat="48.56593" lon="6.42207">
        <ele>258</ele>
        <time>2017-06-26T09:59:24Z</time>
      </trkpt>
      <trkpt lat="48.56593" lon="6.42205">
        <ele>260</ele>
        <time>2017-06-26T09:59:25Z</time>
      </trkpt>
      <trkpt lat="48.56593" lon="6.42203">
        <ele>260</ele>
        <time>2017-06-26T09:59:26Z</time>
      </trkpt>
      <trkpt lat="48.56594" lon="6.42201">
        <ele>260</ele>
        <time>2017-06-26T09:59:27Z</time>
      </trkpt>
      <trkpt lat="48.56595" lon="6.42193">
        <ele>260</ele>
        <time>2017-06-26T09:59:28Z</time>
      </trkpt>
      <trkpt lat="48.56596" lon="6.4219">
        <ele>260</ele>
        <time>2017-06-26T09:59:29Z</time>
      </trkpt>
      <trkpt lat="48.56597" lon="6.42188">
        <ele>260</ele>
        <time>2017-06-26T09:59:30Z</time>
      </trkpt>
      <trkpt lat="48.56598" lon="6.42185">
        <ele>260</ele>
        <time>2017-06-26T09:59:31Z</time>
      </trkpt>
      <trkpt lat="48.56599" lon="6.42183">
        <ele>260</ele>
        <time>2017-06-26T09:59:32Z</time>
      </trkpt>
      <trkpt lat="48.566" lon="6.4218">
        <ele>260</ele>
        <time>2017-06-26T09:59:33Z</time>
      </trkpt>
      <trkpt lat="48.56602" lon="6.42177">
        <ele>260</ele>
        <time>2017-06-26T09:59:34Z</time>
      </trkpt>
      <trkpt lat="48.56603" lon="6.42174">
        <ele>260</ele>
        <time>2017-06-26T09:59:35Z</time>
      </trkpt>
      <trkpt lat="48.56605" lon="6.42171">
        <ele>260</ele>
        <time>2017-06-26T09:59:36Z</time>
      </trkpt>
      <trkpt lat="48.56606" lon="6.42168">
        <ele>260</ele>
        <time>2017-06-26T09:59:37Z</time>
      </trkpt>
      <trkpt lat="48.56607" lon="6.42167">
        <ele>260</ele>
        <time>2017-06-26T09:59:38Z</time>
      </trkpt>
      <trkpt lat="48.56608" lon="6.42166">
        <ele>260</ele>
        <time>2017-06-26T09:59:39Z</time>
      </trkpt>
      <trkpt lat="48.56609" lon="6.42165">
        <ele>260</ele>
        <time>2017-06-26T09:59:40Z</time>
      </trkpt>
      <trkpt lat="48.56609" lon="6.42164">
        <ele>260</ele>
        <time>2017-06-26T09:59:41Z</time>
      </trkpt>
      <trkpt lat="48.5661" lon="6.42163">
        <ele>260</ele>
        <time>2017-06-26T09:59:42Z</time>
      </trkpt>
      <trkpt lat="48.56615" lon="6.42158">
        <ele>260</ele>
        <time>2017-06-26T09:59:43Z</time>
      </trkpt>
      <trkpt lat="48.56615" lon="6.42157">
        <ele>260</ele>
        <time>2017-06-26T09:59:44Z</time>
      </trkpt>
      <trkpt lat="48.56616" lon="6.42156">
        <ele>262</ele>
        <time>2017-06-26T09:59:45Z</time>
      </trkpt>
      <trkpt lat="48.56617" lon="6.42155">
        <ele>262</ele>
        <time>2017-06-26T09:59:46Z</time>
      </trkpt>
      <trkpt lat="48.56618" lon="6.42154">
        <ele>262</ele>
        <time>2017-06-26T09:59:47Z</time>
      </trkpt>
      <trkpt lat="48.56619" lon="6.42152">
        <ele>262</ele>
        <time>2017-06-26T09:59:48Z</time>
      </trkpt>
      <trkpt lat="48.56623" lon="6.42147">
        <ele>262</ele>
        <time>2017-06-26T09:59:49Z</time>
      </trkpt>
      <trkpt lat="48.56624" lon="6.42145">
        <ele>262</ele>
        <time>2017-06-26T09:59:50Z</time>
      </trkpt>
      <trkpt lat="48.56626" lon="6.42144">
        <ele>262</ele>
        <time>2017-06-26T09:59:51Z</time>
      </trkpt>
      <trkpt lat="48.56628" lon="6.42142">
        <ele>262</ele>
        <time>2017-06-26T09:59:52Z</time>
      </trkpt>
      <trkpt lat="48.5663" lon="6.42141">
        <ele>262</ele>
        <time>2017-06-26T09:59:53Z</time>
      </trkpt>
      <trkpt lat="48.56631" lon="6.42139">
        <ele>262</ele>
        <time>2017-06-26T09:59:54Z</time>
      </trkpt>
      <trkpt lat="48.56633" lon="6.42138">
        <ele>265</ele>
        <time>2017-06-26T09:59:55Z</time>
      </trkpt>
      <trkpt lat="48.56635" lon="6.42136">
        <ele>265</ele>
        <time>2017-06-26T09:59:56Z</time>
      </trkpt>
      <trkpt lat="48.56636" lon="6.42135">
        <ele>265</ele>
        <time>2017-06-26T09:59:57Z</time>
      </trkpt>
      <trkpt lat="48.56638" lon="6.42133">
        <ele>265</ele>
        <time>2017-06-26T09:59:58Z</time>
      </trkpt>
      <trkpt lat="48.5664" lon="6.42132">
        <ele>265</ele>
        <time>2017-06-26T09:59:59Z</time>
      </trkpt>
      <trkpt lat="48.56642" lon="6.4213">
        <ele>266</ele>
        <time>2017-06-26T10:00:00Z</time>
      </trkpt>
      <trkpt lat="48.56643" lon="6.42129">
        <ele>266</ele>
        <time>2017-06-26T10:00:01Z</time>
      </trkpt>
      <trkpt lat="48.56645" lon="6.42128">
        <ele>266</ele>
        <time>2017-06-26T10:00:02Z</time>
      </trkpt>
      <trkpt lat="48.56647" lon="6.42127">
        <ele>266</ele>
        <time>2017-06-26T10:00:03Z</time>
      </trkpt>
      <trkpt lat="48.56649" lon="6.42125">
        <ele>266</ele>
        <time>2017-06-26T10:00:04Z</time>
      </trkpt>
      <trkpt lat="48.5665" lon="6.42125">
        <ele>267</ele>
        <time>2017-06-26T10:00:05Z</time>
      </trkpt>
      <trkpt lat="48.56651" lon="6.42124">
        <ele>267</ele>
        <time>2017-06-26T10:00:06Z</time>
      </trkpt>
      <trkpt lat="48.56653" lon="6.42123">
        <ele>267</ele>
        <time>2017-06-26T10:00:07Z</time>
      </trkpt>
      <trkpt lat="48.56654" lon="6.42123">
        <ele>267</ele>
        <time>2017-06-26T10:00:08Z</time>
      </trkpt>
      <trkpt lat="48.56659" lon="6.4212">
        <ele>267</ele>
        <time>2017-06-26T10:00:09Z</time>
      </trkpt>
      <trkpt lat="48.56661" lon="6.42118">
        <ele>267</ele>
        <time>2017-06-26T10:00:10Z</time>
      </trkpt>
      <trkpt lat="48.56663" lon="6.42117">
        <ele>267</ele>
        <time>2017-06-26T10:00:11Z</time>
      </trkpt>
      <trkpt lat="48.56665" lon="6.42115">
        <ele>267</ele>
        <time>2017-06-26T10:00:12Z</time>
      </trkpt>
      <trkpt lat="48.56667" lon="6.42114">
        <ele>267</ele>
        <time>2017-06-26T10:00:13Z</time>
      </trkpt>
      <trkpt lat="48.56669" lon="6.42112">
        <ele>267</ele>
        <time>2017-06-26T10:00:14Z</time>
      </trkpt>
      <trkpt lat="48.56671" lon="6.4211">
        <ele>267</ele>
        <time>2017-06-26T10:00:15Z</time>
      </trkpt>
      <trkpt lat="48.56672" lon="6.42108">
        <ele>267</ele>
        <time>2017-06-26T10:00:16Z</time>
      </trkpt>
      <trkpt lat="48.56674" lon="6.42106">
        <ele>267</ele>
        <time>2017-06-26T10:00:17Z</time>
      </trkpt>
      <trkpt lat="48.56676" lon="6.42105">
        <ele>267</ele>
        <time>2017-06-26T10:00:18Z</time>
      </trkpt>
      <trkpt lat="48.56677" lon="6.42104">
        <ele>267</ele>
        <time>2017-06-26T10:00:19Z</time>
      </trkpt>
      <trkpt lat="48.56679" lon="6.42103">
        <ele>267</ele>
        <time>2017-06-26T10:00:20Z</time>
      </trkpt>
      <trkpt lat="48.5668" lon="6.42102">
        <ele>267</ele>
        <time>2017-06-26T10:00:21Z</time>
      </trkpt>
      <trkpt lat="48.56682" lon="6.42101">
        <ele>267</ele>
        <time>2017-06-26T10:00:22Z</time>
      </trkpt>
      <trkpt lat="48.56683" lon="6.421">
        <ele>267</ele>
        <time>2017-06-26T10:00:23Z</time>
      </trkpt>
      <trkpt lat="48.56685" lon="6.42099">
        <ele>267</ele>
        <time>2017-06-26T10:00:24Z</time>
      </trkpt>
      <trkpt lat="48.56687" lon="6.42098">
        <ele>268</ele>
        <time>2017-06-26T10:00:25Z</time>
      </trkpt>
      <trkpt lat="48.56689" lon="6.42096">
        <ele>268</ele>
        <time>2017-06-26T10:00:26Z</time>
      </trkpt>
      <trkpt lat="48.56691" lon="6.42095">
        <ele>268</ele>
        <time>2017-06-26T10:00:27Z</time>
      </trkpt>
      <trkpt lat="48.56693" lon="6.42094">
        <ele>268</ele>
        <time>2017-06-26T10:00:28Z</time>
      </trkpt>
      <trkpt lat="48.56694" lon="6.42093">
        <ele>268</ele>
        <time>2017-06-26T10:00:29Z</time>
      </trkpt>
      <trkpt lat="48.56696" lon="6.42091">
        <ele>268</ele>
        <time>2017-06-26T10:00:30Z</time>
      </trkpt>
      <trkpt lat="48.56697" lon="6.4209">
        <ele>268</ele>
        <time>2017-06-26T10:00:31Z</time>
      </trkpt>
      <trkpt lat="48.56699" lon="6.42089">
        <ele>268</ele>
        <time>2017-06-26T10:00:32Z</time>
      </trkpt>
      <trkpt lat="48.56701" lon="6.42088">
        <ele>268</ele>
        <time>2017-06-26T10:00:33Z</time>
      </trkpt>
      <trkpt lat="48.56703" lon="6.42086">
        <ele>268</ele>
        <time>2017-06-26T10:00:34Z</time>
      </trkpt>
      <trkpt lat="48.56705" lon="6.42085">
        <ele>269</ele>
        <time>2017-06-26T10:00:35Z</time>
      </trkpt>
      <trkpt lat="48.56707" lon="6.42083">
        <ele>269</ele>
        <time>2017-06-26T10:00:36Z</time>
      </trkpt>
      <trkpt lat="48.56709" lon="6.42082">
        <ele>269</ele>
        <time>2017-06-26T10:00:37Z</time>
      </trkpt>
      <trkpt lat="48.56711" lon="6.42081">
        <ele>269</ele>
        <time>2017-06-26T10:00:38Z</time>
      </trkpt>
      <trkpt lat="48.56713" lon="6.42079">
        <ele>269</ele>
        <time>2017-06-26T10:00:39Z</time>
      </trkpt>
      <trkpt lat="48.56715" lon="6.42078">
        <ele>269</ele>
        <time>2017-06-26T10:00:40Z</time>
      </trkpt>
      <trkpt lat="48.56717" lon="6.42077">
        <ele>269</ele>
        <time>2017-06-26T10:00:41Z</time>
      </trkpt>
      <trkpt lat="48.56718" lon="6.42075">
        <ele>269</ele>
        <time>2017-06-26T10:00:42Z</time>
      </trkpt>
      <trkpt lat="48.5672" lon="6.42074">
        <ele>269</ele>
        <time>2017-06-26T10:00:43Z</time>
      </trkpt>
      <trkpt lat="48.56722" lon="6.42072">
        <ele>269</ele>
        <time>2017-06-26T10:00:44Z</time>
      </trkpt>
      <trkpt lat="48.56724" lon="6.42071">
        <ele>270</ele>
        <time>2017-06-26T10:00:45Z</time>
      </trkpt>
      <trkpt lat="48.56725" lon="6.42069">
        <ele>270</ele>
        <time>2017-06-26T10:00:46Z</time>
      </trkpt>
      <trkpt lat="48.56727" lon="6.42068">
        <ele>270</ele>
        <time>2017-06-26T10:00:47Z</time>
      </trkpt>
      <trkpt lat="48.56729" lon="6.42067">
        <ele>270</ele>
        <time>2017-06-26T10:00:48Z</time>
      </trkpt>
      <trkpt lat="48.56731" lon="6.42066">
        <ele>270</ele>
        <time>2017-06-26T10:00:49Z</time>
      </trkpt>
      <trkpt lat="48.56733" lon="6.42065">
        <ele>270</ele>
        <time>2017-06-26T10:00:50Z</time>
      </trkpt>
      <trkpt lat="48.56735" lon="6.42064">
        <ele>270</ele>
        <time>2017-06-26T10:00:51Z</time>
      </trkpt>
      <trkpt lat="48.56736" lon="6.42063">
        <ele>270</ele>
        <time>2017-06-26T10:00:52Z</time>
      </trkpt>
      <trkpt lat="48.56737" lon="6.42062">
        <ele>270</ele>
        <time>2017-06-26T10:00:53Z</time>
      </trkpt>
      <trkpt lat="48.56739" lon="6.42062">
        <ele>270</ele>
        <time>2017-06-26T10:00:54Z</time>
      </trkpt>
      <trkpt lat="48.5674" lon="6.42061">
        <ele>270</ele>
        <time>2017-06-26T10:00:55Z</time>
      </trkpt>
      <trkpt lat="48.56745" lon="6.42058">
        <ele>270</ele>
        <time>2017-06-26T10:00:56Z</time>
      </trkpt>
      <trkpt lat="48.56747" lon="6.42057">
        <ele>270</ele>
        <time>2017-06-26T10:00:57Z</time>
      </trkpt>
      <trkpt lat="48.5675" lon="6.42055">
        <ele>270</ele>
        <time>2017-06-26T10:00:58Z</time>
      </trkpt>
      <trkpt lat="48.56752" lon="6.42054">
        <ele>270</ele>
        <time>2017-06-26T10:00:59Z</time>
      </trkpt>
      <trkpt lat="48.56754" lon="6.42053">
        <ele>270</ele>
        <time>2017-06-26T10:01:00Z</time>
      </trkpt>
      <trkpt lat="48.56756" lon="6.42051">
        <ele>270</ele>
        <time>2017-06-26T10:01:01Z</time>
      </trkpt>
      <trkpt lat="48.56759" lon="6.4205">
        <ele>270</ele>
        <time>2017-06-26T10:01:02Z</time>
      </trkpt>
      <trkpt lat="48.56761" lon="6.42049">
        <ele>270</ele>
        <time>2017-06-26T10:01:03Z</time>
      </trkpt>
      <trkpt lat="48.56763" lon="6.42048">
        <ele>270</ele>
        <time>2017-06-26T10:01:04Z</time>
      </trkpt>
      <trkpt lat="48.56765" lon="6.42047">
        <ele>271</ele>
        <time>2017-06-26T10:01:05Z</time>
      </trkpt>
      <trkpt lat="48.56766" lon="6.42046">
        <ele>271</ele>
        <time>2017-06-26T10:01:06Z</time>
      </trkpt>
      <trkpt lat="48.56767" lon="6.42046">
        <ele>271</ele>
        <time>2017-06-26T10:01:07Z</time>
      </trkpt>
      <trkpt lat="48.56768" lon="6.42045">
        <ele>271</ele>
        <time>2017-06-26T10:01:08Z</time>
      </trkpt>
      <trkpt lat="48.56773" lon="6.42042">
        <ele>271</ele>
        <time>2017-06-26T10:01:09Z</time>
      </trkpt>
      <trkpt lat="48.56774" lon="6.42041">
        <ele>271</ele>
        <time>2017-06-26T10:01:10Z</time>
      </trkpt>
      <trkpt lat="48.56775" lon="6.42041">
        <ele>271</ele>
        <time>2017-06-26T10:01:11Z</time>
      </trkpt>
      <trkpt lat="48.56776" lon="6.4204">
        <ele>271</ele>
        <time>2017-06-26T10:01:12Z</time>
      </trkpt>
      <trkpt lat="48.56777" lon="6.42039">
        <ele>271</ele>
        <time>2017-06-26T10:01:13Z</time>
      </trkpt>
      <trkpt lat="48.56777" lon="6.42038">
        <ele>271</ele>
        <time>2017-06-26T10:01:14Z</time>
      </trkpt>
      <trkpt lat="48.56782" lon="6.42034">
        <ele>272</ele>
        <time>2017-06-26T10:01:15Z</time>
      </trkpt>
      <trkpt lat="48.56784" lon="6.42033">
        <ele>272</ele>
        <time>2017-06-26T10:01:16Z</time>
      </trkpt>
      <trkpt lat="48.56785" lon="6.42032">
        <ele>272</ele>
        <time>2017-06-26T10:01:17Z</time>
      </trkpt>
      <trkpt lat="48.56787" lon="6.42031">
        <ele>272</ele>
        <time>2017-06-26T10:01:18Z</time>
      </trkpt>
      <trkpt lat="48.56789" lon="6.4203">
        <ele>272</ele>
        <time>2017-06-26T10:01:19Z</time>
      </trkpt>
      <trkpt lat="48.56791" lon="6.42029">
        <ele>272</ele>
        <time>2017-06-26T10:01:20Z</time>
      </trkpt>
      <trkpt lat="48.56792" lon="6.42028">
        <ele>272</ele>
        <time>2017-06-26T10:01:21Z</time>
      </trkpt>
      <trkpt lat="48.56794" lon="6.42027">
        <ele>272</ele>
        <time>2017-06-26T10:01:22Z</time>
      </trkpt>
      <trkpt lat="48.56795" lon="6.42026">
        <ele>272</ele>
        <time>2017-06-26T10:01:23Z</time>
      </trkpt>
      <trkpt lat="48.56797" lon="6.42025">
        <ele>272</ele>
        <time>2017-06-26T10:01:24Z</time>
      </trkpt>
      <trkpt lat="48.56798" lon="6.42024">
        <ele>272</ele>
        <time>2017-06-26T10:01:25Z</time>
      </trkpt>
      <trkpt lat="48.568" lon="6.42023">
        <ele>272</ele>
        <time>2017-06-26T10:01:26Z</time>
      </trkpt>
      <trkpt lat="48.56801" lon="6.42022">
        <ele>272</ele>
        <time>2017-06-26T10:01:27Z</time>
      </trkpt>
      <trkpt lat="48.56803" lon="6.42021">
        <ele>272</ele>
        <time>2017-06-26T10:01:28Z</time>
      </trkpt>
      <trkpt lat="48.56805" lon="6.4202">
        <ele>272</ele>
        <time>2017-06-26T10:01:29Z</time>
      </trkpt>
      <trkpt lat="48.5681" lon="6.42017">
        <ele>272</ele>
        <time>2017-06-26T10:01:30Z</time>
      </trkpt>
      <trkpt lat="48.56812" lon="6.42015">
        <ele>272</ele>
        <time>2017-06-26T10:01:31Z</time>
      </trkpt>
      <trkpt lat="48.56815" lon="6.42013">
        <ele>272</ele>
        <time>2017-06-26T10:01:32Z</time>
      </trkpt>
      <trkpt lat="48.56818" lon="6.42012">
        <ele>272</ele>
        <time>2017-06-26T10:01:33Z</time>
      </trkpt>
      <trkpt lat="48.5682" lon="6.4201">
        <ele>272</ele>
        <time>2017-06-26T10:01:34Z</time>
      </trkpt>
      <trkpt lat="48.56823" lon="6.42009">
        <ele>272</ele>
        <time>2017-06-26T10:01:35Z</time>
      </trkpt>
      <trkpt lat="48.56825" lon="6.42007">
        <ele>272</ele>
        <time>2017-06-26T10:01:36Z</time>
      </trkpt>
      <trkpt lat="48.56827" lon="6.42005">
        <ele>272</ele>
        <time>2017-06-26T10:01:37Z</time>
      </trkpt>
      <trkpt lat="48.56829" lon="6.42004">
        <ele>272</ele>
        <time>2017-06-26T10:01:38Z</time>
      </trkpt>
      <trkpt lat="48.56831" lon="6.42003">
        <ele>272</ele>
        <time>2017-06-26T10:01:39Z</time>
      </trkpt>
      <trkpt lat="48.56833" lon="6.42001">
        <ele>272</ele>
        <time>2017-06-26T10:01:40Z</time>
      </trkpt>
      <trkpt lat="48.56835" lon="6.42">
        <ele>272</ele>
        <time>2017-06-26T10:01:41Z</time>
      </trkpt>
      <trkpt lat="48.56837" lon="6.41999">
        <ele>272</ele>
        <time>2017-06-26T10:01:42Z</time>
      </trkpt>
      <trkpt lat="48.56839" lon="6.41998">
        <ele>272</ele>
        <time>2017-06-26T10:01:43Z</time>
      </trkpt>
      <trkpt lat="48.56841" lon="6.41997">
        <ele>272</ele>
        <time>2017-06-26T10:01:44Z</time>
      </trkpt>
      <trkpt lat="48.56843" lon="6.41996">
        <ele>273</ele>
        <time>2017-06-26T10:01:45Z</time>
      </trkpt>
      <trkpt lat="48.56845" lon="6.41995">
        <ele>273</ele>
        <time>2017-06-26T10:01:46Z</time>
      </trkpt>
      <trkpt lat="48.56846" lon="6.41995">
        <ele>273</ele>
        <time>2017-06-26T10:01:47Z</time>
      </trkpt>
      <trkpt lat="48.56848" lon="6.41995">
        <ele>273</ele>
        <time>2017-06-26T10:01:48Z</time>
      </trkpt>
      <trkpt lat="48.56849" lon="6.41995">
        <ele>273</ele>
        <time>2017-06-26T10:01:49Z</time>
      </trkpt>
      <trkpt lat="48.56851" lon="6.41995">
        <ele>273</ele>
        <time>2017-06-26T10:01:50Z</time>
      </trkpt>
      <trkpt lat="48.56856" lon="6.41996">
        <ele>273</ele>
        <time>2017-06-26T10:01:51Z</time>
      </trkpt>
      <trkpt lat="48.56859" lon="6.41997">
        <ele>273</ele>
        <time>2017-06-26T10:01:52Z</time>
      </trkpt>
      <trkpt lat="48.56861" lon="6.41998">
        <ele>273</ele>
        <time>2017-06-26T10:01:53Z</time>
      </trkpt>
      <trkpt lat="48.56864" lon="6.41998">
        <ele>273</ele>
        <time>2017-06-26T10:01:54Z</time>
      </trkpt>
      <trkpt lat="48.56866" lon="6.41999">
        <ele>273</ele>
        <time>2017-06-26T10:01:55Z</time>
      </trkpt>
      <trkpt lat="48.56868" lon="6.42001">
        <ele>273</ele>
        <time>2017-06-26T10:01:56Z</time>
      </trkpt>
      <trkpt lat="48.5687" lon="6.42002">
        <ele>273</ele>
        <time>2017-06-26T10:01:57Z</time>
      </trkpt>
      <trkpt lat="48.56872" lon="6.42004">
        <ele>273</ele>
        <time>2017-06-26T10:01:58Z</time>
      </trkpt>
      <trkpt lat="48.56874" lon="6.42006">
        <ele>273</ele>
        <time>2017-06-26T10:01:59Z</time>
      </trkpt>
      <trkpt lat="48.56876" lon="6.42006">
        <ele>273</ele>
        <time>2017-06-26T10:02:00Z</time>
      </trkpt>
      <trkpt lat="48.56878" lon="6.42007">
        <ele>273</ele>
        <time>2017-06-26T10:02:01Z</time>
      </trkpt>
      <trkpt lat="48.56879" lon="6.42007">
        <ele>273</ele>
        <time>2017-06-26T10:02:02Z</time>
      </trkpt>
      <trkpt lat="48.56881" lon="6.42008">
        <ele>273</ele>
        <time>2017-06-26T10:02:03Z</time>
      </trkpt>
      <trkpt lat="48.56883" lon="6.42009">
        <ele>273</ele>
        <time>2017-06-26T10:02:04Z</time>
      </trkpt>
      <trkpt lat="48.56884" lon="6.42009">
        <ele>274</ele>
        <time>2017-06-26T10:02:05Z</time>
      </trkpt>
      <trkpt lat="48.56885" lon="6.42008">
        <ele>274</ele>
        <time>2017-06-26T10:02:06Z</time>
      </trkpt>
      <trkpt lat="48.56886" lon="6.42007">
        <ele>274</ele>
        <time>2017-06-26T10:02:07Z</time>
      </trkpt>
      <trkpt lat="48.56887" lon="6.42006">
        <ele>274</ele>
        <time>2017-06-26T10:02:08Z</time>
      </trkpt>
      <trkpt lat="48.56888" lon="6.42005">
        <ele>274</ele>
        <time>2017-06-26T10:02:09Z</time>
      </trkpt>
      <trkpt lat="48.5689" lon="6.42005">
        <ele>274</ele>
        <time>2017-06-26T10:02:10Z</time>
      </trkpt>
      <trkpt lat="48.56891" lon="6.42004">
        <ele>274</ele>
        <time>2017-06-26T10:02:11Z</time>
      </trkpt>
      <trkpt lat="48.56892" lon="6.42003">
        <ele>274</ele>
        <time>2017-06-26T10:02:12Z</time>
      </trkpt>
      <trkpt lat="48.56893" lon="6.42002">
        <ele>274</ele>
        <time>2017-06-26T10:02:13Z</time>
      </trkpt>
      <trkpt lat="48.56893" lon="6.42">
        <ele>274</ele>
        <time>2017-06-26T10:02:14Z</time>
      </trkpt>
      <trkpt lat="48.56894" lon="6.41999">
        <ele>273</ele>
        <time>2017-06-26T10:02:15Z</time>
      </trkpt>
      <trkpt lat="48.56895" lon="6.41997">
        <ele>273</ele>
        <time>2017-06-26T10:02:16Z</time>
      </trkpt>
      <trkpt lat="48.56896" lon="6.41996">
        <ele>273</ele>
        <time>2017-06-26T10:02:17Z</time>
      </trkpt>
      <trkpt lat="48.56896" lon="6.41994">
        <ele>273</ele>
        <time>2017-06-26T10:02:18Z</time>
      </trkpt>
      <trkpt lat="48.56897" lon="6.41992">
        <ele>273</ele>
        <time>2017-06-26T10:02:19Z</time>
      </trkpt>
      <trkpt lat="48.56898" lon="6.41991">
        <ele>273</ele>
        <time>2017-06-26T10:02:20Z</time>
      </trkpt>
      <trkpt lat="48.56899" lon="6.41989">
        <ele>273</ele>
        <time>2017-06-26T10:02:21Z</time>
      </trkpt>
      <trkpt lat="48.569" lon="6.41987">
        <ele>273</ele>
        <time>2017-06-26T10:02:22Z</time>
      </trkpt>
      <trkpt lat="48.56901" lon="6.41985">
        <ele>273</ele>
        <time>2017-06-26T10:02:23Z</time>
      </trkpt>
      <trkpt lat="48.56901" lon="6.41983">
        <ele>273</ele>
        <time>2017-06-26T10:02:24Z</time>
      </trkpt>
      <trkpt lat="48.56902" lon="6.41981">
        <ele>273</ele>
        <time>2017-06-26T10:02:25Z</time>
      </trkpt>
      <trkpt lat="48.56903" lon="6.41979">
        <ele>273</ele>
        <time>2017-06-26T10:02:26Z</time>
      </trkpt>
      <trkpt lat="48.56904" lon="6.41977">
        <ele>273</ele>
        <time>2017-06-26T10:02:27Z</time>
      </trkpt>
      <trkpt lat="48.56906" lon="6.41976">
        <ele>273</ele>
        <time>2017-06-26T10:02:28Z</time>
      </trkpt>
      <trkpt lat="48.56907" lon="6.41974">
        <ele>273</ele>
        <time>2017-06-26T10:02:29Z</time>
      </trkpt>
      <trkpt lat="48.56909" lon="6.41973">
        <ele>273</ele>
        <time>2017-06-26T10:02:30Z</time>
      </trkpt>
      <trkpt lat="48.5691" lon="6.41971">
        <ele>273</ele>
        <time>2017-06-26T10:02:31Z</time>
      </trkpt>
      <trkpt lat="48.56912" lon="6.4197">
        <ele>273</ele>
        <time>2017-06-26T10:02:32Z</time>
      </trkpt>
      <trkpt lat="48.56913" lon="6.4197">
        <ele>273</ele>
        <time>2017-06-26T10:02:33Z</time>
      </trkpt>
      <trkpt lat="48.56914" lon="6.4197">
        <ele>273</ele>
        <time>2017-06-26T10:02:34Z</time>
      </trkpt>
      <trkpt lat="48.56915" lon="6.4197">
        <ele>274</ele>
        <time>2017-06-26T10:02:35Z</time>
      </trkpt>
      <trkpt lat="48.56916" lon="6.4197">
        <ele>274</ele>
        <time>2017-06-26T10:02:36Z</time>
      </trkpt>
      <trkpt lat="48.56917" lon="6.4197">
        <ele>274</ele>
        <time>2017-06-26T10:02:37Z</time>
      </trkpt>
      <trkpt lat="48.56918" lon="6.4197">
        <ele>274</ele>
        <time>2017-06-26T10:02:38Z</time>
      </trkpt>
      <trkpt lat="48.56919" lon="6.4197">
        <ele>274</ele>
        <time>2017-06-26T10:02:39Z</time>
      </trkpt>
      <trkpt lat="48.56921" lon="6.4197">
        <ele>274</ele>
        <time>2017-06-26T10:02:40Z</time>
      </trkpt>
      <trkpt lat="48.56922" lon="6.41971">
        <ele>274</ele>
        <time>2017-06-26T10:02:41Z</time>
      </trkpt>
      <trkpt lat="48.56923" lon="6.41971">
        <ele>274</ele>
        <time>2017-06-26T10:02:44Z</time>
      </trkpt>
      <trkpt lat="48.56924" lon="6.41971">
        <ele>274</ele>
        <time>2017-06-26T10:02:47Z</time>
      </trkpt>
      <trkpt lat="48.56925" lon="6.41971">
        <ele>274</ele>
        <time>2017-06-26T10:02:50Z</time>
      </trkpt>
      <trkpt lat="48.56925" lon="6.41972">
        <ele>274</ele>
        <time>2017-06-26T10:02:53Z</time>
      </trkpt>
      <trkpt lat="48.56926" lon="6.41972">
        <ele>274</ele>
        <time>2017-06-26T10:02:54Z</time>
      </trkpt>
      <trkpt lat="48.56927" lon="6.41972">
        <ele>275</ele>
        <time>2017-06-26T10:02:57Z</time>
      </trkpt>
      <trkpt lat="48.56928" lon="6.41972">
        <ele>275</ele>
        <time>2017-06-26T10:03:00Z</time>
      </trkpt>
      <trkpt lat="48.56929" lon="6.41972">
        <ele>275</ele>
        <time>2017-06-26T10:03:03Z</time>
      </trkpt>
      <trkpt lat="48.5693" lon="6.41972">
        <ele>275</ele>
        <time>2017-06-26T10:03:05Z</time>
      </trkpt>
      <trkpt lat="48.5693" lon="6.41971">
        <ele>275</ele>
        <time>2017-06-26T10:03:07Z</time>
      </trkpt>
      <trkpt lat="48.56931" lon="6.41971">
        <ele>275</ele>
        <time>2017-06-26T10:03:08Z</time>
      </trkpt>
      <trkpt lat="48.56932" lon="6.41971">
        <ele>275</ele>
        <time>2017-06-26T10:03:10Z</time>
      </trkpt>
      <trkpt lat="48.56933" lon="6.4197">
        <ele>275</ele>
        <time>2017-06-26T10:03:13Z</time>
      </trkpt>
      <trkpt lat="48.56934" lon="6.4197">
        <ele>275</ele>
        <time>2017-06-26T10:03:16Z</time>
      </trkpt>
      <trkpt lat="48.56935" lon="6.4197">
        <ele>275</ele>
        <time>2017-06-26T10:03:18Z</time>
      </trkpt>
      <trkpt lat="48.56935" lon="6.41969">
        <ele>275</ele>
        <time>2017-06-26T10:03:19Z</time>
      </trkpt>
      <trkpt lat="48.56936" lon="6.41969">
        <ele>275</ele>
        <time>2017-06-26T10:03:25Z</time>
      </trkpt>
      <trkpt lat="48.56936" lon="6.41968">
        <ele>275</ele>
        <time>2017-06-26T10:03:32Z</time>
      </trkpt>
      <trkpt lat="48.56937" lon="6.41968">
        <ele>275</ele>
        <time>2017-06-26T10:03:36Z</time>
      </trkpt>
      <trkpt lat="48.56937" lon="6.41967">
        <ele>275</ele>
        <time>2017-06-26T10:03:46Z</time>
      </trkpt>
      <trkpt lat="48.56938" lon="6.41967">
        <ele>275</ele>
        <time>2017-06-26T10:03:48Z</time>
      </trkpt>
      <trkpt lat="48.56939" lon="6.41967">
        <ele>275</ele>
        <time>2017-06-26T10:03:59Z</time>
      </trkpt>
      <trkpt lat="48.56939" lon="6.41966">
        <ele>275</ele>
        <time>2017-06-26T10:04:00Z</time>
      </trkpt>
      <trkpt lat="48.5694" lon="6.41966">
        <ele>276</ele>
        <time>2017-06-26T10:04:11Z</time>
      </trkpt>
      <trkpt lat="48.5694" lon="6.41965">
        <ele>276</ele>
        <time>2017-06-26T10:04:14Z</time>
      </trkpt>
      <trkpt lat="48.56941" lon="6.41965">
        <ele>276</ele>
        <time>2017-06-26T10:04:22Z</time>
      </trkpt>
      <trkpt lat="48.56941" lon="6.41964">
        <ele>275</ele>
        <time>2017-06-26T10:04:28Z</time>
      </trkpt>
      <trkpt lat="48.56942" lon="6.41964">
        <ele>275</ele>
        <time>2017-06-26T10:04:33Z</time>
      </trkpt>
      <trkpt lat="48.56941" lon="6.41964">
        <ele>275</ele>
        <time>2017-06-26T10:04:44Z</time>
      </trkpt>
      <trkpt lat="48.56941" lon="6.41963">
        <ele>276</ele>
        <time>2017-06-26T10:04:53Z</time>
      </trkpt>
      <trkpt lat="48.5694" lon="6.41963">
        <ele>275</ele>
        <time>2017-06-26T10:05:04Z</time>
      </trkpt>
      <trkpt lat="48.56939" lon="6.41963">
        <ele>275</ele>
        <time>2017-06-26T10:05:23Z</time>
      </trkpt>
      <trkpt lat="48.56939" lon="6.41962">
        <ele>276</ele>
        <time>2017-06-26T10:05:38Z</time>
      </trkpt>
      <trkpt lat="48.56938" lon="6.41962">
        <ele>276</ele>
        <time>2017-06-26T10:05:43Z</time>
      </trkpt>
      <trkpt lat="48.56937" lon="6.41962">
        <ele>276</ele>
        <time>2017-06-26T10:06:02Z</time>
      </trkpt>
      <trkpt lat="48.56937" lon="6.41961">
        <ele>275</ele>
        <time>2017-06-26T10:06:21Z</time>
      </trkpt>
      <trkpt lat="48.56937" lon="6.4196">
        <ele>275</ele>
        <time>2017-06-26T10:06:25Z</time>
      </trkpt>
      <trkpt lat="48.56938" lon="6.41959">
        <ele>275</ele>
        <time>2017-06-26T10:06:28Z</time>
      </trkpt>
      <trkpt lat="48.56938" lon="6.41958">
        <ele>275</ele>
        <time>2017-06-26T10:06:32Z</time>
      </trkpt>
      <trkpt lat="48.56939" lon="6.41958">
        <ele>276</ele>
        <time>2017-06-26T10:06:35Z</time>
      </trkpt>
      <trkpt lat="48.56939" lon="6.41957">
        <ele>276</ele>
        <time>2017-06-26T10:06:36Z</time>
      </trkpt>
      <trkpt lat="48.56939" lon="6.41956">
        <ele>276</ele>
        <time>2017-06-26T10:06:40Z</time>
      </trkpt>
      <trkpt lat="48.5694" lon="6.41956">
        <ele>276</ele>
        <time>2017-06-26T10:06:42Z</time>
      </trkpt>
      <trkpt lat="48.5694" lon="6.41955">
        <ele>276</ele>
        <time>2017-06-26T10:06:44Z</time>
      </trkpt>
      <trkpt lat="48.5694" lon="6.41954">
        <ele>276</ele>
        <time>2017-06-26T10:06:47Z</time>
      </trkpt>
      <trkpt lat="48.56941" lon="6.41954">
        <ele>276</ele>
        <time>2017-06-26T10:06:50Z</time>
      </trkpt>
      <trkpt lat="48.56941" lon="6.41953">
        <ele>276</ele>
        <time>2017-06-26T10:06:51Z</time>
      </trkpt>
      <trkpt lat="48.56942" lon="6.41951">
        <ele>274</ele>
        <time>2017-06-26T10:06:55Z</time>
      </trkpt>
      <trkpt lat="48.56944" lon="6.41949">
        <ele>274</ele>
        <time>2017-06-26T10:06:56Z</time>
      </trkpt>
      <trkpt lat="48.56945" lon="6.41948">
        <ele>274</ele>
        <time>2017-06-26T10:06:57Z</time>
      </trkpt>
      <trkpt lat="48.56946" lon="6.41946">
        <ele>274</ele>
        <time>2017-06-26T10:06:58Z</time>
      </trkpt>
      <trkpt lat="48.56948" lon="6.41945">
        <ele>274</ele>
        <time>2017-06-26T10:06:59Z</time>
      </trkpt>
      <trkpt lat="48.56949" lon="6.41943">
        <ele>274</ele>
        <time>2017-06-26T10:07:00Z</time>
      </trkpt>
      <trkpt lat="48.56951" lon="6.41941">
        <ele>274</ele>
        <time>2017-06-26T10:07:01Z</time>
      </trkpt>
      <trkpt lat="48.56952" lon="6.41939">
        <ele>274</ele>
        <time>2017-06-26T10:07:02Z</time>
      </trkpt>
      <trkpt lat="48.56954" lon="6.41937">
        <ele>274</ele>
        <time>2017-06-26T10:07:03Z</time>
      </trkpt>
      <trkpt lat="48.56955" lon="6.41935">
        <ele>274</ele>
        <time>2017-06-26T10:07:04Z</time>
      </trkpt>
      <trkpt lat="48.56957" lon="6.41934">
        <ele>273</ele>
        <time>2017-06-26T10:07:05Z</time>
      </trkpt>
      <trkpt lat="48.56958" lon="6.41932">
        <ele>273</ele>
        <time>2017-06-26T10:07:06Z</time>
      </trkpt>
      <trkpt lat="48.5696" lon="6.41931">
        <ele>273</ele>
        <time>2017-06-26T10:07:07Z</time>
      </trkpt>
      <trkpt lat="48.56964" lon="6.41926">
        <ele>273</ele>
        <time>2017-06-26T10:07:08Z</time>
      </trkpt>
      <trkpt lat="48.56966" lon="6.41925">
        <ele>273</ele>
        <time>2017-06-26T10:07:09Z</time>
      </trkpt>
      <trkpt lat="48.56967" lon="6.41923">
        <ele>273</ele>
        <time>2017-06-26T10:07:10Z</time>
      </trkpt>
      <trkpt lat="48.56969" lon="6.41922">
        <ele>273</ele>
        <time>2017-06-26T10:07:11Z</time>
      </trkpt>
      <trkpt lat="48.56973" lon="6.41918">
        <ele>273</ele>
        <time>2017-06-26T10:07:12Z</time>
      </trkpt>
      <trkpt lat="48.56976" lon="6.41916">
        <ele>273</ele>
        <time>2017-06-26T10:07:13Z</time>
      </trkpt>
      <trkpt lat="48.56978" lon="6.41914">
        <ele>273</ele>
        <time>2017-06-26T10:07:14Z</time>
      </trkpt>
      <trkpt lat="48.5698" lon="6.41912">
        <ele>273</ele>
        <time>2017-06-26T10:07:15Z</time>
      </trkpt>
      <trkpt lat="48.56982" lon="6.4191">
        <ele>273</ele>
        <time>2017-06-26T10:07:16Z</time>
      </trkpt>
      <trkpt lat="48.56984" lon="6.41908">
        <ele>273</ele>
        <time>2017-06-26T10:07:17Z</time>
      </trkpt>
      <trkpt lat="48.56986" lon="6.41906">
        <ele>273</ele>
        <time>2017-06-26T10:07:18Z</time>
      </trkpt>
      <trkpt lat="48.56988" lon="6.41904">
        <ele>273</ele>
        <time>2017-06-26T10:07:19Z</time>
      </trkpt>
      <trkpt lat="48.5699" lon="6.41901">
        <ele>273</ele>
        <time>2017-06-26T10:07:20Z</time>
      </trkpt>
      <trkpt lat="48.56992" lon="6.41899">
        <ele>273</ele>
        <time>2017-06-26T10:07:21Z</time>
      </trkpt>
      <trkpt lat="48.56994" lon="6.41897">
        <ele>273</ele>
        <time>2017-06-26T10:07:22Z</time>
      </trkpt>
      <trkpt lat="48.56996" lon="6.41895">
        <ele>273</ele>
        <time>2017-06-26T10:07:23Z</time>
      </trkpt>
      <trkpt lat="48.56998" lon="6.41893">
        <ele>273</ele>
        <time>2017-06-26T10:07:24Z</time>
      </trkpt>
      <trkpt lat="48.57" lon="6.41891">
        <ele>272</ele>
        <time>2017-06-26T10:07:25Z</time>
      </trkpt>
      <trkpt lat="48.57002" lon="6.41888">
        <ele>272</ele>
        <time>2017-06-26T10:07:26Z</time>
      </trkpt>
      <trkpt lat="48.57004" lon="6.41886">
        <ele>272</ele>
        <time>2017-06-26T10:07:27Z</time>
      </trkpt>
      <trkpt lat="48.57006" lon="6.41884">
        <ele>272</ele>
        <time>2017-06-26T10:07:28Z</time>
      </trkpt>
      <trkpt lat="48.57008" lon="6.41881">
        <ele>272</ele>
        <time>2017-06-26T10:07:29Z</time>
      </trkpt>
      <trkpt lat="48.5701" lon="6.41879">
        <ele>272</ele>
        <time>2017-06-26T10:07:30Z</time>
      </trkpt>
      <trkpt lat="48.57012" lon="6.41877">
        <ele>272</ele>
        <time>2017-06-26T10:07:31Z</time>
      </trkpt>
      <trkpt lat="48.57014" lon="6.41875">
        <ele>272</ele>
        <time>2017-06-26T10:07:32Z</time>
      </trkpt>
      <trkpt lat="48.57016" lon="6.41873">
        <ele>272</ele>
        <time>2017-06-26T10:07:33Z</time>
      </trkpt>
      <trkpt lat="48.57017" lon="6.41871">
        <ele>272</ele>
        <time>2017-06-26T10:07:34Z</time>
      </trkpt>
      <trkpt lat="48.57018" lon="6.4187">
        <ele>272</ele>
        <time>2017-06-26T10:07:35Z</time>
      </trkpt>
      <trkpt lat="48.57023" lon="6.41865">
        <ele>272</ele>
        <time>2017-06-26T10:07:36Z</time>
      </trkpt>
      <trkpt lat="48.57024" lon="6.41864">
        <ele>272</ele>
        <time>2017-06-26T10:07:37Z</time>
      </trkpt>
      <trkpt lat="48.57025" lon="6.41863">
        <ele>272</ele>
        <time>2017-06-26T10:07:38Z</time>
      </trkpt>
      <trkpt lat="48.57026" lon="6.41861">
        <ele>272</ele>
        <time>2017-06-26T10:07:39Z</time>
      </trkpt>
      <trkpt lat="48.57027" lon="6.4186">
        <ele>272</ele>
        <time>2017-06-26T10:07:40Z</time>
      </trkpt>
      <trkpt lat="48.57031" lon="6.41855">
        <ele>272</ele>
        <time>2017-06-26T10:07:41Z</time>
      </trkpt>
      <trkpt lat="48.57033" lon="6.41853">
        <ele>272</ele>
        <time>2017-06-26T10:07:42Z</time>
      </trkpt>
      <trkpt lat="48.57035" lon="6.41851">
        <ele>272</ele>
        <time>2017-06-26T10:07:43Z</time>
      </trkpt>
      <trkpt lat="48.57038" lon="6.41849">
        <ele>272</ele>
        <time>2017-06-26T10:07:44Z</time>
      </trkpt>
      <trkpt lat="48.5704" lon="6.41847">
        <ele>272</ele>
        <time>2017-06-26T10:07:45Z</time>
      </trkpt>
      <trkpt lat="48.57041" lon="6.41846">
        <ele>272</ele>
        <time>2017-06-26T10:07:46Z</time>
      </trkpt>
      <trkpt lat="48.57043" lon="6.41845">
        <ele>272</ele>
        <time>2017-06-26T10:07:47Z</time>
      </trkpt>
      <trkpt lat="48.57044" lon="6.41843">
        <ele>272</ele>
        <time>2017-06-26T10:07:48Z</time>
      </trkpt>
      <trkpt lat="48.57049" lon="6.41839">
        <ele>272</ele>
        <time>2017-06-26T10:07:49Z</time>
      </trkpt>
      <trkpt lat="48.57051" lon="6.41837">
        <ele>272</ele>
        <time>2017-06-26T10:07:50Z</time>
      </trkpt>
      <trkpt lat="48.57053" lon="6.41835">
        <ele>272</ele>
        <time>2017-06-26T10:07:51Z</time>
      </trkpt>
      <trkpt lat="48.57055" lon="6.41833">
        <ele>272</ele>
        <time>2017-06-26T10:07:52Z</time>
      </trkpt>
      <trkpt lat="48.57057" lon="6.41831">
        <ele>272</ele>
        <time>2017-06-26T10:07:53Z</time>
      </trkpt>
      <trkpt lat="48.57059" lon="6.4183">
        <ele>272</ele>
        <time>2017-06-26T10:07:54Z</time>
      </trkpt>
      <trkpt lat="48.5706" lon="6.41828">
        <ele>271</ele>
        <time>2017-06-26T10:07:55Z</time>
      </trkpt>
      <trkpt lat="48.57061" lon="6.41827">
        <ele>271</ele>
        <time>2017-06-26T10:07:56Z</time>
      </trkpt>
      <trkpt lat="48.57062" lon="6.41826">
        <ele>271</ele>
        <time>2017-06-26T10:07:57Z</time>
      </trkpt>
      <trkpt lat="48.57067" lon="6.4182">
        <ele>271</ele>
        <time>2017-06-26T10:07:58Z</time>
      </trkpt>
      <trkpt lat="48.57068" lon="6.41819">
        <ele>271</ele>
        <time>2017-06-26T10:07:59Z</time>
      </trkpt>
      <trkpt lat="48.57069" lon="6.41818">
        <ele>271</ele>
        <time>2017-06-26T10:08:00Z</time>
      </trkpt>
      <trkpt lat="48.5707" lon="6.41817">
        <ele>271</ele>
        <time>2017-06-26T10:08:01Z</time>
      </trkpt>
      <trkpt lat="48.57071" lon="6.41815">
        <ele>271</ele>
        <time>2017-06-26T10:08:02Z</time>
      </trkpt>
      <trkpt lat="48.57076" lon="6.41811">
        <ele>271</ele>
        <time>2017-06-26T10:08:03Z</time>
      </trkpt>
      <trkpt lat="48.57078" lon="6.41809">
        <ele>271</ele>
        <time>2017-06-26T10:08:04Z</time>
      </trkpt>
      <trkpt lat="48.5708" lon="6.41807">
        <ele>270</ele>
        <time>2017-06-26T10:08:05Z</time>
      </trkpt>
      <trkpt lat="48.57083" lon="6.41805">
        <ele>270</ele>
        <time>2017-06-26T10:08:06Z</time>
      </trkpt>
      <trkpt lat="48.57085" lon="6.41803">
        <ele>270</ele>
        <time>2017-06-26T10:08:07Z</time>
      </trkpt>
      <trkpt lat="48.57087" lon="6.418">
        <ele>270</ele>
        <time>2017-06-26T10:08:08Z</time>
      </trkpt>
      <trkpt lat="48.5709" lon="6.41797">
        <ele>270</ele>
        <time>2017-06-26T10:08:09Z</time>
      </trkpt>
      <trkpt lat="48.57092" lon="6.41794">
        <ele>270</ele>
        <time>2017-06-26T10:08:10Z</time>
      </trkpt>
      <trkpt lat="48.57095" lon="6.41792">
        <ele>270</ele>
        <time>2017-06-26T10:08:11Z</time>
      </trkpt>
      <trkpt lat="48.57097" lon="6.41789">
        <ele>270</ele>
        <time>2017-06-26T10:08:12Z</time>
      </trkpt>
      <trkpt lat="48.571" lon="6.41787">
        <ele>270</ele>
        <time>2017-06-26T10:08:13Z</time>
      </trkpt>
      <trkpt lat="48.57102" lon="6.41785">
        <ele>270</ele>
        <time>2017-06-26T10:08:14Z</time>
      </trkpt>
      <trkpt lat="48.57104" lon="6.41783">
        <ele>271</ele>
        <time>2017-06-26T10:08:15Z</time>
      </trkpt>
      <trkpt lat="48.57109" lon="6.4178">
        <ele>271</ele>
        <time>2017-06-26T10:08:16Z</time>
      </trkpt>
      <trkpt lat="48.57112" lon="6.41777">
        <ele>271</ele>
        <time>2017-06-26T10:08:17Z</time>
      </trkpt>
      <trkpt lat="48.57114" lon="6.41775">
        <ele>271</ele>
        <time>2017-06-26T10:08:18Z</time>
      </trkpt>
      <trkpt lat="48.57119" lon="6.4177">
        <ele>271</ele>
        <time>2017-06-26T10:08:19Z</time>
      </trkpt>
      <trkpt lat="48.57122" lon="6.41767">
        <ele>271</ele>
        <time>2017-06-26T10:08:20Z</time>
      </trkpt>
      <trkpt lat="48.57125" lon="6.41765">
        <ele>271</ele>
        <time>2017-06-26T10:08:21Z</time>
      </trkpt>
      <trkpt lat="48.57127" lon="6.41762">
        <ele>271</ele>
        <time>2017-06-26T10:08:22Z</time>
      </trkpt>
      <trkpt lat="48.5713" lon="6.4176">
        <ele>271</ele>
        <time>2017-06-26T10:08:23Z</time>
      </trkpt>
      <trkpt lat="48.57133" lon="6.41758">
        <ele>271</ele>
        <time>2017-06-26T10:08:24Z</time>
      </trkpt>
      <trkpt lat="48.57135" lon="6.41756">
        <ele>271</ele>
        <time>2017-06-26T10:08:25Z</time>
      </trkpt>
      <trkpt lat="48.57137" lon="6.41754">
        <ele>271</ele>
        <time>2017-06-26T10:08:26Z</time>
      </trkpt>
      <trkpt lat="48.57139" lon="6.41752">
        <ele>271</ele>
        <time>2017-06-26T10:08:27Z</time>
      </trkpt>
      <trkpt lat="48.57141" lon="6.4175">
        <ele>271</ele>
        <time>2017-06-26T10:08:28Z</time>
      </trkpt>
      <trkpt lat="48.57142" lon="6.41748">
        <ele>271</ele>
        <time>2017-06-26T10:08:29Z</time>
      </trkpt>
      <trkpt lat="48.57144" lon="6.41747">
        <ele>271</ele>
        <time>2017-06-26T10:08:30Z</time>
      </trkpt>
      <trkpt lat="48.57146" lon="6.41745">
        <ele>271</ele>
        <time>2017-06-26T10:08:31Z</time>
      </trkpt>
      <trkpt lat="48.57148" lon="6.41743">
        <ele>271</ele>
        <time>2017-06-26T10:08:32Z</time>
      </trkpt>
      <trkpt lat="48.57149" lon="6.41741">
        <ele>271</ele>
        <time>2017-06-26T10:08:33Z</time>
      </trkpt>
      <trkpt lat="48.57151" lon="6.41739">
        <ele>271</ele>
        <time>2017-06-26T10:08:34Z</time>
      </trkpt>
      <trkpt lat="48.57153" lon="6.41737">
        <ele>270</ele>
        <time>2017-06-26T10:08:35Z</time>
      </trkpt>
      <trkpt lat="48.57155" lon="6.41735">
        <ele>270</ele>
        <time>2017-06-26T10:08:36Z</time>
      </trkpt>
      <trkpt lat="48.57156" lon="6.41733">
        <ele>270</ele>
        <time>2017-06-26T10:08:37Z</time>
      </trkpt>
      <trkpt lat="48.57159" lon="6.41732">
        <ele>270</ele>
        <time>2017-06-26T10:08:38Z</time>
      </trkpt>
      <trkpt lat="48.57161" lon="6.4173">
        <ele>270</ele>
        <time>2017-06-26T10:08:39Z</time>
      </trkpt>
      <trkpt lat="48.57163" lon="6.41728">
        <ele>270</ele>
        <time>2017-06-26T10:08:40Z</time>
      </trkpt>
      <trkpt lat="48.57165" lon="6.41727">
        <ele>270</ele>
        <time>2017-06-26T10:08:41Z</time>
      </trkpt>
      <trkpt lat="48.57167" lon="6.41725">
        <ele>270</ele>
        <time>2017-06-26T10:08:42Z</time>
      </trkpt>
      <trkpt lat="48.57168" lon="6.41724">
        <ele>270</ele>
        <time>2017-06-26T10:08:43Z</time>
      </trkpt>
      <trkpt lat="48.5717" lon="6.41722">
        <ele>270</ele>
        <time>2017-06-26T10:08:44Z</time>
      </trkpt>
      <trkpt lat="48.57172" lon="6.4172">
        <ele>271</ele>
        <time>2017-06-26T10:08:45Z</time>
      </trkpt>
      <trkpt lat="48.57171" lon="6.41718">
        <ele>271</ele>
        <time>2017-06-26T10:08:46Z</time>
      </trkpt>
      <trkpt lat="48.57171" lon="6.41716">
        <ele>271</ele>
        <time>2017-06-26T10:08:47Z</time>
      </trkpt>
      <trkpt lat="48.5717" lon="6.41714">
        <ele>271</ele>
        <time>2017-06-26T10:08:48Z</time>
      </trkpt>
      <trkpt lat="48.5717" lon="6.41712">
        <ele>271</ele>
        <time>2017-06-26T10:08:49Z</time>
      </trkpt>
      <trkpt lat="48.57169" lon="6.41709">
        <ele>271</ele>
        <time>2017-06-26T10:08:50Z</time>
      </trkpt>
      <trkpt lat="48.57169" lon="6.41707">
        <ele>271</ele>
        <time>2017-06-26T10:08:51Z</time>
      </trkpt>
      <trkpt lat="48.57168" lon="6.41704">
        <ele>271</ele>
        <time>2017-06-26T10:08:52Z</time>
      </trkpt>
      <trkpt lat="48.57167" lon="6.41702">
        <ele>271</ele>
        <time>2017-06-26T10:08:53Z</time>
      </trkpt>
      <trkpt lat="48.57166" lon="6.41699">
        <ele>271</ele>
        <time>2017-06-26T10:08:54Z</time>
      </trkpt>
      <trkpt lat="48.57165" lon="6.41696">
        <ele>271</ele>
        <time>2017-06-26T10:08:55Z</time>
      </trkpt>
      <trkpt lat="48.57164" lon="6.41693">
        <ele>271</ele>
        <time>2017-06-26T10:08:56Z</time>
      </trkpt>
      <trkpt lat="48.57164" lon="6.41691">
        <ele>271</ele>
        <time>2017-06-26T10:08:57Z</time>
      </trkpt>
      <trkpt lat="48.57163" lon="6.4169">
        <ele>271</ele>
        <time>2017-06-26T10:08:58Z</time>
      </trkpt>
      <trkpt lat="48.57162" lon="6.41688">
        <ele>271</ele>
        <time>2017-06-26T10:08:59Z</time>
      </trkpt>
      <trkpt lat="48.57161" lon="6.41686">
        <ele>271</ele>
        <time>2017-06-26T10:09:00Z</time>
      </trkpt>
      <trkpt lat="48.57158" lon="6.41679">
        <ele>271</ele>
        <time>2017-06-26T10:09:01Z</time>
      </trkpt>
      <trkpt lat="48.57156" lon="6.41677">
        <ele>271</ele>
        <time>2017-06-26T10:09:02Z</time>
      </trkpt>
      <trkpt lat="48.57155" lon="6.41675">
        <ele>271</ele>
        <time>2017-06-26T10:09:03Z</time>
      </trkpt>
      <trkpt lat="48.57154" lon="6.41673">
        <ele>271</ele>
        <time>2017-06-26T10:09:04Z</time>
      </trkpt>
      <trkpt lat="48.5715" lon="6.41667">
        <ele>270</ele>
        <time>2017-06-26T10:09:05Z</time>
      </trkpt>
      <trkpt lat="48.57149" lon="6.41664">
        <ele>270</ele>
        <time>2017-06-26T10:09:06Z</time>
      </trkpt>
      <trkpt lat="48.57147" lon="6.41661">
        <ele>270</ele>
        <time>2017-06-26T10:09:07Z</time>
      </trkpt>
      <trkpt lat="48.57146" lon="6.41658">
        <ele>270</ele>
        <time>2017-06-26T10:09:08Z</time>
      </trkpt>
      <trkpt lat="48.57145" lon="6.41655">
        <ele>270</ele>
        <time>2017-06-26T10:09:09Z</time>
      </trkpt>
      <trkpt lat="48.57144" lon="6.41653">
        <ele>270</ele>
        <time>2017-06-26T10:09:10Z</time>
      </trkpt>
      <trkpt lat="48.57143" lon="6.4165">
        <ele>270</ele>
        <time>2017-06-26T10:09:11Z</time>
      </trkpt>
      <trkpt lat="48.57142" lon="6.41648">
        <ele>270</ele>
        <time>2017-06-26T10:09:12Z</time>
      </trkpt>
      <trkpt lat="48.57139" lon="6.41641">
        <ele>270</ele>
        <time>2017-06-26T10:09:13Z</time>
      </trkpt>
      <trkpt lat="48.57137" lon="6.41638">
        <ele>270</ele>
        <time>2017-06-26T10:09:14Z</time>
      </trkpt>
      <trkpt lat="48.57136" lon="6.41635">
        <ele>270</ele>
        <time>2017-06-26T10:09:15Z</time>
      </trkpt>
      <trkpt lat="48.57134" lon="6.41632">
        <ele>270</ele>
        <time>2017-06-26T10:09:16Z</time>
      </trkpt>
      <trkpt lat="48.57133" lon="6.41629">
        <ele>270</ele>
        <time>2017-06-26T10:09:17Z</time>
      </trkpt>
      <trkpt lat="48.57131" lon="6.41626">
        <ele>270</ele>
        <time>2017-06-26T10:09:18Z</time>
      </trkpt>
      <trkpt lat="48.5713" lon="6.41623">
        <ele>270</ele>
        <time>2017-06-26T10:09:19Z</time>
      </trkpt>
      <trkpt lat="48.57128" lon="6.4162">
        <ele>270</ele>
        <time>2017-06-26T10:09:20Z</time>
      </trkpt>
      <trkpt lat="48.57127" lon="6.41617">
        <ele>270</ele>
        <time>2017-06-26T10:09:21Z</time>
      </trkpt>
      <trkpt lat="48.57126" lon="6.41615">
        <ele>270</ele>
        <time>2017-06-26T10:09:22Z</time>
      </trkpt>
      <trkpt lat="48.57125" lon="6.41612">
        <ele>270</ele>
        <time>2017-06-26T10:09:23Z</time>
      </trkpt>
      <trkpt lat="48.57124" lon="6.41609">
        <ele>270</ele>
        <time>2017-06-26T10:09:24Z</time>
      </trkpt>
      <trkpt lat="48.57123" lon="6.41606">
        <ele>270</ele>
        <time>2017-06-26T10:09:25Z</time>
      </trkpt>
      <trkpt lat="48.57122" lon="6.41604">
        <ele>270</ele>
        <time>2017-06-26T10:09:26Z</time>
      </trkpt>
      <trkpt lat="48.57121" lon="6.41602">
        <ele>270</ele>
        <time>2017-06-26T10:09:27Z</time>
      </trkpt>
      <trkpt lat="48.57121" lon="6.416">
        <ele>270</ele>
        <time>2017-06-26T10:09:28Z</time>
      </trkpt>
      <trkpt lat="48.5712" lon="6.41598">
        <ele>270</ele>
        <time>2017-06-26T10:09:29Z</time>
      </trkpt>
      <trkpt lat="48.57117" lon="6.4159">
        <ele>270</ele>
        <time>2017-06-26T10:09:30Z</time>
      </trkpt>
      <trkpt lat="48.57116" lon="6.41588">
        <ele>270</ele>
        <time>2017-06-26T10:09:31Z</time>
      </trkpt>
      <trkpt lat="48.57115" lon="6.41586">
        <ele>270</ele>
        <time>2017-06-26T10:09:32Z</time>
      </trkpt>
      <trkpt lat="48.57114" lon="6.41584">
        <ele>270</ele>
        <time>2017-06-26T10:09:33Z</time>
      </trkpt>
      <trkpt lat="48.57111" lon="6.41578">
        <ele>270</ele>
        <time>2017-06-26T10:09:34Z</time>
      </trkpt>
      <trkpt lat="48.5711" lon="6.41574">
        <ele>269</ele>
        <time>2017-06-26T10:09:35Z</time>
      </trkpt>
      <trkpt lat="48.57108" lon="6.41571">
        <ele>269</ele>
        <time>2017-06-26T10:09:36Z</time>
      </trkpt>
      <trkpt lat="48.57107" lon="6.41568">
        <ele>269</ele>
        <time>2017-06-26T10:09:37Z</time>
      </trkpt>
      <trkpt lat="48.57106" lon="6.41565">
        <ele>269</ele>
        <time>2017-06-26T10:09:38Z</time>
      </trkpt>
      <trkpt lat="48.57105" lon="6.41563">
        <ele>269</ele>
        <time>2017-06-26T10:09:39Z</time>
      </trkpt>
      <trkpt lat="48.57104" lon="6.41561">
        <ele>269</ele>
        <time>2017-06-26T10:09:40Z</time>
      </trkpt>
      <trkpt lat="48.57103" lon="6.41559">
        <ele>269</ele>
        <time>2017-06-26T10:09:41Z</time>
      </trkpt>
      <trkpt lat="48.571" lon="6.41553">
        <ele>269</ele>
        <time>2017-06-26T10:09:42Z</time>
      </trkpt>
      <trkpt lat="48.57099" lon="6.41551">
        <ele>269</ele>
        <time>2017-06-26T10:09:43Z</time>
      </trkpt>
      <trkpt lat="48.57098" lon="6.4155">
        <ele>269</ele>
        <time>2017-06-26T10:09:44Z</time>
      </trkpt>
      <trkpt lat="48.57097" lon="6.41548">
        <ele>269</ele>
        <time>2017-06-26T10:09:45Z</time>
      </trkpt>
      <trkpt lat="48.57096" lon="6.41546">
        <ele>269</ele>
        <time>2017-06-26T10:09:46Z</time>
      </trkpt>
      <trkpt lat="48.57093" lon="6.4154">
        <ele>269</ele>
        <time>2017-06-26T10:09:47Z</time>
      </trkpt>
      <trkpt lat="48.57092" lon="6.41537">
        <ele>269</ele>
        <time>2017-06-26T10:09:48Z</time>
      </trkpt>
      <trkpt lat="48.5709" lon="6.41533">
        <ele>269</ele>
        <time>2017-06-26T10:09:49Z</time>
      </trkpt>
      <trkpt lat="48.57089" lon="6.4153">
        <ele>269</ele>
        <time>2017-06-26T10:09:50Z</time>
      </trkpt>
      <trkpt lat="48.57087" lon="6.41527">
        <ele>269</ele>
        <time>2017-06-26T10:09:51Z</time>
      </trkpt>
      <trkpt lat="48.57086" lon="6.41524">
        <ele>269</ele>
        <time>2017-06-26T10:09:52Z</time>
      </trkpt>
      <trkpt lat="48.57085" lon="6.41521">
        <ele>269</ele>
        <time>2017-06-26T10:09:53Z</time>
      </trkpt>
      <trkpt lat="48.57083" lon="6.41518">
        <ele>269</ele>
        <time>2017-06-26T10:09:54Z</time>
      </trkpt>
      <trkpt lat="48.57082" lon="6.41515">
        <ele>268</ele>
        <time>2017-06-26T10:09:55Z</time>
      </trkpt>
      <trkpt lat="48.57081" lon="6.41511">
        <ele>268</ele>
        <time>2017-06-26T10:09:56Z</time>
      </trkpt>
      <trkpt lat="48.5708" lon="6.41508">
        <ele>268</ele>
        <time>2017-06-26T10:09:57Z</time>
      </trkpt>
      <trkpt lat="48.57078" lon="6.41505">
        <ele>268</ele>
        <time>2017-06-26T10:09:58Z</time>
      </trkpt>
      <trkpt lat="48.57077" lon="6.41501">
        <ele>268</ele>
        <time>2017-06-26T10:09:59Z</time>
      </trkpt>
      <trkpt lat="48.57076" lon="6.41499">
        <ele>268</ele>
        <time>2017-06-26T10:10:00Z</time>
      </trkpt>
      <trkpt lat="48.57075" lon="6.41496">
        <ele>268</ele>
        <time>2017-06-26T10:10:01Z</time>
      </trkpt>
      <trkpt lat="48.57074" lon="6.41494">
        <ele>268</ele>
        <time>2017-06-26T10:10:02Z</time>
      </trkpt>
      <trkpt lat="48.5707" lon="6.41487">
        <ele>268</ele>
        <time>2017-06-26T10:10:03Z</time>
      </trkpt>
      <trkpt lat="48.57069" lon="6.41485">
        <ele>268</ele>
        <time>2017-06-26T10:10:04Z</time>
      </trkpt>
      <trkpt lat="48.57068" lon="6.41482">
        <ele>267</ele>
        <time>2017-06-26T10:10:05Z</time>
      </trkpt>
      <trkpt lat="48.57067" lon="6.41479">
        <ele>267</ele>
        <time>2017-06-26T10:10:06Z</time>
      </trkpt>
      <trkpt lat="48.57064" lon="6.41472">
        <ele>267</ele>
        <time>2017-06-26T10:10:07Z</time>
      </trkpt>
      <trkpt lat="48.57063" lon="6.41469">
        <ele>267</ele>
        <time>2017-06-26T10:10:08Z</time>
      </trkpt>
      <trkpt lat="48.57062" lon="6.41467">
        <ele>267</ele>
        <time>2017-06-26T10:10:09Z</time>
      </trkpt>
      <trkpt lat="48.57061" lon="6.41465">
        <ele>267</ele>
        <time>2017-06-26T10:10:10Z</time>
      </trkpt>
      <trkpt lat="48.57058" lon="6.41458">
        <ele>267</ele>
        <time>2017-06-26T10:10:11Z</time>
      </trkpt>
      <trkpt lat="48.57056" lon="6.41454">
        <ele>267</ele>
        <time>2017-06-26T10:10:12Z</time>
      </trkpt>
      <trkpt lat="48.57054" lon="6.41449">
        <ele>267</ele>
        <time>2017-06-26T10:10:13Z</time>
      </trkpt>
      <trkpt lat="48.57053" lon="6.41444">
        <ele>267</ele>
        <time>2017-06-26T10:10:14Z</time>
      </trkpt>
      <trkpt lat="48.57052" lon="6.41442">
        <ele>267</ele>
        <time>2017-06-26T10:10:15Z</time>
      </trkpt>
      <trkpt lat="48.57051" lon="6.4144">
        <ele>267</ele>
        <time>2017-06-26T10:10:16Z</time>
      </trkpt>
      <trkpt lat="48.5705" lon="6.41438">
        <ele>267</ele>
        <time>2017-06-26T10:10:17Z</time>
      </trkpt>
      <trkpt lat="48.5705" lon="6.41437">
        <ele>267</ele>
        <time>2017-06-26T10:10:18Z</time>
      </trkpt>
      <trkpt lat="48.57047" lon="6.41429">
        <ele>267</ele>
        <time>2017-06-26T10:10:19Z</time>
      </trkpt>
      <trkpt lat="48.57046" lon="6.41427">
        <ele>267</ele>
        <time>2017-06-26T10:10:20Z</time>
      </trkpt>
      <trkpt lat="48.57045" lon="6.41425">
        <ele>267</ele>
        <time>2017-06-26T10:10:21Z</time>
      </trkpt>
      <trkpt lat="48.57045" lon="6.41424">
        <ele>267</ele>
        <time>2017-06-26T10:10:22Z</time>
      </trkpt>
      <trkpt lat="48.57044" lon="6.41422">
        <ele>267</ele>
        <time>2017-06-26T10:10:23Z</time>
      </trkpt>
      <trkpt lat="48.57042" lon="6.41414">
        <ele>267</ele>
        <time>2017-06-26T10:10:24Z</time>
      </trkpt>
      <trkpt lat="48.57041" lon="6.41412">
        <ele>266</ele>
        <time>2017-06-26T10:10:25Z</time>
      </trkpt>
      <trkpt lat="48.5704" lon="6.4141">
        <ele>266</ele>
        <time>2017-06-26T10:10:26Z</time>
      </trkpt>
      <trkpt lat="48.57039" lon="6.41408">
        <ele>266</ele>
        <time>2017-06-26T10:10:27Z</time>
      </trkpt>
      <trkpt lat="48.57039" lon="6.41406">
        <ele>266</ele>
        <time>2017-06-26T10:10:28Z</time>
      </trkpt>
      <trkpt lat="48.57036" lon="6.41398">
        <ele>266</ele>
        <time>2017-06-26T10:10:29Z</time>
      </trkpt>
      <trkpt lat="48.57035" lon="6.41396">
        <ele>266</ele>
        <time>2017-06-26T10:10:30Z</time>
      </trkpt>
      <trkpt lat="48.57034" lon="6.41394">
        <ele>266</ele>
        <time>2017-06-26T10:10:31Z</time>
      </trkpt>
      <trkpt lat="48.57033" lon="6.41392">
        <ele>266</ele>
        <time>2017-06-26T10:10:32Z</time>
      </trkpt>
      <trkpt lat="48.57029" lon="6.41386">
        <ele>266</ele>
        <time>2017-06-26T10:10:33Z</time>
      </trkpt>
      <trkpt lat="48.57028" lon="6.41384">
        <ele>266</ele>
        <time>2017-06-26T10:10:34Z</time>
      </trkpt>
      <trkpt lat="48.57027" lon="6.41383">
        <ele>265</ele>
        <time>2017-06-26T10:10:35Z</time>
      </trkpt>
      <trkpt lat="48.57027" lon="6.41381">
        <ele>265</ele>
        <time>2017-06-26T10:10:36Z</time>
      </trkpt>
      <trkpt lat="48.57026" lon="6.41379">
        <ele>265</ele>
        <time>2017-06-26T10:10:37Z</time>
      </trkpt>
      <trkpt lat="48.57022" lon="6.41372">
        <ele>265</ele>
        <time>2017-06-26T10:10:38Z</time>
      </trkpt>
      <trkpt lat="48.57021" lon="6.4137">
        <ele>265</ele>
        <time>2017-06-26T10:10:39Z</time>
      </trkpt>
      <trkpt lat="48.57019" lon="6.41368">
        <ele>265</ele>
        <time>2017-06-26T10:10:40Z</time>
      </trkpt>
      <trkpt lat="48.57018" lon="6.41365">
        <ele>265</ele>
        <time>2017-06-26T10:10:41Z</time>
      </trkpt>
      <trkpt lat="48.57016" lon="6.41363">
        <ele>265</ele>
        <time>2017-06-26T10:10:42Z</time>
      </trkpt>
      <trkpt lat="48.57015" lon="6.41361">
        <ele>265</ele>
        <time>2017-06-26T10:10:43Z</time>
      </trkpt>
      <trkpt lat="48.57014" lon="6.41359">
        <ele>265</ele>
        <time>2017-06-26T10:10:44Z</time>
      </trkpt>
      <trkpt lat="48.57014" lon="6.41357">
        <ele>266</ele>
        <time>2017-06-26T10:10:45Z</time>
      </trkpt>
      <trkpt lat="48.57014" lon="6.41355">
        <ele>266</ele>
        <time>2017-06-26T10:10:46Z</time>
      </trkpt>
      <trkpt lat="48.57013" lon="6.41353">
        <ele>266</ele>
        <time>2017-06-26T10:10:47Z</time>
      </trkpt>
      <trkpt lat="48.57012" lon="6.41346">
        <ele>266</ele>
        <time>2017-06-26T10:10:48Z</time>
      </trkpt>
      <trkpt lat="48.57012" lon="6.41344">
        <ele>266</ele>
        <time>2017-06-26T10:10:49Z</time>
      </trkpt>
      <trkpt lat="48.57011" lon="6.41341">
        <ele>266</ele>
        <time>2017-06-26T10:10:50Z</time>
      </trkpt>
      <trkpt lat="48.57011" lon="6.41339">
        <ele>266</ele>
        <time>2017-06-26T10:10:51Z</time>
      </trkpt>
      <trkpt lat="48.5701" lon="6.41337">
        <ele>266</ele>
        <time>2017-06-26T10:10:52Z</time>
      </trkpt>
      <trkpt lat="48.5701" lon="6.41334">
        <ele>266</ele>
        <time>2017-06-26T10:10:53Z</time>
      </trkpt>
      <trkpt lat="48.5701" lon="6.41332">
        <ele>266</ele>
        <time>2017-06-26T10:10:54Z</time>
      </trkpt>
      <trkpt lat="48.5701" lon="6.41328">
        <ele>266</ele>
        <time>2017-06-26T10:10:55Z</time>
      </trkpt>
      <trkpt lat="48.57011" lon="6.41325">
        <ele>266</ele>
        <time>2017-06-26T10:10:56Z</time>
      </trkpt>
      <trkpt lat="48.57011" lon="6.41321">
        <ele>266</ele>
        <time>2017-06-26T10:10:57Z</time>
      </trkpt>
      <trkpt lat="48.57012" lon="6.41318">
        <ele>266</ele>
        <time>2017-06-26T10:10:58Z</time>
      </trkpt>
      <trkpt lat="48.57013" lon="6.41315">
        <ele>266</ele>
        <time>2017-06-26T10:10:59Z</time>
      </trkpt>
      <trkpt lat="48.57015" lon="6.41313">
        <ele>266</ele>
        <time>2017-06-26T10:11:00Z</time>
      </trkpt>
      <trkpt lat="48.57016" lon="6.4131">
        <ele>266</ele>
        <time>2017-06-26T10:11:01Z</time>
      </trkpt>
      <trkpt lat="48.57017" lon="6.41307">
        <ele>266</ele>
        <time>2017-06-26T10:11:02Z</time>
      </trkpt>
      <trkpt lat="48.57019" lon="6.41304">
        <ele>266</ele>
        <time>2017-06-26T10:11:03Z</time>
      </trkpt>
      <trkpt lat="48.5702" lon="6.41301">
        <ele>266</ele>
        <time>2017-06-26T10:11:04Z</time>
      </trkpt>
      <trkpt lat="48.57021" lon="6.41298">
        <ele>265</ele>
        <time>2017-06-26T10:11:05Z</time>
      </trkpt>
      <trkpt lat="48.57023" lon="6.41295">
        <ele>265</ele>
        <time>2017-06-26T10:11:06Z</time>
      </trkpt>
      <trkpt lat="48.57024" lon="6.41292">
        <ele>265</ele>
        <time>2017-06-26T10:11:07Z</time>
      </trkpt>
      <trkpt lat="48.57026" lon="6.41289">
        <ele>265</ele>
        <time>2017-06-26T10:11:08Z</time>
      </trkpt>
      <trkpt lat="48.57028" lon="6.41286">
        <ele>265</ele>
        <time>2017-06-26T10:11:09Z</time>
      </trkpt>
      <trkpt lat="48.57029" lon="6.41284">
        <ele>265</ele>
        <time>2017-06-26T10:11:10Z</time>
      </trkpt>
      <trkpt lat="48.57031" lon="6.41281">
        <ele>265</ele>
        <time>2017-06-26T10:11:11Z</time>
      </trkpt>
      <trkpt lat="48.57032" lon="6.41278">
        <ele>265</ele>
        <time>2017-06-26T10:11:12Z</time>
      </trkpt>
      <trkpt lat="48.57034" lon="6.41275">
        <ele>265</ele>
        <time>2017-06-26T10:11:13Z</time>
      </trkpt>
      <trkpt lat="48.57035" lon="6.41272">
        <ele>265</ele>
        <time>2017-06-26T10:11:14Z</time>
      </trkpt>
      <trkpt lat="48.57037" lon="6.4127">
        <ele>265</ele>
        <time>2017-06-26T10:11:15Z</time>
      </trkpt>
      <trkpt lat="48.57039" lon="6.41267">
        <ele>265</ele>
        <time>2017-06-26T10:11:16Z</time>
      </trkpt>
      <trkpt lat="48.57041" lon="6.41265">
        <ele>265</ele>
        <time>2017-06-26T10:11:17Z</time>
      </trkpt>
      <trkpt lat="48.57042" lon="6.41262">
        <ele>265</ele>
        <time>2017-06-26T10:11:18Z</time>
      </trkpt>
      <trkpt lat="48.57044" lon="6.41259">
        <ele>265</ele>
        <time>2017-06-26T10:11:19Z</time>
      </trkpt>
      <trkpt lat="48.57046" lon="6.41256">
        <ele>265</ele>
        <time>2017-06-26T10:11:20Z</time>
      </trkpt>
      <trkpt lat="48.57048" lon="6.41253">
        <ele>265</ele>
        <time>2017-06-26T10:11:21Z</time>
      </trkpt>
      <trkpt lat="48.57049" lon="6.41251">
        <ele>265</ele>
        <time>2017-06-26T10:11:22Z</time>
      </trkpt>
      <trkpt lat="48.57051" lon="6.41249">
        <ele>265</ele>
        <time>2017-06-26T10:11:23Z</time>
      </trkpt>
      <trkpt lat="48.57052" lon="6.41247">
        <ele>265</ele>
        <time>2017-06-26T10:11:24Z</time>
      </trkpt>
      <trkpt lat="48.57055" lon="6.4124">
        <ele>265</ele>
        <time>2017-06-26T10:11:25Z</time>
      </trkpt>
      <trkpt lat="48.57056" lon="6.41238">
        <ele>265</ele>
        <time>2017-06-26T10:11:26Z</time>
      </trkpt>
      <trkpt lat="48.57058" lon="6.41236">
        <ele>265</ele>
        <time>2017-06-26T10:11:27Z</time>
      </trkpt>
      <trkpt lat="48.57059" lon="6.41233">
        <ele>265</ele>
        <time>2017-06-26T10:11:28Z</time>
      </trkpt>
      <trkpt lat="48.57061" lon="6.41231">
        <ele>265</ele>
        <time>2017-06-26T10:11:29Z</time>
      </trkpt>
      <trkpt lat="48.57062" lon="6.41228">
        <ele>265</ele>
        <time>2017-06-26T10:11:30Z</time>
      </trkpt>
      <trkpt lat="48.57064" lon="6.41225">
        <ele>265</ele>
        <time>2017-06-26T10:11:31Z</time>
      </trkpt>
      <trkpt lat="48.57065" lon="6.41222">
        <ele>265</ele>
        <time>2017-06-26T10:11:32Z</time>
      </trkpt>
      <trkpt lat="48.57067" lon="6.41219">
        <ele>265</ele>
        <time>2017-06-26T10:11:33Z</time>
      </trkpt>
      <trkpt lat="48.57068" lon="6.41216">
        <ele>265</ele>
        <time>2017-06-26T10:11:34Z</time>
      </trkpt>
      <trkpt lat="48.5707" lon="6.41214">
        <ele>265</ele>
        <time>2017-06-26T10:11:35Z</time>
      </trkpt>
      <trkpt lat="48.57072" lon="6.41211">
        <ele>265</ele>
        <time>2017-06-26T10:11:36Z</time>
      </trkpt>
      <trkpt lat="48.57074" lon="6.41208">
        <ele>265</ele>
        <time>2017-06-26T10:11:37Z</time>
      </trkpt>
      <trkpt lat="48.57075" lon="6.41206">
        <ele>265</ele>
        <time>2017-06-26T10:11:38Z</time>
      </trkpt>
      <trkpt lat="48.57077" lon="6.41204">
        <ele>265</ele>
        <time>2017-06-26T10:11:39Z</time>
      </trkpt>
      <trkpt lat="48.57079" lon="6.41202">
        <ele>265</ele>
        <time>2017-06-26T10:11:40Z</time>
      </trkpt>
      <trkpt lat="48.57081" lon="6.412">
        <ele>265</ele>
        <time>2017-06-26T10:11:41Z</time>
      </trkpt>
      <trkpt lat="48.57082" lon="6.41197">
        <ele>265</ele>
        <time>2017-06-26T10:11:42Z</time>
      </trkpt>
      <trkpt lat="48.57083" lon="6.41195">
        <ele>265</ele>
        <time>2017-06-26T10:11:43Z</time>
      </trkpt>
      <trkpt lat="48.57084" lon="6.41193">
        <ele>265</ele>
        <time>2017-06-26T10:11:44Z</time>
      </trkpt>
      <trkpt lat="48.57087" lon="6.41187">
        <ele>264</ele>
        <time>2017-06-26T10:11:45Z</time>
      </trkpt>
      <trkpt lat="48.57088" lon="6.41185">
        <ele>264</ele>
        <time>2017-06-26T10:11:46Z</time>
      </trkpt>
      <trkpt lat="48.57088" lon="6.41183">
        <ele>264</ele>
        <time>2017-06-26T10:11:47Z</time>
      </trkpt>
      <trkpt lat="48.57088" lon="6.41181">
        <ele>264</ele>
        <time>2017-06-26T10:11:48Z</time>
      </trkpt>
      <trkpt lat="48.57089" lon="6.4118">
        <ele>264</ele>
        <time>2017-06-26T10:11:49Z</time>
      </trkpt>
      <trkpt lat="48.57089" lon="6.41178">
        <ele>264</ele>
        <time>2017-06-26T10:11:50Z</time>
      </trkpt>
      <trkpt lat="48.5709" lon="6.41169">
        <ele>264</ele>
        <time>2017-06-26T10:11:51Z</time>
      </trkpt>
      <trkpt lat="48.5709" lon="6.41167">
        <ele>264</ele>
        <time>2017-06-26T10:11:52Z</time>
      </trkpt>
      <trkpt lat="48.5709" lon="6.41165">
        <ele>264</ele>
        <time>2017-06-26T10:11:53Z</time>
      </trkpt>
      <trkpt lat="48.5709" lon="6.41163">
        <ele>264</ele>
        <time>2017-06-26T10:11:54Z</time>
      </trkpt>
      <trkpt lat="48.5709" lon="6.41161">
        <ele>264</ele>
        <time>2017-06-26T10:11:55Z</time>
      </trkpt>
      <trkpt lat="48.5709" lon="6.41153">
        <ele>264</ele>
        <time>2017-06-26T10:11:56Z</time>
      </trkpt>
      <trkpt lat="48.5709" lon="6.41151">
        <ele>264</ele>
        <time>2017-06-26T10:11:57Z</time>
      </trkpt>
      <trkpt lat="48.57089" lon="6.4115">
        <ele>264</ele>
        <time>2017-06-26T10:11:58Z</time>
      </trkpt>
      <trkpt lat="48.57088" lon="6.41149">
        <ele>264</ele>
        <time>2017-06-26T10:11:59Z</time>
      </trkpt>
      <trkpt lat="48.57088" lon="6.41147">
        <ele>264</ele>
        <time>2017-06-26T10:12:00Z</time>
      </trkpt>
      <trkpt lat="48.57087" lon="6.41146">
        <ele>264</ele>
        <time>2017-06-26T10:12:01Z</time>
      </trkpt>
      <trkpt lat="48.57084" lon="6.41138">
        <ele>264</ele>
        <time>2017-06-26T10:12:02Z</time>
      </trkpt>
      <trkpt lat="48.57083" lon="6.41137">
        <ele>264</ele>
        <time>2017-06-26T10:12:03Z</time>
      </trkpt>
      <trkpt lat="48.57082" lon="6.41136">
        <ele>263</ele>
        <time>2017-06-26T10:12:05Z</time>
      </trkpt>
      <trkpt lat="48.57081" lon="6.41135">
        <ele>263</ele>
        <time>2017-06-26T10:12:06Z</time>
      </trkpt>
      <trkpt lat="48.5708" lon="6.41134">
        <ele>263</ele>
        <time>2017-06-26T10:12:07Z</time>
      </trkpt>
      <trkpt lat="48.57076" lon="6.4113">
        <ele>263</ele>
        <time>2017-06-26T10:12:08Z</time>
      </trkpt>
      <trkpt lat="48.57075" lon="6.41129">
        <ele>263</ele>
        <time>2017-06-26T10:12:09Z</time>
      </trkpt>
      <trkpt lat="48.57074" lon="6.41128">
        <ele>263</ele>
        <time>2017-06-26T10:12:10Z</time>
      </trkpt>
      <trkpt lat="48.57074" lon="6.41127">
        <ele>263</ele>
        <time>2017-06-26T10:12:11Z</time>
      </trkpt>
      <trkpt lat="48.57073" lon="6.41126">
        <ele>263</ele>
        <time>2017-06-26T10:12:12Z</time>
      </trkpt>
      <trkpt lat="48.57072" lon="6.41125">
        <ele>263</ele>
        <time>2017-06-26T10:12:13Z</time>
      </trkpt>
      <trkpt lat="48.57071" lon="6.41124">
        <ele>263</ele>
        <time>2017-06-26T10:12:14Z</time>
      </trkpt>
      <trkpt lat="48.57067" lon="6.41119">
        <ele>264</ele>
        <time>2017-06-26T10:12:15Z</time>
      </trkpt>
      <trkpt lat="48.57066" lon="6.41118">
        <ele>264</ele>
        <time>2017-06-26T10:12:16Z</time>
      </trkpt>
      <trkpt lat="48.57065" lon="6.41117">
        <ele>264</ele>
        <time>2017-06-26T10:12:17Z</time>
      </trkpt>
      <trkpt lat="48.57064" lon="6.41116">
        <ele>264</ele>
        <time>2017-06-26T10:12:18Z</time>
      </trkpt>
      <trkpt lat="48.57063" lon="6.41115">
        <ele>264</ele>
        <time>2017-06-26T10:12:19Z</time>
      </trkpt>
      <trkpt lat="48.57062" lon="6.41115">
        <ele>264</ele>
        <time>2017-06-26T10:12:20Z</time>
      </trkpt>
      <trkpt lat="48.57057" lon="6.41111">
        <ele>264</ele>
        <time>2017-06-26T10:12:21Z</time>
      </trkpt>
      <trkpt lat="48.57056" lon="6.4111">
        <ele>264</ele>
        <time>2017-06-26T10:12:22Z</time>
      </trkpt>
      <trkpt lat="48.57055" lon="6.41109">
        <ele>264</ele>
        <time>2017-06-26T10:12:23Z</time>
      </trkpt>
      <trkpt lat="48.57054" lon="6.41108">
        <ele>264</ele>
        <time>2017-06-26T10:12:24Z</time>
      </trkpt>
      <trkpt lat="48.57053" lon="6.41107">
        <ele>264</ele>
        <time>2017-06-26T10:12:25Z</time>
      </trkpt>
      <trkpt lat="48.57052" lon="6.41106">
        <ele>264</ele>
        <time>2017-06-26T10:12:26Z</time>
      </trkpt>
      <trkpt lat="48.57048" lon="6.41101">
        <ele>264</ele>
        <time>2017-06-26T10:12:27Z</time>
      </trkpt>
      <trkpt lat="48.57046" lon="6.41099">
        <ele>264</ele>
        <time>2017-06-26T10:12:28Z</time>
      </trkpt>
      <trkpt lat="48.57045" lon="6.41097">
        <ele>264</ele>
        <time>2017-06-26T10:12:29Z</time>
      </trkpt>
      <trkpt lat="48.57044" lon="6.41095">
        <ele>264</ele>
        <time>2017-06-26T10:12:30Z</time>
      </trkpt>
      <trkpt lat="48.57042" lon="6.41094">
        <ele>264</ele>
        <time>2017-06-26T10:12:31Z</time>
      </trkpt>
      <trkpt lat="48.57041" lon="6.41092">
        <ele>264</ele>
        <time>2017-06-26T10:12:32Z</time>
      </trkpt>
      <trkpt lat="48.5704" lon="6.4109">
        <ele>264</ele>
        <time>2017-06-26T10:12:33Z</time>
      </trkpt>
      <trkpt lat="48.57039" lon="6.41089">
        <ele>264</ele>
        <time>2017-06-26T10:12:34Z</time>
      </trkpt>
      <trkpt lat="48.57037" lon="6.41088">
        <ele>263</ele>
        <time>2017-06-26T10:12:35Z</time>
      </trkpt>
      <trkpt lat="48.57036" lon="6.41086">
        <ele>263</ele>
        <time>2017-06-26T10:12:36Z</time>
      </trkpt>
      <trkpt lat="48.57035" lon="6.41085">
        <ele>263</ele>
        <time>2017-06-26T10:12:37Z</time>
      </trkpt>
      <trkpt lat="48.5703" lon="6.41081">
        <ele>263</ele>
        <time>2017-06-26T10:12:38Z</time>
      </trkpt>
      <trkpt lat="48.57029" lon="6.4108">
        <ele>263</ele>
        <time>2017-06-26T10:12:39Z</time>
      </trkpt>
      <trkpt lat="48.57028" lon="6.41079">
        <ele>263</ele>
        <time>2017-06-26T10:12:40Z</time>
      </trkpt>
      <trkpt lat="48.57026" lon="6.41078">
        <ele>263</ele>
        <time>2017-06-26T10:12:41Z</time>
      </trkpt>
      <trkpt lat="48.57025" lon="6.41077">
        <ele>263</ele>
        <time>2017-06-26T10:12:42Z</time>
      </trkpt>
      <trkpt lat="48.5702" lon="6.41073">
        <ele>263</ele>
        <time>2017-06-26T10:12:43Z</time>
      </trkpt>
      <trkpt lat="48.57018" lon="6.41071">
        <ele>263</ele>
        <time>2017-06-26T10:12:44Z</time>
      </trkpt>
      <trkpt lat="48.57016" lon="6.41069">
        <ele>263</ele>
        <time>2017-06-26T10:12:45Z</time>
      </trkpt>
      <trkpt lat="48.57013" lon="6.41068">
        <ele>263</ele>
        <time>2017-06-26T10:12:46Z</time>
      </trkpt>
      <trkpt lat="48.57011" lon="6.41066">
        <ele>263</ele>
        <time>2017-06-26T10:12:47Z</time>
      </trkpt>
      <trkpt lat="48.57009" lon="6.41065">
        <ele>263</ele>
        <time>2017-06-26T10:12:48Z</time>
      </trkpt>
      <trkpt lat="48.57006" lon="6.41063">
        <ele>263</ele>
        <time>2017-06-26T10:12:49Z</time>
      </trkpt>
      <trkpt lat="48.57004" lon="6.41062">
        <ele>263</ele>
        <time>2017-06-26T10:12:50Z</time>
      </trkpt>
      <trkpt lat="48.57001" lon="6.41061">
        <ele>263</ele>
        <time>2017-06-26T10:12:51Z</time>
      </trkpt>
      <trkpt lat="48.56999" lon="6.41058">
        <ele>263</ele>
        <time>2017-06-26T10:12:52Z</time>
      </trkpt>
      <trkpt lat="48.56997" lon="6.41055">
        <ele>263</ele>
        <time>2017-06-26T10:12:53Z</time>
      </trkpt>
      <trkpt lat="48.56992" lon="6.4105">
        <ele>263</ele>
        <time>2017-06-26T10:12:54Z</time>
      </trkpt>
      <trkpt lat="48.56991" lon="6.41046">
        <ele>263</ele>
        <time>2017-06-26T10:12:55Z</time>
      </trkpt>
      <trkpt lat="48.56991" lon="6.41043">
        <ele>263</ele>
        <time>2017-06-26T10:12:56Z</time>
      </trkpt>
      <trkpt lat="48.5699" lon="6.41039">
        <ele>263</ele>
        <time>2017-06-26T10:12:57Z</time>
      </trkpt>
      <trkpt lat="48.56989" lon="6.41035">
        <ele>263</ele>
        <time>2017-06-26T10:12:58Z</time>
      </trkpt>
      <trkpt lat="48.56989" lon="6.41033">
        <ele>263</ele>
        <time>2017-06-26T10:12:59Z</time>
      </trkpt>
      <trkpt lat="48.56989" lon="6.41031">
        <ele>263</ele>
        <time>2017-06-26T10:13:00Z</time>
      </trkpt>
      <trkpt lat="48.56988" lon="6.41029">
        <ele>263</ele>
        <time>2017-06-26T10:13:01Z</time>
      </trkpt>
      <trkpt lat="48.56988" lon="6.41027">
        <ele>263</ele>
        <time>2017-06-26T10:13:02Z</time>
      </trkpt>
      <trkpt lat="48.56987" lon="6.41018">
        <ele>263</ele>
        <time>2017-06-26T10:13:03Z</time>
      </trkpt>
      <trkpt lat="48.56987" lon="6.41016">
        <ele>263</ele>
        <time>2017-06-26T10:13:04Z</time>
      </trkpt>
      <trkpt lat="48.56987" lon="6.41013">
        <ele>263</ele>
        <time>2017-06-26T10:13:05Z</time>
      </trkpt>
      <trkpt lat="48.56986" lon="6.4101">
        <ele>263</ele>
        <time>2017-06-26T10:13:06Z</time>
      </trkpt>
      <trkpt lat="48.56985" lon="6.41002">
        <ele>263</ele>
        <time>2017-06-26T10:13:07Z</time>
      </trkpt>
      <trkpt lat="48.56984" lon="6.40999">
        <ele>263</ele>
        <time>2017-06-26T10:13:08Z</time>
      </trkpt>
      <trkpt lat="48.56984" lon="6.40996">
        <ele>263</ele>
        <time>2017-06-26T10:13:09Z</time>
      </trkpt>
      <trkpt lat="48.56984" lon="6.40993">
        <ele>263</ele>
        <time>2017-06-26T10:13:10Z</time>
      </trkpt>
      <trkpt lat="48.56984" lon="6.4099">
        <ele>263</ele>
        <time>2017-06-26T10:13:11Z</time>
      </trkpt>
      <trkpt lat="48.56983" lon="6.40987">
        <ele>263</ele>
        <time>2017-06-26T10:13:12Z</time>
      </trkpt>
      <trkpt lat="48.56983" lon="6.40984">
        <ele>263</ele>
        <time>2017-06-26T10:13:13Z</time>
      </trkpt>
      <trkpt lat="48.56983" lon="6.40982">
        <ele>263</ele>
        <time>2017-06-26T10:13:14Z</time>
      </trkpt>
      <trkpt lat="48.56982" lon="6.4098">
        <ele>263</ele>
        <time>2017-06-26T10:13:15Z</time>
      </trkpt>
      <trkpt lat="48.56982" lon="6.40978">
        <ele>263</ele>
        <time>2017-06-26T10:13:16Z</time>
      </trkpt>
      <trkpt lat="48.5698" lon="6.40969">
        <ele>263</ele>
        <time>2017-06-26T10:13:17Z</time>
      </trkpt>
      <trkpt lat="48.5698" lon="6.40968">
        <ele>263</ele>
        <time>2017-06-26T10:13:18Z</time>
      </trkpt>
      <trkpt lat="48.5698" lon="6.40966">
        <ele>263</ele>
        <time>2017-06-26T10:13:19Z</time>
      </trkpt>
      <trkpt lat="48.5698" lon="6.40964">
        <ele>263</ele>
        <time>2017-06-26T10:13:20Z</time>
      </trkpt>
      <trkpt lat="48.5698" lon="6.40963">
        <ele>263</ele>
        <time>2017-06-26T10:13:21Z</time>
      </trkpt>
      <trkpt lat="48.5698" lon="6.40961">
        <ele>263</ele>
        <time>2017-06-26T10:13:22Z</time>
      </trkpt>
      <trkpt lat="48.5698" lon="6.40953">
        <ele>263</ele>
        <time>2017-06-26T10:13:23Z</time>
      </trkpt>
      <trkpt lat="48.5698" lon="6.4095">
        <ele>263</ele>
        <time>2017-06-26T10:13:24Z</time>
      </trkpt>
      <trkpt lat="48.5698" lon="6.40947">
        <ele>263</ele>
        <time>2017-06-26T10:13:25Z</time>
      </trkpt>
      <trkpt lat="48.56981" lon="6.40944">
        <ele>263</ele>
        <time>2017-06-26T10:13:26Z</time>
      </trkpt>
      <trkpt lat="48.56982" lon="6.40936">
        <ele>263</ele>
        <time>2017-06-26T10:13:27Z</time>
      </trkpt>
      <trkpt lat="48.56982" lon="6.40933">
        <ele>263</ele>
        <time>2017-06-26T10:13:28Z</time>
      </trkpt>
      <trkpt lat="48.56982" lon="6.4093">
        <ele>263</ele>
        <time>2017-06-26T10:13:29Z</time>
      </trkpt>
      <trkpt lat="48.56982" lon="6.40927">
        <ele>263</ele>
        <time>2017-06-26T10:13:30Z</time>
      </trkpt>
      <trkpt lat="48.56982" lon="6.40918">
        <ele>263</ele>
        <time>2017-06-26T10:13:31Z</time>
      </trkpt>
      <trkpt lat="48.56982" lon="6.40916">
        <ele>263</ele>
        <time>2017-06-26T10:13:32Z</time>
      </trkpt>
      <trkpt lat="48.56982" lon="6.40914">
        <ele>263</ele>
        <time>2017-06-26T10:13:33Z</time>
      </trkpt>
      <trkpt lat="48.56982" lon="6.40912">
        <ele>263</ele>
        <time>2017-06-26T10:13:34Z</time>
      </trkpt>
      <trkpt lat="48.56983" lon="6.4091">
        <ele>263</ele>
        <time>2017-06-26T10:13:35Z</time>
      </trkpt>
      <trkpt lat="48.56983" lon="6.40901">
        <ele>263</ele>
        <time>2017-06-26T10:13:36Z</time>
      </trkpt>
      <trkpt lat="48.56983" lon="6.40897">
        <ele>263</ele>
        <time>2017-06-26T10:13:37Z</time>
      </trkpt>
      <trkpt lat="48.56983" lon="6.40893">
        <ele>263</ele>
        <time>2017-06-26T10:13:38Z</time>
      </trkpt>
      <trkpt lat="48.56983" lon="6.4089">
        <ele>263</ele>
        <time>2017-06-26T10:13:39Z</time>
      </trkpt>
      <trkpt lat="48.56983" lon="6.40886">
        <ele>263</ele>
        <time>2017-06-26T10:13:40Z</time>
      </trkpt>
      <trkpt lat="48.56982" lon="6.40882">
        <ele>263</ele>
        <time>2017-06-26T10:13:41Z</time>
      </trkpt>
      <trkpt lat="48.56982" lon="6.40878">
        <ele>263</ele>
        <time>2017-06-26T10:13:42Z</time>
      </trkpt>
      <trkpt lat="48.56981" lon="6.40874">
        <ele>263</ele>
        <time>2017-06-26T10:13:43Z</time>
      </trkpt>
      <trkpt lat="48.56981" lon="6.40871">
        <ele>263</ele>
        <time>2017-06-26T10:13:44Z</time>
      </trkpt>
      <trkpt lat="48.56981" lon="6.40868">
        <ele>262</ele>
        <time>2017-06-26T10:13:45Z</time>
      </trkpt>
      <trkpt lat="48.56981" lon="6.40866">
        <ele>262</ele>
        <time>2017-06-26T10:13:46Z</time>
      </trkpt>
      <trkpt lat="48.56981" lon="6.40863">
        <ele>262</ele>
        <time>2017-06-26T10:13:47Z</time>
      </trkpt>
      <trkpt lat="48.56981" lon="6.40855">
        <ele>262</ele>
        <time>2017-06-26T10:13:48Z</time>
      </trkpt>
      <trkpt lat="48.56981" lon="6.40852">
        <ele>262</ele>
        <time>2017-06-26T10:13:49Z</time>
      </trkpt>
      <trkpt lat="48.56981" lon="6.4085">
        <ele>262</ele>
        <time>2017-06-26T10:13:50Z</time>
      </trkpt>
      <trkpt lat="48.56981" lon="6.40847">
        <ele>262</ele>
        <time>2017-06-26T10:13:51Z</time>
      </trkpt>
      <trkpt lat="48.56981" lon="6.40838">
        <ele>262</ele>
        <time>2017-06-26T10:13:52Z</time>
      </trkpt>
      <trkpt lat="48.56982" lon="6.40836">
        <ele>262</ele>
        <time>2017-06-26T10:13:53Z</time>
      </trkpt>
      <trkpt lat="48.56982" lon="6.40833">
        <ele>262</ele>
        <time>2017-06-26T10:13:54Z</time>
      </trkpt>
      <trkpt lat="48.56982" lon="6.40831">
        <ele>262</ele>
        <time>2017-06-26T10:13:55Z</time>
      </trkpt>
      <trkpt lat="48.56982" lon="6.40828">
        <ele>262</ele>
        <time>2017-06-26T10:13:56Z</time>
      </trkpt>
      <trkpt lat="48.56983" lon="6.40826">
        <ele>262</ele>
        <time>2017-06-26T10:13:57Z</time>
      </trkpt>
      <trkpt lat="48.56983" lon="6.40823">
        <ele>262</ele>
        <time>2017-06-26T10:13:58Z</time>
      </trkpt>
      <trkpt lat="48.56983" lon="6.4082">
        <ele>262</ele>
        <time>2017-06-26T10:13:59Z</time>
      </trkpt>
      <trkpt lat="48.56983" lon="6.40817">
        <ele>262</ele>
        <time>2017-06-26T10:14:00Z</time>
      </trkpt>
      <trkpt lat="48.56984" lon="6.40813">
        <ele>262</ele>
        <time>2017-06-26T10:14:01Z</time>
      </trkpt>
      <trkpt lat="48.56984" lon="6.4081">
        <ele>262</ele>
        <time>2017-06-26T10:14:02Z</time>
      </trkpt>
      <trkpt lat="48.56984" lon="6.40807">
        <ele>262</ele>
        <time>2017-06-26T10:14:03Z</time>
      </trkpt>
      <trkpt lat="48.56984" lon="6.40802">
        <ele>262</ele>
        <time>2017-06-26T10:14:04Z</time>
      </trkpt>
      <trkpt lat="48.56984" lon="6.40797">
        <ele>260</ele>
        <time>2017-06-26T10:14:05Z</time>
      </trkpt>
      <trkpt lat="48.56984" lon="6.40793">
        <ele>260</ele>
        <time>2017-06-26T10:14:06Z</time>
      </trkpt>
      <trkpt lat="48.56984" lon="6.40788">
        <ele>260</ele>
        <time>2017-06-26T10:14:07Z</time>
      </trkpt>
      <trkpt lat="48.56984" lon="6.40784">
        <ele>260</ele>
        <time>2017-06-26T10:14:08Z</time>
      </trkpt>
      <trkpt lat="48.56985" lon="6.4078">
        <ele>260</ele>
        <time>2017-06-26T10:14:09Z</time>
      </trkpt>
      <trkpt lat="48.56985" lon="6.40776">
        <ele>260</ele>
        <time>2017-06-26T10:14:10Z</time>
      </trkpt>
      <trkpt lat="48.56985" lon="6.40773">
        <ele>260</ele>
        <time>2017-06-26T10:14:11Z</time>
      </trkpt>
      <trkpt lat="48.56986" lon="6.40769">
        <ele>260</ele>
        <time>2017-06-26T10:14:12Z</time>
      </trkpt>
      <trkpt lat="48.56987" lon="6.40764">
        <ele>260</ele>
        <time>2017-06-26T10:14:13Z</time>
      </trkpt>
      <trkpt lat="48.56987" lon="6.4076">
        <ele>260</ele>
        <time>2017-06-26T10:14:14Z</time>
      </trkpt>
      <trkpt lat="48.56988" lon="6.40756">
        <ele>260</ele>
        <time>2017-06-26T10:14:15Z</time>
      </trkpt>
      <trkpt lat="48.5699" lon="6.40751">
        <ele>260</ele>
        <time>2017-06-26T10:14:16Z</time>
      </trkpt>
      <trkpt lat="48.56992" lon="6.40747">
        <ele>260</ele>
        <time>2017-06-26T10:14:17Z</time>
      </trkpt>
      <trkpt lat="48.56994" lon="6.40742">
        <ele>260</ele>
        <time>2017-06-26T10:14:18Z</time>
      </trkpt>
      <trkpt lat="48.56996" lon="6.4074">
        <ele>260</ele>
        <time>2017-06-26T10:14:19Z</time>
      </trkpt>
      <trkpt lat="48.56999" lon="6.40738">
        <ele>260</ele>
        <time>2017-06-26T10:14:20Z</time>
      </trkpt>
      <trkpt lat="48.57001" lon="6.40737">
        <ele>260</ele>
        <time>2017-06-26T10:14:21Z</time>
      </trkpt>
      <trkpt lat="48.57004" lon="6.40735">
        <ele>260</ele>
        <time>2017-06-26T10:14:22Z</time>
      </trkpt>
      <trkpt lat="48.57006" lon="6.40734">
        <ele>260</ele>
        <time>2017-06-26T10:14:23Z</time>
      </trkpt>
      <trkpt lat="48.57009" lon="6.40734">
        <ele>260</ele>
        <time>2017-06-26T10:14:24Z</time>
      </trkpt>
      <trkpt lat="48.57011" lon="6.40733">
        <ele>260</ele>
        <time>2017-06-26T10:14:25Z</time>
      </trkpt>
      <trkpt lat="48.57014" lon="6.40733">
        <ele>260</ele>
        <time>2017-06-26T10:14:26Z</time>
      </trkpt>
      <trkpt lat="48.57016" lon="6.40734">
        <ele>260</ele>
        <time>2017-06-26T10:14:27Z</time>
      </trkpt>
      <trkpt lat="48.57019" lon="6.40734">
        <ele>260</ele>
        <time>2017-06-26T10:14:28Z</time>
      </trkpt>
      <trkpt lat="48.57021" lon="6.40735">
        <ele>260</ele>
        <time>2017-06-26T10:14:29Z</time>
      </trkpt>
      <trkpt lat="48.57023" lon="6.40736">
        <ele>260</ele>
        <time>2017-06-26T10:14:30Z</time>
      </trkpt>
      <trkpt lat="48.57026" lon="6.40736">
        <ele>260</ele>
        <time>2017-06-26T10:14:31Z</time>
      </trkpt>
      <trkpt lat="48.57028" lon="6.40736">
        <ele>260</ele>
        <time>2017-06-26T10:14:32Z</time>
      </trkpt>
      <trkpt lat="48.5703" lon="6.40736">
        <ele>260</ele>
        <time>2017-06-26T10:14:33Z</time>
      </trkpt>
      <trkpt lat="48.57033" lon="6.40737">
        <ele>260</ele>
        <time>2017-06-26T10:14:34Z</time>
      </trkpt>
      <trkpt lat="48.57036" lon="6.40737">
        <ele>260</ele>
        <time>2017-06-26T10:14:35Z</time>
      </trkpt>
      <trkpt lat="48.5704" lon="6.40736">
        <ele>260</ele>
        <time>2017-06-26T10:14:36Z</time>
      </trkpt>
      <trkpt lat="48.57044" lon="6.40736">
        <ele>260</ele>
        <time>2017-06-26T10:14:37Z</time>
      </trkpt>
      <trkpt lat="48.57047" lon="6.40737">
        <ele>260</ele>
        <time>2017-06-26T10:14:38Z</time>
      </trkpt>
      <trkpt lat="48.57049" lon="6.40738">
        <ele>260</ele>
        <time>2017-06-26T10:14:39Z</time>
      </trkpt>
      <trkpt lat="48.57052" lon="6.40739">
        <ele>260</ele>
        <time>2017-06-26T10:14:40Z</time>
      </trkpt>
      <trkpt lat="48.57055" lon="6.4074">
        <ele>260</ele>
        <time>2017-06-26T10:14:41Z</time>
      </trkpt>
      <trkpt lat="48.57057" lon="6.40741">
        <ele>260</ele>
        <time>2017-06-26T10:14:42Z</time>
      </trkpt>
      <trkpt lat="48.57059" lon="6.40742">
        <ele>260</ele>
        <time>2017-06-26T10:14:43Z</time>
      </trkpt>
      <trkpt lat="48.57061" lon="6.40743">
        <ele>260</ele>
        <time>2017-06-26T10:14:44Z</time>
      </trkpt>
      <trkpt lat="48.57064" lon="6.40744">
        <ele>261</ele>
        <time>2017-06-26T10:14:45Z</time>
      </trkpt>
      <trkpt lat="48.57066" lon="6.40744">
        <ele>261</ele>
        <time>2017-06-26T10:14:46Z</time>
      </trkpt>
      <trkpt lat="48.57069" lon="6.40745">
        <ele>261</ele>
        <time>2017-06-26T10:14:47Z</time>
      </trkpt>
      <trkpt lat="48.57071" lon="6.40746">
        <ele>261</ele>
        <time>2017-06-26T10:14:48Z</time>
      </trkpt>
      <trkpt lat="48.57074" lon="6.40747">
        <ele>261</ele>
        <time>2017-06-26T10:14:49Z</time>
      </trkpt>
      <trkpt lat="48.57076" lon="6.40747">
        <ele>261</ele>
        <time>2017-06-26T10:14:50Z</time>
      </trkpt>
      <trkpt lat="48.57079" lon="6.40748">
        <ele>261</ele>
        <time>2017-06-26T10:14:51Z</time>
      </trkpt>
      <trkpt lat="48.57081" lon="6.40749">
        <ele>261</ele>
        <time>2017-06-26T10:14:52Z</time>
      </trkpt>
      <trkpt lat="48.57084" lon="6.4075">
        <ele>261</ele>
        <time>2017-06-26T10:14:53Z</time>
      </trkpt>
      <trkpt lat="48.57086" lon="6.4075">
        <ele>261</ele>
        <time>2017-06-26T10:14:54Z</time>
      </trkpt>
      <trkpt lat="48.57088" lon="6.40751">
        <ele>261</ele>
        <time>2017-06-26T10:14:55Z</time>
      </trkpt>
      <trkpt lat="48.5709" lon="6.40751">
        <ele>261</ele>
        <time>2017-06-26T10:14:56Z</time>
      </trkpt>
      <trkpt lat="48.57092" lon="6.40752">
        <ele>261</ele>
        <time>2017-06-26T10:14:57Z</time>
      </trkpt>
      <trkpt lat="48.57094" lon="6.40752">
        <ele>261</ele>
        <time>2017-06-26T10:14:58Z</time>
      </trkpt>
      <trkpt lat="48.57097" lon="6.40753">
        <ele>261</ele>
        <time>2017-06-26T10:14:59Z</time>
      </trkpt>
      <trkpt lat="48.57099" lon="6.40753">
        <ele>261</ele>
        <time>2017-06-26T10:15:00Z</time>
      </trkpt>
      <trkpt lat="48.57101" lon="6.40754">
        <ele>261</ele>
        <time>2017-06-26T10:15:01Z</time>
      </trkpt>
      <trkpt lat="48.57103" lon="6.40754">
        <ele>261</ele>
        <time>2017-06-26T10:15:02Z</time>
      </trkpt>
      <trkpt lat="48.57105" lon="6.40755">
        <ele>261</ele>
        <time>2017-06-26T10:15:03Z</time>
      </trkpt>
      <trkpt lat="48.57108" lon="6.40756">
        <ele>261</ele>
        <time>2017-06-26T10:15:04Z</time>
      </trkpt>
      <trkpt lat="48.5711" lon="6.40757">
        <ele>262</ele>
        <time>2017-06-26T10:15:05Z</time>
      </trkpt>
      <trkpt lat="48.57112" lon="6.40758">
        <ele>262</ele>
        <time>2017-06-26T10:15:06Z</time>
      </trkpt>
      <trkpt lat="48.57115" lon="6.40759">
        <ele>262</ele>
        <time>2017-06-26T10:15:07Z</time>
      </trkpt>
      <trkpt lat="48.57117" lon="6.4076">
        <ele>262</ele>
        <time>2017-06-26T10:15:08Z</time>
      </trkpt>
      <trkpt lat="48.5712" lon="6.40761">
        <ele>262</ele>
        <time>2017-06-26T10:15:09Z</time>
      </trkpt>
      <trkpt lat="48.57122" lon="6.40762">
        <ele>262</ele>
        <time>2017-06-26T10:15:10Z</time>
      </trkpt>
      <trkpt lat="48.57125" lon="6.40763">
        <ele>262</ele>
        <time>2017-06-26T10:15:11Z</time>
      </trkpt>
      <trkpt lat="48.57128" lon="6.40763">
        <ele>262</ele>
        <time>2017-06-26T10:15:12Z</time>
      </trkpt>
      <trkpt lat="48.57131" lon="6.40764">
        <ele>262</ele>
        <time>2017-06-26T10:15:13Z</time>
      </trkpt>
      <trkpt lat="48.57134" lon="6.40765">
        <ele>262</ele>
        <time>2017-06-26T10:15:14Z</time>
      </trkpt>
      <trkpt lat="48.57136" lon="6.40766">
        <ele>262</ele>
        <time>2017-06-26T10:15:15Z</time>
      </trkpt>
      <trkpt lat="48.57139" lon="6.40768">
        <ele>262</ele>
        <time>2017-06-26T10:15:16Z</time>
      </trkpt>
      <trkpt lat="48.57141" lon="6.4077">
        <ele>262</ele>
        <time>2017-06-26T10:15:17Z</time>
      </trkpt>
      <trkpt lat="48.57143" lon="6.40773">
        <ele>262</ele>
        <time>2017-06-26T10:15:18Z</time>
      </trkpt>
      <trkpt lat="48.57145" lon="6.40776">
        <ele>262</ele>
        <time>2017-06-26T10:15:19Z</time>
      </trkpt>
      <trkpt lat="48.57147" lon="6.4078">
        <ele>262</ele>
        <time>2017-06-26T10:15:20Z</time>
      </trkpt>
      <trkpt lat="48.57149" lon="6.40784">
        <ele>262</ele>
        <time>2017-06-26T10:15:21Z</time>
      </trkpt>
      <trkpt lat="48.5715" lon="6.40787">
        <ele>262</ele>
        <time>2017-06-26T10:15:22Z</time>
      </trkpt>
      <trkpt lat="48.57152" lon="6.40791">
        <ele>262</ele>
        <time>2017-06-26T10:15:23Z</time>
      </trkpt>
      <trkpt lat="48.57153" lon="6.40795">
        <ele>262</ele>
        <time>2017-06-26T10:15:24Z</time>
      </trkpt>
      <trkpt lat="48.57154" lon="6.40799">
        <ele>262</ele>
        <time>2017-06-26T10:15:25Z</time>
      </trkpt>
      <trkpt lat="48.57155" lon="6.40803">
        <ele>262</ele>
        <time>2017-06-26T10:15:26Z</time>
      </trkpt>
      <trkpt lat="48.57156" lon="6.40807">
        <ele>262</ele>
        <time>2017-06-26T10:15:27Z</time>
      </trkpt>
      <trkpt lat="48.57156" lon="6.40811">
        <ele>262</ele>
        <time>2017-06-26T10:15:28Z</time>
      </trkpt>
      <trkpt lat="48.57157" lon="6.40815">
        <ele>262</ele>
        <time>2017-06-26T10:15:29Z</time>
      </trkpt>
      <trkpt lat="48.57157" lon="6.40818">
        <ele>262</ele>
        <time>2017-06-26T10:15:30Z</time>
      </trkpt>
      <trkpt lat="48.57158" lon="6.40822">
        <ele>262</ele>
        <time>2017-06-26T10:15:31Z</time>
      </trkpt>
      <trkpt lat="48.57158" lon="6.40826">
        <ele>262</ele>
        <time>2017-06-26T10:15:32Z</time>
      </trkpt>
      <trkpt lat="48.57159" lon="6.4083">
        <ele>262</ele>
        <time>2017-06-26T10:15:33Z</time>
      </trkpt>
      <trkpt lat="48.5716" lon="6.40833">
        <ele>262</ele>
        <time>2017-06-26T10:15:34Z</time>
      </trkpt>
      <trkpt lat="48.5716" lon="6.40836">
        <ele>262</ele>
        <time>2017-06-26T10:15:35Z</time>
      </trkpt>
      <trkpt lat="48.57161" lon="6.4084">
        <ele>262</ele>
        <time>2017-06-26T10:15:36Z</time>
      </trkpt>
      <trkpt lat="48.57161" lon="6.40843">
        <ele>262</ele>
        <time>2017-06-26T10:15:37Z</time>
      </trkpt>
      <trkpt lat="48.57162" lon="6.40846">
        <ele>262</ele>
        <time>2017-06-26T10:15:38Z</time>
      </trkpt>
      <trkpt lat="48.57162" lon="6.40849">
        <ele>262</ele>
        <time>2017-06-26T10:15:39Z</time>
      </trkpt>
      <trkpt lat="48.57163" lon="6.40852">
        <ele>262</ele>
        <time>2017-06-26T10:15:40Z</time>
      </trkpt>
      <trkpt lat="48.57164" lon="6.40855">
        <ele>262</ele>
        <time>2017-06-26T10:15:41Z</time>
      </trkpt>
      <trkpt lat="48.57164" lon="6.40859">
        <ele>262</ele>
        <time>2017-06-26T10:15:42Z</time>
      </trkpt>
      <trkpt lat="48.57165" lon="6.40862">
        <ele>262</ele>
        <time>2017-06-26T10:15:43Z</time>
      </trkpt>
      <trkpt lat="48.57165" lon="6.40866">
        <ele>262</ele>
        <time>2017-06-26T10:15:44Z</time>
      </trkpt>
      <trkpt lat="48.57166" lon="6.40869">
        <ele>264</ele>
        <time>2017-06-26T10:15:45Z</time>
      </trkpt>
      <trkpt lat="48.57166" lon="6.40873">
        <ele>264</ele>
        <time>2017-06-26T10:15:46Z</time>
      </trkpt>
      <trkpt lat="48.57167" lon="6.40876">
        <ele>264</ele>
        <time>2017-06-26T10:15:47Z</time>
      </trkpt>
      <trkpt lat="48.57167" lon="6.40879">
        <ele>264</ele>
        <time>2017-06-26T10:15:48Z</time>
      </trkpt>
      <trkpt lat="48.57168" lon="6.40882">
        <ele>264</ele>
        <time>2017-06-26T10:15:49Z</time>
      </trkpt>
      <trkpt lat="48.57169" lon="6.40885">
        <ele>264</ele>
        <time>2017-06-26T10:15:50Z</time>
      </trkpt>
      <trkpt lat="48.57169" lon="6.40888">
        <ele>264</ele>
        <time>2017-06-26T10:15:51Z</time>
      </trkpt>
      <trkpt lat="48.5717" lon="6.40891">
        <ele>264</ele>
        <time>2017-06-26T10:15:52Z</time>
      </trkpt>
      <trkpt lat="48.5717" lon="6.40894">
        <ele>264</ele>
        <time>2017-06-26T10:15:53Z</time>
      </trkpt>
      <trkpt lat="48.57171" lon="6.40897">
        <ele>264</ele>
        <time>2017-06-26T10:15:54Z</time>
      </trkpt>
      <trkpt lat="48.57171" lon="6.40901">
        <ele>264</ele>
        <time>2017-06-26T10:15:55Z</time>
      </trkpt>
      <trkpt lat="48.57172" lon="6.40904">
        <ele>264</ele>
        <time>2017-06-26T10:15:56Z</time>
      </trkpt>
      <trkpt lat="48.57173" lon="6.40907">
        <ele>264</ele>
        <time>2017-06-26T10:15:57Z</time>
      </trkpt>
      <trkpt lat="48.57173" lon="6.4091">
        <ele>264</ele>
        <time>2017-06-26T10:15:58Z</time>
      </trkpt>
      <trkpt lat="48.57174" lon="6.40914">
        <ele>264</ele>
        <time>2017-06-26T10:15:59Z</time>
      </trkpt>
      <trkpt lat="48.57175" lon="6.40917">
        <ele>264</ele>
        <time>2017-06-26T10:16:00Z</time>
      </trkpt>
      <trkpt lat="48.57176" lon="6.4092">
        <ele>264</ele>
        <time>2017-06-26T10:16:01Z</time>
      </trkpt>
      <trkpt lat="48.57176" lon="6.40923">
        <ele>264</ele>
        <time>2017-06-26T10:16:02Z</time>
      </trkpt>
      <trkpt lat="48.57177" lon="6.40927">
        <ele>264</ele>
        <time>2017-06-26T10:16:03Z</time>
      </trkpt>
      <trkpt lat="48.57177" lon="6.4093">
        <ele>264</ele>
        <time>2017-06-26T10:16:04Z</time>
      </trkpt>
      <trkpt lat="48.57178" lon="6.40933">
        <ele>263</ele>
        <time>2017-06-26T10:16:05Z</time>
      </trkpt>
      <trkpt lat="48.57178" lon="6.40937">
        <ele>263</ele>
        <time>2017-06-26T10:16:06Z</time>
      </trkpt>
      <trkpt lat="48.57179" lon="6.4094">
        <ele>263</ele>
        <time>2017-06-26T10:16:07Z</time>
      </trkpt>
      <trkpt lat="48.57179" lon="6.40944">
        <ele>263</ele>
        <time>2017-06-26T10:16:08Z</time>
      </trkpt>
      <trkpt lat="48.5718" lon="6.40947">
        <ele>263</ele>
        <time>2017-06-26T10:16:09Z</time>
      </trkpt>
      <trkpt lat="48.57181" lon="6.40951">
        <ele>263</ele>
        <time>2017-06-26T10:16:10Z</time>
      </trkpt>
      <trkpt lat="48.57182" lon="6.40955">
        <ele>263</ele>
        <time>2017-06-26T10:16:11Z</time>
      </trkpt>
      <trkpt lat="48.57183" lon="6.40959">
        <ele>263</ele>
        <time>2017-06-26T10:16:12Z</time>
      </trkpt>
      <trkpt lat="48.57184" lon="6.4096">
        <ele>263</ele>
        <time>2017-06-26T10:16:13Z</time>
      </trkpt>
      <trkpt lat="48.57185" lon="6.4096">
        <ele>263</ele>
        <time>2017-06-26T10:16:14Z</time>
      </trkpt>
      <trkpt lat="48.57185" lon="6.40961">
        <ele>264</ele>
        <time>2017-06-26T10:16:15Z</time>
      </trkpt>
      <trkpt lat="48.57186" lon="6.40962">
        <ele>264</ele>
        <time>2017-06-26T10:16:16Z</time>
      </trkpt>
      <trkpt lat="48.57187" lon="6.40963">
        <ele>264</ele>
        <time>2017-06-26T10:16:17Z</time>
      </trkpt>
      <trkpt lat="48.57188" lon="6.40964">
        <ele>264</ele>
        <time>2017-06-26T10:16:18Z</time>
      </trkpt>
      <trkpt lat="48.57189" lon="6.40965">
        <ele>264</ele>
        <time>2017-06-26T10:16:19Z</time>
      </trkpt>
      <trkpt lat="48.5719" lon="6.40966">
        <ele>264</ele>
        <time>2017-06-26T10:16:20Z</time>
      </trkpt>
      <trkpt lat="48.57191" lon="6.40967">
        <ele>264</ele>
        <time>2017-06-26T10:16:21Z</time>
      </trkpt>
      <trkpt lat="48.57192" lon="6.40965">
        <ele>264</ele>
        <time>2017-06-26T10:16:22Z</time>
      </trkpt>
      <trkpt lat="48.57194" lon="6.40964">
        <ele>264</ele>
        <time>2017-06-26T10:16:23Z</time>
      </trkpt>
      <trkpt lat="48.57196" lon="6.40962">
        <ele>264</ele>
        <time>2017-06-26T10:16:24Z</time>
      </trkpt>
      <trkpt lat="48.57198" lon="6.4096">
        <ele>264</ele>
        <time>2017-06-26T10:16:25Z</time>
      </trkpt>
      <trkpt lat="48.572" lon="6.40958">
        <ele>264</ele>
        <time>2017-06-26T10:16:26Z</time>
      </trkpt>
      <trkpt lat="48.57202" lon="6.40956">
        <ele>264</ele>
        <time>2017-06-26T10:16:27Z</time>
      </trkpt>
      <trkpt lat="48.57203" lon="6.40953">
        <ele>264</ele>
        <time>2017-06-26T10:16:28Z</time>
      </trkpt>
      <trkpt lat="48.57205" lon="6.40951">
        <ele>264</ele>
        <time>2017-06-26T10:16:29Z</time>
      </trkpt>
      <trkpt lat="48.57207" lon="6.40948">
        <ele>264</ele>
        <time>2017-06-26T10:16:30Z</time>
      </trkpt>
      <trkpt lat="48.57208" lon="6.40946">
        <ele>264</ele>
        <time>2017-06-26T10:16:31Z</time>
      </trkpt>
      <trkpt lat="48.5721" lon="6.40943">
        <ele>264</ele>
        <time>2017-06-26T10:16:32Z</time>
      </trkpt>
      <trkpt lat="48.57212" lon="6.40941">
        <ele>264</ele>
        <time>2017-06-26T10:16:33Z</time>
      </trkpt>
      <trkpt lat="48.57214" lon="6.40938">
        <ele>264</ele>
        <time>2017-06-26T10:16:34Z</time>
      </trkpt>
      <trkpt lat="48.57215" lon="6.40936">
        <ele>264</ele>
        <time>2017-06-26T10:16:35Z</time>
      </trkpt>
      <trkpt lat="48.57217" lon="6.40934">
        <ele>264</ele>
        <time>2017-06-26T10:16:36Z</time>
      </trkpt>
      <trkpt lat="48.57218" lon="6.40931">
        <ele>264</ele>
        <time>2017-06-26T10:16:37Z</time>
      </trkpt>
      <trkpt lat="48.57219" lon="6.40929">
        <ele>264</ele>
        <time>2017-06-26T10:16:38Z</time>
      </trkpt>
      <trkpt lat="48.57221" lon="6.40927">
        <ele>264</ele>
        <time>2017-06-26T10:16:39Z</time>
      </trkpt>
      <trkpt lat="48.57222" lon="6.40924">
        <ele>264</ele>
        <time>2017-06-26T10:16:40Z</time>
      </trkpt>
      <trkpt lat="48.57224" lon="6.40922">
        <ele>264</ele>
        <time>2017-06-26T10:16:41Z</time>
      </trkpt>
      <trkpt lat="48.57227" lon="6.40921">
        <ele>264</ele>
        <time>2017-06-26T10:16:42Z</time>
      </trkpt>
      <trkpt lat="48.57229" lon="6.40919">
        <ele>264</ele>
        <time>2017-06-26T10:16:43Z</time>
      </trkpt>
      <trkpt lat="48.57231" lon="6.40917">
        <ele>264</ele>
        <time>2017-06-26T10:16:44Z</time>
      </trkpt>
      <trkpt lat="48.57234" lon="6.40915">
        <ele>264</ele>
        <time>2017-06-26T10:16:45Z</time>
      </trkpt>
      <trkpt lat="48.57236" lon="6.40913">
        <ele>264</ele>
        <time>2017-06-26T10:16:46Z</time>
      </trkpt>
      <trkpt lat="48.57239" lon="6.40911">
        <ele>264</ele>
        <time>2017-06-26T10:16:47Z</time>
      </trkpt>
      <trkpt lat="48.57242" lon="6.40909">
        <ele>264</ele>
        <time>2017-06-26T10:16:48Z</time>
      </trkpt>
      <trkpt lat="48.57245" lon="6.40906">
        <ele>264</ele>
        <time>2017-06-26T10:16:49Z</time>
      </trkpt>
      <trkpt lat="48.57248" lon="6.40904">
        <ele>264</ele>
        <time>2017-06-26T10:16:50Z</time>
      </trkpt>
      <trkpt lat="48.57251" lon="6.40901">
        <ele>264</ele>
        <time>2017-06-26T10:16:51Z</time>
      </trkpt>
      <trkpt lat="48.57253" lon="6.40899">
        <ele>264</ele>
        <time>2017-06-26T10:16:52Z</time>
      </trkpt>
      <trkpt lat="48.57255" lon="6.40898">
        <ele>264</ele>
        <time>2017-06-26T10:16:53Z</time>
      </trkpt>
      <trkpt lat="48.57257" lon="6.40896">
        <ele>264</ele>
        <time>2017-06-26T10:16:54Z</time>
      </trkpt>
      <trkpt lat="48.57259" lon="6.40894">
        <ele>263</ele>
        <time>2017-06-26T10:16:55Z</time>
      </trkpt>
      <trkpt lat="48.57261" lon="6.40892">
        <ele>263</ele>
        <time>2017-06-26T10:16:56Z</time>
      </trkpt>
      <trkpt lat="48.57263" lon="6.40891">
        <ele>263</ele>
        <time>2017-06-26T10:16:57Z</time>
      </trkpt>
      <trkpt lat="48.57265" lon="6.40889">
        <ele>263</ele>
        <time>2017-06-26T10:16:58Z</time>
      </trkpt>
      <trkpt lat="48.57267" lon="6.40887">
        <ele>263</ele>
        <time>2017-06-26T10:16:59Z</time>
      </trkpt>
      <trkpt lat="48.5727" lon="6.40885">
        <ele>263</ele>
        <time>2017-06-26T10:17:00Z</time>
      </trkpt>
      <trkpt lat="48.57272" lon="6.40882">
        <ele>263</ele>
        <time>2017-06-26T10:17:01Z</time>
      </trkpt>
      <trkpt lat="48.57274" lon="6.4088">
        <ele>263</ele>
        <time>2017-06-26T10:17:02Z</time>
      </trkpt>
      <trkpt lat="48.57276" lon="6.40878">
        <ele>263</ele>
        <time>2017-06-26T10:17:03Z</time>
      </trkpt>
      <trkpt lat="48.57279" lon="6.40875">
        <ele>263</ele>
        <time>2017-06-26T10:17:04Z</time>
      </trkpt>
      <trkpt lat="48.57281" lon="6.40871">
        <ele>261</ele>
        <time>2017-06-26T10:17:05Z</time>
      </trkpt>
      <trkpt lat="48.57284" lon="6.40868">
        <ele>261</ele>
        <time>2017-06-26T10:17:06Z</time>
      </trkpt>
      <trkpt lat="48.57285" lon="6.40866">
        <ele>261</ele>
        <time>2017-06-26T10:17:07Z</time>
      </trkpt>
      <trkpt lat="48.57287" lon="6.40864">
        <ele>261</ele>
        <time>2017-06-26T10:17:08Z</time>
      </trkpt>
      <trkpt lat="48.57288" lon="6.40862">
        <ele>261</ele>
        <time>2017-06-26T10:17:09Z</time>
      </trkpt>
      <trkpt lat="48.57289" lon="6.4086">
        <ele>261</ele>
        <time>2017-06-26T10:17:10Z</time>
      </trkpt>
      <trkpt lat="48.57291" lon="6.40858">
        <ele>261</ele>
        <time>2017-06-26T10:17:11Z</time>
      </trkpt>
      <trkpt lat="48.57293" lon="6.40856">
        <ele>261</ele>
        <time>2017-06-26T10:17:12Z</time>
      </trkpt>
      <trkpt lat="48.57294" lon="6.40854">
        <ele>261</ele>
        <time>2017-06-26T10:17:13Z</time>
      </trkpt>
      <trkpt lat="48.57296" lon="6.40852">
        <ele>261</ele>
        <time>2017-06-26T10:17:14Z</time>
      </trkpt>
      <trkpt lat="48.57298" lon="6.4085">
        <ele>261</ele>
        <time>2017-06-26T10:17:15Z</time>
      </trkpt>
      <trkpt lat="48.57299" lon="6.40848">
        <ele>261</ele>
        <time>2017-06-26T10:17:16Z</time>
      </trkpt>
      <trkpt lat="48.57301" lon="6.40846">
        <ele>261</ele>
        <time>2017-06-26T10:17:17Z</time>
      </trkpt>
      <trkpt lat="48.57302" lon="6.40844">
        <ele>261</ele>
        <time>2017-06-26T10:17:18Z</time>
      </trkpt>
      <trkpt lat="48.57304" lon="6.40842">
        <ele>261</ele>
        <time>2017-06-26T10:17:19Z</time>
      </trkpt>
      <trkpt lat="48.57305" lon="6.4084">
        <ele>261</ele>
        <time>2017-06-26T10:17:20Z</time>
      </trkpt>
      <trkpt lat="48.57307" lon="6.40839">
        <ele>261</ele>
        <time>2017-06-26T10:17:21Z</time>
      </trkpt>
      <trkpt lat="48.57309" lon="6.40837">
        <ele>261</ele>
        <time>2017-06-26T10:17:22Z</time>
      </trkpt>
      <trkpt lat="48.57311" lon="6.40835">
        <ele>261</ele>
        <time>2017-06-26T10:17:23Z</time>
      </trkpt>
      <trkpt lat="48.57312" lon="6.40833">
        <ele>261</ele>
        <time>2017-06-26T10:17:24Z</time>
      </trkpt>
      <trkpt lat="48.57314" lon="6.40831">
        <ele>259</ele>
        <time>2017-06-26T10:17:25Z</time>
      </trkpt>
      <trkpt lat="48.57316" lon="6.40829">
        <ele>259</ele>
        <time>2017-06-26T10:17:26Z</time>
      </trkpt>
      <trkpt lat="48.57318" lon="6.40826">
        <ele>259</ele>
        <time>2017-06-26T10:17:27Z</time>
      </trkpt>
      <trkpt lat="48.57319" lon="6.40824">
        <ele>259</ele>
        <time>2017-06-26T10:17:28Z</time>
      </trkpt>
      <trkpt lat="48.57321" lon="6.40822">
        <ele>259</ele>
        <time>2017-06-26T10:17:29Z</time>
      </trkpt>
      <trkpt lat="48.57324" lon="6.40819">
        <ele>259</ele>
        <time>2017-06-26T10:17:30Z</time>
      </trkpt>
      <trkpt lat="48.57326" lon="6.40817">
        <ele>259</ele>
        <time>2017-06-26T10:17:31Z</time>
      </trkpt>
      <trkpt lat="48.57328" lon="6.40815">
        <ele>259</ele>
        <time>2017-06-26T10:17:32Z</time>
      </trkpt>
      <trkpt lat="48.5733" lon="6.40813">
        <ele>259</ele>
        <time>2017-06-26T10:17:33Z</time>
      </trkpt>
      <trkpt lat="48.57332" lon="6.4081">
        <ele>259</ele>
        <time>2017-06-26T10:17:34Z</time>
      </trkpt>
      <trkpt lat="48.57334" lon="6.40808">
        <ele>259</ele>
        <time>2017-06-26T10:17:35Z</time>
      </trkpt>
      <trkpt lat="48.57336" lon="6.40806">
        <ele>259</ele>
        <time>2017-06-26T10:17:36Z</time>
      </trkpt>
      <trkpt lat="48.57338" lon="6.40804">
        <ele>259</ele>
        <time>2017-06-26T10:17:37Z</time>
      </trkpt>
      <trkpt lat="48.57341" lon="6.40802">
        <ele>259</ele>
        <time>2017-06-26T10:17:38Z</time>
      </trkpt>
      <trkpt lat="48.57343" lon="6.408">
        <ele>259</ele>
        <time>2017-06-26T10:17:39Z</time>
      </trkpt>
      <trkpt lat="48.57345" lon="6.40798">
        <ele>259</ele>
        <time>2017-06-26T10:17:40Z</time>
      </trkpt>
      <trkpt lat="48.57347" lon="6.40795">
        <ele>259</ele>
        <time>2017-06-26T10:17:41Z</time>
      </trkpt>
      <trkpt lat="48.57349" lon="6.40793">
        <ele>259</ele>
        <time>2017-06-26T10:17:42Z</time>
      </trkpt>
      <trkpt lat="48.57351" lon="6.40791">
        <ele>259</ele>
        <time>2017-06-26T10:17:43Z</time>
      </trkpt>
      <trkpt lat="48.57353" lon="6.40789">
        <ele>259</ele>
        <time>2017-06-26T10:17:44Z</time>
      </trkpt>
      <trkpt lat="48.57356" lon="6.40786">
        <ele>257</ele>
        <time>2017-06-26T10:17:45Z</time>
      </trkpt>
      <trkpt lat="48.57358" lon="6.40783">
        <ele>257</ele>
        <time>2017-06-26T10:17:46Z</time>
      </trkpt>
      <trkpt lat="48.5736" lon="6.40781">
        <ele>257</ele>
        <time>2017-06-26T10:17:47Z</time>
      </trkpt>
      <trkpt lat="48.57362" lon="6.40778">
        <ele>257</ele>
        <time>2017-06-26T10:17:48Z</time>
      </trkpt>
      <trkpt lat="48.57364" lon="6.40775">
        <ele>257</ele>
        <time>2017-06-26T10:17:49Z</time>
      </trkpt>
      <trkpt lat="48.57366" lon="6.40773">
        <ele>257</ele>
        <time>2017-06-26T10:17:50Z</time>
      </trkpt>
      <trkpt lat="48.57367" lon="6.40771">
        <ele>257</ele>
        <time>2017-06-26T10:17:51Z</time>
      </trkpt>
      <trkpt lat="48.57369" lon="6.40768">
        <ele>257</ele>
        <time>2017-06-26T10:17:52Z</time>
      </trkpt>
      <trkpt lat="48.57371" lon="6.40766">
        <ele>257</ele>
        <time>2017-06-26T10:17:53Z</time>
      </trkpt>
      <trkpt lat="48.57373" lon="6.40764">
        <ele>257</ele>
        <time>2017-06-26T10:17:54Z</time>
      </trkpt>
      <trkpt lat="48.57375" lon="6.40762">
        <ele>255</ele>
        <time>2017-06-26T10:17:55Z</time>
      </trkpt>
      <trkpt lat="48.57377" lon="6.4076">
        <ele>255</ele>
        <time>2017-06-26T10:17:56Z</time>
      </trkpt>
      <trkpt lat="48.57379" lon="6.40757">
        <ele>255</ele>
        <time>2017-06-26T10:17:57Z</time>
      </trkpt>
      <trkpt lat="48.57381" lon="6.40755">
        <ele>255</ele>
        <time>2017-06-26T10:17:58Z</time>
      </trkpt>
      <trkpt lat="48.57382" lon="6.40753">
        <ele>255</ele>
        <time>2017-06-26T10:17:59Z</time>
      </trkpt>
      <trkpt lat="48.57384" lon="6.4075">
        <ele>255</ele>
        <time>2017-06-26T10:18:00Z</time>
      </trkpt>
      <trkpt lat="48.57386" lon="6.40748">
        <ele>255</ele>
        <time>2017-06-26T10:18:01Z</time>
      </trkpt>
      <trkpt lat="48.57389" lon="6.40746">
        <ele>255</ele>
        <time>2017-06-26T10:18:02Z</time>
      </trkpt>
      <trkpt lat="48.57391" lon="6.40743">
        <ele>255</ele>
        <time>2017-06-26T10:18:03Z</time>
      </trkpt>
      <trkpt lat="48.57394" lon="6.40741">
        <ele>255</ele>
        <time>2017-06-26T10:18:04Z</time>
      </trkpt>
      <trkpt lat="48.57396" lon="6.4074">
        <ele>252</ele>
        <time>2017-06-26T10:18:05Z</time>
      </trkpt>
      <trkpt lat="48.57399" lon="6.40739">
        <ele>252</ele>
        <time>2017-06-26T10:18:06Z</time>
      </trkpt>
      <trkpt lat="48.57401" lon="6.40738">
        <ele>252</ele>
        <time>2017-06-26T10:18:07Z</time>
      </trkpt>
      <trkpt lat="48.57404" lon="6.40737">
        <ele>252</ele>
        <time>2017-06-26T10:18:08Z</time>
      </trkpt>
      <trkpt lat="48.57405" lon="6.40736">
        <ele>252</ele>
        <time>2017-06-26T10:18:09Z</time>
      </trkpt>
      <trkpt lat="48.57407" lon="6.40734">
        <ele>252</ele>
        <time>2017-06-26T10:18:10Z</time>
      </trkpt>
      <trkpt lat="48.57408" lon="6.40732">
        <ele>252</ele>
        <time>2017-06-26T10:18:11Z</time>
      </trkpt>
      <trkpt lat="48.5741" lon="6.40731">
        <ele>252</ele>
        <time>2017-06-26T10:18:12Z</time>
      </trkpt>
      <trkpt lat="48.57411" lon="6.40729">
        <ele>252</ele>
        <time>2017-06-26T10:18:13Z</time>
      </trkpt>
      <trkpt lat="48.57413" lon="6.40728">
        <ele>252</ele>
        <time>2017-06-26T10:18:14Z</time>
      </trkpt>
      <trkpt lat="48.57415" lon="6.40726">
        <ele>251</ele>
        <time>2017-06-26T10:18:15Z</time>
      </trkpt>
      <trkpt lat="48.57417" lon="6.40723">
        <ele>251</ele>
        <time>2017-06-26T10:18:16Z</time>
      </trkpt>
      <trkpt lat="48.57419" lon="6.40721">
        <ele>251</ele>
        <time>2017-06-26T10:18:17Z</time>
      </trkpt>
      <trkpt lat="48.5742" lon="6.40719">
        <ele>251</ele>
        <time>2017-06-26T10:18:18Z</time>
      </trkpt>
      <trkpt lat="48.57423" lon="6.40718">
        <ele>251</ele>
        <time>2017-06-26T10:18:19Z</time>
      </trkpt>
      <trkpt lat="48.57425" lon="6.40717">
        <ele>251</ele>
        <time>2017-06-26T10:18:20Z</time>
      </trkpt>
      <trkpt lat="48.57427" lon="6.40715">
        <ele>251</ele>
        <time>2017-06-26T10:18:21Z</time>
      </trkpt>
      <trkpt lat="48.57429" lon="6.40714">
        <ele>251</ele>
        <time>2017-06-26T10:18:22Z</time>
      </trkpt>
      <trkpt lat="48.57431" lon="6.40712">
        <ele>251</ele>
        <time>2017-06-26T10:18:23Z</time>
      </trkpt>
      <trkpt lat="48.57433" lon="6.4071">
        <ele>251</ele>
        <time>2017-06-26T10:18:24Z</time>
      </trkpt>
      <trkpt lat="48.57435" lon="6.40708">
        <ele>248</ele>
        <time>2017-06-26T10:18:25Z</time>
      </trkpt>
      <trkpt lat="48.57437" lon="6.40706">
        <ele>248</ele>
        <time>2017-06-26T10:18:26Z</time>
      </trkpt>
      <trkpt lat="48.57439" lon="6.40704">
        <ele>248</ele>
        <time>2017-06-26T10:18:27Z</time>
      </trkpt>
      <trkpt lat="48.57441" lon="6.40703">
        <ele>248</ele>
        <time>2017-06-26T10:18:28Z</time>
      </trkpt>
      <trkpt lat="48.57442" lon="6.40701">
        <ele>248</ele>
        <time>2017-06-26T10:18:29Z</time>
      </trkpt>
      <trkpt lat="48.57444" lon="6.40699">
        <ele>247</ele>
        <time>2017-06-26T10:18:30Z</time>
      </trkpt>
      <trkpt lat="48.57446" lon="6.40697">
        <ele>247</ele>
        <time>2017-06-26T10:18:31Z</time>
      </trkpt>
      <trkpt lat="48.57448" lon="6.40696">
        <ele>247</ele>
        <time>2017-06-26T10:18:32Z</time>
      </trkpt>
      <trkpt lat="48.5745" lon="6.40694">
        <ele>247</ele>
        <time>2017-06-26T10:18:33Z</time>
      </trkpt>
      <trkpt lat="48.57452" lon="6.40692">
        <ele>247</ele>
        <time>2017-06-26T10:18:34Z</time>
      </trkpt>
      <trkpt lat="48.57454" lon="6.4069">
        <ele>246</ele>
        <time>2017-06-26T10:18:35Z</time>
      </trkpt>
      <trkpt lat="48.57456" lon="6.40689">
        <ele>246</ele>
        <time>2017-06-26T10:18:36Z</time>
      </trkpt>
      <trkpt lat="48.57458" lon="6.40689">
        <ele>246</ele>
        <time>2017-06-26T10:18:37Z</time>
      </trkpt>
      <trkpt lat="48.57461" lon="6.40689">
        <ele>246</ele>
        <time>2017-06-26T10:18:38Z</time>
      </trkpt>
      <trkpt lat="48.57464" lon="6.40689">
        <ele>246</ele>
        <time>2017-06-26T10:18:39Z</time>
      </trkpt>
      <trkpt lat="48.57466" lon="6.40689">
        <ele>244</ele>
        <time>2017-06-26T10:18:40Z</time>
      </trkpt>
      <trkpt lat="48.57468" lon="6.40691">
        <ele>244</ele>
        <time>2017-06-26T10:18:41Z</time>
      </trkpt>
      <trkpt lat="48.57469" lon="6.40692">
        <ele>244</ele>
        <time>2017-06-26T10:18:42Z</time>
      </trkpt>
      <trkpt lat="48.5747" lon="6.40694">
        <ele>244</ele>
        <time>2017-06-26T10:18:43Z</time>
      </trkpt>
      <trkpt lat="48.57471" lon="6.40696">
        <ele>244</ele>
        <time>2017-06-26T10:18:44Z</time>
      </trkpt>
      <trkpt lat="48.57473" lon="6.40698">
        <ele>243</ele>
        <time>2017-06-26T10:18:45Z</time>
      </trkpt>
      <trkpt lat="48.57474" lon="6.407">
        <ele>243</ele>
        <time>2017-06-26T10:18:46Z</time>
      </trkpt>
      <trkpt lat="48.57475" lon="6.40703">
        <ele>243</ele>
        <time>2017-06-26T10:18:47Z</time>
      </trkpt>
      <trkpt lat="48.57477" lon="6.40706">
        <ele>243</ele>
        <time>2017-06-26T10:18:48Z</time>
      </trkpt>
      <trkpt lat="48.57479" lon="6.40709">
        <ele>243</ele>
        <time>2017-06-26T10:18:49Z</time>
      </trkpt>
      <trkpt lat="48.5748" lon="6.40712">
        <ele>242</ele>
        <time>2017-06-26T10:18:50Z</time>
      </trkpt>
      <trkpt lat="48.57482" lon="6.40715">
        <ele>242</ele>
        <time>2017-06-26T10:18:51Z</time>
      </trkpt>
      <trkpt lat="48.57484" lon="6.40718">
        <ele>242</ele>
        <time>2017-06-26T10:18:52Z</time>
      </trkpt>
      <trkpt lat="48.57486" lon="6.4072">
        <ele>242</ele>
        <time>2017-06-26T10:18:53Z</time>
      </trkpt>
      <trkpt lat="48.57488" lon="6.40723">
        <ele>242</ele>
        <time>2017-06-26T10:18:54Z</time>
      </trkpt>
      <trkpt lat="48.5749" lon="6.40726">
        <ele>243</ele>
        <time>2017-06-26T10:18:55Z</time>
      </trkpt>
      <trkpt lat="48.57492" lon="6.40729">
        <ele>243</ele>
        <time>2017-06-26T10:18:56Z</time>
      </trkpt>
      <trkpt lat="48.57494" lon="6.40732">
        <ele>243</ele>
        <time>2017-06-26T10:18:57Z</time>
      </trkpt>
      <trkpt lat="48.57496" lon="6.40734">
        <ele>243</ele>
        <time>2017-06-26T10:18:58Z</time>
      </trkpt>
      <trkpt lat="48.57498" lon="6.40737">
        <ele>243</ele>
        <time>2017-06-26T10:18:59Z</time>
      </trkpt>
      <trkpt lat="48.57499" lon="6.40741">
        <ele>243</ele>
        <time>2017-06-26T10:19:00Z</time>
      </trkpt>
      <trkpt lat="48.57501" lon="6.40744">
        <ele>243</ele>
        <time>2017-06-26T10:19:01Z</time>
      </trkpt>
      <trkpt lat="48.57502" lon="6.40747">
        <ele>243</ele>
        <time>2017-06-26T10:19:02Z</time>
      </trkpt>
      <trkpt lat="48.57504" lon="6.40751">
        <ele>243</ele>
        <time>2017-06-26T10:19:03Z</time>
      </trkpt>
      <trkpt lat="48.57505" lon="6.40754">
        <ele>243</ele>
        <time>2017-06-26T10:19:04Z</time>
      </trkpt>
      <trkpt lat="48.57507" lon="6.40757">
        <ele>243</ele>
        <time>2017-06-26T10:19:05Z</time>
      </trkpt>
      <trkpt lat="48.57508" lon="6.40761">
        <ele>243</ele>
        <time>2017-06-26T10:19:06Z</time>
      </trkpt>
      <trkpt lat="48.57509" lon="6.40764">
        <ele>243</ele>
        <time>2017-06-26T10:19:07Z</time>
      </trkpt>
      <trkpt lat="48.5751" lon="6.40767">
        <ele>243</ele>
        <time>2017-06-26T10:19:08Z</time>
      </trkpt>
      <trkpt lat="48.57511" lon="6.4077">
        <ele>243</ele>
        <time>2017-06-26T10:19:09Z</time>
      </trkpt>
      <trkpt lat="48.57512" lon="6.40773">
        <ele>243</ele>
        <time>2017-06-26T10:19:10Z</time>
      </trkpt>
      <trkpt lat="48.57513" lon="6.40777">
        <ele>243</ele>
        <time>2017-06-26T10:19:11Z</time>
      </trkpt>
      <trkpt lat="48.57513" lon="6.40779">
        <ele>243</ele>
        <time>2017-06-26T10:19:12Z</time>
      </trkpt>
      <trkpt lat="48.57514" lon="6.40782">
        <ele>243</ele>
        <time>2017-06-26T10:19:13Z</time>
      </trkpt>
      <trkpt lat="48.57514" lon="6.40785">
        <ele>243</ele>
        <time>2017-06-26T10:19:14Z</time>
      </trkpt>
      <trkpt lat="48.57515" lon="6.40788">
        <ele>244</ele>
        <time>2017-06-26T10:19:15Z</time>
      </trkpt>
      <trkpt lat="48.57516" lon="6.40791">
        <ele>244</ele>
        <time>2017-06-26T10:19:16Z</time>
      </trkpt>
      <trkpt lat="48.57515" lon="6.40793">
        <ele>244</ele>
        <time>2017-06-26T10:19:17Z</time>
      </trkpt>
      <trkpt lat="48.57514" lon="6.40796">
        <ele>244</ele>
        <time>2017-06-26T10:19:18Z</time>
      </trkpt>
      <trkpt lat="48.57513" lon="6.40798">
        <ele>244</ele>
        <time>2017-06-26T10:19:19Z</time>
      </trkpt>
      <trkpt lat="48.57513" lon="6.408">
        <ele>244</ele>
        <time>2017-06-26T10:19:20Z</time>
      </trkpt>
      <trkpt lat="48.57512" lon="6.40802">
        <ele>244</ele>
        <time>2017-06-26T10:19:21Z</time>
      </trkpt>
      <trkpt lat="48.57513" lon="6.40804">
        <ele>244</ele>
        <time>2017-06-26T10:19:22Z</time>
      </trkpt>
      <trkpt lat="48.57514" lon="6.40806">
        <ele>244</ele>
        <time>2017-06-26T10:19:23Z</time>
      </trkpt>
      <trkpt lat="48.57514" lon="6.40807">
        <ele>244</ele>
        <time>2017-06-26T10:19:24Z</time>
      </trkpt>
      <trkpt lat="48.57515" lon="6.40809">
        <ele>244</ele>
        <time>2017-06-26T10:19:25Z</time>
      </trkpt>
      <trkpt lat="48.57516" lon="6.4081">
        <ele>244</ele>
        <time>2017-06-26T10:19:26Z</time>
      </trkpt>
      <trkpt lat="48.57516" lon="6.40812">
        <ele>244</ele>
        <time>2017-06-26T10:19:27Z</time>
      </trkpt>
      <trkpt lat="48.57517" lon="6.40813">
        <ele>244</ele>
        <time>2017-06-26T10:19:28Z</time>
      </trkpt>
      <trkpt lat="48.57518" lon="6.40815">
        <ele>244</ele>
        <time>2017-06-26T10:19:29Z</time>
      </trkpt>
      <trkpt lat="48.57519" lon="6.40817">
        <ele>244</ele>
        <time>2017-06-26T10:19:30Z</time>
      </trkpt>
      <trkpt lat="48.5752" lon="6.40819">
        <ele>244</ele>
        <time>2017-06-26T10:19:31Z</time>
      </trkpt>
      <trkpt lat="48.57521" lon="6.4082">
        <ele>244</ele>
        <time>2017-06-26T10:19:32Z</time>
      </trkpt>
      <trkpt lat="48.57522" lon="6.40822">
        <ele>244</ele>
        <time>2017-06-26T10:19:33Z</time>
      </trkpt>
      <trkpt lat="48.57524" lon="6.40824">
        <ele>244</ele>
        <time>2017-06-26T10:19:34Z</time>
      </trkpt>
      <trkpt lat="48.57525" lon="6.40826">
        <ele>243</ele>
        <time>2017-06-26T10:19:35Z</time>
      </trkpt>
      <trkpt lat="48.57526" lon="6.40828">
        <ele>243</ele>
        <time>2017-06-26T10:19:36Z</time>
      </trkpt>
      <trkpt lat="48.57526" lon="6.4083">
        <ele>243</ele>
        <time>2017-06-26T10:19:37Z</time>
      </trkpt>
      <trkpt lat="48.57527" lon="6.40832">
        <ele>243</ele>
        <time>2017-06-26T10:19:38Z</time>
      </trkpt>
      <trkpt lat="48.57528" lon="6.40834">
        <ele>243</ele>
        <time>2017-06-26T10:19:39Z</time>
      </trkpt>
      <trkpt lat="48.57529" lon="6.40836">
        <ele>243</ele>
        <time>2017-06-26T10:19:40Z</time>
      </trkpt>
      <trkpt lat="48.5753" lon="6.40838">
        <ele>243</ele>
        <time>2017-06-26T10:19:41Z</time>
      </trkpt>
      <trkpt lat="48.5753" lon="6.40841">
        <ele>243</ele>
        <time>2017-06-26T10:19:42Z</time>
      </trkpt>
      <trkpt lat="48.57531" lon="6.40843">
        <ele>243</ele>
        <time>2017-06-26T10:19:43Z</time>
      </trkpt>
      <trkpt lat="48.57531" lon="6.40845">
        <ele>243</ele>
        <time>2017-06-26T10:19:44Z</time>
      </trkpt>
      <trkpt lat="48.57532" lon="6.40848">
        <ele>243</ele>
        <time>2017-06-26T10:19:45Z</time>
      </trkpt>
      <trkpt lat="48.57532" lon="6.4085">
        <ele>243</ele>
        <time>2017-06-26T10:19:46Z</time>
      </trkpt>
      <trkpt lat="48.57533" lon="6.40852">
        <ele>243</ele>
        <time>2017-06-26T10:19:47Z</time>
      </trkpt>
      <trkpt lat="48.57533" lon="6.40855">
        <ele>243</ele>
        <time>2017-06-26T10:19:48Z</time>
      </trkpt>
      <trkpt lat="48.57533" lon="6.40858">
        <ele>243</ele>
        <time>2017-06-26T10:19:49Z</time>
      </trkpt>
      <trkpt lat="48.57534" lon="6.40861">
        <ele>243</ele>
        <time>2017-06-26T10:19:50Z</time>
      </trkpt>
      <trkpt lat="48.57534" lon="6.40863">
        <ele>243</ele>
        <time>2017-06-26T10:19:51Z</time>
      </trkpt>
      <trkpt lat="48.57535" lon="6.40866">
        <ele>243</ele>
        <time>2017-06-26T10:19:52Z</time>
      </trkpt>
      <trkpt lat="48.57535" lon="6.40869">
        <ele>243</ele>
        <time>2017-06-26T10:19:53Z</time>
      </trkpt>
      <trkpt lat="48.57536" lon="6.40872">
        <ele>243</ele>
        <time>2017-06-26T10:19:54Z</time>
      </trkpt>
      <trkpt lat="48.57536" lon="6.40875">
        <ele>244</ele>
        <time>2017-06-26T10:19:55Z</time>
      </trkpt>
      <trkpt lat="48.57537" lon="6.40878">
        <ele>244</ele>
        <time>2017-06-26T10:19:56Z</time>
      </trkpt>
      <trkpt lat="48.57537" lon="6.40881">
        <ele>244</ele>
        <time>2017-06-26T10:19:57Z</time>
      </trkpt>
      <trkpt lat="48.57538" lon="6.40883">
        <ele>244</ele>
        <time>2017-06-26T10:19:58Z</time>
      </trkpt>
      <trkpt lat="48.57538" lon="6.40886">
        <ele>244</ele>
        <time>2017-06-26T10:19:59Z</time>
      </trkpt>
      <trkpt lat="48.57539" lon="6.40889">
        <ele>244</ele>
        <time>2017-06-26T10:20:00Z</time>
      </trkpt>
      <trkpt lat="48.5754" lon="6.40892">
        <ele>244</ele>
        <time>2017-06-26T10:20:01Z</time>
      </trkpt>
      <trkpt lat="48.57541" lon="6.40895">
        <ele>244</ele>
        <time>2017-06-26T10:20:02Z</time>
      </trkpt>
      <trkpt lat="48.57541" lon="6.40898">
        <ele>244</ele>
        <time>2017-06-26T10:20:03Z</time>
      </trkpt>
      <trkpt lat="48.57542" lon="6.40901">
        <ele>244</ele>
        <time>2017-06-26T10:20:04Z</time>
      </trkpt>
      <trkpt lat="48.57542" lon="6.40904">
        <ele>246</ele>
        <time>2017-06-26T10:20:05Z</time>
      </trkpt>
      <trkpt lat="48.57542" lon="6.40906">
        <ele>246</ele>
        <time>2017-06-26T10:20:06Z</time>
      </trkpt>
      <trkpt lat="48.57543" lon="6.40909">
        <ele>246</ele>
        <time>2017-06-26T10:20:07Z</time>
      </trkpt>
      <trkpt lat="48.57543" lon="6.40912">
        <ele>246</ele>
        <time>2017-06-26T10:20:08Z</time>
      </trkpt>
      <trkpt lat="48.57543" lon="6.40914">
        <ele>246</ele>
        <time>2017-06-26T10:20:09Z</time>
      </trkpt>
      <trkpt lat="48.57543" lon="6.40917">
        <ele>246</ele>
        <time>2017-06-26T10:20:10Z</time>
      </trkpt>
      <trkpt lat="48.57543" lon="6.4092">
        <ele>246</ele>
        <time>2017-06-26T10:20:11Z</time>
      </trkpt>
      <trkpt lat="48.57544" lon="6.40922">
        <ele>246</ele>
        <time>2017-06-26T10:20:12Z</time>
      </trkpt>
      <trkpt lat="48.57544" lon="6.40925">
        <ele>246</ele>
        <time>2017-06-26T10:20:13Z</time>
      </trkpt>
      <trkpt lat="48.57544" lon="6.40928">
        <ele>246</ele>
        <time>2017-06-26T10:20:14Z</time>
      </trkpt>
      <trkpt lat="48.57544" lon="6.4093">
        <ele>247</ele>
        <time>2017-06-26T10:20:15Z</time>
      </trkpt>
      <trkpt lat="48.57545" lon="6.40933">
        <ele>247</ele>
        <time>2017-06-26T10:20:16Z</time>
      </trkpt>
      <trkpt lat="48.57545" lon="6.40936">
        <ele>247</ele>
        <time>2017-06-26T10:20:17Z</time>
      </trkpt>
      <trkpt lat="48.57546" lon="6.40938">
        <ele>247</ele>
        <time>2017-06-26T10:20:18Z</time>
      </trkpt>
      <trkpt lat="48.57547" lon="6.40941">
        <ele>247</ele>
        <time>2017-06-26T10:20:19Z</time>
      </trkpt>
      <trkpt lat="48.57547" lon="6.40944">
        <ele>247</ele>
        <time>2017-06-26T10:20:20Z</time>
      </trkpt>
      <trkpt lat="48.57548" lon="6.40946">
        <ele>247</ele>
        <time>2017-06-26T10:20:21Z</time>
      </trkpt>
      <trkpt lat="48.57549" lon="6.40949">
        <ele>247</ele>
        <time>2017-06-26T10:20:22Z</time>
      </trkpt>
      <trkpt lat="48.57549" lon="6.40952">
        <ele>247</ele>
        <time>2017-06-26T10:20:23Z</time>
      </trkpt>
      <trkpt lat="48.5755" lon="6.40955">
        <ele>247</ele>
        <time>2017-06-26T10:20:24Z</time>
      </trkpt>
      <trkpt lat="48.57551" lon="6.40958">
        <ele>247</ele>
        <time>2017-06-26T10:20:25Z</time>
      </trkpt>
      <trkpt lat="48.57552" lon="6.40962">
        <ele>247</ele>
        <time>2017-06-26T10:20:26Z</time>
      </trkpt>
      <trkpt lat="48.57553" lon="6.40965">
        <ele>247</ele>
        <time>2017-06-26T10:20:27Z</time>
      </trkpt>
      <trkpt lat="48.57554" lon="6.40968">
        <ele>247</ele>
        <time>2017-06-26T10:20:28Z</time>
      </trkpt>
      <trkpt lat="48.57555" lon="6.40972">
        <ele>247</ele>
        <time>2017-06-26T10:20:29Z</time>
      </trkpt>
      <trkpt lat="48.57556" lon="6.40976">
        <ele>247</ele>
        <time>2017-06-26T10:20:30Z</time>
      </trkpt>
      <trkpt lat="48.57557" lon="6.4098">
        <ele>247</ele>
        <time>2017-06-26T10:20:31Z</time>
      </trkpt>
      <trkpt lat="48.57558" lon="6.40983">
        <ele>247</ele>
        <time>2017-06-26T10:20:32Z</time>
      </trkpt>
      <trkpt lat="48.57559" lon="6.40986">
        <ele>247</ele>
        <time>2017-06-26T10:20:33Z</time>
      </trkpt>
      <trkpt lat="48.5756" lon="6.4099">
        <ele>247</ele>
        <time>2017-06-26T10:20:34Z</time>
      </trkpt>
      <trkpt lat="48.5756" lon="6.40993">
        <ele>248</ele>
        <time>2017-06-26T10:20:35Z</time>
      </trkpt>
      <trkpt lat="48.57561" lon="6.40996">
        <ele>248</ele>
        <time>2017-06-26T10:20:36Z</time>
      </trkpt>
      <trkpt lat="48.57562" lon="6.41">
        <ele>248</ele>
        <time>2017-06-26T10:20:37Z</time>
      </trkpt>
      <trkpt lat="48.57564" lon="6.41004">
        <ele>248</ele>
        <time>2017-06-26T10:20:38Z</time>
      </trkpt>
      <trkpt lat="48.57565" lon="6.41008">
        <ele>248</ele>
        <time>2017-06-26T10:20:39Z</time>
      </trkpt>
      <trkpt lat="48.57566" lon="6.41012">
        <ele>248</ele>
        <time>2017-06-26T10:20:40Z</time>
      </trkpt>
      <trkpt lat="48.57566" lon="6.41016">
        <ele>248</ele>
        <time>2017-06-26T10:20:41Z</time>
      </trkpt>
      <trkpt lat="48.57567" lon="6.41019">
        <ele>248</ele>
        <time>2017-06-26T10:20:42Z</time>
      </trkpt>
      <trkpt lat="48.57568" lon="6.41023">
        <ele>248</ele>
        <time>2017-06-26T10:20:43Z</time>
      </trkpt>
      <trkpt lat="48.57569" lon="6.41026">
        <ele>248</ele>
        <time>2017-06-26T10:20:44Z</time>
      </trkpt>
      <trkpt lat="48.5757" lon="6.41029">
        <ele>248</ele>
        <time>2017-06-26T10:20:45Z</time>
      </trkpt>
      <trkpt lat="48.57571" lon="6.41032">
        <ele>248</ele>
        <time>2017-06-26T10:20:46Z</time>
      </trkpt>
      <trkpt lat="48.57572" lon="6.41035">
        <ele>248</ele>
        <time>2017-06-26T10:20:47Z</time>
      </trkpt>
      <trkpt lat="48.57573" lon="6.41037">
        <ele>248</ele>
        <time>2017-06-26T10:20:48Z</time>
      </trkpt>
      <trkpt lat="48.57574" lon="6.4104">
        <ele>248</ele>
        <time>2017-06-26T10:20:49Z</time>
      </trkpt>
      <trkpt lat="48.57575" lon="6.41042">
        <ele>248</ele>
        <time>2017-06-26T10:20:50Z</time>
      </trkpt>
      <trkpt lat="48.57576" lon="6.41045">
        <ele>248</ele>
        <time>2017-06-26T10:20:51Z</time>
      </trkpt>
      <trkpt lat="48.57577" lon="6.41047">
        <ele>248</ele>
        <time>2017-06-26T10:20:52Z</time>
      </trkpt>
      <trkpt lat="48.57578" lon="6.4105">
        <ele>248</ele>
        <time>2017-06-26T10:20:53Z</time>
      </trkpt>
      <trkpt lat="48.5758" lon="6.41052">
        <ele>248</ele>
        <time>2017-06-26T10:20:54Z</time>
      </trkpt>
      <trkpt lat="48.57581" lon="6.41055">
        <ele>247</ele>
        <time>2017-06-26T10:20:55Z</time>
      </trkpt>
      <trkpt lat="48.57581" lon="6.41058">
        <ele>247</ele>
        <time>2017-06-26T10:20:56Z</time>
      </trkpt>
      <trkpt lat="48.57582" lon="6.4106">
        <ele>247</ele>
        <time>2017-06-26T10:20:57Z</time>
      </trkpt>
      <trkpt lat="48.57583" lon="6.41063">
        <ele>247</ele>
        <time>2017-06-26T10:20:58Z</time>
      </trkpt>
      <trkpt lat="48.57584" lon="6.41066">
        <ele>247</ele>
        <time>2017-06-26T10:20:59Z</time>
      </trkpt>
      <trkpt lat="48.57585" lon="6.41068">
        <ele>247</ele>
        <time>2017-06-26T10:21:00Z</time>
      </trkpt>
      <trkpt lat="48.57586" lon="6.41071">
        <ele>247</ele>
        <time>2017-06-26T10:21:01Z</time>
      </trkpt>
      <trkpt lat="48.57587" lon="6.41074">
        <ele>247</ele>
        <time>2017-06-26T10:21:02Z</time>
      </trkpt>
      <trkpt lat="48.57588" lon="6.41077">
        <ele>247</ele>
        <time>2017-06-26T10:21:03Z</time>
      </trkpt>
      <trkpt lat="48.57589" lon="6.41079">
        <ele>247</ele>
        <time>2017-06-26T10:21:04Z</time>
      </trkpt>
      <trkpt lat="48.57591" lon="6.41082">
        <ele>248</ele>
        <time>2017-06-26T10:21:05Z</time>
      </trkpt>
      <trkpt lat="48.57591" lon="6.41085">
        <ele>248</ele>
        <time>2017-06-26T10:21:06Z</time>
      </trkpt>
      <trkpt lat="48.57592" lon="6.41088">
        <ele>248</ele>
        <time>2017-06-26T10:21:07Z</time>
      </trkpt>
      <trkpt lat="48.57592" lon="6.41091">
        <ele>248</ele>
        <time>2017-06-26T10:21:08Z</time>
      </trkpt>
      <trkpt lat="48.57593" lon="6.41094">
        <ele>248</ele>
        <time>2017-06-26T10:21:09Z</time>
      </trkpt>
      <trkpt lat="48.57594" lon="6.41097">
        <ele>248</ele>
        <time>2017-06-26T10:21:10Z</time>
      </trkpt>
      <trkpt lat="48.57595" lon="6.411">
        <ele>248</ele>
        <time>2017-06-26T10:21:11Z</time>
      </trkpt>
      <trkpt lat="48.57596" lon="6.41103">
        <ele>248</ele>
        <time>2017-06-26T10:21:12Z</time>
      </trkpt>
      <trkpt lat="48.57596" lon="6.41107">
        <ele>248</ele>
        <time>2017-06-26T10:21:13Z</time>
      </trkpt>
      <trkpt lat="48.57597" lon="6.4111">
        <ele>248</ele>
        <time>2017-06-26T10:21:14Z</time>
      </trkpt>
      <trkpt lat="48.57598" lon="6.41113">
        <ele>248</ele>
        <time>2017-06-26T10:21:15Z</time>
      </trkpt>
      <trkpt lat="48.57599" lon="6.41116">
        <ele>248</ele>
        <time>2017-06-26T10:21:16Z</time>
      </trkpt>
      <trkpt lat="48.57599" lon="6.41119">
        <ele>248</ele>
        <time>2017-06-26T10:21:17Z</time>
      </trkpt>
      <trkpt lat="48.576" lon="6.41122">
        <ele>248</ele>
        <time>2017-06-26T10:21:18Z</time>
      </trkpt>
      <trkpt lat="48.576" lon="6.41125">
        <ele>248</ele>
        <time>2017-06-26T10:21:19Z</time>
      </trkpt>
      <trkpt lat="48.57601" lon="6.41128">
        <ele>248</ele>
        <time>2017-06-26T10:21:20Z</time>
      </trkpt>
      <trkpt lat="48.57601" lon="6.4113">
        <ele>248</ele>
        <time>2017-06-26T10:21:21Z</time>
      </trkpt>
      <trkpt lat="48.57602" lon="6.41133">
        <ele>248</ele>
        <time>2017-06-26T10:21:22Z</time>
      </trkpt>
      <trkpt lat="48.57602" lon="6.41135">
        <ele>248</ele>
        <time>2017-06-26T10:21:23Z</time>
      </trkpt>
      <trkpt lat="48.57602" lon="6.41137">
        <ele>248</ele>
        <time>2017-06-26T10:21:24Z</time>
      </trkpt>
      <trkpt lat="48.57603" lon="6.41139">
        <ele>248</ele>
        <time>2017-06-26T10:21:25Z</time>
      </trkpt>
      <trkpt lat="48.57603" lon="6.41142">
        <ele>248</ele>
        <time>2017-06-26T10:21:26Z</time>
      </trkpt>
      <trkpt lat="48.57603" lon="6.41144">
        <ele>248</ele>
        <time>2017-06-26T10:21:27Z</time>
      </trkpt>
      <trkpt lat="48.57604" lon="6.41147">
        <ele>248</ele>
        <time>2017-06-26T10:21:28Z</time>
      </trkpt>
      <trkpt lat="48.57604" lon="6.4115">
        <ele>248</ele>
        <time>2017-06-26T10:21:29Z</time>
      </trkpt>
      <trkpt lat="48.57605" lon="6.41153">
        <ele>248</ele>
        <time>2017-06-26T10:21:30Z</time>
      </trkpt>
      <trkpt lat="48.57605" lon="6.41156">
        <ele>248</ele>
        <time>2017-06-26T10:21:31Z</time>
      </trkpt>
      <trkpt lat="48.57605" lon="6.41159">
        <ele>248</ele>
        <time>2017-06-26T10:21:32Z</time>
      </trkpt>
      <trkpt lat="48.57606" lon="6.41162">
        <ele>248</ele>
        <time>2017-06-26T10:21:33Z</time>
      </trkpt>
      <trkpt lat="48.57607" lon="6.41165">
        <ele>248</ele>
        <time>2017-06-26T10:21:34Z</time>
      </trkpt>
      <trkpt lat="48.57608" lon="6.41169">
        <ele>250</ele>
        <time>2017-06-26T10:21:35Z</time>
      </trkpt>
      <trkpt lat="48.57608" lon="6.41172">
        <ele>250</ele>
        <time>2017-06-26T10:21:36Z</time>
      </trkpt>
      <trkpt lat="48.57609" lon="6.41176">
        <ele>250</ele>
        <time>2017-06-26T10:21:37Z</time>
      </trkpt>
      <trkpt lat="48.57609" lon="6.41179">
        <ele>250</ele>
        <time>2017-06-26T10:21:38Z</time>
      </trkpt>
      <trkpt lat="48.57609" lon="6.41182">
        <ele>250</ele>
        <time>2017-06-26T10:21:39Z</time>
      </trkpt>
      <trkpt lat="48.57608" lon="6.41185">
        <ele>250</ele>
        <time>2017-06-26T10:21:40Z</time>
      </trkpt>
      <trkpt lat="48.57608" lon="6.41187">
        <ele>250</ele>
        <time>2017-06-26T10:21:41Z</time>
      </trkpt>
      <trkpt lat="48.57608" lon="6.4119">
        <ele>250</ele>
        <time>2017-06-26T10:21:42Z</time>
      </trkpt>
      <trkpt lat="48.57608" lon="6.41193">
        <ele>250</ele>
        <time>2017-06-26T10:21:43Z</time>
      </trkpt>
      <trkpt lat="48.57608" lon="6.41196">
        <ele>250</ele>
        <time>2017-06-26T10:21:44Z</time>
      </trkpt>
      <trkpt lat="48.57608" lon="6.412">
        <ele>251</ele>
        <time>2017-06-26T10:21:45Z</time>
      </trkpt>
      <trkpt lat="48.57609" lon="6.41203">
        <ele>251</ele>
        <time>2017-06-26T10:21:46Z</time>
      </trkpt>
      <trkpt lat="48.57609" lon="6.41206">
        <ele>251</ele>
        <time>2017-06-26T10:21:47Z</time>
      </trkpt>
      <trkpt lat="48.57609" lon="6.41209">
        <ele>251</ele>
        <time>2017-06-26T10:21:48Z</time>
      </trkpt>
      <trkpt lat="48.5761" lon="6.41212">
        <ele>251</ele>
        <time>2017-06-26T10:21:49Z</time>
      </trkpt>
      <trkpt lat="48.57611" lon="6.41214">
        <ele>251</ele>
        <time>2017-06-26T10:21:50Z</time>
      </trkpt>
      <trkpt lat="48.57612" lon="6.41216">
        <ele>251</ele>
        <time>2017-06-26T10:21:51Z</time>
      </trkpt>
      <trkpt lat="48.57612" lon="6.41219">
        <ele>251</ele>
        <time>2017-06-26T10:21:52Z</time>
      </trkpt>
      <trkpt lat="48.57613" lon="6.41221">
        <ele>251</ele>
        <time>2017-06-26T10:21:53Z</time>
      </trkpt>
      <trkpt lat="48.57614" lon="6.41223">
        <ele>251</ele>
        <time>2017-06-26T10:21:54Z</time>
      </trkpt>
      <trkpt lat="48.57615" lon="6.41226">
        <ele>251</ele>
        <time>2017-06-26T10:21:55Z</time>
      </trkpt>
      <trkpt lat="48.57616" lon="6.41228">
        <ele>251</ele>
        <time>2017-06-26T10:21:56Z</time>
      </trkpt>
      <trkpt lat="48.57617" lon="6.41231">
        <ele>251</ele>
        <time>2017-06-26T10:21:57Z</time>
      </trkpt>
      <trkpt lat="48.57618" lon="6.41233">
        <ele>251</ele>
        <time>2017-06-26T10:21:58Z</time>
      </trkpt>
      <trkpt lat="48.57619" lon="6.41236">
        <ele>251</ele>
        <time>2017-06-26T10:21:59Z</time>
      </trkpt>
      <trkpt lat="48.5762" lon="6.41238">
        <ele>251</ele>
        <time>2017-06-26T10:22:00Z</time>
      </trkpt>
      <trkpt lat="48.57621" lon="6.41241">
        <ele>251</ele>
        <time>2017-06-26T10:22:01Z</time>
      </trkpt>
      <trkpt lat="48.57622" lon="6.41244">
        <ele>251</ele>
        <time>2017-06-26T10:22:02Z</time>
      </trkpt>
      <trkpt lat="48.57622" lon="6.41247">
        <ele>251</ele>
        <time>2017-06-26T10:22:03Z</time>
      </trkpt>
      <trkpt lat="48.57623" lon="6.41249">
        <ele>251</ele>
        <time>2017-06-26T10:22:04Z</time>
      </trkpt>
      <trkpt lat="48.57624" lon="6.41252">
        <ele>251</ele>
        <time>2017-06-26T10:22:05Z</time>
      </trkpt>
      <trkpt lat="48.57626" lon="6.41255">
        <ele>251</ele>
        <time>2017-06-26T10:22:06Z</time>
      </trkpt>
      <trkpt lat="48.57628" lon="6.41257">
        <ele>251</ele>
        <time>2017-06-26T10:22:07Z</time>
      </trkpt>
      <trkpt lat="48.57629" lon="6.4126">
        <ele>251</ele>
        <time>2017-06-26T10:22:08Z</time>
      </trkpt>
      <trkpt lat="48.57631" lon="6.41263">
        <ele>251</ele>
        <time>2017-06-26T10:22:09Z</time>
      </trkpt>
      <trkpt lat="48.57633" lon="6.41265">
        <ele>251</ele>
        <time>2017-06-26T10:22:10Z</time>
      </trkpt>
      <trkpt lat="48.57634" lon="6.41268">
        <ele>251</ele>
        <time>2017-06-26T10:22:11Z</time>
      </trkpt>
      <trkpt lat="48.57636" lon="6.41271">
        <ele>251</ele>
        <time>2017-06-26T10:22:12Z</time>
      </trkpt>
      <trkpt lat="48.57637" lon="6.41274">
        <ele>251</ele>
        <time>2017-06-26T10:22:13Z</time>
      </trkpt>
      <trkpt lat="48.57639" lon="6.41277">
        <ele>251</ele>
        <time>2017-06-26T10:22:14Z</time>
      </trkpt>
      <trkpt lat="48.5764" lon="6.4128">
        <ele>250</ele>
        <time>2017-06-26T10:22:15Z</time>
      </trkpt>
      <trkpt lat="48.57642" lon="6.41283">
        <ele>250</ele>
        <time>2017-06-26T10:22:16Z</time>
      </trkpt>
      <trkpt lat="48.57644" lon="6.41286">
        <ele>250</ele>
        <time>2017-06-26T10:22:17Z</time>
      </trkpt>
      <trkpt lat="48.57645" lon="6.41289">
        <ele>250</ele>
        <time>2017-06-26T10:22:18Z</time>
      </trkpt>
      <trkpt lat="48.57646" lon="6.41292">
        <ele>250</ele>
        <time>2017-06-26T10:22:19Z</time>
      </trkpt>
      <trkpt lat="48.57647" lon="6.41295">
        <ele>250</ele>
        <time>2017-06-26T10:22:20Z</time>
      </trkpt>
      <trkpt lat="48.57648" lon="6.41297">
        <ele>250</ele>
        <time>2017-06-26T10:22:21Z</time>
      </trkpt>
      <trkpt lat="48.57649" lon="6.413">
        <ele>250</ele>
        <time>2017-06-26T10:22:22Z</time>
      </trkpt>
      <trkpt lat="48.5765" lon="6.41302">
        <ele>250</ele>
        <time>2017-06-26T10:22:23Z</time>
      </trkpt>
      <trkpt lat="48.57651" lon="6.41305">
        <ele>250</ele>
        <time>2017-06-26T10:22:24Z</time>
      </trkpt>
      <trkpt lat="48.57651" lon="6.41306">
        <ele>249</ele>
        <time>2017-06-26T10:22:25Z</time>
      </trkpt>
      <trkpt lat="48.57652" lon="6.41308">
        <ele>249</ele>
        <time>2017-06-26T10:22:26Z</time>
      </trkpt>
      <trkpt lat="48.57653" lon="6.4131">
        <ele>249</ele>
        <time>2017-06-26T10:22:27Z</time>
      </trkpt>
      <trkpt lat="48.57654" lon="6.41311">
        <ele>249</ele>
        <time>2017-06-26T10:22:28Z</time>
      </trkpt>
      <trkpt lat="48.57654" lon="6.41313">
        <ele>249</ele>
        <time>2017-06-26T10:22:29Z</time>
      </trkpt>
      <trkpt lat="48.57655" lon="6.41315">
        <ele>249</ele>
        <time>2017-06-26T10:22:30Z</time>
      </trkpt>
      <trkpt lat="48.57656" lon="6.41316">
        <ele>249</ele>
        <time>2017-06-26T10:22:31Z</time>
      </trkpt>
      <trkpt lat="48.57657" lon="6.41318">
        <ele>249</ele>
        <time>2017-06-26T10:22:32Z</time>
      </trkpt>
      <trkpt lat="48.57657" lon="6.4132">
        <ele>249</ele>
        <time>2017-06-26T10:22:33Z</time>
      </trkpt>
      <trkpt lat="48.57657" lon="6.41321">
        <ele>249</ele>
        <time>2017-06-26T10:22:34Z</time>
      </trkpt>
      <trkpt lat="48.57657" lon="6.41323">
        <ele>248</ele>
        <time>2017-06-26T10:22:35Z</time>
      </trkpt>
      <trkpt lat="48.57658" lon="6.41325">
        <ele>248</ele>
        <time>2017-06-26T10:22:36Z</time>
      </trkpt>
      <trkpt lat="48.57658" lon="6.41326">
        <ele>248</ele>
        <time>2017-06-26T10:22:37Z</time>
      </trkpt>
      <trkpt lat="48.57658" lon="6.41328">
        <ele>248</ele>
        <time>2017-06-26T10:22:38Z</time>
      </trkpt>
      <trkpt lat="48.57658" lon="6.4133">
        <ele>248</ele>
        <time>2017-06-26T10:22:39Z</time>
      </trkpt>
      <trkpt lat="48.57659" lon="6.41331">
        <ele>248</ele>
        <time>2017-06-26T10:22:40Z</time>
      </trkpt>
      <trkpt lat="48.57659" lon="6.41334">
        <ele>248</ele>
        <time>2017-06-26T10:22:41Z</time>
      </trkpt>
      <trkpt lat="48.5766" lon="6.41336">
        <ele>248</ele>
        <time>2017-06-26T10:22:42Z</time>
      </trkpt>
      <trkpt lat="48.57661" lon="6.41339">
        <ele>248</ele>
        <time>2017-06-26T10:22:43Z</time>
      </trkpt>
      <trkpt lat="48.57662" lon="6.41341">
        <ele>248</ele>
        <time>2017-06-26T10:22:44Z</time>
      </trkpt>
      <trkpt lat="48.57662" lon="6.41344">
        <ele>248</ele>
        <time>2017-06-26T10:22:45Z</time>
      </trkpt>
      <trkpt lat="48.57663" lon="6.41346">
        <ele>248</ele>
        <time>2017-06-26T10:22:46Z</time>
      </trkpt>
      <trkpt lat="48.57665" lon="6.41349">
        <ele>248</ele>
        <time>2017-06-26T10:22:47Z</time>
      </trkpt>
      <trkpt lat="48.57666" lon="6.41352">
        <ele>248</ele>
        <time>2017-06-26T10:22:48Z</time>
      </trkpt>
      <trkpt lat="48.57668" lon="6.41355">
        <ele>248</ele>
        <time>2017-06-26T10:22:49Z</time>
      </trkpt>
      <trkpt lat="48.57669" lon="6.41357">
        <ele>248</ele>
        <time>2017-06-26T10:22:50Z</time>
      </trkpt>
      <trkpt lat="48.5767" lon="6.4136">
        <ele>248</ele>
        <time>2017-06-26T10:22:51Z</time>
      </trkpt>
      <trkpt lat="48.57672" lon="6.41364">
        <ele>248</ele>
        <time>2017-06-26T10:22:52Z</time>
      </trkpt>
      <trkpt lat="48.57673" lon="6.41367">
        <ele>248</ele>
        <time>2017-06-26T10:22:53Z</time>
      </trkpt>
      <trkpt lat="48.57675" lon="6.4137">
        <ele>248</ele>
        <time>2017-06-26T10:22:54Z</time>
      </trkpt>
      <trkpt lat="48.57676" lon="6.41374">
        <ele>248</ele>
        <time>2017-06-26T10:22:55Z</time>
      </trkpt>
      <trkpt lat="48.57678" lon="6.41377">
        <ele>248</ele>
        <time>2017-06-26T10:22:56Z</time>
      </trkpt>
      <trkpt lat="48.57679" lon="6.41381">
        <ele>248</ele>
        <time>2017-06-26T10:22:57Z</time>
      </trkpt>
      <trkpt lat="48.57681" lon="6.41384">
        <ele>248</ele>
        <time>2017-06-26T10:22:58Z</time>
      </trkpt>
      <trkpt lat="48.57682" lon="6.41387">
        <ele>248</ele>
        <time>2017-06-26T10:22:59Z</time>
      </trkpt>
      <trkpt lat="48.57683" lon="6.41389">
        <ele>248</ele>
        <time>2017-06-26T10:23:00Z</time>
      </trkpt>
      <trkpt lat="48.57684" lon="6.41392">
        <ele>248</ele>
        <time>2017-06-26T10:23:01Z</time>
      </trkpt>
      <trkpt lat="48.57685" lon="6.41395">
        <ele>248</ele>
        <time>2017-06-26T10:23:02Z</time>
      </trkpt>
      <trkpt lat="48.57686" lon="6.41397">
        <ele>248</ele>
        <time>2017-06-26T10:23:03Z</time>
      </trkpt>
      <trkpt lat="48.57687" lon="6.414">
        <ele>248</ele>
        <time>2017-06-26T10:23:04Z</time>
      </trkpt>
      <trkpt lat="48.57688" lon="6.41403">
        <ele>247</ele>
        <time>2017-06-26T10:23:05Z</time>
      </trkpt>
      <trkpt lat="48.57689" lon="6.41405">
        <ele>247</ele>
        <time>2017-06-26T10:23:06Z</time>
      </trkpt>
      <trkpt lat="48.5769" lon="6.41408">
        <ele>247</ele>
        <time>2017-06-26T10:23:07Z</time>
      </trkpt>
      <trkpt lat="48.5769" lon="6.4141">
        <ele>247</ele>
        <time>2017-06-26T10:23:08Z</time>
      </trkpt>
      <trkpt lat="48.57691" lon="6.41413">
        <ele>247</ele>
        <time>2017-06-26T10:23:09Z</time>
      </trkpt>
      <trkpt lat="48.57693" lon="6.41415">
        <ele>247</ele>
        <time>2017-06-26T10:23:10Z</time>
      </trkpt>
      <trkpt lat="48.57694" lon="6.41417">
        <ele>247</ele>
        <time>2017-06-26T10:23:11Z</time>
      </trkpt>
      <trkpt lat="48.57695" lon="6.4142">
        <ele>247</ele>
        <time>2017-06-26T10:23:12Z</time>
      </trkpt>
      <trkpt lat="48.57696" lon="6.41422">
        <ele>247</ele>
        <time>2017-06-26T10:23:13Z</time>
      </trkpt>
      <trkpt lat="48.57697" lon="6.41425">
        <ele>247</ele>
        <time>2017-06-26T10:23:14Z</time>
      </trkpt>
      <trkpt lat="48.57697" lon="6.41427">
        <ele>248</ele>
        <time>2017-06-26T10:23:15Z</time>
      </trkpt>
      <trkpt lat="48.57698" lon="6.41429">
        <ele>248</ele>
        <time>2017-06-26T10:23:16Z</time>
      </trkpt>
      <trkpt lat="48.57699" lon="6.41432">
        <ele>248</ele>
        <time>2017-06-26T10:23:17Z</time>
      </trkpt>
      <trkpt lat="48.577" lon="6.41434">
        <ele>248</ele>
        <time>2017-06-26T10:23:18Z</time>
      </trkpt>
      <trkpt lat="48.577" lon="6.41436">
        <ele>248</ele>
        <time>2017-06-26T10:23:19Z</time>
      </trkpt>
      <trkpt lat="48.57701" lon="6.41439">
        <ele>248</ele>
        <time>2017-06-26T10:23:20Z</time>
      </trkpt>
      <trkpt lat="48.57702" lon="6.41441">
        <ele>248</ele>
        <time>2017-06-26T10:23:21Z</time>
      </trkpt>
      <trkpt lat="48.57703" lon="6.41444">
        <ele>248</ele>
        <time>2017-06-26T10:23:22Z</time>
      </trkpt>
      <trkpt lat="48.57703" lon="6.41447">
        <ele>248</ele>
        <time>2017-06-26T10:23:23Z</time>
      </trkpt>
      <trkpt lat="48.57704" lon="6.4145">
        <ele>248</ele>
        <time>2017-06-26T10:23:24Z</time>
      </trkpt>
      <trkpt lat="48.57705" lon="6.41453">
        <ele>248</ele>
        <time>2017-06-26T10:23:25Z</time>
      </trkpt>
      <trkpt lat="48.57707" lon="6.41456">
        <ele>248</ele>
        <time>2017-06-26T10:23:26Z</time>
      </trkpt>
      <trkpt lat="48.57708" lon="6.41458">
        <ele>248</ele>
        <time>2017-06-26T10:23:27Z</time>
      </trkpt>
      <trkpt lat="48.5771" lon="6.41461">
        <ele>248</ele>
        <time>2017-06-26T10:23:28Z</time>
      </trkpt>
      <trkpt lat="48.57712" lon="6.41464">
        <ele>248</ele>
        <time>2017-06-26T10:23:29Z</time>
      </trkpt>
      <trkpt lat="48.57713" lon="6.41467">
        <ele>248</ele>
        <time>2017-06-26T10:23:30Z</time>
      </trkpt>
      <trkpt lat="48.57715" lon="6.4147">
        <ele>248</ele>
        <time>2017-06-26T10:23:31Z</time>
      </trkpt>
      <trkpt lat="48.57717" lon="6.41473">
        <ele>248</ele>
        <time>2017-06-26T10:23:32Z</time>
      </trkpt>
      <trkpt lat="48.57719" lon="6.41476">
        <ele>248</ele>
        <time>2017-06-26T10:23:33Z</time>
      </trkpt>
      <trkpt lat="48.5772" lon="6.41478">
        <ele>248</ele>
        <time>2017-06-26T10:23:34Z</time>
      </trkpt>
      <trkpt lat="48.57721" lon="6.41481">
        <ele>248</ele>
        <time>2017-06-26T10:23:35Z</time>
      </trkpt>
      <trkpt lat="48.57723" lon="6.41483">
        <ele>248</ele>
        <time>2017-06-26T10:23:36Z</time>
      </trkpt>
      <trkpt lat="48.57724" lon="6.41486">
        <ele>248</ele>
        <time>2017-06-26T10:23:37Z</time>
      </trkpt>
      <trkpt lat="48.57725" lon="6.41489">
        <ele>248</ele>
        <time>2017-06-26T10:23:38Z</time>
      </trkpt>
      <trkpt lat="48.57726" lon="6.41491">
        <ele>248</ele>
        <time>2017-06-26T10:23:39Z</time>
      </trkpt>
      <trkpt lat="48.57727" lon="6.41494">
        <ele>248</ele>
        <time>2017-06-26T10:23:40Z</time>
      </trkpt>
      <trkpt lat="48.57728" lon="6.41497">
        <ele>248</ele>
        <time>2017-06-26T10:23:41Z</time>
      </trkpt>
      <trkpt lat="48.57729" lon="6.415">
        <ele>248</ele>
        <time>2017-06-26T10:23:42Z</time>
      </trkpt>
      <trkpt lat="48.57731" lon="6.41503">
        <ele>248</ele>
        <time>2017-06-26T10:23:43Z</time>
      </trkpt>
      <trkpt lat="48.57732" lon="6.41505">
        <ele>248</ele>
        <time>2017-06-26T10:23:44Z</time>
      </trkpt>
      <trkpt lat="48.57733" lon="6.41507">
        <ele>248</ele>
        <time>2017-06-26T10:23:45Z</time>
      </trkpt>
      <trkpt lat="48.57734" lon="6.4151">
        <ele>248</ele>
        <time>2017-06-26T10:23:46Z</time>
      </trkpt>
      <trkpt lat="48.57736" lon="6.41512">
        <ele>248</ele>
        <time>2017-06-26T10:23:47Z</time>
      </trkpt>
      <trkpt lat="48.57737" lon="6.41514">
        <ele>248</ele>
        <time>2017-06-26T10:23:48Z</time>
      </trkpt>
      <trkpt lat="48.57738" lon="6.41517">
        <ele>248</ele>
        <time>2017-06-26T10:23:49Z</time>
      </trkpt>
      <trkpt lat="48.5774" lon="6.41521">
        <ele>248</ele>
        <time>2017-06-26T10:23:50Z</time>
      </trkpt>
      <trkpt lat="48.57742" lon="6.41524">
        <ele>248</ele>
        <time>2017-06-26T10:23:51Z</time>
      </trkpt>
      <trkpt lat="48.57743" lon="6.41527">
        <ele>248</ele>
        <time>2017-06-26T10:23:52Z</time>
      </trkpt>
      <trkpt lat="48.57744" lon="6.4153">
        <ele>248</ele>
        <time>2017-06-26T10:23:53Z</time>
      </trkpt>
      <trkpt lat="48.57746" lon="6.41532">
        <ele>248</ele>
        <time>2017-06-26T10:23:54Z</time>
      </trkpt>
      <trkpt lat="48.57747" lon="6.41535">
        <ele>248</ele>
        <time>2017-06-26T10:23:55Z</time>
      </trkpt>
      <trkpt lat="48.57748" lon="6.41537">
        <ele>248</ele>
        <time>2017-06-26T10:23:56Z</time>
      </trkpt>
      <trkpt lat="48.57749" lon="6.4154">
        <ele>248</ele>
        <time>2017-06-26T10:23:57Z</time>
      </trkpt>
      <trkpt lat="48.5775" lon="6.41542">
        <ele>248</ele>
        <time>2017-06-26T10:23:58Z</time>
      </trkpt>
      <trkpt lat="48.57751" lon="6.41544">
        <ele>248</ele>
        <time>2017-06-26T10:23:59Z</time>
      </trkpt>
      <trkpt lat="48.57752" lon="6.41546">
        <ele>248</ele>
        <time>2017-06-26T10:24:00Z</time>
      </trkpt>
      <trkpt lat="48.57752" lon="6.41548">
        <ele>248</ele>
        <time>2017-06-26T10:24:01Z</time>
      </trkpt>
      <trkpt lat="48.57753" lon="6.41551">
        <ele>248</ele>
        <time>2017-06-26T10:24:02Z</time>
      </trkpt>
      <trkpt lat="48.57754" lon="6.41553">
        <ele>248</ele>
        <time>2017-06-26T10:24:03Z</time>
      </trkpt>
      <trkpt lat="48.57755" lon="6.41555">
        <ele>248</ele>
        <time>2017-06-26T10:24:04Z</time>
      </trkpt>
      <trkpt lat="48.57755" lon="6.41557">
        <ele>248</ele>
        <time>2017-06-26T10:24:05Z</time>
      </trkpt>
      <trkpt lat="48.57756" lon="6.41558">
        <ele>248</ele>
        <time>2017-06-26T10:24:06Z</time>
      </trkpt>
      <trkpt lat="48.57757" lon="6.4156">
        <ele>248</ele>
        <time>2017-06-26T10:24:07Z</time>
      </trkpt>
      <trkpt lat="48.57758" lon="6.41562">
        <ele>248</ele>
        <time>2017-06-26T10:24:08Z</time>
      </trkpt>
      <trkpt lat="48.57758" lon="6.41564">
        <ele>248</ele>
        <time>2017-06-26T10:24:09Z</time>
      </trkpt>
      <trkpt lat="48.57759" lon="6.41566">
        <ele>248</ele>
        <time>2017-06-26T10:24:10Z</time>
      </trkpt>
      <trkpt lat="48.5776" lon="6.41567">
        <ele>248</ele>
        <time>2017-06-26T10:24:11Z</time>
      </trkpt>
      <trkpt lat="48.57761" lon="6.41569">
        <ele>248</ele>
        <time>2017-06-26T10:24:12Z</time>
      </trkpt>
      <trkpt lat="48.57762" lon="6.4157">
        <ele>248</ele>
        <time>2017-06-26T10:24:13Z</time>
      </trkpt>
      <trkpt lat="48.57763" lon="6.41572">
        <ele>248</ele>
        <time>2017-06-26T10:24:14Z</time>
      </trkpt>
      <trkpt lat="48.57764" lon="6.41573">
        <ele>248</ele>
        <time>2017-06-26T10:24:15Z</time>
      </trkpt>
      <trkpt lat="48.57764" lon="6.41575">
        <ele>248</ele>
        <time>2017-06-26T10:24:16Z</time>
      </trkpt>
      <trkpt lat="48.57765" lon="6.41576">
        <ele>248</ele>
        <time>2017-06-26T10:24:17Z</time>
      </trkpt>
      <trkpt lat="48.57766" lon="6.41578">
        <ele>248</ele>
        <time>2017-06-26T10:24:18Z</time>
      </trkpt>
      <trkpt lat="48.57768" lon="6.4158">
        <ele>248</ele>
        <time>2017-06-26T10:24:19Z</time>
      </trkpt>
      <trkpt lat="48.5777" lon="6.41583">
        <ele>248</ele>
        <time>2017-06-26T10:24:20Z</time>
      </trkpt>
      <trkpt lat="48.57772" lon="6.41585">
        <ele>248</ele>
        <time>2017-06-26T10:24:21Z</time>
      </trkpt>
      <trkpt lat="48.57774" lon="6.41588">
        <ele>248</ele>
        <time>2017-06-26T10:24:22Z</time>
      </trkpt>
      <trkpt lat="48.57775" lon="6.4159">
        <ele>248</ele>
        <time>2017-06-26T10:24:23Z</time>
      </trkpt>
      <trkpt lat="48.57776" lon="6.41593">
        <ele>248</ele>
        <time>2017-06-26T10:24:24Z</time>
      </trkpt>
      <trkpt lat="48.57777" lon="6.41595">
        <ele>247</ele>
        <time>2017-06-26T10:24:25Z</time>
      </trkpt>
      <trkpt lat="48.57778" lon="6.41597">
        <ele>247</ele>
        <time>2017-06-26T10:24:26Z</time>
      </trkpt>
      <trkpt lat="48.57779" lon="6.416">
        <ele>247</ele>
        <time>2017-06-26T10:24:27Z</time>
      </trkpt>
      <trkpt lat="48.5778" lon="6.41602">
        <ele>247</ele>
        <time>2017-06-26T10:24:28Z</time>
      </trkpt>
      <trkpt lat="48.57781" lon="6.41604">
        <ele>247</ele>
        <time>2017-06-26T10:24:29Z</time>
      </trkpt>
      <trkpt lat="48.57782" lon="6.41607">
        <ele>247</ele>
        <time>2017-06-26T10:24:30Z</time>
      </trkpt>
      <trkpt lat="48.57783" lon="6.41609">
        <ele>247</ele>
        <time>2017-06-26T10:24:31Z</time>
      </trkpt>
      <trkpt lat="48.57783" lon="6.41612">
        <ele>247</ele>
        <time>2017-06-26T10:24:32Z</time>
      </trkpt>
      <trkpt lat="48.57784" lon="6.41614">
        <ele>247</ele>
        <time>2017-06-26T10:24:33Z</time>
      </trkpt>
      <trkpt lat="48.57785" lon="6.41617">
        <ele>247</ele>
        <time>2017-06-26T10:24:34Z</time>
      </trkpt>
      <trkpt lat="48.57785" lon="6.41619">
        <ele>247</ele>
        <time>2017-06-26T10:24:35Z</time>
      </trkpt>
      <trkpt lat="48.57785" lon="6.41622">
        <ele>247</ele>
        <time>2017-06-26T10:24:36Z</time>
      </trkpt>
      <trkpt lat="48.57785" lon="6.41626">
        <ele>247</ele>
        <time>2017-06-26T10:24:37Z</time>
      </trkpt>
      <trkpt lat="48.57784" lon="6.41629">
        <ele>247</ele>
        <time>2017-06-26T10:24:38Z</time>
      </trkpt>
      <trkpt lat="48.57784" lon="6.41632">
        <ele>247</ele>
        <time>2017-06-26T10:24:39Z</time>
      </trkpt>
      <trkpt lat="48.57783" lon="6.41635">
        <ele>247</ele>
        <time>2017-06-26T10:24:40Z</time>
      </trkpt>
      <trkpt lat="48.57784" lon="6.41638">
        <ele>247</ele>
        <time>2017-06-26T10:24:41Z</time>
      </trkpt>
      <trkpt lat="48.57784" lon="6.41641">
        <ele>247</ele>
        <time>2017-06-26T10:24:42Z</time>
      </trkpt>
      <trkpt lat="48.57784" lon="6.41644">
        <ele>247</ele>
        <time>2017-06-26T10:24:43Z</time>
      </trkpt>
      <trkpt lat="48.57784" lon="6.41647">
        <ele>247</ele>
        <time>2017-06-26T10:24:44Z</time>
      </trkpt>
      <trkpt lat="48.57785" lon="6.4165">
        <ele>249</ele>
        <time>2017-06-26T10:24:45Z</time>
      </trkpt>
      <trkpt lat="48.57785" lon="6.41652">
        <ele>249</ele>
        <time>2017-06-26T10:24:46Z</time>
      </trkpt>
      <trkpt lat="48.57785" lon="6.41655">
        <ele>249</ele>
        <time>2017-06-26T10:24:47Z</time>
      </trkpt>
      <trkpt lat="48.57786" lon="6.41657">
        <ele>249</ele>
        <time>2017-06-26T10:24:48Z</time>
      </trkpt>
      <trkpt lat="48.57786" lon="6.41659">
        <ele>249</ele>
        <time>2017-06-26T10:24:49Z</time>
      </trkpt>
      <trkpt lat="48.57786" lon="6.41661">
        <ele>249</ele>
        <time>2017-06-26T10:24:50Z</time>
      </trkpt>
      <trkpt lat="48.57787" lon="6.41664">
        <ele>249</ele>
        <time>2017-06-26T10:24:51Z</time>
      </trkpt>
      <trkpt lat="48.57787" lon="6.41666">
        <ele>249</ele>
        <time>2017-06-26T10:24:52Z</time>
      </trkpt>
      <trkpt lat="48.57787" lon="6.41668">
        <ele>249</ele>
        <time>2017-06-26T10:24:53Z</time>
      </trkpt>
      <trkpt lat="48.57788" lon="6.41671">
        <ele>249</ele>
        <time>2017-06-26T10:24:54Z</time>
      </trkpt>
      <trkpt lat="48.57789" lon="6.41674">
        <ele>250</ele>
        <time>2017-06-26T10:24:55Z</time>
      </trkpt>
      <trkpt lat="48.5779" lon="6.41677">
        <ele>250</ele>
        <time>2017-06-26T10:24:56Z</time>
      </trkpt>
      <trkpt lat="48.57791" lon="6.4168">
        <ele>250</ele>
        <time>2017-06-26T10:24:57Z</time>
      </trkpt>
      <trkpt lat="48.57792" lon="6.41683">
        <ele>250</ele>
        <time>2017-06-26T10:24:58Z</time>
      </trkpt>
      <trkpt lat="48.57792" lon="6.41686">
        <ele>250</ele>
        <time>2017-06-26T10:24:59Z</time>
      </trkpt>
      <trkpt lat="48.57792" lon="6.41689">
        <ele>250</ele>
        <time>2017-06-26T10:25:00Z</time>
      </trkpt>
      <trkpt lat="48.57793" lon="6.41691">
        <ele>250</ele>
        <time>2017-06-26T10:25:01Z</time>
      </trkpt>
      <trkpt lat="48.57793" lon="6.41694">
        <ele>250</ele>
        <time>2017-06-26T10:25:02Z</time>
      </trkpt>
      <trkpt lat="48.57793" lon="6.41697">
        <ele>250</ele>
        <time>2017-06-26T10:25:03Z</time>
      </trkpt>
      <trkpt lat="48.57794" lon="6.417">
        <ele>250</ele>
        <time>2017-06-26T10:25:04Z</time>
      </trkpt>
      <trkpt lat="48.57794" lon="6.41703">
        <ele>250</ele>
        <time>2017-06-26T10:25:05Z</time>
      </trkpt>
      <trkpt lat="48.57794" lon="6.41706">
        <ele>250</ele>
        <time>2017-06-26T10:25:06Z</time>
      </trkpt>
      <trkpt lat="48.57794" lon="6.41708">
        <ele>250</ele>
        <time>2017-06-26T10:25:07Z</time>
      </trkpt>
      <trkpt lat="48.57794" lon="6.41711">
        <ele>250</ele>
        <time>2017-06-26T10:25:08Z</time>
      </trkpt>
      <trkpt lat="48.57794" lon="6.41714">
        <ele>250</ele>
        <time>2017-06-26T10:25:09Z</time>
      </trkpt>
      <trkpt lat="48.57794" lon="6.41717">
        <ele>250</ele>
        <time>2017-06-26T10:25:10Z</time>
      </trkpt>
      <trkpt lat="48.57795" lon="6.41721">
        <ele>250</ele>
        <time>2017-06-26T10:25:11Z</time>
      </trkpt>
      <trkpt lat="48.57796" lon="6.41724">
        <ele>250</ele>
        <time>2017-06-26T10:25:12Z</time>
      </trkpt>
      <trkpt lat="48.57797" lon="6.41727">
        <ele>250</ele>
        <time>2017-06-26T10:25:13Z</time>
      </trkpt>
      <trkpt lat="48.57797" lon="6.4173">
        <ele>250</ele>
        <time>2017-06-26T10:25:14Z</time>
      </trkpt>
      <trkpt lat="48.57798" lon="6.41733">
        <ele>251</ele>
        <time>2017-06-26T10:25:15Z</time>
      </trkpt>
      <trkpt lat="48.57799" lon="6.41735">
        <ele>251</ele>
        <time>2017-06-26T10:25:16Z</time>
      </trkpt>
      <trkpt lat="48.578" lon="6.41738">
        <ele>251</ele>
        <time>2017-06-26T10:25:17Z</time>
      </trkpt>
      <trkpt lat="48.57801" lon="6.4174">
        <ele>251</ele>
        <time>2017-06-26T10:25:18Z</time>
      </trkpt>
      <trkpt lat="48.57801" lon="6.41742">
        <ele>251</ele>
        <time>2017-06-26T10:25:19Z</time>
      </trkpt>
      <trkpt lat="48.57802" lon="6.41745">
        <ele>251</ele>
        <time>2017-06-26T10:25:20Z</time>
      </trkpt>
      <trkpt lat="48.57803" lon="6.41747">
        <ele>251</ele>
        <time>2017-06-26T10:25:21Z</time>
      </trkpt>
      <trkpt lat="48.57805" lon="6.41749">
        <ele>251</ele>
        <time>2017-06-26T10:25:22Z</time>
      </trkpt>
      <trkpt lat="48.57806" lon="6.41751">
        <ele>251</ele>
        <time>2017-06-26T10:25:23Z</time>
      </trkpt>
      <trkpt lat="48.57808" lon="6.41753">
        <ele>251</ele>
        <time>2017-06-26T10:25:24Z</time>
      </trkpt>
      <trkpt lat="48.57809" lon="6.41754">
        <ele>251</ele>
        <time>2017-06-26T10:25:25Z</time>
      </trkpt>
      <trkpt lat="48.57811" lon="6.41756">
        <ele>251</ele>
        <time>2017-06-26T10:25:26Z</time>
      </trkpt>
      <trkpt lat="48.57812" lon="6.41758">
        <ele>251</ele>
        <time>2017-06-26T10:25:27Z</time>
      </trkpt>
      <trkpt lat="48.57814" lon="6.41761">
        <ele>251</ele>
        <time>2017-06-26T10:25:28Z</time>
      </trkpt>
      <trkpt lat="48.57816" lon="6.41763">
        <ele>251</ele>
        <time>2017-06-26T10:25:29Z</time>
      </trkpt>
      <trkpt lat="48.57818" lon="6.41765">
        <ele>251</ele>
        <time>2017-06-26T10:25:30Z</time>
      </trkpt>
      <trkpt lat="48.5782" lon="6.41768">
        <ele>251</ele>
        <time>2017-06-26T10:25:31Z</time>
      </trkpt>
      <trkpt lat="48.57821" lon="6.41768">
        <ele>251</ele>
        <time>2017-06-26T10:25:32Z</time>
      </trkpt>
      <trkpt lat="48.57822" lon="6.41768">
        <ele>251</ele>
        <time>2017-06-26T10:25:33Z</time>
      </trkpt>
      <trkpt lat="48.57823" lon="6.41768">
        <ele>251</ele>
        <time>2017-06-26T10:25:34Z</time>
      </trkpt>
      <trkpt lat="48.57824" lon="6.41768">
        <ele>250</ele>
        <time>2017-06-26T10:25:36Z</time>
      </trkpt>
      <trkpt lat="48.57825" lon="6.41768">
        <ele>250</ele>
        <time>2017-06-26T10:25:37Z</time>
      </trkpt>
      <trkpt lat="48.57826" lon="6.41769">
        <ele>250</ele>
        <time>2017-06-26T10:25:38Z</time>
      </trkpt>
      <trkpt lat="48.57827" lon="6.41769">
        <ele>250</ele>
        <time>2017-06-26T10:25:39Z</time>
      </trkpt>
      <trkpt lat="48.57828" lon="6.41769">
        <ele>250</ele>
        <time>2017-06-26T10:25:40Z</time>
      </trkpt>
      <trkpt lat="48.57829" lon="6.41769">
        <ele>250</ele>
        <time>2017-06-26T10:25:42Z</time>
      </trkpt>
      <trkpt lat="48.5783" lon="6.41769">
        <ele>250</ele>
        <time>2017-06-26T10:25:43Z</time>
      </trkpt>
      <trkpt lat="48.57831" lon="6.41767">
        <ele>250</ele>
        <time>2017-06-26T10:25:44Z</time>
      </trkpt>
      <trkpt lat="48.57832" lon="6.41765">
        <ele>248</ele>
        <time>2017-06-26T10:25:45Z</time>
      </trkpt>
      <trkpt lat="48.57833" lon="6.41762">
        <ele>248</ele>
        <time>2017-06-26T10:25:46Z</time>
      </trkpt>
      <trkpt lat="48.57834" lon="6.4176">
        <ele>248</ele>
        <time>2017-06-26T10:25:47Z</time>
      </trkpt>
      <trkpt lat="48.57835" lon="6.41758">
        <ele>248</ele>
        <time>2017-06-26T10:25:48Z</time>
      </trkpt>
      <trkpt lat="48.57836" lon="6.41756">
        <ele>248</ele>
        <time>2017-06-26T10:25:49Z</time>
      </trkpt>
      <trkpt lat="48.57837" lon="6.41753">
        <ele>248</ele>
        <time>2017-06-26T10:25:50Z</time>
      </trkpt>
      <trkpt lat="48.57838" lon="6.41751">
        <ele>248</ele>
        <time>2017-06-26T10:25:51Z</time>
      </trkpt>
      <trkpt lat="48.5784" lon="6.41748">
        <ele>248</ele>
        <time>2017-06-26T10:25:52Z</time>
      </trkpt>
      <trkpt lat="48.57841" lon="6.41746">
        <ele>248</ele>
        <time>2017-06-26T10:25:53Z</time>
      </trkpt>
      <trkpt lat="48.57842" lon="6.41743">
        <ele>248</ele>
        <time>2017-06-26T10:25:54Z</time>
      </trkpt>
      <trkpt lat="48.57843" lon="6.41741">
        <ele>247</ele>
        <time>2017-06-26T10:25:55Z</time>
      </trkpt>
      <trkpt lat="48.57844" lon="6.41738">
        <ele>247</ele>
        <time>2017-06-26T10:25:56Z</time>
      </trkpt>
      <trkpt lat="48.57845" lon="6.41736">
        <ele>247</ele>
        <time>2017-06-26T10:25:57Z</time>
      </trkpt>
      <trkpt lat="48.57846" lon="6.41733">
        <ele>247</ele>
        <time>2017-06-26T10:25:58Z</time>
      </trkpt>
      <trkpt lat="48.57847" lon="6.4173">
        <ele>247</ele>
        <time>2017-06-26T10:25:59Z</time>
      </trkpt>
      <trkpt lat="48.57848" lon="6.41728">
        <ele>247</ele>
        <time>2017-06-26T10:26:00Z</time>
      </trkpt>
      <trkpt lat="48.57849" lon="6.41725">
        <ele>247</ele>
        <time>2017-06-26T10:26:01Z</time>
      </trkpt>
      <trkpt lat="48.57849" lon="6.41723">
        <ele>247</ele>
        <time>2017-06-26T10:26:02Z</time>
      </trkpt>
      <trkpt lat="48.5785" lon="6.4172">
        <ele>247</ele>
        <time>2017-06-26T10:26:03Z</time>
      </trkpt>
      <trkpt lat="48.57851" lon="6.41717">
        <ele>247</ele>
        <time>2017-06-26T10:26:04Z</time>
      </trkpt>
      <trkpt lat="48.57851" lon="6.41715">
        <ele>247</ele>
        <time>2017-06-26T10:26:05Z</time>
      </trkpt>
      <trkpt lat="48.57852" lon="6.41712">
        <ele>247</ele>
        <time>2017-06-26T10:26:06Z</time>
      </trkpt>
      <trkpt lat="48.57852" lon="6.4171">
        <ele>247</ele>
        <time>2017-06-26T10:26:07Z</time>
      </trkpt>
      <trkpt lat="48.57853" lon="6.41707">
        <ele>247</ele>
        <time>2017-06-26T10:26:08Z</time>
      </trkpt>
      <trkpt lat="48.57853" lon="6.41705">
        <ele>247</ele>
        <time>2017-06-26T10:26:09Z</time>
      </trkpt>
      <trkpt lat="48.57854" lon="6.41703">
        <ele>247</ele>
        <time>2017-06-26T10:26:10Z</time>
      </trkpt>
      <trkpt lat="48.57854" lon="6.417">
        <ele>247</ele>
        <time>2017-06-26T10:26:11Z</time>
      </trkpt>
      <trkpt lat="48.57855" lon="6.41698">
        <ele>247</ele>
        <time>2017-06-26T10:26:12Z</time>
      </trkpt>
      <trkpt lat="48.57856" lon="6.41696">
        <ele>247</ele>
        <time>2017-06-26T10:26:13Z</time>
      </trkpt>
      <trkpt lat="48.57856" lon="6.41693">
        <ele>247</ele>
        <time>2017-06-26T10:26:14Z</time>
      </trkpt>
      <trkpt lat="48.57857" lon="6.4169">
        <ele>247</ele>
        <time>2017-06-26T10:26:15Z</time>
      </trkpt>
      <trkpt lat="48.57858" lon="6.41687">
        <ele>247</ele>
        <time>2017-06-26T10:26:16Z</time>
      </trkpt>
      <trkpt lat="48.57859" lon="6.41684">
        <ele>247</ele>
        <time>2017-06-26T10:26:17Z</time>
      </trkpt>
      <trkpt lat="48.57859" lon="6.41681">
        <ele>247</ele>
        <time>2017-06-26T10:26:18Z</time>
      </trkpt>
      <trkpt lat="48.5786" lon="6.41679">
        <ele>247</ele>
        <time>2017-06-26T10:26:19Z</time>
      </trkpt>
      <trkpt lat="48.57861" lon="6.41677">
        <ele>247</ele>
        <time>2017-06-26T10:26:20Z</time>
      </trkpt>
      <trkpt lat="48.57862" lon="6.41674">
        <ele>247</ele>
        <time>2017-06-26T10:26:21Z</time>
      </trkpt>
      <trkpt lat="48.57863" lon="6.41672">
        <ele>247</ele>
        <time>2017-06-26T10:26:22Z</time>
      </trkpt>
      <trkpt lat="48.57864" lon="6.4167">
        <ele>247</ele>
        <time>2017-06-26T10:26:23Z</time>
      </trkpt>
      <trkpt lat="48.57864" lon="6.41668">
        <ele>247</ele>
        <time>2017-06-26T10:26:24Z</time>
      </trkpt>
      <trkpt lat="48.57864" lon="6.41666">
        <ele>249</ele>
        <time>2017-06-26T10:26:25Z</time>
      </trkpt>
      <trkpt lat="48.57864" lon="6.41664">
        <ele>249</ele>
        <time>2017-06-26T10:26:26Z</time>
      </trkpt>
      <trkpt lat="48.57864" lon="6.41663">
        <ele>249</ele>
        <time>2017-06-26T10:26:27Z</time>
      </trkpt>
      <trkpt lat="48.57863" lon="6.41661">
        <ele>249</ele>
        <time>2017-06-26T10:26:28Z</time>
      </trkpt>
      <trkpt lat="48.57863" lon="6.41659">
        <ele>249</ele>
        <time>2017-06-26T10:26:29Z</time>
      </trkpt>
      <trkpt lat="48.57863" lon="6.41657">
        <ele>249</ele>
        <time>2017-06-26T10:26:30Z</time>
      </trkpt>
      <trkpt lat="48.57863" lon="6.41656">
        <ele>249</ele>
        <time>2017-06-26T10:26:31Z</time>
      </trkpt>
      <trkpt lat="48.57862" lon="6.41654">
        <ele>249</ele>
        <time>2017-06-26T10:26:32Z</time>
      </trkpt>
      <trkpt lat="48.57862" lon="6.41652">
        <ele>249</ele>
        <time>2017-06-26T10:26:33Z</time>
      </trkpt>
      <trkpt lat="48.57861" lon="6.41649">
        <ele>249</ele>
        <time>2017-06-26T10:26:34Z</time>
      </trkpt>
      <trkpt lat="48.5786" lon="6.41646">
        <ele>250</ele>
        <time>2017-06-26T10:26:35Z</time>
      </trkpt>
      <trkpt lat="48.57859" lon="6.41643">
        <ele>250</ele>
        <time>2017-06-26T10:26:36Z</time>
      </trkpt>
      <trkpt lat="48.57858" lon="6.4164">
        <ele>250</ele>
        <time>2017-06-26T10:26:37Z</time>
      </trkpt>
      <trkpt lat="48.57857" lon="6.41637">
        <ele>250</ele>
        <time>2017-06-26T10:26:38Z</time>
      </trkpt>
      <trkpt lat="48.57855" lon="6.41634">
        <ele>250</ele>
        <time>2017-06-26T10:26:39Z</time>
      </trkpt>
      <trkpt lat="48.57854" lon="6.41631">
        <ele>250</ele>
        <time>2017-06-26T10:26:40Z</time>
      </trkpt>
      <trkpt lat="48.57853" lon="6.41628">
        <ele>250</ele>
        <time>2017-06-26T10:26:41Z</time>
      </trkpt>
      <trkpt lat="48.57852" lon="6.41625">
        <ele>250</ele>
        <time>2017-06-26T10:26:42Z</time>
      </trkpt>
      <trkpt lat="48.5785" lon="6.41622">
        <ele>250</ele>
        <time>2017-06-26T10:26:43Z</time>
      </trkpt>
      <trkpt lat="48.5785" lon="6.41618">
        <ele>250</ele>
        <time>2017-06-26T10:26:44Z</time>
      </trkpt>
      <trkpt lat="48.57849" lon="6.41614">
        <ele>251</ele>
        <time>2017-06-26T10:26:45Z</time>
      </trkpt>
      <trkpt lat="48.57848" lon="6.41611">
        <ele>251</ele>
        <time>2017-06-26T10:26:46Z</time>
      </trkpt>
      <trkpt lat="48.57848" lon="6.41607">
        <ele>251</ele>
        <time>2017-06-26T10:26:47Z</time>
      </trkpt>
      <trkpt lat="48.57847" lon="6.41604">
        <ele>251</ele>
        <time>2017-06-26T10:26:48Z</time>
      </trkpt>
      <trkpt lat="48.57847" lon="6.416">
        <ele>251</ele>
        <time>2017-06-26T10:26:49Z</time>
      </trkpt>
      <trkpt lat="48.57847" lon="6.41597">
        <ele>251</ele>
        <time>2017-06-26T10:26:50Z</time>
      </trkpt>
      <trkpt lat="48.57846" lon="6.41594">
        <ele>251</ele>
        <time>2017-06-26T10:26:51Z</time>
      </trkpt>
      <trkpt lat="48.57846" lon="6.4159">
        <ele>251</ele>
        <time>2017-06-26T10:26:52Z</time>
      </trkpt>
      <trkpt lat="48.57846" lon="6.41588">
        <ele>251</ele>
        <time>2017-06-26T10:26:53Z</time>
      </trkpt>
      <trkpt lat="48.57845" lon="6.41585">
        <ele>251</ele>
        <time>2017-06-26T10:26:54Z</time>
      </trkpt>
      <trkpt lat="48.57845" lon="6.41582">
        <ele>252</ele>
        <time>2017-06-26T10:26:55Z</time>
      </trkpt>
      <trkpt lat="48.57845" lon="6.4158">
        <ele>252</ele>
        <time>2017-06-26T10:26:56Z</time>
      </trkpt>
      <trkpt lat="48.57844" lon="6.41577">
        <ele>252</ele>
        <time>2017-06-26T10:26:57Z</time>
      </trkpt>
      <trkpt lat="48.57844" lon="6.41574">
        <ele>252</ele>
        <time>2017-06-26T10:26:58Z</time>
      </trkpt>
      <trkpt lat="48.57844" lon="6.41571">
        <ele>252</ele>
        <time>2017-06-26T10:26:59Z</time>
      </trkpt>
      <trkpt lat="48.57843" lon="6.41568">
        <ele>252</ele>
        <time>2017-06-26T10:27:00Z</time>
      </trkpt>
      <trkpt lat="48.57843" lon="6.41565">
        <ele>252</ele>
        <time>2017-06-26T10:27:01Z</time>
      </trkpt>
      <trkpt lat="48.57843" lon="6.41562">
        <ele>252</ele>
        <time>2017-06-26T10:27:02Z</time>
      </trkpt>
      <trkpt lat="48.57843" lon="6.41559">
        <ele>252</ele>
        <time>2017-06-26T10:27:03Z</time>
      </trkpt>
      <trkpt lat="48.57842" lon="6.41557">
        <ele>252</ele>
        <time>2017-06-26T10:27:04Z</time>
      </trkpt>
      <trkpt lat="48.57842" lon="6.41555">
        <ele>254</ele>
        <time>2017-06-26T10:27:05Z</time>
      </trkpt>
      <trkpt lat="48.57842" lon="6.41553">
        <ele>254</ele>
        <time>2017-06-26T10:27:06Z</time>
      </trkpt>
      <trkpt lat="48.57842" lon="6.4155">
        <ele>254</ele>
        <time>2017-06-26T10:27:07Z</time>
      </trkpt>
      <trkpt lat="48.57842" lon="6.41548">
        <ele>254</ele>
        <time>2017-06-26T10:27:08Z</time>
      </trkpt>
      <trkpt lat="48.57841" lon="6.41546">
        <ele>254</ele>
        <time>2017-06-26T10:27:09Z</time>
      </trkpt>
      <trkpt lat="48.57842" lon="6.41543">
        <ele>255</ele>
        <time>2017-06-26T10:27:10Z</time>
      </trkpt>
      <trkpt lat="48.57842" lon="6.41541">
        <ele>255</ele>
        <time>2017-06-26T10:27:11Z</time>
      </trkpt>
      <trkpt lat="48.57842" lon="6.41539">
        <ele>255</ele>
        <time>2017-06-26T10:27:12Z</time>
      </trkpt>
      <trkpt lat="48.57842" lon="6.41536">
        <ele>255</ele>
        <time>2017-06-26T10:27:13Z</time>
      </trkpt>
      <trkpt lat="48.57842" lon="6.41534">
        <ele>255</ele>
        <time>2017-06-26T10:27:14Z</time>
      </trkpt>
      <trkpt lat="48.57842" lon="6.41532">
        <ele>255</ele>
        <time>2017-06-26T10:27:15Z</time>
      </trkpt>
      <trkpt lat="48.57843" lon="6.41529">
        <ele>255</ele>
        <time>2017-06-26T10:27:16Z</time>
      </trkpt>
      <trkpt lat="48.57843" lon="6.41526">
        <ele>255</ele>
        <time>2017-06-26T10:27:17Z</time>
      </trkpt>
      <trkpt lat="48.57844" lon="6.41523">
        <ele>255</ele>
        <time>2017-06-26T10:27:18Z</time>
      </trkpt>
      <trkpt lat="48.57844" lon="6.4152">
        <ele>255</ele>
        <time>2017-06-26T10:27:19Z</time>
      </trkpt>
      <trkpt lat="48.57845" lon="6.41517">
        <ele>255</ele>
        <time>2017-06-26T10:27:20Z</time>
      </trkpt>
      <trkpt lat="48.57845" lon="6.41515">
        <ele>255</ele>
        <time>2017-06-26T10:27:21Z</time>
      </trkpt>
      <trkpt lat="48.57845" lon="6.41512">
        <ele>255</ele>
        <time>2017-06-26T10:27:22Z</time>
      </trkpt>
      <trkpt lat="48.57846" lon="6.41509">
        <ele>255</ele>
        <time>2017-06-26T10:27:23Z</time>
      </trkpt>
      <trkpt lat="48.57846" lon="6.41507">
        <ele>255</ele>
        <time>2017-06-26T10:27:24Z</time>
      </trkpt>
      <trkpt lat="48.57846" lon="6.41504">
        <ele>257</ele>
        <time>2017-06-26T10:27:25Z</time>
      </trkpt>
      <trkpt lat="48.57847" lon="6.41503">
        <ele>257</ele>
        <time>2017-06-26T10:27:26Z</time>
      </trkpt>
      <trkpt lat="48.57847" lon="6.41501">
        <ele>257</ele>
        <time>2017-06-26T10:27:27Z</time>
      </trkpt>
      <trkpt lat="48.57848" lon="6.415">
        <ele>257</ele>
        <time>2017-06-26T10:27:28Z</time>
      </trkpt>
      <trkpt lat="48.57848" lon="6.41498">
        <ele>257</ele>
        <time>2017-06-26T10:27:29Z</time>
      </trkpt>
      <trkpt lat="48.57849" lon="6.41497">
        <ele>257</ele>
        <time>2017-06-26T10:27:30Z</time>
      </trkpt>
      <trkpt lat="48.57849" lon="6.41495">
        <ele>257</ele>
        <time>2017-06-26T10:27:31Z</time>
      </trkpt>
      <trkpt lat="48.5785" lon="6.41494">
        <ele>257</ele>
        <time>2017-06-26T10:27:32Z</time>
      </trkpt>
      <trkpt lat="48.5785" lon="6.41493">
        <ele>257</ele>
        <time>2017-06-26T10:27:33Z</time>
      </trkpt>
      <trkpt lat="48.57851" lon="6.41491">
        <ele>257</ele>
        <time>2017-06-26T10:27:34Z</time>
      </trkpt>
      <trkpt lat="48.57851" lon="6.4149">
        <ele>259</ele>
        <time>2017-06-26T10:27:35Z</time>
      </trkpt>
      <trkpt lat="48.57852" lon="6.41489">
        <ele>259</ele>
        <time>2017-06-26T10:27:36Z</time>
      </trkpt>
      <trkpt lat="48.57852" lon="6.41488">
        <ele>259</ele>
        <time>2017-06-26T10:27:37Z</time>
      </trkpt>
      <trkpt lat="48.57853" lon="6.41487">
        <ele>259</ele>
        <time>2017-06-26T10:27:38Z</time>
      </trkpt>
      <trkpt lat="48.57853" lon="6.41485">
        <ele>259</ele>
        <time>2017-06-26T10:27:39Z</time>
      </trkpt>
      <trkpt lat="48.57854" lon="6.41484">
        <ele>259</ele>
        <time>2017-06-26T10:27:40Z</time>
      </trkpt>
      <trkpt lat="48.57854" lon="6.41483">
        <ele>259</ele>
        <time>2017-06-26T10:27:41Z</time>
      </trkpt>
      <trkpt lat="48.57854" lon="6.41482">
        <ele>259</ele>
        <time>2017-06-26T10:27:42Z</time>
      </trkpt>
      <trkpt lat="48.57855" lon="6.41481">
        <ele>259</ele>
        <time>2017-06-26T10:27:43Z</time>
      </trkpt>
      <trkpt lat="48.57855" lon="6.41479">
        <ele>259</ele>
        <time>2017-06-26T10:27:44Z</time>
      </trkpt>
      <trkpt lat="48.57855" lon="6.41478">
        <ele>260</ele>
        <time>2017-06-26T10:27:45Z</time>
      </trkpt>
      <trkpt lat="48.57855" lon="6.41477">
        <ele>260</ele>
        <time>2017-06-26T10:27:46Z</time>
      </trkpt>
      <trkpt lat="48.57855" lon="6.41475">
        <ele>260</ele>
        <time>2017-06-26T10:27:47Z</time>
      </trkpt>
      <trkpt lat="48.57856" lon="6.41474">
        <ele>260</ele>
        <time>2017-06-26T10:27:48Z</time>
      </trkpt>
      <trkpt lat="48.57856" lon="6.41473">
        <ele>260</ele>
        <time>2017-06-26T10:27:49Z</time>
      </trkpt>
      <trkpt lat="48.57856" lon="6.41471">
        <ele>260</ele>
        <time>2017-06-26T10:27:50Z</time>
      </trkpt>
      <trkpt lat="48.57856" lon="6.4147">
        <ele>260</ele>
        <time>2017-06-26T10:27:51Z</time>
      </trkpt>
      <trkpt lat="48.57856" lon="6.41469">
        <ele>260</ele>
        <time>2017-06-26T10:27:52Z</time>
      </trkpt>
      <trkpt lat="48.57857" lon="6.41468">
        <ele>260</ele>
        <time>2017-06-26T10:27:53Z</time>
      </trkpt>
      <trkpt lat="48.57857" lon="6.41467">
        <ele>260</ele>
        <time>2017-06-26T10:27:55Z</time>
      </trkpt>
      <trkpt lat="48.57857" lon="6.41466">
        <ele>260</ele>
        <time>2017-06-26T10:27:56Z</time>
      </trkpt>
      <trkpt lat="48.57857" lon="6.41465">
        <ele>260</ele>
        <time>2017-06-26T10:27:58Z</time>
      </trkpt>
      <trkpt lat="48.57857" lon="6.41464">
        <ele>260</ele>
        <time>2017-06-26T10:27:59Z</time>
      </trkpt>
      <trkpt lat="48.57857" lon="6.41463">
        <ele>260</ele>
        <time>2017-06-26T10:28:01Z</time>
      </trkpt>
      <trkpt lat="48.57857" lon="6.41462">
        <ele>260</ele>
        <time>2017-06-26T10:28:02Z</time>
      </trkpt>
      <trkpt lat="48.57857" lon="6.41461">
        <ele>260</ele>
        <time>2017-06-26T10:28:04Z</time>
      </trkpt>
      <trkpt lat="48.57857" lon="6.4146">
        <ele>261</ele>
        <time>2017-06-26T10:28:05Z</time>
      </trkpt>
      <trkpt lat="48.57857" lon="6.41459">
        <ele>261</ele>
        <time>2017-06-26T10:28:07Z</time>
      </trkpt>
      <trkpt lat="48.57857" lon="6.41458">
        <ele>261</ele>
        <time>2017-06-26T10:28:08Z</time>
      </trkpt>
      <trkpt lat="48.57857" lon="6.41457">
        <ele>261</ele>
        <time>2017-06-26T10:28:10Z</time>
      </trkpt>
      <trkpt lat="48.57856" lon="6.41457">
        <ele>261</ele>
        <time>2017-06-26T10:28:14Z</time>
      </trkpt>
      <trkpt lat="48.57856" lon="6.41456">
        <ele>261</ele>
        <time>2017-06-26T10:28:15Z</time>
      </trkpt>
      <trkpt lat="48.57855" lon="6.41456">
        <ele>261</ele>
        <time>2017-06-26T10:28:20Z</time>
      </trkpt>
      <trkpt lat="48.57855" lon="6.41455">
        <ele>261</ele>
        <time>2017-06-26T10:28:21Z</time>
      </trkpt>
      <trkpt lat="48.57854" lon="6.41455">
        <ele>261</ele>
        <time>2017-06-26T10:28:25Z</time>
      </trkpt>
      <trkpt lat="48.57854" lon="6.41454">
        <ele>261</ele>
        <time>2017-06-26T10:28:26Z</time>
      </trkpt>
      <trkpt lat="48.57853" lon="6.41454">
        <ele>261</ele>
        <time>2017-06-26T10:28:30Z</time>
      </trkpt>
      <trkpt lat="48.57853" lon="6.41453">
        <ele>261</ele>
        <time>2017-06-26T10:28:32Z</time>
      </trkpt>
      <trkpt lat="48.57852" lon="6.41453">
        <ele>261</ele>
        <time>2017-06-26T10:28:35Z</time>
      </trkpt>
      <trkpt lat="48.57852" lon="6.41452">
        <ele>261</ele>
        <time>2017-06-26T10:28:38Z</time>
      </trkpt>
      <trkpt lat="48.57851" lon="6.41452">
        <ele>261</ele>
        <time>2017-06-26T10:28:40Z</time>
      </trkpt>
      <trkpt lat="48.57851" lon="6.41451">
        <ele>261</ele>
        <time>2017-06-26T10:28:43Z</time>
      </trkpt>
      <trkpt lat="48.5785" lon="6.41451">
        <ele>261</ele>
        <time>2017-06-26T10:28:45Z</time>
      </trkpt>
      <trkpt lat="48.5785" lon="6.4145">
        <ele>261</ele>
        <time>2017-06-26T10:28:49Z</time>
      </trkpt>
      <trkpt lat="48.57848" lon="6.41449">
        <ele>261</ele>
        <time>2017-06-26T10:28:50Z</time>
      </trkpt>
      <trkpt lat="48.57847" lon="6.41448">
        <ele>261</ele>
        <time>2017-06-26T10:28:51Z</time>
      </trkpt>
      <trkpt lat="48.57846" lon="6.41446">
        <ele>261</ele>
        <time>2017-06-26T10:28:52Z</time>
      </trkpt>
      <trkpt lat="48.57845" lon="6.41445">
        <ele>261</ele>
        <time>2017-06-26T10:28:53Z</time>
      </trkpt>
      <trkpt lat="48.57844" lon="6.41444">
        <ele>261</ele>
        <time>2017-06-26T10:28:54Z</time>
      </trkpt>
      <trkpt lat="48.57842" lon="6.41442">
        <ele>260</ele>
        <time>2017-06-26T10:28:55Z</time>
      </trkpt>
      <trkpt lat="48.57841" lon="6.41441">
        <ele>260</ele>
        <time>2017-06-26T10:28:56Z</time>
      </trkpt>
      <trkpt lat="48.57839" lon="6.41439">
        <ele>260</ele>
        <time>2017-06-26T10:28:57Z</time>
      </trkpt>
      <trkpt lat="48.57837" lon="6.41437">
        <ele>260</ele>
        <time>2017-06-26T10:28:58Z</time>
      </trkpt>
      <trkpt lat="48.57835" lon="6.41434">
        <ele>260</ele>
        <time>2017-06-26T10:28:59Z</time>
      </trkpt>
      <trkpt lat="48.57833" lon="6.41432">
        <ele>260</ele>
        <time>2017-06-26T10:29:00Z</time>
      </trkpt>
      <trkpt lat="48.57832" lon="6.4143">
        <ele>260</ele>
        <time>2017-06-26T10:29:01Z</time>
      </trkpt>
      <trkpt lat="48.5783" lon="6.41428">
        <ele>260</ele>
        <time>2017-06-26T10:29:02Z</time>
      </trkpt>
      <trkpt lat="48.57829" lon="6.41425">
        <ele>260</ele>
        <time>2017-06-26T10:29:03Z</time>
      </trkpt>
      <trkpt lat="48.57827" lon="6.41423">
        <ele>260</ele>
        <time>2017-06-26T10:29:04Z</time>
      </trkpt>
      <trkpt lat="48.57826" lon="6.4142">
        <ele>259</ele>
        <time>2017-06-26T10:29:05Z</time>
      </trkpt>
      <trkpt lat="48.57825" lon="6.41417">
        <ele>259</ele>
        <time>2017-06-26T10:29:06Z</time>
      </trkpt>
      <trkpt lat="48.57824" lon="6.41414">
        <ele>259</ele>
        <time>2017-06-26T10:29:07Z</time>
      </trkpt>
      <trkpt lat="48.57822" lon="6.41411">
        <ele>259</ele>
        <time>2017-06-26T10:29:08Z</time>
      </trkpt>
      <trkpt lat="48.57821" lon="6.41407">
        <ele>259</ele>
        <time>2017-06-26T10:29:09Z</time>
      </trkpt>
      <trkpt lat="48.5782" lon="6.41404">
        <ele>259</ele>
        <time>2017-06-26T10:29:10Z</time>
      </trkpt>
      <trkpt lat="48.57819" lon="6.41401">
        <ele>259</ele>
        <time>2017-06-26T10:29:11Z</time>
      </trkpt>
      <trkpt lat="48.57818" lon="6.41398">
        <ele>259</ele>
        <time>2017-06-26T10:29:12Z</time>
      </trkpt>
      <trkpt lat="48.57818" lon="6.41395">
        <ele>259</ele>
        <time>2017-06-26T10:29:13Z</time>
      </trkpt>
      <trkpt lat="48.57817" lon="6.41392">
        <ele>259</ele>
        <time>2017-06-26T10:29:14Z</time>
      </trkpt>
      <trkpt lat="48.57816" lon="6.41389">
        <ele>261</ele>
        <time>2017-06-26T10:29:15Z</time>
      </trkpt>
      <trkpt lat="48.57814" lon="6.41385">
        <ele>261</ele>
        <time>2017-06-26T10:29:16Z</time>
      </trkpt>
      <trkpt lat="48.57813" lon="6.41382">
        <ele>261</ele>
        <time>2017-06-26T10:29:17Z</time>
      </trkpt>
      <trkpt lat="48.57812" lon="6.41379">
        <ele>261</ele>
        <time>2017-06-26T10:29:18Z</time>
      </trkpt>
      <trkpt lat="48.57811" lon="6.41375">
        <ele>261</ele>
        <time>2017-06-26T10:29:19Z</time>
      </trkpt>
      <trkpt lat="48.57809" lon="6.41372">
        <ele>261</ele>
        <time>2017-06-26T10:29:20Z</time>
      </trkpt>
      <trkpt lat="48.57808" lon="6.41368">
        <ele>261</ele>
        <time>2017-06-26T10:29:21Z</time>
      </trkpt>
      <trkpt lat="48.57807" lon="6.41365">
        <ele>261</ele>
        <time>2017-06-26T10:29:22Z</time>
      </trkpt>
      <trkpt lat="48.57806" lon="6.41361">
        <ele>261</ele>
        <time>2017-06-26T10:29:23Z</time>
      </trkpt>
      <trkpt lat="48.57805" lon="6.41357">
        <ele>261</ele>
        <time>2017-06-26T10:29:24Z</time>
      </trkpt>
      <trkpt lat="48.57804" lon="6.41353">
        <ele>261</ele>
        <time>2017-06-26T10:29:25Z</time>
      </trkpt>
      <trkpt lat="48.57802" lon="6.41349">
        <ele>261</ele>
        <time>2017-06-26T10:29:26Z</time>
      </trkpt>
      <trkpt lat="48.57801" lon="6.41345">
        <ele>261</ele>
        <time>2017-06-26T10:29:27Z</time>
      </trkpt>
      <trkpt lat="48.578" lon="6.41341">
        <ele>261</ele>
        <time>2017-06-26T10:29:28Z</time>
      </trkpt>
      <trkpt lat="48.57799" lon="6.41337">
        <ele>261</ele>
        <time>2017-06-26T10:29:29Z</time>
      </trkpt>
      <trkpt lat="48.57798" lon="6.41333">
        <ele>261</ele>
        <time>2017-06-26T10:29:30Z</time>
      </trkpt>
      <trkpt lat="48.57797" lon="6.4133">
        <ele>261</ele>
        <time>2017-06-26T10:29:31Z</time>
      </trkpt>
      <trkpt lat="48.57796" lon="6.41326">
        <ele>261</ele>
        <time>2017-06-26T10:29:32Z</time>
      </trkpt>
      <trkpt lat="48.57795" lon="6.41323">
        <ele>261</ele>
        <time>2017-06-26T10:29:33Z</time>
      </trkpt>
      <trkpt lat="48.57794" lon="6.41319">
        <ele>261</ele>
        <time>2017-06-26T10:29:34Z</time>
      </trkpt>
      <trkpt lat="48.57793" lon="6.41316">
        <ele>261</ele>
        <time>2017-06-26T10:29:35Z</time>
      </trkpt>
      <trkpt lat="48.57791" lon="6.41313">
        <ele>261</ele>
        <time>2017-06-26T10:29:36Z</time>
      </trkpt>
      <trkpt lat="48.5779" lon="6.4131">
        <ele>261</ele>
        <time>2017-06-26T10:29:37Z</time>
      </trkpt>
      <trkpt lat="48.57788" lon="6.41307">
        <ele>261</ele>
        <time>2017-06-26T10:29:38Z</time>
      </trkpt>
      <trkpt lat="48.57786" lon="6.41305">
        <ele>261</ele>
        <time>2017-06-26T10:29:39Z</time>
      </trkpt>
      <trkpt lat="48.57785" lon="6.41302">
        <ele>261</ele>
        <time>2017-06-26T10:29:40Z</time>
      </trkpt>
      <trkpt lat="48.57783" lon="6.413">
        <ele>261</ele>
        <time>2017-06-26T10:29:41Z</time>
      </trkpt>
      <trkpt lat="48.57782" lon="6.41296">
        <ele>261</ele>
        <time>2017-06-26T10:29:42Z</time>
      </trkpt>
      <trkpt lat="48.57781" lon="6.41292">
        <ele>261</ele>
        <time>2017-06-26T10:29:43Z</time>
      </trkpt>
      <trkpt lat="48.57779" lon="6.41289">
        <ele>261</ele>
        <time>2017-06-26T10:29:44Z</time>
      </trkpt>
      <trkpt lat="48.57778" lon="6.41285">
        <ele>261</ele>
        <time>2017-06-26T10:29:45Z</time>
      </trkpt>
      <trkpt lat="48.57777" lon="6.41281">
        <ele>261</ele>
        <time>2017-06-26T10:29:46Z</time>
      </trkpt>
      <trkpt lat="48.57775" lon="6.41277">
        <ele>261</ele>
        <time>2017-06-26T10:29:47Z</time>
      </trkpt>
      <trkpt lat="48.57774" lon="6.41273">
        <ele>261</ele>
        <time>2017-06-26T10:29:48Z</time>
      </trkpt>
      <trkpt lat="48.57772" lon="6.41269">
        <ele>261</ele>
        <time>2017-06-26T10:29:49Z</time>
      </trkpt>
      <trkpt lat="48.57771" lon="6.41265">
        <ele>261</ele>
        <time>2017-06-26T10:29:50Z</time>
      </trkpt>
      <trkpt lat="48.5777" lon="6.41261">
        <ele>261</ele>
        <time>2017-06-26T10:29:51Z</time>
      </trkpt>
      <trkpt lat="48.57769" lon="6.41256">
        <ele>261</ele>
        <time>2017-06-26T10:29:52Z</time>
      </trkpt>
      <trkpt lat="48.57768" lon="6.41252">
        <ele>261</ele>
        <time>2017-06-26T10:29:53Z</time>
      </trkpt>
      <trkpt lat="48.57767" lon="6.41248">
        <ele>261</ele>
        <time>2017-06-26T10:29:54Z</time>
      </trkpt>
      <trkpt lat="48.57766" lon="6.41245">
        <ele>262</ele>
        <time>2017-06-26T10:29:55Z</time>
      </trkpt>
      <trkpt lat="48.57765" lon="6.41241">
        <ele>262</ele>
        <time>2017-06-26T10:29:56Z</time>
      </trkpt>
      <trkpt lat="48.57764" lon="6.41237">
        <ele>262</ele>
        <time>2017-06-26T10:29:57Z</time>
      </trkpt>
      <trkpt lat="48.57764" lon="6.41234">
        <ele>262</ele>
        <time>2017-06-26T10:29:58Z</time>
      </trkpt>
      <trkpt lat="48.57764" lon="6.4123">
        <ele>262</ele>
        <time>2017-06-26T10:29:59Z</time>
      </trkpt>
      <trkpt lat="48.57764" lon="6.41227">
        <ele>262</ele>
        <time>2017-06-26T10:30:00Z</time>
      </trkpt>
      <trkpt lat="48.57763" lon="6.41223">
        <ele>262</ele>
        <time>2017-06-26T10:30:01Z</time>
      </trkpt>
      <trkpt lat="48.57763" lon="6.4122">
        <ele>262</ele>
        <time>2017-06-26T10:30:02Z</time>
      </trkpt>
      <trkpt lat="48.57763" lon="6.41216">
        <ele>262</ele>
        <time>2017-06-26T10:30:03Z</time>
      </trkpt>
      <trkpt lat="48.57762" lon="6.41213">
        <ele>262</ele>
        <time>2017-06-26T10:30:04Z</time>
      </trkpt>
      <trkpt lat="48.57761" lon="6.41209">
        <ele>260</ele>
        <time>2017-06-26T10:30:05Z</time>
      </trkpt>
      <trkpt lat="48.5776" lon="6.41206">
        <ele>260</ele>
        <time>2017-06-26T10:30:06Z</time>
      </trkpt>
      <trkpt lat="48.5776" lon="6.41202">
        <ele>260</ele>
        <time>2017-06-26T10:30:07Z</time>
      </trkpt>
      <trkpt lat="48.57759" lon="6.41199">
        <ele>260</ele>
        <time>2017-06-26T10:30:08Z</time>
      </trkpt>
      <trkpt lat="48.57759" lon="6.41196">
        <ele>260</ele>
        <time>2017-06-26T10:30:09Z</time>
      </trkpt>
      <trkpt lat="48.57758" lon="6.41193">
        <ele>260</ele>
        <time>2017-06-26T10:30:10Z</time>
      </trkpt>
      <trkpt lat="48.57758" lon="6.41189">
        <ele>260</ele>
        <time>2017-06-26T10:30:11Z</time>
      </trkpt>
      <trkpt lat="48.57757" lon="6.41186">
        <ele>260</ele>
        <time>2017-06-26T10:30:12Z</time>
      </trkpt>
      <trkpt lat="48.57756" lon="6.41183">
        <ele>260</ele>
        <time>2017-06-26T10:30:13Z</time>
      </trkpt>
      <trkpt lat="48.57756" lon="6.4118">
        <ele>260</ele>
        <time>2017-06-26T10:30:14Z</time>
      </trkpt>
      <trkpt lat="48.57755" lon="6.41177">
        <ele>261</ele>
        <time>2017-06-26T10:30:15Z</time>
      </trkpt>
      <trkpt lat="48.57755" lon="6.41174">
        <ele>261</ele>
        <time>2017-06-26T10:30:16Z</time>
      </trkpt>
      <trkpt lat="48.57754" lon="6.41169">
        <ele>261</ele>
        <time>2017-06-26T10:30:17Z</time>
      </trkpt>
      <trkpt lat="48.57753" lon="6.41165">
        <ele>261</ele>
        <time>2017-06-26T10:30:18Z</time>
      </trkpt>
      <trkpt lat="48.57751" lon="6.41161">
        <ele>261</ele>
        <time>2017-06-26T10:30:19Z</time>
      </trkpt>
      <trkpt lat="48.5775" lon="6.41157">
        <ele>261</ele>
        <time>2017-06-26T10:30:20Z</time>
      </trkpt>
      <trkpt lat="48.5775" lon="6.41153">
        <ele>261</ele>
        <time>2017-06-26T10:30:21Z</time>
      </trkpt>
      <trkpt lat="48.57749" lon="6.4115">
        <ele>261</ele>
        <time>2017-06-26T10:30:22Z</time>
      </trkpt>
      <trkpt lat="48.57748" lon="6.41146">
        <ele>261</ele>
        <time>2017-06-26T10:30:23Z</time>
      </trkpt>
      <trkpt lat="48.57747" lon="6.41142">
        <ele>261</ele>
        <time>2017-06-26T10:30:24Z</time>
      </trkpt>
      <trkpt lat="48.57747" lon="6.41139">
        <ele>261</ele>
        <time>2017-06-26T10:30:25Z</time>
      </trkpt>
      <trkpt lat="48.57746" lon="6.41136">
        <ele>261</ele>
        <time>2017-06-26T10:30:26Z</time>
      </trkpt>
      <trkpt lat="48.57745" lon="6.41133">
        <ele>261</ele>
        <time>2017-06-26T10:30:27Z</time>
      </trkpt>
      <trkpt lat="48.57744" lon="6.41129">
        <ele>261</ele>
        <time>2017-06-26T10:30:28Z</time>
      </trkpt>
      <trkpt lat="48.57744" lon="6.41126">
        <ele>261</ele>
        <time>2017-06-26T10:30:29Z</time>
      </trkpt>
      <trkpt lat="48.57743" lon="6.41122">
        <ele>261</ele>
        <time>2017-06-26T10:30:30Z</time>
      </trkpt>
      <trkpt lat="48.57742" lon="6.41119">
        <ele>261</ele>
        <time>2017-06-26T10:30:31Z</time>
      </trkpt>
      <trkpt lat="48.57741" lon="6.41115">
        <ele>261</ele>
        <time>2017-06-26T10:30:32Z</time>
      </trkpt>
      <trkpt lat="48.57741" lon="6.41112">
        <ele>261</ele>
        <time>2017-06-26T10:30:33Z</time>
      </trkpt>
      <trkpt lat="48.5774" lon="6.41107">
        <ele>261</ele>
        <time>2017-06-26T10:30:34Z</time>
      </trkpt>
      <trkpt lat="48.5774" lon="6.41102">
        <ele>261</ele>
        <time>2017-06-26T10:30:35Z</time>
      </trkpt>
      <trkpt lat="48.5774" lon="6.41097">
        <ele>261</ele>
        <time>2017-06-26T10:30:36Z</time>
      </trkpt>
      <trkpt lat="48.57741" lon="6.41094">
        <ele>261</ele>
        <time>2017-06-26T10:30:37Z</time>
      </trkpt>
      <trkpt lat="48.57742" lon="6.41091">
        <ele>261</ele>
        <time>2017-06-26T10:30:38Z</time>
      </trkpt>
      <trkpt lat="48.57743" lon="6.41089">
        <ele>261</ele>
        <time>2017-06-26T10:30:39Z</time>
      </trkpt>
      <trkpt lat="48.57744" lon="6.41086">
        <ele>261</ele>
        <time>2017-06-26T10:30:40Z</time>
      </trkpt>
      <trkpt lat="48.57745" lon="6.41083">
        <ele>261</ele>
        <time>2017-06-26T10:30:41Z</time>
      </trkpt>
      <trkpt lat="48.57746" lon="6.41084">
        <ele>261</ele>
        <time>2017-06-26T10:30:42Z</time>
      </trkpt>
      <trkpt lat="48.57748" lon="6.41085">
        <ele>261</ele>
        <time>2017-06-26T10:30:43Z</time>
      </trkpt>
      <trkpt lat="48.57749" lon="6.41085">
        <ele>261</ele>
        <time>2017-06-26T10:30:44Z</time>
      </trkpt>
      <trkpt lat="48.57751" lon="6.41086">
        <ele>261</ele>
        <time>2017-06-26T10:30:45Z</time>
      </trkpt>
      <trkpt lat="48.57752" lon="6.41086">
        <ele>261</ele>
        <time>2017-06-26T10:30:46Z</time>
      </trkpt>
      <trkpt lat="48.57754" lon="6.41087">
        <ele>261</ele>
        <time>2017-06-26T10:30:47Z</time>
      </trkpt>
      <trkpt lat="48.57755" lon="6.41087">
        <ele>261</ele>
        <time>2017-06-26T10:30:48Z</time>
      </trkpt>
      <trkpt lat="48.57757" lon="6.41088">
        <ele>261</ele>
        <time>2017-06-26T10:30:49Z</time>
      </trkpt>
      <trkpt lat="48.57759" lon="6.41089">
        <ele>261</ele>
        <time>2017-06-26T10:30:50Z</time>
      </trkpt>
      <trkpt lat="48.57761" lon="6.4109">
        <ele>261</ele>
        <time>2017-06-26T10:30:51Z</time>
      </trkpt>
      <trkpt lat="48.57762" lon="6.41091">
        <ele>261</ele>
        <time>2017-06-26T10:30:52Z</time>
      </trkpt>
      <trkpt lat="48.57764" lon="6.41091">
        <ele>261</ele>
        <time>2017-06-26T10:30:53Z</time>
      </trkpt>
      <trkpt lat="48.57766" lon="6.41092">
        <ele>261</ele>
        <time>2017-06-26T10:30:54Z</time>
      </trkpt>
      <trkpt lat="48.57768" lon="6.41093">
        <ele>262</ele>
        <time>2017-06-26T10:30:55Z</time>
      </trkpt>
      <trkpt lat="48.5777" lon="6.41094">
        <ele>262</ele>
        <time>2017-06-26T10:30:56Z</time>
      </trkpt>
      <trkpt lat="48.57772" lon="6.41095">
        <ele>262</ele>
        <time>2017-06-26T10:30:57Z</time>
      </trkpt>
      <trkpt lat="48.57774" lon="6.41096">
        <ele>262</ele>
        <time>2017-06-26T10:30:58Z</time>
      </trkpt>
      <trkpt lat="48.57776" lon="6.41097">
        <ele>262</ele>
        <time>2017-06-26T10:30:59Z</time>
      </trkpt>
      <trkpt lat="48.57778" lon="6.41098">
        <ele>262</ele>
        <time>2017-06-26T10:31:00Z</time>
      </trkpt>
      <trkpt lat="48.5778" lon="6.41098">
        <ele>262</ele>
        <time>2017-06-26T10:31:01Z</time>
      </trkpt>
      <trkpt lat="48.57782" lon="6.41099">
        <ele>262</ele>
        <time>2017-06-26T10:31:02Z</time>
      </trkpt>
      <trkpt lat="48.57783" lon="6.411">
        <ele>262</ele>
        <time>2017-06-26T10:31:03Z</time>
      </trkpt>
      <trkpt lat="48.57785" lon="6.41101">
        <ele>262</ele>
        <time>2017-06-26T10:31:04Z</time>
      </trkpt>
      <trkpt lat="48.57787" lon="6.41103">
        <ele>264</ele>
        <time>2017-06-26T10:31:05Z</time>
      </trkpt>
      <trkpt lat="48.5779" lon="6.41104">
        <ele>264</ele>
        <time>2017-06-26T10:31:06Z</time>
      </trkpt>
      <trkpt lat="48.57792" lon="6.41105">
        <ele>264</ele>
        <time>2017-06-26T10:31:07Z</time>
      </trkpt>
      <trkpt lat="48.57794" lon="6.41107">
        <ele>264</ele>
        <time>2017-06-26T10:31:08Z</time>
      </trkpt>
      <trkpt lat="48.57796" lon="6.41108">
        <ele>264</ele>
        <time>2017-06-26T10:31:09Z</time>
      </trkpt>
      <trkpt lat="48.57798" lon="6.41109">
        <ele>264</ele>
        <time>2017-06-26T10:31:10Z</time>
      </trkpt>
      <trkpt lat="48.578" lon="6.41111">
        <ele>264</ele>
        <time>2017-06-26T10:31:11Z</time>
      </trkpt>
      <trkpt lat="48.57802" lon="6.41112">
        <ele>264</ele>
        <time>2017-06-26T10:31:12Z</time>
      </trkpt>
      <trkpt lat="48.57805" lon="6.41114">
        <ele>264</ele>
        <time>2017-06-26T10:31:13Z</time>
      </trkpt>
      <trkpt lat="48.57807" lon="6.41115">
        <ele>264</ele>
        <time>2017-06-26T10:31:14Z</time>
      </trkpt>
      <trkpt lat="48.57809" lon="6.41116">
        <ele>264</ele>
        <time>2017-06-26T10:31:15Z</time>
      </trkpt>
      <trkpt lat="48.57811" lon="6.41117">
        <ele>264</ele>
        <time>2017-06-26T10:31:16Z</time>
      </trkpt>
      <trkpt lat="48.57813" lon="6.41118">
        <ele>264</ele>
        <time>2017-06-26T10:31:17Z</time>
      </trkpt>
      <trkpt lat="48.57815" lon="6.41119">
        <ele>264</ele>
        <time>2017-06-26T10:31:18Z</time>
      </trkpt>
      <trkpt lat="48.57817" lon="6.4112">
        <ele>264</ele>
        <time>2017-06-26T10:31:19Z</time>
      </trkpt>
      <trkpt lat="48.57819" lon="6.41121">
        <ele>264</ele>
        <time>2017-06-26T10:31:20Z</time>
      </trkpt>
      <trkpt lat="48.57821" lon="6.41122">
        <ele>264</ele>
        <time>2017-06-26T10:31:21Z</time>
      </trkpt>
      <trkpt lat="48.57823" lon="6.41123">
        <ele>264</ele>
        <time>2017-06-26T10:31:22Z</time>
      </trkpt>
      <trkpt lat="48.57825" lon="6.41124">
        <ele>264</ele>
        <time>2017-06-26T10:31:23Z</time>
      </trkpt>
      <trkpt lat="48.57827" lon="6.41125">
        <ele>263</ele>
        <time>2017-06-26T10:31:24Z</time>
      </trkpt>
      <trkpt lat="48.57829" lon="6.41127">
        <ele>264</ele>
        <time>2017-06-26T10:31:25Z</time>
      </trkpt>
      <trkpt lat="48.57831" lon="6.41128">
        <ele>264</ele>
        <time>2017-06-26T10:31:26Z</time>
      </trkpt>
      <trkpt lat="48.57834" lon="6.4113">
        <ele>264</ele>
        <time>2017-06-26T10:31:27Z</time>
      </trkpt>
      <trkpt lat="48.57836" lon="6.41131">
        <ele>264</ele>
        <time>2017-06-26T10:31:28Z</time>
      </trkpt>
      <trkpt lat="48.57838" lon="6.41132">
        <ele>264</ele>
        <time>2017-06-26T10:31:29Z</time>
      </trkpt>
      <trkpt lat="48.5784" lon="6.41134">
        <ele>264</ele>
        <time>2017-06-26T10:31:30Z</time>
      </trkpt>
      <trkpt lat="48.57842" lon="6.41135">
        <ele>264</ele>
        <time>2017-06-26T10:31:31Z</time>
      </trkpt>
      <trkpt lat="48.57844" lon="6.41136">
        <ele>264</ele>
        <time>2017-06-26T10:31:32Z</time>
      </trkpt>
      <trkpt lat="48.57846" lon="6.41138">
        <ele>264</ele>
        <time>2017-06-26T10:31:33Z</time>
      </trkpt>
      <trkpt lat="48.57848" lon="6.4114">
        <ele>264</ele>
        <time>2017-06-26T10:31:34Z</time>
      </trkpt>
      <trkpt lat="48.5785" lon="6.41142">
        <ele>265</ele>
        <time>2017-06-26T10:31:35Z</time>
      </trkpt>
      <trkpt lat="48.57853" lon="6.41144">
        <ele>265</ele>
        <time>2017-06-26T10:31:36Z</time>
      </trkpt>
      <trkpt lat="48.57855" lon="6.41146">
        <ele>265</ele>
        <time>2017-06-26T10:31:37Z</time>
      </trkpt>
      <trkpt lat="48.57857" lon="6.41149">
        <ele>265</ele>
        <time>2017-06-26T10:31:38Z</time>
      </trkpt>
      <trkpt lat="48.57859" lon="6.41151">
        <ele>265</ele>
        <time>2017-06-26T10:31:39Z</time>
      </trkpt>
      <trkpt lat="48.57861" lon="6.41153">
        <ele>265</ele>
        <time>2017-06-26T10:31:40Z</time>
      </trkpt>
      <trkpt lat="48.57863" lon="6.41155">
        <ele>265</ele>
        <time>2017-06-26T10:31:41Z</time>
      </trkpt>
      <trkpt lat="48.57865" lon="6.41157">
        <ele>265</ele>
        <time>2017-06-26T10:31:42Z</time>
      </trkpt>
      <trkpt lat="48.57866" lon="6.4116">
        <ele>265</ele>
        <time>2017-06-26T10:31:43Z</time>
      </trkpt>
      <trkpt lat="48.57868" lon="6.41162">
        <ele>265</ele>
        <time>2017-06-26T10:31:44Z</time>
      </trkpt>
      <trkpt lat="48.57869" lon="6.41164">
        <ele>266</ele>
        <time>2017-06-26T10:31:45Z</time>
      </trkpt>
      <trkpt lat="48.57871" lon="6.41166">
        <ele>266</ele>
        <time>2017-06-26T10:31:46Z</time>
      </trkpt>
      <trkpt lat="48.57872" lon="6.41168">
        <ele>266</ele>
        <time>2017-06-26T10:31:47Z</time>
      </trkpt>
      <trkpt lat="48.57874" lon="6.4117">
        <ele>266</ele>
        <time>2017-06-26T10:31:48Z</time>
      </trkpt>
      <trkpt lat="48.57875" lon="6.41172">
        <ele>266</ele>
        <time>2017-06-26T10:31:49Z</time>
      </trkpt>
      <trkpt lat="48.57877" lon="6.41174">
        <ele>266</ele>
        <time>2017-06-26T10:31:50Z</time>
      </trkpt>
      <trkpt lat="48.57878" lon="6.41176">
        <ele>266</ele>
        <time>2017-06-26T10:31:51Z</time>
      </trkpt>
      <trkpt lat="48.5788" lon="6.41178">
        <ele>266</ele>
        <time>2017-06-26T10:31:52Z</time>
      </trkpt>
      <trkpt lat="48.57882" lon="6.41181">
        <ele>266</ele>
        <time>2017-06-26T10:31:53Z</time>
      </trkpt>
      <trkpt lat="48.57883" lon="6.41183">
        <ele>266</ele>
        <time>2017-06-26T10:31:54Z</time>
      </trkpt>
      <trkpt lat="48.57885" lon="6.41186">
        <ele>266</ele>
        <time>2017-06-26T10:31:55Z</time>
      </trkpt>
      <trkpt lat="48.57887" lon="6.41189">
        <ele>266</ele>
        <time>2017-06-26T10:31:56Z</time>
      </trkpt>
      <trkpt lat="48.57888" lon="6.41191">
        <ele>266</ele>
        <time>2017-06-26T10:31:57Z</time>
      </trkpt>
      <trkpt lat="48.5789" lon="6.41194">
        <ele>266</ele>
        <time>2017-06-26T10:31:58Z</time>
      </trkpt>
      <trkpt lat="48.57891" lon="6.41196">
        <ele>266</ele>
        <time>2017-06-26T10:31:59Z</time>
      </trkpt>
      <trkpt lat="48.57893" lon="6.41199">
        <ele>266</ele>
        <time>2017-06-26T10:32:00Z</time>
      </trkpt>
      <trkpt lat="48.57894" lon="6.41201">
        <ele>266</ele>
        <time>2017-06-26T10:32:01Z</time>
      </trkpt>
      <trkpt lat="48.57895" lon="6.41203">
        <ele>266</ele>
        <time>2017-06-26T10:32:02Z</time>
      </trkpt>
      <trkpt lat="48.57897" lon="6.41205">
        <ele>266</ele>
        <time>2017-06-26T10:32:03Z</time>
      </trkpt>
      <trkpt lat="48.57898" lon="6.41207">
        <ele>266</ele>
        <time>2017-06-26T10:32:04Z</time>
      </trkpt>
      <trkpt lat="48.57899" lon="6.41209">
        <ele>268</ele>
        <time>2017-06-26T10:32:05Z</time>
      </trkpt>
      <trkpt lat="48.579" lon="6.41211">
        <ele>268</ele>
        <time>2017-06-26T10:32:06Z</time>
      </trkpt>
      <trkpt lat="48.57902" lon="6.41213">
        <ele>268</ele>
        <time>2017-06-26T10:32:07Z</time>
      </trkpt>
      <trkpt lat="48.57903" lon="6.41215">
        <ele>268</ele>
        <time>2017-06-26T10:32:08Z</time>
      </trkpt>
      <trkpt lat="48.57905" lon="6.41218">
        <ele>268</ele>
        <time>2017-06-26T10:32:09Z</time>
      </trkpt>
      <trkpt lat="48.57907" lon="6.4122">
        <ele>268</ele>
        <time>2017-06-26T10:32:10Z</time>
      </trkpt>
      <trkpt lat="48.57909" lon="6.41223">
        <ele>268</ele>
        <time>2017-06-26T10:32:11Z</time>
      </trkpt>
      <trkpt lat="48.57911" lon="6.41225">
        <ele>268</ele>
        <time>2017-06-26T10:32:12Z</time>
      </trkpt>
      <trkpt lat="48.57913" lon="6.41229">
        <ele>268</ele>
        <time>2017-06-26T10:32:13Z</time>
      </trkpt>
      <trkpt lat="48.57916" lon="6.41233">
        <ele>268</ele>
        <time>2017-06-26T10:32:14Z</time>
      </trkpt>
      <trkpt lat="48.57919" lon="6.41237">
        <ele>268</ele>
        <time>2017-06-26T10:32:15Z</time>
      </trkpt>
      <trkpt lat="48.57921" lon="6.4124">
        <ele>268</ele>
        <time>2017-06-26T10:32:16Z</time>
      </trkpt>
      <trkpt lat="48.57923" lon="6.41243">
        <ele>268</ele>
        <time>2017-06-26T10:32:17Z</time>
      </trkpt>
      <trkpt lat="48.57925" lon="6.41247">
        <ele>268</ele>
        <time>2017-06-26T10:32:18Z</time>
      </trkpt>
      <trkpt lat="48.57927" lon="6.4125">
        <ele>268</ele>
        <time>2017-06-26T10:32:19Z</time>
      </trkpt>
      <trkpt lat="48.57929" lon="6.41253">
        <ele>268</ele>
        <time>2017-06-26T10:32:20Z</time>
      </trkpt>
      <trkpt lat="48.57931" lon="6.41256">
        <ele>268</ele>
        <time>2017-06-26T10:32:21Z</time>
      </trkpt>
      <trkpt lat="48.57933" lon="6.41259">
        <ele>268</ele>
        <time>2017-06-26T10:32:22Z</time>
      </trkpt>
      <trkpt lat="48.57935" lon="6.41261">
        <ele>268</ele>
        <time>2017-06-26T10:32:23Z</time>
      </trkpt>
      <trkpt lat="48.57937" lon="6.41264">
        <ele>268</ele>
        <time>2017-06-26T10:32:24Z</time>
      </trkpt>
      <trkpt lat="48.57938" lon="6.41266">
        <ele>268</ele>
        <time>2017-06-26T10:32:25Z</time>
      </trkpt>
      <trkpt lat="48.5794" lon="6.41268">
        <ele>268</ele>
        <time>2017-06-26T10:32:26Z</time>
      </trkpt>
      <trkpt lat="48.57941" lon="6.4127">
        <ele>268</ele>
        <time>2017-06-26T10:32:27Z</time>
      </trkpt>
      <trkpt lat="48.57943" lon="6.41272">
        <ele>268</ele>
        <time>2017-06-26T10:32:28Z</time>
      </trkpt>
      <trkpt lat="48.57944" lon="6.41275">
        <ele>268</ele>
        <time>2017-06-26T10:32:29Z</time>
      </trkpt>
      <trkpt lat="48.57945" lon="6.41277">
        <ele>268</ele>
        <time>2017-06-26T10:32:30Z</time>
      </trkpt>
      <trkpt lat="48.57946" lon="6.4128">
        <ele>268</ele>
        <time>2017-06-26T10:32:31Z</time>
      </trkpt>
      <trkpt lat="48.57947" lon="6.41282">
        <ele>268</ele>
        <time>2017-06-26T10:32:32Z</time>
      </trkpt>
      <trkpt lat="48.57948" lon="6.41285">
        <ele>268</ele>
        <time>2017-06-26T10:32:33Z</time>
      </trkpt>
      <trkpt lat="48.5795" lon="6.41286">
        <ele>268</ele>
        <time>2017-06-26T10:32:34Z</time>
      </trkpt>
      <trkpt lat="48.57951" lon="6.41288">
        <ele>269</ele>
        <time>2017-06-26T10:32:35Z</time>
      </trkpt>
      <trkpt lat="48.57952" lon="6.4129">
        <ele>269</ele>
        <time>2017-06-26T10:32:36Z</time>
      </trkpt>
      <trkpt lat="48.57953" lon="6.41292">
        <ele>269</ele>
        <time>2017-06-26T10:32:37Z</time>
      </trkpt>
      <trkpt lat="48.57955" lon="6.41293">
        <ele>269</ele>
        <time>2017-06-26T10:32:38Z</time>
      </trkpt>
      <trkpt lat="48.57956" lon="6.41295">
        <ele>269</ele>
        <time>2017-06-26T10:32:39Z</time>
      </trkpt>
      <trkpt lat="48.57957" lon="6.41296">
        <ele>269</ele>
        <time>2017-06-26T10:32:40Z</time>
      </trkpt>
      <trkpt lat="48.57959" lon="6.41297">
        <ele>269</ele>
        <time>2017-06-26T10:32:41Z</time>
      </trkpt>
      <trkpt lat="48.57961" lon="6.41298">
        <ele>269</ele>
        <time>2017-06-26T10:32:42Z</time>
      </trkpt>
      <trkpt lat="48.57962" lon="6.413">
        <ele>269</ele>
        <time>2017-06-26T10:32:43Z</time>
      </trkpt>
      <trkpt lat="48.57964" lon="6.41301">
        <ele>269</ele>
        <time>2017-06-26T10:32:44Z</time>
      </trkpt>
      <trkpt lat="48.57966" lon="6.41302">
        <ele>269</ele>
        <time>2017-06-26T10:32:45Z</time>
      </trkpt>
      <trkpt lat="48.57967" lon="6.41303">
        <ele>269</ele>
        <time>2017-06-26T10:32:46Z</time>
      </trkpt>
      <trkpt lat="48.57969" lon="6.41305">
        <ele>269</ele>
        <time>2017-06-26T10:32:47Z</time>
      </trkpt>
      <trkpt lat="48.57971" lon="6.41307">
        <ele>269</ele>
        <time>2017-06-26T10:32:48Z</time>
      </trkpt>
      <trkpt lat="48.57972" lon="6.41308">
        <ele>269</ele>
        <time>2017-06-26T10:32:49Z</time>
      </trkpt>
      <trkpt lat="48.57974" lon="6.4131">
        <ele>269</ele>
        <time>2017-06-26T10:32:50Z</time>
      </trkpt>
      <trkpt lat="48.57976" lon="6.41311">
        <ele>269</ele>
        <time>2017-06-26T10:32:51Z</time>
      </trkpt>
      <trkpt lat="48.57977" lon="6.41313">
        <ele>269</ele>
        <time>2017-06-26T10:32:52Z</time>
      </trkpt>
      <trkpt lat="48.57979" lon="6.41314">
        <ele>269</ele>
        <time>2017-06-26T10:32:53Z</time>
      </trkpt>
      <trkpt lat="48.5798" lon="6.41315">
        <ele>269</ele>
        <time>2017-06-26T10:32:54Z</time>
      </trkpt>
      <trkpt lat="48.57981" lon="6.41317">
        <ele>268</ele>
        <time>2017-06-26T10:32:55Z</time>
      </trkpt>
      <trkpt lat="48.57983" lon="6.41318">
        <ele>268</ele>
        <time>2017-06-26T10:32:56Z</time>
      </trkpt>
      <trkpt lat="48.57985" lon="6.4132">
        <ele>268</ele>
        <time>2017-06-26T10:32:57Z</time>
      </trkpt>
      <trkpt lat="48.57987" lon="6.41322">
        <ele>268</ele>
        <time>2017-06-26T10:32:58Z</time>
      </trkpt>
      <trkpt lat="48.57989" lon="6.41324">
        <ele>268</ele>
        <time>2017-06-26T10:32:59Z</time>
      </trkpt>
      <trkpt lat="48.57991" lon="6.41326">
        <ele>268</ele>
        <time>2017-06-26T10:33:00Z</time>
      </trkpt>
      <trkpt lat="48.57993" lon="6.41329">
        <ele>268</ele>
        <time>2017-06-26T10:33:01Z</time>
      </trkpt>
      <trkpt lat="48.57995" lon="6.41331">
        <ele>268</ele>
        <time>2017-06-26T10:33:02Z</time>
      </trkpt>
      <trkpt lat="48.57997" lon="6.41333">
        <ele>268</ele>
        <time>2017-06-26T10:33:03Z</time>
      </trkpt>
      <trkpt lat="48.57999" lon="6.41335">
        <ele>268</ele>
        <time>2017-06-26T10:33:04Z</time>
      </trkpt>
      <trkpt lat="48.58" lon="6.41336">
        <ele>269</ele>
        <time>2017-06-26T10:33:05Z</time>
      </trkpt>
      <trkpt lat="48.58002" lon="6.41338">
        <ele>269</ele>
        <time>2017-06-26T10:33:06Z</time>
      </trkpt>
      <trkpt lat="48.58005" lon="6.41341">
        <ele>269</ele>
        <time>2017-06-26T10:33:07Z</time>
      </trkpt>
      <trkpt lat="48.58007" lon="6.41343">
        <ele>269</ele>
        <time>2017-06-26T10:33:08Z</time>
      </trkpt>
      <trkpt lat="48.58009" lon="6.41346">
        <ele>269</ele>
        <time>2017-06-26T10:33:09Z</time>
      </trkpt>
      <trkpt lat="48.58011" lon="6.41348">
        <ele>269</ele>
        <time>2017-06-26T10:33:10Z</time>
      </trkpt>
      <trkpt lat="48.58014" lon="6.4135">
        <ele>269</ele>
        <time>2017-06-26T10:33:11Z</time>
      </trkpt>
      <trkpt lat="48.58016" lon="6.41353">
        <ele>269</ele>
        <time>2017-06-26T10:33:12Z</time>
      </trkpt>
      <trkpt lat="48.58018" lon="6.41355">
        <ele>269</ele>
        <time>2017-06-26T10:33:13Z</time>
      </trkpt>
      <trkpt lat="48.58021" lon="6.41357">
        <ele>269</ele>
        <time>2017-06-26T10:33:14Z</time>
      </trkpt>
      <trkpt lat="48.58022" lon="6.41359">
        <ele>269</ele>
        <time>2017-06-26T10:33:15Z</time>
      </trkpt>
      <trkpt lat="48.58024" lon="6.4136">
        <ele>269</ele>
        <time>2017-06-26T10:33:16Z</time>
      </trkpt>
      <trkpt lat="48.58025" lon="6.41362">
        <ele>269</ele>
        <time>2017-06-26T10:33:17Z</time>
      </trkpt>
      <trkpt lat="48.58027" lon="6.41364">
        <ele>269</ele>
        <time>2017-06-26T10:33:18Z</time>
      </trkpt>
      <trkpt lat="48.58028" lon="6.41365">
        <ele>269</ele>
        <time>2017-06-26T10:33:19Z</time>
      </trkpt>
      <trkpt lat="48.5803" lon="6.41367">
        <ele>269</ele>
        <time>2017-06-26T10:33:20Z</time>
      </trkpt>
      <trkpt lat="48.58031" lon="6.41368">
        <ele>269</ele>
        <time>2017-06-26T10:33:21Z</time>
      </trkpt>
      <trkpt lat="48.58033" lon="6.4137">
        <ele>269</ele>
        <time>2017-06-26T10:33:22Z</time>
      </trkpt>
      <trkpt lat="48.58034" lon="6.41371">
        <ele>270</ele>
        <time>2017-06-26T10:33:23Z</time>
      </trkpt>
      <trkpt lat="48.58035" lon="6.41372">
        <ele>270</ele>
        <time>2017-06-26T10:33:24Z</time>
      </trkpt>
      <trkpt lat="48.58037" lon="6.41373">
        <ele>270</ele>
        <time>2017-06-26T10:33:25Z</time>
      </trkpt>
      <trkpt lat="48.58038" lon="6.41374">
        <ele>270</ele>
        <time>2017-06-26T10:33:26Z</time>
      </trkpt>
      <trkpt lat="48.58039" lon="6.41376">
        <ele>270</ele>
        <time>2017-06-26T10:33:27Z</time>
      </trkpt>
      <trkpt lat="48.58041" lon="6.41377">
        <ele>270</ele>
        <time>2017-06-26T10:33:28Z</time>
      </trkpt>
      <trkpt lat="48.58043" lon="6.41378">
        <ele>270</ele>
        <time>2017-06-26T10:33:29Z</time>
      </trkpt>
      <trkpt lat="48.58044" lon="6.41379">
        <ele>270</ele>
        <time>2017-06-26T10:33:30Z</time>
      </trkpt>
      <trkpt lat="48.58046" lon="6.4138">
        <ele>270</ele>
        <time>2017-06-26T10:33:31Z</time>
      </trkpt>
      <trkpt lat="48.58047" lon="6.41381">
        <ele>270</ele>
        <time>2017-06-26T10:33:32Z</time>
      </trkpt>
      <trkpt lat="48.58049" lon="6.41382">
        <ele>270</ele>
        <time>2017-06-26T10:33:33Z</time>
      </trkpt>
      <trkpt lat="48.58051" lon="6.41383">
        <ele>270</ele>
        <time>2017-06-26T10:33:34Z</time>
      </trkpt>
      <trkpt lat="48.58053" lon="6.41384">
        <ele>270</ele>
        <time>2017-06-26T10:33:35Z</time>
      </trkpt>
      <trkpt lat="48.58055" lon="6.41385">
        <ele>270</ele>
        <time>2017-06-26T10:33:36Z</time>
      </trkpt>
      <trkpt lat="48.58057" lon="6.41386">
        <ele>271</ele>
        <time>2017-06-26T10:33:37Z</time>
      </trkpt>
      <trkpt lat="48.58059" lon="6.41387">
        <ele>271</ele>
        <time>2017-06-26T10:33:38Z</time>
      </trkpt>
      <trkpt lat="48.58061" lon="6.41388">
        <ele>271</ele>
        <time>2017-06-26T10:33:39Z</time>
      </trkpt>
      <trkpt lat="48.58063" lon="6.41389">
        <ele>271</ele>
        <time>2017-06-26T10:33:40Z</time>
      </trkpt>
      <trkpt lat="48.58065" lon="6.4139">
        <ele>271</ele>
        <time>2017-06-26T10:33:41Z</time>
      </trkpt>
      <trkpt lat="48.58066" lon="6.41391">
        <ele>271</ele>
        <time>2017-06-26T10:33:42Z</time>
      </trkpt>
      <trkpt lat="48.58068" lon="6.41392">
        <ele>271</ele>
        <time>2017-06-26T10:33:43Z</time>
      </trkpt>
      <trkpt lat="48.5807" lon="6.41392">
        <ele>271</ele>
        <time>2017-06-26T10:33:44Z</time>
      </trkpt>
      <trkpt lat="48.5807" lon="6.41391">
        <ele>271</ele>
        <time>2017-06-26T10:33:45Z</time>
      </trkpt>
      <trkpt lat="48.5807" lon="6.4139">
        <ele>271</ele>
        <time>2017-06-26T10:33:46Z</time>
      </trkpt>
      <trkpt lat="48.5807" lon="6.41389">
        <ele>271</ele>
        <time>2017-06-26T10:33:48Z</time>
      </trkpt>
      <trkpt lat="48.5807" lon="6.41388">
        <ele>271</ele>
        <time>2017-06-26T10:33:49Z</time>
      </trkpt>
      <trkpt lat="48.5807" lon="6.41387">
        <ele>271</ele>
        <time>2017-06-26T10:33:50Z</time>
      </trkpt>
      <trkpt lat="48.5807" lon="6.41386">
        <ele>271</ele>
        <time>2017-06-26T10:33:51Z</time>
      </trkpt>
      <trkpt lat="48.5807" lon="6.41385">
        <ele>271</ele>
        <time>2017-06-26T10:33:52Z</time>
      </trkpt>
      <trkpt lat="48.5807" lon="6.41384">
        <ele>271</ele>
        <time>2017-06-26T10:33:53Z</time>
      </trkpt>
      <trkpt lat="48.5807" lon="6.41383">
        <ele>271</ele>
        <time>2017-06-26T10:33:54Z</time>
      </trkpt>
      <trkpt lat="48.5807" lon="6.41382">
        <ele>271</ele>
        <time>2017-06-26T10:33:55Z</time>
      </trkpt>
      <trkpt lat="48.5807" lon="6.41381">
        <ele>271</ele>
        <time>2017-06-26T10:33:56Z</time>
      </trkpt>
      <trkpt lat="48.5807" lon="6.4138">
        <ele>271</ele>
        <time>2017-06-26T10:33:57Z</time>
      </trkpt>
      <trkpt lat="48.5807" lon="6.41379">
        <ele>271</ele>
        <time>2017-06-26T10:33:58Z</time>
      </trkpt>
      <trkpt lat="48.5807" lon="6.41378">
        <ele>271</ele>
        <time>2017-06-26T10:33:59Z</time>
      </trkpt>
      <trkpt lat="48.5807" lon="6.41377">
        <ele>271</ele>
        <time>2017-06-26T10:34:00Z</time>
      </trkpt>
      <trkpt lat="48.58069" lon="6.41376">
        <ele>271</ele>
        <time>2017-06-26T10:34:01Z</time>
      </trkpt>
      <trkpt lat="48.58068" lon="6.41374">
        <ele>271</ele>
        <time>2017-06-26T10:34:02Z</time>
      </trkpt>
      <trkpt lat="48.58067" lon="6.41373">
        <ele>271</ele>
        <time>2017-06-26T10:34:03Z</time>
      </trkpt>
      <trkpt lat="48.58066" lon="6.41371">
        <ele>271</ele>
        <time>2017-06-26T10:34:04Z</time>
      </trkpt>
      <trkpt lat="48.58065" lon="6.4137">
        <ele>272</ele>
        <time>2017-06-26T10:34:05Z</time>
      </trkpt>
      <trkpt lat="48.58064" lon="6.41368">
        <ele>272</ele>
        <time>2017-06-26T10:34:06Z</time>
      </trkpt>
      <trkpt lat="48.58063" lon="6.41367">
        <ele>272</ele>
        <time>2017-06-26T10:34:07Z</time>
      </trkpt>
      <trkpt lat="48.58062" lon="6.41366">
        <ele>272</ele>
        <time>2017-06-26T10:34:08Z</time>
      </trkpt>
      <trkpt lat="48.58062" lon="6.41362">
        <ele>272</ele>
        <time>2017-06-26T10:34:09Z</time>
      </trkpt>
      <trkpt lat="48.58061" lon="6.41359">
        <ele>272</ele>
        <time>2017-06-26T10:34:10Z</time>
      </trkpt>
      <trkpt lat="48.58061" lon="6.41356">
        <ele>272</ele>
        <time>2017-06-26T10:34:11Z</time>
      </trkpt>
      <trkpt lat="48.5806" lon="6.41353">
        <ele>272</ele>
        <time>2017-06-26T10:34:12Z</time>
      </trkpt>
      <trkpt lat="48.5806" lon="6.4135">
        <ele>272</ele>
        <time>2017-06-26T10:34:13Z</time>
      </trkpt>
      <trkpt lat="48.58059" lon="6.41347">
        <ele>272</ele>
        <time>2017-06-26T10:34:14Z</time>
      </trkpt>
      <trkpt lat="48.58059" lon="6.41344">
        <ele>273</ele>
        <time>2017-06-26T10:34:15Z</time>
      </trkpt>
      <trkpt lat="48.58059" lon="6.41341">
        <ele>273</ele>
        <time>2017-06-26T10:34:16Z</time>
      </trkpt>
      <trkpt lat="48.58058" lon="6.41338">
        <ele>273</ele>
        <time>2017-06-26T10:34:17Z</time>
      </trkpt>
      <trkpt lat="48.58058" lon="6.41335">
        <ele>273</ele>
        <time>2017-06-26T10:34:18Z</time>
      </trkpt>
      <trkpt lat="48.58057" lon="6.41331">
        <ele>273</ele>
        <time>2017-06-26T10:34:19Z</time>
      </trkpt>
      <trkpt lat="48.58057" lon="6.41328">
        <ele>273</ele>
        <time>2017-06-26T10:34:20Z</time>
      </trkpt>
      <trkpt lat="48.58057" lon="6.41324">
        <ele>273</ele>
        <time>2017-06-26T10:34:21Z</time>
      </trkpt>
      <trkpt lat="48.58057" lon="6.41321">
        <ele>273</ele>
        <time>2017-06-26T10:34:22Z</time>
      </trkpt>
      <trkpt lat="48.58056" lon="6.41318">
        <ele>273</ele>
        <time>2017-06-26T10:34:23Z</time>
      </trkpt>
      <trkpt lat="48.58056" lon="6.41314">
        <ele>273</ele>
        <time>2017-06-26T10:34:24Z</time>
      </trkpt>
      <trkpt lat="48.58056" lon="6.41311">
        <ele>272</ele>
        <time>2017-06-26T10:34:25Z</time>
      </trkpt>
      <trkpt lat="48.58055" lon="6.41307">
        <ele>272</ele>
        <time>2017-06-26T10:34:26Z</time>
      </trkpt>
      <trkpt lat="48.58055" lon="6.41304">
        <ele>272</ele>
        <time>2017-06-26T10:34:27Z</time>
      </trkpt>
      <trkpt lat="48.58055" lon="6.413">
        <ele>272</ele>
        <time>2017-06-26T10:34:28Z</time>
      </trkpt>
      <trkpt lat="48.58055" lon="6.41296">
        <ele>272</ele>
        <time>2017-06-26T10:34:29Z</time>
      </trkpt>
      <trkpt lat="48.58055" lon="6.41292">
        <ele>272</ele>
        <time>2017-06-26T10:34:30Z</time>
      </trkpt>
      <trkpt lat="48.58055" lon="6.41288">
        <ele>272</ele>
        <time>2017-06-26T10:34:31Z</time>
      </trkpt>
      <trkpt lat="48.58055" lon="6.41284">
        <ele>272</ele>
        <time>2017-06-26T10:34:32Z</time>
      </trkpt>
      <trkpt lat="48.58056" lon="6.41281">
        <ele>272</ele>
        <time>2017-06-26T10:34:33Z</time>
      </trkpt>
      <trkpt lat="48.58056" lon="6.41278">
        <ele>272</ele>
        <time>2017-06-26T10:34:34Z</time>
      </trkpt>
      <trkpt lat="48.58056" lon="6.41274">
        <ele>271</ele>
        <time>2017-06-26T10:34:35Z</time>
      </trkpt>
      <trkpt lat="48.58056" lon="6.41271">
        <ele>271</ele>
        <time>2017-06-26T10:34:36Z</time>
      </trkpt>
      <trkpt lat="48.58056" lon="6.41268">
        <ele>271</ele>
        <time>2017-06-26T10:34:37Z</time>
      </trkpt>
      <trkpt lat="48.58057" lon="6.41264">
        <ele>271</ele>
        <time>2017-06-26T10:34:38Z</time>
      </trkpt>
      <trkpt lat="48.58057" lon="6.41259">
        <ele>271</ele>
        <time>2017-06-26T10:34:39Z</time>
      </trkpt>
      <trkpt lat="48.58058" lon="6.41255">
        <ele>271</ele>
        <time>2017-06-26T10:34:40Z</time>
      </trkpt>
      <trkpt lat="48.58059" lon="6.41251">
        <ele>271</ele>
        <time>2017-06-26T10:34:41Z</time>
      </trkpt>
      <trkpt lat="48.58061" lon="6.41246">
        <ele>271</ele>
        <time>2017-06-26T10:34:42Z</time>
      </trkpt>
      <trkpt lat="48.58062" lon="6.41242">
        <ele>271</ele>
        <time>2017-06-26T10:34:43Z</time>
      </trkpt>
      <trkpt lat="48.58064" lon="6.41237">
        <ele>271</ele>
        <time>2017-06-26T10:34:44Z</time>
      </trkpt>
      <trkpt lat="48.58065" lon="6.41234">
        <ele>269</ele>
        <time>2017-06-26T10:34:45Z</time>
      </trkpt>
      <trkpt lat="48.58066" lon="6.4123">
        <ele>269</ele>
        <time>2017-06-26T10:34:46Z</time>
      </trkpt>
      <trkpt lat="48.58067" lon="6.41227">
        <ele>269</ele>
        <time>2017-06-26T10:34:47Z</time>
      </trkpt>
      <trkpt lat="48.58068" lon="6.41223">
        <ele>269</ele>
        <time>2017-06-26T10:34:48Z</time>
      </trkpt>
      <trkpt lat="48.58069" lon="6.4122">
        <ele>269</ele>
        <time>2017-06-26T10:34:49Z</time>
      </trkpt>
      <trkpt lat="48.58069" lon="6.41216">
        <ele>269</ele>
        <time>2017-06-26T10:34:50Z</time>
      </trkpt>
      <trkpt lat="48.5807" lon="6.41213">
        <ele>269</ele>
        <time>2017-06-26T10:34:51Z</time>
      </trkpt>
      <trkpt lat="48.58071" lon="6.41209">
        <ele>269</ele>
        <time>2017-06-26T10:34:52Z</time>
      </trkpt>
      <trkpt lat="48.58071" lon="6.41206">
        <ele>269</ele>
        <time>2017-06-26T10:34:53Z</time>
      </trkpt>
      <trkpt lat="48.58072" lon="6.41202">
        <ele>269</ele>
        <time>2017-06-26T10:34:54Z</time>
      </trkpt>
      <trkpt lat="48.58072" lon="6.41199">
        <ele>268</ele>
        <time>2017-06-26T10:34:55Z</time>
      </trkpt>
      <trkpt lat="48.58072" lon="6.41195">
        <ele>268</ele>
        <time>2017-06-26T10:34:56Z</time>
      </trkpt>
      <trkpt lat="48.58072" lon="6.41192">
        <ele>268</ele>
        <time>2017-06-26T10:34:57Z</time>
      </trkpt>
      <trkpt lat="48.58072" lon="6.41188">
        <ele>268</ele>
        <time>2017-06-26T10:34:58Z</time>
      </trkpt>
      <trkpt lat="48.58072" lon="6.41186">
        <ele>268</ele>
        <time>2017-06-26T10:34:59Z</time>
      </trkpt>
      <trkpt lat="48.58072" lon="6.41183">
        <ele>268</ele>
        <time>2017-06-26T10:35:00Z</time>
      </trkpt>
      <trkpt lat="48.58071" lon="6.41181">
        <ele>268</ele>
        <time>2017-06-26T10:35:01Z</time>
      </trkpt>
      <trkpt lat="48.58071" lon="6.41178">
        <ele>268</ele>
        <time>2017-06-26T10:35:02Z</time>
      </trkpt>
      <trkpt lat="48.58071" lon="6.41176">
        <ele>268</ele>
        <time>2017-06-26T10:35:03Z</time>
      </trkpt>
      <trkpt lat="48.5807" lon="6.41173">
        <ele>268</ele>
        <time>2017-06-26T10:35:04Z</time>
      </trkpt>
      <trkpt lat="48.5807" lon="6.41171">
        <ele>265</ele>
        <time>2017-06-26T10:35:05Z</time>
      </trkpt>
      <trkpt lat="48.5807" lon="6.41168">
        <ele>265</ele>
        <time>2017-06-26T10:35:06Z</time>
      </trkpt>
      <trkpt lat="48.5807" lon="6.41166">
        <ele>265</ele>
        <time>2017-06-26T10:35:07Z</time>
      </trkpt>
      <trkpt lat="48.5807" lon="6.41164">
        <ele>265</ele>
        <time>2017-06-26T10:35:08Z</time>
      </trkpt>
      <trkpt lat="48.5807" lon="6.41161">
        <ele>265</ele>
        <time>2017-06-26T10:35:09Z</time>
      </trkpt>
      <trkpt lat="48.5807" lon="6.41159">
        <ele>265</ele>
        <time>2017-06-26T10:35:10Z</time>
      </trkpt>
      <trkpt lat="48.58069" lon="6.41156">
        <ele>265</ele>
        <time>2017-06-26T10:35:11Z</time>
      </trkpt>
      <trkpt lat="48.58069" lon="6.41153">
        <ele>265</ele>
        <time>2017-06-26T10:35:12Z</time>
      </trkpt>
      <trkpt lat="48.58068" lon="6.4115">
        <ele>265</ele>
        <time>2017-06-26T10:35:13Z</time>
      </trkpt>
      <trkpt lat="48.58068" lon="6.41147">
        <ele>265</ele>
        <time>2017-06-26T10:35:14Z</time>
      </trkpt>
      <trkpt lat="48.58067" lon="6.41144">
        <ele>263</ele>
        <time>2017-06-26T10:35:15Z</time>
      </trkpt>
      <trkpt lat="48.58067" lon="6.41141">
        <ele>263</ele>
        <time>2017-06-26T10:35:16Z</time>
      </trkpt>
      <trkpt lat="48.58066" lon="6.41137">
        <ele>263</ele>
        <time>2017-06-26T10:35:17Z</time>
      </trkpt>
      <trkpt lat="48.58066" lon="6.41133">
        <ele>263</ele>
        <time>2017-06-26T10:35:18Z</time>
      </trkpt>
      <trkpt lat="48.58066" lon="6.41129">
        <ele>263</ele>
        <time>2017-06-26T10:35:19Z</time>
      </trkpt>
      <trkpt lat="48.58066" lon="6.41125">
        <ele>263</ele>
        <time>2017-06-26T10:35:20Z</time>
      </trkpt>
      <trkpt lat="48.58066" lon="6.41121">
        <ele>263</ele>
        <time>2017-06-26T10:35:21Z</time>
      </trkpt>
      <trkpt lat="48.58066" lon="6.41118">
        <ele>263</ele>
        <time>2017-06-26T10:35:22Z</time>
      </trkpt>
      <trkpt lat="48.58067" lon="6.41114">
        <ele>263</ele>
        <time>2017-06-26T10:35:23Z</time>
      </trkpt>
      <trkpt lat="48.58067" lon="6.41111">
        <ele>263</ele>
        <time>2017-06-26T10:35:24Z</time>
      </trkpt>
      <trkpt lat="48.58068" lon="6.41108">
        <ele>260</ele>
        <time>2017-06-26T10:35:25Z</time>
      </trkpt>
      <trkpt lat="48.58068" lon="6.41105">
        <ele>260</ele>
        <time>2017-06-26T10:35:26Z</time>
      </trkpt>
      <trkpt lat="48.58068" lon="6.41104">
        <ele>260</ele>
        <time>2017-06-26T10:35:27Z</time>
      </trkpt>
      <trkpt lat="48.58068" lon="6.41102">
        <ele>260</ele>
        <time>2017-06-26T10:35:28Z</time>
      </trkpt>
      <trkpt lat="48.58068" lon="6.41101">
        <ele>260</ele>
        <time>2017-06-26T10:35:29Z</time>
      </trkpt>
      <trkpt lat="48.58068" lon="6.411">
        <ele>258</ele>
        <time>2017-06-26T10:35:30Z</time>
      </trkpt>
      <trkpt lat="48.58068" lon="6.41099">
        <ele>258</ele>
        <time>2017-06-26T10:35:31Z</time>
      </trkpt>
      <trkpt lat="48.58068" lon="6.41097">
        <ele>258</ele>
        <time>2017-06-26T10:35:32Z</time>
      </trkpt>
      <trkpt lat="48.58068" lon="6.41096">
        <ele>258</ele>
        <time>2017-06-26T10:35:33Z</time>
      </trkpt>
      <trkpt lat="48.58068" lon="6.41095">
        <ele>258</ele>
        <time>2017-06-26T10:35:34Z</time>
      </trkpt>
      <trkpt lat="48.58068" lon="6.41093">
        <ele>256</ele>
        <time>2017-06-26T10:35:35Z</time>
      </trkpt>
      <trkpt lat="48.58068" lon="6.41092">
        <ele>256</ele>
        <time>2017-06-26T10:35:36Z</time>
      </trkpt>
      <trkpt lat="48.58068" lon="6.41091">
        <ele>256</ele>
        <time>2017-06-26T10:35:37Z</time>
      </trkpt>
      <trkpt lat="48.58068" lon="6.4109">
        <ele>256</ele>
        <time>2017-06-26T10:35:38Z</time>
      </trkpt>
      <trkpt lat="48.58067" lon="6.41089">
        <ele>256</ele>
        <time>2017-06-26T10:35:39Z</time>
      </trkpt>
      <trkpt lat="48.58066" lon="6.41088">
        <ele>255</ele>
        <time>2017-06-26T10:35:40Z</time>
      </trkpt>
      <trkpt lat="48.58065" lon="6.41087">
        <ele>255</ele>
        <time>2017-06-26T10:35:41Z</time>
      </trkpt>
      <trkpt lat="48.58064" lon="6.41086">
        <ele>255</ele>
        <time>2017-06-26T10:35:42Z</time>
      </trkpt>
      <trkpt lat="48.58063" lon="6.41086">
        <ele>255</ele>
        <time>2017-06-26T10:35:43Z</time>
      </trkpt>
      <trkpt lat="48.58062" lon="6.41085">
        <ele>255</ele>
        <time>2017-06-26T10:35:44Z</time>
      </trkpt>
      <trkpt lat="48.58061" lon="6.41084">
        <ele>254</ele>
        <time>2017-06-26T10:35:45Z</time>
      </trkpt>
      <trkpt lat="48.5806" lon="6.41083">
        <ele>254</ele>
        <time>2017-06-26T10:35:46Z</time>
      </trkpt>
      <trkpt lat="48.58059" lon="6.41082">
        <ele>254</ele>
        <time>2017-06-26T10:35:47Z</time>
      </trkpt>
      <trkpt lat="48.58058" lon="6.41081">
        <ele>254</ele>
        <time>2017-06-26T10:35:48Z</time>
      </trkpt>
      <trkpt lat="48.58057" lon="6.41081">
        <ele>254</ele>
        <time>2017-06-26T10:35:49Z</time>
      </trkpt>
      <trkpt lat="48.58057" lon="6.4108">
        <ele>254</ele>
        <time>2017-06-26T10:35:50Z</time>
      </trkpt>
      <trkpt lat="48.58056" lon="6.41079">
        <ele>254</ele>
        <time>2017-06-26T10:35:51Z</time>
      </trkpt>
      <trkpt lat="48.58056" lon="6.41078">
        <ele>254</ele>
        <time>2017-06-26T10:35:52Z</time>
      </trkpt>
      <trkpt lat="48.58055" lon="6.41078">
        <ele>254</ele>
        <time>2017-06-26T10:35:53Z</time>
      </trkpt>
      <trkpt lat="48.58054" lon="6.41077">
        <ele>254</ele>
        <time>2017-06-26T10:35:54Z</time>
      </trkpt>
      <trkpt lat="48.58054" lon="6.41076">
        <ele>254</ele>
        <time>2017-06-26T10:35:55Z</time>
      </trkpt>
      <trkpt lat="48.58053" lon="6.41075">
        <ele>254</ele>
        <time>2017-06-26T10:35:56Z</time>
      </trkpt>
      <trkpt lat="48.58052" lon="6.41074">
        <ele>254</ele>
        <time>2017-06-26T10:35:58Z</time>
      </trkpt>
      <trkpt lat="48.58051" lon="6.41073">
        <ele>254</ele>
        <time>2017-06-26T10:35:59Z</time>
      </trkpt>
      <trkpt lat="48.58051" lon="6.41072">
        <ele>254</ele>
        <time>2017-06-26T10:36:00Z</time>
      </trkpt>
      <trkpt lat="48.5805" lon="6.41072">
        <ele>254</ele>
        <time>2017-06-26T10:36:01Z</time>
      </trkpt>
      <trkpt lat="48.58049" lon="6.41071">
        <ele>254</ele>
        <time>2017-06-26T10:36:02Z</time>
      </trkpt>
      <trkpt lat="48.58048" lon="6.4107">
        <ele>254</ele>
        <time>2017-06-26T10:36:03Z</time>
      </trkpt>
      <trkpt lat="48.58047" lon="6.41069">
        <ele>254</ele>
        <time>2017-06-26T10:36:04Z</time>
      </trkpt>
      <trkpt lat="48.58046" lon="6.41069">
        <ele>254</ele>
        <time>2017-06-26T10:36:05Z</time>
      </trkpt>
      <trkpt lat="48.58044" lon="6.41068">
        <ele>254</ele>
        <time>2017-06-26T10:36:06Z</time>
      </trkpt>
      <trkpt lat="48.58043" lon="6.41067">
        <ele>254</ele>
        <time>2017-06-26T10:36:07Z</time>
      </trkpt>
      <trkpt lat="48.58042" lon="6.41066">
        <ele>254</ele>
        <time>2017-06-26T10:36:08Z</time>
      </trkpt>
      <trkpt lat="48.58041" lon="6.41066">
        <ele>254</ele>
        <time>2017-06-26T10:36:09Z</time>
      </trkpt>
      <trkpt lat="48.58041" lon="6.41063">
        <ele>254</ele>
        <time>2017-06-26T10:36:10Z</time>
      </trkpt>
      <trkpt lat="48.58041" lon="6.4106">
        <ele>254</ele>
        <time>2017-06-26T10:36:11Z</time>
      </trkpt>
      <trkpt lat="48.58041" lon="6.41058">
        <ele>254</ele>
        <time>2017-06-26T10:36:12Z</time>
      </trkpt>
      <trkpt lat="48.58041" lon="6.41055">
        <ele>254</ele>
        <time>2017-06-26T10:36:13Z</time>
      </trkpt>
      <trkpt lat="48.58041" lon="6.41052">
        <ele>254</ele>
        <time>2017-06-26T10:36:14Z</time>
      </trkpt>
      <trkpt lat="48.58041" lon="6.4105">
        <ele>255</ele>
        <time>2017-06-26T10:36:15Z</time>
      </trkpt>
      <trkpt lat="48.58041" lon="6.41048">
        <ele>255</ele>
        <time>2017-06-26T10:36:16Z</time>
      </trkpt>
      <trkpt lat="48.58041" lon="6.41046">
        <ele>255</ele>
        <time>2017-06-26T10:36:17Z</time>
      </trkpt>
      <trkpt lat="48.58041" lon="6.41045">
        <ele>255</ele>
        <time>2017-06-26T10:36:18Z</time>
      </trkpt>
      <trkpt lat="48.58042" lon="6.41043">
        <ele>255</ele>
        <time>2017-06-26T10:36:19Z</time>
      </trkpt>
      <trkpt lat="48.58042" lon="6.41041">
        <ele>255</ele>
        <time>2017-06-26T10:36:20Z</time>
      </trkpt>
      <trkpt lat="48.58042" lon="6.4104">
        <ele>255</ele>
        <time>2017-06-26T10:36:21Z</time>
      </trkpt>
      <trkpt lat="48.58042" lon="6.41038">
        <ele>255</ele>
        <time>2017-06-26T10:36:22Z</time>
      </trkpt>
      <trkpt lat="48.58043" lon="6.41036">
        <ele>255</ele>
        <time>2017-06-26T10:36:23Z</time>
      </trkpt>
      <trkpt lat="48.58043" lon="6.41035">
        <ele>255</ele>
        <time>2017-06-26T10:36:24Z</time>
      </trkpt>
      <trkpt lat="48.58043" lon="6.41033">
        <ele>257</ele>
        <time>2017-06-26T10:36:25Z</time>
      </trkpt>
      <trkpt lat="48.58044" lon="6.41032">
        <ele>257</ele>
        <time>2017-06-26T10:36:26Z</time>
      </trkpt>
      <trkpt lat="48.58045" lon="6.4103">
        <ele>257</ele>
        <time>2017-06-26T10:36:27Z</time>
      </trkpt>
      <trkpt lat="48.58045" lon="6.41029">
        <ele>257</ele>
        <time>2017-06-26T10:36:28Z</time>
      </trkpt>
      <trkpt lat="48.58046" lon="6.41027">
        <ele>257</ele>
        <time>2017-06-26T10:36:29Z</time>
      </trkpt>
      <trkpt lat="48.58047" lon="6.41026">
        <ele>257</ele>
        <time>2017-06-26T10:36:30Z</time>
      </trkpt>
      <trkpt lat="48.58047" lon="6.41024">
        <ele>257</ele>
        <time>2017-06-26T10:36:31Z</time>
      </trkpt>
      <trkpt lat="48.58048" lon="6.41023">
        <ele>257</ele>
        <time>2017-06-26T10:36:32Z</time>
      </trkpt>
      <trkpt lat="48.58049" lon="6.41021">
        <ele>257</ele>
        <time>2017-06-26T10:36:33Z</time>
      </trkpt>
      <trkpt lat="48.58049" lon="6.41019">
        <ele>257</ele>
        <time>2017-06-26T10:36:34Z</time>
      </trkpt>
      <trkpt lat="48.58049" lon="6.41017">
        <ele>260</ele>
        <time>2017-06-26T10:36:35Z</time>
      </trkpt>
      <trkpt lat="48.58049" lon="6.41014">
        <ele>260</ele>
        <time>2017-06-26T10:36:36Z</time>
      </trkpt>
      <trkpt lat="48.5805" lon="6.41012">
        <ele>260</ele>
        <time>2017-06-26T10:36:37Z</time>
      </trkpt>
      <trkpt lat="48.5805" lon="6.4101">
        <ele>260</ele>
        <time>2017-06-26T10:36:38Z</time>
      </trkpt>
      <trkpt lat="48.5805" lon="6.41008">
        <ele>260</ele>
        <time>2017-06-26T10:36:39Z</time>
      </trkpt>
      <trkpt lat="48.5805" lon="6.41005">
        <ele>260</ele>
        <time>2017-06-26T10:36:40Z</time>
      </trkpt>
      <trkpt lat="48.58051" lon="6.41003">
        <ele>260</ele>
        <time>2017-06-26T10:36:41Z</time>
      </trkpt>
      <trkpt lat="48.58051" lon="6.41001">
        <ele>260</ele>
        <time>2017-06-26T10:36:42Z</time>
      </trkpt>
      <trkpt lat="48.58052" lon="6.40998">
        <ele>260</ele>
        <time>2017-06-26T10:36:43Z</time>
      </trkpt>
      <trkpt lat="48.58052" lon="6.40996">
        <ele>260</ele>
        <time>2017-06-26T10:36:44Z</time>
      </trkpt>
      <trkpt lat="48.58053" lon="6.40993">
        <ele>261</ele>
        <time>2017-06-26T10:36:45Z</time>
      </trkpt>
      <trkpt lat="48.58053" lon="6.40991">
        <ele>261</ele>
        <time>2017-06-26T10:36:46Z</time>
      </trkpt>
      <trkpt lat="48.58054" lon="6.40988">
        <ele>261</ele>
        <time>2017-06-26T10:36:47Z</time>
      </trkpt>
      <trkpt lat="48.58054" lon="6.40986">
        <ele>261</ele>
        <time>2017-06-26T10:36:48Z</time>
      </trkpt>
      <trkpt lat="48.58055" lon="6.40984">
        <ele>261</ele>
        <time>2017-06-26T10:36:49Z</time>
      </trkpt>
      <trkpt lat="48.58055" lon="6.40981">
        <ele>261</ele>
        <time>2017-06-26T10:36:50Z</time>
      </trkpt>
      <trkpt lat="48.58055" lon="6.40979">
        <ele>261</ele>
        <time>2017-06-26T10:36:51Z</time>
      </trkpt>
      <trkpt lat="48.58056" lon="6.40977">
        <ele>261</ele>
        <time>2017-06-26T10:36:52Z</time>
      </trkpt>
      <trkpt lat="48.58056" lon="6.40974">
        <ele>261</ele>
        <time>2017-06-26T10:36:53Z</time>
      </trkpt>
      <trkpt lat="48.58056" lon="6.40971">
        <ele>261</ele>
        <time>2017-06-26T10:36:54Z</time>
      </trkpt>
      <trkpt lat="48.58057" lon="6.40968">
        <ele>262</ele>
        <time>2017-06-26T10:36:55Z</time>
      </trkpt>
      <trkpt lat="48.58057" lon="6.40964">
        <ele>262</ele>
        <time>2017-06-26T10:36:56Z</time>
      </trkpt>
      <trkpt lat="48.58058" lon="6.40961">
        <ele>262</ele>
        <time>2017-06-26T10:36:57Z</time>
      </trkpt>
      <trkpt lat="48.58059" lon="6.40958">
        <ele>262</ele>
        <time>2017-06-26T10:36:58Z</time>
      </trkpt>
      <trkpt lat="48.58059" lon="6.40956">
        <ele>262</ele>
        <time>2017-06-26T10:36:59Z</time>
      </trkpt>
      <trkpt lat="48.5806" lon="6.40954">
        <ele>262</ele>
        <time>2017-06-26T10:37:00Z</time>
      </trkpt>
      <trkpt lat="48.5806" lon="6.40951">
        <ele>262</ele>
        <time>2017-06-26T10:37:01Z</time>
      </trkpt>
      <trkpt lat="48.58061" lon="6.40949">
        <ele>262</ele>
        <time>2017-06-26T10:37:02Z</time>
      </trkpt>
      <trkpt lat="48.58061" lon="6.40947">
        <ele>262</ele>
        <time>2017-06-26T10:37:03Z</time>
      </trkpt>
      <trkpt lat="48.58062" lon="6.40944">
        <ele>262</ele>
        <time>2017-06-26T10:37:04Z</time>
      </trkpt>
      <trkpt lat="48.58063" lon="6.40941">
        <ele>263</ele>
        <time>2017-06-26T10:37:05Z</time>
      </trkpt>
      <trkpt lat="48.58064" lon="6.40938">
        <ele>263</ele>
        <time>2017-06-26T10:37:06Z</time>
      </trkpt>
      <trkpt lat="48.58065" lon="6.40936">
        <ele>263</ele>
        <time>2017-06-26T10:37:07Z</time>
      </trkpt>
      <trkpt lat="48.58066" lon="6.40933">
        <ele>263</ele>
        <time>2017-06-26T10:37:08Z</time>
      </trkpt>
      <trkpt lat="48.58067" lon="6.4093">
        <ele>263</ele>
        <time>2017-06-26T10:37:09Z</time>
      </trkpt>
      <trkpt lat="48.58068" lon="6.40927">
        <ele>263</ele>
        <time>2017-06-26T10:37:10Z</time>
      </trkpt>
      <trkpt lat="48.58069" lon="6.40924">
        <ele>263</ele>
        <time>2017-06-26T10:37:11Z</time>
      </trkpt>
      <trkpt lat="48.5807" lon="6.40921">
        <ele>263</ele>
        <time>2017-06-26T10:37:12Z</time>
      </trkpt>
      <trkpt lat="48.58071" lon="6.40918">
        <ele>263</ele>
        <time>2017-06-26T10:37:13Z</time>
      </trkpt>
      <trkpt lat="48.58071" lon="6.40914">
        <ele>263</ele>
        <time>2017-06-26T10:37:14Z</time>
      </trkpt>
      <trkpt lat="48.58072" lon="6.40911">
        <ele>264</ele>
        <time>2017-06-26T10:37:15Z</time>
      </trkpt>
      <trkpt lat="48.58073" lon="6.40908">
        <ele>264</ele>
        <time>2017-06-26T10:37:16Z</time>
      </trkpt>
      <trkpt lat="48.58074" lon="6.40905">
        <ele>264</ele>
        <time>2017-06-26T10:37:17Z</time>
      </trkpt>
      <trkpt lat="48.58075" lon="6.40901">
        <ele>264</ele>
        <time>2017-06-26T10:37:18Z</time>
      </trkpt>
      <trkpt lat="48.58075" lon="6.40899">
        <ele>264</ele>
        <time>2017-06-26T10:37:19Z</time>
      </trkpt>
      <trkpt lat="48.58075" lon="6.40897">
        <ele>264</ele>
        <time>2017-06-26T10:37:20Z</time>
      </trkpt>
      <trkpt lat="48.58075" lon="6.40896">
        <ele>264</ele>
        <time>2017-06-26T10:37:21Z</time>
      </trkpt>
      <trkpt lat="48.58075" lon="6.40894">
        <ele>264</ele>
        <time>2017-06-26T10:37:22Z</time>
      </trkpt>
      <trkpt lat="48.58075" lon="6.40892">
        <ele>264</ele>
        <time>2017-06-26T10:37:23Z</time>
      </trkpt>
      <trkpt lat="48.58075" lon="6.4089">
        <ele>264</ele>
        <time>2017-06-26T10:37:24Z</time>
      </trkpt>
      <trkpt lat="48.58075" lon="6.40888">
        <ele>264</ele>
        <time>2017-06-26T10:37:25Z</time>
      </trkpt>
      <trkpt lat="48.58075" lon="6.40886">
        <ele>264</ele>
        <time>2017-06-26T10:37:26Z</time>
      </trkpt>
      <trkpt lat="48.58074" lon="6.40885">
        <ele>264</ele>
        <time>2017-06-26T10:37:27Z</time>
      </trkpt>
      <trkpt lat="48.58072" lon="6.40884">
        <ele>264</ele>
        <time>2017-06-26T10:37:28Z</time>
      </trkpt>
      <trkpt lat="48.58071" lon="6.40883">
        <ele>264</ele>
        <time>2017-06-26T10:37:29Z</time>
      </trkpt>
      <trkpt lat="48.5807" lon="6.40882">
        <ele>264</ele>
        <time>2017-06-26T10:37:30Z</time>
      </trkpt>
      <trkpt lat="48.58068" lon="6.40881">
        <ele>264</ele>
        <time>2017-06-26T10:37:31Z</time>
      </trkpt>
      <trkpt lat="48.58067" lon="6.40879">
        <ele>264</ele>
        <time>2017-06-26T10:37:32Z</time>
      </trkpt>
      <trkpt lat="48.58065" lon="6.40878">
        <ele>264</ele>
        <time>2017-06-26T10:37:33Z</time>
      </trkpt>
      <trkpt lat="48.58063" lon="6.40877">
        <ele>264</ele>
        <time>2017-06-26T10:37:34Z</time>
      </trkpt>
      <trkpt lat="48.58062" lon="6.40877">
        <ele>264</ele>
        <time>2017-06-26T10:37:35Z</time>
      </trkpt>
      <trkpt lat="48.5806" lon="6.40876">
        <ele>264</ele>
        <time>2017-06-26T10:37:36Z</time>
      </trkpt>
      <trkpt lat="48.58058" lon="6.40875">
        <ele>264</ele>
        <time>2017-06-26T10:37:37Z</time>
      </trkpt>
      <trkpt lat="48.58056" lon="6.40874">
        <ele>264</ele>
        <time>2017-06-26T10:37:38Z</time>
      </trkpt>
      <trkpt lat="48.58054" lon="6.40873">
        <ele>264</ele>
        <time>2017-06-26T10:37:39Z</time>
      </trkpt>
      <trkpt lat="48.58052" lon="6.40873">
        <ele>264</ele>
        <time>2017-06-26T10:37:40Z</time>
      </trkpt>
      <trkpt lat="48.5805" lon="6.40872">
        <ele>264</ele>
        <time>2017-06-26T10:37:41Z</time>
      </trkpt>
      <trkpt lat="48.58049" lon="6.40871">
        <ele>264</ele>
        <time>2017-06-26T10:37:42Z</time>
      </trkpt>
      <trkpt lat="48.58047" lon="6.40871">
        <ele>264</ele>
        <time>2017-06-26T10:37:43Z</time>
      </trkpt>
      <trkpt lat="48.58045" lon="6.4087">
        <ele>264</ele>
        <time>2017-06-26T10:37:44Z</time>
      </trkpt>
      <trkpt lat="48.58043" lon="6.4087">
        <ele>264</ele>
        <time>2017-06-26T10:37:45Z</time>
      </trkpt>
      <trkpt lat="48.58041" lon="6.40869">
        <ele>264</ele>
        <time>2017-06-26T10:37:46Z</time>
      </trkpt>
      <trkpt lat="48.58039" lon="6.40869">
        <ele>264</ele>
        <time>2017-06-26T10:37:47Z</time>
      </trkpt>
      <trkpt lat="48.58037" lon="6.40868">
        <ele>264</ele>
        <time>2017-06-26T10:37:48Z</time>
      </trkpt>
      <trkpt lat="48.58035" lon="6.40868">
        <ele>264</ele>
        <time>2017-06-26T10:37:49Z</time>
      </trkpt>
      <trkpt lat="48.58033" lon="6.40867">
        <ele>264</ele>
        <time>2017-06-26T10:37:50Z</time>
      </trkpt>
      <trkpt lat="48.58031" lon="6.40866">
        <ele>264</ele>
        <time>2017-06-26T10:37:51Z</time>
      </trkpt>
      <trkpt lat="48.58029" lon="6.40865">
        <ele>264</ele>
        <time>2017-06-26T10:37:52Z</time>
      </trkpt>
      <trkpt lat="48.58027" lon="6.40864">
        <ele>264</ele>
        <time>2017-06-26T10:37:53Z</time>
      </trkpt>
      <trkpt lat="48.58025" lon="6.40863">
        <ele>264</ele>
        <time>2017-06-26T10:37:54Z</time>
      </trkpt>
      <trkpt lat="48.58023" lon="6.40862">
        <ele>264</ele>
        <time>2017-06-26T10:37:55Z</time>
      </trkpt>
      <trkpt lat="48.58021" lon="6.40861">
        <ele>264</ele>
        <time>2017-06-26T10:37:56Z</time>
      </trkpt>
      <trkpt lat="48.58019" lon="6.4086">
        <ele>264</ele>
        <time>2017-06-26T10:37:57Z</time>
      </trkpt>
      <trkpt lat="48.58017" lon="6.40859">
        <ele>264</ele>
        <time>2017-06-26T10:37:58Z</time>
      </trkpt>
      <trkpt lat="48.58016" lon="6.40858">
        <ele>264</ele>
        <time>2017-06-26T10:37:59Z</time>
      </trkpt>
      <trkpt lat="48.58014" lon="6.40857">
        <ele>264</ele>
        <time>2017-06-26T10:38:00Z</time>
      </trkpt>
      <trkpt lat="48.58011" lon="6.40856">
        <ele>264</ele>
        <time>2017-06-26T10:38:01Z</time>
      </trkpt>
      <trkpt lat="48.58009" lon="6.40854">
        <ele>264</ele>
        <time>2017-06-26T10:38:02Z</time>
      </trkpt>
      <trkpt lat="48.58006" lon="6.40853">
        <ele>264</ele>
        <time>2017-06-26T10:38:03Z</time>
      </trkpt>
      <trkpt lat="48.58004" lon="6.40851">
        <ele>264</ele>
        <time>2017-06-26T10:38:04Z</time>
      </trkpt>
      <trkpt lat="48.58002" lon="6.4085">
        <ele>265</ele>
        <time>2017-06-26T10:38:05Z</time>
      </trkpt>
      <trkpt lat="48.58" lon="6.40849">
        <ele>265</ele>
        <time>2017-06-26T10:38:06Z</time>
      </trkpt>
      <trkpt lat="48.57998" lon="6.40848">
        <ele>265</ele>
        <time>2017-06-26T10:38:07Z</time>
      </trkpt>
      <trkpt lat="48.57996" lon="6.40847">
        <ele>265</ele>
        <time>2017-06-26T10:38:08Z</time>
      </trkpt>
      <trkpt lat="48.57995" lon="6.40846">
        <ele>265</ele>
        <time>2017-06-26T10:38:09Z</time>
      </trkpt>
      <trkpt lat="48.57993" lon="6.40845">
        <ele>265</ele>
        <time>2017-06-26T10:38:10Z</time>
      </trkpt>
      <trkpt lat="48.57991" lon="6.40843">
        <ele>265</ele>
        <time>2017-06-26T10:38:11Z</time>
      </trkpt>
      <trkpt lat="48.57988" lon="6.40842">
        <ele>265</ele>
        <time>2017-06-26T10:38:12Z</time>
      </trkpt>
      <trkpt lat="48.57986" lon="6.40841">
        <ele>265</ele>
        <time>2017-06-26T10:38:13Z</time>
      </trkpt>
      <trkpt lat="48.57984" lon="6.4084">
        <ele>265</ele>
        <time>2017-06-26T10:38:14Z</time>
      </trkpt>
      <trkpt lat="48.57983" lon="6.40839">
        <ele>264</ele>
        <time>2017-06-26T10:38:15Z</time>
      </trkpt>
      <trkpt lat="48.57981" lon="6.40838">
        <ele>264</ele>
        <time>2017-06-26T10:38:16Z</time>
      </trkpt>
      <trkpt lat="48.57979" lon="6.40837">
        <ele>264</ele>
        <time>2017-06-26T10:38:17Z</time>
      </trkpt>
      <trkpt lat="48.57977" lon="6.40835">
        <ele>264</ele>
        <time>2017-06-26T10:38:18Z</time>
      </trkpt>
      <trkpt lat="48.57975" lon="6.40834">
        <ele>264</ele>
        <time>2017-06-26T10:38:19Z</time>
      </trkpt>
      <trkpt lat="48.57973" lon="6.40834">
        <ele>264</ele>
        <time>2017-06-26T10:38:20Z</time>
      </trkpt>
      <trkpt lat="48.57971" lon="6.40833">
        <ele>264</ele>
        <time>2017-06-26T10:38:21Z</time>
      </trkpt>
      <trkpt lat="48.5797" lon="6.40832">
        <ele>264</ele>
        <time>2017-06-26T10:38:22Z</time>
      </trkpt>
      <trkpt lat="48.57968" lon="6.40832">
        <ele>264</ele>
        <time>2017-06-26T10:38:23Z</time>
      </trkpt>
      <trkpt lat="48.57966" lon="6.40831">
        <ele>264</ele>
        <time>2017-06-26T10:38:24Z</time>
      </trkpt>
      <trkpt lat="48.57964" lon="6.40831">
        <ele>263</ele>
        <time>2017-06-26T10:38:25Z</time>
      </trkpt>
      <trkpt lat="48.57962" lon="6.4083">
        <ele>263</ele>
        <time>2017-06-26T10:38:26Z</time>
      </trkpt>
      <trkpt lat="48.57959" lon="6.40829">
        <ele>263</ele>
        <time>2017-06-26T10:38:27Z</time>
      </trkpt>
      <trkpt lat="48.57957" lon="6.40828">
        <ele>263</ele>
        <time>2017-06-26T10:38:28Z</time>
      </trkpt>
      <trkpt lat="48.57955" lon="6.40828">
        <ele>263</ele>
        <time>2017-06-26T10:38:29Z</time>
      </trkpt>
      <trkpt lat="48.57952" lon="6.40827">
        <ele>263</ele>
        <time>2017-06-26T10:38:30Z</time>
      </trkpt>
      <trkpt lat="48.5795" lon="6.40826">
        <ele>263</ele>
        <time>2017-06-26T10:38:31Z</time>
      </trkpt>
      <trkpt lat="48.57948" lon="6.40826">
        <ele>263</ele>
        <time>2017-06-26T10:38:32Z</time>
      </trkpt>
      <trkpt lat="48.57946" lon="6.40825">
        <ele>263</ele>
        <time>2017-06-26T10:38:33Z</time>
      </trkpt>
      <trkpt lat="48.57943" lon="6.40825">
        <ele>263</ele>
        <time>2017-06-26T10:38:34Z</time>
      </trkpt>
      <trkpt lat="48.57941" lon="6.40824">
        <ele>263</ele>
        <time>2017-06-26T10:38:35Z</time>
      </trkpt>
      <trkpt lat="48.57939" lon="6.40823">
        <ele>263</ele>
        <time>2017-06-26T10:38:36Z</time>
      </trkpt>
      <trkpt lat="48.57937" lon="6.40822">
        <ele>263</ele>
        <time>2017-06-26T10:38:37Z</time>
      </trkpt>
      <trkpt lat="48.57935" lon="6.40822">
        <ele>263</ele>
        <time>2017-06-26T10:38:38Z</time>
      </trkpt>
      <trkpt lat="48.57933" lon="6.40821">
        <ele>263</ele>
        <time>2017-06-26T10:38:39Z</time>
      </trkpt>
      <trkpt lat="48.57931" lon="6.4082">
        <ele>263</ele>
        <time>2017-06-26T10:38:40Z</time>
      </trkpt>
      <trkpt lat="48.57928" lon="6.4082">
        <ele>263</ele>
        <time>2017-06-26T10:38:41Z</time>
      </trkpt>
      <trkpt lat="48.57926" lon="6.40819">
        <ele>263</ele>
        <time>2017-06-26T10:38:42Z</time>
      </trkpt>
      <trkpt lat="48.57924" lon="6.40819">
        <ele>263</ele>
        <time>2017-06-26T10:38:43Z</time>
      </trkpt>
      <trkpt lat="48.57921" lon="6.40818">
        <ele>263</ele>
        <time>2017-06-26T10:38:44Z</time>
      </trkpt>
      <trkpt lat="48.57919" lon="6.40818">
        <ele>263</ele>
        <time>2017-06-26T10:38:45Z</time>
      </trkpt>
      <trkpt lat="48.57917" lon="6.40818">
        <ele>263</ele>
        <time>2017-06-26T10:38:46Z</time>
      </trkpt>
      <trkpt lat="48.57914" lon="6.40818">
        <ele>263</ele>
        <time>2017-06-26T10:38:47Z</time>
      </trkpt>
      <trkpt lat="48.57912" lon="6.40817">
        <ele>263</ele>
        <time>2017-06-26T10:38:48Z</time>
      </trkpt>
      <trkpt lat="48.5791" lon="6.40817">
        <ele>263</ele>
        <time>2017-06-26T10:38:49Z</time>
      </trkpt>
      <trkpt lat="48.57908" lon="6.40817">
        <ele>263</ele>
        <time>2017-06-26T10:38:50Z</time>
      </trkpt>
      <trkpt lat="48.57905" lon="6.40817">
        <ele>263</ele>
        <time>2017-06-26T10:38:51Z</time>
      </trkpt>
      <trkpt lat="48.57902" lon="6.40817">
        <ele>263</ele>
        <time>2017-06-26T10:38:52Z</time>
      </trkpt>
      <trkpt lat="48.57899" lon="6.40817">
        <ele>263</ele>
        <time>2017-06-26T10:38:53Z</time>
      </trkpt>
      <trkpt lat="48.57897" lon="6.40817">
        <ele>263</ele>
        <time>2017-06-26T10:38:54Z</time>
      </trkpt>
      <trkpt lat="48.57894" lon="6.40817">
        <ele>262</ele>
        <time>2017-06-26T10:38:55Z</time>
      </trkpt>
      <trkpt lat="48.57891" lon="6.40817">
        <ele>262</ele>
        <time>2017-06-26T10:38:56Z</time>
      </trkpt>
      <trkpt lat="48.57888" lon="6.40817">
        <ele>262</ele>
        <time>2017-06-26T10:38:57Z</time>
      </trkpt>
      <trkpt lat="48.57886" lon="6.40816">
        <ele>262</ele>
        <time>2017-06-26T10:38:58Z</time>
      </trkpt>
      <trkpt lat="48.57883" lon="6.40816">
        <ele>262</ele>
        <time>2017-06-26T10:38:59Z</time>
      </trkpt>
      <trkpt lat="48.57881" lon="6.40815">
        <ele>262</ele>
        <time>2017-06-26T10:39:00Z</time>
      </trkpt>
      <trkpt lat="48.57879" lon="6.40815">
        <ele>262</ele>
        <time>2017-06-26T10:39:01Z</time>
      </trkpt>
      <trkpt lat="48.57876" lon="6.40814">
        <ele>262</ele>
        <time>2017-06-26T10:39:02Z</time>
      </trkpt>
      <trkpt lat="48.57874" lon="6.40814">
        <ele>262</ele>
        <time>2017-06-26T10:39:03Z</time>
      </trkpt>
      <trkpt lat="48.57872" lon="6.40813">
        <ele>262</ele>
        <time>2017-06-26T10:39:04Z</time>
      </trkpt>
      <trkpt lat="48.57869" lon="6.40813">
        <ele>260</ele>
        <time>2017-06-26T10:39:05Z</time>
      </trkpt>
      <trkpt lat="48.57867" lon="6.40812">
        <ele>260</ele>
        <time>2017-06-26T10:39:06Z</time>
      </trkpt>
      <trkpt lat="48.57864" lon="6.40812">
        <ele>260</ele>
        <time>2017-06-26T10:39:07Z</time>
      </trkpt>
      <trkpt lat="48.57862" lon="6.40812">
        <ele>260</ele>
        <time>2017-06-26T10:39:08Z</time>
      </trkpt>
      <trkpt lat="48.57859" lon="6.40812">
        <ele>260</ele>
        <time>2017-06-26T10:39:09Z</time>
      </trkpt>
      <trkpt lat="48.57856" lon="6.40812">
        <ele>260</ele>
        <time>2017-06-26T10:39:10Z</time>
      </trkpt>
      <trkpt lat="48.57854" lon="6.40812">
        <ele>260</ele>
        <time>2017-06-26T10:39:11Z</time>
      </trkpt>
      <trkpt lat="48.57851" lon="6.40812">
        <ele>260</ele>
        <time>2017-06-26T10:39:12Z</time>
      </trkpt>
      <trkpt lat="48.57849" lon="6.40812">
        <ele>260</ele>
        <time>2017-06-26T10:39:13Z</time>
      </trkpt>
      <trkpt lat="48.57846" lon="6.40812">
        <ele>260</ele>
        <time>2017-06-26T10:39:14Z</time>
      </trkpt>
      <trkpt lat="48.57844" lon="6.40812">
        <ele>260</ele>
        <time>2017-06-26T10:39:15Z</time>
      </trkpt>
      <trkpt lat="48.57841" lon="6.40811">
        <ele>260</ele>
        <time>2017-06-26T10:39:16Z</time>
      </trkpt>
      <trkpt lat="48.57839" lon="6.4081">
        <ele>260</ele>
        <time>2017-06-26T10:39:17Z</time>
      </trkpt>
      <trkpt lat="48.57837" lon="6.40809">
        <ele>260</ele>
        <time>2017-06-26T10:39:18Z</time>
      </trkpt>
      <trkpt lat="48.57834" lon="6.40809">
        <ele>260</ele>
        <time>2017-06-26T10:39:19Z</time>
      </trkpt>
      <trkpt lat="48.57833" lon="6.40806">
        <ele>260</ele>
        <time>2017-06-26T10:39:20Z</time>
      </trkpt>
      <trkpt lat="48.57832" lon="6.40804">
        <ele>260</ele>
        <time>2017-06-26T10:39:21Z</time>
      </trkpt>
      <trkpt lat="48.57832" lon="6.40802">
        <ele>260</ele>
        <time>2017-06-26T10:39:22Z</time>
      </trkpt>
      <trkpt lat="48.57831" lon="6.408">
        <ele>260</ele>
        <time>2017-06-26T10:39:23Z</time>
      </trkpt>
      <trkpt lat="48.5783" lon="6.40797">
        <ele>260</ele>
        <time>2017-06-26T10:39:24Z</time>
      </trkpt>
      <trkpt lat="48.57831" lon="6.40794">
        <ele>260</ele>
        <time>2017-06-26T10:39:25Z</time>
      </trkpt>
      <trkpt lat="48.57832" lon="6.40791">
        <ele>260</ele>
        <time>2017-06-26T10:39:26Z</time>
      </trkpt>
      <trkpt lat="48.57833" lon="6.40788">
        <ele>260</ele>
        <time>2017-06-26T10:39:27Z</time>
      </trkpt>
      <trkpt lat="48.57834" lon="6.40785">
        <ele>260</ele>
        <time>2017-06-26T10:39:28Z</time>
      </trkpt>
      <trkpt lat="48.57835" lon="6.40782">
        <ele>260</ele>
        <time>2017-06-26T10:39:29Z</time>
      </trkpt>
      <trkpt lat="48.57836" lon="6.4078">
        <ele>260</ele>
        <time>2017-06-26T10:39:30Z</time>
      </trkpt>
      <trkpt lat="48.57837" lon="6.40777">
        <ele>260</ele>
        <time>2017-06-26T10:39:31Z</time>
      </trkpt>
      <trkpt lat="48.57838" lon="6.40775">
        <ele>260</ele>
        <time>2017-06-26T10:39:32Z</time>
      </trkpt>
      <trkpt lat="48.57839" lon="6.40773">
        <ele>260</ele>
        <time>2017-06-26T10:39:33Z</time>
      </trkpt>
      <trkpt lat="48.5784" lon="6.4077">
        <ele>260</ele>
        <time>2017-06-26T10:39:34Z</time>
      </trkpt>
      <trkpt lat="48.57842" lon="6.40768">
        <ele>261</ele>
        <time>2017-06-26T10:39:35Z</time>
      </trkpt>
      <trkpt lat="48.57843" lon="6.40766">
        <ele>261</ele>
        <time>2017-06-26T10:39:36Z</time>
      </trkpt>
      <trkpt lat="48.57844" lon="6.40764">
        <ele>261</ele>
        <time>2017-06-26T10:39:37Z</time>
      </trkpt>
      <trkpt lat="48.57846" lon="6.40762">
        <ele>261</ele>
        <time>2017-06-26T10:39:38Z</time>
      </trkpt>
      <trkpt lat="48.57847" lon="6.4076">
        <ele>261</ele>
        <time>2017-06-26T10:39:39Z</time>
      </trkpt>
      <trkpt lat="48.57848" lon="6.40759">
        <ele>261</ele>
        <time>2017-06-26T10:39:40Z</time>
      </trkpt>
      <trkpt lat="48.57849" lon="6.40757">
        <ele>261</ele>
        <time>2017-06-26T10:39:41Z</time>
      </trkpt>
      <trkpt lat="48.5785" lon="6.40756">
        <ele>261</ele>
        <time>2017-06-26T10:39:42Z</time>
      </trkpt>
      <trkpt lat="48.57851" lon="6.40754">
        <ele>261</ele>
        <time>2017-06-26T10:39:43Z</time>
      </trkpt>
      <trkpt lat="48.57852" lon="6.40752">
        <ele>261</ele>
        <time>2017-06-26T10:39:44Z</time>
      </trkpt>
      <trkpt lat="48.57853" lon="6.40751">
        <ele>263</ele>
        <time>2017-06-26T10:39:45Z</time>
      </trkpt>
      <trkpt lat="48.57855" lon="6.40748">
        <ele>263</ele>
        <time>2017-06-26T10:39:46Z</time>
      </trkpt>
      <trkpt lat="48.57856" lon="6.40746">
        <ele>263</ele>
        <time>2017-06-26T10:39:47Z</time>
      </trkpt>
      <trkpt lat="48.57857" lon="6.40744">
        <ele>263</ele>
        <time>2017-06-26T10:39:48Z</time>
      </trkpt>
      <trkpt lat="48.57859" lon="6.40742">
        <ele>263</ele>
        <time>2017-06-26T10:39:49Z</time>
      </trkpt>
      <trkpt lat="48.5786" lon="6.40739">
        <ele>263</ele>
        <time>2017-06-26T10:39:50Z</time>
      </trkpt>
      <trkpt lat="48.57862" lon="6.40737">
        <ele>263</ele>
        <time>2017-06-26T10:39:51Z</time>
      </trkpt>
      <trkpt lat="48.57864" lon="6.40735">
        <ele>263</ele>
        <time>2017-06-26T10:39:52Z</time>
      </trkpt>
      <trkpt lat="48.57865" lon="6.40733">
        <ele>263</ele>
        <time>2017-06-26T10:39:53Z</time>
      </trkpt>
      <trkpt lat="48.57867" lon="6.40731">
        <ele>263</ele>
        <time>2017-06-26T10:39:54Z</time>
      </trkpt>
      <trkpt lat="48.57869" lon="6.40729">
        <ele>263</ele>
        <time>2017-06-26T10:39:55Z</time>
      </trkpt>
      <trkpt lat="48.57871" lon="6.40727">
        <ele>263</ele>
        <time>2017-06-26T10:39:56Z</time>
      </trkpt>
      <trkpt lat="48.57872" lon="6.40725">
        <ele>263</ele>
        <time>2017-06-26T10:39:57Z</time>
      </trkpt>
      <trkpt lat="48.57874" lon="6.40723">
        <ele>263</ele>
        <time>2017-06-26T10:39:58Z</time>
      </trkpt>
      <trkpt lat="48.57876" lon="6.40722">
        <ele>263</ele>
        <time>2017-06-26T10:39:59Z</time>
      </trkpt>
      <trkpt lat="48.57878" lon="6.4072">
        <ele>263</ele>
        <time>2017-06-26T10:40:00Z</time>
      </trkpt>
      <trkpt lat="48.57879" lon="6.40717">
        <ele>263</ele>
        <time>2017-06-26T10:40:01Z</time>
      </trkpt>
      <trkpt lat="48.57881" lon="6.40715">
        <ele>263</ele>
        <time>2017-06-26T10:40:02Z</time>
      </trkpt>
      <trkpt lat="48.57882" lon="6.40713">
        <ele>263</ele>
        <time>2017-06-26T10:40:03Z</time>
      </trkpt>
      <trkpt lat="48.57884" lon="6.4071">
        <ele>263</ele>
        <time>2017-06-26T10:40:04Z</time>
      </trkpt>
      <trkpt lat="48.57885" lon="6.40708">
        <ele>264</ele>
        <time>2017-06-26T10:40:05Z</time>
      </trkpt>
      <trkpt lat="48.57887" lon="6.40705">
        <ele>264</ele>
        <time>2017-06-26T10:40:06Z</time>
      </trkpt>
      <trkpt lat="48.57888" lon="6.40702">
        <ele>264</ele>
        <time>2017-06-26T10:40:07Z</time>
      </trkpt>
      <trkpt lat="48.5789" lon="6.40699">
        <ele>264</ele>
        <time>2017-06-26T10:40:08Z</time>
      </trkpt>
      <trkpt lat="48.57892" lon="6.40696">
        <ele>264</ele>
        <time>2017-06-26T10:40:09Z</time>
      </trkpt>
      <trkpt lat="48.57893" lon="6.40694">
        <ele>264</ele>
        <time>2017-06-26T10:40:10Z</time>
      </trkpt>
      <trkpt lat="48.57895" lon="6.40691">
        <ele>264</ele>
        <time>2017-06-26T10:40:11Z</time>
      </trkpt>
      <trkpt lat="48.57897" lon="6.40689">
        <ele>264</ele>
        <time>2017-06-26T10:40:12Z</time>
      </trkpt>
      <trkpt lat="48.57899" lon="6.40686">
        <ele>264</ele>
        <time>2017-06-26T10:40:13Z</time>
      </trkpt>
      <trkpt lat="48.57901" lon="6.40684">
        <ele>264</ele>
        <time>2017-06-26T10:40:14Z</time>
      </trkpt>
      <trkpt lat="48.57902" lon="6.40682">
        <ele>264</ele>
        <time>2017-06-26T10:40:15Z</time>
      </trkpt>
      <trkpt lat="48.57904" lon="6.4068">
        <ele>264</ele>
        <time>2017-06-26T10:40:16Z</time>
      </trkpt>
      <trkpt lat="48.57905" lon="6.40678">
        <ele>264</ele>
        <time>2017-06-26T10:40:17Z</time>
      </trkpt>
      <trkpt lat="48.57907" lon="6.40675">
        <ele>264</ele>
        <time>2017-06-26T10:40:18Z</time>
      </trkpt>
      <trkpt lat="48.57908" lon="6.40674">
        <ele>264</ele>
        <time>2017-06-26T10:40:19Z</time>
      </trkpt>
      <trkpt lat="48.5791" lon="6.40672">
        <ele>264</ele>
        <time>2017-06-26T10:40:20Z</time>
      </trkpt>
      <trkpt lat="48.57912" lon="6.40671">
        <ele>264</ele>
        <time>2017-06-26T10:40:21Z</time>
      </trkpt>
      <trkpt lat="48.57913" lon="6.40669">
        <ele>264</ele>
        <time>2017-06-26T10:40:22Z</time>
      </trkpt>
      <trkpt lat="48.57915" lon="6.40668">
        <ele>264</ele>
        <time>2017-06-26T10:40:23Z</time>
      </trkpt>
      <trkpt lat="48.57916" lon="6.40666">
        <ele>264</ele>
        <time>2017-06-26T10:40:24Z</time>
      </trkpt>
      <trkpt lat="48.57918" lon="6.40664">
        <ele>264</ele>
        <time>2017-06-26T10:40:25Z</time>
      </trkpt>
      <trkpt lat="48.5792" lon="6.40662">
        <ele>264</ele>
        <time>2017-06-26T10:40:26Z</time>
      </trkpt>
      <trkpt lat="48.57922" lon="6.4066">
        <ele>264</ele>
        <time>2017-06-26T10:40:27Z</time>
      </trkpt>
      <trkpt lat="48.57923" lon="6.40657">
        <ele>264</ele>
        <time>2017-06-26T10:40:28Z</time>
      </trkpt>
      <trkpt lat="48.57925" lon="6.40655">
        <ele>264</ele>
        <time>2017-06-26T10:40:29Z</time>
      </trkpt>
      <trkpt lat="48.57927" lon="6.40652">
        <ele>264</ele>
        <time>2017-06-26T10:40:30Z</time>
      </trkpt>
      <trkpt lat="48.57928" lon="6.4065">
        <ele>264</ele>
        <time>2017-06-26T10:40:31Z</time>
      </trkpt>
      <trkpt lat="48.5793" lon="6.40647">
        <ele>264</ele>
        <time>2017-06-26T10:40:32Z</time>
      </trkpt>
      <trkpt lat="48.57932" lon="6.40644">
        <ele>264</ele>
        <time>2017-06-26T10:40:33Z</time>
      </trkpt>
      <trkpt lat="48.57934" lon="6.40642">
        <ele>264</ele>
        <time>2017-06-26T10:40:34Z</time>
      </trkpt>
      <trkpt lat="48.57936" lon="6.40639">
        <ele>265</ele>
        <time>2017-06-26T10:40:35Z</time>
      </trkpt>
      <trkpt lat="48.57938" lon="6.40637">
        <ele>265</ele>
        <time>2017-06-26T10:40:36Z</time>
      </trkpt>
      <trkpt lat="48.57939" lon="6.40634">
        <ele>265</ele>
        <time>2017-06-26T10:40:37Z</time>
      </trkpt>
      <trkpt lat="48.57941" lon="6.40632">
        <ele>265</ele>
        <time>2017-06-26T10:40:38Z</time>
      </trkpt>
      <trkpt lat="48.57943" lon="6.4063">
        <ele>265</ele>
        <time>2017-06-26T10:40:39Z</time>
      </trkpt>
      <trkpt lat="48.57945" lon="6.40628">
        <ele>265</ele>
        <time>2017-06-26T10:40:40Z</time>
      </trkpt>
      <trkpt lat="48.57946" lon="6.40625">
        <ele>265</ele>
        <time>2017-06-26T10:40:41Z</time>
      </trkpt>
      <trkpt lat="48.57948" lon="6.40623">
        <ele>265</ele>
        <time>2017-06-26T10:40:42Z</time>
      </trkpt>
      <trkpt lat="48.57949" lon="6.40621">
        <ele>265</ele>
        <time>2017-06-26T10:40:43Z</time>
      </trkpt>
      <trkpt lat="48.57951" lon="6.40619">
        <ele>265</ele>
        <time>2017-06-26T10:40:44Z</time>
      </trkpt>
      <trkpt lat="48.57953" lon="6.40617">
        <ele>265</ele>
        <time>2017-06-26T10:40:45Z</time>
      </trkpt>
      <trkpt lat="48.57955" lon="6.40615">
        <ele>265</ele>
        <time>2017-06-26T10:40:46Z</time>
      </trkpt>
      <trkpt lat="48.57957" lon="6.40613">
        <ele>265</ele>
        <time>2017-06-26T10:40:47Z</time>
      </trkpt>
      <trkpt lat="48.57959" lon="6.4061">
        <ele>265</ele>
        <time>2017-06-26T10:40:48Z</time>
      </trkpt>
      <trkpt lat="48.57961" lon="6.40608">
        <ele>265</ele>
        <time>2017-06-26T10:40:49Z</time>
      </trkpt>
      <trkpt lat="48.57962" lon="6.40606">
        <ele>265</ele>
        <time>2017-06-26T10:40:50Z</time>
      </trkpt>
      <trkpt lat="48.57964" lon="6.40604">
        <ele>265</ele>
        <time>2017-06-26T10:40:51Z</time>
      </trkpt>
      <trkpt lat="48.57966" lon="6.40602">
        <ele>265</ele>
        <time>2017-06-26T10:40:52Z</time>
      </trkpt>
      <trkpt lat="48.57967" lon="6.406">
        <ele>265</ele>
        <time>2017-06-26T10:40:53Z</time>
      </trkpt>
      <trkpt lat="48.57969" lon="6.40598">
        <ele>265</ele>
        <time>2017-06-26T10:40:54Z</time>
      </trkpt>
      <trkpt lat="48.5797" lon="6.40596">
        <ele>266</ele>
        <time>2017-06-26T10:40:55Z</time>
      </trkpt>
      <trkpt lat="48.57972" lon="6.40594">
        <ele>266</ele>
        <time>2017-06-26T10:40:56Z</time>
      </trkpt>
      <trkpt lat="48.57974" lon="6.40592">
        <ele>266</ele>
        <time>2017-06-26T10:40:57Z</time>
      </trkpt>
      <trkpt lat="48.57975" lon="6.4059">
        <ele>266</ele>
        <time>2017-06-26T10:40:58Z</time>
      </trkpt>
      <trkpt lat="48.57977" lon="6.40588">
        <ele>266</ele>
        <time>2017-06-26T10:40:59Z</time>
      </trkpt>
      <trkpt lat="48.57978" lon="6.40587">
        <ele>266</ele>
        <time>2017-06-26T10:41:00Z</time>
      </trkpt>
      <trkpt lat="48.5798" lon="6.40585">
        <ele>266</ele>
        <time>2017-06-26T10:41:01Z</time>
      </trkpt>
      <trkpt lat="48.57981" lon="6.40583">
        <ele>266</ele>
        <time>2017-06-26T10:41:02Z</time>
      </trkpt>
      <trkpt lat="48.57983" lon="6.40581">
        <ele>266</ele>
        <time>2017-06-26T10:41:03Z</time>
      </trkpt>
      <trkpt lat="48.57984" lon="6.40579">
        <ele>266</ele>
        <time>2017-06-26T10:41:04Z</time>
      </trkpt>
      <trkpt lat="48.57986" lon="6.40576">
        <ele>265</ele>
        <time>2017-06-26T10:41:05Z</time>
      </trkpt>
      <trkpt lat="48.57987" lon="6.40574">
        <ele>265</ele>
        <time>2017-06-26T10:41:06Z</time>
      </trkpt>
      <trkpt lat="48.57989" lon="6.40572">
        <ele>265</ele>
        <time>2017-06-26T10:41:07Z</time>
      </trkpt>
      <trkpt lat="48.5799" lon="6.4057">
        <ele>265</ele>
        <time>2017-06-26T10:41:08Z</time>
      </trkpt>
      <trkpt lat="48.57992" lon="6.40568">
        <ele>265</ele>
        <time>2017-06-26T10:41:09Z</time>
      </trkpt>
      <trkpt lat="48.57994" lon="6.40566">
        <ele>265</ele>
        <time>2017-06-26T10:41:10Z</time>
      </trkpt>
      <trkpt lat="48.57995" lon="6.40564">
        <ele>265</ele>
        <time>2017-06-26T10:41:11Z</time>
      </trkpt>
      <trkpt lat="48.57997" lon="6.40562">
        <ele>265</ele>
        <time>2017-06-26T10:41:12Z</time>
      </trkpt>
      <trkpt lat="48.57999" lon="6.4056">
        <ele>265</ele>
        <time>2017-06-26T10:41:13Z</time>
      </trkpt>
      <trkpt lat="48.58001" lon="6.40558">
        <ele>265</ele>
        <time>2017-06-26T10:41:14Z</time>
      </trkpt>
      <trkpt lat="48.58002" lon="6.40556">
        <ele>266</ele>
        <time>2017-06-26T10:41:15Z</time>
      </trkpt>
      <trkpt lat="48.58004" lon="6.40554">
        <ele>266</ele>
        <time>2017-06-26T10:41:16Z</time>
      </trkpt>
      <trkpt lat="48.58006" lon="6.40553">
        <ele>266</ele>
        <time>2017-06-26T10:41:17Z</time>
      </trkpt>
      <trkpt lat="48.58007" lon="6.40551">
        <ele>266</ele>
        <time>2017-06-26T10:41:18Z</time>
      </trkpt>
      <trkpt lat="48.58009" lon="6.40549">
        <ele>266</ele>
        <time>2017-06-26T10:41:19Z</time>
      </trkpt>
      <trkpt lat="48.5801" lon="6.40547">
        <ele>266</ele>
        <time>2017-06-26T10:41:20Z</time>
      </trkpt>
      <trkpt lat="48.58012" lon="6.40546">
        <ele>266</ele>
        <time>2017-06-26T10:41:21Z</time>
      </trkpt>
      <trkpt lat="48.58014" lon="6.40544">
        <ele>266</ele>
        <time>2017-06-26T10:41:22Z</time>
      </trkpt>
      <trkpt lat="48.58015" lon="6.40543">
        <ele>266</ele>
        <time>2017-06-26T10:41:23Z</time>
      </trkpt>
      <trkpt lat="48.58017" lon="6.40541">
        <ele>266</ele>
        <time>2017-06-26T10:41:24Z</time>
      </trkpt>
      <trkpt lat="48.58019" lon="6.4054">
        <ele>266</ele>
        <time>2017-06-26T10:41:25Z</time>
      </trkpt>
      <trkpt lat="48.5802" lon="6.40539">
        <ele>266</ele>
        <time>2017-06-26T10:41:26Z</time>
      </trkpt>
      <trkpt lat="48.58023" lon="6.40537">
        <ele>266</ele>
        <time>2017-06-26T10:41:27Z</time>
      </trkpt>
      <trkpt lat="48.58025" lon="6.40536">
        <ele>266</ele>
        <time>2017-06-26T10:41:28Z</time>
      </trkpt>
      <trkpt lat="48.58027" lon="6.40535">
        <ele>266</ele>
        <time>2017-06-26T10:41:29Z</time>
      </trkpt>
      <trkpt lat="48.5803" lon="6.40534">
        <ele>266</ele>
        <time>2017-06-26T10:41:30Z</time>
      </trkpt>
      <trkpt lat="48.58032" lon="6.40533">
        <ele>266</ele>
        <time>2017-06-26T10:41:31Z</time>
      </trkpt>
      <trkpt lat="48.58035" lon="6.40532">
        <ele>266</ele>
        <time>2017-06-26T10:41:32Z</time>
      </trkpt>
      <trkpt lat="48.58038" lon="6.40532">
        <ele>266</ele>
        <time>2017-06-26T10:41:33Z</time>
      </trkpt>
      <trkpt lat="48.5804" lon="6.40531">
        <ele>266</ele>
        <time>2017-06-26T10:41:34Z</time>
      </trkpt>
      <trkpt lat="48.58043" lon="6.4053">
        <ele>266</ele>
        <time>2017-06-26T10:41:35Z</time>
      </trkpt>
      <trkpt lat="48.58045" lon="6.4053">
        <ele>266</ele>
        <time>2017-06-26T10:41:36Z</time>
      </trkpt>
      <trkpt lat="48.58048" lon="6.40529">
        <ele>266</ele>
        <time>2017-06-26T10:41:37Z</time>
      </trkpt>
      <trkpt lat="48.5805" lon="6.40529">
        <ele>266</ele>
        <time>2017-06-26T10:41:38Z</time>
      </trkpt>
      <trkpt lat="48.58053" lon="6.40528">
        <ele>266</ele>
        <time>2017-06-26T10:41:39Z</time>
      </trkpt>
      <trkpt lat="48.58056" lon="6.40527">
        <ele>266</ele>
        <time>2017-06-26T10:41:40Z</time>
      </trkpt>
      <trkpt lat="48.58059" lon="6.40527">
        <ele>266</ele>
        <time>2017-06-26T10:41:41Z</time>
      </trkpt>
      <trkpt lat="48.58062" lon="6.40526">
        <ele>266</ele>
        <time>2017-06-26T10:41:42Z</time>
      </trkpt>
      <trkpt lat="48.58064" lon="6.40525">
        <ele>266</ele>
        <time>2017-06-26T10:41:43Z</time>
      </trkpt>
      <trkpt lat="48.58066" lon="6.40524">
        <ele>266</ele>
        <time>2017-06-26T10:41:44Z</time>
      </trkpt>
      <trkpt lat="48.58069" lon="6.40524">
        <ele>267</ele>
        <time>2017-06-26T10:41:45Z</time>
      </trkpt>
      <trkpt lat="48.58071" lon="6.40523">
        <ele>267</ele>
        <time>2017-06-26T10:41:46Z</time>
      </trkpt>
      <trkpt lat="48.58074" lon="6.40522">
        <ele>267</ele>
        <time>2017-06-26T10:41:47Z</time>
      </trkpt>
      <trkpt lat="48.58076" lon="6.40521">
        <ele>267</ele>
        <time>2017-06-26T10:41:48Z</time>
      </trkpt>
      <trkpt lat="48.58079" lon="6.4052">
        <ele>267</ele>
        <time>2017-06-26T10:41:49Z</time>
      </trkpt>
      <trkpt lat="48.58081" lon="6.4052">
        <ele>267</ele>
        <time>2017-06-26T10:41:50Z</time>
      </trkpt>
      <trkpt lat="48.58084" lon="6.40519">
        <ele>267</ele>
        <time>2017-06-26T10:41:51Z</time>
      </trkpt>
      <trkpt lat="48.58087" lon="6.40519">
        <ele>267</ele>
        <time>2017-06-26T10:41:52Z</time>
      </trkpt>
      <trkpt lat="48.58089" lon="6.40518">
        <ele>267</ele>
        <time>2017-06-26T10:41:53Z</time>
      </trkpt>
      <trkpt lat="48.58091" lon="6.40517">
        <ele>267</ele>
        <time>2017-06-26T10:41:54Z</time>
      </trkpt>
      <trkpt lat="48.58094" lon="6.40517">
        <ele>267</ele>
        <time>2017-06-26T10:41:55Z</time>
      </trkpt>
      <trkpt lat="48.58096" lon="6.40516">
        <ele>267</ele>
        <time>2017-06-26T10:41:56Z</time>
      </trkpt>
      <trkpt lat="48.58098" lon="6.40515">
        <ele>267</ele>
        <time>2017-06-26T10:41:57Z</time>
      </trkpt>
      <trkpt lat="48.581" lon="6.40515">
        <ele>267</ele>
        <time>2017-06-26T10:41:58Z</time>
      </trkpt>
      <trkpt lat="48.58102" lon="6.40514">
        <ele>267</ele>
        <time>2017-06-26T10:41:59Z</time>
      </trkpt>
      <trkpt lat="48.58104" lon="6.40513">
        <ele>267</ele>
        <time>2017-06-26T10:42:00Z</time>
      </trkpt>
      <trkpt lat="48.58106" lon="6.40513">
        <ele>267</ele>
        <time>2017-06-26T10:42:01Z</time>
      </trkpt>
      <trkpt lat="48.58108" lon="6.40512">
        <ele>267</ele>
        <time>2017-06-26T10:42:02Z</time>
      </trkpt>
      <trkpt lat="48.5811" lon="6.40511">
        <ele>267</ele>
        <time>2017-06-26T10:42:03Z</time>
      </trkpt>
      <trkpt lat="48.58112" lon="6.40511">
        <ele>267</ele>
        <time>2017-06-26T10:42:04Z</time>
      </trkpt>
      <trkpt lat="48.58114" lon="6.4051">
        <ele>267</ele>
        <time>2017-06-26T10:42:05Z</time>
      </trkpt>
      <trkpt lat="48.58115" lon="6.40509">
        <ele>267</ele>
        <time>2017-06-26T10:42:06Z</time>
      </trkpt>
      <trkpt lat="48.58117" lon="6.40508">
        <ele>267</ele>
        <time>2017-06-26T10:42:07Z</time>
      </trkpt>
      <trkpt lat="48.58119" lon="6.40507">
        <ele>267</ele>
        <time>2017-06-26T10:42:08Z</time>
      </trkpt>
      <trkpt lat="48.5812" lon="6.40507">
        <ele>267</ele>
        <time>2017-06-26T10:42:09Z</time>
      </trkpt>
      <trkpt lat="48.58122" lon="6.40506">
        <ele>267</ele>
        <time>2017-06-26T10:42:10Z</time>
      </trkpt>
      <trkpt lat="48.58124" lon="6.40505">
        <ele>267</ele>
        <time>2017-06-26T10:42:11Z</time>
      </trkpt>
      <trkpt lat="48.58125" lon="6.40504">
        <ele>267</ele>
        <time>2017-06-26T10:42:12Z</time>
      </trkpt>
      <trkpt lat="48.58127" lon="6.40504">
        <ele>267</ele>
        <time>2017-06-26T10:42:13Z</time>
      </trkpt>
      <trkpt lat="48.58128" lon="6.40503">
        <ele>267</ele>
        <time>2017-06-26T10:42:14Z</time>
      </trkpt>
      <trkpt lat="48.5813" lon="6.40503">
        <ele>267</ele>
        <time>2017-06-26T10:42:15Z</time>
      </trkpt>
      <trkpt lat="48.58131" lon="6.40502">
        <ele>267</ele>
        <time>2017-06-26T10:42:16Z</time>
      </trkpt>
      <trkpt lat="48.58133" lon="6.40502">
        <ele>267</ele>
        <time>2017-06-26T10:42:17Z</time>
      </trkpt>
      <trkpt lat="48.58134" lon="6.40501">
        <ele>267</ele>
        <time>2017-06-26T10:42:18Z</time>
      </trkpt>
      <trkpt lat="48.58136" lon="6.40501">
        <ele>267</ele>
        <time>2017-06-26T10:42:19Z</time>
      </trkpt>
      <trkpt lat="48.58138" lon="6.405">
        <ele>267</ele>
        <time>2017-06-26T10:42:20Z</time>
      </trkpt>
      <trkpt lat="48.58139" lon="6.40499">
        <ele>267</ele>
        <time>2017-06-26T10:42:21Z</time>
      </trkpt>
      <trkpt lat="48.58141" lon="6.40498">
        <ele>267</ele>
        <time>2017-06-26T10:42:22Z</time>
      </trkpt>
      <trkpt lat="48.58143" lon="6.40497">
        <ele>267</ele>
        <time>2017-06-26T10:42:23Z</time>
      </trkpt>
      <trkpt lat="48.58145" lon="6.40496">
        <ele>267</ele>
        <time>2017-06-26T10:42:24Z</time>
      </trkpt>
      <trkpt lat="48.58146" lon="6.40496">
        <ele>267</ele>
        <time>2017-06-26T10:42:25Z</time>
      </trkpt>
      <trkpt lat="48.58148" lon="6.40495">
        <ele>267</ele>
        <time>2017-06-26T10:42:26Z</time>
      </trkpt>
      <trkpt lat="48.58151" lon="6.40494">
        <ele>267</ele>
        <time>2017-06-26T10:42:27Z</time>
      </trkpt>
      <trkpt lat="48.58153" lon="6.40493">
        <ele>267</ele>
        <time>2017-06-26T10:42:28Z</time>
      </trkpt>
      <trkpt lat="48.58155" lon="6.40492">
        <ele>267</ele>
        <time>2017-06-26T10:42:29Z</time>
      </trkpt>
      <trkpt lat="48.58157" lon="6.40491">
        <ele>267</ele>
        <time>2017-06-26T10:42:30Z</time>
      </trkpt>
      <trkpt lat="48.5816" lon="6.4049">
        <ele>267</ele>
        <time>2017-06-26T10:42:31Z</time>
      </trkpt>
      <trkpt lat="48.58162" lon="6.40489">
        <ele>267</ele>
        <time>2017-06-26T10:42:32Z</time>
      </trkpt>
      <trkpt lat="48.58164" lon="6.40488">
        <ele>267</ele>
        <time>2017-06-26T10:42:33Z</time>
      </trkpt>
      <trkpt lat="48.58167" lon="6.40487">
        <ele>267</ele>
        <time>2017-06-26T10:42:34Z</time>
      </trkpt>
      <trkpt lat="48.58169" lon="6.40487">
        <ele>268</ele>
        <time>2017-06-26T10:42:35Z</time>
      </trkpt>
      <trkpt lat="48.58171" lon="6.40486">
        <ele>268</ele>
        <time>2017-06-26T10:42:36Z</time>
      </trkpt>
      <trkpt lat="48.58174" lon="6.40486">
        <ele>268</ele>
        <time>2017-06-26T10:42:37Z</time>
      </trkpt>
      <trkpt lat="48.58176" lon="6.40485">
        <ele>268</ele>
        <time>2017-06-26T10:42:38Z</time>
      </trkpt>
      <trkpt lat="48.58178" lon="6.40485">
        <ele>268</ele>
        <time>2017-06-26T10:42:39Z</time>
      </trkpt>
      <trkpt lat="48.5818" lon="6.40484">
        <ele>268</ele>
        <time>2017-06-26T10:42:40Z</time>
      </trkpt>
      <trkpt lat="48.58183" lon="6.40486">
        <ele>268</ele>
        <time>2017-06-26T10:42:41Z</time>
      </trkpt>
      <trkpt lat="48.58185" lon="6.40487">
        <ele>268</ele>
        <time>2017-06-26T10:42:42Z</time>
      </trkpt>
      <trkpt lat="48.58187" lon="6.40489">
        <ele>268</ele>
        <time>2017-06-26T10:42:43Z</time>
      </trkpt>
      <trkpt lat="48.58189" lon="6.4049">
        <ele>268</ele>
        <time>2017-06-26T10:42:44Z</time>
      </trkpt>
      <trkpt lat="48.58192" lon="6.40492">
        <ele>268</ele>
        <time>2017-06-26T10:42:45Z</time>
      </trkpt>
      <trkpt lat="48.58193" lon="6.40495">
        <ele>268</ele>
        <time>2017-06-26T10:42:46Z</time>
      </trkpt>
      <trkpt lat="48.58195" lon="6.40498">
        <ele>268</ele>
        <time>2017-06-26T10:42:47Z</time>
      </trkpt>
      <trkpt lat="48.58197" lon="6.40501">
        <ele>268</ele>
        <time>2017-06-26T10:42:48Z</time>
      </trkpt>
      <trkpt lat="48.58198" lon="6.40504">
        <ele>268</ele>
        <time>2017-06-26T10:42:49Z</time>
      </trkpt>
      <trkpt lat="48.582" lon="6.40507">
        <ele>268</ele>
        <time>2017-06-26T10:42:50Z</time>
      </trkpt>
      <trkpt lat="48.58202" lon="6.40509">
        <ele>268</ele>
        <time>2017-06-26T10:42:51Z</time>
      </trkpt>
      <trkpt lat="48.58203" lon="6.40512">
        <ele>268</ele>
        <time>2017-06-26T10:42:52Z</time>
      </trkpt>
      <trkpt lat="48.58205" lon="6.40514">
        <ele>268</ele>
        <time>2017-06-26T10:42:53Z</time>
      </trkpt>
      <trkpt lat="48.58206" lon="6.40517">
        <ele>268</ele>
        <time>2017-06-26T10:42:54Z</time>
      </trkpt>
      <trkpt lat="48.58208" lon="6.4052">
        <ele>269</ele>
        <time>2017-06-26T10:42:55Z</time>
      </trkpt>
      <trkpt lat="48.5821" lon="6.40522">
        <ele>269</ele>
        <time>2017-06-26T10:42:56Z</time>
      </trkpt>
      <trkpt lat="48.58211" lon="6.40525">
        <ele>269</ele>
        <time>2017-06-26T10:42:57Z</time>
      </trkpt>
      <trkpt lat="48.58213" lon="6.40528">
        <ele>269</ele>
        <time>2017-06-26T10:42:58Z</time>
      </trkpt>
      <trkpt lat="48.58214" lon="6.4053">
        <ele>269</ele>
        <time>2017-06-26T10:42:59Z</time>
      </trkpt>
      <trkpt lat="48.58216" lon="6.40533">
        <ele>269</ele>
        <time>2017-06-26T10:43:00Z</time>
      </trkpt>
      <trkpt lat="48.58217" lon="6.40536">
        <ele>269</ele>
        <time>2017-06-26T10:43:01Z</time>
      </trkpt>
      <trkpt lat="48.58219" lon="6.40539">
        <ele>269</ele>
        <time>2017-06-26T10:43:02Z</time>
      </trkpt>
      <trkpt lat="48.5822" lon="6.40542">
        <ele>269</ele>
        <time>2017-06-26T10:43:03Z</time>
      </trkpt>
      <trkpt lat="48.58221" lon="6.40544">
        <ele>269</ele>
        <time>2017-06-26T10:43:04Z</time>
      </trkpt>
      <trkpt lat="48.58223" lon="6.40547">
        <ele>268</ele>
        <time>2017-06-26T10:43:05Z</time>
      </trkpt>
      <trkpt lat="48.58224" lon="6.4055">
        <ele>268</ele>
        <time>2017-06-26T10:43:06Z</time>
      </trkpt>
      <trkpt lat="48.58226" lon="6.40553">
        <ele>268</ele>
        <time>2017-06-26T10:43:07Z</time>
      </trkpt>
      <trkpt lat="48.58227" lon="6.40556">
        <ele>268</ele>
        <time>2017-06-26T10:43:08Z</time>
      </trkpt>
      <trkpt lat="48.58228" lon="6.40559">
        <ele>268</ele>
        <time>2017-06-26T10:43:09Z</time>
      </trkpt>
      <trkpt lat="48.5823" lon="6.40562">
        <ele>268</ele>
        <time>2017-06-26T10:43:10Z</time>
      </trkpt>
      <trkpt lat="48.5823" lon="6.40565">
        <ele>268</ele>
        <time>2017-06-26T10:43:11Z</time>
      </trkpt>
      <trkpt lat="48.58231" lon="6.40567">
        <ele>268</ele>
        <time>2017-06-26T10:43:12Z</time>
      </trkpt>
      <trkpt lat="48.58232" lon="6.4057">
        <ele>268</ele>
        <time>2017-06-26T10:43:13Z</time>
      </trkpt>
      <trkpt lat="48.58233" lon="6.40572">
        <ele>268</ele>
        <time>2017-06-26T10:43:14Z</time>
      </trkpt>
      <trkpt lat="48.58233" lon="6.40575">
        <ele>269</ele>
        <time>2017-06-26T10:43:15Z</time>
      </trkpt>
      <trkpt lat="48.58234" lon="6.40577">
        <ele>269</ele>
        <time>2017-06-26T10:43:16Z</time>
      </trkpt>
      <trkpt lat="48.58235" lon="6.4058">
        <ele>269</ele>
        <time>2017-06-26T10:43:17Z</time>
      </trkpt>
      <trkpt lat="48.58236" lon="6.40583">
        <ele>269</ele>
        <time>2017-06-26T10:43:18Z</time>
      </trkpt>
      <trkpt lat="48.58237" lon="6.40586">
        <ele>269</ele>
        <time>2017-06-26T10:43:19Z</time>
      </trkpt>
      <trkpt lat="48.58238" lon="6.40589">
        <ele>269</ele>
        <time>2017-06-26T10:43:20Z</time>
      </trkpt>
      <trkpt lat="48.58239" lon="6.40592">
        <ele>269</ele>
        <time>2017-06-26T10:43:21Z</time>
      </trkpt>
      <trkpt lat="48.5824" lon="6.40595">
        <ele>269</ele>
        <time>2017-06-26T10:43:22Z</time>
      </trkpt>
      <trkpt lat="48.5824" lon="6.40598">
        <ele>269</ele>
        <time>2017-06-26T10:43:23Z</time>
      </trkpt>
      <trkpt lat="48.58241" lon="6.40601">
        <ele>269</ele>
        <time>2017-06-26T10:43:24Z</time>
      </trkpt>
      <trkpt lat="48.58242" lon="6.40604">
        <ele>269</ele>
        <time>2017-06-26T10:43:25Z</time>
      </trkpt>
      <trkpt lat="48.58242" lon="6.40607">
        <ele>269</ele>
        <time>2017-06-26T10:43:26Z</time>
      </trkpt>
      <trkpt lat="48.58243" lon="6.40609">
        <ele>269</ele>
        <time>2017-06-26T10:43:27Z</time>
      </trkpt>
      <trkpt lat="48.58244" lon="6.40612">
        <ele>269</ele>
        <time>2017-06-26T10:43:28Z</time>
      </trkpt>
      <trkpt lat="48.58244" lon="6.40615">
        <ele>269</ele>
        <time>2017-06-26T10:43:29Z</time>
      </trkpt>
      <trkpt lat="48.58245" lon="6.40617">
        <ele>269</ele>
        <time>2017-06-26T10:43:30Z</time>
      </trkpt>
      <trkpt lat="48.58246" lon="6.4062">
        <ele>269</ele>
        <time>2017-06-26T10:43:31Z</time>
      </trkpt>
      <trkpt lat="48.58246" lon="6.40622">
        <ele>269</ele>
        <time>2017-06-26T10:43:32Z</time>
      </trkpt>
      <trkpt lat="48.58247" lon="6.40625">
        <ele>269</ele>
        <time>2017-06-26T10:43:33Z</time>
      </trkpt>
      <trkpt lat="48.58248" lon="6.40628">
        <ele>269</ele>
        <time>2017-06-26T10:43:34Z</time>
      </trkpt>
      <trkpt lat="48.58249" lon="6.40631">
        <ele>270</ele>
        <time>2017-06-26T10:43:35Z</time>
      </trkpt>
      <trkpt lat="48.5825" lon="6.40635">
        <ele>270</ele>
        <time>2017-06-26T10:43:36Z</time>
      </trkpt>
      <trkpt lat="48.58251" lon="6.40638">
        <ele>270</ele>
        <time>2017-06-26T10:43:37Z</time>
      </trkpt>
      <trkpt lat="48.58252" lon="6.4064">
        <ele>270</ele>
        <time>2017-06-26T10:43:38Z</time>
      </trkpt>
      <trkpt lat="48.58253" lon="6.40643">
        <ele>270</ele>
        <time>2017-06-26T10:43:39Z</time>
      </trkpt>
      <trkpt lat="48.58254" lon="6.40646">
        <ele>270</ele>
        <time>2017-06-26T10:43:40Z</time>
      </trkpt>
      <trkpt lat="48.58255" lon="6.40649">
        <ele>270</ele>
        <time>2017-06-26T10:43:41Z</time>
      </trkpt>
      <trkpt lat="48.58257" lon="6.40652">
        <ele>270</ele>
        <time>2017-06-26T10:43:42Z</time>
      </trkpt>
      <trkpt lat="48.58258" lon="6.40653">
        <ele>270</ele>
        <time>2017-06-26T10:43:43Z</time>
      </trkpt>
      <trkpt lat="48.58258" lon="6.40655">
        <ele>270</ele>
        <time>2017-06-26T10:43:44Z</time>
      </trkpt>
      <trkpt lat="48.58259" lon="6.40656">
        <ele>270</ele>
        <time>2017-06-26T10:43:45Z</time>
      </trkpt>
      <trkpt lat="48.5826" lon="6.40658">
        <ele>270</ele>
        <time>2017-06-26T10:43:46Z</time>
      </trkpt>
      <trkpt lat="48.58264" lon="6.40664">
        <ele>270</ele>
        <time>2017-06-26T10:43:47Z</time>
      </trkpt>
      <trkpt lat="48.58265" lon="6.40665">
        <ele>270</ele>
        <time>2017-06-26T10:43:48Z</time>
      </trkpt>
      <trkpt lat="48.58265" lon="6.40667">
        <ele>270</ele>
        <time>2017-06-26T10:43:49Z</time>
      </trkpt>
      <trkpt lat="48.58266" lon="6.40669">
        <ele>270</ele>
        <time>2017-06-26T10:43:50Z</time>
      </trkpt>
      <trkpt lat="48.58266" lon="6.40671">
        <ele>270</ele>
        <time>2017-06-26T10:43:51Z</time>
      </trkpt>
      <trkpt lat="48.58269" lon="6.40679">
        <ele>270</ele>
        <time>2017-06-26T10:43:52Z</time>
      </trkpt>
      <trkpt lat="48.5827" lon="6.40681">
        <ele>270</ele>
        <time>2017-06-26T10:43:53Z</time>
      </trkpt>
      <trkpt lat="48.58271" lon="6.40683">
        <ele>270</ele>
        <time>2017-06-26T10:43:54Z</time>
      </trkpt>
      <trkpt lat="48.58271" lon="6.40685">
        <ele>270</ele>
        <time>2017-06-26T10:43:55Z</time>
      </trkpt>
      <trkpt lat="48.58272" lon="6.40687">
        <ele>270</ele>
        <time>2017-06-26T10:43:56Z</time>
      </trkpt>
      <trkpt lat="48.58275" lon="6.40695">
        <ele>270</ele>
        <time>2017-06-26T10:43:57Z</time>
      </trkpt>
      <trkpt lat="48.58275" lon="6.40696">
        <ele>270</ele>
        <time>2017-06-26T10:43:58Z</time>
      </trkpt>
      <trkpt lat="48.58276" lon="6.40698">
        <ele>270</ele>
        <time>2017-06-26T10:43:59Z</time>
      </trkpt>
      <trkpt lat="48.58276" lon="6.407">
        <ele>270</ele>
        <time>2017-06-26T10:44:00Z</time>
      </trkpt>
      <trkpt lat="48.58277" lon="6.40701">
        <ele>270</ele>
        <time>2017-06-26T10:44:01Z</time>
      </trkpt>
      <trkpt lat="48.58277" lon="6.40703">
        <ele>270</ele>
        <time>2017-06-26T10:44:02Z</time>
      </trkpt>
      <trkpt lat="48.5828" lon="6.40711">
        <ele>270</ele>
        <time>2017-06-26T10:44:03Z</time>
      </trkpt>
      <trkpt lat="48.5828" lon="6.40713">
        <ele>270</ele>
        <time>2017-06-26T10:44:04Z</time>
      </trkpt>
      <trkpt lat="48.58281" lon="6.40714">
        <ele>271</ele>
        <time>2017-06-26T10:44:05Z</time>
      </trkpt>
      <trkpt lat="48.58282" lon="6.40716">
        <ele>271</ele>
        <time>2017-06-26T10:44:06Z</time>
      </trkpt>
      <trkpt lat="48.58282" lon="6.40718">
        <ele>271</ele>
        <time>2017-06-26T10:44:07Z</time>
      </trkpt>
      <trkpt lat="48.58285" lon="6.40725">
        <ele>271</ele>
        <time>2017-06-26T10:44:08Z</time>
      </trkpt>
      <trkpt lat="48.58285" lon="6.40727">
        <ele>271</ele>
        <time>2017-06-26T10:44:09Z</time>
      </trkpt>
      <trkpt lat="48.58286" lon="6.40728">
        <ele>271</ele>
        <time>2017-06-26T10:44:10Z</time>
      </trkpt>
      <trkpt lat="48.58286" lon="6.4073">
        <ele>271</ele>
        <time>2017-06-26T10:44:11Z</time>
      </trkpt>
      <trkpt lat="48.58287" lon="6.40731">
        <ele>271</ele>
        <time>2017-06-26T10:44:12Z</time>
      </trkpt>
      <trkpt lat="48.58287" lon="6.40733">
        <ele>271</ele>
        <time>2017-06-26T10:44:13Z</time>
      </trkpt>
      <trkpt lat="48.58289" lon="6.40741">
        <ele>271</ele>
        <time>2017-06-26T10:44:14Z</time>
      </trkpt>
      <trkpt lat="48.5829" lon="6.40742">
        <ele>272</ele>
        <time>2017-06-26T10:44:15Z</time>
      </trkpt>
      <trkpt lat="48.5829" lon="6.40744">
        <ele>272</ele>
        <time>2017-06-26T10:44:16Z</time>
      </trkpt>
      <trkpt lat="48.58291" lon="6.40745">
        <ele>272</ele>
        <time>2017-06-26T10:44:17Z</time>
      </trkpt>
      <trkpt lat="48.58291" lon="6.40747">
        <ele>272</ele>
        <time>2017-06-26T10:44:18Z</time>
      </trkpt>
      <trkpt lat="48.58292" lon="6.40749">
        <ele>272</ele>
        <time>2017-06-26T10:44:19Z</time>
      </trkpt>
      <trkpt lat="48.58294" lon="6.40756">
        <ele>272</ele>
        <time>2017-06-26T10:44:20Z</time>
      </trkpt>
      <trkpt lat="48.58295" lon="6.40759">
        <ele>272</ele>
        <time>2017-06-26T10:44:21Z</time>
      </trkpt>
      <trkpt lat="48.58296" lon="6.40762">
        <ele>272</ele>
        <time>2017-06-26T10:44:22Z</time>
      </trkpt>
      <trkpt lat="48.58296" lon="6.40765">
        <ele>272</ele>
        <time>2017-06-26T10:44:23Z</time>
      </trkpt>
      <trkpt lat="48.58297" lon="6.40767">
        <ele>272</ele>
        <time>2017-06-26T10:44:24Z</time>
      </trkpt>
      <trkpt lat="48.58298" lon="6.4077">
        <ele>272</ele>
        <time>2017-06-26T10:44:25Z</time>
      </trkpt>
      <trkpt lat="48.58299" lon="6.40773">
        <ele>272</ele>
        <time>2017-06-26T10:44:26Z</time>
      </trkpt>
      <trkpt lat="48.58299" lon="6.40776">
        <ele>272</ele>
        <time>2017-06-26T10:44:27Z</time>
      </trkpt>
      <trkpt lat="48.583" lon="6.40779">
        <ele>272</ele>
        <time>2017-06-26T10:44:28Z</time>
      </trkpt>
      <trkpt lat="48.58301" lon="6.40782">
        <ele>272</ele>
        <time>2017-06-26T10:44:29Z</time>
      </trkpt>
      <trkpt lat="48.58302" lon="6.40785">
        <ele>272</ele>
        <time>2017-06-26T10:44:30Z</time>
      </trkpt>
      <trkpt lat="48.58302" lon="6.40786">
        <ele>272</ele>
        <time>2017-06-26T10:44:31Z</time>
      </trkpt>
      <trkpt lat="48.58303" lon="6.40788">
        <ele>272</ele>
        <time>2017-06-26T10:44:32Z</time>
      </trkpt>
      <trkpt lat="48.58303" lon="6.4079">
        <ele>272</ele>
        <time>2017-06-26T10:44:33Z</time>
      </trkpt>
      <trkpt lat="48.58303" lon="6.40792">
        <ele>272</ele>
        <time>2017-06-26T10:44:34Z</time>
      </trkpt>
      <trkpt lat="48.58305" lon="6.40799">
        <ele>272</ele>
        <time>2017-06-26T10:44:35Z</time>
      </trkpt>
      <trkpt lat="48.58306" lon="6.40802">
        <ele>272</ele>
        <time>2017-06-26T10:44:36Z</time>
      </trkpt>
      <trkpt lat="48.58307" lon="6.40805">
        <ele>272</ele>
        <time>2017-06-26T10:44:37Z</time>
      </trkpt>
      <trkpt lat="48.58308" lon="6.40808">
        <ele>272</ele>
        <time>2017-06-26T10:44:38Z</time>
      </trkpt>
      <trkpt lat="48.58308" lon="6.40811">
        <ele>272</ele>
        <time>2017-06-26T10:44:39Z</time>
      </trkpt>
      <trkpt lat="48.58309" lon="6.40814">
        <ele>272</ele>
        <time>2017-06-26T10:44:40Z</time>
      </trkpt>
      <trkpt lat="48.58309" lon="6.40816">
        <ele>272</ele>
        <time>2017-06-26T10:44:41Z</time>
      </trkpt>
      <trkpt lat="48.5831" lon="6.40818">
        <ele>272</ele>
        <time>2017-06-26T10:44:42Z</time>
      </trkpt>
      <trkpt lat="48.5831" lon="6.4082">
        <ele>272</ele>
        <time>2017-06-26T10:44:43Z</time>
      </trkpt>
      <trkpt lat="48.5831" lon="6.40821">
        <ele>272</ele>
        <time>2017-06-26T10:44:44Z</time>
      </trkpt>
      <trkpt lat="48.58311" lon="6.40829">
        <ele>272</ele>
        <time>2017-06-26T10:44:45Z</time>
      </trkpt>
      <trkpt lat="48.58312" lon="6.40832">
        <ele>272</ele>
        <time>2017-06-26T10:44:46Z</time>
      </trkpt>
      <trkpt lat="48.58313" lon="6.40834">
        <ele>272</ele>
        <time>2017-06-26T10:44:47Z</time>
      </trkpt>
      <trkpt lat="48.58314" lon="6.40837">
        <ele>272</ele>
        <time>2017-06-26T10:44:48Z</time>
      </trkpt>
      <trkpt lat="48.58315" lon="6.4084">
        <ele>272</ele>
        <time>2017-06-26T10:44:49Z</time>
      </trkpt>
      <trkpt lat="48.58316" lon="6.40843">
        <ele>272</ele>
        <time>2017-06-26T10:44:50Z</time>
      </trkpt>
      <trkpt lat="48.58317" lon="6.40844">
        <ele>272</ele>
        <time>2017-06-26T10:44:51Z</time>
      </trkpt>
      <trkpt lat="48.58318" lon="6.40846">
        <ele>272</ele>
        <time>2017-06-26T10:44:52Z</time>
      </trkpt>
      <trkpt lat="48.58318" lon="6.40848">
        <ele>272</ele>
        <time>2017-06-26T10:44:53Z</time>
      </trkpt>
      <trkpt lat="48.58319" lon="6.40849">
        <ele>272</ele>
        <time>2017-06-26T10:44:54Z</time>
      </trkpt>
      <trkpt lat="48.58321" lon="6.40856">
        <ele>273</ele>
        <time>2017-06-26T10:44:55Z</time>
      </trkpt>
      <trkpt lat="48.58322" lon="6.40858">
        <ele>273</ele>
        <time>2017-06-26T10:44:56Z</time>
      </trkpt>
      <trkpt lat="48.58322" lon="6.40859">
        <ele>273</ele>
        <time>2017-06-26T10:44:57Z</time>
      </trkpt>
      <trkpt lat="48.58323" lon="6.40861">
        <ele>273</ele>
        <time>2017-06-26T10:44:58Z</time>
      </trkpt>
      <trkpt lat="48.58323" lon="6.40863">
        <ele>273</ele>
        <time>2017-06-26T10:44:59Z</time>
      </trkpt>
      <trkpt lat="48.58323" lon="6.40864">
        <ele>273</ele>
        <time>2017-06-26T10:45:00Z</time>
      </trkpt>
      <trkpt lat="48.58325" lon="6.40872">
        <ele>273</ele>
        <time>2017-06-26T10:45:01Z</time>
      </trkpt>
      <trkpt lat="48.58326" lon="6.40874">
        <ele>273</ele>
        <time>2017-06-26T10:45:02Z</time>
      </trkpt>
      <trkpt lat="48.58327" lon="6.40877">
        <ele>273</ele>
        <time>2017-06-26T10:45:03Z</time>
      </trkpt>
      <trkpt lat="48.58329" lon="6.4088">
        <ele>273</ele>
        <time>2017-06-26T10:45:04Z</time>
      </trkpt>
      <trkpt lat="48.5833" lon="6.40882">
        <ele>273</ele>
        <time>2017-06-26T10:45:05Z</time>
      </trkpt>
      <trkpt lat="48.58331" lon="6.40885">
        <ele>273</ele>
        <time>2017-06-26T10:45:06Z</time>
      </trkpt>
      <trkpt lat="48.58331" lon="6.40887">
        <ele>273</ele>
        <time>2017-06-26T10:45:07Z</time>
      </trkpt>
      <trkpt lat="48.58332" lon="6.4089">
        <ele>273</ele>
        <time>2017-06-26T10:45:08Z</time>
      </trkpt>
      <trkpt lat="48.58333" lon="6.40892">
        <ele>273</ele>
        <time>2017-06-26T10:45:09Z</time>
      </trkpt>
      <trkpt lat="48.58335" lon="6.40899">
        <ele>273</ele>
        <time>2017-06-26T10:45:10Z</time>
      </trkpt>
      <trkpt lat="48.58335" lon="6.409">
        <ele>273</ele>
        <time>2017-06-26T10:45:11Z</time>
      </trkpt>
      <trkpt lat="48.58336" lon="6.40901">
        <ele>273</ele>
        <time>2017-06-26T10:45:12Z</time>
      </trkpt>
      <trkpt lat="48.58336" lon="6.40902">
        <ele>273</ele>
        <time>2017-06-26T10:45:13Z</time>
      </trkpt>
      <trkpt lat="48.58337" lon="6.40903">
        <ele>273</ele>
        <time>2017-06-26T10:45:14Z</time>
      </trkpt>
      <trkpt lat="48.58338" lon="6.40904">
        <ele>274</ele>
        <time>2017-06-26T10:45:15Z</time>
      </trkpt>
      <trkpt lat="48.58338" lon="6.40905">
        <ele>274</ele>
        <time>2017-06-26T10:45:16Z</time>
      </trkpt>
      <trkpt lat="48.58339" lon="6.40906">
        <ele>274</ele>
        <time>2017-06-26T10:45:17Z</time>
      </trkpt>
      <trkpt lat="48.58339" lon="6.40907">
        <ele>274</ele>
        <time>2017-06-26T10:45:18Z</time>
      </trkpt>
      <trkpt lat="48.5834" lon="6.40908">
        <ele>274</ele>
        <time>2017-06-26T10:45:19Z</time>
      </trkpt>
      <trkpt lat="48.58341" lon="6.40909">
        <ele>274</ele>
        <time>2017-06-26T10:45:20Z</time>
      </trkpt>
      <trkpt lat="48.58341" lon="6.4091">
        <ele>274</ele>
        <time>2017-06-26T10:45:21Z</time>
      </trkpt>
      <trkpt lat="48.58341" lon="6.40911">
        <ele>274</ele>
        <time>2017-06-26T10:45:25Z</time>
      </trkpt>
      <trkpt lat="48.58341" lon="6.40912">
        <ele>274</ele>
        <time>2017-06-26T10:45:30Z</time>
      </trkpt>
      <trkpt lat="48.58341" lon="6.40913">
        <ele>274</ele>
        <time>2017-06-26T10:45:36Z</time>
      </trkpt>
      <trkpt lat="48.58341" lon="6.40914">
        <ele>274</ele>
        <time>2017-06-26T10:45:42Z</time>
      </trkpt>
      <trkpt lat="48.58341" lon="6.40915">
        <ele>274</ele>
        <time>2017-06-26T10:45:48Z</time>
      </trkpt>
      <trkpt lat="48.58341" lon="6.40916">
        <ele>274</ele>
        <time>2017-06-26T10:45:54Z</time>
      </trkpt>
      <trkpt lat="48.58341" lon="6.40917">
        <ele>274</ele>
        <time>2017-06-26T10:45:59Z</time>
      </trkpt>
      <trkpt lat="48.58341" lon="6.40918">
        <ele>274</ele>
        <time>2017-06-26T10:46:05Z</time>
      </trkpt>
      <trkpt lat="48.58341" lon="6.40925">
        <ele>274</ele>
        <time>2017-06-26T10:46:06Z</time>
      </trkpt>
      <trkpt lat="48.5834" lon="6.40928">
        <ele>274</ele>
        <time>2017-06-26T10:46:07Z</time>
      </trkpt>
      <trkpt lat="48.5834" lon="6.4093">
        <ele>274</ele>
        <time>2017-06-26T10:46:08Z</time>
      </trkpt>
      <trkpt lat="48.58339" lon="6.40932">
        <ele>274</ele>
        <time>2017-06-26T10:46:09Z</time>
      </trkpt>
      <trkpt lat="48.58339" lon="6.40935">
        <ele>274</ele>
        <time>2017-06-26T10:46:10Z</time>
      </trkpt>
      <trkpt lat="48.58338" lon="6.40937">
        <ele>274</ele>
        <time>2017-06-26T10:46:11Z</time>
      </trkpt>
      <trkpt lat="48.58338" lon="6.40939">
        <ele>274</ele>
        <time>2017-06-26T10:46:12Z</time>
      </trkpt>
      <trkpt lat="48.58336" lon="6.40942">
        <ele>274</ele>
        <time>2017-06-26T10:46:13Z</time>
      </trkpt>
      <trkpt lat="48.58335" lon="6.40944">
        <ele>274</ele>
        <time>2017-06-26T10:46:14Z</time>
      </trkpt>
      <trkpt lat="48.58334" lon="6.40947">
        <ele>273</ele>
        <time>2017-06-26T10:46:15Z</time>
      </trkpt>
      <trkpt lat="48.58333" lon="6.4095">
        <ele>273</ele>
        <time>2017-06-26T10:46:16Z</time>
      </trkpt>
      <trkpt lat="48.58331" lon="6.40952">
        <ele>273</ele>
        <time>2017-06-26T10:46:17Z</time>
      </trkpt>
      <trkpt lat="48.58331" lon="6.40954">
        <ele>273</ele>
        <time>2017-06-26T10:46:18Z</time>
      </trkpt>
      <trkpt lat="48.5833" lon="6.40956">
        <ele>273</ele>
        <time>2017-06-26T10:46:19Z</time>
      </trkpt>
      <trkpt lat="48.5833" lon="6.40957">
        <ele>273</ele>
        <time>2017-06-26T10:46:20Z</time>
      </trkpt>
      <trkpt lat="48.58329" lon="6.40959">
        <ele>273</ele>
        <time>2017-06-26T10:46:21Z</time>
      </trkpt>
      <trkpt lat="48.58327" lon="6.40966">
        <ele>273</ele>
        <time>2017-06-26T10:46:22Z</time>
      </trkpt>
      <trkpt lat="48.58327" lon="6.40968">
        <ele>273</ele>
        <time>2017-06-26T10:46:23Z</time>
      </trkpt>
      <trkpt lat="48.58326" lon="6.4097">
        <ele>273</ele>
        <time>2017-06-26T10:46:24Z</time>
      </trkpt>
      <trkpt lat="48.58325" lon="6.40972">
        <ele>272</ele>
        <time>2017-06-26T10:46:25Z</time>
      </trkpt>
      <trkpt lat="48.58324" lon="6.40973">
        <ele>272</ele>
        <time>2017-06-26T10:46:26Z</time>
      </trkpt>
      <trkpt lat="48.58321" lon="6.4098">
        <ele>272</ele>
        <time>2017-06-26T10:46:27Z</time>
      </trkpt>
      <trkpt lat="48.58321" lon="6.40983">
        <ele>272</ele>
        <time>2017-06-26T10:46:28Z</time>
      </trkpt>
      <trkpt lat="48.5832" lon="6.40986">
        <ele>272</ele>
        <time>2017-06-26T10:46:29Z</time>
      </trkpt>
      <trkpt lat="48.58319" lon="6.40989">
        <ele>272</ele>
        <time>2017-06-26T10:46:30Z</time>
      </trkpt>
      <trkpt lat="48.58318" lon="6.40992">
        <ele>272</ele>
        <time>2017-06-26T10:46:31Z</time>
      </trkpt>
      <trkpt lat="48.58317" lon="6.40995">
        <ele>272</ele>
        <time>2017-06-26T10:46:32Z</time>
      </trkpt>
      <trkpt lat="48.58317" lon="6.40996">
        <ele>272</ele>
        <time>2017-06-26T10:46:33Z</time>
      </trkpt>
      <trkpt lat="48.58316" lon="6.40998">
        <ele>272</ele>
        <time>2017-06-26T10:46:34Z</time>
      </trkpt>
      <trkpt lat="48.58315" lon="6.41">
        <ele>272</ele>
        <time>2017-06-26T10:46:35Z</time>
      </trkpt>
      <trkpt lat="48.58315" lon="6.41002">
        <ele>272</ele>
        <time>2017-06-26T10:46:36Z</time>
      </trkpt>
      <trkpt lat="48.58312" lon="6.41009">
        <ele>272</ele>
        <time>2017-06-26T10:46:37Z</time>
      </trkpt>
      <trkpt lat="48.58312" lon="6.41011">
        <ele>272</ele>
        <time>2017-06-26T10:46:38Z</time>
      </trkpt>
      <trkpt lat="48.58311" lon="6.41013">
        <ele>272</ele>
        <time>2017-06-26T10:46:39Z</time>
      </trkpt>
      <trkpt lat="48.5831" lon="6.41015">
        <ele>272</ele>
        <time>2017-06-26T10:46:40Z</time>
      </trkpt>
      <trkpt lat="48.58309" lon="6.41017">
        <ele>272</ele>
        <time>2017-06-26T10:46:41Z</time>
      </trkpt>
      <trkpt lat="48.58306" lon="6.41026">
        <ele>272</ele>
        <time>2017-06-26T10:46:42Z</time>
      </trkpt>
      <trkpt lat="48.58306" lon="6.41028">
        <ele>272</ele>
        <time>2017-06-26T10:46:43Z</time>
      </trkpt>
      <trkpt lat="48.58305" lon="6.4103">
        <ele>272</ele>
        <time>2017-06-26T10:46:44Z</time>
      </trkpt>
      <trkpt lat="48.58304" lon="6.41032">
        <ele>271</ele>
        <time>2017-06-26T10:46:45Z</time>
      </trkpt>
      <trkpt lat="48.58303" lon="6.41033">
        <ele>271</ele>
        <time>2017-06-26T10:46:46Z</time>
      </trkpt>
      <trkpt lat="48.583" lon="6.41041">
        <ele>271</ele>
        <time>2017-06-26T10:46:47Z</time>
      </trkpt>
      <trkpt lat="48.58299" lon="6.41044">
        <ele>271</ele>
        <time>2017-06-26T10:46:48Z</time>
      </trkpt>
      <trkpt lat="48.58297" lon="6.41048">
        <ele>271</ele>
        <time>2017-06-26T10:46:49Z</time>
      </trkpt>
      <trkpt lat="48.58296" lon="6.41051">
        <ele>271</ele>
        <time>2017-06-26T10:46:50Z</time>
      </trkpt>
      <trkpt lat="48.58295" lon="6.41054">
        <ele>271</ele>
        <time>2017-06-26T10:46:51Z</time>
      </trkpt>
      <trkpt lat="48.58294" lon="6.41056">
        <ele>271</ele>
        <time>2017-06-26T10:46:52Z</time>
      </trkpt>
      <trkpt lat="48.58293" lon="6.41058">
        <ele>271</ele>
        <time>2017-06-26T10:46:53Z</time>
      </trkpt>
      <trkpt lat="48.58293" lon="6.4106">
        <ele>271</ele>
        <time>2017-06-26T10:46:54Z</time>
      </trkpt>
      <trkpt lat="48.58292" lon="6.41062">
        <ele>269</ele>
        <time>2017-06-26T10:46:55Z</time>
      </trkpt>
      <trkpt lat="48.5829" lon="6.4107">
        <ele>269</ele>
        <time>2017-06-26T10:46:56Z</time>
      </trkpt>
      <trkpt lat="48.58289" lon="6.41073">
        <ele>269</ele>
        <time>2017-06-26T10:46:57Z</time>
      </trkpt>
      <trkpt lat="48.58287" lon="6.41077">
        <ele>269</ele>
        <time>2017-06-26T10:46:58Z</time>
      </trkpt>
      <trkpt lat="48.58286" lon="6.4108">
        <ele>269</ele>
        <time>2017-06-26T10:46:59Z</time>
      </trkpt>
      <trkpt lat="48.58285" lon="6.41083">
        <ele>269</ele>
        <time>2017-06-26T10:47:00Z</time>
      </trkpt>
      <trkpt lat="48.58284" lon="6.41085">
        <ele>269</ele>
        <time>2017-06-26T10:47:01Z</time>
      </trkpt>
      <trkpt lat="48.58283" lon="6.41087">
        <ele>269</ele>
        <time>2017-06-26T10:47:02Z</time>
      </trkpt>
      <trkpt lat="48.58283" lon="6.41089">
        <ele>269</ele>
        <time>2017-06-26T10:47:03Z</time>
      </trkpt>
      <trkpt lat="48.58282" lon="6.41091">
        <ele>269</ele>
        <time>2017-06-26T10:47:04Z</time>
      </trkpt>
      <trkpt lat="48.58278" lon="6.41099">
        <ele>266</ele>
        <time>2017-06-26T10:47:05Z</time>
      </trkpt>
      <trkpt lat="48.58278" lon="6.41101">
        <ele>266</ele>
        <time>2017-06-26T10:47:06Z</time>
      </trkpt>
      <trkpt lat="48.58277" lon="6.41103">
        <ele>266</ele>
        <time>2017-06-26T10:47:07Z</time>
      </trkpt>
      <trkpt lat="48.58276" lon="6.41105">
        <ele>266</ele>
        <time>2017-06-26T10:47:08Z</time>
      </trkpt>
      <trkpt lat="48.58276" lon="6.41107">
        <ele>266</ele>
        <time>2017-06-26T10:47:09Z</time>
      </trkpt>
      <trkpt lat="48.58273" lon="6.41115">
        <ele>266</ele>
        <time>2017-06-26T10:47:10Z</time>
      </trkpt>
      <trkpt lat="48.58272" lon="6.41117">
        <ele>266</ele>
        <time>2017-06-26T10:47:11Z</time>
      </trkpt>
      <trkpt lat="48.58272" lon="6.41119">
        <ele>266</ele>
        <time>2017-06-26T10:47:12Z</time>
      </trkpt>
      <trkpt lat="48.58271" lon="6.41121">
        <ele>266</ele>
        <time>2017-06-26T10:47:13Z</time>
      </trkpt>
      <trkpt lat="48.5827" lon="6.41123">
        <ele>266</ele>
        <time>2017-06-26T10:47:14Z</time>
      </trkpt>
      <trkpt lat="48.58267" lon="6.41131">
        <ele>266</ele>
        <time>2017-06-26T10:47:15Z</time>
      </trkpt>
      <trkpt lat="48.58267" lon="6.41132">
        <ele>266</ele>
        <time>2017-06-26T10:47:16Z</time>
      </trkpt>
      <trkpt lat="48.58267" lon="6.41133">
        <ele>266</ele>
        <time>2017-06-26T10:47:18Z</time>
      </trkpt>
      <trkpt lat="48.58267" lon="6.41134">
        <ele>266</ele>
        <time>2017-06-26T10:47:19Z</time>
      </trkpt>
      <trkpt lat="48.58267" lon="6.41135">
        <ele>266</ele>
        <time>2017-06-26T10:47:20Z</time>
      </trkpt>
      <trkpt lat="48.58267" lon="6.41136">
        <ele>266</ele>
        <time>2017-06-26T10:47:21Z</time>
      </trkpt>
      <trkpt lat="48.58267" lon="6.41137">
        <ele>266</ele>
        <time>2017-06-26T10:47:22Z</time>
      </trkpt>
      <trkpt lat="48.58268" lon="6.41138">
        <ele>266</ele>
        <time>2017-06-26T10:47:23Z</time>
      </trkpt>
      <trkpt lat="48.58268" lon="6.41146">
        <ele>265</ele>
        <time>2017-06-26T10:47:25Z</time>
      </trkpt>
      <trkpt lat="48.58269" lon="6.41147">
        <ele>265</ele>
        <time>2017-06-26T10:47:26Z</time>
      </trkpt>
      <trkpt lat="48.58269" lon="6.41148">
        <ele>265</ele>
        <time>2017-06-26T10:47:27Z</time>
      </trkpt>
      <trkpt lat="48.5827" lon="6.41149">
        <ele>265</ele>
        <time>2017-06-26T10:47:28Z</time>
      </trkpt>
      <trkpt lat="48.58271" lon="6.41149">
        <ele>265</ele>
        <time>2017-06-26T10:47:29Z</time>
      </trkpt>
      <trkpt lat="48.58272" lon="6.4115">
        <ele>265</ele>
        <time>2017-06-26T10:47:30Z</time>
      </trkpt>
      <trkpt lat="48.58273" lon="6.41151">
        <ele>265</ele>
        <time>2017-06-26T10:47:31Z</time>
      </trkpt>
      <trkpt lat="48.58277" lon="6.41155">
        <ele>265</ele>
        <time>2017-06-26T10:47:32Z</time>
      </trkpt>
      <trkpt lat="48.58278" lon="6.41156">
        <ele>265</ele>
        <time>2017-06-26T10:47:33Z</time>
      </trkpt>
      <trkpt lat="48.58279" lon="6.41157">
        <ele>265</ele>
        <time>2017-06-26T10:47:34Z</time>
      </trkpt>
      <trkpt lat="48.5828" lon="6.41158">
        <ele>265</ele>
        <time>2017-06-26T10:47:36Z</time>
      </trkpt>
      <trkpt lat="48.58281" lon="6.41158">
        <ele>265</ele>
        <time>2017-06-26T10:47:37Z</time>
      </trkpt>
      <trkpt lat="48.58281" lon="6.41159">
        <ele>265</ele>
        <time>2017-06-26T10:47:38Z</time>
      </trkpt>
      <trkpt lat="48.58282" lon="6.41159">
        <ele>265</ele>
        <time>2017-06-26T10:47:39Z</time>
      </trkpt>
      <trkpt lat="48.58287" lon="6.41163">
        <ele>265</ele>
        <time>2017-06-26T10:47:40Z</time>
      </trkpt>
      <trkpt lat="48.58288" lon="6.41164">
        <ele>265</ele>
        <time>2017-06-26T10:47:41Z</time>
      </trkpt>
      <trkpt lat="48.58289" lon="6.41165">
        <ele>265</ele>
        <time>2017-06-26T10:47:42Z</time>
      </trkpt>
      <trkpt lat="48.58291" lon="6.41166">
        <ele>265</ele>
        <time>2017-06-26T10:47:43Z</time>
      </trkpt>
      <trkpt lat="48.58292" lon="6.41168">
        <ele>265</ele>
        <time>2017-06-26T10:47:44Z</time>
      </trkpt>
      <trkpt lat="48.58293" lon="6.41169">
        <ele>265</ele>
        <time>2017-06-26T10:47:45Z</time>
      </trkpt>
      <trkpt lat="48.58294" lon="6.4117">
        <ele>265</ele>
        <time>2017-06-26T10:47:46Z</time>
      </trkpt>
      <trkpt lat="48.58295" lon="6.41171">
        <ele>265</ele>
        <time>2017-06-26T10:47:47Z</time>
      </trkpt>
      <trkpt lat="48.58296" lon="6.41172">
        <ele>265</ele>
        <time>2017-06-26T10:47:48Z</time>
      </trkpt>
      <trkpt lat="48.58297" lon="6.41172">
        <ele>265</ele>
        <time>2017-06-26T10:47:49Z</time>
      </trkpt>
      <trkpt lat="48.58298" lon="6.41173">
        <ele>265</ele>
        <time>2017-06-26T10:47:50Z</time>
      </trkpt>
      <trkpt lat="48.58299" lon="6.41174">
        <ele>265</ele>
        <time>2017-06-26T10:47:51Z</time>
      </trkpt>
      <trkpt lat="48.58299" lon="6.41175">
        <ele>265</ele>
        <time>2017-06-26T10:47:52Z</time>
      </trkpt>
      <trkpt lat="48.583" lon="6.41175">
        <ele>265</ele>
        <time>2017-06-26T10:47:53Z</time>
      </trkpt>
      <trkpt lat="48.58305" lon="6.4118">
        <ele>265</ele>
        <time>2017-06-26T10:47:54Z</time>
      </trkpt>
      <trkpt lat="48.58306" lon="6.41181">
        <ele>266</ele>
        <time>2017-06-26T10:47:55Z</time>
      </trkpt>
      <trkpt lat="48.58308" lon="6.41182">
        <ele>266</ele>
        <time>2017-06-26T10:47:56Z</time>
      </trkpt>
      <trkpt lat="48.58309" lon="6.41183">
        <ele>266</ele>
        <time>2017-06-26T10:47:57Z</time>
      </trkpt>
      <trkpt lat="48.58311" lon="6.41184">
        <ele>266</ele>
        <time>2017-06-26T10:47:58Z</time>
      </trkpt>
      <trkpt lat="48.58313" lon="6.41185">
        <ele>266</ele>
        <time>2017-06-26T10:47:59Z</time>
      </trkpt>
      <trkpt lat="48.58314" lon="6.41186">
        <ele>266</ele>
        <time>2017-06-26T10:48:00Z</time>
      </trkpt>
      <trkpt lat="48.58315" lon="6.41187">
        <ele>266</ele>
        <time>2017-06-26T10:48:01Z</time>
      </trkpt>
      <trkpt lat="48.58317" lon="6.41188">
        <ele>266</ele>
        <time>2017-06-26T10:48:02Z</time>
      </trkpt>
      <trkpt lat="48.58318" lon="6.41189">
        <ele>266</ele>
        <time>2017-06-26T10:48:03Z</time>
      </trkpt>
      <trkpt lat="48.58319" lon="6.41191">
        <ele>266</ele>
        <time>2017-06-26T10:48:04Z</time>
      </trkpt>
      <trkpt lat="48.58324" lon="6.41195">
        <ele>266</ele>
        <time>2017-06-26T10:48:05Z</time>
      </trkpt>
      <trkpt lat="48.58325" lon="6.41196">
        <ele>266</ele>
        <time>2017-06-26T10:48:06Z</time>
      </trkpt>
      <trkpt lat="48.58327" lon="6.41197">
        <ele>266</ele>
        <time>2017-06-26T10:48:07Z</time>
      </trkpt>
      <trkpt lat="48.58328" lon="6.41199">
        <ele>266</ele>
        <time>2017-06-26T10:48:08Z</time>
      </trkpt>
      <trkpt lat="48.58329" lon="6.412">
        <ele>266</ele>
        <time>2017-06-26T10:48:09Z</time>
      </trkpt>
      <trkpt lat="48.58335" lon="6.41204">
        <ele>266</ele>
        <time>2017-06-26T10:48:10Z</time>
      </trkpt>
      <trkpt lat="48.58336" lon="6.41205">
        <ele>266</ele>
        <time>2017-06-26T10:48:11Z</time>
      </trkpt>
      <trkpt lat="48.58337" lon="6.41206">
        <ele>266</ele>
        <time>2017-06-26T10:48:12Z</time>
      </trkpt>
      <trkpt lat="48.58339" lon="6.41207">
        <ele>266</ele>
        <time>2017-06-26T10:48:13Z</time>
      </trkpt>
      <trkpt lat="48.5834" lon="6.41208">
        <ele>266</ele>
        <time>2017-06-26T10:48:14Z</time>
      </trkpt>
      <trkpt lat="48.58345" lon="6.41213">
        <ele>266</ele>
        <time>2017-06-26T10:48:15Z</time>
      </trkpt>
      <trkpt lat="48.58346" lon="6.41214">
        <ele>266</ele>
        <time>2017-06-26T10:48:16Z</time>
      </trkpt>
      <trkpt lat="48.58347" lon="6.41215">
        <ele>266</ele>
        <time>2017-06-26T10:48:17Z</time>
      </trkpt>
      <trkpt lat="48.58348" lon="6.41216">
        <ele>266</ele>
        <time>2017-06-26T10:48:18Z</time>
      </trkpt>
      <trkpt lat="48.58349" lon="6.41217">
        <ele>266</ele>
        <time>2017-06-26T10:48:19Z</time>
      </trkpt>
      <trkpt lat="48.5835" lon="6.41218">
        <ele>266</ele>
        <time>2017-06-26T10:48:20Z</time>
      </trkpt>
      <trkpt lat="48.58355" lon="6.41223">
        <ele>266</ele>
        <time>2017-06-26T10:48:21Z</time>
      </trkpt>
      <trkpt lat="48.58356" lon="6.41224">
        <ele>266</ele>
        <time>2017-06-26T10:48:22Z</time>
      </trkpt>
      <trkpt lat="48.58357" lon="6.41225">
        <ele>266</ele>
        <time>2017-06-26T10:48:23Z</time>
      </trkpt>
      <trkpt lat="48.58358" lon="6.41225">
        <ele>266</ele>
        <time>2017-06-26T10:48:24Z</time>
      </trkpt>
      <trkpt lat="48.58359" lon="6.41226">
        <ele>267</ele>
        <time>2017-06-26T10:48:25Z</time>
      </trkpt>
      <trkpt lat="48.5836" lon="6.41227">
        <ele>267</ele>
        <time>2017-06-26T10:48:26Z</time>
      </trkpt>
      <trkpt lat="48.58365" lon="6.41231">
        <ele>267</ele>
        <time>2017-06-26T10:48:27Z</time>
      </trkpt>
      <trkpt lat="48.58367" lon="6.41233">
        <ele>267</ele>
        <time>2017-06-26T10:48:28Z</time>
      </trkpt>
      <trkpt lat="48.58369" lon="6.41234">
        <ele>267</ele>
        <time>2017-06-26T10:48:29Z</time>
      </trkpt>
      <trkpt lat="48.58371" lon="6.41235">
        <ele>267</ele>
        <time>2017-06-26T10:48:30Z</time>
      </trkpt>
      <trkpt lat="48.58373" lon="6.41237">
        <ele>267</ele>
        <time>2017-06-26T10:48:31Z</time>
      </trkpt>
      <trkpt lat="48.58374" lon="6.41238">
        <ele>267</ele>
        <time>2017-06-26T10:48:32Z</time>
      </trkpt>
      <trkpt lat="48.58376" lon="6.41239">
        <ele>267</ele>
        <time>2017-06-26T10:48:33Z</time>
      </trkpt>
      <trkpt lat="48.58377" lon="6.4124">
        <ele>267</ele>
        <time>2017-06-26T10:48:34Z</time>
      </trkpt>
      <trkpt lat="48.58378" lon="6.41241">
        <ele>267</ele>
        <time>2017-06-26T10:48:35Z</time>
      </trkpt>
      <trkpt lat="48.58379" lon="6.41243">
        <ele>267</ele>
        <time>2017-06-26T10:48:36Z</time>
      </trkpt>
      <trkpt lat="48.58384" lon="6.41247">
        <ele>267</ele>
        <time>2017-06-26T10:48:37Z</time>
      </trkpt>
      <trkpt lat="48.58385" lon="6.41248">
        <ele>267</ele>
        <time>2017-06-26T10:48:38Z</time>
      </trkpt>
      <trkpt lat="48.58387" lon="6.41249">
        <ele>267</ele>
        <time>2017-06-26T10:48:39Z</time>
      </trkpt>
      <trkpt lat="48.58388" lon="6.4125">
        <ele>267</ele>
        <time>2017-06-26T10:48:40Z</time>
      </trkpt>
      <trkpt lat="48.58389" lon="6.41251">
        <ele>267</ele>
        <time>2017-06-26T10:48:41Z</time>
      </trkpt>
      <trkpt lat="48.58394" lon="6.41254">
        <ele>267</ele>
        <time>2017-06-26T10:48:42Z</time>
      </trkpt>
      <trkpt lat="48.58395" lon="6.41255">
        <ele>267</ele>
        <time>2017-06-26T10:48:43Z</time>
      </trkpt>
      <trkpt lat="48.58396" lon="6.41256">
        <ele>267</ele>
        <time>2017-06-26T10:48:44Z</time>
      </trkpt>
      <trkpt lat="48.58397" lon="6.41257">
        <ele>267</ele>
        <time>2017-06-26T10:48:45Z</time>
      </trkpt>
      <trkpt lat="48.58398" lon="6.41258">
        <ele>267</ele>
        <time>2017-06-26T10:48:46Z</time>
      </trkpt>
      <trkpt lat="48.58399" lon="6.41259">
        <ele>267</ele>
        <time>2017-06-26T10:48:47Z</time>
      </trkpt>
      <trkpt lat="48.58404" lon="6.41264">
        <ele>267</ele>
        <time>2017-06-26T10:48:48Z</time>
      </trkpt>
      <trkpt lat="48.58406" lon="6.41265">
        <ele>267</ele>
        <time>2017-06-26T10:48:49Z</time>
      </trkpt>
      <trkpt lat="48.58407" lon="6.41266">
        <ele>267</ele>
        <time>2017-06-26T10:48:50Z</time>
      </trkpt>
      <trkpt lat="48.58408" lon="6.41267">
        <ele>267</ele>
        <time>2017-06-26T10:48:51Z</time>
      </trkpt>
      <trkpt lat="48.5841" lon="6.41268">
        <ele>267</ele>
        <time>2017-06-26T10:48:52Z</time>
      </trkpt>
      <trkpt lat="48.58415" lon="6.41271">
        <ele>267</ele>
        <time>2017-06-26T10:48:53Z</time>
      </trkpt>
      <trkpt lat="48.58417" lon="6.41273">
        <ele>267</ele>
        <time>2017-06-26T10:48:54Z</time>
      </trkpt>
      <trkpt lat="48.58419" lon="6.41275">
        <ele>268</ele>
        <time>2017-06-26T10:48:55Z</time>
      </trkpt>
      <trkpt lat="48.58422" lon="6.41277">
        <ele>268</ele>
        <time>2017-06-26T10:48:56Z</time>
      </trkpt>
      <trkpt lat="48.58424" lon="6.41279">
        <ele>268</ele>
        <time>2017-06-26T10:48:57Z</time>
      </trkpt>
      <trkpt lat="48.58425" lon="6.4128">
        <ele>268</ele>
        <time>2017-06-26T10:48:58Z</time>
      </trkpt>
      <trkpt lat="48.58426" lon="6.41281">
        <ele>268</ele>
        <time>2017-06-26T10:48:59Z</time>
      </trkpt>
      <trkpt lat="48.58428" lon="6.41282">
        <ele>268</ele>
        <time>2017-06-26T10:49:00Z</time>
      </trkpt>
      <trkpt lat="48.58429" lon="6.41283">
        <ele>268</ele>
        <time>2017-06-26T10:49:01Z</time>
      </trkpt>
      <trkpt lat="48.58434" lon="6.41287">
        <ele>268</ele>
        <time>2017-06-26T10:49:02Z</time>
      </trkpt>
      <trkpt lat="48.58436" lon="6.41288">
        <ele>268</ele>
        <time>2017-06-26T10:49:03Z</time>
      </trkpt>
      <trkpt lat="48.58437" lon="6.41289">
        <ele>268</ele>
        <time>2017-06-26T10:49:04Z</time>
      </trkpt>
      <trkpt lat="48.58438" lon="6.4129">
        <ele>268</ele>
        <time>2017-06-26T10:49:05Z</time>
      </trkpt>
      <trkpt lat="48.5844" lon="6.4129">
        <ele>268</ele>
        <time>2017-06-26T10:49:06Z</time>
      </trkpt>
      <trkpt lat="48.58445" lon="6.41294">
        <ele>268</ele>
        <time>2017-06-26T10:49:07Z</time>
      </trkpt>
      <trkpt lat="48.58446" lon="6.41295">
        <ele>268</ele>
        <time>2017-06-26T10:49:08Z</time>
      </trkpt>
      <trkpt lat="48.58448" lon="6.41296">
        <ele>268</ele>
        <time>2017-06-26T10:49:09Z</time>
      </trkpt>
      <trkpt lat="48.58449" lon="6.41297">
        <ele>268</ele>
        <time>2017-06-26T10:49:10Z</time>
      </trkpt>
      <trkpt lat="48.5845" lon="6.41298">
        <ele>268</ele>
        <time>2017-06-26T10:49:11Z</time>
      </trkpt>
      <trkpt lat="48.58455" lon="6.41302">
        <ele>268</ele>
        <time>2017-06-26T10:49:12Z</time>
      </trkpt>
      <trkpt lat="48.58458" lon="6.41304">
        <ele>268</ele>
        <time>2017-06-26T10:49:13Z</time>
      </trkpt>
      <trkpt lat="48.5846" lon="6.41305">
        <ele>268</ele>
        <time>2017-06-26T10:49:14Z</time>
      </trkpt>
      <trkpt lat="48.58462" lon="6.41307">
        <ele>268</ele>
        <time>2017-06-26T10:49:15Z</time>
      </trkpt>
      <trkpt lat="48.58464" lon="6.41309">
        <ele>268</ele>
        <time>2017-06-26T10:49:16Z</time>
      </trkpt>
      <trkpt lat="48.58466" lon="6.41311">
        <ele>268</ele>
        <time>2017-06-26T10:49:17Z</time>
      </trkpt>
      <trkpt lat="48.58467" lon="6.41312">
        <ele>268</ele>
        <time>2017-06-26T10:49:18Z</time>
      </trkpt>
      <trkpt lat="48.58469" lon="6.41313">
        <ele>268</ele>
        <time>2017-06-26T10:49:19Z</time>
      </trkpt>
      <trkpt lat="48.58473" lon="6.41317">
        <ele>268</ele>
        <time>2017-06-26T10:49:20Z</time>
      </trkpt>
      <trkpt lat="48.58475" lon="6.41318">
        <ele>268</ele>
        <time>2017-06-26T10:49:21Z</time>
      </trkpt>
      <trkpt lat="48.58477" lon="6.4132">
        <ele>268</ele>
        <time>2017-06-26T10:49:22Z</time>
      </trkpt>
      <trkpt lat="48.58478" lon="6.41321">
        <ele>268</ele>
        <time>2017-06-26T10:49:23Z</time>
      </trkpt>
      <trkpt lat="48.58483" lon="6.41326">
        <ele>268</ele>
        <time>2017-06-26T10:49:24Z</time>
      </trkpt>
      <trkpt lat="48.58485" lon="6.41327">
        <ele>268</ele>
        <time>2017-06-26T10:49:25Z</time>
      </trkpt>
      <trkpt lat="48.58487" lon="6.41329">
        <ele>268</ele>
        <time>2017-06-26T10:49:26Z</time>
      </trkpt>
      <trkpt lat="48.58488" lon="6.4133">
        <ele>268</ele>
        <time>2017-06-26T10:49:27Z</time>
      </trkpt>
      <trkpt lat="48.58494" lon="6.41335">
        <ele>268</ele>
        <time>2017-06-26T10:49:28Z</time>
      </trkpt>
      <trkpt lat="48.58495" lon="6.41336">
        <ele>268</ele>
        <time>2017-06-26T10:49:29Z</time>
      </trkpt>
      <trkpt lat="48.58496" lon="6.41337">
        <ele>268</ele>
        <time>2017-06-26T10:49:30Z</time>
      </trkpt>
      <trkpt lat="48.58497" lon="6.41338">
        <ele>268</ele>
        <time>2017-06-26T10:49:31Z</time>
      </trkpt>
      <trkpt lat="48.58499" lon="6.41339">
        <ele>268</ele>
        <time>2017-06-26T10:49:32Z</time>
      </trkpt>
      <trkpt lat="48.58503" lon="6.41343">
        <ele>268</ele>
        <time>2017-06-26T10:49:33Z</time>
      </trkpt>
      <trkpt lat="48.58505" lon="6.41343">
        <ele>268</ele>
        <time>2017-06-26T10:49:34Z</time>
      </trkpt>
      <trkpt lat="48.58506" lon="6.41344">
        <ele>270</ele>
        <time>2017-06-26T10:49:35Z</time>
      </trkpt>
      <trkpt lat="48.58507" lon="6.41345">
        <ele>270</ele>
        <time>2017-06-26T10:49:36Z</time>
      </trkpt>
      <trkpt lat="48.58509" lon="6.41346">
        <ele>270</ele>
        <time>2017-06-26T10:49:37Z</time>
      </trkpt>
      <trkpt lat="48.58514" lon="6.41349">
        <ele>270</ele>
        <time>2017-06-26T10:49:38Z</time>
      </trkpt>
      <trkpt lat="48.58515" lon="6.4135">
        <ele>270</ele>
        <time>2017-06-26T10:49:39Z</time>
      </trkpt>
      <trkpt lat="48.58516" lon="6.41351">
        <ele>270</ele>
        <time>2017-06-26T10:49:40Z</time>
      </trkpt>
      <trkpt lat="48.58517" lon="6.41352">
        <ele>270</ele>
        <time>2017-06-26T10:49:41Z</time>
      </trkpt>
      <trkpt lat="48.58518" lon="6.41353">
        <ele>270</ele>
        <time>2017-06-26T10:49:42Z</time>
      </trkpt>
      <trkpt lat="48.58519" lon="6.41354">
        <ele>270</ele>
        <time>2017-06-26T10:49:43Z</time>
      </trkpt>
      <trkpt lat="48.58523" lon="6.41358">
        <ele>270</ele>
        <time>2017-06-26T10:49:44Z</time>
      </trkpt>
      <trkpt lat="48.58524" lon="6.41359">
        <ele>271</ele>
        <time>2017-06-26T10:49:45Z</time>
      </trkpt>
      <trkpt lat="48.58525" lon="6.4136">
        <ele>271</ele>
        <time>2017-06-26T10:49:46Z</time>
      </trkpt>
      <trkpt lat="48.58526" lon="6.4136">
        <ele>271</ele>
        <time>2017-06-26T10:49:47Z</time>
      </trkpt>
      <trkpt lat="48.58527" lon="6.41361">
        <ele>271</ele>
        <time>2017-06-26T10:49:48Z</time>
      </trkpt>
      <trkpt lat="48.58528" lon="6.41362">
        <ele>271</ele>
        <time>2017-06-26T10:49:49Z</time>
      </trkpt>
      <trkpt lat="48.58528" lon="6.41363">
        <ele>271</ele>
        <time>2017-06-26T10:49:50Z</time>
      </trkpt>
      <trkpt lat="48.58533" lon="6.41367">
        <ele>271</ele>
        <time>2017-06-26T10:49:51Z</time>
      </trkpt>
      <trkpt lat="48.58534" lon="6.41368">
        <ele>271</ele>
        <time>2017-06-26T10:49:52Z</time>
      </trkpt>
      <trkpt lat="48.58535" lon="6.41369">
        <ele>271</ele>
        <time>2017-06-26T10:49:53Z</time>
      </trkpt>
      <trkpt lat="48.58536" lon="6.4137">
        <ele>271</ele>
        <time>2017-06-26T10:49:54Z</time>
      </trkpt>
      <trkpt lat="48.58537" lon="6.41371">
        <ele>271</ele>
        <time>2017-06-26T10:49:55Z</time>
      </trkpt>
      <trkpt lat="48.58541" lon="6.41376">
        <ele>271</ele>
        <time>2017-06-26T10:49:56Z</time>
      </trkpt>
      <trkpt lat="48.58543" lon="6.41377">
        <ele>271</ele>
        <time>2017-06-26T10:49:57Z</time>
      </trkpt>
      <trkpt lat="48.58544" lon="6.41379">
        <ele>271</ele>
        <time>2017-06-26T10:49:58Z</time>
      </trkpt>
      <trkpt lat="48.58546" lon="6.4138">
        <ele>271</ele>
        <time>2017-06-26T10:49:59Z</time>
      </trkpt>
      <trkpt lat="48.58547" lon="6.41382">
        <ele>271</ele>
        <time>2017-06-26T10:50:00Z</time>
      </trkpt>
      <trkpt lat="48.58548" lon="6.41383">
        <ele>271</ele>
        <time>2017-06-26T10:50:01Z</time>
      </trkpt>
      <trkpt lat="48.5855" lon="6.41385">
        <ele>271</ele>
        <time>2017-06-26T10:50:02Z</time>
      </trkpt>
      <trkpt lat="48.58551" lon="6.41386">
        <ele>271</ele>
        <time>2017-06-26T10:50:03Z</time>
      </trkpt>
      <trkpt lat="48.58553" lon="6.41388">
        <ele>271</ele>
        <time>2017-06-26T10:50:04Z</time>
      </trkpt>
      <trkpt lat="48.58554" lon="6.41389">
        <ele>271</ele>
        <time>2017-06-26T10:50:05Z</time>
      </trkpt>
      <trkpt lat="48.58556" lon="6.4139">
        <ele>271</ele>
        <time>2017-06-26T10:50:06Z</time>
      </trkpt>
      <trkpt lat="48.58557" lon="6.41391">
        <ele>271</ele>
        <time>2017-06-26T10:50:07Z</time>
      </trkpt>
      <trkpt lat="48.58559" lon="6.41393">
        <ele>271</ele>
        <time>2017-06-26T10:50:08Z</time>
      </trkpt>
      <trkpt lat="48.58561" lon="6.41395">
        <ele>271</ele>
        <time>2017-06-26T10:50:09Z</time>
      </trkpt>
      <trkpt lat="48.58563" lon="6.41397">
        <ele>271</ele>
        <time>2017-06-26T10:50:10Z</time>
      </trkpt>
      <trkpt lat="48.58565" lon="6.41399">
        <ele>271</ele>
        <time>2017-06-26T10:50:11Z</time>
      </trkpt>
      <trkpt lat="48.58567" lon="6.41402">
        <ele>271</ele>
        <time>2017-06-26T10:50:12Z</time>
      </trkpt>
      <trkpt lat="48.58568" lon="6.41404">
        <ele>271</ele>
        <time>2017-06-26T10:50:13Z</time>
      </trkpt>
      <trkpt lat="48.5857" lon="6.41406">
        <ele>271</ele>
        <time>2017-06-26T10:50:14Z</time>
      </trkpt>
      <trkpt lat="48.58571" lon="6.41407">
        <ele>271</ele>
        <time>2017-06-26T10:50:15Z</time>
      </trkpt>
      <trkpt lat="48.58573" lon="6.41409">
        <ele>271</ele>
        <time>2017-06-26T10:50:16Z</time>
      </trkpt>
      <trkpt lat="48.58574" lon="6.41411">
        <ele>271</ele>
        <time>2017-06-26T10:50:17Z</time>
      </trkpt>
      <trkpt lat="48.58575" lon="6.41412">
        <ele>271</ele>
        <time>2017-06-26T10:50:18Z</time>
      </trkpt>
      <trkpt lat="48.58577" lon="6.41412">
        <ele>271</ele>
        <time>2017-06-26T10:50:19Z</time>
      </trkpt>
      <trkpt lat="48.58578" lon="6.41413">
        <ele>271</ele>
        <time>2017-06-26T10:50:20Z</time>
      </trkpt>
      <trkpt lat="48.58579" lon="6.41414">
        <ele>271</ele>
        <time>2017-06-26T10:50:21Z</time>
      </trkpt>
      <trkpt lat="48.5858" lon="6.41414">
        <ele>272</ele>
        <time>2017-06-26T10:50:22Z</time>
      </trkpt>
      <trkpt lat="48.58585" lon="6.41418">
        <ele>272</ele>
        <time>2017-06-26T10:50:23Z</time>
      </trkpt>
      <trkpt lat="48.58587" lon="6.41419">
        <ele>272</ele>
        <time>2017-06-26T10:50:24Z</time>
      </trkpt>
      <trkpt lat="48.58588" lon="6.4142">
        <ele>273</ele>
        <time>2017-06-26T10:50:25Z</time>
      </trkpt>
      <trkpt lat="48.5859" lon="6.41422">
        <ele>273</ele>
        <time>2017-06-26T10:50:26Z</time>
      </trkpt>
      <trkpt lat="48.58592" lon="6.41423">
        <ele>273</ele>
        <time>2017-06-26T10:50:27Z</time>
      </trkpt>
      <trkpt lat="48.58594" lon="6.41424">
        <ele>273</ele>
        <time>2017-06-26T10:50:28Z</time>
      </trkpt>
      <trkpt lat="48.58595" lon="6.41425">
        <ele>273</ele>
        <time>2017-06-26T10:50:29Z</time>
      </trkpt>
      <trkpt lat="48.58596" lon="6.41426">
        <ele>273</ele>
        <time>2017-06-26T10:50:30Z</time>
      </trkpt>
      <trkpt lat="48.58597" lon="6.41427">
        <ele>273</ele>
        <time>2017-06-26T10:50:31Z</time>
      </trkpt>
      <trkpt lat="48.58598" lon="6.41428">
        <ele>273</ele>
        <time>2017-06-26T10:50:32Z</time>
      </trkpt>
      <trkpt lat="48.58603" lon="6.41433">
        <ele>273</ele>
        <time>2017-06-26T10:50:33Z</time>
      </trkpt>
      <trkpt lat="48.58604" lon="6.41434">
        <ele>273</ele>
        <time>2017-06-26T10:50:34Z</time>
      </trkpt>
      <trkpt lat="48.58605" lon="6.41435">
        <ele>273</ele>
        <time>2017-06-26T10:50:35Z</time>
      </trkpt>
      <trkpt lat="48.58606" lon="6.41436">
        <ele>274</ele>
        <time>2017-06-26T10:50:36Z</time>
      </trkpt>
      <trkpt lat="48.58608" lon="6.41437">
        <ele>274</ele>
        <time>2017-06-26T10:50:37Z</time>
      </trkpt>
      <trkpt lat="48.58612" lon="6.41441">
        <ele>274</ele>
        <time>2017-06-26T10:50:38Z</time>
      </trkpt>
      <trkpt lat="48.58613" lon="6.41442">
        <ele>274</ele>
        <time>2017-06-26T10:50:39Z</time>
      </trkpt>
      <trkpt lat="48.58615" lon="6.41443">
        <ele>274</ele>
        <time>2017-06-26T10:50:40Z</time>
      </trkpt>
      <trkpt lat="48.58616" lon="6.41443">
        <ele>274</ele>
        <time>2017-06-26T10:50:41Z</time>
      </trkpt>
      <trkpt lat="48.58617" lon="6.41444">
        <ele>274</ele>
        <time>2017-06-26T10:50:42Z</time>
      </trkpt>
      <trkpt lat="48.58622" lon="6.41447">
        <ele>274</ele>
        <time>2017-06-26T10:50:43Z</time>
      </trkpt>
      <trkpt lat="48.58623" lon="6.41448">
        <ele>274</ele>
        <time>2017-06-26T10:50:44Z</time>
      </trkpt>
      <trkpt lat="48.58625" lon="6.41449">
        <ele>274</ele>
        <time>2017-06-26T10:50:45Z</time>
      </trkpt>
      <trkpt lat="48.58626" lon="6.4145">
        <ele>274</ele>
        <time>2017-06-26T10:50:46Z</time>
      </trkpt>
      <trkpt lat="48.58627" lon="6.41451">
        <ele>274</ele>
        <time>2017-06-26T10:50:47Z</time>
      </trkpt>
      <trkpt lat="48.58633" lon="6.41454">
        <ele>274</ele>
        <time>2017-06-26T10:50:48Z</time>
      </trkpt>
      <trkpt lat="48.58634" lon="6.41455">
        <ele>274</ele>
        <time>2017-06-26T10:50:49Z</time>
      </trkpt>
      <trkpt lat="48.58636" lon="6.41457">
        <ele>274</ele>
        <time>2017-06-26T10:50:50Z</time>
      </trkpt>
      <trkpt lat="48.58638" lon="6.41459">
        <ele>274</ele>
        <time>2017-06-26T10:50:51Z</time>
      </trkpt>
      <trkpt lat="48.5864" lon="6.4146">
        <ele>274</ele>
        <time>2017-06-26T10:50:52Z</time>
      </trkpt>
      <trkpt lat="48.58642" lon="6.41462">
        <ele>274</ele>
        <time>2017-06-26T10:50:53Z</time>
      </trkpt>
      <trkpt lat="48.58643" lon="6.41463">
        <ele>274</ele>
        <time>2017-06-26T10:50:54Z</time>
      </trkpt>
      <trkpt lat="48.58644" lon="6.41464">
        <ele>275</ele>
        <time>2017-06-26T10:50:55Z</time>
      </trkpt>
      <trkpt lat="48.58645" lon="6.41465">
        <ele>275</ele>
        <time>2017-06-26T10:50:56Z</time>
      </trkpt>
      <trkpt lat="48.58646" lon="6.41465">
        <ele>275</ele>
        <time>2017-06-26T10:50:57Z</time>
      </trkpt>
      <trkpt lat="48.58651" lon="6.41469">
        <ele>275</ele>
        <time>2017-06-26T10:50:58Z</time>
      </trkpt>
      <trkpt lat="48.58652" lon="6.4147">
        <ele>275</ele>
        <time>2017-06-26T10:50:59Z</time>
      </trkpt>
      <trkpt lat="48.58653" lon="6.41471">
        <ele>275</ele>
        <time>2017-06-26T10:51:00Z</time>
      </trkpt>
      <trkpt lat="48.58654" lon="6.41471">
        <ele>275</ele>
        <time>2017-06-26T10:51:01Z</time>
      </trkpt>
      <trkpt lat="48.58655" lon="6.41472">
        <ele>275</ele>
        <time>2017-06-26T10:51:02Z</time>
      </trkpt>
      <trkpt lat="48.58656" lon="6.41473">
        <ele>275</ele>
        <time>2017-06-26T10:51:03Z</time>
      </trkpt>
      <trkpt lat="48.58662" lon="6.41477">
        <ele>275</ele>
        <time>2017-06-26T10:51:04Z</time>
      </trkpt>
      <trkpt lat="48.58663" lon="6.41478">
        <ele>275</ele>
        <time>2017-06-26T10:51:05Z</time>
      </trkpt>
      <trkpt lat="48.58664" lon="6.41479">
        <ele>275</ele>
        <time>2017-06-26T10:51:06Z</time>
      </trkpt>
      <trkpt lat="48.58665" lon="6.4148">
        <ele>275</ele>
        <time>2017-06-26T10:51:07Z</time>
      </trkpt>
      <trkpt lat="48.58666" lon="6.41481">
        <ele>275</ele>
        <time>2017-06-26T10:51:08Z</time>
      </trkpt>
      <trkpt lat="48.58671" lon="6.41485">
        <ele>275</ele>
        <time>2017-06-26T10:51:09Z</time>
      </trkpt>
      <trkpt lat="48.58672" lon="6.41486">
        <ele>275</ele>
        <time>2017-06-26T10:51:10Z</time>
      </trkpt>
      <trkpt lat="48.58673" lon="6.41487">
        <ele>275</ele>
        <time>2017-06-26T10:51:11Z</time>
      </trkpt>
      <trkpt lat="48.58674" lon="6.41488">
        <ele>275</ele>
        <time>2017-06-26T10:51:12Z</time>
      </trkpt>
      <trkpt lat="48.58675" lon="6.4149">
        <ele>275</ele>
        <time>2017-06-26T10:51:13Z</time>
      </trkpt>
      <trkpt lat="48.5868" lon="6.41494">
        <ele>275</ele>
        <time>2017-06-26T10:51:14Z</time>
      </trkpt>
      <trkpt lat="48.58681" lon="6.41495">
        <ele>276</ele>
        <time>2017-06-26T10:51:15Z</time>
      </trkpt>
      <trkpt lat="48.58682" lon="6.41496">
        <ele>276</ele>
        <time>2017-06-26T10:51:16Z</time>
      </trkpt>
      <trkpt lat="48.58683" lon="6.41497">
        <ele>276</ele>
        <time>2017-06-26T10:51:17Z</time>
      </trkpt>
      <trkpt lat="48.58684" lon="6.41497">
        <ele>276</ele>
        <time>2017-06-26T10:51:18Z</time>
      </trkpt>
      <trkpt lat="48.58685" lon="6.41498">
        <ele>276</ele>
        <time>2017-06-26T10:51:19Z</time>
      </trkpt>
      <trkpt lat="48.5869" lon="6.41502">
        <ele>276</ele>
        <time>2017-06-26T10:51:20Z</time>
      </trkpt>
      <trkpt lat="48.58692" lon="6.41504">
        <ele>276</ele>
        <time>2017-06-26T10:51:21Z</time>
      </trkpt>
      <trkpt lat="48.58695" lon="6.41505">
        <ele>276</ele>
        <time>2017-06-26T10:51:22Z</time>
      </trkpt>
      <trkpt lat="48.58697" lon="6.41507">
        <ele>276</ele>
        <time>2017-06-26T10:51:23Z</time>
      </trkpt>
      <trkpt lat="48.58699" lon="6.41508">
        <ele>276</ele>
        <time>2017-06-26T10:51:24Z</time>
      </trkpt>
      <trkpt lat="48.58701" lon="6.4151">
        <ele>276</ele>
        <time>2017-06-26T10:51:25Z</time>
      </trkpt>
      <trkpt lat="48.58702" lon="6.41511">
        <ele>276</ele>
        <time>2017-06-26T10:51:26Z</time>
      </trkpt>
      <trkpt lat="48.58704" lon="6.41513">
        <ele>277</ele>
        <time>2017-06-26T10:51:27Z</time>
      </trkpt>
      <trkpt lat="48.58709" lon="6.41517">
        <ele>277</ele>
        <time>2017-06-26T10:51:28Z</time>
      </trkpt>
      <trkpt lat="48.58711" lon="6.41519">
        <ele>277</ele>
        <time>2017-06-26T10:51:29Z</time>
      </trkpt>
      <trkpt lat="48.58714" lon="6.41521">
        <ele>277</ele>
        <time>2017-06-26T10:51:30Z</time>
      </trkpt>
      <trkpt lat="48.58716" lon="6.41523">
        <ele>277</ele>
        <time>2017-06-26T10:51:31Z</time>
      </trkpt>
      <trkpt lat="48.58718" lon="6.41525">
        <ele>277</ele>
        <time>2017-06-26T10:51:32Z</time>
      </trkpt>
      <trkpt lat="48.58719" lon="6.41526">
        <ele>277</ele>
        <time>2017-06-26T10:51:33Z</time>
      </trkpt>
      <trkpt lat="48.58721" lon="6.41527">
        <ele>277</ele>
        <time>2017-06-26T10:51:34Z</time>
      </trkpt>
      <trkpt lat="48.58722" lon="6.41528">
        <ele>277</ele>
        <time>2017-06-26T10:51:35Z</time>
      </trkpt>
      <trkpt lat="48.58723" lon="6.41529">
        <ele>277</ele>
        <time>2017-06-26T10:51:36Z</time>
      </trkpt>
      <trkpt lat="48.58728" lon="6.41533">
        <ele>277</ele>
        <time>2017-06-26T10:51:37Z</time>
      </trkpt>
      <trkpt lat="48.58729" lon="6.41534">
        <ele>277</ele>
        <time>2017-06-26T10:51:38Z</time>
      </trkpt>
      <trkpt lat="48.5873" lon="6.41535">
        <ele>277</ele>
        <time>2017-06-26T10:51:39Z</time>
      </trkpt>
      <trkpt lat="48.58731" lon="6.41536">
        <ele>277</ele>
        <time>2017-06-26T10:51:40Z</time>
      </trkpt>
      <trkpt lat="48.58733" lon="6.41536">
        <ele>277</ele>
        <time>2017-06-26T10:51:41Z</time>
      </trkpt>
      <trkpt lat="48.58734" lon="6.41537">
        <ele>277</ele>
        <time>2017-06-26T10:51:42Z</time>
      </trkpt>
      <trkpt lat="48.58739" lon="6.41542">
        <ele>277</ele>
        <time>2017-06-26T10:51:43Z</time>
      </trkpt>
      <trkpt lat="48.5874" lon="6.41543">
        <ele>277</ele>
        <time>2017-06-26T10:51:44Z</time>
      </trkpt>
      <trkpt lat="48.58742" lon="6.41544">
        <ele>277</ele>
        <time>2017-06-26T10:51:45Z</time>
      </trkpt>
      <trkpt lat="48.58743" lon="6.41545">
        <ele>277</ele>
        <time>2017-06-26T10:51:46Z</time>
      </trkpt>
      <trkpt lat="48.58744" lon="6.41547">
        <ele>277</ele>
        <time>2017-06-26T10:51:47Z</time>
      </trkpt>
      <trkpt lat="48.58748" lon="6.41552">
        <ele>277</ele>
        <time>2017-06-26T10:51:48Z</time>
      </trkpt>
      <trkpt lat="48.58749" lon="6.41553">
        <ele>277</ele>
        <time>2017-06-26T10:51:49Z</time>
      </trkpt>
      <trkpt lat="48.5875" lon="6.41553">
        <ele>277</ele>
        <time>2017-06-26T10:51:50Z</time>
      </trkpt>
      <trkpt lat="48.58751" lon="6.41554">
        <ele>277</ele>
        <time>2017-06-26T10:51:51Z</time>
      </trkpt>
      <trkpt lat="48.58752" lon="6.41555">
        <ele>277</ele>
        <time>2017-06-26T10:51:52Z</time>
      </trkpt>
      <trkpt lat="48.58753" lon="6.41556">
        <ele>277</ele>
        <time>2017-06-26T10:51:53Z</time>
      </trkpt>
      <trkpt lat="48.58757" lon="6.41561">
        <ele>277</ele>
        <time>2017-06-26T10:51:54Z</time>
      </trkpt>
      <trkpt lat="48.58758" lon="6.41562">
        <ele>277</ele>
        <time>2017-06-26T10:51:55Z</time>
      </trkpt>
      <trkpt lat="48.58759" lon="6.41563">
        <ele>277</ele>
        <time>2017-06-26T10:51:56Z</time>
      </trkpt>
      <trkpt lat="48.5876" lon="6.41564">
        <ele>277</ele>
        <time>2017-06-26T10:51:57Z</time>
      </trkpt>
      <trkpt lat="48.58761" lon="6.41564">
        <ele>277</ele>
        <time>2017-06-26T10:51:58Z</time>
      </trkpt>
      <trkpt lat="48.58762" lon="6.41565">
        <ele>277</ele>
        <time>2017-06-26T10:51:59Z</time>
      </trkpt>
      <trkpt lat="48.58767" lon="6.4157">
        <ele>277</ele>
        <time>2017-06-26T10:52:00Z</time>
      </trkpt>
      <trkpt lat="48.58768" lon="6.4157">
        <ele>277</ele>
        <time>2017-06-26T10:52:01Z</time>
      </trkpt>
      <trkpt lat="48.58769" lon="6.41571">
        <ele>277</ele>
        <time>2017-06-26T10:52:02Z</time>
      </trkpt>
      <trkpt lat="48.5877" lon="6.41572">
        <ele>277</ele>
        <time>2017-06-26T10:52:03Z</time>
      </trkpt>
      <trkpt lat="48.58771" lon="6.41573">
        <ele>277</ele>
        <time>2017-06-26T10:52:04Z</time>
      </trkpt>
      <trkpt lat="48.58772" lon="6.41573">
        <ele>277</ele>
        <time>2017-06-26T10:52:05Z</time>
      </trkpt>
      <trkpt lat="48.58777" lon="6.41577">
        <ele>277</ele>
        <time>2017-06-26T10:52:06Z</time>
      </trkpt>
      <trkpt lat="48.58777" lon="6.41578">
        <ele>277</ele>
        <time>2017-06-26T10:52:07Z</time>
      </trkpt>
      <trkpt lat="48.58778" lon="6.41579">
        <ele>277</ele>
        <time>2017-06-26T10:52:08Z</time>
      </trkpt>
      <trkpt lat="48.58778" lon="6.4158">
        <ele>277</ele>
        <time>2017-06-26T10:52:09Z</time>
      </trkpt>
      <trkpt lat="48.58779" lon="6.41581">
        <ele>277</ele>
        <time>2017-06-26T10:52:10Z</time>
      </trkpt>
      <trkpt lat="48.58779" lon="6.41582">
        <ele>277</ele>
        <time>2017-06-26T10:52:11Z</time>
      </trkpt>
      <trkpt lat="48.5878" lon="6.41583">
        <ele>277</ele>
        <time>2017-06-26T10:52:12Z</time>
      </trkpt>
      <trkpt lat="48.58783" lon="6.4159">
        <ele>277</ele>
        <time>2017-06-26T10:52:13Z</time>
      </trkpt>
      <trkpt lat="48.58783" lon="6.41592">
        <ele>277</ele>
        <time>2017-06-26T10:52:14Z</time>
      </trkpt>
      <trkpt lat="48.58782" lon="6.41594">
        <ele>277</ele>
        <time>2017-06-26T10:52:15Z</time>
      </trkpt>
      <trkpt lat="48.58782" lon="6.41596">
        <ele>277</ele>
        <time>2017-06-26T10:52:16Z</time>
      </trkpt>
      <trkpt lat="48.58781" lon="6.41597">
        <ele>277</ele>
        <time>2017-06-26T10:52:17Z</time>
      </trkpt>
      <trkpt lat="48.5878" lon="6.41605">
        <ele>277</ele>
        <time>2017-06-26T10:52:18Z</time>
      </trkpt>
      <trkpt lat="48.58779" lon="6.41607">
        <ele>277</ele>
        <time>2017-06-26T10:52:19Z</time>
      </trkpt>
      <trkpt lat="48.58779" lon="6.41609">
        <ele>277</ele>
        <time>2017-06-26T10:52:20Z</time>
      </trkpt>
      <trkpt lat="48.58778" lon="6.41611">
        <ele>277</ele>
        <time>2017-06-26T10:52:21Z</time>
      </trkpt>
      <trkpt lat="48.58778" lon="6.41613">
        <ele>277</ele>
        <time>2017-06-26T10:52:22Z</time>
      </trkpt>
      <trkpt lat="48.58776" lon="6.41621">
        <ele>277</ele>
        <time>2017-06-26T10:52:23Z</time>
      </trkpt>
      <trkpt lat="48.58775" lon="6.41624">
        <ele>277</ele>
        <time>2017-06-26T10:52:24Z</time>
      </trkpt>
      <trkpt lat="48.58774" lon="6.41627">
        <ele>277</ele>
        <time>2017-06-26T10:52:25Z</time>
      </trkpt>
      <trkpt lat="48.58774" lon="6.41629">
        <ele>277</ele>
        <time>2017-06-26T10:52:26Z</time>
      </trkpt>
      <trkpt lat="48.58771" lon="6.41637">
        <ele>277</ele>
        <time>2017-06-26T10:52:27Z</time>
      </trkpt>
      <trkpt lat="48.58771" lon="6.41639">
        <ele>277</ele>
        <time>2017-06-26T10:52:28Z</time>
      </trkpt>
      <trkpt lat="48.58771" lon="6.41641">
        <ele>277</ele>
        <time>2017-06-26T10:52:29Z</time>
      </trkpt>
      <trkpt lat="48.5877" lon="6.41643">
        <ele>277</ele>
        <time>2017-06-26T10:52:30Z</time>
      </trkpt>
      <trkpt lat="48.5877" lon="6.41645">
        <ele>277</ele>
        <time>2017-06-26T10:52:31Z</time>
      </trkpt>
      <trkpt lat="48.58768" lon="6.41653">
        <ele>277</ele>
        <time>2017-06-26T10:52:32Z</time>
      </trkpt>
      <trkpt lat="48.58768" lon="6.41655">
        <ele>277</ele>
        <time>2017-06-26T10:52:33Z</time>
      </trkpt>
      <trkpt lat="48.58767" lon="6.41657">
        <ele>277</ele>
        <time>2017-06-26T10:52:34Z</time>
      </trkpt>
      <trkpt lat="48.58767" lon="6.41659">
        <ele>275</ele>
        <time>2017-06-26T10:52:35Z</time>
      </trkpt>
      <trkpt lat="48.58767" lon="6.41661">
        <ele>275</ele>
        <time>2017-06-26T10:52:36Z</time>
      </trkpt>
      <trkpt lat="48.58766" lon="6.41663">
        <ele>275</ele>
        <time>2017-06-26T10:52:37Z</time>
      </trkpt>
      <trkpt lat="48.58766" lon="6.41665">
        <ele>275</ele>
        <time>2017-06-26T10:52:38Z</time>
      </trkpt>
      <trkpt lat="48.58766" lon="6.41668">
        <ele>275</ele>
        <time>2017-06-26T10:52:39Z</time>
      </trkpt>
      <trkpt lat="48.58765" lon="6.4167">
        <ele>275</ele>
        <time>2017-06-26T10:52:40Z</time>
      </trkpt>
      <trkpt lat="48.58765" lon="6.41672">
        <ele>275</ele>
        <time>2017-06-26T10:52:41Z</time>
      </trkpt>
      <trkpt lat="48.58765" lon="6.41674">
        <ele>275</ele>
        <time>2017-06-26T10:52:42Z</time>
      </trkpt>
      <trkpt lat="48.58764" lon="6.41676">
        <ele>275</ele>
        <time>2017-06-26T10:52:43Z</time>
      </trkpt>
      <trkpt lat="48.58764" lon="6.41678">
        <ele>275</ele>
        <time>2017-06-26T10:52:44Z</time>
      </trkpt>
      <trkpt lat="48.58764" lon="6.4168">
        <ele>275</ele>
        <time>2017-06-26T10:52:45Z</time>
      </trkpt>
      <trkpt lat="48.58763" lon="6.41682">
        <ele>275</ele>
        <time>2017-06-26T10:52:46Z</time>
      </trkpt>
      <trkpt lat="48.58763" lon="6.41684">
        <ele>275</ele>
        <time>2017-06-26T10:52:47Z</time>
      </trkpt>
      <trkpt lat="48.58763" lon="6.41685">
        <ele>275</ele>
        <time>2017-06-26T10:52:48Z</time>
      </trkpt>
      <trkpt lat="48.58762" lon="6.41687">
        <ele>275</ele>
        <time>2017-06-26T10:52:49Z</time>
      </trkpt>
      <trkpt lat="48.58762" lon="6.41689">
        <ele>275</ele>
        <time>2017-06-26T10:52:50Z</time>
      </trkpt>
      <trkpt lat="48.58762" lon="6.4169">
        <ele>275</ele>
        <time>2017-06-26T10:52:51Z</time>
      </trkpt>
      <trkpt lat="48.5876" lon="6.41699">
        <ele>275</ele>
        <time>2017-06-26T10:52:52Z</time>
      </trkpt>
      <trkpt lat="48.58759" lon="6.417">
        <ele>275</ele>
        <time>2017-06-26T10:52:53Z</time>
      </trkpt>
      <trkpt lat="48.58759" lon="6.41702">
        <ele>275</ele>
        <time>2017-06-26T10:52:54Z</time>
      </trkpt>
      <trkpt lat="48.58758" lon="6.41704">
        <ele>275</ele>
        <time>2017-06-26T10:52:55Z</time>
      </trkpt>
      <trkpt lat="48.58758" lon="6.41705">
        <ele>275</ele>
        <time>2017-06-26T10:52:56Z</time>
      </trkpt>
      <trkpt lat="48.58755" lon="6.41712">
        <ele>275</ele>
        <time>2017-06-26T10:52:57Z</time>
      </trkpt>
      <trkpt lat="48.58755" lon="6.41714">
        <ele>275</ele>
        <time>2017-06-26T10:52:58Z</time>
      </trkpt>
      <trkpt lat="48.58754" lon="6.41716">
        <ele>275</ele>
        <time>2017-06-26T10:52:59Z</time>
      </trkpt>
      <trkpt lat="48.58753" lon="6.41718">
        <ele>275</ele>
        <time>2017-06-26T10:53:00Z</time>
      </trkpt>
      <trkpt lat="48.58753" lon="6.4172">
        <ele>275</ele>
        <time>2017-06-26T10:53:01Z</time>
      </trkpt>
      <trkpt lat="48.58751" lon="6.41727">
        <ele>275</ele>
        <time>2017-06-26T10:53:02Z</time>
      </trkpt>
      <trkpt lat="48.5875" lon="6.4173">
        <ele>275</ele>
        <time>2017-06-26T10:53:03Z</time>
      </trkpt>
      <trkpt lat="48.58749" lon="6.41733">
        <ele>275</ele>
        <time>2017-06-26T10:53:04Z</time>
      </trkpt>
      <trkpt lat="48.58748" lon="6.41735">
        <ele>273</ele>
        <time>2017-06-26T10:53:05Z</time>
      </trkpt>
      <trkpt lat="48.58747" lon="6.41738">
        <ele>273</ele>
        <time>2017-06-26T10:53:06Z</time>
      </trkpt>
      <trkpt lat="48.58746" lon="6.41741">
        <ele>273</ele>
        <time>2017-06-26T10:53:07Z</time>
      </trkpt>
      <trkpt lat="48.58746" lon="6.41743">
        <ele>273</ele>
        <time>2017-06-26T10:53:08Z</time>
      </trkpt>
      <trkpt lat="48.58745" lon="6.41745">
        <ele>273</ele>
        <time>2017-06-26T10:53:09Z</time>
      </trkpt>
      <trkpt lat="48.58745" lon="6.41746">
        <ele>273</ele>
        <time>2017-06-26T10:53:10Z</time>
      </trkpt>
      <trkpt lat="48.58744" lon="6.41748">
        <ele>273</ele>
        <time>2017-06-26T10:53:11Z</time>
      </trkpt>
      <trkpt lat="48.58742" lon="6.41756">
        <ele>273</ele>
        <time>2017-06-26T10:53:12Z</time>
      </trkpt>
      <trkpt lat="48.58741" lon="6.41758">
        <ele>273</ele>
        <time>2017-06-26T10:53:13Z</time>
      </trkpt>
      <trkpt lat="48.5874" lon="6.41759">
        <ele>273</ele>
        <time>2017-06-26T10:53:14Z</time>
      </trkpt>
      <trkpt lat="48.58739" lon="6.41761">
        <ele>273</ele>
        <time>2017-06-26T10:53:15Z</time>
      </trkpt>
      <trkpt lat="48.58738" lon="6.41763">
        <ele>273</ele>
        <time>2017-06-26T10:53:16Z</time>
      </trkpt>
      <trkpt lat="48.58734" lon="6.4177">
        <ele>273</ele>
        <time>2017-06-26T10:53:17Z</time>
      </trkpt>
      <trkpt lat="48.58733" lon="6.41772">
        <ele>273</ele>
        <time>2017-06-26T10:53:18Z</time>
      </trkpt>
      <trkpt lat="48.58732" lon="6.41774">
        <ele>273</ele>
        <time>2017-06-26T10:53:19Z</time>
      </trkpt>
      <trkpt lat="48.58731" lon="6.41776">
        <ele>273</ele>
        <time>2017-06-26T10:53:20Z</time>
      </trkpt>
      <trkpt lat="48.58727" lon="6.41783">
        <ele>273</ele>
        <time>2017-06-26T10:53:21Z</time>
      </trkpt>
      <trkpt lat="48.58725" lon="6.41785">
        <ele>273</ele>
        <time>2017-06-26T10:53:22Z</time>
      </trkpt>
      <trkpt lat="48.58724" lon="6.41787">
        <ele>273</ele>
        <time>2017-06-26T10:53:23Z</time>
      </trkpt>
      <trkpt lat="48.58723" lon="6.41789">
        <ele>273</ele>
        <time>2017-06-26T10:53:24Z</time>
      </trkpt>
      <trkpt lat="48.58719" lon="6.41795">
        <ele>272</ele>
        <time>2017-06-26T10:53:25Z</time>
      </trkpt>
      <trkpt lat="48.58718" lon="6.41796">
        <ele>272</ele>
        <time>2017-06-26T10:53:26Z</time>
      </trkpt>
      <trkpt lat="48.58717" lon="6.41797">
        <ele>272</ele>
        <time>2017-06-26T10:53:27Z</time>
      </trkpt>
      <trkpt lat="48.58716" lon="6.41798">
        <ele>272</ele>
        <time>2017-06-26T10:53:28Z</time>
      </trkpt>
      <trkpt lat="48.58715" lon="6.41799">
        <ele>272</ele>
        <time>2017-06-26T10:53:29Z</time>
      </trkpt>
      <trkpt lat="48.58715" lon="6.41801">
        <ele>272</ele>
        <time>2017-06-26T10:53:30Z</time>
      </trkpt>
      <trkpt lat="48.58711" lon="6.41807">
        <ele>273</ele>
        <time>2017-06-26T10:53:31Z</time>
      </trkpt>
      <trkpt lat="48.5871" lon="6.41808">
        <ele>273</ele>
        <time>2017-06-26T10:53:33Z</time>
      </trkpt>
      <trkpt lat="48.5871" lon="6.41809">
        <ele>273</ele>
        <time>2017-06-26T10:53:34Z</time>
      </trkpt>
      <trkpt lat="48.5871" lon="6.4181">
        <ele>272</ele>
        <time>2017-06-26T10:53:35Z</time>
      </trkpt>
      <trkpt lat="48.5871" lon="6.41811">
        <ele>272</ele>
        <time>2017-06-26T10:53:36Z</time>
      </trkpt>
      <trkpt lat="48.5871" lon="6.41812">
        <ele>272</ele>
        <time>2017-06-26T10:53:38Z</time>
      </trkpt>
      <trkpt lat="48.5871" lon="6.41813">
        <ele>272</ele>
        <time>2017-06-26T10:53:39Z</time>
      </trkpt>
      <trkpt lat="48.5871" lon="6.41814">
        <ele>272</ele>
        <time>2017-06-26T10:53:40Z</time>
      </trkpt>
      <trkpt lat="48.58709" lon="6.41814">
        <ele>272</ele>
        <time>2017-06-26T10:53:41Z</time>
      </trkpt>
      <trkpt lat="48.58708" lon="6.41822">
        <ele>272</ele>
        <time>2017-06-26T10:53:42Z</time>
      </trkpt>
      <trkpt lat="48.58708" lon="6.41824">
        <ele>272</ele>
        <time>2017-06-26T10:53:43Z</time>
      </trkpt>
      <trkpt lat="48.58708" lon="6.41825">
        <ele>272</ele>
        <time>2017-06-26T10:53:44Z</time>
      </trkpt>
      <trkpt lat="48.58707" lon="6.41827">
        <ele>274</ele>
        <time>2017-06-26T10:53:45Z</time>
      </trkpt>
      <trkpt lat="48.58707" lon="6.41828">
        <ele>274</ele>
        <time>2017-06-26T10:53:46Z</time>
      </trkpt>
      <trkpt lat="48.58707" lon="6.4183">
        <ele>274</ele>
        <time>2017-06-26T10:53:47Z</time>
      </trkpt>
      <trkpt lat="48.58705" lon="6.41838">
        <ele>274</ele>
        <time>2017-06-26T10:53:48Z</time>
      </trkpt>
      <trkpt lat="48.58705" lon="6.41839">
        <ele>274</ele>
        <time>2017-06-26T10:53:49Z</time>
      </trkpt>
      <trkpt lat="48.58705" lon="6.4184">
        <ele>274</ele>
        <time>2017-06-26T10:53:50Z</time>
      </trkpt>
      <trkpt lat="48.58705" lon="6.41841">
        <ele>274</ele>
        <time>2017-06-26T10:53:51Z</time>
      </trkpt>
      <trkpt lat="48.58704" lon="6.41843">
        <ele>274</ele>
        <time>2017-06-26T10:53:52Z</time>
      </trkpt>
      <trkpt lat="48.58704" lon="6.41844">
        <ele>274</ele>
        <time>2017-06-26T10:53:53Z</time>
      </trkpt>
      <trkpt lat="48.58704" lon="6.41845">
        <ele>274</ele>
        <time>2017-06-26T10:53:54Z</time>
      </trkpt>
      <trkpt lat="48.58702" lon="6.41853">
        <ele>275</ele>
        <time>2017-06-26T10:53:55Z</time>
      </trkpt>
      <trkpt lat="48.58701" lon="6.41854">
        <ele>275</ele>
        <time>2017-06-26T10:53:56Z</time>
      </trkpt>
      <trkpt lat="48.58701" lon="6.41855">
        <ele>275</ele>
        <time>2017-06-26T10:53:57Z</time>
      </trkpt>
      <trkpt lat="48.587" lon="6.41857">
        <ele>275</ele>
        <time>2017-06-26T10:53:58Z</time>
      </trkpt>
      <trkpt lat="48.587" lon="6.41858">
        <ele>275</ele>
        <time>2017-06-26T10:53:59Z</time>
      </trkpt>
      <trkpt lat="48.58699" lon="6.41859">
        <ele>275</ele>
        <time>2017-06-26T10:54:00Z</time>
      </trkpt>
      <trkpt lat="48.58699" lon="6.41861">
        <ele>275</ele>
        <time>2017-06-26T10:54:01Z</time>
      </trkpt>
      <trkpt lat="48.58696" lon="6.41869">
        <ele>275</ele>
        <time>2017-06-26T10:54:02Z</time>
      </trkpt>
      <trkpt lat="48.58695" lon="6.41871">
        <ele>275</ele>
        <time>2017-06-26T10:54:03Z</time>
      </trkpt>
      <trkpt lat="48.58694" lon="6.41873">
        <ele>275</ele>
        <time>2017-06-26T10:54:04Z</time>
      </trkpt>
      <trkpt lat="48.58693" lon="6.41876">
        <ele>278</ele>
        <time>2017-06-26T10:54:05Z</time>
      </trkpt>
      <trkpt lat="48.58692" lon="6.41878">
        <ele>278</ele>
        <time>2017-06-26T10:54:06Z</time>
      </trkpt>
      <trkpt lat="48.58691" lon="6.41881">
        <ele>278</ele>
        <time>2017-06-26T10:54:07Z</time>
      </trkpt>
      <trkpt lat="48.5869" lon="6.41882">
        <ele>278</ele>
        <time>2017-06-26T10:54:08Z</time>
      </trkpt>
      <trkpt lat="48.5869" lon="6.41883">
        <ele>278</ele>
        <time>2017-06-26T10:54:09Z</time>
      </trkpt>
      <trkpt lat="48.58689" lon="6.41885">
        <ele>278</ele>
        <time>2017-06-26T10:54:10Z</time>
      </trkpt>
      <trkpt lat="48.58689" lon="6.41886">
        <ele>278</ele>
        <time>2017-06-26T10:54:11Z</time>
      </trkpt>
      <trkpt lat="48.58688" lon="6.41887">
        <ele>278</ele>
        <time>2017-06-26T10:54:12Z</time>
      </trkpt>
      <trkpt lat="48.58686" lon="6.41894">
        <ele>278</ele>
        <time>2017-06-26T10:54:13Z</time>
      </trkpt>
      <trkpt lat="48.58685" lon="6.41896">
        <ele>278</ele>
        <time>2017-06-26T10:54:14Z</time>
      </trkpt>
      <trkpt lat="48.58684" lon="6.41899">
        <ele>278</ele>
        <time>2017-06-26T10:54:15Z</time>
      </trkpt>
      <trkpt lat="48.58683" lon="6.41901">
        <ele>278</ele>
        <time>2017-06-26T10:54:16Z</time>
      </trkpt>
      <trkpt lat="48.58683" lon="6.41903">
        <ele>278</ele>
        <time>2017-06-26T10:54:17Z</time>
      </trkpt>
      <trkpt lat="48.58682" lon="6.41905">
        <ele>278</ele>
        <time>2017-06-26T10:54:18Z</time>
      </trkpt>
      <trkpt lat="48.58681" lon="6.41907">
        <ele>278</ele>
        <time>2017-06-26T10:54:19Z</time>
      </trkpt>
      <trkpt lat="48.5868" lon="6.41909">
        <ele>278</ele>
        <time>2017-06-26T10:54:20Z</time>
      </trkpt>
      <trkpt lat="48.5868" lon="6.4191">
        <ele>278</ele>
        <time>2017-06-26T10:54:21Z</time>
      </trkpt>
      <trkpt lat="48.58679" lon="6.41912">
        <ele>278</ele>
        <time>2017-06-26T10:54:22Z</time>
      </trkpt>
      <trkpt lat="48.58679" lon="6.41913">
        <ele>278</ele>
        <time>2017-06-26T10:54:23Z</time>
      </trkpt>
      <trkpt lat="48.58678" lon="6.41915">
        <ele>278</ele>
        <time>2017-06-26T10:54:24Z</time>
      </trkpt>
      <trkpt lat="48.58676" lon="6.41922">
        <ele>280</ele>
        <time>2017-06-26T10:54:25Z</time>
      </trkpt>
      <trkpt lat="48.58675" lon="6.41924">
        <ele>280</ele>
        <time>2017-06-26T10:54:26Z</time>
      </trkpt>
      <trkpt lat="48.58674" lon="6.41927">
        <ele>280</ele>
        <time>2017-06-26T10:54:27Z</time>
      </trkpt>
      <trkpt lat="48.58673" lon="6.41929">
        <ele>280</ele>
        <time>2017-06-26T10:54:28Z</time>
      </trkpt>
      <trkpt lat="48.58672" lon="6.41932">
        <ele>280</ele>
        <time>2017-06-26T10:54:29Z</time>
      </trkpt>
      <trkpt lat="48.58671" lon="6.41934">
        <ele>280</ele>
        <time>2017-06-26T10:54:30Z</time>
      </trkpt>
      <trkpt lat="48.58669" lon="6.41937">
        <ele>280</ele>
        <time>2017-06-26T10:54:31Z</time>
      </trkpt>
      <trkpt lat="48.58668" lon="6.41939">
        <ele>280</ele>
        <time>2017-06-26T10:54:32Z</time>
      </trkpt>
      <trkpt lat="48.58667" lon="6.41941">
        <ele>280</ele>
        <time>2017-06-26T10:54:33Z</time>
      </trkpt>
      <trkpt lat="48.58665" lon="6.41944">
        <ele>280</ele>
        <time>2017-06-26T10:54:34Z</time>
      </trkpt>
      <trkpt lat="48.58664" lon="6.41946">
        <ele>280</ele>
        <time>2017-06-26T10:54:35Z</time>
      </trkpt>
      <trkpt lat="48.58663" lon="6.41947">
        <ele>280</ele>
        <time>2017-06-26T10:54:36Z</time>
      </trkpt>
      <trkpt lat="48.58662" lon="6.41948">
        <ele>280</ele>
        <time>2017-06-26T10:54:37Z</time>
      </trkpt>
      <trkpt lat="48.58662" lon="6.41949">
        <ele>280</ele>
        <time>2017-06-26T10:54:38Z</time>
      </trkpt>
      <trkpt lat="48.58661" lon="6.4195">
        <ele>280</ele>
        <time>2017-06-26T10:54:39Z</time>
      </trkpt>
      <trkpt lat="48.5866" lon="6.41951">
        <ele>280</ele>
        <time>2017-06-26T10:54:40Z</time>
      </trkpt>
      <trkpt lat="48.58656" lon="6.41957">
        <ele>280</ele>
        <time>2017-06-26T10:54:41Z</time>
      </trkpt>
      <trkpt lat="48.58655" lon="6.41958">
        <ele>280</ele>
        <time>2017-06-26T10:54:42Z</time>
      </trkpt>
      <trkpt lat="48.58653" lon="6.41958">
        <ele>280</ele>
        <time>2017-06-26T10:54:43Z</time>
      </trkpt>
      <trkpt lat="48.58652" lon="6.41959">
        <ele>280</ele>
        <time>2017-06-26T10:54:44Z</time>
      </trkpt>
      <trkpt lat="48.58651" lon="6.4196">
        <ele>280</ele>
        <time>2017-06-26T10:54:45Z</time>
      </trkpt>
      <trkpt lat="48.58645" lon="6.41964">
        <ele>280</ele>
        <time>2017-06-26T10:54:46Z</time>
      </trkpt>
      <trkpt lat="48.58644" lon="6.41965">
        <ele>280</ele>
        <time>2017-06-26T10:54:47Z</time>
      </trkpt>
      <trkpt lat="48.58643" lon="6.41966">
        <ele>280</ele>
        <time>2017-06-26T10:54:48Z</time>
      </trkpt>
      <trkpt lat="48.58641" lon="6.41966">
        <ele>280</ele>
        <time>2017-06-26T10:54:49Z</time>
      </trkpt>
      <trkpt lat="48.5864" lon="6.41967">
        <ele>280</ele>
        <time>2017-06-26T10:54:50Z</time>
      </trkpt>
      <trkpt lat="48.58635" lon="6.41971">
        <ele>280</ele>
        <time>2017-06-26T10:54:51Z</time>
      </trkpt>
      <trkpt lat="48.58632" lon="6.41972">
        <ele>280</ele>
        <time>2017-06-26T10:54:52Z</time>
      </trkpt>
      <trkpt lat="48.5863" lon="6.41973">
        <ele>280</ele>
        <time>2017-06-26T10:54:53Z</time>
      </trkpt>
      <trkpt lat="48.58628" lon="6.41975">
        <ele>280</ele>
        <time>2017-06-26T10:54:54Z</time>
      </trkpt>
      <trkpt lat="48.58625" lon="6.41976">
        <ele>279</ele>
        <time>2017-06-26T10:54:55Z</time>
      </trkpt>
      <trkpt lat="48.58624" lon="6.41977">
        <ele>279</ele>
        <time>2017-06-26T10:54:56Z</time>
      </trkpt>
      <trkpt lat="48.58623" lon="6.41978">
        <ele>279</ele>
        <time>2017-06-26T10:54:57Z</time>
      </trkpt>
      <trkpt lat="48.58622" lon="6.41979">
        <ele>279</ele>
        <time>2017-06-26T10:54:58Z</time>
      </trkpt>
      <trkpt lat="48.58621" lon="6.4198">
        <ele>279</ele>
        <time>2017-06-26T10:54:59Z</time>
      </trkpt>
      <trkpt lat="48.58617" lon="6.41984">
        <ele>279</ele>
        <time>2017-06-26T10:55:00Z</time>
      </trkpt>
      <trkpt lat="48.58616" lon="6.41986">
        <ele>279</ele>
        <time>2017-06-26T10:55:01Z</time>
      </trkpt>
      <trkpt lat="48.58615" lon="6.41988">
        <ele>279</ele>
        <time>2017-06-26T10:55:02Z</time>
      </trkpt>
      <trkpt lat="48.58614" lon="6.4199">
        <ele>279</ele>
        <time>2017-06-26T10:55:03Z</time>
      </trkpt>
      <trkpt lat="48.58613" lon="6.41992">
        <ele>279</ele>
        <time>2017-06-26T10:55:04Z</time>
      </trkpt>
      <trkpt lat="48.58608" lon="6.41999">
        <ele>276</ele>
        <time>2017-06-26T10:55:05Z</time>
      </trkpt>
      <trkpt lat="48.58608" lon="6.42">
        <ele>276</ele>
        <time>2017-06-26T10:55:06Z</time>
      </trkpt>
      <trkpt lat="48.58607" lon="6.42002">
        <ele>276</ele>
        <time>2017-06-26T10:55:07Z</time>
      </trkpt>
      <trkpt lat="48.58606" lon="6.42003">
        <ele>276</ele>
        <time>2017-06-26T10:55:08Z</time>
      </trkpt>
      <trkpt lat="48.58605" lon="6.42004">
        <ele>276</ele>
        <time>2017-06-26T10:55:09Z</time>
      </trkpt>
      <trkpt lat="48.58602" lon="6.4201">
        <ele>276</ele>
        <time>2017-06-26T10:55:10Z</time>
      </trkpt>
      <trkpt lat="48.58601" lon="6.42012">
        <ele>276</ele>
        <time>2017-06-26T10:55:11Z</time>
      </trkpt>
      <trkpt lat="48.586" lon="6.42014">
        <ele>276</ele>
        <time>2017-06-26T10:55:12Z</time>
      </trkpt>
      <trkpt lat="48.586" lon="6.42016">
        <ele>276</ele>
        <time>2017-06-26T10:55:13Z</time>
      </trkpt>
      <trkpt lat="48.58599" lon="6.42018">
        <ele>276</ele>
        <time>2017-06-26T10:55:14Z</time>
      </trkpt>
      <trkpt lat="48.58596" lon="6.42025">
        <ele>275</ele>
        <time>2017-06-26T10:55:15Z</time>
      </trkpt>
      <trkpt lat="48.58595" lon="6.42027">
        <ele>275</ele>
        <time>2017-06-26T10:55:16Z</time>
      </trkpt>
      <trkpt lat="48.58595" lon="6.42028">
        <ele>275</ele>
        <time>2017-06-26T10:55:17Z</time>
      </trkpt>
      <trkpt lat="48.58594" lon="6.4203">
        <ele>275</ele>
        <time>2017-06-26T10:55:18Z</time>
      </trkpt>
      <trkpt lat="48.58593" lon="6.42032">
        <ele>275</ele>
        <time>2017-06-26T10:55:19Z</time>
      </trkpt>
      <trkpt lat="48.5859" lon="6.42038">
        <ele>275</ele>
        <time>2017-06-26T10:55:20Z</time>
      </trkpt>
      <trkpt lat="48.58589" lon="6.4204">
        <ele>275</ele>
        <time>2017-06-26T10:55:21Z</time>
      </trkpt>
      <trkpt lat="48.58588" lon="6.42042">
        <ele>275</ele>
        <time>2017-06-26T10:55:22Z</time>
      </trkpt>
      <trkpt lat="48.58588" lon="6.42044">
        <ele>275</ele>
        <time>2017-06-26T10:55:23Z</time>
      </trkpt>
      <trkpt lat="48.58587" lon="6.42046">
        <ele>275</ele>
        <time>2017-06-26T10:55:24Z</time>
      </trkpt>
      <trkpt lat="48.58583" lon="6.42053">
        <ele>275</ele>
        <time>2017-06-26T10:55:25Z</time>
      </trkpt>
      <trkpt lat="48.58582" lon="6.42055">
        <ele>275</ele>
        <time>2017-06-26T10:55:26Z</time>
      </trkpt>
      <trkpt lat="48.5858" lon="6.42058">
        <ele>275</ele>
        <time>2017-06-26T10:55:27Z</time>
      </trkpt>
      <trkpt lat="48.58578" lon="6.4206">
        <ele>275</ele>
        <time>2017-06-26T10:55:28Z</time>
      </trkpt>
      <trkpt lat="48.58576" lon="6.42063">
        <ele>275</ele>
        <time>2017-06-26T10:55:29Z</time>
      </trkpt>
      <trkpt lat="48.58575" lon="6.42064">
        <ele>275</ele>
        <time>2017-06-26T10:55:30Z</time>
      </trkpt>
      <trkpt lat="48.58574" lon="6.42066">
        <ele>275</ele>
        <time>2017-06-26T10:55:31Z</time>
      </trkpt>
      <trkpt lat="48.58573" lon="6.42067">
        <ele>275</ele>
        <time>2017-06-26T10:55:32Z</time>
      </trkpt>
      <trkpt lat="48.58572" lon="6.42069">
        <ele>275</ele>
        <time>2017-06-26T10:55:33Z</time>
      </trkpt>
      <trkpt lat="48.58569" lon="6.42075">
        <ele>275</ele>
        <time>2017-06-26T10:55:34Z</time>
      </trkpt>
      <trkpt lat="48.58568" lon="6.42076">
        <ele>273</ele>
        <time>2017-06-26T10:55:35Z</time>
      </trkpt>
      <trkpt lat="48.58568" lon="6.42077">
        <ele>273</ele>
        <time>2017-06-26T10:55:36Z</time>
      </trkpt>
      <trkpt lat="48.58567" lon="6.42079">
        <ele>273</ele>
        <time>2017-06-26T10:55:37Z</time>
      </trkpt>
      <trkpt lat="48.58567" lon="6.4208">
        <ele>273</ele>
        <time>2017-06-26T10:55:38Z</time>
      </trkpt>
      <trkpt lat="48.58566" lon="6.42082">
        <ele>273</ele>
        <time>2017-06-26T10:55:39Z</time>
      </trkpt>
      <trkpt lat="48.58564" lon="6.42088">
        <ele>273</ele>
        <time>2017-06-26T10:55:40Z</time>
      </trkpt>
      <trkpt lat="48.58563" lon="6.4209">
        <ele>273</ele>
        <time>2017-06-26T10:55:41Z</time>
      </trkpt>
      <trkpt lat="48.58562" lon="6.42091">
        <ele>273</ele>
        <time>2017-06-26T10:55:42Z</time>
      </trkpt>
      <trkpt lat="48.58562" lon="6.42093">
        <ele>273</ele>
        <time>2017-06-26T10:55:43Z</time>
      </trkpt>
      <trkpt lat="48.58561" lon="6.42094">
        <ele>273</ele>
        <time>2017-06-26T10:55:44Z</time>
      </trkpt>
      <trkpt lat="48.58561" lon="6.42096">
        <ele>272</ele>
        <time>2017-06-26T10:55:45Z</time>
      </trkpt>
      <trkpt lat="48.58557" lon="6.42103">
        <ele>272</ele>
        <time>2017-06-26T10:55:46Z</time>
      </trkpt>
      <trkpt lat="48.58556" lon="6.42104">
        <ele>272</ele>
        <time>2017-06-26T10:55:47Z</time>
      </trkpt>
      <trkpt lat="48.58555" lon="6.42106">
        <ele>272</ele>
        <time>2017-06-26T10:55:48Z</time>
      </trkpt>
      <trkpt lat="48.58554" lon="6.42108">
        <ele>272</ele>
        <time>2017-06-26T10:55:49Z</time>
      </trkpt>
      <trkpt lat="48.58553" lon="6.4211">
        <ele>272</ele>
        <time>2017-06-26T10:55:50Z</time>
      </trkpt>
      <trkpt lat="48.58549" lon="6.42117">
        <ele>272</ele>
        <time>2017-06-26T10:55:51Z</time>
      </trkpt>
      <trkpt lat="48.58547" lon="6.4212">
        <ele>272</ele>
        <time>2017-06-26T10:55:52Z</time>
      </trkpt>
      <trkpt lat="48.58545" lon="6.42123">
        <ele>272</ele>
        <time>2017-06-26T10:55:53Z</time>
      </trkpt>
      <trkpt lat="48.58544" lon="6.42126">
        <ele>272</ele>
        <time>2017-06-26T10:55:54Z</time>
      </trkpt>
      <trkpt lat="48.58542" lon="6.42129">
        <ele>271</ele>
        <time>2017-06-26T10:55:55Z</time>
      </trkpt>
      <trkpt lat="48.58541" lon="6.42131">
        <ele>271</ele>
        <time>2017-06-26T10:55:56Z</time>
      </trkpt>
      <trkpt lat="48.5854" lon="6.42133">
        <ele>271</ele>
        <time>2017-06-26T10:55:57Z</time>
      </trkpt>
      <trkpt lat="48.5854" lon="6.42134">
        <ele>271</ele>
        <time>2017-06-26T10:55:58Z</time>
      </trkpt>
      <trkpt lat="48.58539" lon="6.42136">
        <ele>271</ele>
        <time>2017-06-26T10:55:59Z</time>
      </trkpt>
      <trkpt lat="48.58536" lon="6.42143">
        <ele>271</ele>
        <time>2017-06-26T10:56:00Z</time>
      </trkpt>
      <trkpt lat="48.58535" lon="6.42146">
        <ele>271</ele>
        <time>2017-06-26T10:56:01Z</time>
      </trkpt>
      <trkpt lat="48.58534" lon="6.42149">
        <ele>271</ele>
        <time>2017-06-26T10:56:02Z</time>
      </trkpt>
      <trkpt lat="48.58533" lon="6.42152">
        <ele>271</ele>
        <time>2017-06-26T10:56:03Z</time>
      </trkpt>
      <trkpt lat="48.58532" lon="6.42154">
        <ele>271</ele>
        <time>2017-06-26T10:56:04Z</time>
      </trkpt>
      <trkpt lat="48.58531" lon="6.42157">
        <ele>270</ele>
        <time>2017-06-26T10:56:05Z</time>
      </trkpt>
      <trkpt lat="48.5853" lon="6.42159">
        <ele>270</ele>
        <time>2017-06-26T10:56:06Z</time>
      </trkpt>
      <trkpt lat="48.5853" lon="6.42161">
        <ele>270</ele>
        <time>2017-06-26T10:56:07Z</time>
      </trkpt>
      <trkpt lat="48.58529" lon="6.42162">
        <ele>270</ele>
        <time>2017-06-26T10:56:08Z</time>
      </trkpt>
      <trkpt lat="48.58528" lon="6.42164">
        <ele>270</ele>
        <time>2017-06-26T10:56:09Z</time>
      </trkpt>
      <trkpt lat="48.58524" lon="6.42171">
        <ele>270</ele>
        <time>2017-06-26T10:56:10Z</time>
      </trkpt>
      <trkpt lat="48.58523" lon="6.42173">
        <ele>270</ele>
        <time>2017-06-26T10:56:11Z</time>
      </trkpt>
      <trkpt lat="48.58522" lon="6.42175">
        <ele>270</ele>
        <time>2017-06-26T10:56:12Z</time>
      </trkpt>
      <trkpt lat="48.58521" lon="6.42177">
        <ele>270</ele>
        <time>2017-06-26T10:56:13Z</time>
      </trkpt>
      <trkpt lat="48.58518" lon="6.42183">
        <ele>270</ele>
        <time>2017-06-26T10:56:14Z</time>
      </trkpt>
      <trkpt lat="48.58517" lon="6.42185">
        <ele>269</ele>
        <time>2017-06-26T10:56:15Z</time>
      </trkpt>
      <trkpt lat="48.58516" lon="6.42187">
        <ele>269</ele>
        <time>2017-06-26T10:56:16Z</time>
      </trkpt>
      <trkpt lat="48.58515" lon="6.42189">
        <ele>269</ele>
        <time>2017-06-26T10:56:17Z</time>
      </trkpt>
      <trkpt lat="48.58514" lon="6.42191">
        <ele>269</ele>
        <time>2017-06-26T10:56:18Z</time>
      </trkpt>
      <trkpt lat="48.5851" lon="6.42198">
        <ele>269</ele>
        <time>2017-06-26T10:56:19Z</time>
      </trkpt>
      <trkpt lat="48.5851" lon="6.422">
        <ele>269</ele>
        <time>2017-06-26T10:56:20Z</time>
      </trkpt>
      <trkpt lat="48.58509" lon="6.42201">
        <ele>269</ele>
        <time>2017-06-26T10:56:21Z</time>
      </trkpt>
      <trkpt lat="48.58508" lon="6.42203">
        <ele>269</ele>
        <time>2017-06-26T10:56:22Z</time>
      </trkpt>
      <trkpt lat="48.58507" lon="6.42205">
        <ele>269</ele>
        <time>2017-06-26T10:56:23Z</time>
      </trkpt>
      <trkpt lat="48.58504" lon="6.42211">
        <ele>269</ele>
        <time>2017-06-26T10:56:24Z</time>
      </trkpt>
      <trkpt lat="48.58503" lon="6.42213">
        <ele>267</ele>
        <time>2017-06-26T10:56:25Z</time>
      </trkpt>
      <trkpt lat="48.58502" lon="6.42214">
        <ele>267</ele>
        <time>2017-06-26T10:56:26Z</time>
      </trkpt>
      <trkpt lat="48.58501" lon="6.42216">
        <ele>267</ele>
        <time>2017-06-26T10:56:27Z</time>
      </trkpt>
      <trkpt lat="48.585" lon="6.42217">
        <ele>267</ele>
        <time>2017-06-26T10:56:28Z</time>
      </trkpt>
      <trkpt lat="48.58497" lon="6.42224">
        <ele>267</ele>
        <time>2017-06-26T10:56:29Z</time>
      </trkpt>
      <trkpt lat="48.58494" lon="6.42227">
        <ele>267</ele>
        <time>2017-06-26T10:56:30Z</time>
      </trkpt>
      <trkpt lat="48.58492" lon="6.4223">
        <ele>267</ele>
        <time>2017-06-26T10:56:31Z</time>
      </trkpt>
      <trkpt lat="48.58489" lon="6.42234">
        <ele>267</ele>
        <time>2017-06-26T10:56:32Z</time>
      </trkpt>
      <trkpt lat="48.58487" lon="6.42237">
        <ele>267</ele>
        <time>2017-06-26T10:56:33Z</time>
      </trkpt>
      <trkpt lat="48.58485" lon="6.42241">
        <ele>267</ele>
        <time>2017-06-26T10:56:34Z</time>
      </trkpt>
      <trkpt lat="48.58482" lon="6.42244">
        <ele>266</ele>
        <time>2017-06-26T10:56:35Z</time>
      </trkpt>
      <trkpt lat="48.58482" lon="6.42246">
        <ele>266</ele>
        <time>2017-06-26T10:56:36Z</time>
      </trkpt>
      <trkpt lat="48.58481" lon="6.42248">
        <ele>266</ele>
        <time>2017-06-26T10:56:37Z</time>
      </trkpt>
      <trkpt lat="48.5848" lon="6.42249">
        <ele>266</ele>
        <time>2017-06-26T10:56:38Z</time>
      </trkpt>
      <trkpt lat="48.5848" lon="6.42251">
        <ele>266</ele>
        <time>2017-06-26T10:56:39Z</time>
      </trkpt>
      <trkpt lat="48.58477" lon="6.42258">
        <ele>266</ele>
        <time>2017-06-26T10:56:40Z</time>
      </trkpt>
      <trkpt lat="48.58476" lon="6.4226">
        <ele>266</ele>
        <time>2017-06-26T10:56:41Z</time>
      </trkpt>
      <trkpt lat="48.58476" lon="6.42262">
        <ele>266</ele>
        <time>2017-06-26T10:56:42Z</time>
      </trkpt>
      <trkpt lat="48.58475" lon="6.42264">
        <ele>266</ele>
        <time>2017-06-26T10:56:43Z</time>
      </trkpt>
      <trkpt lat="48.58475" lon="6.42266">
        <ele>266</ele>
        <time>2017-06-26T10:56:44Z</time>
      </trkpt>
      <trkpt lat="48.58472" lon="6.42274">
        <ele>266</ele>
        <time>2017-06-26T10:56:45Z</time>
      </trkpt>
      <trkpt lat="48.58472" lon="6.42276">
        <ele>266</ele>
        <time>2017-06-26T10:56:46Z</time>
      </trkpt>
      <trkpt lat="48.58471" lon="6.42277">
        <ele>266</ele>
        <time>2017-06-26T10:56:47Z</time>
      </trkpt>
      <trkpt lat="48.5847" lon="6.42279">
        <ele>266</ele>
        <time>2017-06-26T10:56:48Z</time>
      </trkpt>
      <trkpt lat="48.58469" lon="6.42281">
        <ele>266</ele>
        <time>2017-06-26T10:56:49Z</time>
      </trkpt>
      <trkpt lat="48.58466" lon="6.42288">
        <ele>266</ele>
        <time>2017-06-26T10:56:50Z</time>
      </trkpt>
      <trkpt lat="48.58465" lon="6.4229">
        <ele>266</ele>
        <time>2017-06-26T10:56:51Z</time>
      </trkpt>
      <trkpt lat="48.58464" lon="6.42292">
        <ele>266</ele>
        <time>2017-06-26T10:56:52Z</time>
      </trkpt>
      <trkpt lat="48.58464" lon="6.42294">
        <ele>266</ele>
        <time>2017-06-26T10:56:53Z</time>
      </trkpt>
      <trkpt lat="48.58463" lon="6.42295">
        <ele>266</ele>
        <time>2017-06-26T10:56:54Z</time>
      </trkpt>
      <trkpt lat="48.5846" lon="6.42302">
        <ele>266</ele>
        <time>2017-06-26T10:56:55Z</time>
      </trkpt>
      <trkpt lat="48.58459" lon="6.42304">
        <ele>266</ele>
        <time>2017-06-26T10:56:56Z</time>
      </trkpt>
      <trkpt lat="48.58458" lon="6.42306">
        <ele>266</ele>
        <time>2017-06-26T10:56:57Z</time>
      </trkpt>
      <trkpt lat="48.58457" lon="6.42307">
        <ele>266</ele>
        <time>2017-06-26T10:56:58Z</time>
      </trkpt>
      <trkpt lat="48.58457" lon="6.42309">
        <ele>266</ele>
        <time>2017-06-26T10:56:59Z</time>
      </trkpt>
      <trkpt lat="48.58453" lon="6.42315">
        <ele>266</ele>
        <time>2017-06-26T10:57:00Z</time>
      </trkpt>
      <trkpt lat="48.58452" lon="6.42317">
        <ele>266</ele>
        <time>2017-06-26T10:57:01Z</time>
      </trkpt>
      <trkpt lat="48.58452" lon="6.42319">
        <ele>266</ele>
        <time>2017-06-26T10:57:02Z</time>
      </trkpt>
      <trkpt lat="48.58451" lon="6.42321">
        <ele>266</ele>
        <time>2017-06-26T10:57:03Z</time>
      </trkpt>
      <trkpt lat="48.5845" lon="6.42322">
        <ele>266</ele>
        <time>2017-06-26T10:57:04Z</time>
      </trkpt>
      <trkpt lat="48.58447" lon="6.42329">
        <ele>265</ele>
        <time>2017-06-26T10:57:05Z</time>
      </trkpt>
      <trkpt lat="48.58448" lon="6.42331">
        <ele>265</ele>
        <time>2017-06-26T10:57:06Z</time>
      </trkpt>
      <trkpt lat="48.58449" lon="6.42333">
        <ele>265</ele>
        <time>2017-06-26T10:57:07Z</time>
      </trkpt>
      <trkpt lat="48.5845" lon="6.42335">
        <ele>265</ele>
        <time>2017-06-26T10:57:08Z</time>
      </trkpt>
      <trkpt lat="48.58451" lon="6.42337">
        <ele>265</ele>
        <time>2017-06-26T10:57:09Z</time>
      </trkpt>
      <trkpt lat="48.58452" lon="6.42339">
        <ele>265</ele>
        <time>2017-06-26T10:57:10Z</time>
      </trkpt>
      <trkpt lat="48.58453" lon="6.42341">
        <ele>265</ele>
        <time>2017-06-26T10:57:11Z</time>
      </trkpt>
      <trkpt lat="48.58454" lon="6.42343">
        <ele>265</ele>
        <time>2017-06-26T10:57:12Z</time>
      </trkpt>
      <trkpt lat="48.58455" lon="6.42344">
        <ele>265</ele>
        <time>2017-06-26T10:57:13Z</time>
      </trkpt>
      <trkpt lat="48.58456" lon="6.42346">
        <ele>265</ele>
        <time>2017-06-26T10:57:14Z</time>
      </trkpt>
      <trkpt lat="48.58457" lon="6.42347">
        <ele>266</ele>
        <time>2017-06-26T10:57:15Z</time>
      </trkpt>
      <trkpt lat="48.58459" lon="6.42348">
        <ele>266</ele>
        <time>2017-06-26T10:57:16Z</time>
      </trkpt>
      <trkpt lat="48.5846" lon="6.4235">
        <ele>266</ele>
        <time>2017-06-26T10:57:17Z</time>
      </trkpt>
      <trkpt lat="48.58461" lon="6.42351">
        <ele>266</ele>
        <time>2017-06-26T10:57:18Z</time>
      </trkpt>
      <trkpt lat="48.58462" lon="6.42352">
        <ele>266</ele>
        <time>2017-06-26T10:57:19Z</time>
      </trkpt>
      <trkpt lat="48.58463" lon="6.42353">
        <ele>266</ele>
        <time>2017-06-26T10:57:20Z</time>
      </trkpt>
      <trkpt lat="48.58464" lon="6.42353">
        <ele>266</ele>
        <time>2017-06-26T10:57:21Z</time>
      </trkpt>
      <trkpt lat="48.58465" lon="6.42354">
        <ele>266</ele>
        <time>2017-06-26T10:57:22Z</time>
      </trkpt>
      <trkpt lat="48.58466" lon="6.42355">
        <ele>266</ele>
        <time>2017-06-26T10:57:23Z</time>
      </trkpt>
      <trkpt lat="48.5847" lon="6.42358">
        <ele>266</ele>
        <time>2017-06-26T10:57:24Z</time>
      </trkpt>
      <trkpt lat="48.58472" lon="6.4236">
        <ele>266</ele>
        <time>2017-06-26T10:57:25Z</time>
      </trkpt>
      <trkpt lat="48.58473" lon="6.42362">
        <ele>266</ele>
        <time>2017-06-26T10:57:26Z</time>
      </trkpt>
      <trkpt lat="48.58474" lon="6.42363">
        <ele>266</ele>
        <time>2017-06-26T10:57:27Z</time>
      </trkpt>
      <trkpt lat="48.58476" lon="6.42365">
        <ele>266</ele>
        <time>2017-06-26T10:57:28Z</time>
      </trkpt>
      <trkpt lat="48.58477" lon="6.42366">
        <ele>266</ele>
        <time>2017-06-26T10:57:29Z</time>
      </trkpt>
      <trkpt lat="48.58478" lon="6.42368">
        <ele>266</ele>
        <time>2017-06-26T10:57:30Z</time>
      </trkpt>
      <trkpt lat="48.5848" lon="6.4237">
        <ele>266</ele>
        <time>2017-06-26T10:57:31Z</time>
      </trkpt>
      <trkpt lat="48.58482" lon="6.42371">
        <ele>266</ele>
        <time>2017-06-26T10:57:32Z</time>
      </trkpt>
      <trkpt lat="48.58483" lon="6.42373">
        <ele>266</ele>
        <time>2017-06-26T10:57:33Z</time>
      </trkpt>
      <trkpt lat="48.58485" lon="6.42375">
        <ele>266</ele>
        <time>2017-06-26T10:57:34Z</time>
      </trkpt>
      <trkpt lat="48.58487" lon="6.42376">
        <ele>266</ele>
        <time>2017-06-26T10:57:35Z</time>
      </trkpt>
      <trkpt lat="48.58488" lon="6.42377">
        <ele>266</ele>
        <time>2017-06-26T10:57:36Z</time>
      </trkpt>
      <trkpt lat="48.58489" lon="6.42379">
        <ele>266</ele>
        <time>2017-06-26T10:57:37Z</time>
      </trkpt>
      <trkpt lat="48.5849" lon="6.4238">
        <ele>266</ele>
        <time>2017-06-26T10:57:38Z</time>
      </trkpt>
      <trkpt lat="48.58491" lon="6.42381">
        <ele>266</ele>
        <time>2017-06-26T10:57:39Z</time>
      </trkpt>
      <trkpt lat="48.58496" lon="6.42387">
        <ele>266</ele>
        <time>2017-06-26T10:57:40Z</time>
      </trkpt>
      <trkpt lat="48.58497" lon="6.42389">
        <ele>266</ele>
        <time>2017-06-26T10:57:41Z</time>
      </trkpt>
      <trkpt lat="48.58499" lon="6.42391">
        <ele>266</ele>
        <time>2017-06-26T10:57:42Z</time>
      </trkpt>
      <trkpt lat="48.585" lon="6.42393">
        <ele>266</ele>
        <time>2017-06-26T10:57:43Z</time>
      </trkpt>
      <trkpt lat="48.58501" lon="6.42395">
        <ele>266</ele>
        <time>2017-06-26T10:57:44Z</time>
      </trkpt>
      <trkpt lat="48.58503" lon="6.42397">
        <ele>267</ele>
        <time>2017-06-26T10:57:45Z</time>
      </trkpt>
      <trkpt lat="48.58504" lon="6.42398">
        <ele>267</ele>
        <time>2017-06-26T10:57:46Z</time>
      </trkpt>
      <trkpt lat="48.58505" lon="6.424">
        <ele>267</ele>
        <time>2017-06-26T10:57:47Z</time>
      </trkpt>
      <trkpt lat="48.58506" lon="6.42401">
        <ele>267</ele>
        <time>2017-06-26T10:57:48Z</time>
      </trkpt>
      <trkpt lat="48.58507" lon="6.42402">
        <ele>267</ele>
        <time>2017-06-26T10:57:49Z</time>
      </trkpt>
      <trkpt lat="48.58512" lon="6.42407">
        <ele>267</ele>
        <time>2017-06-26T10:57:50Z</time>
      </trkpt>
      <trkpt lat="48.58513" lon="6.42408">
        <ele>267</ele>
        <time>2017-06-26T10:57:51Z</time>
      </trkpt>
      <trkpt lat="48.58514" lon="6.42409">
        <ele>267</ele>
        <time>2017-06-26T10:57:52Z</time>
      </trkpt>
      <trkpt lat="48.58516" lon="6.4241">
        <ele>267</ele>
        <time>2017-06-26T10:57:53Z</time>
      </trkpt>
      <trkpt lat="48.58517" lon="6.42411">
        <ele>267</ele>
        <time>2017-06-26T10:57:54Z</time>
      </trkpt>
      <trkpt lat="48.58522" lon="6.42415">
        <ele>268</ele>
        <time>2017-06-26T10:57:55Z</time>
      </trkpt>
      <trkpt lat="48.58523" lon="6.42416">
        <ele>268</ele>
        <time>2017-06-26T10:57:56Z</time>
      </trkpt>
      <trkpt lat="48.58525" lon="6.42418">
        <ele>268</ele>
        <time>2017-06-26T10:57:57Z</time>
      </trkpt>
      <trkpt lat="48.58526" lon="6.42419">
        <ele>268</ele>
        <time>2017-06-26T10:57:58Z</time>
      </trkpt>
      <trkpt lat="48.58527" lon="6.4242">
        <ele>268</ele>
        <time>2017-06-26T10:57:59Z</time>
      </trkpt>
      <trkpt lat="48.58531" lon="6.42425">
        <ele>268</ele>
        <time>2017-06-26T10:58:00Z</time>
      </trkpt>
      <trkpt lat="48.58533" lon="6.42427">
        <ele>268</ele>
        <time>2017-06-26T10:58:01Z</time>
      </trkpt>
      <trkpt lat="48.58535" lon="6.42429">
        <ele>268</ele>
        <time>2017-06-26T10:58:02Z</time>
      </trkpt>
      <trkpt lat="48.58536" lon="6.42431">
        <ele>268</ele>
        <time>2017-06-26T10:58:03Z</time>
      </trkpt>
      <trkpt lat="48.58538" lon="6.42432">
        <ele>268</ele>
        <time>2017-06-26T10:58:04Z</time>
      </trkpt>
      <trkpt lat="48.58539" lon="6.42434">
        <ele>268</ele>
        <time>2017-06-26T10:58:05Z</time>
      </trkpt>
      <trkpt lat="48.5854" lon="6.42435">
        <ele>268</ele>
        <time>2017-06-26T10:58:06Z</time>
      </trkpt>
      <trkpt lat="48.58541" lon="6.42437">
        <ele>268</ele>
        <time>2017-06-26T10:58:07Z</time>
      </trkpt>
      <trkpt lat="48.58542" lon="6.42438">
        <ele>268</ele>
        <time>2017-06-26T10:58:08Z</time>
      </trkpt>
      <trkpt lat="48.58543" lon="6.42439">
        <ele>268</ele>
        <time>2017-06-26T10:58:09Z</time>
      </trkpt>
      <trkpt lat="48.58544" lon="6.4244">
        <ele>268</ele>
        <time>2017-06-26T10:58:10Z</time>
      </trkpt>
      <trkpt lat="48.58549" lon="6.42446">
        <ele>268</ele>
        <time>2017-06-26T10:58:11Z</time>
      </trkpt>
      <trkpt lat="48.5855" lon="6.42447">
        <ele>268</ele>
        <time>2017-06-26T10:58:12Z</time>
      </trkpt>
      <trkpt lat="48.58551" lon="6.42448">
        <ele>268</ele>
        <time>2017-06-26T10:58:13Z</time>
      </trkpt>
      <trkpt lat="48.58552" lon="6.42449">
        <ele>268</ele>
        <time>2017-06-26T10:58:14Z</time>
      </trkpt>
      <trkpt lat="48.58552" lon="6.4245">
        <ele>270</ele>
        <time>2017-06-26T10:58:15Z</time>
      </trkpt>
      <trkpt lat="48.58553" lon="6.42451">
        <ele>270</ele>
        <time>2017-06-26T10:58:16Z</time>
      </trkpt>
      <trkpt lat="48.58558" lon="6.42457">
        <ele>270</ele>
        <time>2017-06-26T10:58:17Z</time>
      </trkpt>
      <trkpt lat="48.58558" lon="6.42458">
        <ele>270</ele>
        <time>2017-06-26T10:58:18Z</time>
      </trkpt>
      <trkpt lat="48.58559" lon="6.42459">
        <ele>270</ele>
        <time>2017-06-26T10:58:19Z</time>
      </trkpt>
      <trkpt lat="48.5856" lon="6.4246">
        <ele>270</ele>
        <time>2017-06-26T10:58:20Z</time>
      </trkpt>
      <trkpt lat="48.58561" lon="6.42461">
        <ele>270</ele>
        <time>2017-06-26T10:58:21Z</time>
      </trkpt>
      <trkpt lat="48.58562" lon="6.42463">
        <ele>270</ele>
        <time>2017-06-26T10:58:22Z</time>
      </trkpt>
      <trkpt lat="48.58566" lon="6.42468">
        <ele>270</ele>
        <time>2017-06-26T10:58:23Z</time>
      </trkpt>
      <trkpt lat="48.58567" lon="6.42469">
        <ele>270</ele>
        <time>2017-06-26T10:58:24Z</time>
      </trkpt>
      <trkpt lat="48.58568" lon="6.4247">
        <ele>271</ele>
        <time>2017-06-26T10:58:25Z</time>
      </trkpt>
      <trkpt lat="48.58569" lon="6.42471">
        <ele>271</ele>
        <time>2017-06-26T10:58:26Z</time>
      </trkpt>
      <trkpt lat="48.58569" lon="6.42472">
        <ele>271</ele>
        <time>2017-06-26T10:58:27Z</time>
      </trkpt>
      <trkpt lat="48.5857" lon="6.42473">
        <ele>271</ele>
        <time>2017-06-26T10:58:28Z</time>
      </trkpt>
      <trkpt lat="48.58575" lon="6.42479">
        <ele>271</ele>
        <time>2017-06-26T10:58:29Z</time>
      </trkpt>
      <trkpt lat="48.58576" lon="6.4248">
        <ele>271</ele>
        <time>2017-06-26T10:58:30Z</time>
      </trkpt>
      <trkpt lat="48.58577" lon="6.42481">
        <ele>271</ele>
        <time>2017-06-26T10:58:31Z</time>
      </trkpt>
      <trkpt lat="48.58578" lon="6.42482">
        <ele>271</ele>
        <time>2017-06-26T10:58:32Z</time>
      </trkpt>
      <trkpt lat="48.58579" lon="6.42483">
        <ele>271</ele>
        <time>2017-06-26T10:58:33Z</time>
      </trkpt>
      <trkpt lat="48.58584" lon="6.42488">
        <ele>271</ele>
        <time>2017-06-26T10:58:34Z</time>
      </trkpt>
      <trkpt lat="48.58585" lon="6.42489">
        <ele>271</ele>
        <time>2017-06-26T10:58:35Z</time>
      </trkpt>
      <trkpt lat="48.58586" lon="6.4249">
        <ele>271</ele>
        <time>2017-06-26T10:58:36Z</time>
      </trkpt>
      <trkpt lat="48.58587" lon="6.42491">
        <ele>271</ele>
        <time>2017-06-26T10:58:37Z</time>
      </trkpt>
      <trkpt lat="48.58588" lon="6.42492">
        <ele>271</ele>
        <time>2017-06-26T10:58:38Z</time>
      </trkpt>
      <trkpt lat="48.58592" lon="6.42497">
        <ele>271</ele>
        <time>2017-06-26T10:58:39Z</time>
      </trkpt>
      <trkpt lat="48.58593" lon="6.42498">
        <ele>271</ele>
        <time>2017-06-26T10:58:40Z</time>
      </trkpt>
      <trkpt lat="48.58595" lon="6.42499">
        <ele>271</ele>
        <time>2017-06-26T10:58:41Z</time>
      </trkpt>
      <trkpt lat="48.58596" lon="6.425">
        <ele>271</ele>
        <time>2017-06-26T10:58:42Z</time>
      </trkpt>
      <trkpt lat="48.58597" lon="6.42501">
        <ele>271</ele>
        <time>2017-06-26T10:58:43Z</time>
      </trkpt>
      <trkpt lat="48.58602" lon="6.42506">
        <ele>271</ele>
        <time>2017-06-26T10:58:44Z</time>
      </trkpt>
      <trkpt lat="48.58603" lon="6.42507">
        <ele>272</ele>
        <time>2017-06-26T10:58:45Z</time>
      </trkpt>
      <trkpt lat="48.58604" lon="6.42508">
        <ele>272</ele>
        <time>2017-06-26T10:58:46Z</time>
      </trkpt>
      <trkpt lat="48.58605" lon="6.4251">
        <ele>272</ele>
        <time>2017-06-26T10:58:47Z</time>
      </trkpt>
      <trkpt lat="48.58606" lon="6.42511">
        <ele>272</ele>
        <time>2017-06-26T10:58:48Z</time>
      </trkpt>
      <trkpt lat="48.58611" lon="6.42516">
        <ele>272</ele>
        <time>2017-06-26T10:58:49Z</time>
      </trkpt>
      <trkpt lat="48.58612" lon="6.42518">
        <ele>272</ele>
        <time>2017-06-26T10:58:50Z</time>
      </trkpt>
      <trkpt lat="48.58614" lon="6.4252">
        <ele>272</ele>
        <time>2017-06-26T10:58:51Z</time>
      </trkpt>
      <trkpt lat="48.58616" lon="6.42521">
        <ele>272</ele>
        <time>2017-06-26T10:58:52Z</time>
      </trkpt>
      <trkpt lat="48.58617" lon="6.42523">
        <ele>272</ele>
        <time>2017-06-26T10:58:53Z</time>
      </trkpt>
      <trkpt lat="48.58619" lon="6.42525">
        <ele>272</ele>
        <time>2017-06-26T10:58:54Z</time>
      </trkpt>
      <trkpt lat="48.5862" lon="6.42526">
        <ele>272</ele>
        <time>2017-06-26T10:58:55Z</time>
      </trkpt>
      <trkpt lat="48.58622" lon="6.42528">
        <ele>272</ele>
        <time>2017-06-26T10:58:56Z</time>
      </trkpt>
      <trkpt lat="48.58623" lon="6.42529">
        <ele>272</ele>
        <time>2017-06-26T10:58:57Z</time>
      </trkpt>
      <trkpt lat="48.58624" lon="6.42531">
        <ele>272</ele>
        <time>2017-06-26T10:58:58Z</time>
      </trkpt>
      <trkpt lat="48.58626" lon="6.42532">
        <ele>272</ele>
        <time>2017-06-26T10:58:59Z</time>
      </trkpt>
      <trkpt lat="48.58627" lon="6.42534">
        <ele>272</ele>
        <time>2017-06-26T10:59:00Z</time>
      </trkpt>
      <trkpt lat="48.58628" lon="6.42534">
        <ele>272</ele>
        <time>2017-06-26T10:59:01Z</time>
      </trkpt>
      <trkpt lat="48.58629" lon="6.42535">
        <ele>272</ele>
        <time>2017-06-26T10:59:02Z</time>
      </trkpt>
      <trkpt lat="48.5863" lon="6.42536">
        <ele>272</ele>
        <time>2017-06-26T10:59:03Z</time>
      </trkpt>
      <trkpt lat="48.5863" lon="6.42537">
        <ele>272</ele>
        <time>2017-06-26T10:59:04Z</time>
      </trkpt>
      <trkpt lat="48.58631" lon="6.42538">
        <ele>273</ele>
        <time>2017-06-26T10:59:05Z</time>
      </trkpt>
      <trkpt lat="48.58635" lon="6.42543">
        <ele>273</ele>
        <time>2017-06-26T10:59:06Z</time>
      </trkpt>
      <trkpt lat="48.58636" lon="6.42543">
        <ele>273</ele>
        <time>2017-06-26T10:59:07Z</time>
      </trkpt>
      <trkpt lat="48.58637" lon="6.42544">
        <ele>273</ele>
        <time>2017-06-26T10:59:08Z</time>
      </trkpt>
      <trkpt lat="48.58638" lon="6.42545">
        <ele>273</ele>
        <time>2017-06-26T10:59:09Z</time>
      </trkpt>
      <trkpt lat="48.58639" lon="6.42546">
        <ele>273</ele>
        <time>2017-06-26T10:59:10Z</time>
      </trkpt>
      <trkpt lat="48.5864" lon="6.42547">
        <ele>273</ele>
        <time>2017-06-26T10:59:11Z</time>
      </trkpt>
      <trkpt lat="48.58644" lon="6.42552">
        <ele>273</ele>
        <time>2017-06-26T10:59:12Z</time>
      </trkpt>
      <trkpt lat="48.58646" lon="6.42553">
        <ele>273</ele>
        <time>2017-06-26T10:59:13Z</time>
      </trkpt>
      <trkpt lat="48.58647" lon="6.42554">
        <ele>273</ele>
        <time>2017-06-26T10:59:14Z</time>
      </trkpt>
      <trkpt lat="48.58648" lon="6.42555">
        <ele>274</ele>
        <time>2017-06-26T10:59:15Z</time>
      </trkpt>
      <trkpt lat="48.58649" lon="6.42557">
        <ele>274</ele>
        <time>2017-06-26T10:59:16Z</time>
      </trkpt>
      <trkpt lat="48.58653" lon="6.42561">
        <ele>274</ele>
        <time>2017-06-26T10:59:17Z</time>
      </trkpt>
      <trkpt lat="48.58654" lon="6.42562">
        <ele>274</ele>
        <time>2017-06-26T10:59:18Z</time>
      </trkpt>
      <trkpt lat="48.58655" lon="6.42564">
        <ele>274</ele>
        <time>2017-06-26T10:59:19Z</time>
      </trkpt>
      <trkpt lat="48.58656" lon="6.42565">
        <ele>274</ele>
        <time>2017-06-26T10:59:20Z</time>
      </trkpt>
      <trkpt lat="48.58657" lon="6.42566">
        <ele>274</ele>
        <time>2017-06-26T10:59:21Z</time>
      </trkpt>
      <trkpt lat="48.58662" lon="6.42571">
        <ele>274</ele>
        <time>2017-06-26T10:59:22Z</time>
      </trkpt>
      <trkpt lat="48.58663" lon="6.42572">
        <ele>274</ele>
        <time>2017-06-26T10:59:23Z</time>
      </trkpt>
      <trkpt lat="48.58664" lon="6.42574">
        <ele>274</ele>
        <time>2017-06-26T10:59:24Z</time>
      </trkpt>
      <trkpt lat="48.58666" lon="6.42576">
        <ele>275</ele>
        <time>2017-06-26T10:59:25Z</time>
      </trkpt>
      <trkpt lat="48.58667" lon="6.42577">
        <ele>275</ele>
        <time>2017-06-26T10:59:26Z</time>
      </trkpt>
      <trkpt lat="48.58668" lon="6.42579">
        <ele>275</ele>
        <time>2017-06-26T10:59:27Z</time>
      </trkpt>
      <trkpt lat="48.5867" lon="6.42581">
        <ele>275</ele>
        <time>2017-06-26T10:59:28Z</time>
      </trkpt>
      <trkpt lat="48.58671" lon="6.42582">
        <ele>275</ele>
        <time>2017-06-26T10:59:29Z</time>
      </trkpt>
      <trkpt lat="48.58671" lon="6.42583">
        <ele>275</ele>
        <time>2017-06-26T10:59:30Z</time>
      </trkpt>
      <trkpt lat="48.58672" lon="6.42584">
        <ele>275</ele>
        <time>2017-06-26T10:59:31Z</time>
      </trkpt>
      <trkpt lat="48.58673" lon="6.42585">
        <ele>275</ele>
        <time>2017-06-26T10:59:32Z</time>
      </trkpt>
      <trkpt lat="48.58674" lon="6.42586">
        <ele>275</ele>
        <time>2017-06-26T10:59:33Z</time>
      </trkpt>
      <trkpt lat="48.58678" lon="6.42592">
        <ele>275</ele>
        <time>2017-06-26T10:59:34Z</time>
      </trkpt>
      <trkpt lat="48.58679" lon="6.42593">
        <ele>277</ele>
        <time>2017-06-26T10:59:35Z</time>
      </trkpt>
      <trkpt lat="48.5868" lon="6.42594">
        <ele>277</ele>
        <time>2017-06-26T10:59:36Z</time>
      </trkpt>
      <trkpt lat="48.58682" lon="6.42596">
        <ele>277</ele>
        <time>2017-06-26T10:59:37Z</time>
      </trkpt>
      <trkpt lat="48.58683" lon="6.42597">
        <ele>277</ele>
        <time>2017-06-26T10:59:38Z</time>
      </trkpt>
      <trkpt lat="48.58688" lon="6.42602">
        <ele>277</ele>
        <time>2017-06-26T10:59:39Z</time>
      </trkpt>
      <trkpt lat="48.58689" lon="6.42604">
        <ele>277</ele>
        <time>2017-06-26T10:59:40Z</time>
      </trkpt>
      <trkpt lat="48.5869" lon="6.42605">
        <ele>277</ele>
        <time>2017-06-26T10:59:41Z</time>
      </trkpt>
      <trkpt lat="48.58691" lon="6.42606">
        <ele>277</ele>
        <time>2017-06-26T10:59:42Z</time>
      </trkpt>
      <trkpt lat="48.58693" lon="6.42607">
        <ele>277</ele>
        <time>2017-06-26T10:59:43Z</time>
      </trkpt>
      <trkpt lat="48.58697" lon="6.42612">
        <ele>277</ele>
        <time>2017-06-26T10:59:44Z</time>
      </trkpt>
      <trkpt lat="48.58699" lon="6.42614">
        <ele>277</ele>
        <time>2017-06-26T10:59:45Z</time>
      </trkpt>
      <trkpt lat="48.587" lon="6.42615">
        <ele>277</ele>
        <time>2017-06-26T10:59:46Z</time>
      </trkpt>
      <trkpt lat="48.58701" lon="6.42616">
        <ele>277</ele>
        <time>2017-06-26T10:59:47Z</time>
      </trkpt>
      <trkpt lat="48.58702" lon="6.42618">
        <ele>277</ele>
        <time>2017-06-26T10:59:48Z</time>
      </trkpt>
      <trkpt lat="48.58707" lon="6.42623">
        <ele>277</ele>
        <time>2017-06-26T10:59:49Z</time>
      </trkpt>
      <trkpt lat="48.58709" lon="6.42624">
        <ele>277</ele>
        <time>2017-06-26T10:59:50Z</time>
      </trkpt>
      <trkpt lat="48.5871" lon="6.42626">
        <ele>277</ele>
        <time>2017-06-26T10:59:51Z</time>
      </trkpt>
      <trkpt lat="48.58711" lon="6.42627">
        <ele>277</ele>
        <time>2017-06-26T10:59:52Z</time>
      </trkpt>
      <trkpt lat="48.58712" lon="6.42628">
        <ele>277</ele>
        <time>2017-06-26T10:59:53Z</time>
      </trkpt>
      <trkpt lat="48.58717" lon="6.42633">
        <ele>277</ele>
        <time>2017-06-26T10:59:54Z</time>
      </trkpt>
      <trkpt lat="48.58719" lon="6.42635">
        <ele>277</ele>
        <time>2017-06-26T10:59:55Z</time>
      </trkpt>
      <trkpt lat="48.5872" lon="6.42636">
        <ele>277</ele>
        <time>2017-06-26T10:59:56Z</time>
      </trkpt>
      <trkpt lat="48.58722" lon="6.42638">
        <ele>277</ele>
        <time>2017-06-26T10:59:57Z</time>
      </trkpt>
      <trkpt lat="48.58727" lon="6.42643">
        <ele>277</ele>
        <time>2017-06-26T10:59:58Z</time>
      </trkpt>
      <trkpt lat="48.58729" lon="6.42645">
        <ele>277</ele>
        <time>2017-06-26T10:59:59Z</time>
      </trkpt>
      <trkpt lat="48.58732" lon="6.42647">
        <ele>277</ele>
        <time>2017-06-26T11:00:00Z</time>
      </trkpt>
      <trkpt lat="48.58734" lon="6.42649">
        <ele>277</ele>
        <time>2017-06-26T11:00:01Z</time>
      </trkpt>
      <trkpt lat="48.58736" lon="6.42651">
        <ele>277</ele>
        <time>2017-06-26T11:00:02Z</time>
      </trkpt>
      <trkpt lat="48.58738" lon="6.42652">
        <ele>277</ele>
        <time>2017-06-26T11:00:03Z</time>
      </trkpt>
      <trkpt lat="48.58739" lon="6.42654">
        <ele>277</ele>
        <time>2017-06-26T11:00:04Z</time>
      </trkpt>
      <trkpt lat="48.5874" lon="6.42655">
        <ele>278</ele>
        <time>2017-06-26T11:00:05Z</time>
      </trkpt>
      <trkpt lat="48.58745" lon="6.42659">
        <ele>278</ele>
        <time>2017-06-26T11:00:06Z</time>
      </trkpt>
      <trkpt lat="48.58746" lon="6.42661">
        <ele>278</ele>
        <time>2017-06-26T11:00:07Z</time>
      </trkpt>
      <trkpt lat="48.58747" lon="6.42662">
        <ele>278</ele>
        <time>2017-06-26T11:00:08Z</time>
      </trkpt>
      <trkpt lat="48.58748" lon="6.42663">
        <ele>278</ele>
        <time>2017-06-26T11:00:09Z</time>
      </trkpt>
      <trkpt lat="48.5875" lon="6.42664">
        <ele>278</ele>
        <time>2017-06-26T11:00:10Z</time>
      </trkpt>
      <trkpt lat="48.58755" lon="6.4267">
        <ele>278</ele>
        <time>2017-06-26T11:00:11Z</time>
      </trkpt>
      <trkpt lat="48.58757" lon="6.42672">
        <ele>278</ele>
        <time>2017-06-26T11:00:12Z</time>
      </trkpt>
      <trkpt lat="48.58759" lon="6.42674">
        <ele>278</ele>
        <time>2017-06-26T11:00:13Z</time>
      </trkpt>
      <trkpt lat="48.58761" lon="6.42676">
        <ele>278</ele>
        <time>2017-06-26T11:00:14Z</time>
      </trkpt>
      <trkpt lat="48.58763" lon="6.42678">
        <ele>277</ele>
        <time>2017-06-26T11:00:15Z</time>
      </trkpt>
      <trkpt lat="48.58764" lon="6.4268">
        <ele>277</ele>
        <time>2017-06-26T11:00:16Z</time>
      </trkpt>
      <trkpt lat="48.58765" lon="6.42681">
        <ele>277</ele>
        <time>2017-06-26T11:00:17Z</time>
      </trkpt>
      <trkpt lat="48.58766" lon="6.42682">
        <ele>277</ele>
        <time>2017-06-26T11:00:18Z</time>
      </trkpt>
      <trkpt lat="48.58767" lon="6.42683">
        <ele>277</ele>
        <time>2017-06-26T11:00:19Z</time>
      </trkpt>
      <trkpt lat="48.58771" lon="6.42689">
        <ele>277</ele>
        <time>2017-06-26T11:00:20Z</time>
      </trkpt>
      <trkpt lat="48.58772" lon="6.4269">
        <ele>277</ele>
        <time>2017-06-26T11:00:21Z</time>
      </trkpt>
      <trkpt lat="48.58772" lon="6.42691">
        <ele>277</ele>
        <time>2017-06-26T11:00:22Z</time>
      </trkpt>
      <trkpt lat="48.58773" lon="6.42692">
        <ele>277</ele>
        <time>2017-06-26T11:00:23Z</time>
      </trkpt>
      <trkpt lat="48.58774" lon="6.42693">
        <ele>277</ele>
        <time>2017-06-26T11:00:24Z</time>
      </trkpt>
      <trkpt lat="48.58775" lon="6.42694">
        <ele>278</ele>
        <time>2017-06-26T11:00:25Z</time>
      </trkpt>
      <trkpt lat="48.58779" lon="6.427">
        <ele>278</ele>
        <time>2017-06-26T11:00:26Z</time>
      </trkpt>
      <trkpt lat="48.58781" lon="6.42702">
        <ele>278</ele>
        <time>2017-06-26T11:00:27Z</time>
      </trkpt>
      <trkpt lat="48.58783" lon="6.42704">
        <ele>278</ele>
        <time>2017-06-26T11:00:28Z</time>
      </trkpt>
      <trkpt lat="48.58784" lon="6.42706">
        <ele>278</ele>
        <time>2017-06-26T11:00:29Z</time>
      </trkpt>
      <trkpt lat="48.58786" lon="6.42708">
        <ele>278</ele>
        <time>2017-06-26T11:00:30Z</time>
      </trkpt>
      <trkpt lat="48.58788" lon="6.42709">
        <ele>278</ele>
        <time>2017-06-26T11:00:31Z</time>
      </trkpt>
      <trkpt lat="48.58788" lon="6.42711">
        <ele>278</ele>
        <time>2017-06-26T11:00:32Z</time>
      </trkpt>
      <trkpt lat="48.58789" lon="6.42712">
        <ele>278</ele>
        <time>2017-06-26T11:00:33Z</time>
      </trkpt>
      <trkpt lat="48.5879" lon="6.42713">
        <ele>278</ele>
        <time>2017-06-26T11:00:34Z</time>
      </trkpt>
      <trkpt lat="48.58791" lon="6.42714">
        <ele>278</ele>
        <time>2017-06-26T11:00:35Z</time>
      </trkpt>
      <trkpt lat="48.58792" lon="6.42715">
        <ele>278</ele>
        <time>2017-06-26T11:00:36Z</time>
      </trkpt>
      <trkpt lat="48.58795" lon="6.4272">
        <ele>278</ele>
        <time>2017-06-26T11:00:37Z</time>
      </trkpt>
      <trkpt lat="48.58796" lon="6.42721">
        <ele>278</ele>
        <time>2017-06-26T11:00:38Z</time>
      </trkpt>
      <trkpt lat="48.58797" lon="6.42722">
        <ele>278</ele>
        <time>2017-06-26T11:00:39Z</time>
      </trkpt>
      <trkpt lat="48.58798" lon="6.42723">
        <ele>278</ele>
        <time>2017-06-26T11:00:40Z</time>
      </trkpt>
      <trkpt lat="48.58799" lon="6.42724">
        <ele>278</ele>
        <time>2017-06-26T11:00:41Z</time>
      </trkpt>
      <trkpt lat="48.588" lon="6.42725">
        <ele>278</ele>
        <time>2017-06-26T11:00:42Z</time>
      </trkpt>
      <trkpt lat="48.58804" lon="6.4273">
        <ele>278</ele>
        <time>2017-06-26T11:00:43Z</time>
      </trkpt>
      <trkpt lat="48.58805" lon="6.42731">
        <ele>278</ele>
        <time>2017-06-26T11:00:44Z</time>
      </trkpt>
      <trkpt lat="48.58806" lon="6.42733">
        <ele>279</ele>
        <time>2017-06-26T11:00:45Z</time>
      </trkpt>
      <trkpt lat="48.58808" lon="6.42734">
        <ele>279</ele>
        <time>2017-06-26T11:00:46Z</time>
      </trkpt>
      <trkpt lat="48.58809" lon="6.42735">
        <ele>279</ele>
        <time>2017-06-26T11:00:47Z</time>
      </trkpt>
      <trkpt lat="48.58814" lon="6.4274">
        <ele>279</ele>
        <time>2017-06-26T11:00:48Z</time>
      </trkpt>
      <trkpt lat="48.58815" lon="6.42742">
        <ele>279</ele>
        <time>2017-06-26T11:00:49Z</time>
      </trkpt>
      <trkpt lat="48.58816" lon="6.42743">
        <ele>279</ele>
        <time>2017-06-26T11:00:50Z</time>
      </trkpt>
      <trkpt lat="48.58817" lon="6.42744">
        <ele>279</ele>
        <time>2017-06-26T11:00:51Z</time>
      </trkpt>
      <trkpt lat="48.58818" lon="6.42745">
        <ele>279</ele>
        <time>2017-06-26T11:00:52Z</time>
      </trkpt>
      <trkpt lat="48.58822" lon="6.42751">
        <ele>279</ele>
        <time>2017-06-26T11:00:53Z</time>
      </trkpt>
      <trkpt lat="48.58824" lon="6.42752">
        <ele>279</ele>
        <time>2017-06-26T11:00:54Z</time>
      </trkpt>
      <trkpt lat="48.58825" lon="6.42754">
        <ele>279</ele>
        <time>2017-06-26T11:00:55Z</time>
      </trkpt>
      <trkpt lat="48.58826" lon="6.42756">
        <ele>279</ele>
        <time>2017-06-26T11:00:56Z</time>
      </trkpt>
      <trkpt lat="48.58831" lon="6.42761">
        <ele>279</ele>
        <time>2017-06-26T11:00:57Z</time>
      </trkpt>
      <trkpt lat="48.58832" lon="6.42762">
        <ele>279</ele>
        <time>2017-06-26T11:00:58Z</time>
      </trkpt>
      <trkpt lat="48.58834" lon="6.42764">
        <ele>279</ele>
        <time>2017-06-26T11:00:59Z</time>
      </trkpt>
      <trkpt lat="48.58835" lon="6.42765">
        <ele>279</ele>
        <time>2017-06-26T11:01:00Z</time>
      </trkpt>
      <trkpt lat="48.5884" lon="6.4277">
        <ele>279</ele>
        <time>2017-06-26T11:01:01Z</time>
      </trkpt>
      <trkpt lat="48.58841" lon="6.42772">
        <ele>279</ele>
        <time>2017-06-26T11:01:02Z</time>
      </trkpt>
      <trkpt lat="48.58842" lon="6.42774">
        <ele>279</ele>
        <time>2017-06-26T11:01:03Z</time>
      </trkpt>
      <trkpt lat="48.58844" lon="6.42775">
        <ele>279</ele>
        <time>2017-06-26T11:01:04Z</time>
      </trkpt>
      <trkpt lat="48.58847" lon="6.42781">
        <ele>279</ele>
        <time>2017-06-26T11:01:05Z</time>
      </trkpt>
      <trkpt lat="48.58848" lon="6.42782">
        <ele>279</ele>
        <time>2017-06-26T11:01:06Z</time>
      </trkpt>
      <trkpt lat="48.5885" lon="6.42783">
        <ele>279</ele>
        <time>2017-06-26T11:01:07Z</time>
      </trkpt>
      <trkpt lat="48.58851" lon="6.42784">
        <ele>279</ele>
        <time>2017-06-26T11:01:08Z</time>
      </trkpt>
      <trkpt lat="48.58852" lon="6.42785">
        <ele>279</ele>
        <time>2017-06-26T11:01:09Z</time>
      </trkpt>
      <trkpt lat="48.58856" lon="6.4279">
        <ele>279</ele>
        <time>2017-06-26T11:01:10Z</time>
      </trkpt>
      <trkpt lat="48.58858" lon="6.42792">
        <ele>279</ele>
        <time>2017-06-26T11:01:11Z</time>
      </trkpt>
      <trkpt lat="48.58861" lon="6.42793">
        <ele>279</ele>
        <time>2017-06-26T11:01:12Z</time>
      </trkpt>
      <trkpt lat="48.58863" lon="6.42795">
        <ele>279</ele>
        <time>2017-06-26T11:01:13Z</time>
      </trkpt>
      <trkpt lat="48.58865" lon="6.42797">
        <ele>279</ele>
        <time>2017-06-26T11:01:14Z</time>
      </trkpt>
      <trkpt lat="48.58867" lon="6.42799">
        <ele>279</ele>
        <time>2017-06-26T11:01:15Z</time>
      </trkpt>
      <trkpt lat="48.58868" lon="6.428">
        <ele>279</ele>
        <time>2017-06-26T11:01:16Z</time>
      </trkpt>
      <trkpt lat="48.58869" lon="6.42802">
        <ele>279</ele>
        <time>2017-06-26T11:01:17Z</time>
      </trkpt>
      <trkpt lat="48.58874" lon="6.42807">
        <ele>279</ele>
        <time>2017-06-26T11:01:18Z</time>
      </trkpt>
      <trkpt lat="48.58875" lon="6.42808">
        <ele>279</ele>
        <time>2017-06-26T11:01:19Z</time>
      </trkpt>
      <trkpt lat="48.58876" lon="6.4281">
        <ele>279</ele>
        <time>2017-06-26T11:01:20Z</time>
      </trkpt>
      <trkpt lat="48.58878" lon="6.42811">
        <ele>279</ele>
        <time>2017-06-26T11:01:21Z</time>
      </trkpt>
      <trkpt lat="48.58882" lon="6.42816">
        <ele>279</ele>
        <time>2017-06-26T11:01:22Z</time>
      </trkpt>
      <trkpt lat="48.58884" lon="6.42819">
        <ele>279</ele>
        <time>2017-06-26T11:01:23Z</time>
      </trkpt>
      <trkpt lat="48.58886" lon="6.42822">
        <ele>279</ele>
        <time>2017-06-26T11:01:24Z</time>
      </trkpt>
      <trkpt lat="48.58887" lon="6.42824">
        <ele>279</ele>
        <time>2017-06-26T11:01:25Z</time>
      </trkpt>
      <trkpt lat="48.58889" lon="6.42827">
        <ele>279</ele>
        <time>2017-06-26T11:01:26Z</time>
      </trkpt>
      <trkpt lat="48.58891" lon="6.42829">
        <ele>279</ele>
        <time>2017-06-26T11:01:27Z</time>
      </trkpt>
      <trkpt lat="48.58892" lon="6.42831">
        <ele>279</ele>
        <time>2017-06-26T11:01:28Z</time>
      </trkpt>
      <trkpt lat="48.58893" lon="6.42832">
        <ele>279</ele>
        <time>2017-06-26T11:01:29Z</time>
      </trkpt>
      <trkpt lat="48.58897" lon="6.42838">
        <ele>278</ele>
        <time>2017-06-26T11:01:30Z</time>
      </trkpt>
      <trkpt lat="48.58899" lon="6.4284">
        <ele>278</ele>
        <time>2017-06-26T11:01:31Z</time>
      </trkpt>
      <trkpt lat="48.589" lon="6.42842">
        <ele>278</ele>
        <time>2017-06-26T11:01:32Z</time>
      </trkpt>
      <trkpt lat="48.58901" lon="6.42844">
        <ele>278</ele>
        <time>2017-06-26T11:01:33Z</time>
      </trkpt>
      <trkpt lat="48.58904" lon="6.4285">
        <ele>278</ele>
        <time>2017-06-26T11:01:34Z</time>
      </trkpt>
      <trkpt lat="48.58905" lon="6.42853">
        <ele>280</ele>
        <time>2017-06-26T11:01:35Z</time>
      </trkpt>
      <trkpt lat="48.58906" lon="6.42855">
        <ele>280</ele>
        <time>2017-06-26T11:01:36Z</time>
      </trkpt>
      <trkpt lat="48.58907" lon="6.42857">
        <ele>280</ele>
        <time>2017-06-26T11:01:37Z</time>
      </trkpt>
      <trkpt lat="48.5891" lon="6.42864">
        <ele>280</ele>
        <time>2017-06-26T11:01:38Z</time>
      </trkpt>
      <trkpt lat="48.58911" lon="6.42867">
        <ele>280</ele>
        <time>2017-06-26T11:01:39Z</time>
      </trkpt>
      <trkpt lat="48.58912" lon="6.42871">
        <ele>280</ele>
        <time>2017-06-26T11:01:40Z</time>
      </trkpt>
      <trkpt lat="48.58913" lon="6.42874">
        <ele>280</ele>
        <time>2017-06-26T11:01:41Z</time>
      </trkpt>
      <trkpt lat="48.58914" lon="6.42878">
        <ele>280</ele>
        <time>2017-06-26T11:01:42Z</time>
      </trkpt>
      <trkpt lat="48.58914" lon="6.42879">
        <ele>280</ele>
        <time>2017-06-26T11:01:43Z</time>
      </trkpt>
      <trkpt lat="48.58914" lon="6.4288">
        <ele>280</ele>
        <time>2017-06-26T11:01:44Z</time>
      </trkpt>
      <trkpt lat="48.58914" lon="6.42882">
        <ele>280</ele>
        <time>2017-06-26T11:01:45Z</time>
      </trkpt>
      <trkpt lat="48.58914" lon="6.42883">
        <ele>280</ele>
        <time>2017-06-26T11:01:46Z</time>
      </trkpt>
      <trkpt lat="48.58914" lon="6.42884">
        <ele>280</ele>
        <time>2017-06-26T11:01:47Z</time>
      </trkpt>
      <trkpt lat="48.58913" lon="6.42886">
        <ele>280</ele>
        <time>2017-06-26T11:01:48Z</time>
      </trkpt>
      <trkpt lat="48.58913" lon="6.42887">
        <ele>280</ele>
        <time>2017-06-26T11:01:49Z</time>
      </trkpt>
      <trkpt lat="48.58913" lon="6.42888">
        <ele>280</ele>
        <time>2017-06-26T11:01:50Z</time>
      </trkpt>
      <trkpt lat="48.58913" lon="6.4289">
        <ele>280</ele>
        <time>2017-06-26T11:01:51Z</time>
      </trkpt>
      <trkpt lat="48.58912" lon="6.4289">
        <ele>280</ele>
        <time>2017-06-26T11:01:53Z</time>
      </trkpt>
      <trkpt lat="48.58912" lon="6.42891">
        <ele>280</ele>
        <time>2017-06-26T11:01:54Z</time>
      </trkpt>
      <trkpt lat="48.58911" lon="6.42891">
        <ele>280</ele>
        <time>2017-06-26T11:01:56Z</time>
      </trkpt>
      <trkpt lat="48.58911" lon="6.42892">
        <ele>280</ele>
        <time>2017-06-26T11:01:57Z</time>
      </trkpt>
      <trkpt lat="48.58911" lon="6.42893">
        <ele>280</ele>
        <time>2017-06-26T11:01:59Z</time>
      </trkpt>
      <trkpt lat="48.5891" lon="6.42893">
        <ele>280</ele>
        <time>2017-06-26T11:02:00Z</time>
      </trkpt>
      <trkpt lat="48.5891" lon="6.42894">
        <ele>280</ele>
        <time>2017-06-26T11:02:02Z</time>
      </trkpt>
      <trkpt lat="48.58909" lon="6.42894">
        <ele>280</ele>
        <time>2017-06-26T11:02:04Z</time>
      </trkpt>
      <trkpt lat="48.58909" lon="6.42895">
        <ele>281</ele>
        <time>2017-06-26T11:02:05Z</time>
      </trkpt>
      <trkpt lat="48.58908" lon="6.42895">
        <ele>281</ele>
        <time>2017-06-26T11:02:08Z</time>
      </trkpt>
      <trkpt lat="48.58907" lon="6.42895">
        <ele>280</ele>
        <time>2017-06-26T11:02:13Z</time>
      </trkpt>
      <trkpt lat="48.58906" lon="6.42895">
        <ele>280</ele>
        <time>2017-06-26T11:02:18Z</time>
      </trkpt>
      <trkpt lat="48.58905" lon="6.42895">
        <ele>280</ele>
        <time>2017-06-26T11:02:23Z</time>
      </trkpt>
      <trkpt lat="48.58904" lon="6.42895">
        <ele>279</ele>
        <time>2017-06-26T11:02:32Z</time>
      </trkpt>
      <trkpt lat="48.58904" lon="6.42896">
        <ele>279</ele>
        <time>2017-06-26T11:02:59Z</time>
      </trkpt>
      <trkpt lat="48.58904" lon="6.42896">
        <ele>279</ele>
        <time>2017-06-26T11:03:23Z</time>
      </trkpt>
      <trkpt lat="48.58903" lon="6.42896">
        <ele>277</ele>
        <time>2017-06-26T11:03:54Z</time>
      </trkpt>
      <trkpt lat="48.58903" lon="6.42897">
        <ele>277</ele>
        <time>2017-06-26T11:04:09Z</time>
      </trkpt>
      <trkpt lat="48.58903" lon="6.42897">
        <ele>278</ele>
        <time>2017-06-26T11:04:29Z</time>
      </trkpt>
      <trkpt lat="48.58902" lon="6.42897">
        <ele>276</ele>
        <time>2017-06-26T11:05:16Z</time>
      </trkpt>
      <trkpt lat="48.58902" lon="6.42898">
        <ele>276</ele>
        <time>2017-06-26T11:05:18Z</time>
      </trkpt>
      <trkpt lat="48.58902" lon="6.42898">
        <ele>275</ele>
        <time>2017-06-26T11:06:21Z</time>
      </trkpt>
      <trkpt lat="48.58902" lon="6.42899">
        <ele>275</ele>
        <time>2017-06-26T11:06:28Z</time>
      </trkpt>
      <trkpt lat="48.58901" lon="6.42899">
        <ele>274</ele>
        <time>2017-06-26T11:06:38Z</time>
      </trkpt>
      <trkpt lat="48.58901" lon="6.42898">
        <ele>274</ele>
        <time>2017-06-26T11:07:16Z</time>
      </trkpt>
      <trkpt lat="48.58902" lon="6.42898">
        <ele>274</ele>
        <time>2017-06-26T11:07:21Z</time>
      </trkpt>
      <trkpt lat="48.58902" lon="6.42897">
        <ele>273</ele>
        <time>2017-06-26T11:07:34Z</time>
      </trkpt>
      <trkpt lat="48.58902" lon="6.42896">
        <ele>273</ele>
        <time>2017-06-26T11:07:52Z</time>
      </trkpt>
      <trkpt lat="48.58903" lon="6.42896">
        <ele>274</ele>
        <time>2017-06-26T11:08:04Z</time>
      </trkpt>
      <trkpt lat="48.58903" lon="6.42895">
        <ele>272</ele>
        <time>2017-06-26T11:08:10Z</time>
      </trkpt>
      <trkpt lat="48.58903" lon="6.42894">
        <ele>272</ele>
        <time>2017-06-26T11:08:28Z</time>
      </trkpt>
      <trkpt lat="48.58904" lon="6.42893">
        <ele>272</ele>
        <time>2017-06-26T11:08:46Z</time>
      </trkpt>
      <trkpt lat="48.58904" lon="6.42894">
        <ele>272</ele>
        <time>2017-06-26T11:08:54Z</time>
      </trkpt>
      <trkpt lat="48.58903" lon="6.42894">
        <ele>272</ele>
        <time>2017-06-26T11:08:56Z</time>
      </trkpt>
      <trkpt lat="48.58903" lon="6.42895">
        <ele>272</ele>
        <time>2017-06-26T11:09:00Z</time>
      </trkpt>
      <trkpt lat="48.58903" lon="6.42896">
        <ele>272</ele>
        <time>2017-06-26T11:09:05Z</time>
      </trkpt>
      <trkpt lat="48.58903" lon="6.42897">
        <ele>271</ele>
        <time>2017-06-26T11:09:11Z</time>
      </trkpt>
      <trkpt lat="48.58903" lon="6.42898">
        <ele>271</ele>
        <time>2017-06-26T11:09:16Z</time>
      </trkpt>
      <trkpt lat="48.58902" lon="6.42898">
        <ele>271</ele>
        <time>2017-06-26T11:09:19Z</time>
      </trkpt>
      <trkpt lat="48.58902" lon="6.42899">
        <ele>271</ele>
        <time>2017-06-26T11:09:22Z</time>
      </trkpt>
      <trkpt lat="48.58902" lon="6.429">
        <ele>270</ele>
        <time>2017-06-26T11:09:27Z</time>
      </trkpt>
      <trkpt lat="48.58902" lon="6.42901">
        <ele>270</ele>
        <time>2017-06-26T11:09:33Z</time>
      </trkpt>
      <trkpt lat="48.58902" lon="6.42902">
        <ele>270</ele>
        <time>2017-06-26T11:09:37Z</time>
      </trkpt>
      <trkpt lat="48.58902" lon="6.42903">
        <ele>270</ele>
        <time>2017-06-26T11:09:41Z</time>
      </trkpt>
      <trkpt lat="48.58902" lon="6.42904">
        <ele>270</ele>
        <time>2017-06-26T11:09:45Z</time>
      </trkpt>
      <trkpt lat="48.58902" lon="6.42905">
        <ele>270</ele>
        <time>2017-06-26T11:09:49Z</time>
      </trkpt>
      <trkpt lat="48.58902" lon="6.42906">
        <ele>270</ele>
        <time>2017-06-26T11:09:53Z</time>
      </trkpt>
      <trkpt lat="48.58902" lon="6.42907">
        <ele>270</ele>
        <time>2017-06-26T11:09:56Z</time>
      </trkpt>
      <trkpt lat="48.58902" lon="6.42908">
        <ele>270</ele>
        <time>2017-06-26T11:10:00Z</time>
      </trkpt>
      <trkpt lat="48.58901" lon="6.42908">
        <ele>270</ele>
        <time>2017-06-26T11:10:02Z</time>
      </trkpt>
      <trkpt lat="48.58901" lon="6.42909">
        <ele>270</ele>
        <time>2017-06-26T11:10:04Z</time>
      </trkpt>
      <trkpt lat="48.58901" lon="6.4291">
        <ele>270</ele>
        <time>2017-06-26T11:10:08Z</time>
      </trkpt>
      <trkpt lat="48.58901" lon="6.42911">
        <ele>270</ele>
        <time>2017-06-26T11:10:12Z</time>
      </trkpt>
      <trkpt lat="48.58901" lon="6.42912">
        <ele>271</ele>
        <time>2017-06-26T11:10:16Z</time>
      </trkpt>
      <trkpt lat="48.58901" lon="6.42913">
        <ele>271</ele>
        <time>2017-06-26T11:10:19Z</time>
      </trkpt>
      <trkpt lat="48.58901" lon="6.42914">
        <ele>271</ele>
        <time>2017-06-26T11:10:23Z</time>
      </trkpt>
      <trkpt lat="48.58901" lon="6.42915">
        <ele>271</ele>
        <time>2017-06-26T11:10:27Z</time>
      </trkpt>
      <trkpt lat="48.58901" lon="6.42917">
        <ele>270</ele>
        <time>2017-06-26T11:10:29Z</time>
      </trkpt>
      <trkpt lat="48.58901" lon="6.42919">
        <ele>270</ele>
        <time>2017-06-26T11:10:30Z</time>
      </trkpt>
      <trkpt lat="48.58901" lon="6.42921">
        <ele>270</ele>
        <time>2017-06-26T11:10:31Z</time>
      </trkpt>
      <trkpt lat="48.58901" lon="6.42923">
        <ele>270</ele>
        <time>2017-06-26T11:10:32Z</time>
      </trkpt>
      <trkpt lat="48.589" lon="6.42932">
        <ele>270</ele>
        <time>2017-06-26T11:10:33Z</time>
      </trkpt>
      <trkpt lat="48.58899" lon="6.42935">
        <ele>270</ele>
        <time>2017-06-26T11:10:34Z</time>
      </trkpt>
      <trkpt lat="48.58898" lon="6.42939">
        <ele>269</ele>
        <time>2017-06-26T11:10:35Z</time>
      </trkpt>
      <trkpt lat="48.58898" lon="6.42942">
        <ele>269</ele>
        <time>2017-06-26T11:10:36Z</time>
      </trkpt>
      <trkpt lat="48.58897" lon="6.42946">
        <ele>269</ele>
        <time>2017-06-26T11:10:37Z</time>
      </trkpt>
      <trkpt lat="48.58896" lon="6.4295">
        <ele>269</ele>
        <time>2017-06-26T11:10:38Z</time>
      </trkpt>
      <trkpt lat="48.58895" lon="6.42954">
        <ele>269</ele>
        <time>2017-06-26T11:10:39Z</time>
      </trkpt>
      <trkpt lat="48.58894" lon="6.42958">
        <ele>269</ele>
        <time>2017-06-26T11:10:40Z</time>
      </trkpt>
      <trkpt lat="48.58893" lon="6.4296">
        <ele>269</ele>
        <time>2017-06-26T11:10:41Z</time>
      </trkpt>
      <trkpt lat="48.58892" lon="6.42962">
        <ele>269</ele>
        <time>2017-06-26T11:10:42Z</time>
      </trkpt>
      <trkpt lat="48.58892" lon="6.42965">
        <ele>269</ele>
        <time>2017-06-26T11:10:43Z</time>
      </trkpt>
      <trkpt lat="48.5889" lon="6.42972">
        <ele>269</ele>
        <time>2017-06-26T11:10:44Z</time>
      </trkpt>
      <trkpt lat="48.58888" lon="6.42976">
        <ele>266</ele>
        <time>2017-06-26T11:10:45Z</time>
      </trkpt>
      <trkpt lat="48.58887" lon="6.4298">
        <ele>266</ele>
        <time>2017-06-26T11:10:46Z</time>
      </trkpt>
      <trkpt lat="48.58885" lon="6.42984">
        <ele>266</ele>
        <time>2017-06-26T11:10:47Z</time>
      </trkpt>
      <trkpt lat="48.58884" lon="6.42987">
        <ele>266</ele>
        <time>2017-06-26T11:10:48Z</time>
      </trkpt>
      <trkpt lat="48.58883" lon="6.42991">
        <ele>266</ele>
        <time>2017-06-26T11:10:49Z</time>
      </trkpt>
      <trkpt lat="48.58881" lon="6.42994">
        <ele>265</ele>
        <time>2017-06-26T11:10:50Z</time>
      </trkpt>
      <trkpt lat="48.5888" lon="6.42998">
        <ele>265</ele>
        <time>2017-06-26T11:10:51Z</time>
      </trkpt>
      <trkpt lat="48.58879" lon="6.43001">
        <ele>265</ele>
        <time>2017-06-26T11:10:52Z</time>
      </trkpt>
      <trkpt lat="48.58878" lon="6.43005">
        <ele>265</ele>
        <time>2017-06-26T11:10:53Z</time>
      </trkpt>
      <trkpt lat="48.58877" lon="6.43008">
        <ele>265</ele>
        <time>2017-06-26T11:10:54Z</time>
      </trkpt>
      <trkpt lat="48.58876" lon="6.43012">
        <ele>265</ele>
        <time>2017-06-26T11:10:55Z</time>
      </trkpt>
      <trkpt lat="48.58875" lon="6.43016">
        <ele>265</ele>
        <time>2017-06-26T11:10:56Z</time>
      </trkpt>
      <trkpt lat="48.58874" lon="6.4302">
        <ele>265</ele>
        <time>2017-06-26T11:10:57Z</time>
      </trkpt>
      <trkpt lat="48.58874" lon="6.43022">
        <ele>265</ele>
        <time>2017-06-26T11:10:58Z</time>
      </trkpt>
      <trkpt lat="48.58873" lon="6.43024">
        <ele>265</ele>
        <time>2017-06-26T11:10:59Z</time>
      </trkpt>
      <trkpt lat="48.58872" lon="6.43027">
        <ele>265</ele>
        <time>2017-06-26T11:11:00Z</time>
      </trkpt>
      <trkpt lat="48.58871" lon="6.43034">
        <ele>265</ele>
        <time>2017-06-26T11:11:01Z</time>
      </trkpt>
      <trkpt lat="48.5887" lon="6.43037">
        <ele>265</ele>
        <time>2017-06-26T11:11:02Z</time>
      </trkpt>
      <trkpt lat="48.58869" lon="6.43041">
        <ele>265</ele>
        <time>2017-06-26T11:11:03Z</time>
      </trkpt>
      <trkpt lat="48.58868" lon="6.43044">
        <ele>265</ele>
        <time>2017-06-26T11:11:04Z</time>
      </trkpt>
      <trkpt lat="48.58867" lon="6.43047">
        <ele>264</ele>
        <time>2017-06-26T11:11:05Z</time>
      </trkpt>
      <trkpt lat="48.58867" lon="6.4305">
        <ele>264</ele>
        <time>2017-06-26T11:11:06Z</time>
      </trkpt>
      <trkpt lat="48.58866" lon="6.43054">
        <ele>264</ele>
        <time>2017-06-26T11:11:07Z</time>
      </trkpt>
      <trkpt lat="48.58865" lon="6.43057">
        <ele>264</ele>
        <time>2017-06-26T11:11:08Z</time>
      </trkpt>
      <trkpt lat="48.58864" lon="6.4306">
        <ele>264</ele>
        <time>2017-06-26T11:11:09Z</time>
      </trkpt>
      <trkpt lat="48.58864" lon="6.43063">
        <ele>264</ele>
        <time>2017-06-26T11:11:10Z</time>
      </trkpt>
      <trkpt lat="48.58863" lon="6.43065">
        <ele>264</ele>
        <time>2017-06-26T11:11:11Z</time>
      </trkpt>
      <trkpt lat="48.58863" lon="6.43068">
        <ele>264</ele>
        <time>2017-06-26T11:11:12Z</time>
      </trkpt>
      <trkpt lat="48.58861" lon="6.43075">
        <ele>264</ele>
        <time>2017-06-26T11:11:13Z</time>
      </trkpt>
      <trkpt lat="48.5886" lon="6.43079">
        <ele>264</ele>
        <time>2017-06-26T11:11:14Z</time>
      </trkpt>
      <trkpt lat="48.58859" lon="6.43082">
        <ele>263</ele>
        <time>2017-06-26T11:11:15Z</time>
      </trkpt>
      <trkpt lat="48.58858" lon="6.43086">
        <ele>263</ele>
        <time>2017-06-26T11:11:16Z</time>
      </trkpt>
      <trkpt lat="48.58857" lon="6.4309">
        <ele>263</ele>
        <time>2017-06-26T11:11:17Z</time>
      </trkpt>
      <trkpt lat="48.58857" lon="6.43092">
        <ele>263</ele>
        <time>2017-06-26T11:11:18Z</time>
      </trkpt>
      <trkpt lat="48.58856" lon="6.43094">
        <ele>263</ele>
        <time>2017-06-26T11:11:19Z</time>
      </trkpt>
      <trkpt lat="48.58855" lon="6.43096">
        <ele>263</ele>
        <time>2017-06-26T11:11:20Z</time>
      </trkpt>
      <trkpt lat="48.58855" lon="6.43098">
        <ele>263</ele>
        <time>2017-06-26T11:11:21Z</time>
      </trkpt>
      <trkpt lat="48.58852" lon="6.43106">
        <ele>263</ele>
        <time>2017-06-26T11:11:22Z</time>
      </trkpt>
      <trkpt lat="48.58851" lon="6.43109">
        <ele>263</ele>
        <time>2017-06-26T11:11:23Z</time>
      </trkpt>
      <trkpt lat="48.5885" lon="6.43112">
        <ele>263</ele>
        <time>2017-06-26T11:11:24Z</time>
      </trkpt>
      <trkpt lat="48.58849" lon="6.43115">
        <ele>263</ele>
        <time>2017-06-26T11:11:25Z</time>
      </trkpt>
      <trkpt lat="48.58848" lon="6.43118">
        <ele>263</ele>
        <time>2017-06-26T11:11:26Z</time>
      </trkpt>
      <trkpt lat="48.58846" lon="6.43121">
        <ele>263</ele>
        <time>2017-06-26T11:11:27Z</time>
      </trkpt>
      <trkpt lat="48.58845" lon="6.43124">
        <ele>263</ele>
        <time>2017-06-26T11:11:28Z</time>
      </trkpt>
      <trkpt lat="48.58844" lon="6.43127">
        <ele>263</ele>
        <time>2017-06-26T11:11:29Z</time>
      </trkpt>
      <trkpt lat="48.58842" lon="6.4313">
        <ele>263</ele>
        <time>2017-06-26T11:11:30Z</time>
      </trkpt>
      <trkpt lat="48.58841" lon="6.43133">
        <ele>263</ele>
        <time>2017-06-26T11:11:31Z</time>
      </trkpt>
      <trkpt lat="48.5884" lon="6.43136">
        <ele>263</ele>
        <time>2017-06-26T11:11:32Z</time>
      </trkpt>
      <trkpt lat="48.58838" lon="6.43139">
        <ele>263</ele>
        <time>2017-06-26T11:11:33Z</time>
      </trkpt>
      <trkpt lat="48.58837" lon="6.43142">
        <ele>263</ele>
        <time>2017-06-26T11:11:34Z</time>
      </trkpt>
      <trkpt lat="48.58836" lon="6.43145">
        <ele>260</ele>
        <time>2017-06-26T11:11:35Z</time>
      </trkpt>
      <trkpt lat="48.58835" lon="6.43147">
        <ele>260</ele>
        <time>2017-06-26T11:11:36Z</time>
      </trkpt>
      <trkpt lat="48.58834" lon="6.4315">
        <ele>260</ele>
        <time>2017-06-26T11:11:37Z</time>
      </trkpt>
      <trkpt lat="48.58832" lon="6.43157">
        <ele>260</ele>
        <time>2017-06-26T11:11:38Z</time>
      </trkpt>
      <trkpt lat="48.58831" lon="6.43161">
        <ele>260</ele>
        <time>2017-06-26T11:11:39Z</time>
      </trkpt>
      <trkpt lat="48.5883" lon="6.43164">
        <ele>259</ele>
        <time>2017-06-26T11:11:40Z</time>
      </trkpt>
      <trkpt lat="48.58829" lon="6.43168">
        <ele>259</ele>
        <time>2017-06-26T11:11:41Z</time>
      </trkpt>
      <trkpt lat="48.58828" lon="6.43171">
        <ele>259</ele>
        <time>2017-06-26T11:11:42Z</time>
      </trkpt>
      <trkpt lat="48.58827" lon="6.43175">
        <ele>259</ele>
        <time>2017-06-26T11:11:43Z</time>
      </trkpt>
      <trkpt lat="48.58826" lon="6.43178">
        <ele>259</ele>
        <time>2017-06-26T11:11:44Z</time>
      </trkpt>
      <trkpt lat="48.58825" lon="6.43182">
        <ele>259</ele>
        <time>2017-06-26T11:11:45Z</time>
      </trkpt>
      <trkpt lat="48.58824" lon="6.43186">
        <ele>259</ele>
        <time>2017-06-26T11:11:46Z</time>
      </trkpt>
      <trkpt lat="48.58823" lon="6.43189">
        <ele>259</ele>
        <time>2017-06-26T11:11:47Z</time>
      </trkpt>
      <trkpt lat="48.58822" lon="6.43192">
        <ele>259</ele>
        <time>2017-06-26T11:11:48Z</time>
      </trkpt>
      <trkpt lat="48.58821" lon="6.43195">
        <ele>259</ele>
        <time>2017-06-26T11:11:49Z</time>
      </trkpt>
      <trkpt lat="48.5882" lon="6.43198">
        <ele>259</ele>
        <time>2017-06-26T11:11:50Z</time>
      </trkpt>
      <trkpt lat="48.58819" lon="6.432">
        <ele>259</ele>
        <time>2017-06-26T11:11:51Z</time>
      </trkpt>
      <trkpt lat="48.58819" lon="6.43202">
        <ele>259</ele>
        <time>2017-06-26T11:11:52Z</time>
      </trkpt>
      <trkpt lat="48.58818" lon="6.43204">
        <ele>259</ele>
        <time>2017-06-26T11:11:53Z</time>
      </trkpt>
      <trkpt lat="48.58818" lon="6.43206">
        <ele>259</ele>
        <time>2017-06-26T11:11:54Z</time>
      </trkpt>
      <trkpt lat="48.58816" lon="6.43214">
        <ele>258</ele>
        <time>2017-06-26T11:11:55Z</time>
      </trkpt>
      <trkpt lat="48.58815" lon="6.43216">
        <ele>258</ele>
        <time>2017-06-26T11:11:56Z</time>
      </trkpt>
      <trkpt lat="48.58815" lon="6.43218">
        <ele>258</ele>
        <time>2017-06-26T11:11:57Z</time>
      </trkpt>
      <trkpt lat="48.58814" lon="6.4322">
        <ele>258</ele>
        <time>2017-06-26T11:11:58Z</time>
      </trkpt>
      <trkpt lat="48.58814" lon="6.43222">
        <ele>258</ele>
        <time>2017-06-26T11:11:59Z</time>
      </trkpt>
      <trkpt lat="48.58812" lon="6.43231">
        <ele>258</ele>
        <time>2017-06-26T11:12:00Z</time>
      </trkpt>
      <trkpt lat="48.58811" lon="6.43233">
        <ele>258</ele>
        <time>2017-06-26T11:12:01Z</time>
      </trkpt>
      <trkpt lat="48.58811" lon="6.43235">
        <ele>258</ele>
        <time>2017-06-26T11:12:02Z</time>
      </trkpt>
      <trkpt lat="48.5881" lon="6.43236">
        <ele>258</ele>
        <time>2017-06-26T11:12:03Z</time>
      </trkpt>
      <trkpt lat="48.5881" lon="6.43238">
        <ele>258</ele>
        <time>2017-06-26T11:12:04Z</time>
      </trkpt>
      <trkpt lat="48.58808" lon="6.43246">
        <ele>257</ele>
        <time>2017-06-26T11:12:05Z</time>
      </trkpt>
      <trkpt lat="48.58807" lon="6.43248">
        <ele>257</ele>
        <time>2017-06-26T11:12:06Z</time>
      </trkpt>
      <trkpt lat="48.58807" lon="6.4325">
        <ele>257</ele>
        <time>2017-06-26T11:12:07Z</time>
      </trkpt>
      <trkpt lat="48.58806" lon="6.43252">
        <ele>257</ele>
        <time>2017-06-26T11:12:08Z</time>
      </trkpt>
      <trkpt lat="48.58806" lon="6.43254">
        <ele>257</ele>
        <time>2017-06-26T11:12:09Z</time>
      </trkpt>
      <trkpt lat="48.58804" lon="6.43261">
        <ele>257</ele>
        <time>2017-06-26T11:12:10Z</time>
      </trkpt>
      <trkpt lat="48.58803" lon="6.43264">
        <ele>257</ele>
        <time>2017-06-26T11:12:11Z</time>
      </trkpt>
      <trkpt lat="48.58803" lon="6.43267">
        <ele>257</ele>
        <time>2017-06-26T11:12:12Z</time>
      </trkpt>
      <trkpt lat="48.58802" lon="6.43271">
        <ele>257</ele>
        <time>2017-06-26T11:12:13Z</time>
      </trkpt>
      <trkpt lat="48.58802" lon="6.43274">
        <ele>257</ele>
        <time>2017-06-26T11:12:14Z</time>
      </trkpt>
      <trkpt lat="48.58802" lon="6.43277">
        <ele>258</ele>
        <time>2017-06-26T11:12:15Z</time>
      </trkpt>
      <trkpt lat="48.58801" lon="6.43279">
        <ele>258</ele>
        <time>2017-06-26T11:12:16Z</time>
      </trkpt>
      <trkpt lat="48.588" lon="6.43282">
        <ele>258</ele>
        <time>2017-06-26T11:12:17Z</time>
      </trkpt>
      <trkpt lat="48.58799" lon="6.43284">
        <ele>258</ele>
        <time>2017-06-26T11:12:18Z</time>
      </trkpt>
      <trkpt lat="48.58796" lon="6.43291">
        <ele>258</ele>
        <time>2017-06-26T11:12:19Z</time>
      </trkpt>
      <trkpt lat="48.58795" lon="6.43295">
        <ele>258</ele>
        <time>2017-06-26T11:12:20Z</time>
      </trkpt>
      <trkpt lat="48.58795" lon="6.43298">
        <ele>258</ele>
        <time>2017-06-26T11:12:21Z</time>
      </trkpt>
      <trkpt lat="48.58794" lon="6.43301">
        <ele>258</ele>
        <time>2017-06-26T11:12:22Z</time>
      </trkpt>
      <trkpt lat="48.58793" lon="6.43305">
        <ele>258</ele>
        <time>2017-06-26T11:12:23Z</time>
      </trkpt>
      <trkpt lat="48.58793" lon="6.43307">
        <ele>258</ele>
        <time>2017-06-26T11:12:24Z</time>
      </trkpt>
      <trkpt lat="48.58792" lon="6.43309">
        <ele>258</ele>
        <time>2017-06-26T11:12:25Z</time>
      </trkpt>
      <trkpt lat="48.58792" lon="6.43311">
        <ele>258</ele>
        <time>2017-06-26T11:12:26Z</time>
      </trkpt>
      <trkpt lat="48.58791" lon="6.43313">
        <ele>258</ele>
        <time>2017-06-26T11:12:27Z</time>
      </trkpt>
      <trkpt lat="48.58789" lon="6.43322">
        <ele>258</ele>
        <time>2017-06-26T11:12:28Z</time>
      </trkpt>
      <trkpt lat="48.58788" lon="6.43325">
        <ele>258</ele>
        <time>2017-06-26T11:12:29Z</time>
      </trkpt>
      <trkpt lat="48.58788" lon="6.43327">
        <ele>258</ele>
        <time>2017-06-26T11:12:30Z</time>
      </trkpt>
      <trkpt lat="48.58787" lon="6.4333">
        <ele>258</ele>
        <time>2017-06-26T11:12:31Z</time>
      </trkpt>
      <trkpt lat="48.58786" lon="6.43333">
        <ele>258</ele>
        <time>2017-06-26T11:12:32Z</time>
      </trkpt>
      <trkpt lat="48.58786" lon="6.43336">
        <ele>258</ele>
        <time>2017-06-26T11:12:33Z</time>
      </trkpt>
      <trkpt lat="48.58785" lon="6.43338">
        <ele>258</ele>
        <time>2017-06-26T11:12:34Z</time>
      </trkpt>
      <trkpt lat="48.58785" lon="6.4334">
        <ele>258</ele>
        <time>2017-06-26T11:12:35Z</time>
      </trkpt>
      <trkpt lat="48.58784" lon="6.43342">
        <ele>258</ele>
        <time>2017-06-26T11:12:36Z</time>
      </trkpt>
      <trkpt lat="48.58784" lon="6.43344">
        <ele>258</ele>
        <time>2017-06-26T11:12:37Z</time>
      </trkpt>
      <trkpt lat="48.58782" lon="6.43352">
        <ele>258</ele>
        <time>2017-06-26T11:12:38Z</time>
      </trkpt>
      <trkpt lat="48.58781" lon="6.43356">
        <ele>258</ele>
        <time>2017-06-26T11:12:39Z</time>
      </trkpt>
      <trkpt lat="48.5878" lon="6.43359">
        <ele>258</ele>
        <time>2017-06-26T11:12:40Z</time>
      </trkpt>
      <trkpt lat="48.58779" lon="6.43363">
        <ele>258</ele>
        <time>2017-06-26T11:12:41Z</time>
      </trkpt>
      <trkpt lat="48.58778" lon="6.43366">
        <ele>258</ele>
        <time>2017-06-26T11:12:42Z</time>
      </trkpt>
      <trkpt lat="48.58778" lon="6.43369">
        <ele>258</ele>
        <time>2017-06-26T11:12:43Z</time>
      </trkpt>
      <trkpt lat="48.58777" lon="6.43372">
        <ele>258</ele>
        <time>2017-06-26T11:12:44Z</time>
      </trkpt>
      <trkpt lat="48.58777" lon="6.43375">
        <ele>258</ele>
        <time>2017-06-26T11:12:45Z</time>
      </trkpt>
      <trkpt lat="48.58776" lon="6.43383">
        <ele>258</ele>
        <time>2017-06-26T11:12:46Z</time>
      </trkpt>
      <trkpt lat="48.58775" lon="6.43385">
        <ele>258</ele>
        <time>2017-06-26T11:12:47Z</time>
      </trkpt>
      <trkpt lat="48.58774" lon="6.43387">
        <ele>258</ele>
        <time>2017-06-26T11:12:48Z</time>
      </trkpt>
      <trkpt lat="48.58773" lon="6.43389">
        <ele>258</ele>
        <time>2017-06-26T11:12:49Z</time>
      </trkpt>
      <trkpt lat="48.5877" lon="6.43396">
        <ele>258</ele>
        <time>2017-06-26T11:12:50Z</time>
      </trkpt>
      <trkpt lat="48.5877" lon="6.43398">
        <ele>258</ele>
        <time>2017-06-26T11:12:51Z</time>
      </trkpt>
      <trkpt lat="48.58769" lon="6.434">
        <ele>258</ele>
        <time>2017-06-26T11:12:52Z</time>
      </trkpt>
      <trkpt lat="48.58769" lon="6.43402">
        <ele>258</ele>
        <time>2017-06-26T11:12:53Z</time>
      </trkpt>
      <trkpt lat="48.58768" lon="6.43404">
        <ele>258</ele>
        <time>2017-06-26T11:12:54Z</time>
      </trkpt>
      <trkpt lat="48.58767" lon="6.43411">
        <ele>258</ele>
        <time>2017-06-26T11:12:55Z</time>
      </trkpt>
      <trkpt lat="48.58766" lon="6.43415">
        <ele>258</ele>
        <time>2017-06-26T11:12:56Z</time>
      </trkpt>
      <trkpt lat="48.58766" lon="6.43419">
        <ele>258</ele>
        <time>2017-06-26T11:12:57Z</time>
      </trkpt>
      <trkpt lat="48.58766" lon="6.43423">
        <ele>258</ele>
        <time>2017-06-26T11:12:58Z</time>
      </trkpt>
      <trkpt lat="48.58765" lon="6.43426">
        <ele>258</ele>
        <time>2017-06-26T11:12:59Z</time>
      </trkpt>
      <trkpt lat="48.58765" lon="6.4343">
        <ele>258</ele>
        <time>2017-06-26T11:13:00Z</time>
      </trkpt>
      <trkpt lat="48.58764" lon="6.43434">
        <ele>258</ele>
        <time>2017-06-26T11:13:01Z</time>
      </trkpt>
      <trkpt lat="48.58764" lon="6.43437">
        <ele>258</ele>
        <time>2017-06-26T11:13:02Z</time>
      </trkpt>
      <trkpt lat="48.58763" lon="6.43441">
        <ele>258</ele>
        <time>2017-06-26T11:13:03Z</time>
      </trkpt>
      <trkpt lat="48.58763" lon="6.43444">
        <ele>258</ele>
        <time>2017-06-26T11:13:04Z</time>
      </trkpt>
      <trkpt lat="48.58762" lon="6.43448">
        <ele>257</ele>
        <time>2017-06-26T11:13:05Z</time>
      </trkpt>
      <trkpt lat="48.58761" lon="6.43451">
        <ele>257</ele>
        <time>2017-06-26T11:13:06Z</time>
      </trkpt>
      <trkpt lat="48.5876" lon="6.43454">
        <ele>257</ele>
        <time>2017-06-26T11:13:07Z</time>
      </trkpt>
      <trkpt lat="48.58759" lon="6.43457">
        <ele>257</ele>
        <time>2017-06-26T11:13:08Z</time>
      </trkpt>
      <trkpt lat="48.58759" lon="6.43459">
        <ele>257</ele>
        <time>2017-06-26T11:13:09Z</time>
      </trkpt>
      <trkpt lat="48.58758" lon="6.43461">
        <ele>257</ele>
        <time>2017-06-26T11:13:10Z</time>
      </trkpt>
      <trkpt lat="48.58757" lon="6.43463">
        <ele>257</ele>
        <time>2017-06-26T11:13:11Z</time>
      </trkpt>
      <trkpt lat="48.58754" lon="6.43471">
        <ele>257</ele>
        <time>2017-06-26T11:13:12Z</time>
      </trkpt>
      <trkpt lat="48.58754" lon="6.43474">
        <ele>257</ele>
        <time>2017-06-26T11:13:13Z</time>
      </trkpt>
      <trkpt lat="48.58753" lon="6.43476">
        <ele>257</ele>
        <time>2017-06-26T11:13:14Z</time>
      </trkpt>
      <trkpt lat="48.58752" lon="6.43479">
        <ele>257</ele>
        <time>2017-06-26T11:13:15Z</time>
      </trkpt>
      <trkpt lat="48.5875" lon="6.43486">
        <ele>257</ele>
        <time>2017-06-26T11:13:16Z</time>
      </trkpt>
      <trkpt lat="48.58749" lon="6.4349">
        <ele>257</ele>
        <time>2017-06-26T11:13:17Z</time>
      </trkpt>
      <trkpt lat="48.58748" lon="6.43494">
        <ele>257</ele>
        <time>2017-06-26T11:13:18Z</time>
      </trkpt>
      <trkpt lat="48.58747" lon="6.43497">
        <ele>257</ele>
        <time>2017-06-26T11:13:19Z</time>
      </trkpt>
      <trkpt lat="48.58746" lon="6.43501">
        <ele>257</ele>
        <time>2017-06-26T11:13:20Z</time>
      </trkpt>
      <trkpt lat="48.58746" lon="6.43503">
        <ele>257</ele>
        <time>2017-06-26T11:13:21Z</time>
      </trkpt>
      <trkpt lat="48.58745" lon="6.43506">
        <ele>257</ele>
        <time>2017-06-26T11:13:22Z</time>
      </trkpt>
      <trkpt lat="48.58744" lon="6.43508">
        <ele>257</ele>
        <time>2017-06-26T11:13:23Z</time>
      </trkpt>
      <trkpt lat="48.58742" lon="6.43516">
        <ele>257</ele>
        <time>2017-06-26T11:13:24Z</time>
      </trkpt>
      <trkpt lat="48.58741" lon="6.43518">
        <ele>257</ele>
        <time>2017-06-26T11:13:25Z</time>
      </trkpt>
      <trkpt lat="48.5874" lon="6.4352">
        <ele>257</ele>
        <time>2017-06-26T11:13:26Z</time>
      </trkpt>
      <trkpt lat="48.58739" lon="6.43522">
        <ele>257</ele>
        <time>2017-06-26T11:13:27Z</time>
      </trkpt>
      <trkpt lat="48.58737" lon="6.43529">
        <ele>257</ele>
        <time>2017-06-26T11:13:28Z</time>
      </trkpt>
      <trkpt lat="48.58736" lon="6.43531">
        <ele>257</ele>
        <time>2017-06-26T11:13:29Z</time>
      </trkpt>
      <trkpt lat="48.58736" lon="6.43533">
        <ele>257</ele>
        <time>2017-06-26T11:13:30Z</time>
      </trkpt>
      <trkpt lat="48.58735" lon="6.43535">
        <ele>257</ele>
        <time>2017-06-26T11:13:31Z</time>
      </trkpt>
      <trkpt lat="48.58734" lon="6.43537">
        <ele>257</ele>
        <time>2017-06-26T11:13:32Z</time>
      </trkpt>
      <trkpt lat="48.58731" lon="6.43545">
        <ele>257</ele>
        <time>2017-06-26T11:13:33Z</time>
      </trkpt>
      <trkpt lat="48.58731" lon="6.43547">
        <ele>257</ele>
        <time>2017-06-26T11:13:34Z</time>
      </trkpt>
      <trkpt lat="48.5873" lon="6.4355">
        <ele>257</ele>
        <time>2017-06-26T11:13:35Z</time>
      </trkpt>
      <trkpt lat="48.5873" lon="6.43552">
        <ele>257</ele>
        <time>2017-06-26T11:13:36Z</time>
      </trkpt>
      <trkpt lat="48.58729" lon="6.43554">
        <ele>257</ele>
        <time>2017-06-26T11:13:37Z</time>
      </trkpt>
      <trkpt lat="48.58727" lon="6.43562">
        <ele>257</ele>
        <time>2017-06-26T11:13:38Z</time>
      </trkpt>
      <trkpt lat="48.58726" lon="6.43566">
        <ele>257</ele>
        <time>2017-06-26T11:13:39Z</time>
      </trkpt>
      <trkpt lat="48.58725" lon="6.43569">
        <ele>257</ele>
        <time>2017-06-26T11:13:40Z</time>
      </trkpt>
      <trkpt lat="48.58724" lon="6.43573">
        <ele>257</ele>
        <time>2017-06-26T11:13:41Z</time>
      </trkpt>
      <trkpt lat="48.58724" lon="6.43577">
        <ele>257</ele>
        <time>2017-06-26T11:13:42Z</time>
      </trkpt>
      <trkpt lat="48.58723" lon="6.4358">
        <ele>257</ele>
        <time>2017-06-26T11:13:43Z</time>
      </trkpt>
      <trkpt lat="48.58722" lon="6.43584">
        <ele>257</ele>
        <time>2017-06-26T11:13:44Z</time>
      </trkpt>
      <trkpt lat="48.58721" lon="6.43587">
        <ele>257</ele>
        <time>2017-06-26T11:13:45Z</time>
      </trkpt>
      <trkpt lat="48.5872" lon="6.43591">
        <ele>257</ele>
        <time>2017-06-26T11:13:46Z</time>
      </trkpt>
      <trkpt lat="48.58719" lon="6.43593">
        <ele>257</ele>
        <time>2017-06-26T11:13:47Z</time>
      </trkpt>
      <trkpt lat="48.58719" lon="6.43596">
        <ele>257</ele>
        <time>2017-06-26T11:13:48Z</time>
      </trkpt>
      <trkpt lat="48.58718" lon="6.43598">
        <ele>257</ele>
        <time>2017-06-26T11:13:49Z</time>
      </trkpt>
      <trkpt lat="48.58715" lon="6.43605">
        <ele>257</ele>
        <time>2017-06-26T11:13:50Z</time>
      </trkpt>
      <trkpt lat="48.58715" lon="6.43608">
        <ele>257</ele>
        <time>2017-06-26T11:13:51Z</time>
      </trkpt>
      <trkpt lat="48.58714" lon="6.43611">
        <ele>257</ele>
        <time>2017-06-26T11:13:52Z</time>
      </trkpt>
      <trkpt lat="48.58713" lon="6.43613">
        <ele>257</ele>
        <time>2017-06-26T11:13:53Z</time>
      </trkpt>
      <trkpt lat="48.58711" lon="6.43621">
        <ele>257</ele>
        <time>2017-06-26T11:13:54Z</time>
      </trkpt>
      <trkpt lat="48.58711" lon="6.43623">
        <ele>256</ele>
        <time>2017-06-26T11:13:55Z</time>
      </trkpt>
      <trkpt lat="48.5871" lon="6.43626">
        <ele>256</ele>
        <time>2017-06-26T11:13:56Z</time>
      </trkpt>
      <trkpt lat="48.5871" lon="6.43629">
        <ele>256</ele>
        <time>2017-06-26T11:13:57Z</time>
      </trkpt>
      <trkpt lat="48.58708" lon="6.43637">
        <ele>256</ele>
        <time>2017-06-26T11:13:58Z</time>
      </trkpt>
      <trkpt lat="48.58707" lon="6.4364">
        <ele>256</ele>
        <time>2017-06-26T11:13:59Z</time>
      </trkpt>
      <trkpt lat="48.58707" lon="6.43644">
        <ele>256</ele>
        <time>2017-06-26T11:14:00Z</time>
      </trkpt>
      <trkpt lat="48.58706" lon="6.43648">
        <ele>256</ele>
        <time>2017-06-26T11:14:01Z</time>
      </trkpt>
      <trkpt lat="48.58705" lon="6.43651">
        <ele>256</ele>
        <time>2017-06-26T11:14:02Z</time>
      </trkpt>
      <trkpt lat="48.58705" lon="6.43654">
        <ele>256</ele>
        <time>2017-06-26T11:14:03Z</time>
      </trkpt>
      <trkpt lat="48.58704" lon="6.43656">
        <ele>256</ele>
        <time>2017-06-26T11:14:04Z</time>
      </trkpt>
      <trkpt lat="48.58703" lon="6.43659">
        <ele>255</ele>
        <time>2017-06-26T11:14:05Z</time>
      </trkpt>
      <trkpt lat="48.58701" lon="6.43666">
        <ele>255</ele>
        <time>2017-06-26T11:14:06Z</time>
      </trkpt>
      <trkpt lat="48.58701" lon="6.4367">
        <ele>255</ele>
        <time>2017-06-26T11:14:07Z</time>
      </trkpt>
      <trkpt lat="48.587" lon="6.43674">
        <ele>255</ele>
        <time>2017-06-26T11:14:08Z</time>
      </trkpt>
      <trkpt lat="48.58699" lon="6.43678">
        <ele>255</ele>
        <time>2017-06-26T11:14:09Z</time>
      </trkpt>
      <trkpt lat="48.58699" lon="6.43681">
        <ele>255</ele>
        <time>2017-06-26T11:14:10Z</time>
      </trkpt>
      <trkpt lat="48.58698" lon="6.43684">
        <ele>255</ele>
        <time>2017-06-26T11:14:11Z</time>
      </trkpt>
      <trkpt lat="48.58697" lon="6.43686">
        <ele>255</ele>
        <time>2017-06-26T11:14:12Z</time>
      </trkpt>
      <trkpt lat="48.58697" lon="6.43689">
        <ele>255</ele>
        <time>2017-06-26T11:14:13Z</time>
      </trkpt>
      <trkpt lat="48.58694" lon="6.43696">
        <ele>255</ele>
        <time>2017-06-26T11:14:14Z</time>
      </trkpt>
      <trkpt lat="48.58694" lon="6.437">
        <ele>254</ele>
        <time>2017-06-26T11:14:15Z</time>
      </trkpt>
      <trkpt lat="48.58693" lon="6.43703">
        <ele>254</ele>
        <time>2017-06-26T11:14:16Z</time>
      </trkpt>
      <trkpt lat="48.58693" lon="6.43707">
        <ele>254</ele>
        <time>2017-06-26T11:14:17Z</time>
      </trkpt>
      <trkpt lat="48.58692" lon="6.43711">
        <ele>254</ele>
        <time>2017-06-26T11:14:18Z</time>
      </trkpt>
      <trkpt lat="48.58692" lon="6.43714">
        <ele>254</ele>
        <time>2017-06-26T11:14:19Z</time>
      </trkpt>
      <trkpt lat="48.58691" lon="6.43718">
        <ele>254</ele>
        <time>2017-06-26T11:14:20Z</time>
      </trkpt>
      <trkpt lat="48.58691" lon="6.43722">
        <ele>254</ele>
        <time>2017-06-26T11:14:21Z</time>
      </trkpt>
      <trkpt lat="48.5869" lon="6.43725">
        <ele>254</ele>
        <time>2017-06-26T11:14:22Z</time>
      </trkpt>
      <trkpt lat="48.5869" lon="6.43729">
        <ele>254</ele>
        <time>2017-06-26T11:14:23Z</time>
      </trkpt>
      <trkpt lat="48.58689" lon="6.43732">
        <ele>254</ele>
        <time>2017-06-26T11:14:24Z</time>
      </trkpt>
      <trkpt lat="48.58689" lon="6.43736">
        <ele>252</ele>
        <time>2017-06-26T11:14:25Z</time>
      </trkpt>
      <trkpt lat="48.58688" lon="6.43739">
        <ele>252</ele>
        <time>2017-06-26T11:14:26Z</time>
      </trkpt>
      <trkpt lat="48.58687" lon="6.43742">
        <ele>252</ele>
        <time>2017-06-26T11:14:27Z</time>
      </trkpt>
      <trkpt lat="48.58686" lon="6.43744">
        <ele>252</ele>
        <time>2017-06-26T11:14:28Z</time>
      </trkpt>
      <trkpt lat="48.58686" lon="6.43747">
        <ele>252</ele>
        <time>2017-06-26T11:14:29Z</time>
      </trkpt>
      <trkpt lat="48.58683" lon="6.43754">
        <ele>252</ele>
        <time>2017-06-26T11:14:30Z</time>
      </trkpt>
      <trkpt lat="48.58682" lon="6.43757">
        <ele>252</ele>
        <time>2017-06-26T11:14:31Z</time>
      </trkpt>
      <trkpt lat="48.58681" lon="6.43761">
        <ele>252</ele>
        <time>2017-06-26T11:14:32Z</time>
      </trkpt>
      <trkpt lat="48.5868" lon="6.43764">
        <ele>252</ele>
        <time>2017-06-26T11:14:33Z</time>
      </trkpt>
      <trkpt lat="48.58678" lon="6.43767">
        <ele>252</ele>
        <time>2017-06-26T11:14:34Z</time>
      </trkpt>
      <trkpt lat="48.58677" lon="6.4377">
        <ele>251</ele>
        <time>2017-06-26T11:14:35Z</time>
      </trkpt>
      <trkpt lat="48.58676" lon="6.43772">
        <ele>251</ele>
        <time>2017-06-26T11:14:36Z</time>
      </trkpt>
      <trkpt lat="48.58676" lon="6.43775">
        <ele>251</ele>
        <time>2017-06-26T11:14:37Z</time>
      </trkpt>
      <trkpt lat="48.58673" lon="6.43782">
        <ele>251</ele>
        <time>2017-06-26T11:14:38Z</time>
      </trkpt>
      <trkpt lat="48.58672" lon="6.43784">
        <ele>251</ele>
        <time>2017-06-26T11:14:39Z</time>
      </trkpt>
      <trkpt lat="48.58671" lon="6.43787">
        <ele>251</ele>
        <time>2017-06-26T11:14:40Z</time>
      </trkpt>
      <trkpt lat="48.5867" lon="6.43789">
        <ele>251</ele>
        <time>2017-06-26T11:14:41Z</time>
      </trkpt>
      <trkpt lat="48.58668" lon="6.43796">
        <ele>251</ele>
        <time>2017-06-26T11:14:42Z</time>
      </trkpt>
      <trkpt lat="48.58667" lon="6.43798">
        <ele>251</ele>
        <time>2017-06-26T11:14:43Z</time>
      </trkpt>
      <trkpt lat="48.58667" lon="6.438">
        <ele>251</ele>
        <time>2017-06-26T11:14:44Z</time>
      </trkpt>
      <trkpt lat="48.58666" lon="6.43802">
        <ele>250</ele>
        <time>2017-06-26T11:14:45Z</time>
      </trkpt>
      <trkpt lat="48.58666" lon="6.43804">
        <ele>250</ele>
        <time>2017-06-26T11:14:46Z</time>
      </trkpt>
      <trkpt lat="48.58663" lon="6.43812">
        <ele>250</ele>
        <time>2017-06-26T11:14:47Z</time>
      </trkpt>
      <trkpt lat="48.58663" lon="6.43814">
        <ele>250</ele>
        <time>2017-06-26T11:14:48Z</time>
      </trkpt>
      <trkpt lat="48.58662" lon="6.43816">
        <ele>250</ele>
        <time>2017-06-26T11:14:49Z</time>
      </trkpt>
      <trkpt lat="48.58661" lon="6.43818">
        <ele>250</ele>
        <time>2017-06-26T11:14:50Z</time>
      </trkpt>
      <trkpt lat="48.58661" lon="6.43821">
        <ele>250</ele>
        <time>2017-06-26T11:14:51Z</time>
      </trkpt>
      <trkpt lat="48.58658" lon="6.43829">
        <ele>250</ele>
        <time>2017-06-26T11:14:52Z</time>
      </trkpt>
      <trkpt lat="48.58657" lon="6.43831">
        <ele>250</ele>
        <time>2017-06-26T11:14:53Z</time>
      </trkpt>
      <trkpt lat="48.58657" lon="6.43833">
        <ele>250</ele>
        <time>2017-06-26T11:14:54Z</time>
      </trkpt>
      <trkpt lat="48.58656" lon="6.43835">
        <ele>250</ele>
        <time>2017-06-26T11:14:55Z</time>
      </trkpt>
      <trkpt lat="48.58655" lon="6.43837">
        <ele>250</ele>
        <time>2017-06-26T11:14:56Z</time>
      </trkpt>
      <trkpt lat="48.58652" lon="6.43845">
        <ele>250</ele>
        <time>2017-06-26T11:14:57Z</time>
      </trkpt>
      <trkpt lat="48.58651" lon="6.43847">
        <ele>250</ele>
        <time>2017-06-26T11:14:58Z</time>
      </trkpt>
      <trkpt lat="48.58651" lon="6.4385">
        <ele>250</ele>
        <time>2017-06-26T11:14:59Z</time>
      </trkpt>
      <trkpt lat="48.5865" lon="6.43852">
        <ele>250</ele>
        <time>2017-06-26T11:15:00Z</time>
      </trkpt>
      <trkpt lat="48.58647" lon="6.4386">
        <ele>250</ele>
        <time>2017-06-26T11:15:01Z</time>
      </trkpt>
      <trkpt lat="48.58646" lon="6.43862">
        <ele>250</ele>
        <time>2017-06-26T11:15:02Z</time>
      </trkpt>
      <trkpt lat="48.58645" lon="6.43865">
        <ele>250</ele>
        <time>2017-06-26T11:15:03Z</time>
      </trkpt>
      <trkpt lat="48.58644" lon="6.43868">
        <ele>250</ele>
        <time>2017-06-26T11:15:04Z</time>
      </trkpt>
      <trkpt lat="48.58642" lon="6.43875">
        <ele>247</ele>
        <time>2017-06-26T11:15:05Z</time>
      </trkpt>
      <trkpt lat="48.58641" lon="6.43878">
        <ele>247</ele>
        <time>2017-06-26T11:15:06Z</time>
      </trkpt>
      <trkpt lat="48.5864" lon="6.4388">
        <ele>247</ele>
        <time>2017-06-26T11:15:07Z</time>
      </trkpt>
      <trkpt lat="48.58639" lon="6.43883">
        <ele>247</ele>
        <time>2017-06-26T11:15:08Z</time>
      </trkpt>
      <trkpt lat="48.58636" lon="6.4389">
        <ele>247</ele>
        <time>2017-06-26T11:15:09Z</time>
      </trkpt>
      <trkpt lat="48.58636" lon="6.43893">
        <ele>248</ele>
        <time>2017-06-26T11:15:10Z</time>
      </trkpt>
      <trkpt lat="48.58635" lon="6.43897">
        <ele>248</ele>
        <time>2017-06-26T11:15:11Z</time>
      </trkpt>
      <trkpt lat="48.58634" lon="6.43901">
        <ele>248</ele>
        <time>2017-06-26T11:15:12Z</time>
      </trkpt>
      <trkpt lat="48.58634" lon="6.43904">
        <ele>248</ele>
        <time>2017-06-26T11:15:13Z</time>
      </trkpt>
      <trkpt lat="48.58633" lon="6.43907">
        <ele>248</ele>
        <time>2017-06-26T11:15:14Z</time>
      </trkpt>
      <trkpt lat="48.58633" lon="6.43911">
        <ele>248</ele>
        <time>2017-06-26T11:15:15Z</time>
      </trkpt>
      <trkpt lat="48.58633" lon="6.43914">
        <ele>248</ele>
        <time>2017-06-26T11:15:16Z</time>
      </trkpt>
      <trkpt lat="48.58633" lon="6.43917">
        <ele>248</ele>
        <time>2017-06-26T11:15:17Z</time>
      </trkpt>
      <trkpt lat="48.58632" lon="6.43921">
        <ele>248</ele>
        <time>2017-06-26T11:15:18Z</time>
      </trkpt>
      <trkpt lat="48.58631" lon="6.43924">
        <ele>248</ele>
        <time>2017-06-26T11:15:19Z</time>
      </trkpt>
      <trkpt lat="48.5863" lon="6.43927">
        <ele>248</ele>
        <time>2017-06-26T11:15:20Z</time>
      </trkpt>
      <trkpt lat="48.58629" lon="6.43931">
        <ele>248</ele>
        <time>2017-06-26T11:15:21Z</time>
      </trkpt>
      <trkpt lat="48.58628" lon="6.43934">
        <ele>248</ele>
        <time>2017-06-26T11:15:22Z</time>
      </trkpt>
      <trkpt lat="48.58627" lon="6.43938">
        <ele>248</ele>
        <time>2017-06-26T11:15:23Z</time>
      </trkpt>
      <trkpt lat="48.58626" lon="6.43941">
        <ele>248</ele>
        <time>2017-06-26T11:15:24Z</time>
      </trkpt>
      <trkpt lat="48.58625" lon="6.43945">
        <ele>248</ele>
        <time>2017-06-26T11:15:25Z</time>
      </trkpt>
      <trkpt lat="48.58624" lon="6.43948">
        <ele>248</ele>
        <time>2017-06-26T11:15:26Z</time>
      </trkpt>
      <trkpt lat="48.58623" lon="6.43952">
        <ele>248</ele>
        <time>2017-06-26T11:15:27Z</time>
      </trkpt>
      <trkpt lat="48.58622" lon="6.43955">
        <ele>248</ele>
        <time>2017-06-26T11:15:28Z</time>
      </trkpt>
      <trkpt lat="48.58621" lon="6.43959">
        <ele>248</ele>
        <time>2017-06-26T11:15:29Z</time>
      </trkpt>
      <trkpt lat="48.5862" lon="6.43962">
        <ele>248</ele>
        <time>2017-06-26T11:15:30Z</time>
      </trkpt>
      <trkpt lat="48.58619" lon="6.43966">
        <ele>248</ele>
        <time>2017-06-26T11:15:31Z</time>
      </trkpt>
      <trkpt lat="48.58618" lon="6.43969">
        <ele>248</ele>
        <time>2017-06-26T11:15:32Z</time>
      </trkpt>
      <trkpt lat="48.58617" lon="6.43973">
        <ele>248</ele>
        <time>2017-06-26T11:15:33Z</time>
      </trkpt>
      <trkpt lat="48.58617" lon="6.43976">
        <ele>248</ele>
        <time>2017-06-26T11:15:34Z</time>
      </trkpt>
      <trkpt lat="48.58616" lon="6.4398">
        <ele>248</ele>
        <time>2017-06-26T11:15:35Z</time>
      </trkpt>
      <trkpt lat="48.58616" lon="6.43983">
        <ele>248</ele>
        <time>2017-06-26T11:15:36Z</time>
      </trkpt>
      <trkpt lat="48.58615" lon="6.43987">
        <ele>248</ele>
        <time>2017-06-26T11:15:37Z</time>
      </trkpt>
      <trkpt lat="48.58615" lon="6.4399">
        <ele>248</ele>
        <time>2017-06-26T11:15:38Z</time>
      </trkpt>
      <trkpt lat="48.58614" lon="6.43994">
        <ele>248</ele>
        <time>2017-06-26T11:15:39Z</time>
      </trkpt>
      <trkpt lat="48.58614" lon="6.43998">
        <ele>248</ele>
        <time>2017-06-26T11:15:40Z</time>
      </trkpt>
      <trkpt lat="48.58614" lon="6.44002">
        <ele>248</ele>
        <time>2017-06-26T11:15:41Z</time>
      </trkpt>
      <trkpt lat="48.58614" lon="6.44006">
        <ele>248</ele>
        <time>2017-06-26T11:15:42Z</time>
      </trkpt>
      <trkpt lat="48.58613" lon="6.4401">
        <ele>248</ele>
        <time>2017-06-26T11:15:43Z</time>
      </trkpt>
      <trkpt lat="48.58613" lon="6.44014">
        <ele>248</ele>
        <time>2017-06-26T11:15:44Z</time>
      </trkpt>
      <trkpt lat="48.58613" lon="6.44016">
        <ele>248</ele>
        <time>2017-06-26T11:15:45Z</time>
      </trkpt>
      <trkpt lat="48.58614" lon="6.44018">
        <ele>248</ele>
        <time>2017-06-26T11:15:46Z</time>
      </trkpt>
      <trkpt lat="48.58614" lon="6.4402">
        <ele>248</ele>
        <time>2017-06-26T11:15:47Z</time>
      </trkpt>
      <trkpt lat="48.58614" lon="6.44023">
        <ele>248</ele>
        <time>2017-06-26T11:15:48Z</time>
      </trkpt>
      <trkpt lat="48.58615" lon="6.44031">
        <ele>248</ele>
        <time>2017-06-26T11:15:49Z</time>
      </trkpt>
      <trkpt lat="48.58616" lon="6.44034">
        <ele>248</ele>
        <time>2017-06-26T11:15:50Z</time>
      </trkpt>
      <trkpt lat="48.58617" lon="6.44036">
        <ele>248</ele>
        <time>2017-06-26T11:15:51Z</time>
      </trkpt>
      <trkpt lat="48.58618" lon="6.44039">
        <ele>248</ele>
        <time>2017-06-26T11:15:52Z</time>
      </trkpt>
      <trkpt lat="48.5862" lon="6.44041">
        <ele>248</ele>
        <time>2017-06-26T11:15:53Z</time>
      </trkpt>
      <trkpt lat="48.58621" lon="6.44043">
        <ele>248</ele>
        <time>2017-06-26T11:15:54Z</time>
      </trkpt>
      <trkpt lat="48.58622" lon="6.44045">
        <ele>248</ele>
        <time>2017-06-26T11:15:55Z</time>
      </trkpt>
      <trkpt lat="48.58623" lon="6.44046">
        <ele>248</ele>
        <time>2017-06-26T11:15:56Z</time>
      </trkpt>
      <trkpt lat="48.58624" lon="6.44048">
        <ele>248</ele>
        <time>2017-06-26T11:15:57Z</time>
      </trkpt>
      <trkpt lat="48.58627" lon="6.44055">
        <ele>248</ele>
        <time>2017-06-26T11:15:58Z</time>
      </trkpt>
      <trkpt lat="48.58629" lon="6.44056">
        <ele>248</ele>
        <time>2017-06-26T11:15:59Z</time>
      </trkpt>
      <trkpt lat="48.5863" lon="6.44057">
        <ele>248</ele>
        <time>2017-06-26T11:16:00Z</time>
      </trkpt>
      <trkpt lat="48.58631" lon="6.44058">
        <ele>248</ele>
        <time>2017-06-26T11:16:01Z</time>
      </trkpt>
      <trkpt lat="48.58632" lon="6.4406">
        <ele>248</ele>
        <time>2017-06-26T11:16:02Z</time>
      </trkpt>
      <trkpt lat="48.58637" lon="6.44065">
        <ele>248</ele>
        <time>2017-06-26T11:16:03Z</time>
      </trkpt>
      <trkpt lat="48.58638" lon="6.44066">
        <ele>248</ele>
        <time>2017-06-26T11:16:04Z</time>
      </trkpt>
      <trkpt lat="48.58639" lon="6.44068">
        <ele>248</ele>
        <time>2017-06-26T11:16:05Z</time>
      </trkpt>
      <trkpt lat="48.5864" lon="6.44069">
        <ele>248</ele>
        <time>2017-06-26T11:16:06Z</time>
      </trkpt>
      <trkpt lat="48.58641" lon="6.44071">
        <ele>248</ele>
        <time>2017-06-26T11:16:07Z</time>
      </trkpt>
      <trkpt lat="48.58645" lon="6.44077">
        <ele>248</ele>
        <time>2017-06-26T11:16:08Z</time>
      </trkpt>
      <trkpt lat="48.58646" lon="6.44081">
        <ele>248</ele>
        <time>2017-06-26T11:16:09Z</time>
      </trkpt>
      <trkpt lat="48.58647" lon="6.44084">
        <ele>248</ele>
        <time>2017-06-26T11:16:10Z</time>
      </trkpt>
      <trkpt lat="48.58648" lon="6.44088">
        <ele>248</ele>
        <time>2017-06-26T11:16:11Z</time>
      </trkpt>
      <trkpt lat="48.58649" lon="6.44092">
        <ele>248</ele>
        <time>2017-06-26T11:16:12Z</time>
      </trkpt>
      <trkpt lat="48.58649" lon="6.44094">
        <ele>248</ele>
        <time>2017-06-26T11:16:13Z</time>
      </trkpt>
      <trkpt lat="48.58648" lon="6.44096">
        <ele>248</ele>
        <time>2017-06-26T11:16:14Z</time>
      </trkpt>
      <trkpt lat="48.58648" lon="6.44098">
        <ele>249</ele>
        <time>2017-06-26T11:16:15Z</time>
      </trkpt>
      <trkpt lat="48.58648" lon="6.441">
        <ele>249</ele>
        <time>2017-06-26T11:16:16Z</time>
      </trkpt>
      <trkpt lat="48.58646" lon="6.44109">
        <ele>249</ele>
        <time>2017-06-26T11:16:17Z</time>
      </trkpt>
      <trkpt lat="48.58646" lon="6.44111">
        <ele>249</ele>
        <time>2017-06-26T11:16:18Z</time>
      </trkpt>
      <trkpt lat="48.58645" lon="6.44113">
        <ele>249</ele>
        <time>2017-06-26T11:16:19Z</time>
      </trkpt>
      <trkpt lat="48.58645" lon="6.44115">
        <ele>249</ele>
        <time>2017-06-26T11:16:20Z</time>
      </trkpt>
      <trkpt lat="48.58644" lon="6.44117">
        <ele>249</ele>
        <time>2017-06-26T11:16:21Z</time>
      </trkpt>
      <trkpt lat="48.58642" lon="6.44126">
        <ele>249</ele>
        <time>2017-06-26T11:16:22Z</time>
      </trkpt>
      <trkpt lat="48.58642" lon="6.44129">
        <ele>249</ele>
        <time>2017-06-26T11:16:23Z</time>
      </trkpt>
      <trkpt lat="48.58641" lon="6.44132">
        <ele>249</ele>
        <time>2017-06-26T11:16:24Z</time>
      </trkpt>
      <trkpt lat="48.5864" lon="6.44135">
        <ele>250</ele>
        <time>2017-06-26T11:16:25Z</time>
      </trkpt>
      <trkpt lat="48.58639" lon="6.44138">
        <ele>250</ele>
        <time>2017-06-26T11:16:26Z</time>
      </trkpt>
      <trkpt lat="48.5864" lon="6.4414">
        <ele>250</ele>
        <time>2017-06-26T11:16:27Z</time>
      </trkpt>
      <trkpt lat="48.5864" lon="6.44141">
        <ele>250</ele>
        <time>2017-06-26T11:16:28Z</time>
      </trkpt>
      <trkpt lat="48.5864" lon="6.44143">
        <ele>250</ele>
        <time>2017-06-26T11:16:29Z</time>
      </trkpt>
      <trkpt lat="48.5864" lon="6.44144">
        <ele>250</ele>
        <time>2017-06-26T11:16:30Z</time>
      </trkpt>
      <trkpt lat="48.58641" lon="6.44146">
        <ele>250</ele>
        <time>2017-06-26T11:16:31Z</time>
      </trkpt>
      <trkpt lat="48.58642" lon="6.44154">
        <ele>250</ele>
        <time>2017-06-26T11:16:32Z</time>
      </trkpt>
      <trkpt lat="48.58643" lon="6.44156">
        <ele>250</ele>
        <time>2017-06-26T11:16:33Z</time>
      </trkpt>
      <trkpt lat="48.58645" lon="6.44159">
        <ele>250</ele>
        <time>2017-06-26T11:16:34Z</time>
      </trkpt>
      <trkpt lat="48.58646" lon="6.44162">
        <ele>250</ele>
        <time>2017-06-26T11:16:35Z</time>
      </trkpt>
      <trkpt lat="48.58647" lon="6.44164">
        <ele>250</ele>
        <time>2017-06-26T11:16:36Z</time>
      </trkpt>
      <trkpt lat="48.58648" lon="6.44167">
        <ele>250</ele>
        <time>2017-06-26T11:16:37Z</time>
      </trkpt>
      <trkpt lat="48.58649" lon="6.44169">
        <ele>250</ele>
        <time>2017-06-26T11:16:38Z</time>
      </trkpt>
      <trkpt lat="48.58651" lon="6.44172">
        <ele>250</ele>
        <time>2017-06-26T11:16:39Z</time>
      </trkpt>
      <trkpt lat="48.58652" lon="6.44174">
        <ele>250</ele>
        <time>2017-06-26T11:16:40Z</time>
      </trkpt>
      <trkpt lat="48.58653" lon="6.44177">
        <ele>250</ele>
        <time>2017-06-26T11:16:41Z</time>
      </trkpt>
      <trkpt lat="48.58654" lon="6.44178">
        <ele>250</ele>
        <time>2017-06-26T11:16:42Z</time>
      </trkpt>
      <trkpt lat="48.58655" lon="6.4418">
        <ele>250</ele>
        <time>2017-06-26T11:16:43Z</time>
      </trkpt>
      <trkpt lat="48.58656" lon="6.44181">
        <ele>250</ele>
        <time>2017-06-26T11:16:44Z</time>
      </trkpt>
      <trkpt lat="48.58657" lon="6.44183">
        <ele>250</ele>
        <time>2017-06-26T11:16:45Z</time>
      </trkpt>
      <trkpt lat="48.58661" lon="6.4419">
        <ele>250</ele>
        <time>2017-06-26T11:16:46Z</time>
      </trkpt>
      <trkpt lat="48.58662" lon="6.44192">
        <ele>250</ele>
        <time>2017-06-26T11:16:47Z</time>
      </trkpt>
      <trkpt lat="48.58664" lon="6.44195">
        <ele>250</ele>
        <time>2017-06-26T11:16:48Z</time>
      </trkpt>
      <trkpt lat="48.58665" lon="6.44198">
        <ele>250</ele>
        <time>2017-06-26T11:16:49Z</time>
      </trkpt>
      <trkpt lat="48.58667" lon="6.442">
        <ele>250</ele>
        <time>2017-06-26T11:16:50Z</time>
      </trkpt>
      <trkpt lat="48.58668" lon="6.44202">
        <ele>250</ele>
        <time>2017-06-26T11:16:51Z</time>
      </trkpt>
      <trkpt lat="48.58669" lon="6.44203">
        <ele>250</ele>
        <time>2017-06-26T11:16:52Z</time>
      </trkpt>
      <trkpt lat="48.5867" lon="6.44205">
        <ele>250</ele>
        <time>2017-06-26T11:16:53Z</time>
      </trkpt>
      <trkpt lat="48.58671" lon="6.44207">
        <ele>250</ele>
        <time>2017-06-26T11:16:54Z</time>
      </trkpt>
      <trkpt lat="48.58674" lon="6.44213">
        <ele>250</ele>
        <time>2017-06-26T11:16:55Z</time>
      </trkpt>
      <trkpt lat="48.58675" lon="6.44216">
        <ele>250</ele>
        <time>2017-06-26T11:16:56Z</time>
      </trkpt>
      <trkpt lat="48.58677" lon="6.44219">
        <ele>250</ele>
        <time>2017-06-26T11:16:57Z</time>
      </trkpt>
      <trkpt lat="48.58678" lon="6.44221">
        <ele>250</ele>
        <time>2017-06-26T11:16:58Z</time>
      </trkpt>
      <trkpt lat="48.5868" lon="6.44224">
        <ele>250</ele>
        <time>2017-06-26T11:16:59Z</time>
      </trkpt>
      <trkpt lat="48.58681" lon="6.44227">
        <ele>250</ele>
        <time>2017-06-26T11:17:00Z</time>
      </trkpt>
      <trkpt lat="48.58682" lon="6.4423">
        <ele>250</ele>
        <time>2017-06-26T11:17:01Z</time>
      </trkpt>
      <trkpt lat="48.58684" lon="6.44232">
        <ele>250</ele>
        <time>2017-06-26T11:17:02Z</time>
      </trkpt>
      <trkpt lat="48.58685" lon="6.44235">
        <ele>250</ele>
        <time>2017-06-26T11:17:03Z</time>
      </trkpt>
      <trkpt lat="48.58686" lon="6.44238">
        <ele>250</ele>
        <time>2017-06-26T11:17:04Z</time>
      </trkpt>
      <trkpt lat="48.58688" lon="6.4424">
        <ele>250</ele>
        <time>2017-06-26T11:17:05Z</time>
      </trkpt>
      <trkpt lat="48.58689" lon="6.44243">
        <ele>250</ele>
        <time>2017-06-26T11:17:06Z</time>
      </trkpt>
      <trkpt lat="48.5869" lon="6.44246">
        <ele>250</ele>
        <time>2017-06-26T11:17:07Z</time>
      </trkpt>
      <trkpt lat="48.58691" lon="6.44248">
        <ele>250</ele>
        <time>2017-06-26T11:17:08Z</time>
      </trkpt>
      <trkpt lat="48.58692" lon="6.44251">
        <ele>250</ele>
        <time>2017-06-26T11:17:09Z</time>
      </trkpt>
      <trkpt lat="48.58693" lon="6.44254">
        <ele>250</ele>
        <time>2017-06-26T11:17:10Z</time>
      </trkpt>
      <trkpt lat="48.58694" lon="6.44256">
        <ele>250</ele>
        <time>2017-06-26T11:17:11Z</time>
      </trkpt>
      <trkpt lat="48.58695" lon="6.44259">
        <ele>250</ele>
        <time>2017-06-26T11:17:12Z</time>
      </trkpt>
      <trkpt lat="48.58697" lon="6.44261">
        <ele>250</ele>
        <time>2017-06-26T11:17:13Z</time>
      </trkpt>
      <trkpt lat="48.58698" lon="6.44264">
        <ele>250</ele>
        <time>2017-06-26T11:17:14Z</time>
      </trkpt>
      <trkpt lat="48.587" lon="6.44267">
        <ele>250</ele>
        <time>2017-06-26T11:17:15Z</time>
      </trkpt>
      <trkpt lat="48.58701" lon="6.44269">
        <ele>250</ele>
        <time>2017-06-26T11:17:16Z</time>
      </trkpt>
      <trkpt lat="48.58703" lon="6.44272">
        <ele>250</ele>
        <time>2017-06-26T11:17:17Z</time>
      </trkpt>
      <trkpt lat="48.58705" lon="6.44275">
        <ele>250</ele>
        <time>2017-06-26T11:17:18Z</time>
      </trkpt>
      <trkpt lat="48.58706" lon="6.44278">
        <ele>250</ele>
        <time>2017-06-26T11:17:19Z</time>
      </trkpt>
      <trkpt lat="48.58708" lon="6.4428">
        <ele>250</ele>
        <time>2017-06-26T11:17:20Z</time>
      </trkpt>
      <trkpt lat="48.5871" lon="6.44283">
        <ele>250</ele>
        <time>2017-06-26T11:17:21Z</time>
      </trkpt>
      <trkpt lat="48.58711" lon="6.44286">
        <ele>250</ele>
        <time>2017-06-26T11:17:22Z</time>
      </trkpt>
      <trkpt lat="48.58712" lon="6.44289">
        <ele>250</ele>
        <time>2017-06-26T11:17:23Z</time>
      </trkpt>
      <trkpt lat="48.58714" lon="6.44292">
        <ele>250</ele>
        <time>2017-06-26T11:17:24Z</time>
      </trkpt>
      <trkpt lat="48.58715" lon="6.44294">
        <ele>250</ele>
        <time>2017-06-26T11:17:25Z</time>
      </trkpt>
      <trkpt lat="48.58717" lon="6.44297">
        <ele>250</ele>
        <time>2017-06-26T11:17:26Z</time>
      </trkpt>
      <trkpt lat="48.58718" lon="6.443">
        <ele>250</ele>
        <time>2017-06-26T11:17:27Z</time>
      </trkpt>
      <trkpt lat="48.5872" lon="6.44303">
        <ele>250</ele>
        <time>2017-06-26T11:17:28Z</time>
      </trkpt>
      <trkpt lat="48.58721" lon="6.44305">
        <ele>250</ele>
        <time>2017-06-26T11:17:29Z</time>
      </trkpt>
      <trkpt lat="48.58723" lon="6.44308">
        <ele>250</ele>
        <time>2017-06-26T11:17:30Z</time>
      </trkpt>
      <trkpt lat="48.58725" lon="6.44311">
        <ele>250</ele>
        <time>2017-06-26T11:17:31Z</time>
      </trkpt>
      <trkpt lat="48.58726" lon="6.44313">
        <ele>250</ele>
        <time>2017-06-26T11:17:32Z</time>
      </trkpt>
      <trkpt lat="48.58728" lon="6.44316">
        <ele>250</ele>
        <time>2017-06-26T11:17:33Z</time>
      </trkpt>
      <trkpt lat="48.58729" lon="6.44318">
        <ele>250</ele>
        <time>2017-06-26T11:17:34Z</time>
      </trkpt>
      <trkpt lat="48.58731" lon="6.44321">
        <ele>250</ele>
        <time>2017-06-26T11:17:35Z</time>
      </trkpt>
      <trkpt lat="48.58732" lon="6.44323">
        <ele>250</ele>
        <time>2017-06-26T11:17:36Z</time>
      </trkpt>
      <trkpt lat="48.58733" lon="6.44324">
        <ele>250</ele>
        <time>2017-06-26T11:17:37Z</time>
      </trkpt>
      <trkpt lat="48.58734" lon="6.44326">
        <ele>250</ele>
        <time>2017-06-26T11:17:38Z</time>
      </trkpt>
      <trkpt lat="48.58735" lon="6.44327">
        <ele>250</ele>
        <time>2017-06-26T11:17:39Z</time>
      </trkpt>
      <trkpt lat="48.58736" lon="6.44328">
        <ele>250</ele>
        <time>2017-06-26T11:17:40Z</time>
      </trkpt>
      <trkpt lat="48.5874" lon="6.44333">
        <ele>250</ele>
        <time>2017-06-26T11:17:41Z</time>
      </trkpt>
      <trkpt lat="48.58742" lon="6.44334">
        <ele>250</ele>
        <time>2017-06-26T11:17:42Z</time>
      </trkpt>
      <trkpt lat="48.58744" lon="6.44335">
        <ele>250</ele>
        <time>2017-06-26T11:17:43Z</time>
      </trkpt>
      <trkpt lat="48.58745" lon="6.44335">
        <ele>250</ele>
        <time>2017-06-26T11:17:44Z</time>
      </trkpt>
      <trkpt lat="48.58747" lon="6.44336">
        <ele>250</ele>
        <time>2017-06-26T11:17:45Z</time>
      </trkpt>
      <trkpt lat="48.58749" lon="6.44337">
        <ele>250</ele>
        <time>2017-06-26T11:17:46Z</time>
      </trkpt>
      <trkpt lat="48.5875" lon="6.44337">
        <ele>250</ele>
        <time>2017-06-26T11:17:47Z</time>
      </trkpt>
      <trkpt lat="48.58752" lon="6.44337">
        <ele>250</ele>
        <time>2017-06-26T11:17:48Z</time>
      </trkpt>
      <trkpt lat="48.58753" lon="6.44337">
        <ele>250</ele>
        <time>2017-06-26T11:17:49Z</time>
      </trkpt>
      <trkpt lat="48.58754" lon="6.44337">
        <ele>250</ele>
        <time>2017-06-26T11:17:50Z</time>
      </trkpt>
      <trkpt lat="48.5876" lon="6.44337">
        <ele>250</ele>
        <time>2017-06-26T11:17:51Z</time>
      </trkpt>
      <trkpt lat="48.58761" lon="6.44337">
        <ele>250</ele>
        <time>2017-06-26T11:17:52Z</time>
      </trkpt>
      <trkpt lat="48.58762" lon="6.44338">
        <ele>250</ele>
        <time>2017-06-26T11:17:53Z</time>
      </trkpt>
      <trkpt lat="48.58764" lon="6.44339">
        <ele>250</ele>
        <time>2017-06-26T11:17:54Z</time>
      </trkpt>
      <trkpt lat="48.58765" lon="6.44339">
        <ele>250</ele>
        <time>2017-06-26T11:17:55Z</time>
      </trkpt>
      <trkpt lat="48.5877" lon="6.44342">
        <ele>250</ele>
        <time>2017-06-26T11:17:56Z</time>
      </trkpt>
      <trkpt lat="48.58771" lon="6.44343">
        <ele>250</ele>
        <time>2017-06-26T11:17:57Z</time>
      </trkpt>
      <trkpt lat="48.58772" lon="6.44344">
        <ele>250</ele>
        <time>2017-06-26T11:17:58Z</time>
      </trkpt>
      <trkpt lat="48.58773" lon="6.44345">
        <ele>250</ele>
        <time>2017-06-26T11:17:59Z</time>
      </trkpt>
      <trkpt lat="48.58773" lon="6.44346">
        <ele>250</ele>
        <time>2017-06-26T11:18:00Z</time>
      </trkpt>
      <trkpt lat="48.58774" lon="6.44347">
        <ele>250</ele>
        <time>2017-06-26T11:18:01Z</time>
      </trkpt>
      <trkpt lat="48.58778" lon="6.44351">
        <ele>250</ele>
        <time>2017-06-26T11:18:02Z</time>
      </trkpt>
      <trkpt lat="48.58779" lon="6.44354">
        <ele>250</ele>
        <time>2017-06-26T11:18:03Z</time>
      </trkpt>
      <trkpt lat="48.58781" lon="6.44356">
        <ele>250</ele>
        <time>2017-06-26T11:18:04Z</time>
      </trkpt>
      <trkpt lat="48.58782" lon="6.44359">
        <ele>252</ele>
        <time>2017-06-26T11:18:05Z</time>
      </trkpt>
      <trkpt lat="48.58783" lon="6.44361">
        <ele>252</ele>
        <time>2017-06-26T11:18:06Z</time>
      </trkpt>
      <trkpt lat="48.58784" lon="6.44363">
        <ele>252</ele>
        <time>2017-06-26T11:18:07Z</time>
      </trkpt>
      <trkpt lat="48.58785" lon="6.44365">
        <ele>252</ele>
        <time>2017-06-26T11:18:08Z</time>
      </trkpt>
      <trkpt lat="48.58786" lon="6.44366">
        <ele>252</ele>
        <time>2017-06-26T11:18:09Z</time>
      </trkpt>
      <trkpt lat="48.58787" lon="6.44368">
        <ele>252</ele>
        <time>2017-06-26T11:18:10Z</time>
      </trkpt>
      <trkpt lat="48.58788" lon="6.4437">
        <ele>252</ele>
        <time>2017-06-26T11:18:11Z</time>
      </trkpt>
      <trkpt lat="48.58791" lon="6.44376">
        <ele>252</ele>
        <time>2017-06-26T11:18:12Z</time>
      </trkpt>
      <trkpt lat="48.58792" lon="6.44378">
        <ele>252</ele>
        <time>2017-06-26T11:18:13Z</time>
      </trkpt>
      <trkpt lat="48.58794" lon="6.44381">
        <ele>252</ele>
        <time>2017-06-26T11:18:14Z</time>
      </trkpt>
      <trkpt lat="48.58795" lon="6.44383">
        <ele>254</ele>
        <time>2017-06-26T11:18:15Z</time>
      </trkpt>
      <trkpt lat="48.58796" lon="6.44386">
        <ele>254</ele>
        <time>2017-06-26T11:18:16Z</time>
      </trkpt>
      <trkpt lat="48.58797" lon="6.44388">
        <ele>254</ele>
        <time>2017-06-26T11:18:17Z</time>
      </trkpt>
      <trkpt lat="48.58799" lon="6.44391">
        <ele>254</ele>
        <time>2017-06-26T11:18:18Z</time>
      </trkpt>
      <trkpt lat="48.588" lon="6.44393">
        <ele>254</ele>
        <time>2017-06-26T11:18:19Z</time>
      </trkpt>
      <trkpt lat="48.58801" lon="6.44396">
        <ele>254</ele>
        <time>2017-06-26T11:18:20Z</time>
      </trkpt>
      <trkpt lat="48.58802" lon="6.44398">
        <ele>254</ele>
        <time>2017-06-26T11:18:21Z</time>
      </trkpt>
      <trkpt lat="48.58803" lon="6.444">
        <ele>254</ele>
        <time>2017-06-26T11:18:22Z</time>
      </trkpt>
      <trkpt lat="48.58805" lon="6.44403">
        <ele>254</ele>
        <time>2017-06-26T11:18:23Z</time>
      </trkpt>
      <trkpt lat="48.58806" lon="6.44406">
        <ele>254</ele>
        <time>2017-06-26T11:18:24Z</time>
      </trkpt>
      <trkpt lat="48.58807" lon="6.44408">
        <ele>254</ele>
        <time>2017-06-26T11:18:25Z</time>
      </trkpt>
      <trkpt lat="48.58809" lon="6.44411">
        <ele>254</ele>
        <time>2017-06-26T11:18:26Z</time>
      </trkpt>
      <trkpt lat="48.5881" lon="6.44413">
        <ele>254</ele>
        <time>2017-06-26T11:18:27Z</time>
      </trkpt>
      <trkpt lat="48.58811" lon="6.44416">
        <ele>254</ele>
        <time>2017-06-26T11:18:28Z</time>
      </trkpt>
      <trkpt lat="48.58813" lon="6.44418">
        <ele>254</ele>
        <time>2017-06-26T11:18:29Z</time>
      </trkpt>
      <trkpt lat="48.58814" lon="6.4442">
        <ele>254</ele>
        <time>2017-06-26T11:18:30Z</time>
      </trkpt>
      <trkpt lat="48.58815" lon="6.44422">
        <ele>254</ele>
        <time>2017-06-26T11:18:31Z</time>
      </trkpt>
      <trkpt lat="48.58816" lon="6.44424">
        <ele>254</ele>
        <time>2017-06-26T11:18:32Z</time>
      </trkpt>
      <trkpt lat="48.58817" lon="6.44425">
        <ele>254</ele>
        <time>2017-06-26T11:18:33Z</time>
      </trkpt>
      <trkpt lat="48.58818" lon="6.44427">
        <ele>254</ele>
        <time>2017-06-26T11:18:34Z</time>
      </trkpt>
      <trkpt lat="48.58819" lon="6.44429">
        <ele>256</ele>
        <time>2017-06-26T11:18:35Z</time>
      </trkpt>
      <trkpt lat="48.58822" lon="6.44435">
        <ele>256</ele>
        <time>2017-06-26T11:18:36Z</time>
      </trkpt>
      <trkpt lat="48.58823" lon="6.44437">
        <ele>256</ele>
        <time>2017-06-26T11:18:37Z</time>
      </trkpt>
      <trkpt lat="48.58824" lon="6.44439">
        <ele>256</ele>
        <time>2017-06-26T11:18:38Z</time>
      </trkpt>
      <trkpt lat="48.58826" lon="6.44442">
        <ele>256</ele>
        <time>2017-06-26T11:18:39Z</time>
      </trkpt>
      <trkpt lat="48.58827" lon="6.44444">
        <ele>256</ele>
        <time>2017-06-26T11:18:40Z</time>
      </trkpt>
      <trkpt lat="48.58829" lon="6.44446">
        <ele>256</ele>
        <time>2017-06-26T11:18:41Z</time>
      </trkpt>
      <trkpt lat="48.58829" lon="6.44447">
        <ele>256</ele>
        <time>2017-06-26T11:18:42Z</time>
      </trkpt>
      <trkpt lat="48.5883" lon="6.44449">
        <ele>256</ele>
        <time>2017-06-26T11:18:43Z</time>
      </trkpt>
      <trkpt lat="48.5883" lon="6.4445">
        <ele>256</ele>
        <time>2017-06-26T11:18:44Z</time>
      </trkpt>
      <trkpt lat="48.58831" lon="6.44451">
        <ele>256</ele>
        <time>2017-06-26T11:18:45Z</time>
      </trkpt>
      <trkpt lat="48.58831" lon="6.44452">
        <ele>256</ele>
        <time>2017-06-26T11:18:46Z</time>
      </trkpt>
      <trkpt lat="48.58832" lon="6.44453">
        <ele>256</ele>
        <time>2017-06-26T11:18:47Z</time>
      </trkpt>
      <trkpt lat="48.58835" lon="6.44461">
        <ele>256</ele>
        <time>2017-06-26T11:18:48Z</time>
      </trkpt>
      <trkpt lat="48.58835" lon="6.44462">
        <ele>256</ele>
        <time>2017-06-26T11:18:49Z</time>
      </trkpt>
      <trkpt lat="48.58836" lon="6.44463">
        <ele>256</ele>
        <time>2017-06-26T11:18:50Z</time>
      </trkpt>
      <trkpt lat="48.58837" lon="6.44465">
        <ele>256</ele>
        <time>2017-06-26T11:18:51Z</time>
      </trkpt>
      <trkpt lat="48.58837" lon="6.44466">
        <ele>256</ele>
        <time>2017-06-26T11:18:52Z</time>
      </trkpt>
      <trkpt lat="48.58838" lon="6.44468">
        <ele>256</ele>
        <time>2017-06-26T11:18:53Z</time>
      </trkpt>
      <trkpt lat="48.58841" lon="6.44475">
        <ele>256</ele>
        <time>2017-06-26T11:18:54Z</time>
      </trkpt>
      <trkpt lat="48.58842" lon="6.44477">
        <ele>257</ele>
        <time>2017-06-26T11:18:55Z</time>
      </trkpt>
      <trkpt lat="48.58843" lon="6.44478">
        <ele>257</ele>
        <time>2017-06-26T11:18:56Z</time>
      </trkpt>
      <trkpt lat="48.58843" lon="6.4448">
        <ele>257</ele>
        <time>2017-06-26T11:18:57Z</time>
      </trkpt>
      <trkpt lat="48.58844" lon="6.44482">
        <ele>257</ele>
        <time>2017-06-26T11:18:58Z</time>
      </trkpt>
      <trkpt lat="48.58848" lon="6.44489">
        <ele>257</ele>
        <time>2017-06-26T11:18:59Z</time>
      </trkpt>
      <trkpt lat="48.58848" lon="6.44491">
        <ele>257</ele>
        <time>2017-06-26T11:19:00Z</time>
      </trkpt>
      <trkpt lat="48.58849" lon="6.44492">
        <ele>257</ele>
        <time>2017-06-26T11:19:01Z</time>
      </trkpt>
      <trkpt lat="48.5885" lon="6.44494">
        <ele>257</ele>
        <time>2017-06-26T11:19:02Z</time>
      </trkpt>
      <trkpt lat="48.5885" lon="6.44495">
        <ele>257</ele>
        <time>2017-06-26T11:19:03Z</time>
      </trkpt>
      <trkpt lat="48.58853" lon="6.44502">
        <ele>257</ele>
        <time>2017-06-26T11:19:04Z</time>
      </trkpt>
      <trkpt lat="48.58854" lon="6.44504">
        <ele>258</ele>
        <time>2017-06-26T11:19:05Z</time>
      </trkpt>
      <trkpt lat="48.58855" lon="6.44506">
        <ele>258</ele>
        <time>2017-06-26T11:19:06Z</time>
      </trkpt>
      <trkpt lat="48.58856" lon="6.44508">
        <ele>258</ele>
        <time>2017-06-26T11:19:07Z</time>
      </trkpt>
      <trkpt lat="48.58857" lon="6.4451">
        <ele>258</ele>
        <time>2017-06-26T11:19:08Z</time>
      </trkpt>
      <trkpt lat="48.58857" lon="6.44512">
        <ele>258</ele>
        <time>2017-06-26T11:19:09Z</time>
      </trkpt>
      <trkpt lat="48.58858" lon="6.44513">
        <ele>258</ele>
        <time>2017-06-26T11:19:10Z</time>
      </trkpt>
      <trkpt lat="48.58859" lon="6.44515">
        <ele>258</ele>
        <time>2017-06-26T11:19:11Z</time>
      </trkpt>
      <trkpt lat="48.5886" lon="6.44518">
        <ele>258</ele>
        <time>2017-06-26T11:19:12Z</time>
      </trkpt>
      <trkpt lat="48.58861" lon="6.4452">
        <ele>258</ele>
        <time>2017-06-26T11:19:13Z</time>
      </trkpt>
      <trkpt lat="48.58862" lon="6.44522">
        <ele>258</ele>
        <time>2017-06-26T11:19:14Z</time>
      </trkpt>
      <trkpt lat="48.58865" lon="6.44528">
        <ele>258</ele>
        <time>2017-06-26T11:19:15Z</time>
      </trkpt>
      <trkpt lat="48.58865" lon="6.4453">
        <ele>258</ele>
        <time>2017-06-26T11:19:16Z</time>
      </trkpt>
      <trkpt lat="48.58866" lon="6.44532">
        <ele>258</ele>
        <time>2017-06-26T11:19:17Z</time>
      </trkpt>
      <trkpt lat="48.58867" lon="6.44534">
        <ele>258</ele>
        <time>2017-06-26T11:19:18Z</time>
      </trkpt>
      <trkpt lat="48.58868" lon="6.44536">
        <ele>258</ele>
        <time>2017-06-26T11:19:19Z</time>
      </trkpt>
      <trkpt lat="48.58871" lon="6.44544">
        <ele>258</ele>
        <time>2017-06-26T11:19:20Z</time>
      </trkpt>
      <trkpt lat="48.58872" lon="6.44545">
        <ele>258</ele>
        <time>2017-06-26T11:19:21Z</time>
      </trkpt>
      <trkpt lat="48.58873" lon="6.44547">
        <ele>258</ele>
        <time>2017-06-26T11:19:22Z</time>
      </trkpt>
      <trkpt lat="48.58874" lon="6.44549">
        <ele>258</ele>
        <time>2017-06-26T11:19:23Z</time>
      </trkpt>
      <trkpt lat="48.58875" lon="6.44551">
        <ele>258</ele>
        <time>2017-06-26T11:19:24Z</time>
      </trkpt>
      <trkpt lat="48.58878" lon="6.44558">
        <ele>259</ele>
        <time>2017-06-26T11:19:25Z</time>
      </trkpt>
      <trkpt lat="48.58879" lon="6.4456">
        <ele>259</ele>
        <time>2017-06-26T11:19:26Z</time>
      </trkpt>
      <trkpt lat="48.58881" lon="6.44562">
        <ele>259</ele>
        <time>2017-06-26T11:19:27Z</time>
      </trkpt>
      <trkpt lat="48.58882" lon="6.44565">
        <ele>259</ele>
        <time>2017-06-26T11:19:28Z</time>
      </trkpt>
      <trkpt lat="48.58883" lon="6.44567">
        <ele>259</ele>
        <time>2017-06-26T11:19:29Z</time>
      </trkpt>
      <trkpt lat="48.58884" lon="6.4457">
        <ele>259</ele>
        <time>2017-06-26T11:19:30Z</time>
      </trkpt>
      <trkpt lat="48.58886" lon="6.44573">
        <ele>259</ele>
        <time>2017-06-26T11:19:31Z</time>
      </trkpt>
      <trkpt lat="48.58887" lon="6.44576">
        <ele>259</ele>
        <time>2017-06-26T11:19:32Z</time>
      </trkpt>
      <trkpt lat="48.58889" lon="6.44579">
        <ele>259</ele>
        <time>2017-06-26T11:19:33Z</time>
      </trkpt>
      <trkpt lat="48.5889" lon="6.44582">
        <ele>259</ele>
        <time>2017-06-26T11:19:34Z</time>
      </trkpt>
      <trkpt lat="48.58891" lon="6.44583">
        <ele>260</ele>
        <time>2017-06-26T11:19:35Z</time>
      </trkpt>
      <trkpt lat="48.58892" lon="6.44585">
        <ele>260</ele>
        <time>2017-06-26T11:19:36Z</time>
      </trkpt>
      <trkpt lat="48.58892" lon="6.44586">
        <ele>260</ele>
        <time>2017-06-26T11:19:37Z</time>
      </trkpt>
      <trkpt lat="48.58893" lon="6.44588">
        <ele>260</ele>
        <time>2017-06-26T11:19:38Z</time>
      </trkpt>
      <trkpt lat="48.58894" lon="6.44589">
        <ele>260</ele>
        <time>2017-06-26T11:19:39Z</time>
      </trkpt>
      <trkpt lat="48.58897" lon="6.44597">
        <ele>260</ele>
        <time>2017-06-26T11:19:40Z</time>
      </trkpt>
      <trkpt lat="48.58898" lon="6.44599">
        <ele>260</ele>
        <time>2017-06-26T11:19:41Z</time>
      </trkpt>
      <trkpt lat="48.58899" lon="6.44601">
        <ele>260</ele>
        <time>2017-06-26T11:19:42Z</time>
      </trkpt>
      <trkpt lat="48.589" lon="6.44602">
        <ele>260</ele>
        <time>2017-06-26T11:19:43Z</time>
      </trkpt>
      <trkpt lat="48.589" lon="6.44604">
        <ele>260</ele>
        <time>2017-06-26T11:19:44Z</time>
      </trkpt>
      <trkpt lat="48.58904" lon="6.44611">
        <ele>260</ele>
        <time>2017-06-26T11:19:45Z</time>
      </trkpt>
      <trkpt lat="48.58905" lon="6.44614">
        <ele>260</ele>
        <time>2017-06-26T11:19:46Z</time>
      </trkpt>
      <trkpt lat="48.58907" lon="6.44617">
        <ele>260</ele>
        <time>2017-06-26T11:19:47Z</time>
      </trkpt>
      <trkpt lat="48.58909" lon="6.4462">
        <ele>260</ele>
        <time>2017-06-26T11:19:48Z</time>
      </trkpt>
      <trkpt lat="48.5891" lon="6.44623">
        <ele>260</ele>
        <time>2017-06-26T11:19:49Z</time>
      </trkpt>
      <trkpt lat="48.58911" lon="6.44625">
        <ele>260</ele>
        <time>2017-06-26T11:19:50Z</time>
      </trkpt>
      <trkpt lat="48.58912" lon="6.44627">
        <ele>260</ele>
        <time>2017-06-26T11:19:51Z</time>
      </trkpt>
      <trkpt lat="48.58913" lon="6.44629">
        <ele>260</ele>
        <time>2017-06-26T11:19:52Z</time>
      </trkpt>
      <trkpt lat="48.58914" lon="6.4463">
        <ele>260</ele>
        <time>2017-06-26T11:19:53Z</time>
      </trkpt>
      <trkpt lat="48.58917" lon="6.44637">
        <ele>260</ele>
        <time>2017-06-26T11:19:54Z</time>
      </trkpt>
      <trkpt lat="48.58918" lon="6.44639">
        <ele>260</ele>
        <time>2017-06-26T11:19:55Z</time>
      </trkpt>
      <trkpt lat="48.58918" lon="6.4464">
        <ele>260</ele>
        <time>2017-06-26T11:19:56Z</time>
      </trkpt>
      <trkpt lat="48.58919" lon="6.44641">
        <ele>260</ele>
        <time>2017-06-26T11:19:57Z</time>
      </trkpt>
      <trkpt lat="48.5892" lon="6.44642">
        <ele>260</ele>
        <time>2017-06-26T11:19:58Z</time>
      </trkpt>
      <trkpt lat="48.5892" lon="6.44644">
        <ele>260</ele>
        <time>2017-06-26T11:19:59Z</time>
      </trkpt>
      <trkpt lat="48.58923" lon="6.4465">
        <ele>260</ele>
        <time>2017-06-26T11:20:00Z</time>
      </trkpt>
      <trkpt lat="48.58924" lon="6.44652">
        <ele>260</ele>
        <time>2017-06-26T11:20:01Z</time>
      </trkpt>
      <trkpt lat="48.58925" lon="6.44653">
        <ele>260</ele>
        <time>2017-06-26T11:20:02Z</time>
      </trkpt>
      <trkpt lat="48.58925" lon="6.44654">
        <ele>260</ele>
        <time>2017-06-26T11:20:03Z</time>
      </trkpt>
      <trkpt lat="48.58926" lon="6.44656">
        <ele>260</ele>
        <time>2017-06-26T11:20:04Z</time>
      </trkpt>
      <trkpt lat="48.58927" lon="6.44657">
        <ele>262</ele>
        <time>2017-06-26T11:20:05Z</time>
      </trkpt>
      <trkpt lat="48.5893" lon="6.44664">
        <ele>262</ele>
        <time>2017-06-26T11:20:06Z</time>
      </trkpt>
      <trkpt lat="48.58931" lon="6.44666">
        <ele>262</ele>
        <time>2017-06-26T11:20:07Z</time>
      </trkpt>
      <trkpt lat="48.58932" lon="6.44669">
        <ele>262</ele>
        <time>2017-06-26T11:20:08Z</time>
      </trkpt>
      <trkpt lat="48.58933" lon="6.44671">
        <ele>262</ele>
        <time>2017-06-26T11:20:09Z</time>
      </trkpt>
      <trkpt lat="48.58934" lon="6.44674">
        <ele>262</ele>
        <time>2017-06-26T11:20:10Z</time>
      </trkpt>
      <trkpt lat="48.58936" lon="6.44676">
        <ele>262</ele>
        <time>2017-06-26T11:20:11Z</time>
      </trkpt>
      <trkpt lat="48.58937" lon="6.44678">
        <ele>262</ele>
        <time>2017-06-26T11:20:12Z</time>
      </trkpt>
      <trkpt lat="48.58938" lon="6.44679">
        <ele>262</ele>
        <time>2017-06-26T11:20:13Z</time>
      </trkpt>
      <trkpt lat="48.58938" lon="6.44681">
        <ele>262</ele>
        <time>2017-06-26T11:20:14Z</time>
      </trkpt>
      <trkpt lat="48.58939" lon="6.44682">
        <ele>262</ele>
        <time>2017-06-26T11:20:15Z</time>
      </trkpt>
      <trkpt lat="48.58943" lon="6.44688">
        <ele>262</ele>
        <time>2017-06-26T11:20:16Z</time>
      </trkpt>
      <trkpt lat="48.58944" lon="6.4469">
        <ele>262</ele>
        <time>2017-06-26T11:20:17Z</time>
      </trkpt>
      <trkpt lat="48.58946" lon="6.44693">
        <ele>262</ele>
        <time>2017-06-26T11:20:18Z</time>
      </trkpt>
      <trkpt lat="48.58947" lon="6.44695">
        <ele>262</ele>
        <time>2017-06-26T11:20:19Z</time>
      </trkpt>
      <trkpt lat="48.58949" lon="6.44697">
        <ele>262</ele>
        <time>2017-06-26T11:20:20Z</time>
      </trkpt>
      <trkpt lat="48.5895" lon="6.44699">
        <ele>262</ele>
        <time>2017-06-26T11:20:21Z</time>
      </trkpt>
      <trkpt lat="48.58952" lon="6.44701">
        <ele>262</ele>
        <time>2017-06-26T11:20:22Z</time>
      </trkpt>
      <trkpt lat="48.58953" lon="6.44703">
        <ele>262</ele>
        <time>2017-06-26T11:20:23Z</time>
      </trkpt>
      <trkpt lat="48.58955" lon="6.44705">
        <ele>262</ele>
        <time>2017-06-26T11:20:24Z</time>
      </trkpt>
      <trkpt lat="48.58956" lon="6.44707">
        <ele>262</ele>
        <time>2017-06-26T11:20:25Z</time>
      </trkpt>
      <trkpt lat="48.58958" lon="6.44709">
        <ele>262</ele>
        <time>2017-06-26T11:20:26Z</time>
      </trkpt>
      <trkpt lat="48.58959" lon="6.44711">
        <ele>262</ele>
        <time>2017-06-26T11:20:27Z</time>
      </trkpt>
      <trkpt lat="48.5896" lon="6.44712">
        <ele>262</ele>
        <time>2017-06-26T11:20:28Z</time>
      </trkpt>
      <trkpt lat="48.58961" lon="6.44713">
        <ele>262</ele>
        <time>2017-06-26T11:20:29Z</time>
      </trkpt>
      <trkpt lat="48.58962" lon="6.44714">
        <ele>262</ele>
        <time>2017-06-26T11:20:30Z</time>
      </trkpt>
      <trkpt lat="48.58966" lon="6.4472">
        <ele>262</ele>
        <time>2017-06-26T11:20:31Z</time>
      </trkpt>
      <trkpt lat="48.58967" lon="6.44721">
        <ele>262</ele>
        <time>2017-06-26T11:20:32Z</time>
      </trkpt>
      <trkpt lat="48.58968" lon="6.44723">
        <ele>262</ele>
        <time>2017-06-26T11:20:33Z</time>
      </trkpt>
      <trkpt lat="48.5897" lon="6.44724">
        <ele>262</ele>
        <time>2017-06-26T11:20:34Z</time>
      </trkpt>
      <trkpt lat="48.58971" lon="6.44725">
        <ele>262</ele>
        <time>2017-06-26T11:20:35Z</time>
      </trkpt>
      <trkpt lat="48.58975" lon="6.44731">
        <ele>262</ele>
        <time>2017-06-26T11:20:36Z</time>
      </trkpt>
      <trkpt lat="48.58976" lon="6.44733">
        <ele>262</ele>
        <time>2017-06-26T11:20:37Z</time>
      </trkpt>
      <trkpt lat="48.58977" lon="6.44734">
        <ele>262</ele>
        <time>2017-06-26T11:20:38Z</time>
      </trkpt>
      <trkpt lat="48.58978" lon="6.44735">
        <ele>262</ele>
        <time>2017-06-26T11:20:39Z</time>
      </trkpt>
      <trkpt lat="48.58979" lon="6.44737">
        <ele>262</ele>
        <time>2017-06-26T11:20:40Z</time>
      </trkpt>
      <trkpt lat="48.58983" lon="6.44742">
        <ele>262</ele>
        <time>2017-06-26T11:20:41Z</time>
      </trkpt>
      <trkpt lat="48.58984" lon="6.44744">
        <ele>262</ele>
        <time>2017-06-26T11:20:42Z</time>
      </trkpt>
      <trkpt lat="48.58985" lon="6.44745">
        <ele>262</ele>
        <time>2017-06-26T11:20:43Z</time>
      </trkpt>
      <trkpt lat="48.58986" lon="6.44746">
        <ele>262</ele>
        <time>2017-06-26T11:20:44Z</time>
      </trkpt>
      <trkpt lat="48.58987" lon="6.44748">
        <ele>262</ele>
        <time>2017-06-26T11:20:45Z</time>
      </trkpt>
      <trkpt lat="48.58991" lon="6.44754">
        <ele>262</ele>
        <time>2017-06-26T11:20:46Z</time>
      </trkpt>
      <trkpt lat="48.58992" lon="6.44755">
        <ele>262</ele>
        <time>2017-06-26T11:20:47Z</time>
      </trkpt>
      <trkpt lat="48.58994" lon="6.44757">
        <ele>262</ele>
        <time>2017-06-26T11:20:48Z</time>
      </trkpt>
      <trkpt lat="48.58995" lon="6.44758">
        <ele>262</ele>
        <time>2017-06-26T11:20:49Z</time>
      </trkpt>
      <trkpt lat="48.58996" lon="6.4476">
        <ele>262</ele>
        <time>2017-06-26T11:20:50Z</time>
      </trkpt>
      <trkpt lat="48.59001" lon="6.44766">
        <ele>262</ele>
        <time>2017-06-26T11:20:51Z</time>
      </trkpt>
      <trkpt lat="48.59002" lon="6.44767">
        <ele>262</ele>
        <time>2017-06-26T11:20:52Z</time>
      </trkpt>
      <trkpt lat="48.59003" lon="6.44768">
        <ele>262</ele>
        <time>2017-06-26T11:20:53Z</time>
      </trkpt>
      <trkpt lat="48.59004" lon="6.4477">
        <ele>262</ele>
        <time>2017-06-26T11:20:54Z</time>
      </trkpt>
      <trkpt lat="48.59005" lon="6.44771">
        <ele>262</ele>
        <time>2017-06-26T11:20:55Z</time>
      </trkpt>
      <trkpt lat="48.59009" lon="6.44777">
        <ele>262</ele>
        <time>2017-06-26T11:20:56Z</time>
      </trkpt>
      <trkpt lat="48.59011" lon="6.44779">
        <ele>262</ele>
        <time>2017-06-26T11:20:57Z</time>
      </trkpt>
      <trkpt lat="48.59012" lon="6.4478">
        <ele>262</ele>
        <time>2017-06-26T11:20:58Z</time>
      </trkpt>
      <trkpt lat="48.59014" lon="6.44782">
        <ele>262</ele>
        <time>2017-06-26T11:20:59Z</time>
      </trkpt>
      <trkpt lat="48.59018" lon="6.44787">
        <ele>262</ele>
        <time>2017-06-26T11:21:00Z</time>
      </trkpt>
      <trkpt lat="48.59019" lon="6.44788">
        <ele>262</ele>
        <time>2017-06-26T11:21:01Z</time>
      </trkpt>
      <trkpt lat="48.5902" lon="6.44789">
        <ele>262</ele>
        <time>2017-06-26T11:21:02Z</time>
      </trkpt>
      <trkpt lat="48.59021" lon="6.44791">
        <ele>262</ele>
        <time>2017-06-26T11:21:03Z</time>
      </trkpt>
      <trkpt lat="48.59022" lon="6.44792">
        <ele>262</ele>
        <time>2017-06-26T11:21:04Z</time>
      </trkpt>
      <trkpt lat="48.59027" lon="6.44798">
        <ele>260</ele>
        <time>2017-06-26T11:21:05Z</time>
      </trkpt>
      <trkpt lat="48.59028" lon="6.448">
        <ele>260</ele>
        <time>2017-06-26T11:21:06Z</time>
      </trkpt>
      <trkpt lat="48.59029" lon="6.44801">
        <ele>260</ele>
        <time>2017-06-26T11:21:07Z</time>
      </trkpt>
      <trkpt lat="48.59029" lon="6.44803">
        <ele>260</ele>
        <time>2017-06-26T11:21:08Z</time>
      </trkpt>
      <trkpt lat="48.5903" lon="6.44804">
        <ele>260</ele>
        <time>2017-06-26T11:21:09Z</time>
      </trkpt>
      <trkpt lat="48.59033" lon="6.4481">
        <ele>260</ele>
        <time>2017-06-26T11:21:10Z</time>
      </trkpt>
      <trkpt lat="48.59034" lon="6.44812">
        <ele>260</ele>
        <time>2017-06-26T11:21:11Z</time>
      </trkpt>
      <trkpt lat="48.59035" lon="6.44813">
        <ele>260</ele>
        <time>2017-06-26T11:21:12Z</time>
      </trkpt>
      <trkpt lat="48.59036" lon="6.44815">
        <ele>260</ele>
        <time>2017-06-26T11:21:13Z</time>
      </trkpt>
      <trkpt lat="48.59037" lon="6.44816">
        <ele>260</ele>
        <time>2017-06-26T11:21:14Z</time>
      </trkpt>
      <trkpt lat="48.59041" lon="6.44822">
        <ele>260</ele>
        <time>2017-06-26T11:21:15Z</time>
      </trkpt>
      <trkpt lat="48.59042" lon="6.44824">
        <ele>260</ele>
        <time>2017-06-26T11:21:16Z</time>
      </trkpt>
      <trkpt lat="48.59043" lon="6.44825">
        <ele>260</ele>
        <time>2017-06-26T11:21:17Z</time>
      </trkpt>
      <trkpt lat="48.59044" lon="6.44826">
        <ele>260</ele>
        <time>2017-06-26T11:21:18Z</time>
      </trkpt>
      <trkpt lat="48.59045" lon="6.44828">
        <ele>260</ele>
        <time>2017-06-26T11:21:19Z</time>
      </trkpt>
      <trkpt lat="48.59049" lon="6.44833">
        <ele>260</ele>
        <time>2017-06-26T11:21:20Z</time>
      </trkpt>
      <trkpt lat="48.59051" lon="6.44834">
        <ele>260</ele>
        <time>2017-06-26T11:21:21Z</time>
      </trkpt>
      <trkpt lat="48.59052" lon="6.44836">
        <ele>260</ele>
        <time>2017-06-26T11:21:22Z</time>
      </trkpt>
      <trkpt lat="48.59053" lon="6.44838">
        <ele>260</ele>
        <time>2017-06-26T11:21:23Z</time>
      </trkpt>
      <trkpt lat="48.59054" lon="6.4484">
        <ele>260</ele>
        <time>2017-06-26T11:21:24Z</time>
      </trkpt>
      <trkpt lat="48.59058" lon="6.44846">
        <ele>259</ele>
        <time>2017-06-26T11:21:25Z</time>
      </trkpt>
      <trkpt lat="48.59059" lon="6.44849">
        <ele>259</ele>
        <time>2017-06-26T11:21:26Z</time>
      </trkpt>
      <trkpt lat="48.5906" lon="6.44851">
        <ele>259</ele>
        <time>2017-06-26T11:21:27Z</time>
      </trkpt>
      <trkpt lat="48.59061" lon="6.44853">
        <ele>259</ele>
        <time>2017-06-26T11:21:28Z</time>
      </trkpt>
      <trkpt lat="48.59065" lon="6.44859">
        <ele>259</ele>
        <time>2017-06-26T11:21:29Z</time>
      </trkpt>
      <trkpt lat="48.59066" lon="6.44862">
        <ele>259</ele>
        <time>2017-06-26T11:21:30Z</time>
      </trkpt>
      <trkpt lat="48.59068" lon="6.44864">
        <ele>259</ele>
        <time>2017-06-26T11:21:31Z</time>
      </trkpt>
      <trkpt lat="48.5907" lon="6.44867">
        <ele>259</ele>
        <time>2017-06-26T11:21:32Z</time>
      </trkpt>
      <trkpt lat="48.59072" lon="6.4487">
        <ele>259</ele>
        <time>2017-06-26T11:21:33Z</time>
      </trkpt>
      <trkpt lat="48.59073" lon="6.44872">
        <ele>259</ele>
        <time>2017-06-26T11:21:34Z</time>
      </trkpt>
      <trkpt lat="48.59074" lon="6.44874">
        <ele>259</ele>
        <time>2017-06-26T11:21:35Z</time>
      </trkpt>
      <trkpt lat="48.59075" lon="6.44875">
        <ele>259</ele>
        <time>2017-06-26T11:21:36Z</time>
      </trkpt>
      <trkpt lat="48.59079" lon="6.44881">
        <ele>259</ele>
        <time>2017-06-26T11:21:37Z</time>
      </trkpt>
      <trkpt lat="48.5908" lon="6.44882">
        <ele>259</ele>
        <time>2017-06-26T11:21:38Z</time>
      </trkpt>
      <trkpt lat="48.59082" lon="6.44884">
        <ele>259</ele>
        <time>2017-06-26T11:21:39Z</time>
      </trkpt>
      <trkpt lat="48.59083" lon="6.44885">
        <ele>259</ele>
        <time>2017-06-26T11:21:40Z</time>
      </trkpt>
      <trkpt lat="48.59084" lon="6.44887">
        <ele>259</ele>
        <time>2017-06-26T11:21:41Z</time>
      </trkpt>
      <trkpt lat="48.59088" lon="6.44893">
        <ele>259</ele>
        <time>2017-06-26T11:21:42Z</time>
      </trkpt>
      <trkpt lat="48.59089" lon="6.44894">
        <ele>259</ele>
        <time>2017-06-26T11:21:43Z</time>
      </trkpt>
      <trkpt lat="48.5909" lon="6.44896">
        <ele>259</ele>
        <time>2017-06-26T11:21:44Z</time>
      </trkpt>
      <trkpt lat="48.59091" lon="6.44897">
        <ele>259</ele>
        <time>2017-06-26T11:21:45Z</time>
      </trkpt>
      <trkpt lat="48.59092" lon="6.44899">
        <ele>259</ele>
        <time>2017-06-26T11:21:46Z</time>
      </trkpt>
      <trkpt lat="48.59096" lon="6.44905">
        <ele>259</ele>
        <time>2017-06-26T11:21:47Z</time>
      </trkpt>
      <trkpt lat="48.59096" lon="6.44906">
        <ele>259</ele>
        <time>2017-06-26T11:21:48Z</time>
      </trkpt>
      <trkpt lat="48.59097" lon="6.44908">
        <ele>259</ele>
        <time>2017-06-26T11:21:49Z</time>
      </trkpt>
      <trkpt lat="48.59098" lon="6.44909">
        <ele>259</ele>
        <time>2017-06-26T11:21:50Z</time>
      </trkpt>
      <trkpt lat="48.59099" lon="6.4491">
        <ele>259</ele>
        <time>2017-06-26T11:21:51Z</time>
      </trkpt>
      <trkpt lat="48.59103" lon="6.44916">
        <ele>259</ele>
        <time>2017-06-26T11:21:52Z</time>
      </trkpt>
      <trkpt lat="48.59104" lon="6.44918">
        <ele>259</ele>
        <time>2017-06-26T11:21:53Z</time>
      </trkpt>
      <trkpt lat="48.59105" lon="6.44919">
        <ele>259</ele>
        <time>2017-06-26T11:21:54Z</time>
      </trkpt>
      <trkpt lat="48.59106" lon="6.4492">
        <ele>259</ele>
        <time>2017-06-26T11:21:55Z</time>
      </trkpt>
      <trkpt lat="48.59107" lon="6.44922">
        <ele>259</ele>
        <time>2017-06-26T11:21:56Z</time>
      </trkpt>
      <trkpt lat="48.59111" lon="6.44928">
        <ele>259</ele>
        <time>2017-06-26T11:21:57Z</time>
      </trkpt>
      <trkpt lat="48.59112" lon="6.4493">
        <ele>259</ele>
        <time>2017-06-26T11:21:58Z</time>
      </trkpt>
      <trkpt lat="48.59113" lon="6.44931">
        <ele>259</ele>
        <time>2017-06-26T11:21:59Z</time>
      </trkpt>
      <trkpt lat="48.59114" lon="6.44933">
        <ele>259</ele>
        <time>2017-06-26T11:22:00Z</time>
      </trkpt>
      <trkpt lat="48.59115" lon="6.44935">
        <ele>259</ele>
        <time>2017-06-26T11:22:01Z</time>
      </trkpt>
      <trkpt lat="48.5912" lon="6.44941">
        <ele>259</ele>
        <time>2017-06-26T11:22:02Z</time>
      </trkpt>
      <trkpt lat="48.59121" lon="6.44944">
        <ele>259</ele>
        <time>2017-06-26T11:22:03Z</time>
      </trkpt>
      <trkpt lat="48.59123" lon="6.44947">
        <ele>259</ele>
        <time>2017-06-26T11:22:04Z</time>
      </trkpt>
      <trkpt lat="48.59125" lon="6.4495">
        <ele>258</ele>
        <time>2017-06-26T11:22:05Z</time>
      </trkpt>
      <trkpt lat="48.59127" lon="6.44952">
        <ele>258</ele>
        <time>2017-06-26T11:22:06Z</time>
      </trkpt>
      <trkpt lat="48.59128" lon="6.44954">
        <ele>258</ele>
        <time>2017-06-26T11:22:07Z</time>
      </trkpt>
      <trkpt lat="48.59129" lon="6.44955">
        <ele>258</ele>
        <time>2017-06-26T11:22:08Z</time>
      </trkpt>
      <trkpt lat="48.5913" lon="6.44957">
        <ele>258</ele>
        <time>2017-06-26T11:22:09Z</time>
      </trkpt>
      <trkpt lat="48.5913" lon="6.44958">
        <ele>258</ele>
        <time>2017-06-26T11:22:10Z</time>
      </trkpt>
      <trkpt lat="48.59134" lon="6.44964">
        <ele>258</ele>
        <time>2017-06-26T11:22:11Z</time>
      </trkpt>
      <trkpt lat="48.59135" lon="6.44966">
        <ele>258</ele>
        <time>2017-06-26T11:22:12Z</time>
      </trkpt>
      <trkpt lat="48.59136" lon="6.44967">
        <ele>258</ele>
        <time>2017-06-26T11:22:13Z</time>
      </trkpt>
      <trkpt lat="48.59137" lon="6.44969">
        <ele>258</ele>
        <time>2017-06-26T11:22:14Z</time>
      </trkpt>
      <trkpt lat="48.59138" lon="6.44971">
        <ele>258</ele>
        <time>2017-06-26T11:22:15Z</time>
      </trkpt>
      <trkpt lat="48.59142" lon="6.44978">
        <ele>258</ele>
        <time>2017-06-26T11:22:16Z</time>
      </trkpt>
      <trkpt lat="48.59143" lon="6.44979">
        <ele>258</ele>
        <time>2017-06-26T11:22:17Z</time>
      </trkpt>
      <trkpt lat="48.59144" lon="6.44981">
        <ele>258</ele>
        <time>2017-06-26T11:22:18Z</time>
      </trkpt>
      <trkpt lat="48.59145" lon="6.44982">
        <ele>258</ele>
        <time>2017-06-26T11:22:19Z</time>
      </trkpt>
      <trkpt lat="48.59146" lon="6.44984">
        <ele>258</ele>
        <time>2017-06-26T11:22:20Z</time>
      </trkpt>
      <trkpt lat="48.5915" lon="6.4499">
        <ele>258</ele>
        <time>2017-06-26T11:22:21Z</time>
      </trkpt>
      <trkpt lat="48.59151" lon="6.44991">
        <ele>258</ele>
        <time>2017-06-26T11:22:22Z</time>
      </trkpt>
      <trkpt lat="48.59152" lon="6.44993">
        <ele>258</ele>
        <time>2017-06-26T11:22:23Z</time>
      </trkpt>
      <trkpt lat="48.59154" lon="6.44994">
        <ele>258</ele>
        <time>2017-06-26T11:22:24Z</time>
      </trkpt>
      <trkpt lat="48.59155" lon="6.44996">
        <ele>258</ele>
        <time>2017-06-26T11:22:25Z</time>
      </trkpt>
      <trkpt lat="48.59159" lon="6.45003">
        <ele>258</ele>
        <time>2017-06-26T11:22:26Z</time>
      </trkpt>
      <trkpt lat="48.5916" lon="6.45005">
        <ele>258</ele>
        <time>2017-06-26T11:22:27Z</time>
      </trkpt>
      <trkpt lat="48.59162" lon="6.45007">
        <ele>258</ele>
        <time>2017-06-26T11:22:28Z</time>
      </trkpt>
      <trkpt lat="48.59163" lon="6.4501">
        <ele>258</ele>
        <time>2017-06-26T11:22:29Z</time>
      </trkpt>
      <trkpt lat="48.59165" lon="6.45012">
        <ele>258</ele>
        <time>2017-06-26T11:22:30Z</time>
      </trkpt>
      <trkpt lat="48.59166" lon="6.45014">
        <ele>258</ele>
        <time>2017-06-26T11:22:31Z</time>
      </trkpt>
      <trkpt lat="48.59167" lon="6.45016">
        <ele>258</ele>
        <time>2017-06-26T11:22:32Z</time>
      </trkpt>
      <trkpt lat="48.59167" lon="6.45017">
        <ele>258</ele>
        <time>2017-06-26T11:22:33Z</time>
      </trkpt>
      <trkpt lat="48.59168" lon="6.45019">
        <ele>258</ele>
        <time>2017-06-26T11:22:34Z</time>
      </trkpt>
      <trkpt lat="48.59169" lon="6.4502">
        <ele>258</ele>
        <time>2017-06-26T11:22:35Z</time>
      </trkpt>
      <trkpt lat="48.59169" lon="6.45022">
        <ele>258</ele>
        <time>2017-06-26T11:22:36Z</time>
      </trkpt>
      <trkpt lat="48.59173" lon="6.45029">
        <ele>258</ele>
        <time>2017-06-26T11:22:37Z</time>
      </trkpt>
      <trkpt lat="48.59173" lon="6.4503">
        <ele>258</ele>
        <time>2017-06-26T11:22:38Z</time>
      </trkpt>
      <trkpt lat="48.59174" lon="6.45032">
        <ele>258</ele>
        <time>2017-06-26T11:22:39Z</time>
      </trkpt>
      <trkpt lat="48.59174" lon="6.45034">
        <ele>258</ele>
        <time>2017-06-26T11:22:40Z</time>
      </trkpt>
      <trkpt lat="48.59175" lon="6.45035">
        <ele>258</ele>
        <time>2017-06-26T11:22:41Z</time>
      </trkpt>
      <trkpt lat="48.59175" lon="6.45037">
        <ele>258</ele>
        <time>2017-06-26T11:22:42Z</time>
      </trkpt>
      <trkpt lat="48.59177" lon="6.45044">
        <ele>258</ele>
        <time>2017-06-26T11:22:43Z</time>
      </trkpt>
      <trkpt lat="48.59177" lon="6.45046">
        <ele>258</ele>
        <time>2017-06-26T11:22:44Z</time>
      </trkpt>
      <trkpt lat="48.59177" lon="6.45048">
        <ele>259</ele>
        <time>2017-06-26T11:22:45Z</time>
      </trkpt>
      <trkpt lat="48.59177" lon="6.45049">
        <ele>259</ele>
        <time>2017-06-26T11:22:46Z</time>
      </trkpt>
      <trkpt lat="48.59178" lon="6.45051">
        <ele>259</ele>
        <time>2017-06-26T11:22:47Z</time>
      </trkpt>
      <trkpt lat="48.59178" lon="6.45053">
        <ele>259</ele>
        <time>2017-06-26T11:22:48Z</time>
      </trkpt>
      <trkpt lat="48.59179" lon="6.45061">
        <ele>259</ele>
        <time>2017-06-26T11:22:49Z</time>
      </trkpt>
      <trkpt lat="48.59179" lon="6.45063">
        <ele>259</ele>
        <time>2017-06-26T11:22:50Z</time>
      </trkpt>
      <trkpt lat="48.5918" lon="6.45065">
        <ele>259</ele>
        <time>2017-06-26T11:22:51Z</time>
      </trkpt>
      <trkpt lat="48.5918" lon="6.45067">
        <ele>259</ele>
        <time>2017-06-26T11:22:52Z</time>
      </trkpt>
      <trkpt lat="48.59181" lon="6.45068">
        <ele>259</ele>
        <time>2017-06-26T11:22:53Z</time>
      </trkpt>
      <trkpt lat="48.59183" lon="6.45075">
        <ele>259</ele>
        <time>2017-06-26T11:22:54Z</time>
      </trkpt>
      <trkpt lat="48.59184" lon="6.45077">
        <ele>261</ele>
        <time>2017-06-26T11:22:55Z</time>
      </trkpt>
      <trkpt lat="48.59185" lon="6.45079">
        <ele>261</ele>
        <time>2017-06-26T11:22:56Z</time>
      </trkpt>
      <trkpt lat="48.59185" lon="6.45081">
        <ele>261</ele>
        <time>2017-06-26T11:22:57Z</time>
      </trkpt>
      <trkpt lat="48.59186" lon="6.45083">
        <ele>261</ele>
        <time>2017-06-26T11:22:58Z</time>
      </trkpt>
      <trkpt lat="48.59189" lon="6.4509">
        <ele>261</ele>
        <time>2017-06-26T11:22:59Z</time>
      </trkpt>
      <trkpt lat="48.5919" lon="6.45093">
        <ele>261</ele>
        <time>2017-06-26T11:23:00Z</time>
      </trkpt>
      <trkpt lat="48.59191" lon="6.45096">
        <ele>261</ele>
        <time>2017-06-26T11:23:01Z</time>
      </trkpt>
      <trkpt lat="48.59192" lon="6.45098">
        <ele>261</ele>
        <time>2017-06-26T11:23:02Z</time>
      </trkpt>
      <trkpt lat="48.59193" lon="6.45101">
        <ele>261</ele>
        <time>2017-06-26T11:23:03Z</time>
      </trkpt>
      <trkpt lat="48.59194" lon="6.45104">
        <ele>261</ele>
        <time>2017-06-26T11:23:04Z</time>
      </trkpt>
      <trkpt lat="48.59195" lon="6.45106">
        <ele>262</ele>
        <time>2017-06-26T11:23:05Z</time>
      </trkpt>
      <trkpt lat="48.59195" lon="6.45107">
        <ele>262</ele>
        <time>2017-06-26T11:23:06Z</time>
      </trkpt>
      <trkpt lat="48.59196" lon="6.45109">
        <ele>262</ele>
        <time>2017-06-26T11:23:07Z</time>
      </trkpt>
      <trkpt lat="48.59196" lon="6.45111">
        <ele>262</ele>
        <time>2017-06-26T11:23:08Z</time>
      </trkpt>
      <trkpt lat="48.59198" lon="6.45119">
        <ele>262</ele>
        <time>2017-06-26T11:23:09Z</time>
      </trkpt>
      <trkpt lat="48.59198" lon="6.45121">
        <ele>262</ele>
        <time>2017-06-26T11:23:10Z</time>
      </trkpt>
      <trkpt lat="48.59198" lon="6.45123">
        <ele>262</ele>
        <time>2017-06-26T11:23:11Z</time>
      </trkpt>
      <trkpt lat="48.59198" lon="6.45125">
        <ele>262</ele>
        <time>2017-06-26T11:23:12Z</time>
      </trkpt>
      <trkpt lat="48.59199" lon="6.45127">
        <ele>262</ele>
        <time>2017-06-26T11:23:13Z</time>
      </trkpt>
      <trkpt lat="48.59199" lon="6.45135">
        <ele>262</ele>
        <time>2017-06-26T11:23:14Z</time>
      </trkpt>
      <trkpt lat="48.59199" lon="6.45137">
        <ele>263</ele>
        <time>2017-06-26T11:23:15Z</time>
      </trkpt>
      <trkpt lat="48.59199" lon="6.45139">
        <ele>263</ele>
        <time>2017-06-26T11:23:16Z</time>
      </trkpt>
      <trkpt lat="48.59199" lon="6.45141">
        <ele>263</ele>
        <time>2017-06-26T11:23:17Z</time>
      </trkpt>
      <trkpt lat="48.59198" lon="6.45143">
        <ele>263</ele>
        <time>2017-06-26T11:23:18Z</time>
      </trkpt>
      <trkpt lat="48.59197" lon="6.4515">
        <ele>263</ele>
        <time>2017-06-26T11:23:19Z</time>
      </trkpt>
      <trkpt lat="48.59196" lon="6.45153">
        <ele>263</ele>
        <time>2017-06-26T11:23:20Z</time>
      </trkpt>
      <trkpt lat="48.59195" lon="6.45156">
        <ele>263</ele>
        <time>2017-06-26T11:23:21Z</time>
      </trkpt>
      <trkpt lat="48.59195" lon="6.45159">
        <ele>263</ele>
        <time>2017-06-26T11:23:22Z</time>
      </trkpt>
      <trkpt lat="48.59194" lon="6.45161">
        <ele>263</ele>
        <time>2017-06-26T11:23:23Z</time>
      </trkpt>
      <trkpt lat="48.59193" lon="6.45164">
        <ele>263</ele>
        <time>2017-06-26T11:23:24Z</time>
      </trkpt>
      <trkpt lat="48.59192" lon="6.45166">
        <ele>263</ele>
        <time>2017-06-26T11:23:25Z</time>
      </trkpt>
      <trkpt lat="48.59192" lon="6.45167">
        <ele>263</ele>
        <time>2017-06-26T11:23:26Z</time>
      </trkpt>
      <trkpt lat="48.59191" lon="6.45168">
        <ele>263</ele>
        <time>2017-06-26T11:23:27Z</time>
      </trkpt>
      <trkpt lat="48.5919" lon="6.4517">
        <ele>263</ele>
        <time>2017-06-26T11:23:28Z</time>
      </trkpt>
      <trkpt lat="48.5919" lon="6.45171">
        <ele>263</ele>
        <time>2017-06-26T11:23:29Z</time>
      </trkpt>
      <trkpt lat="48.59187" lon="6.45178">
        <ele>263</ele>
        <time>2017-06-26T11:23:30Z</time>
      </trkpt>
      <trkpt lat="48.59186" lon="6.4518">
        <ele>263</ele>
        <time>2017-06-26T11:23:31Z</time>
      </trkpt>
      <trkpt lat="48.59185" lon="6.45183">
        <ele>263</ele>
        <time>2017-06-26T11:23:32Z</time>
      </trkpt>
      <trkpt lat="48.59185" lon="6.45185">
        <ele>263</ele>
        <time>2017-06-26T11:23:33Z</time>
      </trkpt>
      <trkpt lat="48.59184" lon="6.45187">
        <ele>263</ele>
        <time>2017-06-26T11:23:34Z</time>
      </trkpt>
      <trkpt lat="48.59184" lon="6.4519">
        <ele>265</ele>
        <time>2017-06-26T11:23:35Z</time>
      </trkpt>
      <trkpt lat="48.59183" lon="6.45192">
        <ele>265</ele>
        <time>2017-06-26T11:23:36Z</time>
      </trkpt>
      <trkpt lat="48.59182" lon="6.45194">
        <ele>265</ele>
        <time>2017-06-26T11:23:37Z</time>
      </trkpt>
      <trkpt lat="48.59182" lon="6.45197">
        <ele>265</ele>
        <time>2017-06-26T11:23:38Z</time>
      </trkpt>
      <trkpt lat="48.59182" lon="6.45199">
        <ele>265</ele>
        <time>2017-06-26T11:23:39Z</time>
      </trkpt>
      <trkpt lat="48.59181" lon="6.45201">
        <ele>265</ele>
        <time>2017-06-26T11:23:40Z</time>
      </trkpt>
      <trkpt lat="48.59181" lon="6.45204">
        <ele>265</ele>
        <time>2017-06-26T11:23:41Z</time>
      </trkpt>
      <trkpt lat="48.5918" lon="6.45206">
        <ele>265</ele>
        <time>2017-06-26T11:23:42Z</time>
      </trkpt>
      <trkpt lat="48.59179" lon="6.45207">
        <ele>265</ele>
        <time>2017-06-26T11:23:43Z</time>
      </trkpt>
      <trkpt lat="48.59179" lon="6.45208">
        <ele>265</ele>
        <time>2017-06-26T11:23:44Z</time>
      </trkpt>
      <trkpt lat="48.59178" lon="6.45209">
        <ele>265</ele>
        <time>2017-06-26T11:23:45Z</time>
      </trkpt>
      <trkpt lat="48.59177" lon="6.4521">
        <ele>265</ele>
        <time>2017-06-26T11:23:46Z</time>
      </trkpt>
      <trkpt lat="48.59176" lon="6.4521">
        <ele>265</ele>
        <time>2017-06-26T11:23:47Z</time>
      </trkpt>
      <trkpt lat="48.59175" lon="6.45211">
        <ele>265</ele>
        <time>2017-06-26T11:23:48Z</time>
      </trkpt>
      <trkpt lat="48.59171" lon="6.45216">
        <ele>265</ele>
        <time>2017-06-26T11:23:49Z</time>
      </trkpt>
      <trkpt lat="48.5917" lon="6.45218">
        <ele>265</ele>
        <time>2017-06-26T11:23:50Z</time>
      </trkpt>
      <trkpt lat="48.5917" lon="6.45219">
        <ele>265</ele>
        <time>2017-06-26T11:23:51Z</time>
      </trkpt>
      <trkpt lat="48.5917" lon="6.4522">
        <ele>265</ele>
        <time>2017-06-26T11:23:52Z</time>
      </trkpt>
      <trkpt lat="48.5917" lon="6.45222">
        <ele>265</ele>
        <time>2017-06-26T11:23:53Z</time>
      </trkpt>
      <trkpt lat="48.59169" lon="6.45223">
        <ele>265</ele>
        <time>2017-06-26T11:23:54Z</time>
      </trkpt>
      <trkpt lat="48.59169" lon="6.45224">
        <ele>266</ele>
        <time>2017-06-26T11:23:55Z</time>
      </trkpt>
      <trkpt lat="48.59167" lon="6.45233">
        <ele>266</ele>
        <time>2017-06-26T11:23:56Z</time>
      </trkpt>
      <trkpt lat="48.59166" lon="6.45234">
        <ele>266</ele>
        <time>2017-06-26T11:23:57Z</time>
      </trkpt>
      <trkpt lat="48.59165" lon="6.45236">
        <ele>266</ele>
        <time>2017-06-26T11:23:58Z</time>
      </trkpt>
      <trkpt lat="48.59164" lon="6.45237">
        <ele>266</ele>
        <time>2017-06-26T11:23:59Z</time>
      </trkpt>
      <trkpt lat="48.59163" lon="6.45238">
        <ele>266</ele>
        <time>2017-06-26T11:24:00Z</time>
      </trkpt>
      <trkpt lat="48.59159" lon="6.45244">
        <ele>266</ele>
        <time>2017-06-26T11:24:01Z</time>
      </trkpt>
      <trkpt lat="48.59158" lon="6.45244">
        <ele>266</ele>
        <time>2017-06-26T11:24:02Z</time>
      </trkpt>
      <trkpt lat="48.59156" lon="6.45245">
        <ele>266</ele>
        <time>2017-06-26T11:24:03Z</time>
      </trkpt>
      <trkpt lat="48.59155" lon="6.45245">
        <ele>266</ele>
        <time>2017-06-26T11:24:04Z</time>
      </trkpt>
      <trkpt lat="48.59154" lon="6.45246">
        <ele>269</ele>
        <time>2017-06-26T11:24:05Z</time>
      </trkpt>
      <trkpt lat="48.59148" lon="6.45247">
        <ele>269</ele>
        <time>2017-06-26T11:24:06Z</time>
      </trkpt>
      <trkpt lat="48.59147" lon="6.45249">
        <ele>269</ele>
        <time>2017-06-26T11:24:07Z</time>
      </trkpt>
      <trkpt lat="48.59146" lon="6.4525">
        <ele>269</ele>
        <time>2017-06-26T11:24:08Z</time>
      </trkpt>
      <trkpt lat="48.59146" lon="6.45251">
        <ele>269</ele>
        <time>2017-06-26T11:24:09Z</time>
      </trkpt>
      <trkpt lat="48.59145" lon="6.45252">
        <ele>269</ele>
        <time>2017-06-26T11:24:10Z</time>
      </trkpt>
      <trkpt lat="48.59144" lon="6.45253">
        <ele>269</ele>
        <time>2017-06-26T11:24:11Z</time>
      </trkpt>
      <trkpt lat="48.5914" lon="6.45258">
        <ele>269</ele>
        <time>2017-06-26T11:24:12Z</time>
      </trkpt>
      <trkpt lat="48.59139" lon="6.4526">
        <ele>269</ele>
        <time>2017-06-26T11:24:13Z</time>
      </trkpt>
      <trkpt lat="48.59138" lon="6.45261">
        <ele>269</ele>
        <time>2017-06-26T11:24:14Z</time>
      </trkpt>
      <trkpt lat="48.59136" lon="6.45263">
        <ele>270</ele>
        <time>2017-06-26T11:24:15Z</time>
      </trkpt>
      <trkpt lat="48.59135" lon="6.45264">
        <ele>270</ele>
        <time>2017-06-26T11:24:16Z</time>
      </trkpt>
      <trkpt lat="48.59133" lon="6.45266">
        <ele>270</ele>
        <time>2017-06-26T11:24:17Z</time>
      </trkpt>
      <trkpt lat="48.59132" lon="6.45267">
        <ele>270</ele>
        <time>2017-06-26T11:24:18Z</time>
      </trkpt>
      <trkpt lat="48.5913" lon="6.45268">
        <ele>270</ele>
        <time>2017-06-26T11:24:19Z</time>
      </trkpt>
      <trkpt lat="48.59129" lon="6.45268">
        <ele>270</ele>
        <time>2017-06-26T11:24:20Z</time>
      </trkpt>
      <trkpt lat="48.59127" lon="6.45269">
        <ele>270</ele>
        <time>2017-06-26T11:24:21Z</time>
      </trkpt>
      <trkpt lat="48.59125" lon="6.4527">
        <ele>270</ele>
        <time>2017-06-26T11:24:22Z</time>
      </trkpt>
      <trkpt lat="48.59123" lon="6.4527">
        <ele>270</ele>
        <time>2017-06-26T11:24:23Z</time>
      </trkpt>
      <trkpt lat="48.59122" lon="6.45271">
        <ele>270</ele>
        <time>2017-06-26T11:24:24Z</time>
      </trkpt>
      <trkpt lat="48.59121" lon="6.45271">
        <ele>271</ele>
        <time>2017-06-26T11:24:25Z</time>
      </trkpt>
      <trkpt lat="48.5912" lon="6.45272">
        <ele>271</ele>
        <time>2017-06-26T11:24:26Z</time>
      </trkpt>
      <trkpt lat="48.59119" lon="6.45272">
        <ele>271</ele>
        <time>2017-06-26T11:24:27Z</time>
      </trkpt>
      <trkpt lat="48.59119" lon="6.45273">
        <ele>271</ele>
        <time>2017-06-26T11:24:28Z</time>
      </trkpt>
      <trkpt lat="48.59118" lon="6.45273">
        <ele>271</ele>
        <time>2017-06-26T11:24:29Z</time>
      </trkpt>
      <trkpt lat="48.59117" lon="6.45273">
        <ele>271</ele>
        <time>2017-06-26T11:24:30Z</time>
      </trkpt>
      <trkpt lat="48.59112" lon="6.45276">
        <ele>271</ele>
        <time>2017-06-26T11:24:31Z</time>
      </trkpt>
      <trkpt lat="48.5911" lon="6.45277">
        <ele>271</ele>
        <time>2017-06-26T11:24:32Z</time>
      </trkpt>
      <trkpt lat="48.59108" lon="6.45278">
        <ele>271</ele>
        <time>2017-06-26T11:24:33Z</time>
      </trkpt>
      <trkpt lat="48.59106" lon="6.45279">
        <ele>271</ele>
        <time>2017-06-26T11:24:34Z</time>
      </trkpt>
      <trkpt lat="48.59104" lon="6.4528">
        <ele>272</ele>
        <time>2017-06-26T11:24:35Z</time>
      </trkpt>
      <trkpt lat="48.59102" lon="6.45281">
        <ele>272</ele>
        <time>2017-06-26T11:24:36Z</time>
      </trkpt>
      <trkpt lat="48.59101" lon="6.45281">
        <ele>272</ele>
        <time>2017-06-26T11:24:37Z</time>
      </trkpt>
      <trkpt lat="48.591" lon="6.45282">
        <ele>272</ele>
        <time>2017-06-26T11:24:38Z</time>
      </trkpt>
      <trkpt lat="48.59099" lon="6.45282">
        <ele>272</ele>
        <time>2017-06-26T11:24:39Z</time>
      </trkpt>
      <trkpt lat="48.59098" lon="6.45282">
        <ele>272</ele>
        <time>2017-06-26T11:24:40Z</time>
      </trkpt>
      <trkpt lat="48.59097" lon="6.45283">
        <ele>272</ele>
        <time>2017-06-26T11:24:41Z</time>
      </trkpt>
      <trkpt lat="48.59092" lon="6.45285">
        <ele>272</ele>
        <time>2017-06-26T11:24:42Z</time>
      </trkpt>
      <trkpt lat="48.5909" lon="6.45287">
        <ele>272</ele>
        <time>2017-06-26T11:24:43Z</time>
      </trkpt>
      <trkpt lat="48.59089" lon="6.45288">
        <ele>272</ele>
        <time>2017-06-26T11:24:44Z</time>
      </trkpt>
      <trkpt lat="48.59087" lon="6.45289">
        <ele>274</ele>
        <time>2017-06-26T11:24:45Z</time>
      </trkpt>
      <trkpt lat="48.59086" lon="6.4529">
        <ele>274</ele>
        <time>2017-06-26T11:24:46Z</time>
      </trkpt>
      <trkpt lat="48.59084" lon="6.45292">
        <ele>274</ele>
        <time>2017-06-26T11:24:47Z</time>
      </trkpt>
      <trkpt lat="48.59083" lon="6.45293">
        <ele>274</ele>
        <time>2017-06-26T11:24:48Z</time>
      </trkpt>
      <trkpt lat="48.59081" lon="6.45294">
        <ele>274</ele>
        <time>2017-06-26T11:24:49Z</time>
      </trkpt>
      <trkpt lat="48.5908" lon="6.45295">
        <ele>274</ele>
        <time>2017-06-26T11:24:50Z</time>
      </trkpt>
      <trkpt lat="48.59078" lon="6.45296">
        <ele>274</ele>
        <time>2017-06-26T11:24:51Z</time>
      </trkpt>
      <trkpt lat="48.59077" lon="6.45296">
        <ele>274</ele>
        <time>2017-06-26T11:24:52Z</time>
      </trkpt>
      <trkpt lat="48.59075" lon="6.45297">
        <ele>274</ele>
        <time>2017-06-26T11:24:53Z</time>
      </trkpt>
      <trkpt lat="48.59073" lon="6.45298">
        <ele>274</ele>
        <time>2017-06-26T11:24:54Z</time>
      </trkpt>
      <trkpt lat="48.59072" lon="6.45299">
        <ele>275</ele>
        <time>2017-06-26T11:24:55Z</time>
      </trkpt>
      <trkpt lat="48.59071" lon="6.45299">
        <ele>275</ele>
        <time>2017-06-26T11:24:56Z</time>
      </trkpt>
      <trkpt lat="48.59071" lon="6.453">
        <ele>275</ele>
        <time>2017-06-26T11:24:57Z</time>
      </trkpt>
      <trkpt lat="48.5907" lon="6.45301">
        <ele>275</ele>
        <time>2017-06-26T11:24:58Z</time>
      </trkpt>
      <trkpt lat="48.59069" lon="6.45301">
        <ele>275</ele>
        <time>2017-06-26T11:24:59Z</time>
      </trkpt>
      <trkpt lat="48.59064" lon="6.45305">
        <ele>275</ele>
        <time>2017-06-26T11:25:00Z</time>
      </trkpt>
      <trkpt lat="48.59063" lon="6.45305">
        <ele>275</ele>
        <time>2017-06-26T11:25:01Z</time>
      </trkpt>
      <trkpt lat="48.59062" lon="6.45305">
        <ele>275</ele>
        <time>2017-06-26T11:25:02Z</time>
      </trkpt>
      <trkpt lat="48.5906" lon="6.45306">
        <ele>275</ele>
        <time>2017-06-26T11:25:03Z</time>
      </trkpt>
      <trkpt lat="48.59059" lon="6.45306">
        <ele>275</ele>
        <time>2017-06-26T11:25:04Z</time>
      </trkpt>
      <trkpt lat="48.59058" lon="6.45307">
        <ele>276</ele>
        <time>2017-06-26T11:25:05Z</time>
      </trkpt>
      <trkpt lat="48.59052" lon="6.45308">
        <ele>276</ele>
        <time>2017-06-26T11:25:06Z</time>
      </trkpt>
      <trkpt lat="48.59051" lon="6.45309">
        <ele>276</ele>
        <time>2017-06-26T11:25:07Z</time>
      </trkpt>
      <trkpt lat="48.59049" lon="6.4531">
        <ele>276</ele>
        <time>2017-06-26T11:25:08Z</time>
      </trkpt>
      <trkpt lat="48.59047" lon="6.45311">
        <ele>276</ele>
        <time>2017-06-26T11:25:09Z</time>
      </trkpt>
      <trkpt lat="48.59046" lon="6.45311">
        <ele>276</ele>
        <time>2017-06-26T11:25:10Z</time>
      </trkpt>
      <trkpt lat="48.59044" lon="6.45312">
        <ele>276</ele>
        <time>2017-06-26T11:25:11Z</time>
      </trkpt>
      <trkpt lat="48.59042" lon="6.45313">
        <ele>276</ele>
        <time>2017-06-26T11:25:12Z</time>
      </trkpt>
      <trkpt lat="48.59041" lon="6.45314">
        <ele>276</ele>
        <time>2017-06-26T11:25:13Z</time>
      </trkpt>
      <trkpt lat="48.5904" lon="6.45315">
        <ele>276</ele>
        <time>2017-06-26T11:25:14Z</time>
      </trkpt>
      <trkpt lat="48.59039" lon="6.45316">
        <ele>277</ele>
        <time>2017-06-26T11:25:15Z</time>
      </trkpt>
      <trkpt lat="48.59038" lon="6.45317">
        <ele>277</ele>
        <time>2017-06-26T11:25:16Z</time>
      </trkpt>
      <trkpt lat="48.59036" lon="6.45318">
        <ele>277</ele>
        <time>2017-06-26T11:25:17Z</time>
      </trkpt>
      <trkpt lat="48.59035" lon="6.45319">
        <ele>277</ele>
        <time>2017-06-26T11:25:18Z</time>
      </trkpt>
      <trkpt lat="48.59034" lon="6.4532">
        <ele>277</ele>
        <time>2017-06-26T11:25:19Z</time>
      </trkpt>
      <trkpt lat="48.59032" lon="6.45321">
        <ele>277</ele>
        <time>2017-06-26T11:25:20Z</time>
      </trkpt>
      <trkpt lat="48.5903" lon="6.45321">
        <ele>277</ele>
        <time>2017-06-26T11:25:21Z</time>
      </trkpt>
      <trkpt lat="48.59029" lon="6.45322">
        <ele>277</ele>
        <time>2017-06-26T11:25:22Z</time>
      </trkpt>
      <trkpt lat="48.59024" lon="6.45323">
        <ele>277</ele>
        <time>2017-06-26T11:25:23Z</time>
      </trkpt>
      <trkpt lat="48.59022" lon="6.45323">
        <ele>277</ele>
        <time>2017-06-26T11:25:24Z</time>
      </trkpt>
      <trkpt lat="48.5902" lon="6.45324">
        <ele>279</ele>
        <time>2017-06-26T11:25:25Z</time>
      </trkpt>
      <trkpt lat="48.59019" lon="6.45324">
        <ele>279</ele>
        <time>2017-06-26T11:25:26Z</time>
      </trkpt>
      <trkpt lat="48.59017" lon="6.45325">
        <ele>279</ele>
        <time>2017-06-26T11:25:27Z</time>
      </trkpt>
      <trkpt lat="48.59015" lon="6.45325">
        <ele>279</ele>
        <time>2017-06-26T11:25:28Z</time>
      </trkpt>
      <trkpt lat="48.59013" lon="6.45326">
        <ele>279</ele>
        <time>2017-06-26T11:25:29Z</time>
      </trkpt>
      <trkpt lat="48.59012" lon="6.45326">
        <ele>279</ele>
        <time>2017-06-26T11:25:31Z</time>
      </trkpt>
      <trkpt lat="48.59011" lon="6.45326">
        <ele>279</ele>
        <time>2017-06-26T11:25:33Z</time>
      </trkpt>
      <trkpt lat="48.5901" lon="6.45327">
        <ele>280</ele>
        <time>2017-06-26T11:25:35Z</time>
      </trkpt>
      <trkpt lat="48.59009" lon="6.45327">
        <ele>280</ele>
        <time>2017-06-26T11:25:37Z</time>
      </trkpt>
      <trkpt lat="48.59008" lon="6.45327">
        <ele>280</ele>
        <time>2017-06-26T11:25:39Z</time>
      </trkpt>
      <trkpt lat="48.59007" lon="6.45327">
        <ele>280</ele>
        <time>2017-06-26T11:25:40Z</time>
      </trkpt>
      <trkpt lat="48.59007" lon="6.45328">
        <ele>280</ele>
        <time>2017-06-26T11:25:41Z</time>
      </trkpt>
      <trkpt lat="48.59006" lon="6.45328">
        <ele>280</ele>
        <time>2017-06-26T11:25:42Z</time>
      </trkpt>
      <trkpt lat="48.59006" lon="6.45329">
        <ele>280</ele>
        <time>2017-06-26T11:25:47Z</time>
      </trkpt>
      <trkpt lat="48.59006" lon="6.4533">
        <ele>280</ele>
        <time>2017-06-26T11:25:51Z</time>
      </trkpt>
      <trkpt lat="48.59007" lon="6.45331">
        <ele>280</ele>
        <time>2017-06-26T11:25:56Z</time>
      </trkpt>
      <trkpt lat="48.59007" lon="6.45332">
        <ele>280</ele>
        <time>2017-06-26T11:26:01Z</time>
      </trkpt>
      <trkpt lat="48.59007" lon="6.45333">
        <ele>280</ele>
        <time>2017-06-26T11:26:05Z</time>
      </trkpt>
      <trkpt lat="48.59007" lon="6.45334">
        <ele>280</ele>
        <time>2017-06-26T11:26:10Z</time>
      </trkpt>
      <trkpt lat="48.59007" lon="6.45335">
        <ele>280</ele>
        <time>2017-06-26T11:26:14Z</time>
      </trkpt>
      <trkpt lat="48.59008" lon="6.45335">
        <ele>280</ele>
        <time>2017-06-26T11:26:15Z</time>
      </trkpt>
      <trkpt lat="48.59009" lon="6.45343">
        <ele>280</ele>
        <time>2017-06-26T11:26:18Z</time>
      </trkpt>
      <trkpt lat="48.5901" lon="6.45343">
        <ele>280</ele>
        <time>2017-06-26T11:26:19Z</time>
      </trkpt>
      <trkpt lat="48.59011" lon="6.45344">
        <ele>280</ele>
        <time>2017-06-26T11:26:20Z</time>
      </trkpt>
      <trkpt lat="48.59012" lon="6.45345">
        <ele>280</ele>
        <time>2017-06-26T11:26:21Z</time>
      </trkpt>
      <trkpt lat="48.59013" lon="6.45346">
        <ele>280</ele>
        <time>2017-06-26T11:26:22Z</time>
      </trkpt>
      <trkpt lat="48.59014" lon="6.45347">
        <ele>280</ele>
        <time>2017-06-26T11:26:23Z</time>
      </trkpt>
      <trkpt lat="48.59015" lon="6.45348">
        <ele>280</ele>
        <time>2017-06-26T11:26:24Z</time>
      </trkpt>
      <trkpt lat="48.59015" lon="6.45349">
        <ele>280</ele>
        <time>2017-06-26T11:26:25Z</time>
      </trkpt>
      <trkpt lat="48.59016" lon="6.4535">
        <ele>280</ele>
        <time>2017-06-26T11:26:26Z</time>
      </trkpt>
      <trkpt lat="48.59017" lon="6.45351">
        <ele>280</ele>
        <time>2017-06-26T11:26:27Z</time>
      </trkpt>
      <trkpt lat="48.59018" lon="6.45352">
        <ele>280</ele>
        <time>2017-06-26T11:26:28Z</time>
      </trkpt>
      <trkpt lat="48.59018" lon="6.45353">
        <ele>280</ele>
        <time>2017-06-26T11:26:29Z</time>
      </trkpt>
      <trkpt lat="48.59019" lon="6.45354">
        <ele>280</ele>
        <time>2017-06-26T11:26:30Z</time>
      </trkpt>
      <trkpt lat="48.5902" lon="6.45355">
        <ele>280</ele>
        <time>2017-06-26T11:26:31Z</time>
      </trkpt>
      <trkpt lat="48.5902" lon="6.45356">
        <ele>280</ele>
        <time>2017-06-26T11:26:32Z</time>
      </trkpt>
      <trkpt lat="48.59021" lon="6.45357">
        <ele>280</ele>
        <time>2017-06-26T11:26:33Z</time>
      </trkpt>
      <trkpt lat="48.59022" lon="6.45358">
        <ele>280</ele>
        <time>2017-06-26T11:26:34Z</time>
      </trkpt>
      <trkpt lat="48.59022" lon="6.45359">
        <ele>280</ele>
        <time>2017-06-26T11:26:35Z</time>
      </trkpt>
      <trkpt lat="48.59023" lon="6.45359">
        <ele>280</ele>
        <time>2017-06-26T11:26:36Z</time>
      </trkpt>
      <trkpt lat="48.59023" lon="6.4536">
        <ele>280</ele>
        <time>2017-06-26T11:26:37Z</time>
      </trkpt>
      <trkpt lat="48.59024" lon="6.4536">
        <ele>280</ele>
        <time>2017-06-26T11:26:38Z</time>
      </trkpt>
      <trkpt lat="48.59024" lon="6.45361">
        <ele>280</ele>
        <time>2017-06-26T11:26:39Z</time>
      </trkpt>
      <trkpt lat="48.59025" lon="6.45361">
        <ele>280</ele>
        <time>2017-06-26T11:26:40Z</time>
      </trkpt>
      <trkpt lat="48.59025" lon="6.45362">
        <ele>280</ele>
        <time>2017-06-26T11:26:41Z</time>
      </trkpt>
      <trkpt lat="48.59026" lon="6.45363">
        <ele>280</ele>
        <time>2017-06-26T11:26:43Z</time>
      </trkpt>
      <trkpt lat="48.59027" lon="6.45364">
        <ele>280</ele>
        <time>2017-06-26T11:26:45Z</time>
      </trkpt>
      <trkpt lat="48.59031" lon="6.45369">
        <ele>279</ele>
        <time>2017-06-26T11:26:47Z</time>
      </trkpt>
      <trkpt lat="48.59032" lon="6.45371">
        <ele>279</ele>
        <time>2017-06-26T11:26:48Z</time>
      </trkpt>
      <trkpt lat="48.59032" lon="6.45372">
        <ele>279</ele>
        <time>2017-06-26T11:26:49Z</time>
      </trkpt>
      <trkpt lat="48.59033" lon="6.45373">
        <ele>279</ele>
        <time>2017-06-26T11:26:50Z</time>
      </trkpt>
      <trkpt lat="48.59034" lon="6.45374">
        <ele>279</ele>
        <time>2017-06-26T11:26:51Z</time>
      </trkpt>
      <trkpt lat="48.59034" lon="6.45375">
        <ele>279</ele>
        <time>2017-06-26T11:26:52Z</time>
      </trkpt>
      <trkpt lat="48.59035" lon="6.45376">
        <ele>279</ele>
        <time>2017-06-26T11:26:53Z</time>
      </trkpt>
      <trkpt lat="48.59036" lon="6.45377">
        <ele>279</ele>
        <time>2017-06-26T11:26:54Z</time>
      </trkpt>
      <trkpt lat="48.59036" lon="6.45378">
        <ele>279</ele>
        <time>2017-06-26T11:26:55Z</time>
      </trkpt>
      <trkpt lat="48.59037" lon="6.4538">
        <ele>279</ele>
        <time>2017-06-26T11:26:56Z</time>
      </trkpt>
      <trkpt lat="48.59037" lon="6.45381">
        <ele>279</ele>
        <time>2017-06-26T11:26:57Z</time>
      </trkpt>
      <trkpt lat="48.59038" lon="6.45382">
        <ele>279</ele>
        <time>2017-06-26T11:26:58Z</time>
      </trkpt>
      <trkpt lat="48.59039" lon="6.45384">
        <ele>279</ele>
        <time>2017-06-26T11:26:59Z</time>
      </trkpt>
      <trkpt lat="48.59039" lon="6.45385">
        <ele>279</ele>
        <time>2017-06-26T11:27:00Z</time>
      </trkpt>
      <trkpt lat="48.5904" lon="6.45386">
        <ele>279</ele>
        <time>2017-06-26T11:27:01Z</time>
      </trkpt>
      <trkpt lat="48.59041" lon="6.45387">
        <ele>279</ele>
        <time>2017-06-26T11:27:02Z</time>
      </trkpt>
      <trkpt lat="48.59041" lon="6.45389">
        <ele>279</ele>
        <time>2017-06-26T11:27:03Z</time>
      </trkpt>
      <trkpt lat="48.59042" lon="6.4539">
        <ele>279</ele>
        <time>2017-06-26T11:27:04Z</time>
      </trkpt>
      <trkpt lat="48.59043" lon="6.45391">
        <ele>278</ele>
        <time>2017-06-26T11:27:05Z</time>
      </trkpt>
      <trkpt lat="48.59044" lon="6.45393">
        <ele>278</ele>
        <time>2017-06-26T11:27:06Z</time>
      </trkpt>
      <trkpt lat="48.59044" lon="6.45394">
        <ele>278</ele>
        <time>2017-06-26T11:27:07Z</time>
      </trkpt>
      <trkpt lat="48.59045" lon="6.45395">
        <ele>278</ele>
        <time>2017-06-26T11:27:08Z</time>
      </trkpt>
      <trkpt lat="48.59046" lon="6.45396">
        <ele>278</ele>
        <time>2017-06-26T11:27:09Z</time>
      </trkpt>
      <trkpt lat="48.59047" lon="6.45397">
        <ele>278</ele>
        <time>2017-06-26T11:27:10Z</time>
      </trkpt>
      <trkpt lat="48.59048" lon="6.45398">
        <ele>278</ele>
        <time>2017-06-26T11:27:11Z</time>
      </trkpt>
      <trkpt lat="48.59049" lon="6.45399">
        <ele>278</ele>
        <time>2017-06-26T11:27:12Z</time>
      </trkpt>
      <trkpt lat="48.5905" lon="6.454">
        <ele>278</ele>
        <time>2017-06-26T11:27:13Z</time>
      </trkpt>
      <trkpt lat="48.59051" lon="6.45401">
        <ele>278</ele>
        <time>2017-06-26T11:27:14Z</time>
      </trkpt>
      <trkpt lat="48.59052" lon="6.45402">
        <ele>278</ele>
        <time>2017-06-26T11:27:15Z</time>
      </trkpt>
      <trkpt lat="48.59053" lon="6.45403">
        <ele>278</ele>
        <time>2017-06-26T11:27:16Z</time>
      </trkpt>
      <trkpt lat="48.59054" lon="6.45405">
        <ele>278</ele>
        <time>2017-06-26T11:27:17Z</time>
      </trkpt>
      <trkpt lat="48.59054" lon="6.45406">
        <ele>278</ele>
        <time>2017-06-26T11:27:18Z</time>
      </trkpt>
      <trkpt lat="48.59055" lon="6.45407">
        <ele>278</ele>
        <time>2017-06-26T11:27:19Z</time>
      </trkpt>
      <trkpt lat="48.59056" lon="6.45408">
        <ele>278</ele>
        <time>2017-06-26T11:27:20Z</time>
      </trkpt>
      <trkpt lat="48.59057" lon="6.45409">
        <ele>278</ele>
        <time>2017-06-26T11:27:21Z</time>
      </trkpt>
      <trkpt lat="48.59058" lon="6.4541">
        <ele>278</ele>
        <time>2017-06-26T11:27:22Z</time>
      </trkpt>
      <trkpt lat="48.59059" lon="6.45411">
        <ele>278</ele>
        <time>2017-06-26T11:27:23Z</time>
      </trkpt>
      <trkpt lat="48.5906" lon="6.45413">
        <ele>278</ele>
        <time>2017-06-26T11:27:24Z</time>
      </trkpt>
      <trkpt lat="48.59061" lon="6.45414">
        <ele>278</ele>
        <time>2017-06-26T11:27:25Z</time>
      </trkpt>
      <trkpt lat="48.59062" lon="6.45415">
        <ele>278</ele>
        <time>2017-06-26T11:27:26Z</time>
      </trkpt>
      <trkpt lat="48.59063" lon="6.45416">
        <ele>278</ele>
        <time>2017-06-26T11:27:27Z</time>
      </trkpt>
      <trkpt lat="48.59064" lon="6.45417">
        <ele>278</ele>
        <time>2017-06-26T11:27:28Z</time>
      </trkpt>
      <trkpt lat="48.59065" lon="6.45418">
        <ele>278</ele>
        <time>2017-06-26T11:27:29Z</time>
      </trkpt>
      <trkpt lat="48.59066" lon="6.45419">
        <ele>278</ele>
        <time>2017-06-26T11:27:30Z</time>
      </trkpt>
      <trkpt lat="48.59066" lon="6.4542">
        <ele>278</ele>
        <time>2017-06-26T11:27:31Z</time>
      </trkpt>
      <trkpt lat="48.59067" lon="6.45422">
        <ele>278</ele>
        <time>2017-06-26T11:27:32Z</time>
      </trkpt>
      <trkpt lat="48.59068" lon="6.45423">
        <ele>278</ele>
        <time>2017-06-26T11:27:33Z</time>
      </trkpt>
      <trkpt lat="48.59069" lon="6.45424">
        <ele>278</ele>
        <time>2017-06-26T11:27:34Z</time>
      </trkpt>
      <trkpt lat="48.5907" lon="6.45425">
        <ele>278</ele>
        <time>2017-06-26T11:27:35Z</time>
      </trkpt>
      <trkpt lat="48.59071" lon="6.45427">
        <ele>278</ele>
        <time>2017-06-26T11:27:36Z</time>
      </trkpt>
      <trkpt lat="48.59071" lon="6.45428">
        <ele>278</ele>
        <time>2017-06-26T11:27:37Z</time>
      </trkpt>
      <trkpt lat="48.59072" lon="6.45429">
        <ele>278</ele>
        <time>2017-06-26T11:27:38Z</time>
      </trkpt>
      <trkpt lat="48.59073" lon="6.4543">
        <ele>278</ele>
        <time>2017-06-26T11:27:39Z</time>
      </trkpt>
      <trkpt lat="48.59074" lon="6.45432">
        <ele>278</ele>
        <time>2017-06-26T11:27:40Z</time>
      </trkpt>
      <trkpt lat="48.59075" lon="6.45433">
        <ele>278</ele>
        <time>2017-06-26T11:27:41Z</time>
      </trkpt>
      <trkpt lat="48.59075" lon="6.45434">
        <ele>278</ele>
        <time>2017-06-26T11:27:42Z</time>
      </trkpt>
      <trkpt lat="48.59076" lon="6.45435">
        <ele>278</ele>
        <time>2017-06-26T11:27:43Z</time>
      </trkpt>
      <trkpt lat="48.59077" lon="6.45436">
        <ele>278</ele>
        <time>2017-06-26T11:27:44Z</time>
      </trkpt>
      <trkpt lat="48.59078" lon="6.45437">
        <ele>277</ele>
        <time>2017-06-26T11:27:45Z</time>
      </trkpt>
      <trkpt lat="48.59079" lon="6.45438">
        <ele>277</ele>
        <time>2017-06-26T11:27:46Z</time>
      </trkpt>
      <trkpt lat="48.59079" lon="6.4544">
        <ele>277</ele>
        <time>2017-06-26T11:27:47Z</time>
      </trkpt>
      <trkpt lat="48.5908" lon="6.4544">
        <ele>277</ele>
        <time>2017-06-26T11:27:48Z</time>
      </trkpt>
      <trkpt lat="48.59081" lon="6.45441">
        <ele>277</ele>
        <time>2017-06-26T11:27:49Z</time>
      </trkpt>
      <trkpt lat="48.59081" lon="6.45442">
        <ele>277</ele>
        <time>2017-06-26T11:27:50Z</time>
      </trkpt>
      <trkpt lat="48.59082" lon="6.45443">
        <ele>277</ele>
        <time>2017-06-26T11:27:51Z</time>
      </trkpt>
      <trkpt lat="48.59082" lon="6.45444">
        <ele>277</ele>
        <time>2017-06-26T11:27:52Z</time>
      </trkpt>
      <trkpt lat="48.59083" lon="6.45444">
        <ele>277</ele>
        <time>2017-06-26T11:27:53Z</time>
      </trkpt>
      <trkpt lat="48.59084" lon="6.45445">
        <ele>277</ele>
        <time>2017-06-26T11:27:54Z</time>
      </trkpt>
      <trkpt lat="48.59088" lon="6.45451">
        <ele>277</ele>
        <time>2017-06-26T11:27:55Z</time>
      </trkpt>
      <trkpt lat="48.59089" lon="6.45452">
        <ele>277</ele>
        <time>2017-06-26T11:27:56Z</time>
      </trkpt>
      <trkpt lat="48.5909" lon="6.45454">
        <ele>277</ele>
        <time>2017-06-26T11:27:57Z</time>
      </trkpt>
      <trkpt lat="48.59091" lon="6.45455">
        <ele>277</ele>
        <time>2017-06-26T11:27:58Z</time>
      </trkpt>
      <trkpt lat="48.59092" lon="6.45456">
        <ele>277</ele>
        <time>2017-06-26T11:27:59Z</time>
      </trkpt>
      <trkpt lat="48.59096" lon="6.45462">
        <ele>277</ele>
        <time>2017-06-26T11:28:00Z</time>
      </trkpt>
      <trkpt lat="48.59097" lon="6.45463">
        <ele>277</ele>
        <time>2017-06-26T11:28:01Z</time>
      </trkpt>
      <trkpt lat="48.59098" lon="6.45465">
        <ele>277</ele>
        <time>2017-06-26T11:28:02Z</time>
      </trkpt>
      <trkpt lat="48.59099" lon="6.45466">
        <ele>277</ele>
        <time>2017-06-26T11:28:03Z</time>
      </trkpt>
      <trkpt lat="48.591" lon="6.45468">
        <ele>277</ele>
        <time>2017-06-26T11:28:04Z</time>
      </trkpt>
      <trkpt lat="48.59104" lon="6.45473">
        <ele>275</ele>
        <time>2017-06-26T11:28:05Z</time>
      </trkpt>
      <trkpt lat="48.59106" lon="6.45475">
        <ele>275</ele>
        <time>2017-06-26T11:28:06Z</time>
      </trkpt>
      <trkpt lat="48.59107" lon="6.45476">
        <ele>275</ele>
        <time>2017-06-26T11:28:07Z</time>
      </trkpt>
      <trkpt lat="48.59108" lon="6.45477">
        <ele>275</ele>
        <time>2017-06-26T11:28:08Z</time>
      </trkpt>
      <trkpt lat="48.59109" lon="6.45479">
        <ele>275</ele>
        <time>2017-06-26T11:28:09Z</time>
      </trkpt>
      <trkpt lat="48.59114" lon="6.45484">
        <ele>275</ele>
        <time>2017-06-26T11:28:10Z</time>
      </trkpt>
      <trkpt lat="48.59115" lon="6.45486">
        <ele>275</ele>
        <time>2017-06-26T11:28:11Z</time>
      </trkpt>
      <trkpt lat="48.59116" lon="6.45487">
        <ele>275</ele>
        <time>2017-06-26T11:28:12Z</time>
      </trkpt>
      <trkpt lat="48.59117" lon="6.45489">
        <ele>275</ele>
        <time>2017-06-26T11:28:13Z</time>
      </trkpt>
      <trkpt lat="48.59118" lon="6.4549">
        <ele>275</ele>
        <time>2017-06-26T11:28:14Z</time>
      </trkpt>
      <trkpt lat="48.59123" lon="6.45496">
        <ele>276</ele>
        <time>2017-06-26T11:28:15Z</time>
      </trkpt>
      <trkpt lat="48.59124" lon="6.45497">
        <ele>276</ele>
        <time>2017-06-26T11:28:16Z</time>
      </trkpt>
      <trkpt lat="48.59125" lon="6.45499">
        <ele>276</ele>
        <time>2017-06-26T11:28:17Z</time>
      </trkpt>
      <trkpt lat="48.59126" lon="6.455">
        <ele>276</ele>
        <time>2017-06-26T11:28:18Z</time>
      </trkpt>
      <trkpt lat="48.59127" lon="6.45501">
        <ele>276</ele>
        <time>2017-06-26T11:28:19Z</time>
      </trkpt>
      <trkpt lat="48.59131" lon="6.45507">
        <ele>276</ele>
        <time>2017-06-26T11:28:20Z</time>
      </trkpt>
      <trkpt lat="48.59132" lon="6.45509">
        <ele>276</ele>
        <time>2017-06-26T11:28:21Z</time>
      </trkpt>
      <trkpt lat="48.59134" lon="6.4551">
        <ele>276</ele>
        <time>2017-06-26T11:28:22Z</time>
      </trkpt>
      <trkpt lat="48.59135" lon="6.45512">
        <ele>276</ele>
        <time>2017-06-26T11:28:23Z</time>
      </trkpt>
      <trkpt lat="48.59136" lon="6.45513">
        <ele>276</ele>
        <time>2017-06-26T11:28:24Z</time>
      </trkpt>
      <trkpt lat="48.5914" lon="6.45519">
        <ele>275</ele>
        <time>2017-06-26T11:28:25Z</time>
      </trkpt>
      <trkpt lat="48.59141" lon="6.45521">
        <ele>275</ele>
        <time>2017-06-26T11:28:26Z</time>
      </trkpt>
      <trkpt lat="48.59142" lon="6.45522">
        <ele>275</ele>
        <time>2017-06-26T11:28:27Z</time>
      </trkpt>
      <trkpt lat="48.59143" lon="6.45524">
        <ele>275</ele>
        <time>2017-06-26T11:28:28Z</time>
      </trkpt>
      <trkpt lat="48.59144" lon="6.45525">
        <ele>275</ele>
        <time>2017-06-26T11:28:29Z</time>
      </trkpt>
      <trkpt lat="48.59148" lon="6.45531">
        <ele>275</ele>
        <time>2017-06-26T11:28:30Z</time>
      </trkpt>
      <trkpt lat="48.5915" lon="6.45533">
        <ele>275</ele>
        <time>2017-06-26T11:28:31Z</time>
      </trkpt>
      <trkpt lat="48.59151" lon="6.45535">
        <ele>275</ele>
        <time>2017-06-26T11:28:32Z</time>
      </trkpt>
      <trkpt lat="48.59152" lon="6.45536">
        <ele>275</ele>
        <time>2017-06-26T11:28:33Z</time>
      </trkpt>
      <trkpt lat="48.59156" lon="6.45541">
        <ele>275</ele>
        <time>2017-06-26T11:28:34Z</time>
      </trkpt>
      <trkpt lat="48.59158" lon="6.45544">
        <ele>275</ele>
        <time>2017-06-26T11:28:35Z</time>
      </trkpt>
      <trkpt lat="48.5916" lon="6.45547">
        <ele>275</ele>
        <time>2017-06-26T11:28:36Z</time>
      </trkpt>
      <trkpt lat="48.59161" lon="6.4555">
        <ele>275</ele>
        <time>2017-06-26T11:28:37Z</time>
      </trkpt>
      <trkpt lat="48.59163" lon="6.45553">
        <ele>275</ele>
        <time>2017-06-26T11:28:38Z</time>
      </trkpt>
      <trkpt lat="48.59164" lon="6.45555">
        <ele>275</ele>
        <time>2017-06-26T11:28:39Z</time>
      </trkpt>
      <trkpt lat="48.59165" lon="6.45556">
        <ele>275</ele>
        <time>2017-06-26T11:28:40Z</time>
      </trkpt>
      <trkpt lat="48.59166" lon="6.45558">
        <ele>275</ele>
        <time>2017-06-26T11:28:41Z</time>
      </trkpt>
      <trkpt lat="48.59167" lon="6.45559">
        <ele>275</ele>
        <time>2017-06-26T11:28:42Z</time>
      </trkpt>
      <trkpt lat="48.59172" lon="6.45565">
        <ele>275</ele>
        <time>2017-06-26T11:28:43Z</time>
      </trkpt>
      <trkpt lat="48.59173" lon="6.45567">
        <ele>275</ele>
        <time>2017-06-26T11:28:44Z</time>
      </trkpt>
      <trkpt lat="48.59174" lon="6.45568">
        <ele>275</ele>
        <time>2017-06-26T11:28:45Z</time>
      </trkpt>
      <trkpt lat="48.59175" lon="6.45569">
        <ele>275</ele>
        <time>2017-06-26T11:28:46Z</time>
      </trkpt>
      <trkpt lat="48.59176" lon="6.4557">
        <ele>275</ele>
        <time>2017-06-26T11:28:47Z</time>
      </trkpt>
      <trkpt lat="48.5918" lon="6.45575">
        <ele>275</ele>
        <time>2017-06-26T11:28:48Z</time>
      </trkpt>
      <trkpt lat="48.59181" lon="6.45577">
        <ele>275</ele>
        <time>2017-06-26T11:28:49Z</time>
      </trkpt>
      <trkpt lat="48.59182" lon="6.45579">
        <ele>275</ele>
        <time>2017-06-26T11:28:50Z</time>
      </trkpt>
      <trkpt lat="48.59182" lon="6.45581">
        <ele>275</ele>
        <time>2017-06-26T11:28:51Z</time>
      </trkpt>
      <trkpt lat="48.59183" lon="6.45583">
        <ele>275</ele>
        <time>2017-06-26T11:28:52Z</time>
      </trkpt>
      <trkpt lat="48.59185" lon="6.45591">
        <ele>275</ele>
        <time>2017-06-26T11:28:53Z</time>
      </trkpt>
      <trkpt lat="48.59184" lon="6.45593">
        <ele>275</ele>
        <time>2017-06-26T11:28:54Z</time>
      </trkpt>
      <trkpt lat="48.59183" lon="6.45595">
        <ele>275</ele>
        <time>2017-06-26T11:28:55Z</time>
      </trkpt>
      <trkpt lat="48.59182" lon="6.45598">
        <ele>275</ele>
        <time>2017-06-26T11:28:56Z</time>
      </trkpt>
      <trkpt lat="48.59181" lon="6.456">
        <ele>275</ele>
        <time>2017-06-26T11:28:57Z</time>
      </trkpt>
      <trkpt lat="48.59179" lon="6.45602">
        <ele>275</ele>
        <time>2017-06-26T11:28:58Z</time>
      </trkpt>
      <trkpt lat="48.59179" lon="6.45604">
        <ele>275</ele>
        <time>2017-06-26T11:28:59Z</time>
      </trkpt>
      <trkpt lat="48.59178" lon="6.45605">
        <ele>275</ele>
        <time>2017-06-26T11:29:00Z</time>
      </trkpt>
      <trkpt lat="48.59177" lon="6.45607">
        <ele>275</ele>
        <time>2017-06-26T11:29:01Z</time>
      </trkpt>
      <trkpt lat="48.59177" lon="6.45608">
        <ele>275</ele>
        <time>2017-06-26T11:29:02Z</time>
      </trkpt>
      <trkpt lat="48.59176" lon="6.45609">
        <ele>275</ele>
        <time>2017-06-26T11:29:03Z</time>
      </trkpt>
      <trkpt lat="48.59173" lon="6.45616">
        <ele>275</ele>
        <time>2017-06-26T11:29:04Z</time>
      </trkpt>
      <trkpt lat="48.59172" lon="6.45618">
        <ele>276</ele>
        <time>2017-06-26T11:29:05Z</time>
      </trkpt>
      <trkpt lat="48.59171" lon="6.45619">
        <ele>276</ele>
        <time>2017-06-26T11:29:06Z</time>
      </trkpt>
      <trkpt lat="48.59171" lon="6.4562">
        <ele>276</ele>
        <time>2017-06-26T11:29:07Z</time>
      </trkpt>
      <trkpt lat="48.5917" lon="6.45621">
        <ele>276</ele>
        <time>2017-06-26T11:29:08Z</time>
      </trkpt>
      <trkpt lat="48.59169" lon="6.45622">
        <ele>276</ele>
        <time>2017-06-26T11:29:09Z</time>
      </trkpt>
      <trkpt lat="48.59166" lon="6.45628">
        <ele>276</ele>
        <time>2017-06-26T11:29:10Z</time>
      </trkpt>
      <trkpt lat="48.59164" lon="6.4563">
        <ele>276</ele>
        <time>2017-06-26T11:29:11Z</time>
      </trkpt>
      <trkpt lat="48.59163" lon="6.45632">
        <ele>276</ele>
        <time>2017-06-26T11:29:12Z</time>
      </trkpt>
      <trkpt lat="48.59162" lon="6.45635">
        <ele>276</ele>
        <time>2017-06-26T11:29:13Z</time>
      </trkpt>
      <trkpt lat="48.5916" lon="6.45637">
        <ele>276</ele>
        <time>2017-06-26T11:29:14Z</time>
      </trkpt>
      <trkpt lat="48.59159" lon="6.45639">
        <ele>277</ele>
        <time>2017-06-26T11:29:15Z</time>
      </trkpt>
      <trkpt lat="48.59158" lon="6.4564">
        <ele>277</ele>
        <time>2017-06-26T11:29:16Z</time>
      </trkpt>
      <trkpt lat="48.59157" lon="6.45641">
        <ele>277</ele>
        <time>2017-06-26T11:29:17Z</time>
      </trkpt>
      <trkpt lat="48.59156" lon="6.45642">
        <ele>277</ele>
        <time>2017-06-26T11:29:18Z</time>
      </trkpt>
      <trkpt lat="48.59156" lon="6.45643">
        <ele>277</ele>
        <time>2017-06-26T11:29:19Z</time>
      </trkpt>
      <trkpt lat="48.59155" lon="6.45644">
        <ele>277</ele>
        <time>2017-06-26T11:29:20Z</time>
      </trkpt>
      <trkpt lat="48.59151" lon="6.45649">
        <ele>277</ele>
        <time>2017-06-26T11:29:21Z</time>
      </trkpt>
      <trkpt lat="48.5915" lon="6.4565">
        <ele>277</ele>
        <time>2017-06-26T11:29:22Z</time>
      </trkpt>
      <trkpt lat="48.59149" lon="6.45651">
        <ele>277</ele>
        <time>2017-06-26T11:29:23Z</time>
      </trkpt>
      <trkpt lat="48.59149" lon="6.45653">
        <ele>277</ele>
        <time>2017-06-26T11:29:24Z</time>
      </trkpt>
      <trkpt lat="48.59148" lon="6.45654">
        <ele>280</ele>
        <time>2017-06-26T11:29:25Z</time>
      </trkpt>
      <trkpt lat="48.59147" lon="6.45655">
        <ele>280</ele>
        <time>2017-06-26T11:29:26Z</time>
      </trkpt>
      <trkpt lat="48.59144" lon="6.45661">
        <ele>280</ele>
        <time>2017-06-26T11:29:27Z</time>
      </trkpt>
      <trkpt lat="48.59143" lon="6.45662">
        <ele>280</ele>
        <time>2017-06-26T11:29:28Z</time>
      </trkpt>
      <trkpt lat="48.59143" lon="6.45663">
        <ele>280</ele>
        <time>2017-06-26T11:29:29Z</time>
      </trkpt>
      <trkpt lat="48.59142" lon="6.45665">
        <ele>281</ele>
        <time>2017-06-26T11:29:30Z</time>
      </trkpt>
      <trkpt lat="48.59142" lon="6.45666">
        <ele>281</ele>
        <time>2017-06-26T11:29:31Z</time>
      </trkpt>
      <trkpt lat="48.59141" lon="6.45667">
        <ele>281</ele>
        <time>2017-06-26T11:29:32Z</time>
      </trkpt>
      <trkpt lat="48.59141" lon="6.45668">
        <ele>281</ele>
        <time>2017-06-26T11:29:33Z</time>
      </trkpt>
      <trkpt lat="48.59137" lon="6.45675">
        <ele>281</ele>
        <time>2017-06-26T11:29:34Z</time>
      </trkpt>
      <trkpt lat="48.59137" lon="6.45676">
        <ele>281</ele>
        <time>2017-06-26T11:29:36Z</time>
      </trkpt>
      <trkpt lat="48.59136" lon="6.45677">
        <ele>281</ele>
        <time>2017-06-26T11:29:37Z</time>
      </trkpt>
      <trkpt lat="48.59136" lon="6.45678">
        <ele>281</ele>
        <time>2017-06-26T11:29:38Z</time>
      </trkpt>
      <trkpt lat="48.59135" lon="6.45679">
        <ele>281</ele>
        <time>2017-06-26T11:29:39Z</time>
      </trkpt>
      <trkpt lat="48.59134" lon="6.4568">
        <ele>281</ele>
        <time>2017-06-26T11:29:41Z</time>
      </trkpt>
      <trkpt lat="48.59134" lon="6.45681">
        <ele>281</ele>
        <time>2017-06-26T11:29:42Z</time>
      </trkpt>
      <trkpt lat="48.5913" lon="6.45687">
        <ele>281</ele>
        <time>2017-06-26T11:29:43Z</time>
      </trkpt>
      <trkpt lat="48.5913" lon="6.45688">
        <ele>281</ele>
        <time>2017-06-26T11:29:44Z</time>
      </trkpt>
      <trkpt lat="48.59129" lon="6.4569">
        <ele>282</ele>
        <time>2017-06-26T11:29:45Z</time>
      </trkpt>
      <trkpt lat="48.59128" lon="6.45691">
        <ele>282</ele>
        <time>2017-06-26T11:29:46Z</time>
      </trkpt>
      <trkpt lat="48.59127" lon="6.45692">
        <ele>282</ele>
        <time>2017-06-26T11:29:47Z</time>
      </trkpt>
      <trkpt lat="48.59126" lon="6.45693">
        <ele>282</ele>
        <time>2017-06-26T11:29:48Z</time>
      </trkpt>
      <trkpt lat="48.59122" lon="6.45699">
        <ele>282</ele>
        <time>2017-06-26T11:29:49Z</time>
      </trkpt>
      <trkpt lat="48.59122" lon="6.457">
        <ele>282</ele>
        <time>2017-06-26T11:29:50Z</time>
      </trkpt>
      <trkpt lat="48.59121" lon="6.45701">
        <ele>282</ele>
        <time>2017-06-26T11:29:51Z</time>
      </trkpt>
      <trkpt lat="48.5912" lon="6.45702">
        <ele>282</ele>
        <time>2017-06-26T11:29:52Z</time>
      </trkpt>
      <trkpt lat="48.59119" lon="6.45703">
        <ele>282</ele>
        <time>2017-06-26T11:29:53Z</time>
      </trkpt>
      <trkpt lat="48.59118" lon="6.45704">
        <ele>282</ele>
        <time>2017-06-26T11:29:54Z</time>
      </trkpt>
      <trkpt lat="48.59114" lon="6.4571">
        <ele>284</ele>
        <time>2017-06-26T11:29:55Z</time>
      </trkpt>
      <trkpt lat="48.59113" lon="6.45711">
        <ele>284</ele>
        <time>2017-06-26T11:29:56Z</time>
      </trkpt>
      <trkpt lat="48.59113" lon="6.45712">
        <ele>284</ele>
        <time>2017-06-26T11:29:57Z</time>
      </trkpt>
      <trkpt lat="48.59112" lon="6.45713">
        <ele>284</ele>
        <time>2017-06-26T11:29:58Z</time>
      </trkpt>
      <trkpt lat="48.59111" lon="6.45714">
        <ele>284</ele>
        <time>2017-06-26T11:29:59Z</time>
      </trkpt>
      <trkpt lat="48.5911" lon="6.45715">
        <ele>284</ele>
        <time>2017-06-26T11:30:00Z</time>
      </trkpt>
      <trkpt lat="48.59106" lon="6.4572">
        <ele>284</ele>
        <time>2017-06-26T11:30:01Z</time>
      </trkpt>
      <trkpt lat="48.59106" lon="6.45721">
        <ele>284</ele>
        <time>2017-06-26T11:30:02Z</time>
      </trkpt>
      <trkpt lat="48.59105" lon="6.45723">
        <ele>284</ele>
        <time>2017-06-26T11:30:03Z</time>
      </trkpt>
      <trkpt lat="48.59104" lon="6.45724">
        <ele>284</ele>
        <time>2017-06-26T11:30:04Z</time>
      </trkpt>
      <trkpt lat="48.59103" lon="6.45725">
        <ele>286</ele>
        <time>2017-06-26T11:30:05Z</time>
      </trkpt>
      <trkpt lat="48.59103" lon="6.45726">
        <ele>286</ele>
        <time>2017-06-26T11:30:06Z</time>
      </trkpt>
      <trkpt lat="48.59099" lon="6.45731">
        <ele>286</ele>
        <time>2017-06-26T11:30:07Z</time>
      </trkpt>
      <trkpt lat="48.59098" lon="6.45732">
        <ele>286</ele>
        <time>2017-06-26T11:30:08Z</time>
      </trkpt>
      <trkpt lat="48.59098" lon="6.45733">
        <ele>286</ele>
        <time>2017-06-26T11:30:09Z</time>
      </trkpt>
      <trkpt lat="48.59097" lon="6.45734">
        <ele>286</ele>
        <time>2017-06-26T11:30:10Z</time>
      </trkpt>
      <trkpt lat="48.59097" lon="6.45735">
        <ele>286</ele>
        <time>2017-06-26T11:30:11Z</time>
      </trkpt>
      <trkpt lat="48.59097" lon="6.45736">
        <ele>286</ele>
        <time>2017-06-26T11:30:12Z</time>
      </trkpt>
      <trkpt lat="48.59096" lon="6.45737">
        <ele>286</ele>
        <time>2017-06-26T11:30:13Z</time>
      </trkpt>
      <trkpt lat="48.59096" lon="6.45738">
        <ele>286</ele>
        <time>2017-06-26T11:30:14Z</time>
      </trkpt>
      <trkpt lat="48.59092" lon="6.45745">
        <ele>287</ele>
        <time>2017-06-26T11:30:15Z</time>
      </trkpt>
      <trkpt lat="48.59092" lon="6.45746">
        <ele>287</ele>
        <time>2017-06-26T11:30:16Z</time>
      </trkpt>
      <trkpt lat="48.59091" lon="6.45747">
        <ele>287</ele>
        <time>2017-06-26T11:30:17Z</time>
      </trkpt>
      <trkpt lat="48.59091" lon="6.45748">
        <ele>287</ele>
        <time>2017-06-26T11:30:18Z</time>
      </trkpt>
      <trkpt lat="48.5909" lon="6.45749">
        <ele>287</ele>
        <time>2017-06-26T11:30:19Z</time>
      </trkpt>
      <trkpt lat="48.5909" lon="6.4575">
        <ele>287</ele>
        <time>2017-06-26T11:30:20Z</time>
      </trkpt>
      <trkpt lat="48.59089" lon="6.45751">
        <ele>287</ele>
        <time>2017-06-26T11:30:21Z</time>
      </trkpt>
      <trkpt lat="48.59089" lon="6.45752">
        <ele>287</ele>
        <time>2017-06-26T11:30:22Z</time>
      </trkpt>
      <trkpt lat="48.59085" lon="6.45758">
        <ele>287</ele>
        <time>2017-06-26T11:30:23Z</time>
      </trkpt>
      <trkpt lat="48.59084" lon="6.45759">
        <ele>287</ele>
        <time>2017-06-26T11:30:24Z</time>
      </trkpt>
      <trkpt lat="48.59084" lon="6.45761">
        <ele>288</ele>
        <time>2017-06-26T11:30:25Z</time>
      </trkpt>
      <trkpt lat="48.59083" lon="6.45762">
        <ele>288</ele>
        <time>2017-06-26T11:30:26Z</time>
      </trkpt>
      <trkpt lat="48.59083" lon="6.45763">
        <ele>288</ele>
        <time>2017-06-26T11:30:27Z</time>
      </trkpt>
      <trkpt lat="48.59082" lon="6.45764">
        <ele>288</ele>
        <time>2017-06-26T11:30:28Z</time>
      </trkpt>
      <trkpt lat="48.59082" lon="6.45765">
        <ele>288</ele>
        <time>2017-06-26T11:30:29Z</time>
      </trkpt>
      <trkpt lat="48.59078" lon="6.45772">
        <ele>288</ele>
        <time>2017-06-26T11:30:30Z</time>
      </trkpt>
      <trkpt lat="48.59079" lon="6.45773">
        <ele>288</ele>
        <time>2017-06-26T11:30:31Z</time>
      </trkpt>
      <trkpt lat="48.59079" lon="6.45775">
        <ele>288</ele>
        <time>2017-06-26T11:30:32Z</time>
      </trkpt>
      <trkpt lat="48.59079" lon="6.45776">
        <ele>288</ele>
        <time>2017-06-26T11:30:33Z</time>
      </trkpt>
      <trkpt lat="48.5908" lon="6.45778">
        <ele>288</ele>
        <time>2017-06-26T11:30:34Z</time>
      </trkpt>
      <trkpt lat="48.5908" lon="6.45779">
        <ele>289</ele>
        <time>2017-06-26T11:30:35Z</time>
      </trkpt>
      <trkpt lat="48.5908" lon="6.45781">
        <ele>289</ele>
        <time>2017-06-26T11:30:36Z</time>
      </trkpt>
      <trkpt lat="48.5908" lon="6.45782">
        <ele>289</ele>
        <time>2017-06-26T11:30:37Z</time>
      </trkpt>
      <trkpt lat="48.59081" lon="6.45784">
        <ele>289</ele>
        <time>2017-06-26T11:30:38Z</time>
      </trkpt>
      <trkpt lat="48.59081" lon="6.45785">
        <ele>289</ele>
        <time>2017-06-26T11:30:39Z</time>
      </trkpt>
      <trkpt lat="48.59081" lon="6.45786">
        <ele>289</ele>
        <time>2017-06-26T11:30:40Z</time>
      </trkpt>
      <trkpt lat="48.59082" lon="6.45787">
        <ele>289</ele>
        <time>2017-06-26T11:30:41Z</time>
      </trkpt>
      <trkpt lat="48.59082" lon="6.45788">
        <ele>289</ele>
        <time>2017-06-26T11:30:42Z</time>
      </trkpt>
      <trkpt lat="48.59083" lon="6.45789">
        <ele>289</ele>
        <time>2017-06-26T11:30:43Z</time>
      </trkpt>
      <trkpt lat="48.59083" lon="6.4579">
        <ele>289</ele>
        <time>2017-06-26T11:30:44Z</time>
      </trkpt>
      <trkpt lat="48.59083" lon="6.45791">
        <ele>289</ele>
        <time>2017-06-26T11:30:45Z</time>
      </trkpt>
      <trkpt lat="48.59084" lon="6.45792">
        <ele>289</ele>
        <time>2017-06-26T11:30:46Z</time>
      </trkpt>
      <trkpt lat="48.59084" lon="6.45793">
        <ele>289</ele>
        <time>2017-06-26T11:30:47Z</time>
      </trkpt>
      <trkpt lat="48.59087" lon="6.45799">
        <ele>289</ele>
        <time>2017-06-26T11:30:48Z</time>
      </trkpt>
      <trkpt lat="48.59088" lon="6.45801">
        <ele>289</ele>
        <time>2017-06-26T11:30:49Z</time>
      </trkpt>
      <trkpt lat="48.59089" lon="6.45803">
        <ele>289</ele>
        <time>2017-06-26T11:30:50Z</time>
      </trkpt>
      <trkpt lat="48.5909" lon="6.45804">
        <ele>289</ele>
        <time>2017-06-26T11:30:51Z</time>
      </trkpt>
      <trkpt lat="48.59091" lon="6.45806">
        <ele>289</ele>
        <time>2017-06-26T11:30:52Z</time>
      </trkpt>
      <trkpt lat="48.59092" lon="6.45808">
        <ele>289</ele>
        <time>2017-06-26T11:30:53Z</time>
      </trkpt>
      <trkpt lat="48.59093" lon="6.45809">
        <ele>289</ele>
        <time>2017-06-26T11:30:54Z</time>
      </trkpt>
      <trkpt lat="48.59094" lon="6.45811">
        <ele>289</ele>
        <time>2017-06-26T11:30:55Z</time>
      </trkpt>
      <trkpt lat="48.59095" lon="6.45812">
        <ele>289</ele>
        <time>2017-06-26T11:30:56Z</time>
      </trkpt>
      <trkpt lat="48.59095" lon="6.45813">
        <ele>289</ele>
        <time>2017-06-26T11:30:57Z</time>
      </trkpt>
      <trkpt lat="48.59096" lon="6.45814">
        <ele>289</ele>
        <time>2017-06-26T11:30:58Z</time>
      </trkpt>
      <trkpt lat="48.59097" lon="6.45815">
        <ele>289</ele>
        <time>2017-06-26T11:30:59Z</time>
      </trkpt>
      <trkpt lat="48.59098" lon="6.45816">
        <ele>289</ele>
        <time>2017-06-26T11:31:00Z</time>
      </trkpt>
      <trkpt lat="48.59103" lon="6.4582">
        <ele>289</ele>
        <time>2017-06-26T11:31:01Z</time>
      </trkpt>
      <trkpt lat="48.59104" lon="6.45821">
        <ele>289</ele>
        <time>2017-06-26T11:31:02Z</time>
      </trkpt>
      <trkpt lat="48.59104" lon="6.45822">
        <ele>289</ele>
        <time>2017-06-26T11:31:03Z</time>
      </trkpt>
      <trkpt lat="48.59105" lon="6.45823">
        <ele>289</ele>
        <time>2017-06-26T11:31:04Z</time>
      </trkpt>
      <trkpt lat="48.59106" lon="6.45824">
        <ele>288</ele>
        <time>2017-06-26T11:31:05Z</time>
      </trkpt>
      <trkpt lat="48.59107" lon="6.45825">
        <ele>288</ele>
        <time>2017-06-26T11:31:06Z</time>
      </trkpt>
      <trkpt lat="48.59111" lon="6.4583">
        <ele>288</ele>
        <time>2017-06-26T11:31:07Z</time>
      </trkpt>
      <trkpt lat="48.59112" lon="6.45831">
        <ele>288</ele>
        <time>2017-06-26T11:31:08Z</time>
      </trkpt>
      <trkpt lat="48.59113" lon="6.45833">
        <ele>288</ele>
        <time>2017-06-26T11:31:09Z</time>
      </trkpt>
      <trkpt lat="48.59113" lon="6.45834">
        <ele>288</ele>
        <time>2017-06-26T11:31:10Z</time>
      </trkpt>
      <trkpt lat="48.59114" lon="6.45835">
        <ele>288</ele>
        <time>2017-06-26T11:31:11Z</time>
      </trkpt>
      <trkpt lat="48.59115" lon="6.45836">
        <ele>288</ele>
        <time>2017-06-26T11:31:12Z</time>
      </trkpt>
      <trkpt lat="48.59118" lon="6.45843">
        <ele>288</ele>
        <time>2017-06-26T11:31:13Z</time>
      </trkpt>
      <trkpt lat="48.59119" lon="6.45845">
        <ele>288</ele>
        <time>2017-06-26T11:31:14Z</time>
      </trkpt>
      <trkpt lat="48.5912" lon="6.45846">
        <ele>288</ele>
        <time>2017-06-26T11:31:15Z</time>
      </trkpt>
      <trkpt lat="48.59121" lon="6.45848">
        <ele>288</ele>
        <time>2017-06-26T11:31:16Z</time>
      </trkpt>
      <trkpt lat="48.59122" lon="6.45849">
        <ele>288</ele>
        <time>2017-06-26T11:31:17Z</time>
      </trkpt>
      <trkpt lat="48.59126" lon="6.45856">
        <ele>288</ele>
        <time>2017-06-26T11:31:18Z</time>
      </trkpt>
      <trkpt lat="48.59127" lon="6.45858">
        <ele>288</ele>
        <time>2017-06-26T11:31:19Z</time>
      </trkpt>
      <trkpt lat="48.59128" lon="6.45859">
        <ele>288</ele>
        <time>2017-06-26T11:31:20Z</time>
      </trkpt>
      <trkpt lat="48.5913" lon="6.45861">
        <ele>288</ele>
        <time>2017-06-26T11:31:21Z</time>
      </trkpt>
      <trkpt lat="48.59134" lon="6.45866">
        <ele>288</ele>
        <time>2017-06-26T11:31:22Z</time>
      </trkpt>
      <trkpt lat="48.59135" lon="6.45868">
        <ele>288</ele>
        <time>2017-06-26T11:31:23Z</time>
      </trkpt>
      <trkpt lat="48.59136" lon="6.45869">
        <ele>288</ele>
        <time>2017-06-26T11:31:24Z</time>
      </trkpt>
      <trkpt lat="48.59137" lon="6.45871">
        <ele>288</ele>
        <time>2017-06-26T11:31:25Z</time>
      </trkpt>
      <trkpt lat="48.59138" lon="6.45872">
        <ele>288</ele>
        <time>2017-06-26T11:31:26Z</time>
      </trkpt>
      <trkpt lat="48.59142" lon="6.45878">
        <ele>288</ele>
        <time>2017-06-26T11:31:27Z</time>
      </trkpt>
      <trkpt lat="48.59144" lon="6.4588">
        <ele>288</ele>
        <time>2017-06-26T11:31:28Z</time>
      </trkpt>
      <trkpt lat="48.59145" lon="6.45881">
        <ele>288</ele>
        <time>2017-06-26T11:31:29Z</time>
      </trkpt>
      <trkpt lat="48.59146" lon="6.45883">
        <ele>288</ele>
        <time>2017-06-26T11:31:30Z</time>
      </trkpt>
      <trkpt lat="48.5915" lon="6.45889">
        <ele>288</ele>
        <time>2017-06-26T11:31:31Z</time>
      </trkpt>
      <trkpt lat="48.59152" lon="6.45891">
        <ele>288</ele>
        <time>2017-06-26T11:31:32Z</time>
      </trkpt>
      <trkpt lat="48.59154" lon="6.45894">
        <ele>288</ele>
        <time>2017-06-26T11:31:33Z</time>
      </trkpt>
      <trkpt lat="48.59156" lon="6.45897">
        <ele>288</ele>
        <time>2017-06-26T11:31:34Z</time>
      </trkpt>
      <trkpt lat="48.59158" lon="6.45899">
        <ele>288</ele>
        <time>2017-06-26T11:31:35Z</time>
      </trkpt>
      <trkpt lat="48.59159" lon="6.45901">
        <ele>288</ele>
        <time>2017-06-26T11:31:36Z</time>
      </trkpt>
      <trkpt lat="48.5916" lon="6.45902">
        <ele>288</ele>
        <time>2017-06-26T11:31:37Z</time>
      </trkpt>
      <trkpt lat="48.59161" lon="6.45904">
        <ele>288</ele>
        <time>2017-06-26T11:31:38Z</time>
      </trkpt>
      <trkpt lat="48.59162" lon="6.45906">
        <ele>288</ele>
        <time>2017-06-26T11:31:39Z</time>
      </trkpt>
      <trkpt lat="48.59165" lon="6.45912">
        <ele>288</ele>
        <time>2017-06-26T11:31:40Z</time>
      </trkpt>
      <trkpt lat="48.59166" lon="6.45913">
        <ele>288</ele>
        <time>2017-06-26T11:31:41Z</time>
      </trkpt>
      <trkpt lat="48.59167" lon="6.45914">
        <ele>288</ele>
        <time>2017-06-26T11:31:42Z</time>
      </trkpt>
      <trkpt lat="48.59168" lon="6.45915">
        <ele>288</ele>
        <time>2017-06-26T11:31:43Z</time>
      </trkpt>
      <trkpt lat="48.59168" lon="6.45917">
        <ele>288</ele>
        <time>2017-06-26T11:31:44Z</time>
      </trkpt>
      <trkpt lat="48.59169" lon="6.45918">
        <ele>288</ele>
        <time>2017-06-26T11:31:45Z</time>
      </trkpt>
      <trkpt lat="48.59173" lon="6.45924">
        <ele>288</ele>
        <time>2017-06-26T11:31:46Z</time>
      </trkpt>
      <trkpt lat="48.59174" lon="6.45925">
        <ele>288</ele>
        <time>2017-06-26T11:31:47Z</time>
      </trkpt>
      <trkpt lat="48.59175" lon="6.45926">
        <ele>288</ele>
        <time>2017-06-26T11:31:48Z</time>
      </trkpt>
      <trkpt lat="48.59176" lon="6.45927">
        <ele>288</ele>
        <time>2017-06-26T11:31:49Z</time>
      </trkpt>
      <trkpt lat="48.59177" lon="6.45928">
        <ele>288</ele>
        <time>2017-06-26T11:31:50Z</time>
      </trkpt>
      <trkpt lat="48.59178" lon="6.45929">
        <ele>288</ele>
        <time>2017-06-26T11:31:51Z</time>
      </trkpt>
      <trkpt lat="48.59183" lon="6.45934">
        <ele>288</ele>
        <time>2017-06-26T11:31:52Z</time>
      </trkpt>
      <trkpt lat="48.59184" lon="6.45936">
        <ele>288</ele>
        <time>2017-06-26T11:31:53Z</time>
      </trkpt>
      <trkpt lat="48.59185" lon="6.45937">
        <ele>288</ele>
        <time>2017-06-26T11:31:54Z</time>
      </trkpt>
      <trkpt lat="48.59186" lon="6.45939">
        <ele>288</ele>
        <time>2017-06-26T11:31:55Z</time>
      </trkpt>
      <trkpt lat="48.59187" lon="6.4594">
        <ele>288</ele>
        <time>2017-06-26T11:31:56Z</time>
      </trkpt>
      <trkpt lat="48.59191" lon="6.45946">
        <ele>288</ele>
        <time>2017-06-26T11:31:57Z</time>
      </trkpt>
      <trkpt lat="48.59192" lon="6.45948">
        <ele>288</ele>
        <time>2017-06-26T11:31:58Z</time>
      </trkpt>
      <trkpt lat="48.59193" lon="6.4595">
        <ele>288</ele>
        <time>2017-06-26T11:31:59Z</time>
      </trkpt>
      <trkpt lat="48.59194" lon="6.45951">
        <ele>288</ele>
        <time>2017-06-26T11:32:00Z</time>
      </trkpt>
      <trkpt lat="48.59195" lon="6.45953">
        <ele>288</ele>
        <time>2017-06-26T11:32:01Z</time>
      </trkpt>
      <trkpt lat="48.59198" lon="6.45959">
        <ele>288</ele>
        <time>2017-06-26T11:32:02Z</time>
      </trkpt>
      <trkpt lat="48.59199" lon="6.45961">
        <ele>288</ele>
        <time>2017-06-26T11:32:03Z</time>
      </trkpt>
      <trkpt lat="48.592" lon="6.45963">
        <ele>288</ele>
        <time>2017-06-26T11:32:04Z</time>
      </trkpt>
      <trkpt lat="48.59201" lon="6.45964">
        <ele>288</ele>
        <time>2017-06-26T11:32:05Z</time>
      </trkpt>
      <trkpt lat="48.59201" lon="6.45966">
        <ele>288</ele>
        <time>2017-06-26T11:32:06Z</time>
      </trkpt>
      <trkpt lat="48.59202" lon="6.45967">
        <ele>288</ele>
        <time>2017-06-26T11:32:07Z</time>
      </trkpt>
      <trkpt lat="48.59206" lon="6.45975">
        <ele>288</ele>
        <time>2017-06-26T11:32:08Z</time>
      </trkpt>
      <trkpt lat="48.59206" lon="6.45978">
        <ele>288</ele>
        <time>2017-06-26T11:32:09Z</time>
      </trkpt>
      <trkpt lat="48.59207" lon="6.45981">
        <ele>288</ele>
        <time>2017-06-26T11:32:10Z</time>
      </trkpt>
      <trkpt lat="48.59207" lon="6.45984">
        <ele>288</ele>
        <time>2017-06-26T11:32:11Z</time>
      </trkpt>
      <trkpt lat="48.59208" lon="6.45993">
        <ele>288</ele>
        <time>2017-06-26T11:32:12Z</time>
      </trkpt>
      <trkpt lat="48.59208" lon="6.45995">
        <ele>288</ele>
        <time>2017-06-26T11:32:13Z</time>
      </trkpt>
      <trkpt lat="48.59208" lon="6.45997">
        <ele>288</ele>
        <time>2017-06-26T11:32:14Z</time>
      </trkpt>
      <trkpt lat="48.59208" lon="6.45999">
        <ele>288</ele>
        <time>2017-06-26T11:32:15Z</time>
      </trkpt>
      <trkpt lat="48.59208" lon="6.46001">
        <ele>288</ele>
        <time>2017-06-26T11:32:16Z</time>
      </trkpt>
      <trkpt lat="48.59208" lon="6.46009">
        <ele>288</ele>
        <time>2017-06-26T11:32:17Z</time>
      </trkpt>
      <trkpt lat="48.59209" lon="6.46011">
        <ele>288</ele>
        <time>2017-06-26T11:32:18Z</time>
      </trkpt>
      <trkpt lat="48.59209" lon="6.46012">
        <ele>288</ele>
        <time>2017-06-26T11:32:19Z</time>
      </trkpt>
      <trkpt lat="48.59209" lon="6.46014">
        <ele>288</ele>
        <time>2017-06-26T11:32:20Z</time>
      </trkpt>
      <trkpt lat="48.59209" lon="6.46015">
        <ele>288</ele>
        <time>2017-06-26T11:32:21Z</time>
      </trkpt>
      <trkpt lat="48.59209" lon="6.46017">
        <ele>288</ele>
        <time>2017-06-26T11:32:22Z</time>
      </trkpt>
      <trkpt lat="48.5921" lon="6.46025">
        <ele>288</ele>
        <time>2017-06-26T11:32:23Z</time>
      </trkpt>
      <trkpt lat="48.59211" lon="6.46026">
        <ele>288</ele>
        <time>2017-06-26T11:32:24Z</time>
      </trkpt>
      <trkpt lat="48.59211" lon="6.46027">
        <ele>288</ele>
        <time>2017-06-26T11:32:25Z</time>
      </trkpt>
      <trkpt lat="48.59211" lon="6.46028">
        <ele>288</ele>
        <time>2017-06-26T11:32:26Z</time>
      </trkpt>
      <trkpt lat="48.59211" lon="6.46029">
        <ele>288</ele>
        <time>2017-06-26T11:32:27Z</time>
      </trkpt>
      <trkpt lat="48.59211" lon="6.46031">
        <ele>288</ele>
        <time>2017-06-26T11:32:28Z</time>
      </trkpt>
      <trkpt lat="48.59212" lon="6.46032">
        <ele>288</ele>
        <time>2017-06-26T11:32:29Z</time>
      </trkpt>
      <trkpt lat="48.59212" lon="6.46033">
        <ele>288</ele>
        <time>2017-06-26T11:32:30Z</time>
      </trkpt>
      <trkpt lat="48.59213" lon="6.46041">
        <ele>288</ele>
        <time>2017-06-26T11:32:31Z</time>
      </trkpt>
      <trkpt lat="48.59213" lon="6.46042">
        <ele>288</ele>
        <time>2017-06-26T11:32:32Z</time>
      </trkpt>
      <trkpt lat="48.59213" lon="6.46043">
        <ele>288</ele>
        <time>2017-06-26T11:32:33Z</time>
      </trkpt>
      <trkpt lat="48.59212" lon="6.46044">
        <ele>288</ele>
        <time>2017-06-26T11:32:34Z</time>
      </trkpt>
      <trkpt lat="48.59212" lon="6.46045">
        <ele>288</ele>
        <time>2017-06-26T11:32:35Z</time>
      </trkpt>
      <trkpt lat="48.59211" lon="6.46046">
        <ele>288</ele>
        <time>2017-06-26T11:32:36Z</time>
      </trkpt>
      <trkpt lat="48.59211" lon="6.46048">
        <ele>288</ele>
        <time>2017-06-26T11:32:37Z</time>
      </trkpt>
      <trkpt lat="48.59208" lon="6.46054">
        <ele>288</ele>
        <time>2017-06-26T11:32:38Z</time>
      </trkpt>
      <trkpt lat="48.59206" lon="6.46055">
        <ele>288</ele>
        <time>2017-06-26T11:32:39Z</time>
      </trkpt>
      <trkpt lat="48.59204" lon="6.46057">
        <ele>288</ele>
        <time>2017-06-26T11:32:40Z</time>
      </trkpt>
      <trkpt lat="48.59202" lon="6.46058">
        <ele>288</ele>
        <time>2017-06-26T11:32:41Z</time>
      </trkpt>
      <trkpt lat="48.592" lon="6.46059">
        <ele>288</ele>
        <time>2017-06-26T11:32:42Z</time>
      </trkpt>
      <trkpt lat="48.59199" lon="6.4606">
        <ele>288</ele>
        <time>2017-06-26T11:32:43Z</time>
      </trkpt>
      <trkpt lat="48.59198" lon="6.46061">
        <ele>288</ele>
        <time>2017-06-26T11:32:44Z</time>
      </trkpt>
      <trkpt lat="48.59197" lon="6.46062">
        <ele>286</ele>
        <time>2017-06-26T11:32:45Z</time>
      </trkpt>
      <trkpt lat="48.59197" lon="6.46063">
        <ele>286</ele>
        <time>2017-06-26T11:32:46Z</time>
      </trkpt>
      <trkpt lat="48.59196" lon="6.46064">
        <ele>286</ele>
        <time>2017-06-26T11:32:47Z</time>
      </trkpt>
      <trkpt lat="48.59196" lon="6.46065">
        <ele>286</ele>
        <time>2017-06-26T11:32:48Z</time>
      </trkpt>
      <trkpt lat="48.59195" lon="6.46066">
        <ele>286</ele>
        <time>2017-06-26T11:32:49Z</time>
      </trkpt>
      <trkpt lat="48.59191" lon="6.46073">
        <ele>286</ele>
        <time>2017-06-26T11:32:50Z</time>
      </trkpt>
      <trkpt lat="48.5919" lon="6.46074">
        <ele>286</ele>
        <time>2017-06-26T11:32:51Z</time>
      </trkpt>
      <trkpt lat="48.59189" lon="6.46076">
        <ele>286</ele>
        <time>2017-06-26T11:32:52Z</time>
      </trkpt>
      <trkpt lat="48.59188" lon="6.46078">
        <ele>286</ele>
        <time>2017-06-26T11:32:53Z</time>
      </trkpt>
      <trkpt lat="48.59185" lon="6.46084">
        <ele>286</ele>
        <time>2017-06-26T11:32:54Z</time>
      </trkpt>
      <trkpt lat="48.59183" lon="6.46087">
        <ele>284</ele>
        <time>2017-06-26T11:32:55Z</time>
      </trkpt>
      <trkpt lat="48.59181" lon="6.46089">
        <ele>284</ele>
        <time>2017-06-26T11:32:56Z</time>
      </trkpt>
      <trkpt lat="48.59179" lon="6.46092">
        <ele>284</ele>
        <time>2017-06-26T11:32:57Z</time>
      </trkpt>
      <trkpt lat="48.59177" lon="6.46094">
        <ele>284</ele>
        <time>2017-06-26T11:32:58Z</time>
      </trkpt>
      <trkpt lat="48.59176" lon="6.46095">
        <ele>284</ele>
        <time>2017-06-26T11:32:59Z</time>
      </trkpt>
      <trkpt lat="48.59175" lon="6.46096">
        <ele>284</ele>
        <time>2017-06-26T11:33:00Z</time>
      </trkpt>
      <trkpt lat="48.59174" lon="6.46097">
        <ele>284</ele>
        <time>2017-06-26T11:33:01Z</time>
      </trkpt>
      <trkpt lat="48.59173" lon="6.46098">
        <ele>284</ele>
        <time>2017-06-26T11:33:02Z</time>
      </trkpt>
      <trkpt lat="48.59172" lon="6.46099">
        <ele>284</ele>
        <time>2017-06-26T11:33:03Z</time>
      </trkpt>
      <trkpt lat="48.59167" lon="6.46104">
        <ele>284</ele>
        <time>2017-06-26T11:33:04Z</time>
      </trkpt>
      <trkpt lat="48.59166" lon="6.46106">
        <ele>282</ele>
        <time>2017-06-26T11:33:05Z</time>
      </trkpt>
      <trkpt lat="48.59164" lon="6.46108">
        <ele>282</ele>
        <time>2017-06-26T11:33:06Z</time>
      </trkpt>
      <trkpt lat="48.59162" lon="6.4611">
        <ele>282</ele>
        <time>2017-06-26T11:33:07Z</time>
      </trkpt>
      <trkpt lat="48.59161" lon="6.46112">
        <ele>282</ele>
        <time>2017-06-26T11:33:08Z</time>
      </trkpt>
      <trkpt lat="48.59159" lon="6.46113">
        <ele>282</ele>
        <time>2017-06-26T11:33:09Z</time>
      </trkpt>
      <trkpt lat="48.59158" lon="6.46115">
        <ele>282</ele>
        <time>2017-06-26T11:33:10Z</time>
      </trkpt>
      <trkpt lat="48.59157" lon="6.46116">
        <ele>282</ele>
        <time>2017-06-26T11:33:11Z</time>
      </trkpt>
      <trkpt lat="48.59155" lon="6.46118">
        <ele>282</ele>
        <time>2017-06-26T11:33:12Z</time>
      </trkpt>
      <trkpt lat="48.59154" lon="6.46119">
        <ele>282</ele>
        <time>2017-06-26T11:33:13Z</time>
      </trkpt>
      <trkpt lat="48.59149" lon="6.46126">
        <ele>282</ele>
        <time>2017-06-26T11:33:14Z</time>
      </trkpt>
      <trkpt lat="48.59149" lon="6.46127">
        <ele>281</ele>
        <time>2017-06-26T11:33:16Z</time>
      </trkpt>
      <trkpt lat="48.59148" lon="6.46128">
        <ele>281</ele>
        <time>2017-06-26T11:33:17Z</time>
      </trkpt>
      <trkpt lat="48.59148" lon="6.46129">
        <ele>281</ele>
        <time>2017-06-26T11:33:18Z</time>
      </trkpt>
      <trkpt lat="48.59148" lon="6.4613">
        <ele>281</ele>
        <time>2017-06-26T11:33:19Z</time>
      </trkpt>
      <trkpt lat="48.59148" lon="6.46131">
        <ele>281</ele>
        <time>2017-06-26T11:33:21Z</time>
      </trkpt>
      <trkpt lat="48.59147" lon="6.46132">
        <ele>281</ele>
        <time>2017-06-26T11:33:22Z</time>
      </trkpt>
      <trkpt lat="48.59147" lon="6.46133">
        <ele>281</ele>
        <time>2017-06-26T11:33:23Z</time>
      </trkpt>
      <trkpt lat="48.59147" lon="6.46134">
        <ele>281</ele>
        <time>2017-06-26T11:33:24Z</time>
      </trkpt>
      <trkpt lat="48.59145" lon="6.46142">
        <ele>281</ele>
        <time>2017-06-26T11:33:25Z</time>
      </trkpt>
      <trkpt lat="48.59145" lon="6.46143">
        <ele>281</ele>
        <time>2017-06-26T11:33:26Z</time>
      </trkpt>
      <trkpt lat="48.59145" lon="6.46145">
        <ele>281</ele>
        <time>2017-06-26T11:33:27Z</time>
      </trkpt>
      <trkpt lat="48.59145" lon="6.46147">
        <ele>281</ele>
        <time>2017-06-26T11:33:28Z</time>
      </trkpt>
      <trkpt lat="48.59145" lon="6.46149">
        <ele>281</ele>
        <time>2017-06-26T11:33:29Z</time>
      </trkpt>
      <trkpt lat="48.59145" lon="6.4615">
        <ele>281</ele>
        <time>2017-06-26T11:33:30Z</time>
      </trkpt>
      <trkpt lat="48.59145" lon="6.46159">
        <ele>281</ele>
        <time>2017-06-26T11:33:31Z</time>
      </trkpt>
      <trkpt lat="48.59144" lon="6.4616">
        <ele>281</ele>
        <time>2017-06-26T11:33:32Z</time>
      </trkpt>
      <trkpt lat="48.59144" lon="6.46162">
        <ele>281</ele>
        <time>2017-06-26T11:33:33Z</time>
      </trkpt>
      <trkpt lat="48.59144" lon="6.46164">
        <ele>281</ele>
        <time>2017-06-26T11:33:34Z</time>
      </trkpt>
      <trkpt lat="48.59143" lon="6.46165">
        <ele>278</ele>
        <time>2017-06-26T11:33:35Z</time>
      </trkpt>
      <trkpt lat="48.59143" lon="6.46167">
        <ele>278</ele>
        <time>2017-06-26T11:33:36Z</time>
      </trkpt>
      <trkpt lat="48.59142" lon="6.46176">
        <ele>278</ele>
        <time>2017-06-26T11:33:37Z</time>
      </trkpt>
      <trkpt lat="48.59141" lon="6.46178">
        <ele>278</ele>
        <time>2017-06-26T11:33:38Z</time>
      </trkpt>
      <trkpt lat="48.59141" lon="6.4618">
        <ele>278</ele>
        <time>2017-06-26T11:33:39Z</time>
      </trkpt>
      <trkpt lat="48.5914" lon="6.46182">
        <ele>278</ele>
        <time>2017-06-26T11:33:40Z</time>
      </trkpt>
      <trkpt lat="48.5914" lon="6.46184">
        <ele>278</ele>
        <time>2017-06-26T11:33:41Z</time>
      </trkpt>
      <trkpt lat="48.59138" lon="6.46192">
        <ele>278</ele>
        <time>2017-06-26T11:33:42Z</time>
      </trkpt>
      <trkpt lat="48.59137" lon="6.46194">
        <ele>278</ele>
        <time>2017-06-26T11:33:43Z</time>
      </trkpt>
      <trkpt lat="48.59137" lon="6.46196">
        <ele>278</ele>
        <time>2017-06-26T11:33:44Z</time>
      </trkpt>
      <trkpt lat="48.59136" lon="6.46198">
        <ele>277</ele>
        <time>2017-06-26T11:33:45Z</time>
      </trkpt>
      <trkpt lat="48.59136" lon="6.462">
        <ele>277</ele>
        <time>2017-06-26T11:33:46Z</time>
      </trkpt>
      <trkpt lat="48.59133" lon="6.46209">
        <ele>277</ele>
        <time>2017-06-26T11:33:47Z</time>
      </trkpt>
      <trkpt lat="48.59133" lon="6.4621">
        <ele>277</ele>
        <time>2017-06-26T11:33:48Z</time>
      </trkpt>
      <trkpt lat="48.59134" lon="6.46212">
        <ele>277</ele>
        <time>2017-06-26T11:33:49Z</time>
      </trkpt>
      <trkpt lat="48.59134" lon="6.46214">
        <ele>277</ele>
        <time>2017-06-26T11:33:50Z</time>
      </trkpt>
      <trkpt lat="48.59134" lon="6.46216">
        <ele>277</ele>
        <time>2017-06-26T11:33:51Z</time>
      </trkpt>
      <trkpt lat="48.59134" lon="6.46218">
        <ele>277</ele>
        <time>2017-06-26T11:33:52Z</time>
      </trkpt>
      <trkpt lat="48.59134" lon="6.46227">
        <ele>277</ele>
        <time>2017-06-26T11:33:53Z</time>
      </trkpt>
      <trkpt lat="48.59134" lon="6.46229">
        <ele>277</ele>
        <time>2017-06-26T11:33:54Z</time>
      </trkpt>
      <trkpt lat="48.59133" lon="6.46232">
        <ele>276</ele>
        <time>2017-06-26T11:33:55Z</time>
      </trkpt>
      <trkpt lat="48.59133" lon="6.46235">
        <ele>276</ele>
        <time>2017-06-26T11:33:56Z</time>
      </trkpt>
      <trkpt lat="48.59132" lon="6.46242">
        <ele>276</ele>
        <time>2017-06-26T11:33:57Z</time>
      </trkpt>
      <trkpt lat="48.59131" lon="6.46244">
        <ele>276</ele>
        <time>2017-06-26T11:33:58Z</time>
      </trkpt>
      <trkpt lat="48.5913" lon="6.46247">
        <ele>276</ele>
        <time>2017-06-26T11:33:59Z</time>
      </trkpt>
      <trkpt lat="48.59129" lon="6.46249">
        <ele>276</ele>
        <time>2017-06-26T11:34:00Z</time>
      </trkpt>
      <trkpt lat="48.59126" lon="6.46256">
        <ele>276</ele>
        <time>2017-06-26T11:34:01Z</time>
      </trkpt>
      <trkpt lat="48.59125" lon="6.46258">
        <ele>276</ele>
        <time>2017-06-26T11:34:02Z</time>
      </trkpt>
      <trkpt lat="48.59124" lon="6.4626">
        <ele>276</ele>
        <time>2017-06-26T11:34:03Z</time>
      </trkpt>
      <trkpt lat="48.59123" lon="6.46262">
        <ele>276</ele>
        <time>2017-06-26T11:34:04Z</time>
      </trkpt>
      <trkpt lat="48.59119" lon="6.46269">
        <ele>274</ele>
        <time>2017-06-26T11:34:05Z</time>
      </trkpt>
      <trkpt lat="48.59118" lon="6.46271">
        <ele>274</ele>
        <time>2017-06-26T11:34:06Z</time>
      </trkpt>
      <trkpt lat="48.59117" lon="6.46273">
        <ele>274</ele>
        <time>2017-06-26T11:34:07Z</time>
      </trkpt>
      <trkpt lat="48.59116" lon="6.46275">
        <ele>274</ele>
        <time>2017-06-26T11:34:08Z</time>
      </trkpt>
      <trkpt lat="48.59112" lon="6.46281">
        <ele>274</ele>
        <time>2017-06-26T11:34:09Z</time>
      </trkpt>
      <trkpt lat="48.59111" lon="6.46283">
        <ele>273</ele>
        <time>2017-06-26T11:34:10Z</time>
      </trkpt>
      <trkpt lat="48.5911" lon="6.46286">
        <ele>273</ele>
        <time>2017-06-26T11:34:11Z</time>
      </trkpt>
      <trkpt lat="48.59109" lon="6.46288">
        <ele>273</ele>
        <time>2017-06-26T11:34:12Z</time>
      </trkpt>
      <trkpt lat="48.59107" lon="6.46291">
        <ele>273</ele>
        <time>2017-06-26T11:34:13Z</time>
      </trkpt>
      <trkpt lat="48.59106" lon="6.46293">
        <ele>273</ele>
        <time>2017-06-26T11:34:14Z</time>
      </trkpt>
      <trkpt lat="48.59105" lon="6.46294">
        <ele>273</ele>
        <time>2017-06-26T11:34:15Z</time>
      </trkpt>
      <trkpt lat="48.59105" lon="6.46296">
        <ele>273</ele>
        <time>2017-06-26T11:34:16Z</time>
      </trkpt>
      <trkpt lat="48.59104" lon="6.46298">
        <ele>273</ele>
        <time>2017-06-26T11:34:17Z</time>
      </trkpt>
      <trkpt lat="48.59103" lon="6.46299">
        <ele>273</ele>
        <time>2017-06-26T11:34:18Z</time>
      </trkpt>
      <trkpt lat="48.59102" lon="6.46301">
        <ele>273</ele>
        <time>2017-06-26T11:34:19Z</time>
      </trkpt>
      <trkpt lat="48.59099" lon="6.46308">
        <ele>273</ele>
        <time>2017-06-26T11:34:20Z</time>
      </trkpt>
      <trkpt lat="48.59098" lon="6.4631">
        <ele>273</ele>
        <time>2017-06-26T11:34:21Z</time>
      </trkpt>
      <trkpt lat="48.59097" lon="6.46312">
        <ele>273</ele>
        <time>2017-06-26T11:34:22Z</time>
      </trkpt>
      <trkpt lat="48.59097" lon="6.46313">
        <ele>273</ele>
        <time>2017-06-26T11:34:23Z</time>
      </trkpt>
      <trkpt lat="48.59096" lon="6.46315">
        <ele>273</ele>
        <time>2017-06-26T11:34:24Z</time>
      </trkpt>
      <trkpt lat="48.59093" lon="6.46322">
        <ele>272</ele>
        <time>2017-06-26T11:34:25Z</time>
      </trkpt>
      <trkpt lat="48.59092" lon="6.46324">
        <ele>272</ele>
        <time>2017-06-26T11:34:26Z</time>
      </trkpt>
      <trkpt lat="48.59091" lon="6.46326">
        <ele>272</ele>
        <time>2017-06-26T11:34:27Z</time>
      </trkpt>
      <trkpt lat="48.59089" lon="6.46328">
        <ele>272</ele>
        <time>2017-06-26T11:34:28Z</time>
      </trkpt>
      <trkpt lat="48.59088" lon="6.46331">
        <ele>272</ele>
        <time>2017-06-26T11:34:29Z</time>
      </trkpt>
      <trkpt lat="48.59087" lon="6.46333">
        <ele>272</ele>
        <time>2017-06-26T11:34:30Z</time>
      </trkpt>
      <trkpt lat="48.59086" lon="6.46335">
        <ele>272</ele>
        <time>2017-06-26T11:34:31Z</time>
      </trkpt>
      <trkpt lat="48.59085" lon="6.46336">
        <ele>272</ele>
        <time>2017-06-26T11:34:32Z</time>
      </trkpt>
      <trkpt lat="48.59084" lon="6.46338">
        <ele>272</ele>
        <time>2017-06-26T11:34:33Z</time>
      </trkpt>
      <trkpt lat="48.59083" lon="6.4634">
        <ele>272</ele>
        <time>2017-06-26T11:34:34Z</time>
      </trkpt>
      <trkpt lat="48.59079" lon="6.46347">
        <ele>270</ele>
        <time>2017-06-26T11:34:35Z</time>
      </trkpt>
      <trkpt lat="48.59077" lon="6.46349">
        <ele>270</ele>
        <time>2017-06-26T11:34:36Z</time>
      </trkpt>
      <trkpt lat="48.59074" lon="6.46351">
        <ele>270</ele>
        <time>2017-06-26T11:34:37Z</time>
      </trkpt>
      <trkpt lat="48.5907" lon="6.46355">
        <ele>270</ele>
        <time>2017-06-26T11:34:38Z</time>
      </trkpt>
      <trkpt lat="48.59068" lon="6.46355">
        <ele>270</ele>
        <time>2017-06-26T11:34:39Z</time>
      </trkpt>
      <trkpt lat="48.59066" lon="6.46354">
        <ele>270</ele>
        <time>2017-06-26T11:34:40Z</time>
      </trkpt>
      <trkpt lat="48.59064" lon="6.46354">
        <ele>270</ele>
        <time>2017-06-26T11:34:41Z</time>
      </trkpt>
      <trkpt lat="48.59059" lon="6.46352">
        <ele>270</ele>
        <time>2017-06-26T11:34:42Z</time>
      </trkpt>
      <trkpt lat="48.59057" lon="6.46351">
        <ele>270</ele>
        <time>2017-06-26T11:34:43Z</time>
      </trkpt>
      <trkpt lat="48.59056" lon="6.4635">
        <ele>270</ele>
        <time>2017-06-26T11:34:44Z</time>
      </trkpt>
      <trkpt lat="48.59055" lon="6.46349">
        <ele>270</ele>
        <time>2017-06-26T11:34:45Z</time>
      </trkpt>
      <trkpt lat="48.59054" lon="6.46347">
        <ele>270</ele>
        <time>2017-06-26T11:34:46Z</time>
      </trkpt>
      <trkpt lat="48.59049" lon="6.46343">
        <ele>270</ele>
        <time>2017-06-26T11:34:47Z</time>
      </trkpt>
      <trkpt lat="48.59047" lon="6.46341">
        <ele>270</ele>
        <time>2017-06-26T11:34:48Z</time>
      </trkpt>
      <trkpt lat="48.59045" lon="6.4634">
        <ele>270</ele>
        <time>2017-06-26T11:34:49Z</time>
      </trkpt>
      <trkpt lat="48.59044" lon="6.46338">
        <ele>270</ele>
        <time>2017-06-26T11:34:50Z</time>
      </trkpt>
      <trkpt lat="48.59039" lon="6.46334">
        <ele>270</ele>
        <time>2017-06-26T11:34:51Z</time>
      </trkpt>
      <trkpt lat="48.59037" lon="6.46332">
        <ele>270</ele>
        <time>2017-06-26T11:34:52Z</time>
      </trkpt>
      <trkpt lat="48.59035" lon="6.4633">
        <ele>270</ele>
        <time>2017-06-26T11:34:53Z</time>
      </trkpt>
      <trkpt lat="48.59033" lon="6.46328">
        <ele>270</ele>
        <time>2017-06-26T11:34:54Z</time>
      </trkpt>
      <trkpt lat="48.5903" lon="6.46326">
        <ele>270</ele>
        <time>2017-06-26T11:34:55Z</time>
      </trkpt>
      <trkpt lat="48.5903" lon="6.46325">
        <ele>270</ele>
        <time>2017-06-26T11:34:56Z</time>
      </trkpt>
      <trkpt lat="48.59029" lon="6.46324">
        <ele>270</ele>
        <time>2017-06-26T11:34:57Z</time>
      </trkpt>
      <trkpt lat="48.59028" lon="6.46322">
        <ele>270</ele>
        <time>2017-06-26T11:34:58Z</time>
      </trkpt>
      <trkpt lat="48.59027" lon="6.46321">
        <ele>270</ele>
        <time>2017-06-26T11:34:59Z</time>
      </trkpt>
      <trkpt lat="48.59026" lon="6.4632">
        <ele>270</ele>
        <time>2017-06-26T11:35:00Z</time>
      </trkpt>
      <trkpt lat="48.59022" lon="6.46315">
        <ele>270</ele>
        <time>2017-06-26T11:35:01Z</time>
      </trkpt>
      <trkpt lat="48.59021" lon="6.46314">
        <ele>270</ele>
        <time>2017-06-26T11:35:02Z</time>
      </trkpt>
      <trkpt lat="48.5902" lon="6.46313">
        <ele>270</ele>
        <time>2017-06-26T11:35:03Z</time>
      </trkpt>
      <trkpt lat="48.59019" lon="6.46312">
        <ele>270</ele>
        <time>2017-06-26T11:35:04Z</time>
      </trkpt>
      <trkpt lat="48.59018" lon="6.46311">
        <ele>270</ele>
        <time>2017-06-26T11:35:05Z</time>
      </trkpt>
      <trkpt lat="48.59014" lon="6.46306">
        <ele>270</ele>
        <time>2017-06-26T11:35:06Z</time>
      </trkpt>
      <trkpt lat="48.59012" lon="6.46304">
        <ele>270</ele>
        <time>2017-06-26T11:35:07Z</time>
      </trkpt>
      <trkpt lat="48.59009" lon="6.46302">
        <ele>270</ele>
        <time>2017-06-26T11:35:08Z</time>
      </trkpt>
      <trkpt lat="48.59007" lon="6.463">
        <ele>270</ele>
        <time>2017-06-26T11:35:09Z</time>
      </trkpt>
      <trkpt lat="48.59005" lon="6.46298">
        <ele>270</ele>
        <time>2017-06-26T11:35:10Z</time>
      </trkpt>
      <trkpt lat="48.59004" lon="6.46297">
        <ele>270</ele>
        <time>2017-06-26T11:35:11Z</time>
      </trkpt>
      <trkpt lat="48.59003" lon="6.46296">
        <ele>270</ele>
        <time>2017-06-26T11:35:12Z</time>
      </trkpt>
      <trkpt lat="48.59002" lon="6.46294">
        <ele>270</ele>
        <time>2017-06-26T11:35:13Z</time>
      </trkpt>
      <trkpt lat="48.59" lon="6.46293">
        <ele>270</ele>
        <time>2017-06-26T11:35:14Z</time>
      </trkpt>
      <trkpt lat="48.58996" lon="6.46288">
        <ele>271</ele>
        <time>2017-06-26T11:35:15Z</time>
      </trkpt>
      <trkpt lat="48.58995" lon="6.46287">
        <ele>271</ele>
        <time>2017-06-26T11:35:16Z</time>
      </trkpt>
      <trkpt lat="48.58994" lon="6.46285">
        <ele>271</ele>
        <time>2017-06-26T11:35:17Z</time>
      </trkpt>
      <trkpt lat="48.58992" lon="6.46284">
        <ele>271</ele>
        <time>2017-06-26T11:35:18Z</time>
      </trkpt>
      <trkpt lat="48.58991" lon="6.46283">
        <ele>271</ele>
        <time>2017-06-26T11:35:19Z</time>
      </trkpt>
      <trkpt lat="48.58987" lon="6.46277">
        <ele>271</ele>
        <time>2017-06-26T11:35:20Z</time>
      </trkpt>
      <trkpt lat="48.58986" lon="6.46275">
        <ele>271</ele>
        <time>2017-06-26T11:35:21Z</time>
      </trkpt>
      <trkpt lat="48.58985" lon="6.46273">
        <ele>271</ele>
        <time>2017-06-26T11:35:22Z</time>
      </trkpt>
      <trkpt lat="48.58984" lon="6.46271">
        <ele>271</ele>
        <time>2017-06-26T11:35:23Z</time>
      </trkpt>
      <trkpt lat="48.58982" lon="6.46269">
        <ele>271</ele>
        <time>2017-06-26T11:35:24Z</time>
      </trkpt>
      <trkpt lat="48.58981" lon="6.46267">
        <ele>271</ele>
        <time>2017-06-26T11:35:25Z</time>
      </trkpt>
      <trkpt lat="48.5898" lon="6.46265">
        <ele>271</ele>
        <time>2017-06-26T11:35:26Z</time>
      </trkpt>
      <trkpt lat="48.58979" lon="6.46264">
        <ele>271</ele>
        <time>2017-06-26T11:35:27Z</time>
      </trkpt>
      <trkpt lat="48.58979" lon="6.46263">
        <ele>271</ele>
        <time>2017-06-26T11:35:28Z</time>
      </trkpt>
      <trkpt lat="48.58978" lon="6.46262">
        <ele>271</ele>
        <time>2017-06-26T11:35:29Z</time>
      </trkpt>
      <trkpt lat="48.58977" lon="6.46261">
        <ele>271</ele>
        <time>2017-06-26T11:35:30Z</time>
      </trkpt>
      <trkpt lat="48.58976" lon="6.4626">
        <ele>271</ele>
        <time>2017-06-26T11:35:31Z</time>
      </trkpt>
      <trkpt lat="48.58972" lon="6.46254">
        <ele>271</ele>
        <time>2017-06-26T11:35:32Z</time>
      </trkpt>
      <trkpt lat="48.58971" lon="6.46253">
        <ele>271</ele>
        <time>2017-06-26T11:35:33Z</time>
      </trkpt>
      <trkpt lat="48.5897" lon="6.46251">
        <ele>271</ele>
        <time>2017-06-26T11:35:34Z</time>
      </trkpt>
      <trkpt lat="48.5897" lon="6.4625">
        <ele>273</ele>
        <time>2017-06-26T11:35:35Z</time>
      </trkpt>
      <trkpt lat="48.58969" lon="6.46248">
        <ele>273</ele>
        <time>2017-06-26T11:35:36Z</time>
      </trkpt>
      <trkpt lat="48.58965" lon="6.46242">
        <ele>273</ele>
        <time>2017-06-26T11:35:37Z</time>
      </trkpt>
      <trkpt lat="48.58963" lon="6.4624">
        <ele>273</ele>
        <time>2017-06-26T11:35:38Z</time>
      </trkpt>
      <trkpt lat="48.58962" lon="6.46238">
        <ele>273</ele>
        <time>2017-06-26T11:35:39Z</time>
      </trkpt>
      <trkpt lat="48.58961" lon="6.46236">
        <ele>273</ele>
        <time>2017-06-26T11:35:40Z</time>
      </trkpt>
      <trkpt lat="48.58959" lon="6.46234">
        <ele>273</ele>
        <time>2017-06-26T11:35:41Z</time>
      </trkpt>
      <trkpt lat="48.58958" lon="6.46232">
        <ele>273</ele>
        <time>2017-06-26T11:35:42Z</time>
      </trkpt>
      <trkpt lat="48.58957" lon="6.4623">
        <ele>273</ele>
        <time>2017-06-26T11:35:43Z</time>
      </trkpt>
      <trkpt lat="48.58956" lon="6.46229">
        <ele>273</ele>
        <time>2017-06-26T11:35:44Z</time>
      </trkpt>
      <trkpt lat="48.58955" lon="6.46228">
        <ele>273</ele>
        <time>2017-06-26T11:35:45Z</time>
      </trkpt>
      <trkpt lat="48.58954" lon="6.46227">
        <ele>273</ele>
        <time>2017-06-26T11:35:46Z</time>
      </trkpt>
      <trkpt lat="48.58954" lon="6.46226">
        <ele>273</ele>
        <time>2017-06-26T11:35:47Z</time>
      </trkpt>
      <trkpt lat="48.5895" lon="6.4622">
        <ele>274</ele>
        <time>2017-06-26T11:35:48Z</time>
      </trkpt>
      <trkpt lat="48.58948" lon="6.46218">
        <ele>274</ele>
        <time>2017-06-26T11:35:49Z</time>
      </trkpt>
      <trkpt lat="48.58946" lon="6.46216">
        <ele>274</ele>
        <time>2017-06-26T11:35:50Z</time>
      </trkpt>
      <trkpt lat="48.58945" lon="6.46214">
        <ele>274</ele>
        <time>2017-06-26T11:35:51Z</time>
      </trkpt>
      <trkpt lat="48.58943" lon="6.46213">
        <ele>274</ele>
        <time>2017-06-26T11:35:52Z</time>
      </trkpt>
      <trkpt lat="48.58941" lon="6.46211">
        <ele>274</ele>
        <time>2017-06-26T11:35:53Z</time>
      </trkpt>
      <trkpt lat="48.5894" lon="6.4621">
        <ele>274</ele>
        <time>2017-06-26T11:35:54Z</time>
      </trkpt>
      <trkpt lat="48.58939" lon="6.46209">
        <ele>274</ele>
        <time>2017-06-26T11:35:55Z</time>
      </trkpt>
      <trkpt lat="48.58938" lon="6.46207">
        <ele>274</ele>
        <time>2017-06-26T11:35:56Z</time>
      </trkpt>
      <trkpt lat="48.58937" lon="6.46206">
        <ele>274</ele>
        <time>2017-06-26T11:35:57Z</time>
      </trkpt>
      <trkpt lat="48.58933" lon="6.46201">
        <ele>274</ele>
        <time>2017-06-26T11:35:58Z</time>
      </trkpt>
      <trkpt lat="48.58932" lon="6.462">
        <ele>274</ele>
        <time>2017-06-26T11:35:59Z</time>
      </trkpt>
      <trkpt lat="48.58931" lon="6.46199">
        <ele>274</ele>
        <time>2017-06-26T11:36:00Z</time>
      </trkpt>
      <trkpt lat="48.5893" lon="6.46197">
        <ele>274</ele>
        <time>2017-06-26T11:36:01Z</time>
      </trkpt>
      <trkpt lat="48.58929" lon="6.46196">
        <ele>275</ele>
        <time>2017-06-26T11:36:02Z</time>
      </trkpt>
      <trkpt lat="48.58925" lon="6.4619">
        <ele>275</ele>
        <time>2017-06-26T11:36:03Z</time>
      </trkpt>
      <trkpt lat="48.58924" lon="6.46189">
        <ele>275</ele>
        <time>2017-06-26T11:36:04Z</time>
      </trkpt>
      <trkpt lat="48.58924" lon="6.46188">
        <ele>275</ele>
        <time>2017-06-26T11:36:05Z</time>
      </trkpt>
      <trkpt lat="48.58923" lon="6.46186">
        <ele>275</ele>
        <time>2017-06-26T11:36:06Z</time>
      </trkpt>
      <trkpt lat="48.58923" lon="6.46185">
        <ele>275</ele>
        <time>2017-06-26T11:36:07Z</time>
      </trkpt>
      <trkpt lat="48.58922" lon="6.46184">
        <ele>275</ele>
        <time>2017-06-26T11:36:08Z</time>
      </trkpt>
      <trkpt lat="48.58919" lon="6.46177">
        <ele>275</ele>
        <time>2017-06-26T11:36:09Z</time>
      </trkpt>
      <trkpt lat="48.58919" lon="6.46176">
        <ele>275</ele>
        <time>2017-06-26T11:36:10Z</time>
      </trkpt>
      <trkpt lat="48.58918" lon="6.46175">
        <ele>275</ele>
        <time>2017-06-26T11:36:11Z</time>
      </trkpt>
      <trkpt lat="48.58917" lon="6.46174">
        <ele>275</ele>
        <time>2017-06-26T11:36:12Z</time>
      </trkpt>
      <trkpt lat="48.58916" lon="6.46172">
        <ele>275</ele>
        <time>2017-06-26T11:36:13Z</time>
      </trkpt>
      <trkpt lat="48.58915" lon="6.46171">
        <ele>275</ele>
        <time>2017-06-26T11:36:14Z</time>
      </trkpt>
      <trkpt lat="48.58911" lon="6.46166">
        <ele>276</ele>
        <time>2017-06-26T11:36:15Z</time>
      </trkpt>
      <trkpt lat="48.5891" lon="6.46165">
        <ele>276</ele>
        <time>2017-06-26T11:36:16Z</time>
      </trkpt>
      <trkpt lat="48.58909" lon="6.46164">
        <ele>276</ele>
        <time>2017-06-26T11:36:17Z</time>
      </trkpt>
      <trkpt lat="48.58907" lon="6.46163">
        <ele>276</ele>
        <time>2017-06-26T11:36:18Z</time>
      </trkpt>
      <trkpt lat="48.58906" lon="6.46162">
        <ele>276</ele>
        <time>2017-06-26T11:36:19Z</time>
      </trkpt>
      <trkpt lat="48.58901" lon="6.46158">
        <ele>276</ele>
        <time>2017-06-26T11:36:20Z</time>
      </trkpt>
      <trkpt lat="48.589" lon="6.46157">
        <ele>276</ele>
        <time>2017-06-26T11:36:21Z</time>
      </trkpt>
      <trkpt lat="48.58898" lon="6.46156">
        <ele>276</ele>
        <time>2017-06-26T11:36:22Z</time>
      </trkpt>
      <trkpt lat="48.58897" lon="6.46155">
        <ele>276</ele>
        <time>2017-06-26T11:36:23Z</time>
      </trkpt>
      <trkpt lat="48.58896" lon="6.46154">
        <ele>276</ele>
        <time>2017-06-26T11:36:24Z</time>
      </trkpt>
      <trkpt lat="48.58891" lon="6.46149">
        <ele>276</ele>
        <time>2017-06-26T11:36:25Z</time>
      </trkpt>
      <trkpt lat="48.5889" lon="6.46148">
        <ele>276</ele>
        <time>2017-06-26T11:36:26Z</time>
      </trkpt>
      <trkpt lat="48.58889" lon="6.46147">
        <ele>276</ele>
        <time>2017-06-26T11:36:27Z</time>
      </trkpt>
      <trkpt lat="48.58888" lon="6.46146">
        <ele>276</ele>
        <time>2017-06-26T11:36:28Z</time>
      </trkpt>
      <trkpt lat="48.58888" lon="6.46145">
        <ele>276</ele>
        <time>2017-06-26T11:36:29Z</time>
      </trkpt>
      <trkpt lat="48.58887" lon="6.46143">
        <ele>277</ele>
        <time>2017-06-26T11:36:30Z</time>
      </trkpt>
      <trkpt lat="48.58883" lon="6.46137">
        <ele>277</ele>
        <time>2017-06-26T11:36:31Z</time>
      </trkpt>
      <trkpt lat="48.58882" lon="6.46136">
        <ele>277</ele>
        <time>2017-06-26T11:36:32Z</time>
      </trkpt>
      <trkpt lat="48.58882" lon="6.46135">
        <ele>277</ele>
        <time>2017-06-26T11:36:33Z</time>
      </trkpt>
      <trkpt lat="48.58881" lon="6.46134">
        <ele>277</ele>
        <time>2017-06-26T11:36:34Z</time>
      </trkpt>
      <trkpt lat="48.5888" lon="6.46132">
        <ele>277</ele>
        <time>2017-06-26T11:36:35Z</time>
      </trkpt>
      <trkpt lat="48.5888" lon="6.46131">
        <ele>277</ele>
        <time>2017-06-26T11:36:36Z</time>
      </trkpt>
      <trkpt lat="48.58877" lon="6.46125">
        <ele>277</ele>
        <time>2017-06-26T11:36:37Z</time>
      </trkpt>
      <trkpt lat="48.58875" lon="6.46123">
        <ele>277</ele>
        <time>2017-06-26T11:36:38Z</time>
      </trkpt>
      <trkpt lat="48.58874" lon="6.46121">
        <ele>277</ele>
        <time>2017-06-26T11:36:39Z</time>
      </trkpt>
      <trkpt lat="48.58872" lon="6.46119">
        <ele>277</ele>
        <time>2017-06-26T11:36:40Z</time>
      </trkpt>
      <trkpt lat="48.5887" lon="6.46117">
        <ele>277</ele>
        <time>2017-06-26T11:36:41Z</time>
      </trkpt>
      <trkpt lat="48.58869" lon="6.46115">
        <ele>277</ele>
        <time>2017-06-26T11:36:42Z</time>
      </trkpt>
      <trkpt lat="48.58868" lon="6.46114">
        <ele>277</ele>
        <time>2017-06-26T11:36:43Z</time>
      </trkpt>
      <trkpt lat="48.58867" lon="6.46112">
        <ele>278</ele>
        <time>2017-06-26T11:36:44Z</time>
      </trkpt>
      <trkpt lat="48.58866" lon="6.4611">
        <ele>279</ele>
        <time>2017-06-26T11:36:45Z</time>
      </trkpt>
      <trkpt lat="48.58865" lon="6.46109">
        <ele>279</ele>
        <time>2017-06-26T11:36:46Z</time>
      </trkpt>
      <trkpt lat="48.58864" lon="6.46107">
        <ele>279</ele>
        <time>2017-06-26T11:36:47Z</time>
      </trkpt>
      <trkpt lat="48.58863" lon="6.46106">
        <ele>279</ele>
        <time>2017-06-26T11:36:48Z</time>
      </trkpt>
      <trkpt lat="48.58862" lon="6.46104">
        <ele>279</ele>
        <time>2017-06-26T11:36:49Z</time>
      </trkpt>
      <trkpt lat="48.58861" lon="6.46102">
        <ele>279</ele>
        <time>2017-06-26T11:36:50Z</time>
      </trkpt>
      <trkpt lat="48.5886" lon="6.461">
        <ele>279</ele>
        <time>2017-06-26T11:36:51Z</time>
      </trkpt>
      <trkpt lat="48.58859" lon="6.46099">
        <ele>279</ele>
        <time>2017-06-26T11:36:52Z</time>
      </trkpt>
      <trkpt lat="48.58857" lon="6.46097">
        <ele>279</ele>
        <time>2017-06-26T11:36:53Z</time>
      </trkpt>
      <trkpt lat="48.58856" lon="6.46095">
        <ele>279</ele>
        <time>2017-06-26T11:36:54Z</time>
      </trkpt>
      <trkpt lat="48.58855" lon="6.46093">
        <ele>280</ele>
        <time>2017-06-26T11:36:55Z</time>
      </trkpt>
      <trkpt lat="48.58854" lon="6.46092">
        <ele>280</ele>
        <time>2017-06-26T11:36:56Z</time>
      </trkpt>
      <trkpt lat="48.58853" lon="6.4609">
        <ele>280</ele>
        <time>2017-06-26T11:36:57Z</time>
      </trkpt>
      <trkpt lat="48.58853" lon="6.46089">
        <ele>280</ele>
        <time>2017-06-26T11:36:58Z</time>
      </trkpt>
      <trkpt lat="48.58852" lon="6.46088">
        <ele>280</ele>
        <time>2017-06-26T11:36:59Z</time>
      </trkpt>
      <trkpt lat="48.58851" lon="6.46087">
        <ele>280</ele>
        <time>2017-06-26T11:37:00Z</time>
      </trkpt>
      <trkpt lat="48.58847" lon="6.46081">
        <ele>280</ele>
        <time>2017-06-26T11:37:01Z</time>
      </trkpt>
      <trkpt lat="48.58846" lon="6.46079">
        <ele>280</ele>
        <time>2017-06-26T11:37:02Z</time>
      </trkpt>
      <trkpt lat="48.58844" lon="6.46077">
        <ele>280</ele>
        <time>2017-06-26T11:37:03Z</time>
      </trkpt>
      <trkpt lat="48.58843" lon="6.46075">
        <ele>280</ele>
        <time>2017-06-26T11:37:04Z</time>
      </trkpt>
      <trkpt lat="48.58841" lon="6.46072">
        <ele>281</ele>
        <time>2017-06-26T11:37:05Z</time>
      </trkpt>
      <trkpt lat="48.5884" lon="6.4607">
        <ele>281</ele>
        <time>2017-06-26T11:37:06Z</time>
      </trkpt>
      <trkpt lat="48.58838" lon="6.46067">
        <ele>281</ele>
        <time>2017-06-26T11:37:07Z</time>
      </trkpt>
      <trkpt lat="48.58837" lon="6.46064">
        <ele>281</ele>
        <time>2017-06-26T11:37:08Z</time>
      </trkpt>
      <trkpt lat="48.58835" lon="6.46061">
        <ele>281</ele>
        <time>2017-06-26T11:37:09Z</time>
      </trkpt>
      <trkpt lat="48.58833" lon="6.46059">
        <ele>281</ele>
        <time>2017-06-26T11:37:10Z</time>
      </trkpt>
      <trkpt lat="48.58832" lon="6.46057">
        <ele>281</ele>
        <time>2017-06-26T11:37:11Z</time>
      </trkpt>
      <trkpt lat="48.58832" lon="6.46055">
        <ele>281</ele>
        <time>2017-06-26T11:37:12Z</time>
      </trkpt>
      <trkpt lat="48.58831" lon="6.46054">
        <ele>281</ele>
        <time>2017-06-26T11:37:13Z</time>
      </trkpt>
      <trkpt lat="48.5883" lon="6.46052">
        <ele>281</ele>
        <time>2017-06-26T11:37:14Z</time>
      </trkpt>
      <trkpt lat="48.58826" lon="6.46045">
        <ele>282</ele>
        <time>2017-06-26T11:37:15Z</time>
      </trkpt>
      <trkpt lat="48.58825" lon="6.46044">
        <ele>282</ele>
        <time>2017-06-26T11:37:16Z</time>
      </trkpt>
      <trkpt lat="48.58824" lon="6.46042">
        <ele>282</ele>
        <time>2017-06-26T11:37:17Z</time>
      </trkpt>
      <trkpt lat="48.58823" lon="6.4604">
        <ele>282</ele>
        <time>2017-06-26T11:37:18Z</time>
      </trkpt>
      <trkpt lat="48.58823" lon="6.46039">
        <ele>282</ele>
        <time>2017-06-26T11:37:19Z</time>
      </trkpt>
      <trkpt lat="48.58819" lon="6.46032">
        <ele>282</ele>
        <time>2017-06-26T11:37:20Z</time>
      </trkpt>
      <trkpt lat="48.58817" lon="6.4603">
        <ele>282</ele>
        <time>2017-06-26T11:37:21Z</time>
      </trkpt>
      <trkpt lat="48.58816" lon="6.46028">
        <ele>282</ele>
        <time>2017-06-26T11:37:22Z</time>
      </trkpt>
      <trkpt lat="48.58815" lon="6.46025">
        <ele>282</ele>
        <time>2017-06-26T11:37:23Z</time>
      </trkpt>
      <trkpt lat="48.58813" lon="6.46023">
        <ele>282</ele>
        <time>2017-06-26T11:37:24Z</time>
      </trkpt>
      <trkpt lat="48.58812" lon="6.46021">
        <ele>282</ele>
        <time>2017-06-26T11:37:25Z</time>
      </trkpt>
      <trkpt lat="48.58811" lon="6.4602">
        <ele>282</ele>
        <time>2017-06-26T11:37:26Z</time>
      </trkpt>
      <trkpt lat="48.5881" lon="6.46018">
        <ele>282</ele>
        <time>2017-06-26T11:37:27Z</time>
      </trkpt>
      <trkpt lat="48.58809" lon="6.46017">
        <ele>282</ele>
        <time>2017-06-26T11:37:28Z</time>
      </trkpt>
      <trkpt lat="48.58809" lon="6.46016">
        <ele>282</ele>
        <time>2017-06-26T11:37:29Z</time>
      </trkpt>
      <trkpt lat="48.58808" lon="6.46014">
        <ele>282</ele>
        <time>2017-06-26T11:37:30Z</time>
      </trkpt>
      <trkpt lat="48.58804" lon="6.46008">
        <ele>282</ele>
        <time>2017-06-26T11:37:31Z</time>
      </trkpt>
      <trkpt lat="48.58804" lon="6.46006">
        <ele>282</ele>
        <time>2017-06-26T11:37:32Z</time>
      </trkpt>
      <trkpt lat="48.58803" lon="6.46005">
        <ele>282</ele>
        <time>2017-06-26T11:37:33Z</time>
      </trkpt>
      <trkpt lat="48.58802" lon="6.46004">
        <ele>282</ele>
        <time>2017-06-26T11:37:34Z</time>
      </trkpt>
      <trkpt lat="48.58802" lon="6.46003">
        <ele>282</ele>
        <time>2017-06-26T11:37:35Z</time>
      </trkpt>
      <trkpt lat="48.58801" lon="6.46001">
        <ele>282</ele>
        <time>2017-06-26T11:37:36Z</time>
      </trkpt>
      <trkpt lat="48.58797" lon="6.45995">
        <ele>282</ele>
        <time>2017-06-26T11:37:37Z</time>
      </trkpt>
      <trkpt lat="48.58796" lon="6.45994">
        <ele>282</ele>
        <time>2017-06-26T11:37:38Z</time>
      </trkpt>
      <trkpt lat="48.58795" lon="6.45992">
        <ele>282</ele>
        <time>2017-06-26T11:37:39Z</time>
      </trkpt>
      <trkpt lat="48.58794" lon="6.45991">
        <ele>282</ele>
        <time>2017-06-26T11:37:40Z</time>
      </trkpt>
      <trkpt lat="48.58793" lon="6.45989">
        <ele>282</ele>
        <time>2017-06-26T11:37:41Z</time>
      </trkpt>
      <trkpt lat="48.5879" lon="6.45983">
        <ele>282</ele>
        <time>2017-06-26T11:37:42Z</time>
      </trkpt>
      <trkpt lat="48.58789" lon="6.45982">
        <ele>282</ele>
        <time>2017-06-26T11:37:43Z</time>
      </trkpt>
      <trkpt lat="48.58788" lon="6.4598">
        <ele>282</ele>
        <time>2017-06-26T11:37:44Z</time>
      </trkpt>
      <trkpt lat="48.58787" lon="6.45979">
        <ele>282</ele>
        <time>2017-06-26T11:37:45Z</time>
      </trkpt>
      <trkpt lat="48.58786" lon="6.45978">
        <ele>282</ele>
        <time>2017-06-26T11:37:46Z</time>
      </trkpt>
      <trkpt lat="48.58782" lon="6.45972">
        <ele>282</ele>
        <time>2017-06-26T11:37:47Z</time>
      </trkpt>
      <trkpt lat="48.58781" lon="6.4597">
        <ele>282</ele>
        <time>2017-06-26T11:37:48Z</time>
      </trkpt>
      <trkpt lat="48.5878" lon="6.45969">
        <ele>282</ele>
        <time>2017-06-26T11:37:49Z</time>
      </trkpt>
      <trkpt lat="48.58779" lon="6.45967">
        <ele>282</ele>
        <time>2017-06-26T11:37:50Z</time>
      </trkpt>
      <trkpt lat="48.58778" lon="6.45966">
        <ele>282</ele>
        <time>2017-06-26T11:37:51Z</time>
      </trkpt>
      <trkpt lat="48.58774" lon="6.4596">
        <ele>282</ele>
        <time>2017-06-26T11:37:52Z</time>
      </trkpt>
      <trkpt lat="48.58772" lon="6.45958">
        <ele>282</ele>
        <time>2017-06-26T11:37:53Z</time>
      </trkpt>
      <trkpt lat="48.58771" lon="6.45957">
        <ele>282</ele>
        <time>2017-06-26T11:37:54Z</time>
      </trkpt>
      <trkpt lat="48.5877" lon="6.45956">
        <ele>282</ele>
        <time>2017-06-26T11:37:55Z</time>
      </trkpt>
      <trkpt lat="48.58769" lon="6.45954">
        <ele>282</ele>
        <time>2017-06-26T11:37:56Z</time>
      </trkpt>
      <trkpt lat="48.58764" lon="6.45949">
        <ele>282</ele>
        <time>2017-06-26T11:37:57Z</time>
      </trkpt>
      <trkpt lat="48.58763" lon="6.45947">
        <ele>282</ele>
        <time>2017-06-26T11:37:58Z</time>
      </trkpt>
      <trkpt lat="48.58763" lon="6.45945">
        <ele>282</ele>
        <time>2017-06-26T11:37:59Z</time>
      </trkpt>
      <trkpt lat="48.58762" lon="6.45944">
        <ele>282</ele>
        <time>2017-06-26T11:38:00Z</time>
      </trkpt>
      <trkpt lat="48.58761" lon="6.45942">
        <ele>282</ele>
        <time>2017-06-26T11:38:01Z</time>
      </trkpt>
      <trkpt lat="48.58758" lon="6.45936">
        <ele>282</ele>
        <time>2017-06-26T11:38:02Z</time>
      </trkpt>
      <trkpt lat="48.58757" lon="6.45935">
        <ele>282</ele>
        <time>2017-06-26T11:38:03Z</time>
      </trkpt>
      <trkpt lat="48.58756" lon="6.45933">
        <ele>282</ele>
        <time>2017-06-26T11:38:04Z</time>
      </trkpt>
      <trkpt lat="48.58755" lon="6.45932">
        <ele>281</ele>
        <time>2017-06-26T11:38:05Z</time>
      </trkpt>
      <trkpt lat="48.58754" lon="6.4593">
        <ele>281</ele>
        <time>2017-06-26T11:38:06Z</time>
      </trkpt>
      <trkpt lat="48.58749" lon="6.45924">
        <ele>281</ele>
        <time>2017-06-26T11:38:07Z</time>
      </trkpt>
      <trkpt lat="48.58748" lon="6.45923">
        <ele>281</ele>
        <time>2017-06-26T11:38:08Z</time>
      </trkpt>
      <trkpt lat="48.58747" lon="6.45921">
        <ele>281</ele>
        <time>2017-06-26T11:38:09Z</time>
      </trkpt>
      <trkpt lat="48.58746" lon="6.4592">
        <ele>281</ele>
        <time>2017-06-26T11:38:10Z</time>
      </trkpt>
      <trkpt lat="48.58745" lon="6.45918">
        <ele>281</ele>
        <time>2017-06-26T11:38:11Z</time>
      </trkpt>
      <trkpt lat="48.58741" lon="6.45913">
        <ele>281</ele>
        <time>2017-06-26T11:38:12Z</time>
      </trkpt>
      <trkpt lat="48.5874" lon="6.45911">
        <ele>281</ele>
        <time>2017-06-26T11:38:13Z</time>
      </trkpt>
      <trkpt lat="48.58739" lon="6.45909">
        <ele>281</ele>
        <time>2017-06-26T11:38:14Z</time>
      </trkpt>
      <trkpt lat="48.58738" lon="6.45907">
        <ele>281</ele>
        <time>2017-06-26T11:38:15Z</time>
      </trkpt>
      <trkpt lat="48.58734" lon="6.45901">
        <ele>281</ele>
        <time>2017-06-26T11:38:16Z</time>
      </trkpt>
      <trkpt lat="48.58733" lon="6.45899">
        <ele>281</ele>
        <time>2017-06-26T11:38:17Z</time>
      </trkpt>
      <trkpt lat="48.58731" lon="6.45897">
        <ele>281</ele>
        <time>2017-06-26T11:38:18Z</time>
      </trkpt>
      <trkpt lat="48.5873" lon="6.45896">
        <ele>281</ele>
        <time>2017-06-26T11:38:19Z</time>
      </trkpt>
      <trkpt lat="48.58726" lon="6.45891">
        <ele>281</ele>
        <time>2017-06-26T11:38:20Z</time>
      </trkpt>
      <trkpt lat="48.58725" lon="6.45889">
        <ele>281</ele>
        <time>2017-06-26T11:38:21Z</time>
      </trkpt>
      <trkpt lat="48.58724" lon="6.45888">
        <ele>281</ele>
        <time>2017-06-26T11:38:22Z</time>
      </trkpt>
      <trkpt lat="48.58723" lon="6.45887">
        <ele>281</ele>
        <time>2017-06-26T11:38:23Z</time>
      </trkpt>
      <trkpt lat="48.58722" lon="6.45886">
        <ele>281</ele>
        <time>2017-06-26T11:38:24Z</time>
      </trkpt>
      <trkpt lat="48.58722" lon="6.45884">
        <ele>280</ele>
        <time>2017-06-26T11:38:25Z</time>
      </trkpt>
      <trkpt lat="48.58717" lon="6.45878">
        <ele>280</ele>
        <time>2017-06-26T11:38:26Z</time>
      </trkpt>
      <trkpt lat="48.58716" lon="6.45877">
        <ele>280</ele>
        <time>2017-06-26T11:38:27Z</time>
      </trkpt>
      <trkpt lat="48.58715" lon="6.45876">
        <ele>280</ele>
        <time>2017-06-26T11:38:28Z</time>
      </trkpt>
      <trkpt lat="48.58714" lon="6.45874">
        <ele>280</ele>
        <time>2017-06-26T11:38:29Z</time>
      </trkpt>
      <trkpt lat="48.58713" lon="6.45873">
        <ele>280</ele>
        <time>2017-06-26T11:38:30Z</time>
      </trkpt>
      <trkpt lat="48.5871" lon="6.45867">
        <ele>280</ele>
        <time>2017-06-26T11:38:31Z</time>
      </trkpt>
      <trkpt lat="48.58709" lon="6.45866">
        <ele>280</ele>
        <time>2017-06-26T11:38:32Z</time>
      </trkpt>
      <trkpt lat="48.58708" lon="6.45865">
        <ele>280</ele>
        <time>2017-06-26T11:38:33Z</time>
      </trkpt>
      <trkpt lat="48.58706" lon="6.45863">
        <ele>280</ele>
        <time>2017-06-26T11:38:34Z</time>
      </trkpt>
      <trkpt lat="48.58705" lon="6.45862">
        <ele>279</ele>
        <time>2017-06-26T11:38:35Z</time>
      </trkpt>
      <trkpt lat="48.58701" lon="6.45857">
        <ele>279</ele>
        <time>2017-06-26T11:38:36Z</time>
      </trkpt>
      <trkpt lat="48.587" lon="6.45855">
        <ele>279</ele>
        <time>2017-06-26T11:38:37Z</time>
      </trkpt>
      <trkpt lat="48.58699" lon="6.45854">
        <ele>279</ele>
        <time>2017-06-26T11:38:38Z</time>
      </trkpt>
      <trkpt lat="48.58697" lon="6.45853">
        <ele>279</ele>
        <time>2017-06-26T11:38:39Z</time>
      </trkpt>
      <trkpt lat="48.58696" lon="6.45852">
        <ele>279</ele>
        <time>2017-06-26T11:38:40Z</time>
      </trkpt>
      <trkpt lat="48.58692" lon="6.45848">
        <ele>279</ele>
        <time>2017-06-26T11:38:41Z</time>
      </trkpt>
      <trkpt lat="48.58691" lon="6.45847">
        <ele>279</ele>
        <time>2017-06-26T11:38:42Z</time>
      </trkpt>
      <trkpt lat="48.5869" lon="6.45846">
        <ele>279</ele>
        <time>2017-06-26T11:38:43Z</time>
      </trkpt>
      <trkpt lat="48.58689" lon="6.45845">
        <ele>279</ele>
        <time>2017-06-26T11:38:44Z</time>
      </trkpt>
      <trkpt lat="48.58688" lon="6.45844">
        <ele>276</ele>
        <time>2017-06-26T11:38:45Z</time>
      </trkpt>
      <trkpt lat="48.58687" lon="6.45843">
        <ele>276</ele>
        <time>2017-06-26T11:38:46Z</time>
      </trkpt>
      <trkpt lat="48.58683" lon="6.45837">
        <ele>276</ele>
        <time>2017-06-26T11:38:47Z</time>
      </trkpt>
      <trkpt lat="48.58682" lon="6.45836">
        <ele>276</ele>
        <time>2017-06-26T11:38:48Z</time>
      </trkpt>
      <trkpt lat="48.58681" lon="6.45834">
        <ele>276</ele>
        <time>2017-06-26T11:38:49Z</time>
      </trkpt>
      <trkpt lat="48.5868" lon="6.45833">
        <ele>275</ele>
        <time>2017-06-26T11:38:50Z</time>
      </trkpt>
      <trkpt lat="48.58678" lon="6.45832">
        <ele>275</ele>
        <time>2017-06-26T11:38:51Z</time>
      </trkpt>
      <trkpt lat="48.58674" lon="6.45826">
        <ele>275</ele>
        <time>2017-06-26T11:38:52Z</time>
      </trkpt>
      <trkpt lat="48.58673" lon="6.45825">
        <ele>275</ele>
        <time>2017-06-26T11:38:53Z</time>
      </trkpt>
      <trkpt lat="48.58672" lon="6.45823">
        <ele>275</ele>
        <time>2017-06-26T11:38:54Z</time>
      </trkpt>
      <trkpt lat="48.58672" lon="6.45822">
        <ele>275</ele>
        <time>2017-06-26T11:38:55Z</time>
      </trkpt>
      <trkpt lat="48.58671" lon="6.45821">
        <ele>275</ele>
        <time>2017-06-26T11:38:56Z</time>
      </trkpt>
      <trkpt lat="48.5867" lon="6.4582">
        <ele>276</ele>
        <time>2017-06-26T11:38:57Z</time>
      </trkpt>
      <trkpt lat="48.58666" lon="6.45814">
        <ele>276</ele>
        <time>2017-06-26T11:38:58Z</time>
      </trkpt>
      <trkpt lat="48.58664" lon="6.45813">
        <ele>276</ele>
        <time>2017-06-26T11:38:59Z</time>
      </trkpt>
      <trkpt lat="48.58662" lon="6.45811">
        <ele>276</ele>
        <time>2017-06-26T11:39:00Z</time>
      </trkpt>
      <trkpt lat="48.58661" lon="6.4581">
        <ele>276</ele>
        <time>2017-06-26T11:39:01Z</time>
      </trkpt>
      <trkpt lat="48.58656" lon="6.45805">
        <ele>276</ele>
        <time>2017-06-26T11:39:02Z</time>
      </trkpt>
      <trkpt lat="48.58655" lon="6.45804">
        <ele>276</ele>
        <time>2017-06-26T11:39:03Z</time>
      </trkpt>
      <trkpt lat="48.58654" lon="6.45803">
        <ele>276</ele>
        <time>2017-06-26T11:39:04Z</time>
      </trkpt>
      <trkpt lat="48.58653" lon="6.45801">
        <ele>272</ele>
        <time>2017-06-26T11:39:05Z</time>
      </trkpt>
      <trkpt lat="48.58652" lon="6.458">
        <ele>272</ele>
        <time>2017-06-26T11:39:06Z</time>
      </trkpt>
      <trkpt lat="48.58648" lon="6.45795">
        <ele>272</ele>
        <time>2017-06-26T11:39:07Z</time>
      </trkpt>
      <trkpt lat="48.58647" lon="6.45794">
        <ele>272</ele>
        <time>2017-06-26T11:39:08Z</time>
      </trkpt>
      <trkpt lat="48.58646" lon="6.45793">
        <ele>272</ele>
        <time>2017-06-26T11:39:09Z</time>
      </trkpt>
      <trkpt lat="48.58645" lon="6.45792">
        <ele>272</ele>
        <time>2017-06-26T11:39:10Z</time>
      </trkpt>
      <trkpt lat="48.58645" lon="6.45791">
        <ele>272</ele>
        <time>2017-06-26T11:39:11Z</time>
      </trkpt>
      <trkpt lat="48.58644" lon="6.4579">
        <ele>272</ele>
        <time>2017-06-26T11:39:12Z</time>
      </trkpt>
      <trkpt lat="48.5864" lon="6.45784">
        <ele>272</ele>
        <time>2017-06-26T11:39:13Z</time>
      </trkpt>
      <trkpt lat="48.58638" lon="6.45783">
        <ele>272</ele>
        <time>2017-06-26T11:39:14Z</time>
      </trkpt>
      <trkpt lat="48.58637" lon="6.45781">
        <ele>271</ele>
        <time>2017-06-26T11:39:15Z</time>
      </trkpt>
      <trkpt lat="48.58635" lon="6.45779">
        <ele>271</ele>
        <time>2017-06-26T11:39:16Z</time>
      </trkpt>
      <trkpt lat="48.58633" lon="6.45777">
        <ele>271</ele>
        <time>2017-06-26T11:39:17Z</time>
      </trkpt>
      <trkpt lat="48.58631" lon="6.45776">
        <ele>271</ele>
        <time>2017-06-26T11:39:18Z</time>
      </trkpt>
      <trkpt lat="48.58631" lon="6.45774">
        <ele>271</ele>
        <time>2017-06-26T11:39:19Z</time>
      </trkpt>
      <trkpt lat="48.5863" lon="6.45772">
        <ele>271</ele>
        <time>2017-06-26T11:39:20Z</time>
      </trkpt>
      <trkpt lat="48.5863" lon="6.4577">
        <ele>271</ele>
        <time>2017-06-26T11:39:21Z</time>
      </trkpt>
      <trkpt lat="48.58629" lon="6.45768">
        <ele>271</ele>
        <time>2017-06-26T11:39:22Z</time>
      </trkpt>
      <trkpt lat="48.58627" lon="6.45761">
        <ele>271</ele>
        <time>2017-06-26T11:39:23Z</time>
      </trkpt>
      <trkpt lat="48.58627" lon="6.4576">
        <ele>271</ele>
        <time>2017-06-26T11:39:24Z</time>
      </trkpt>
      <trkpt lat="48.58627" lon="6.45758">
        <ele>272</ele>
        <time>2017-06-26T11:39:25Z</time>
      </trkpt>
      <trkpt lat="48.58628" lon="6.45757">
        <ele>272</ele>
        <time>2017-06-26T11:39:26Z</time>
      </trkpt>
      <trkpt lat="48.58628" lon="6.45755">
        <ele>272</ele>
        <time>2017-06-26T11:39:27Z</time>
      </trkpt>
      <trkpt lat="48.58629" lon="6.45754">
        <ele>272</ele>
        <time>2017-06-26T11:39:28Z</time>
      </trkpt>
      <trkpt lat="48.58631" lon="6.45746">
        <ele>272</ele>
        <time>2017-06-26T11:39:29Z</time>
      </trkpt>
      <trkpt lat="48.58631" lon="6.45745">
        <ele>272</ele>
        <time>2017-06-26T11:39:30Z</time>
      </trkpt>
      <trkpt lat="48.58632" lon="6.45744">
        <ele>272</ele>
        <time>2017-06-26T11:39:31Z</time>
      </trkpt>
      <trkpt lat="48.58632" lon="6.45743">
        <ele>272</ele>
        <time>2017-06-26T11:39:32Z</time>
      </trkpt>
      <trkpt lat="48.58633" lon="6.45742">
        <ele>272</ele>
        <time>2017-06-26T11:39:34Z</time>
      </trkpt>
      <trkpt lat="48.58633" lon="6.45741">
        <ele>275</ele>
        <time>2017-06-26T11:39:35Z</time>
      </trkpt>
      <trkpt lat="48.58634" lon="6.4574">
        <ele>275</ele>
        <time>2017-06-26T11:39:36Z</time>
      </trkpt>
      <trkpt lat="48.58634" lon="6.45739">
        <ele>275</ele>
        <time>2017-06-26T11:39:37Z</time>
      </trkpt>
      <trkpt lat="48.58637" lon="6.45733">
        <ele>275</ele>
        <time>2017-06-26T11:39:38Z</time>
      </trkpt>
      <trkpt lat="48.58638" lon="6.45732">
        <ele>275</ele>
        <time>2017-06-26T11:39:39Z</time>
      </trkpt>
      <trkpt lat="48.58638" lon="6.45731">
        <ele>276</ele>
        <time>2017-06-26T11:39:40Z</time>
      </trkpt>
      <trkpt lat="48.58638" lon="6.4573">
        <ele>276</ele>
        <time>2017-06-26T11:39:42Z</time>
      </trkpt>
      <trkpt lat="48.58639" lon="6.4573">
        <ele>276</ele>
        <time>2017-06-26T11:39:43Z</time>
      </trkpt>
      <trkpt lat="48.58639" lon="6.45729">
        <ele>276</ele>
        <time>2017-06-26T11:39:44Z</time>
      </trkpt>
      <trkpt lat="48.58639" lon="6.45728">
        <ele>276</ele>
        <time>2017-06-26T11:39:45Z</time>
      </trkpt>
      <trkpt lat="48.5864" lon="6.45727">
        <ele>276</ele>
        <time>2017-06-26T11:39:47Z</time>
      </trkpt>
      <trkpt lat="48.5864" lon="6.45726">
        <ele>276</ele>
        <time>2017-06-26T11:39:48Z</time>
      </trkpt>
      <trkpt lat="48.58643" lon="6.4572">
        <ele>276</ele>
        <time>2017-06-26T11:39:49Z</time>
      </trkpt>
      <trkpt lat="48.58643" lon="6.45718">
        <ele>276</ele>
        <time>2017-06-26T11:39:50Z</time>
      </trkpt>
      <trkpt lat="48.58644" lon="6.45717">
        <ele>276</ele>
        <time>2017-06-26T11:39:51Z</time>
      </trkpt>
      <trkpt lat="48.58645" lon="6.45715">
        <ele>276</ele>
        <time>2017-06-26T11:39:52Z</time>
      </trkpt>
      <trkpt lat="48.58645" lon="6.45714">
        <ele>276</ele>
        <time>2017-06-26T11:39:53Z</time>
      </trkpt>
      <trkpt lat="48.58646" lon="6.45712">
        <ele>276</ele>
        <time>2017-06-26T11:39:54Z</time>
      </trkpt>
      <trkpt lat="48.58647" lon="6.45711">
        <ele>276</ele>
        <time>2017-06-26T11:39:55Z</time>
      </trkpt>
      <trkpt lat="48.58647" lon="6.4571">
        <ele>276</ele>
        <time>2017-06-26T11:39:56Z</time>
      </trkpt>
      <trkpt lat="48.58648" lon="6.45708">
        <ele>276</ele>
        <time>2017-06-26T11:39:57Z</time>
      </trkpt>
      <trkpt lat="48.58649" lon="6.45707">
        <ele>276</ele>
        <time>2017-06-26T11:39:58Z</time>
      </trkpt>
      <trkpt lat="48.58649" lon="6.45706">
        <ele>276</ele>
        <time>2017-06-26T11:39:59Z</time>
      </trkpt>
      <trkpt lat="48.58649" lon="6.45705">
        <ele>276</ele>
        <time>2017-06-26T11:40:00Z</time>
      </trkpt>
      <trkpt lat="48.5865" lon="6.45704">
        <ele>276</ele>
        <time>2017-06-26T11:40:01Z</time>
      </trkpt>
      <trkpt lat="48.5865" lon="6.45703">
        <ele>276</ele>
        <time>2017-06-26T11:40:02Z</time>
      </trkpt>
      <trkpt lat="48.5865" lon="6.45702">
        <ele>276</ele>
        <time>2017-06-26T11:40:03Z</time>
      </trkpt>
      <trkpt lat="48.58651" lon="6.45702">
        <ele>276</ele>
        <time>2017-06-26T11:40:04Z</time>
      </trkpt>
      <trkpt lat="48.58651" lon="6.45701">
        <ele>278</ele>
        <time>2017-06-26T11:40:05Z</time>
      </trkpt>
      <trkpt lat="48.58651" lon="6.457">
        <ele>278</ele>
        <time>2017-06-26T11:40:06Z</time>
      </trkpt>
      <trkpt lat="48.58654" lon="6.45693">
        <ele>278</ele>
        <time>2017-06-26T11:40:07Z</time>
      </trkpt>
      <trkpt lat="48.58655" lon="6.45692">
        <ele>278</ele>
        <time>2017-06-26T11:40:09Z</time>
      </trkpt>
      <trkpt lat="48.58655" lon="6.45691">
        <ele>278</ele>
        <time>2017-06-26T11:40:10Z</time>
      </trkpt>
      <trkpt lat="48.58656" lon="6.45691">
        <ele>278</ele>
        <time>2017-06-26T11:40:11Z</time>
      </trkpt>
      <trkpt lat="48.58656" lon="6.4569">
        <ele>278</ele>
        <time>2017-06-26T11:40:12Z</time>
      </trkpt>
      <trkpt lat="48.58657" lon="6.45689">
        <ele>278</ele>
        <time>2017-06-26T11:40:13Z</time>
      </trkpt>
      <trkpt lat="48.58658" lon="6.45688">
        <ele>278</ele>
        <time>2017-06-26T11:40:15Z</time>
      </trkpt>
      <trkpt lat="48.58662" lon="6.45682">
        <ele>278</ele>
        <time>2017-06-26T11:40:17Z</time>
      </trkpt>
      <trkpt lat="48.58662" lon="6.45681">
        <ele>278</ele>
        <time>2017-06-26T11:40:18Z</time>
      </trkpt>
      <trkpt lat="48.58663" lon="6.4568">
        <ele>278</ele>
        <time>2017-06-26T11:40:19Z</time>
      </trkpt>
      <trkpt lat="48.58663" lon="6.45679">
        <ele>278</ele>
        <time>2017-06-26T11:40:20Z</time>
      </trkpt>
      <trkpt lat="48.58664" lon="6.45679">
        <ele>278</ele>
        <time>2017-06-26T11:40:21Z</time>
      </trkpt>
      <trkpt lat="48.58664" lon="6.45678">
        <ele>278</ele>
        <time>2017-06-26T11:40:22Z</time>
      </trkpt>
      <trkpt lat="48.58665" lon="6.45677">
        <ele>278</ele>
        <time>2017-06-26T11:40:23Z</time>
      </trkpt>
      <trkpt lat="48.58665" lon="6.45676">
        <ele>278</ele>
        <time>2017-06-26T11:40:24Z</time>
      </trkpt>
      <trkpt lat="48.58669" lon="6.45671">
        <ele>279</ele>
        <time>2017-06-26T11:40:25Z</time>
      </trkpt>
      <trkpt lat="48.5867" lon="6.45669">
        <ele>279</ele>
        <time>2017-06-26T11:40:26Z</time>
      </trkpt>
      <trkpt lat="48.5867" lon="6.45668">
        <ele>279</ele>
        <time>2017-06-26T11:40:27Z</time>
      </trkpt>
      <trkpt lat="48.58671" lon="6.45666">
        <ele>279</ele>
        <time>2017-06-26T11:40:28Z</time>
      </trkpt>
      <trkpt lat="48.58671" lon="6.45665">
        <ele>279</ele>
        <time>2017-06-26T11:40:29Z</time>
      </trkpt>
      <trkpt lat="48.58672" lon="6.45664">
        <ele>279</ele>
        <time>2017-06-26T11:40:30Z</time>
      </trkpt>
      <trkpt lat="48.58672" lon="6.45662">
        <ele>279</ele>
        <time>2017-06-26T11:40:31Z</time>
      </trkpt>
      <trkpt lat="48.58673" lon="6.45661">
        <ele>279</ele>
        <time>2017-06-26T11:40:32Z</time>
      </trkpt>
      <trkpt lat="48.58673" lon="6.4566">
        <ele>279</ele>
        <time>2017-06-26T11:40:33Z</time>
      </trkpt>
      <trkpt lat="48.58674" lon="6.45658">
        <ele>279</ele>
        <time>2017-06-26T11:40:34Z</time>
      </trkpt>
      <trkpt lat="48.58674" lon="6.45657">
        <ele>280</ele>
        <time>2017-06-26T11:40:35Z</time>
      </trkpt>
      <trkpt lat="48.58675" lon="6.45656">
        <ele>280</ele>
        <time>2017-06-26T11:40:36Z</time>
      </trkpt>
      <trkpt lat="48.58676" lon="6.45656">
        <ele>280</ele>
        <time>2017-06-26T11:40:37Z</time>
      </trkpt>
      <trkpt lat="48.58676" lon="6.45655">
        <ele>280</ele>
        <time>2017-06-26T11:40:38Z</time>
      </trkpt>
      <trkpt lat="48.58677" lon="6.45655">
        <ele>280</ele>
        <time>2017-06-26T11:40:39Z</time>
      </trkpt>
      <trkpt lat="48.58678" lon="6.45654">
        <ele>280</ele>
        <time>2017-06-26T11:40:40Z</time>
      </trkpt>
      <trkpt lat="48.58679" lon="6.45653">
        <ele>280</ele>
        <time>2017-06-26T11:40:42Z</time>
      </trkpt>
      <trkpt lat="48.58683" lon="6.45649">
        <ele>280</ele>
        <time>2017-06-26T11:40:43Z</time>
      </trkpt>
      <trkpt lat="48.58685" lon="6.45648">
        <ele>280</ele>
        <time>2017-06-26T11:40:44Z</time>
      </trkpt>
      <trkpt lat="48.58686" lon="6.45646">
        <ele>281</ele>
        <time>2017-06-26T11:40:45Z</time>
      </trkpt>
      <trkpt lat="48.58688" lon="6.45645">
        <ele>281</ele>
        <time>2017-06-26T11:40:46Z</time>
      </trkpt>
      <trkpt lat="48.58689" lon="6.45643">
        <ele>281</ele>
        <time>2017-06-26T11:40:47Z</time>
      </trkpt>
      <trkpt lat="48.5869" lon="6.45642">
        <ele>281</ele>
        <time>2017-06-26T11:40:48Z</time>
      </trkpt>
      <trkpt lat="48.58692" lon="6.45641">
        <ele>281</ele>
        <time>2017-06-26T11:40:49Z</time>
      </trkpt>
      <trkpt lat="48.58692" lon="6.45639">
        <ele>281</ele>
        <time>2017-06-26T11:40:50Z</time>
      </trkpt>
      <trkpt lat="48.58693" lon="6.45638">
        <ele>281</ele>
        <time>2017-06-26T11:40:51Z</time>
      </trkpt>
      <trkpt lat="48.58694" lon="6.45637">
        <ele>281</ele>
        <time>2017-06-26T11:40:52Z</time>
      </trkpt>
      <trkpt lat="48.58695" lon="6.45636">
        <ele>281</ele>
        <time>2017-06-26T11:40:53Z</time>
      </trkpt>
      <trkpt lat="48.58696" lon="6.45634">
        <ele>281</ele>
        <time>2017-06-26T11:40:54Z</time>
      </trkpt>
      <trkpt lat="48.58697" lon="6.45633">
        <ele>282</ele>
        <time>2017-06-26T11:40:55Z</time>
      </trkpt>
      <trkpt lat="48.58698" lon="6.45632">
        <ele>282</ele>
        <time>2017-06-26T11:40:56Z</time>
      </trkpt>
      <trkpt lat="48.58698" lon="6.45631">
        <ele>282</ele>
        <time>2017-06-26T11:40:57Z</time>
      </trkpt>
      <trkpt lat="48.58698" lon="6.4563">
        <ele>282</ele>
        <time>2017-06-26T11:40:58Z</time>
      </trkpt>
      <trkpt lat="48.58699" lon="6.4563">
        <ele>282</ele>
        <time>2017-06-26T11:40:59Z</time>
      </trkpt>
      <trkpt lat="48.58699" lon="6.45629">
        <ele>282</ele>
        <time>2017-06-26T11:41:00Z</time>
      </trkpt>
      <trkpt lat="48.58699" lon="6.45628">
        <ele>282</ele>
        <time>2017-06-26T11:41:01Z</time>
      </trkpt>
      <trkpt lat="48.587" lon="6.45627">
        <ele>282</ele>
        <time>2017-06-26T11:41:02Z</time>
      </trkpt>
      <trkpt lat="48.587" lon="6.45626">
        <ele>282</ele>
        <time>2017-06-26T11:41:04Z</time>
      </trkpt>
      <trkpt lat="48.58701" lon="6.45625">
        <ele>283</ele>
        <time>2017-06-26T11:41:05Z</time>
      </trkpt>
      <trkpt lat="48.58704" lon="6.45618">
        <ele>283</ele>
        <time>2017-06-26T11:41:06Z</time>
      </trkpt>
      <trkpt lat="48.58705" lon="6.45617">
        <ele>283</ele>
        <time>2017-06-26T11:41:08Z</time>
      </trkpt>
      <trkpt lat="48.58705" lon="6.45616">
        <ele>283</ele>
        <time>2017-06-26T11:41:09Z</time>
      </trkpt>
      <trkpt lat="48.58706" lon="6.45615">
        <ele>283</ele>
        <time>2017-06-26T11:41:10Z</time>
      </trkpt>
      <trkpt lat="48.58707" lon="6.45614">
        <ele>283</ele>
        <time>2017-06-26T11:41:11Z</time>
      </trkpt>
      <trkpt lat="48.58707" lon="6.45613">
        <ele>283</ele>
        <time>2017-06-26T11:41:12Z</time>
      </trkpt>
      <trkpt lat="48.58711" lon="6.45607">
        <ele>283</ele>
        <time>2017-06-26T11:41:13Z</time>
      </trkpt>
      <trkpt lat="48.58712" lon="6.45606">
        <ele>283</ele>
        <time>2017-06-26T11:41:14Z</time>
      </trkpt>
      <trkpt lat="48.58713" lon="6.45604">
        <ele>283</ele>
        <time>2017-06-26T11:41:15Z</time>
      </trkpt>
      <trkpt lat="48.58713" lon="6.45603">
        <ele>283</ele>
        <time>2017-06-26T11:41:16Z</time>
      </trkpt>
      <trkpt lat="48.58714" lon="6.45602">
        <ele>283</ele>
        <time>2017-06-26T11:41:17Z</time>
      </trkpt>
      <trkpt lat="48.58715" lon="6.456">
        <ele>283</ele>
        <time>2017-06-26T11:41:18Z</time>
      </trkpt>
      <trkpt lat="48.58716" lon="6.45599">
        <ele>283</ele>
        <time>2017-06-26T11:41:19Z</time>
      </trkpt>
      <trkpt lat="48.58717" lon="6.45597">
        <ele>283</ele>
        <time>2017-06-26T11:41:20Z</time>
      </trkpt>
      <trkpt lat="48.58718" lon="6.45596">
        <ele>283</ele>
        <time>2017-06-26T11:41:21Z</time>
      </trkpt>
      <trkpt lat="48.58719" lon="6.45595">
        <ele>283</ele>
        <time>2017-06-26T11:41:22Z</time>
      </trkpt>
      <trkpt lat="48.5872" lon="6.45594">
        <ele>283</ele>
        <time>2017-06-26T11:41:23Z</time>
      </trkpt>
      <trkpt lat="48.5872" lon="6.45593">
        <ele>283</ele>
        <time>2017-06-26T11:41:24Z</time>
      </trkpt>
      <trkpt lat="48.58721" lon="6.45591">
        <ele>284</ele>
        <time>2017-06-26T11:41:25Z</time>
      </trkpt>
      <trkpt lat="48.58722" lon="6.4559">
        <ele>284</ele>
        <time>2017-06-26T11:41:26Z</time>
      </trkpt>
      <trkpt lat="48.58723" lon="6.45589">
        <ele>284</ele>
        <time>2017-06-26T11:41:27Z</time>
      </trkpt>
      <trkpt lat="48.58723" lon="6.45588">
        <ele>284</ele>
        <time>2017-06-26T11:41:28Z</time>
      </trkpt>
      <trkpt lat="48.58724" lon="6.45587">
        <ele>284</ele>
        <time>2017-06-26T11:41:29Z</time>
      </trkpt>
      <trkpt lat="48.58725" lon="6.45586">
        <ele>284</ele>
        <time>2017-06-26T11:41:30Z</time>
      </trkpt>
      <trkpt lat="48.58725" lon="6.45585">
        <ele>284</ele>
        <time>2017-06-26T11:41:31Z</time>
      </trkpt>
      <trkpt lat="48.58726" lon="6.45584">
        <ele>284</ele>
        <time>2017-06-26T11:41:32Z</time>
      </trkpt>
      <trkpt lat="48.58726" lon="6.45583">
        <ele>284</ele>
        <time>2017-06-26T11:41:33Z</time>
      </trkpt>
      <trkpt lat="48.58727" lon="6.45582">
        <ele>284</ele>
        <time>2017-06-26T11:41:34Z</time>
      </trkpt>
      <trkpt lat="48.58727" lon="6.45581">
        <ele>285</ele>
        <time>2017-06-26T11:41:35Z</time>
      </trkpt>
      <trkpt lat="48.58728" lon="6.4558">
        <ele>285</ele>
        <time>2017-06-26T11:41:36Z</time>
      </trkpt>
      <trkpt lat="48.58728" lon="6.45579">
        <ele>285</ele>
        <time>2017-06-26T11:41:37Z</time>
      </trkpt>
      <trkpt lat="48.58731" lon="6.45573">
        <ele>285</ele>
        <time>2017-06-26T11:41:38Z</time>
      </trkpt>
      <trkpt lat="48.58732" lon="6.45572">
        <ele>285</ele>
        <time>2017-06-26T11:41:39Z</time>
      </trkpt>
      <trkpt lat="48.58732" lon="6.45571">
        <ele>285</ele>
        <time>2017-06-26T11:41:40Z</time>
      </trkpt>
      <trkpt lat="48.58733" lon="6.4557">
        <ele>285</ele>
        <time>2017-06-26T11:41:41Z</time>
      </trkpt>
      <trkpt lat="48.58734" lon="6.45569">
        <ele>285</ele>
        <time>2017-06-26T11:41:42Z</time>
      </trkpt>
      <trkpt lat="48.58734" lon="6.45568">
        <ele>285</ele>
        <time>2017-06-26T11:41:43Z</time>
      </trkpt>
      <trkpt lat="48.58735" lon="6.45566">
        <ele>285</ele>
        <time>2017-06-26T11:41:44Z</time>
      </trkpt>
      <trkpt lat="48.58738" lon="6.4556">
        <ele>286</ele>
        <time>2017-06-26T11:41:45Z</time>
      </trkpt>
      <trkpt lat="48.58739" lon="6.45558">
        <ele>286</ele>
        <time>2017-06-26T11:41:46Z</time>
      </trkpt>
      <trkpt lat="48.58739" lon="6.45557">
        <ele>286</ele>
        <time>2017-06-26T11:41:47Z</time>
      </trkpt>
      <trkpt lat="48.5874" lon="6.45556">
        <ele>286</ele>
        <time>2017-06-26T11:41:48Z</time>
      </trkpt>
      <trkpt lat="48.5874" lon="6.45555">
        <ele>286</ele>
        <time>2017-06-26T11:41:49Z</time>
      </trkpt>
      <trkpt lat="48.58741" lon="6.45554">
        <ele>286</ele>
        <time>2017-06-26T11:41:50Z</time>
      </trkpt>
      <trkpt lat="48.58741" lon="6.45553">
        <ele>286</ele>
        <time>2017-06-26T11:41:51Z</time>
      </trkpt>
      <trkpt lat="48.58745" lon="6.45546">
        <ele>286</ele>
        <time>2017-06-26T11:41:52Z</time>
      </trkpt>
      <trkpt lat="48.58746" lon="6.45545">
        <ele>286</ele>
        <time>2017-06-26T11:41:53Z</time>
      </trkpt>
      <trkpt lat="48.58747" lon="6.45543">
        <ele>286</ele>
        <time>2017-06-26T11:41:54Z</time>
      </trkpt>
      <trkpt lat="48.58748" lon="6.45542">
        <ele>286</ele>
        <time>2017-06-26T11:41:55Z</time>
      </trkpt>
      <trkpt lat="48.5875" lon="6.45541">
        <ele>286</ele>
        <time>2017-06-26T11:41:56Z</time>
      </trkpt>
      <trkpt lat="48.58755" lon="6.45536">
        <ele>286</ele>
        <time>2017-06-26T11:41:57Z</time>
      </trkpt>
      <trkpt lat="48.58757" lon="6.45535">
        <ele>286</ele>
        <time>2017-06-26T11:41:58Z</time>
      </trkpt>
      <trkpt lat="48.58758" lon="6.45534">
        <ele>286</ele>
        <time>2017-06-26T11:41:59Z</time>
      </trkpt>
      <trkpt lat="48.5876" lon="6.45534">
        <ele>286</ele>
        <time>2017-06-26T11:42:00Z</time>
      </trkpt>
      <trkpt lat="48.58765" lon="6.45532">
        <ele>286</ele>
        <time>2017-06-26T11:42:01Z</time>
      </trkpt>
      <trkpt lat="48.58766" lon="6.45531">
        <ele>286</ele>
        <time>2017-06-26T11:42:02Z</time>
      </trkpt>
      <trkpt lat="48.58768" lon="6.45531">
        <ele>286</ele>
        <time>2017-06-26T11:42:03Z</time>
      </trkpt>
      <trkpt lat="48.58769" lon="6.4553">
        <ele>286</ele>
        <time>2017-06-26T11:42:04Z</time>
      </trkpt>
      <trkpt lat="48.5877" lon="6.4553">
        <ele>288</ele>
        <time>2017-06-26T11:42:05Z</time>
      </trkpt>
      <trkpt lat="48.58776" lon="6.45528">
        <ele>288</ele>
        <time>2017-06-26T11:42:06Z</time>
      </trkpt>
      <trkpt lat="48.58777" lon="6.45528">
        <ele>288</ele>
        <time>2017-06-26T11:42:07Z</time>
      </trkpt>
      <trkpt lat="48.58779" lon="6.45528">
        <ele>288</ele>
        <time>2017-06-26T11:42:08Z</time>
      </trkpt>
      <trkpt lat="48.5878" lon="6.45527">
        <ele>288</ele>
        <time>2017-06-26T11:42:09Z</time>
      </trkpt>
      <trkpt lat="48.58782" lon="6.45527">
        <ele>289</ele>
        <time>2017-06-26T11:42:10Z</time>
      </trkpt>
      <trkpt lat="48.58788" lon="6.45526">
        <ele>289</ele>
        <time>2017-06-26T11:42:11Z</time>
      </trkpt>
      <trkpt lat="48.58789" lon="6.45526">
        <ele>289</ele>
        <time>2017-06-26T11:42:12Z</time>
      </trkpt>
      <trkpt lat="48.5879" lon="6.45526">
        <ele>289</ele>
        <time>2017-06-26T11:42:13Z</time>
      </trkpt>
      <trkpt lat="48.58791" lon="6.45525">
        <ele>289</ele>
        <time>2017-06-26T11:42:14Z</time>
      </trkpt>
      <trkpt lat="48.58792" lon="6.45525">
        <ele>289</ele>
        <time>2017-06-26T11:42:15Z</time>
      </trkpt>
      <trkpt lat="48.58793" lon="6.45525">
        <ele>289</ele>
        <time>2017-06-26T11:42:16Z</time>
      </trkpt>
      <trkpt lat="48.58799" lon="6.45524">
        <ele>289</ele>
        <time>2017-06-26T11:42:17Z</time>
      </trkpt>
      <trkpt lat="48.58798" lon="6.45523">
        <ele>289</ele>
        <time>2017-06-26T11:42:18Z</time>
      </trkpt>
      <trkpt lat="48.58798" lon="6.45522">
        <ele>289</ele>
        <time>2017-06-26T11:42:19Z</time>
      </trkpt>
      <trkpt lat="48.58797" lon="6.45521">
        <ele>289</ele>
        <time>2017-06-26T11:42:20Z</time>
      </trkpt>
      <trkpt lat="48.58797" lon="6.4552">
        <ele>289</ele>
        <time>2017-06-26T11:42:21Z</time>
      </trkpt>
      <trkpt lat="48.58796" lon="6.45519">
        <ele>289</ele>
        <time>2017-06-26T11:42:22Z</time>
      </trkpt>
      <trkpt lat="48.58796" lon="6.45518">
        <ele>289</ele>
        <time>2017-06-26T11:42:23Z</time>
      </trkpt>
      <trkpt lat="48.58795" lon="6.45517">
        <ele>289</ele>
        <time>2017-06-26T11:42:24Z</time>
      </trkpt>
      <trkpt lat="48.58795" lon="6.45516">
        <ele>291</ele>
        <time>2017-06-26T11:42:25Z</time>
      </trkpt>
      <trkpt lat="48.58794" lon="6.45515">
        <ele>291</ele>
        <time>2017-06-26T11:42:26Z</time>
      </trkpt>
      <trkpt lat="48.58794" lon="6.45514">
        <ele>291</ele>
        <time>2017-06-26T11:42:27Z</time>
      </trkpt>
      <trkpt lat="48.58793" lon="6.45513">
        <ele>291</ele>
        <time>2017-06-26T11:42:28Z</time>
      </trkpt>
      <trkpt lat="48.58793" lon="6.45512">
        <ele>291</ele>
        <time>2017-06-26T11:42:29Z</time>
      </trkpt>
      <trkpt lat="48.58793" lon="6.4551">
        <ele>291</ele>
        <time>2017-06-26T11:42:30Z</time>
      </trkpt>
      <trkpt lat="48.58793" lon="6.45509">
        <ele>291</ele>
        <time>2017-06-26T11:42:31Z</time>
      </trkpt>
      <trkpt lat="48.58793" lon="6.45508">
        <ele>291</ele>
        <time>2017-06-26T11:42:32Z</time>
      </trkpt>
      <trkpt lat="48.58793" lon="6.45507">
        <ele>291</ele>
        <time>2017-06-26T11:42:33Z</time>
      </trkpt>
      <trkpt lat="48.58794" lon="6.45505">
        <ele>291</ele>
        <time>2017-06-26T11:42:34Z</time>
      </trkpt>
      <trkpt lat="48.58794" lon="6.45504">
        <ele>291</ele>
        <time>2017-06-26T11:42:35Z</time>
      </trkpt>
      <trkpt lat="48.58795" lon="6.45496">
        <ele>291</ele>
        <time>2017-06-26T11:42:36Z</time>
      </trkpt>
      <trkpt lat="48.58796" lon="6.45493">
        <ele>291</ele>
        <time>2017-06-26T11:42:37Z</time>
      </trkpt>
      <trkpt lat="48.58796" lon="6.45491">
        <ele>291</ele>
        <time>2017-06-26T11:42:38Z</time>
      </trkpt>
      <trkpt lat="48.58797" lon="6.45488">
        <ele>291</ele>
        <time>2017-06-26T11:42:39Z</time>
      </trkpt>
      <trkpt lat="48.58798" lon="6.45485">
        <ele>291</ele>
        <time>2017-06-26T11:42:40Z</time>
      </trkpt>
      <trkpt lat="48.58799" lon="6.45482">
        <ele>291</ele>
        <time>2017-06-26T11:42:41Z</time>
      </trkpt>
      <trkpt lat="48.58799" lon="6.4548">
        <ele>291</ele>
        <time>2017-06-26T11:42:42Z</time>
      </trkpt>
      <trkpt lat="48.588" lon="6.45478">
        <ele>291</ele>
        <time>2017-06-26T11:42:43Z</time>
      </trkpt>
      <trkpt lat="48.588" lon="6.45477">
        <ele>291</ele>
        <time>2017-06-26T11:42:44Z</time>
      </trkpt>
      <trkpt lat="48.58801" lon="6.45475">
        <ele>292</ele>
        <time>2017-06-26T11:42:45Z</time>
      </trkpt>
      <trkpt lat="48.58802" lon="6.45467">
        <ele>292</ele>
        <time>2017-06-26T11:42:46Z</time>
      </trkpt>
      <trkpt lat="48.58803" lon="6.45465">
        <ele>292</ele>
        <time>2017-06-26T11:42:47Z</time>
      </trkpt>
      <trkpt lat="48.58803" lon="6.45463">
        <ele>292</ele>
        <time>2017-06-26T11:42:48Z</time>
      </trkpt>
      <trkpt lat="48.58803" lon="6.45461">
        <ele>292</ele>
        <time>2017-06-26T11:42:49Z</time>
      </trkpt>
      <trkpt lat="48.58803" lon="6.45459">
        <ele>292</ele>
        <time>2017-06-26T11:42:50Z</time>
      </trkpt>
      <trkpt lat="48.58804" lon="6.45451">
        <ele>292</ele>
        <time>2017-06-26T11:42:51Z</time>
      </trkpt>
      <trkpt lat="48.58804" lon="6.45449">
        <ele>292</ele>
        <time>2017-06-26T11:42:52Z</time>
      </trkpt>
      <trkpt lat="48.58804" lon="6.45447">
        <ele>292</ele>
        <time>2017-06-26T11:42:53Z</time>
      </trkpt>
      <trkpt lat="48.58804" lon="6.45444">
        <ele>292</ele>
        <time>2017-06-26T11:42:54Z</time>
      </trkpt>
      <trkpt lat="48.58804" lon="6.45442">
        <ele>292</ele>
        <time>2017-06-26T11:42:55Z</time>
      </trkpt>
      <trkpt lat="48.58804" lon="6.45433">
        <ele>292</ele>
        <time>2017-06-26T11:42:56Z</time>
      </trkpt>
      <trkpt lat="48.58804" lon="6.45431">
        <ele>292</ele>
        <time>2017-06-26T11:42:57Z</time>
      </trkpt>
      <trkpt lat="48.58804" lon="6.45429">
        <ele>292</ele>
        <time>2017-06-26T11:42:58Z</time>
      </trkpt>
      <trkpt lat="48.58804" lon="6.45427">
        <ele>292</ele>
        <time>2017-06-26T11:42:59Z</time>
      </trkpt>
      <trkpt lat="48.58804" lon="6.45424">
        <ele>292</ele>
        <time>2017-06-26T11:43:00Z</time>
      </trkpt>
      <trkpt lat="48.58803" lon="6.45416">
        <ele>292</ele>
        <time>2017-06-26T11:43:01Z</time>
      </trkpt>
      <trkpt lat="48.58802" lon="6.45414">
        <ele>292</ele>
        <time>2017-06-26T11:43:02Z</time>
      </trkpt>
      <trkpt lat="48.58802" lon="6.45413">
        <ele>292</ele>
        <time>2017-06-26T11:43:03Z</time>
      </trkpt>
      <trkpt lat="48.58801" lon="6.45411">
        <ele>292</ele>
        <time>2017-06-26T11:43:04Z</time>
      </trkpt>
      <trkpt lat="48.58801" lon="6.4541">
        <ele>292</ele>
        <time>2017-06-26T11:43:05Z</time>
      </trkpt>
      <trkpt lat="48.588" lon="6.45409">
        <ele>292</ele>
        <time>2017-06-26T11:43:06Z</time>
      </trkpt>
      <trkpt lat="48.58798" lon="6.45402">
        <ele>292</ele>
        <time>2017-06-26T11:43:07Z</time>
      </trkpt>
      <trkpt lat="48.58796" lon="6.454">
        <ele>292</ele>
        <time>2017-06-26T11:43:08Z</time>
      </trkpt>
      <trkpt lat="48.58795" lon="6.45399">
        <ele>292</ele>
        <time>2017-06-26T11:43:09Z</time>
      </trkpt>
      <trkpt lat="48.58793" lon="6.45397">
        <ele>292</ele>
        <time>2017-06-26T11:43:10Z</time>
      </trkpt>
      <trkpt lat="48.58791" lon="6.45395">
        <ele>292</ele>
        <time>2017-06-26T11:43:11Z</time>
      </trkpt>
      <trkpt lat="48.58789" lon="6.45394">
        <ele>292</ele>
        <time>2017-06-26T11:43:12Z</time>
      </trkpt>
      <trkpt lat="48.58788" lon="6.45391">
        <ele>292</ele>
        <time>2017-06-26T11:43:13Z</time>
      </trkpt>
      <trkpt lat="48.58787" lon="6.45389">
        <ele>292</ele>
        <time>2017-06-26T11:43:14Z</time>
      </trkpt>
      <trkpt lat="48.58785" lon="6.45387">
        <ele>292</ele>
        <time>2017-06-26T11:43:15Z</time>
      </trkpt>
      <trkpt lat="48.58784" lon="6.45385">
        <ele>292</ele>
        <time>2017-06-26T11:43:16Z</time>
      </trkpt>
      <trkpt lat="48.58783" lon="6.45382">
        <ele>292</ele>
        <time>2017-06-26T11:43:17Z</time>
      </trkpt>
      <trkpt lat="48.58782" lon="6.45381">
        <ele>292</ele>
        <time>2017-06-26T11:43:18Z</time>
      </trkpt>
      <trkpt lat="48.58781" lon="6.45379">
        <ele>292</ele>
        <time>2017-06-26T11:43:19Z</time>
      </trkpt>
      <trkpt lat="48.5878" lon="6.45377">
        <ele>292</ele>
        <time>2017-06-26T11:43:20Z</time>
      </trkpt>
      <trkpt lat="48.58779" lon="6.45376">
        <ele>292</ele>
        <time>2017-06-26T11:43:21Z</time>
      </trkpt>
      <trkpt lat="48.58775" lon="6.45369">
        <ele>292</ele>
        <time>2017-06-26T11:43:22Z</time>
      </trkpt>
      <trkpt lat="48.58773" lon="6.45367">
        <ele>292</ele>
        <time>2017-06-26T11:43:23Z</time>
      </trkpt>
      <trkpt lat="48.58772" lon="6.45366">
        <ele>292</ele>
        <time>2017-06-26T11:43:24Z</time>
      </trkpt>
      <trkpt lat="48.58771" lon="6.45364">
        <ele>292</ele>
        <time>2017-06-26T11:43:25Z</time>
      </trkpt>
      <trkpt lat="48.5877" lon="6.45363">
        <ele>292</ele>
        <time>2017-06-26T11:43:26Z</time>
      </trkpt>
      <trkpt lat="48.58766" lon="6.45357">
        <ele>292</ele>
        <time>2017-06-26T11:43:27Z</time>
      </trkpt>
      <trkpt lat="48.58764" lon="6.45356">
        <ele>292</ele>
        <time>2017-06-26T11:43:28Z</time>
      </trkpt>
      <trkpt lat="48.58762" lon="6.45355">
        <ele>292</ele>
        <time>2017-06-26T11:43:29Z</time>
      </trkpt>
      <trkpt lat="48.58761" lon="6.45353">
        <ele>292</ele>
        <time>2017-06-26T11:43:30Z</time>
      </trkpt>
      <trkpt lat="48.58759" lon="6.45352">
        <ele>292</ele>
        <time>2017-06-26T11:43:31Z</time>
      </trkpt>
      <trkpt lat="48.58758" lon="6.45351">
        <ele>292</ele>
        <time>2017-06-26T11:43:32Z</time>
      </trkpt>
      <trkpt lat="48.58756" lon="6.45349">
        <ele>292</ele>
        <time>2017-06-26T11:43:33Z</time>
      </trkpt>
      <trkpt lat="48.58755" lon="6.45348">
        <ele>292</ele>
        <time>2017-06-26T11:43:34Z</time>
      </trkpt>
      <trkpt lat="48.58754" lon="6.45347">
        <ele>292</ele>
        <time>2017-06-26T11:43:35Z</time>
      </trkpt>
      <trkpt lat="48.58753" lon="6.45347">
        <ele>292</ele>
        <time>2017-06-26T11:43:36Z</time>
      </trkpt>
      <trkpt lat="48.58752" lon="6.45346">
        <ele>292</ele>
        <time>2017-06-26T11:43:37Z</time>
      </trkpt>
      <trkpt lat="48.58747" lon="6.45342">
        <ele>292</ele>
        <time>2017-06-26T11:43:38Z</time>
      </trkpt>
      <trkpt lat="48.58745" lon="6.45341">
        <ele>292</ele>
        <time>2017-06-26T11:43:39Z</time>
      </trkpt>
      <trkpt lat="48.58743" lon="6.4534">
        <ele>292</ele>
        <time>2017-06-26T11:43:40Z</time>
      </trkpt>
      <trkpt lat="48.58742" lon="6.45339">
        <ele>292</ele>
        <time>2017-06-26T11:43:41Z</time>
      </trkpt>
      <trkpt lat="48.58736" lon="6.45336">
        <ele>292</ele>
        <time>2017-06-26T11:43:42Z</time>
      </trkpt>
      <trkpt lat="48.58735" lon="6.45335">
        <ele>292</ele>
        <time>2017-06-26T11:43:43Z</time>
      </trkpt>
      <trkpt lat="48.58734" lon="6.45334">
        <ele>292</ele>
        <time>2017-06-26T11:43:44Z</time>
      </trkpt>
      <trkpt lat="48.58732" lon="6.45333">
        <ele>292</ele>
        <time>2017-06-26T11:43:45Z</time>
      </trkpt>
      <trkpt lat="48.58731" lon="6.45332">
        <ele>292</ele>
        <time>2017-06-26T11:43:46Z</time>
      </trkpt>
      <trkpt lat="48.58726" lon="6.45329">
        <ele>292</ele>
        <time>2017-06-26T11:43:47Z</time>
      </trkpt>
      <trkpt lat="48.58724" lon="6.45327">
        <ele>292</ele>
        <time>2017-06-26T11:43:48Z</time>
      </trkpt>
      <trkpt lat="48.58722" lon="6.45326">
        <ele>292</ele>
        <time>2017-06-26T11:43:49Z</time>
      </trkpt>
      <trkpt lat="48.58721" lon="6.45325">
        <ele>292</ele>
        <time>2017-06-26T11:43:50Z</time>
      </trkpt>
      <trkpt lat="48.58716" lon="6.45321">
        <ele>292</ele>
        <time>2017-06-26T11:43:51Z</time>
      </trkpt>
      <trkpt lat="48.58714" lon="6.45319">
        <ele>292</ele>
        <time>2017-06-26T11:43:52Z</time>
      </trkpt>
      <trkpt lat="48.58713" lon="6.45318">
        <ele>292</ele>
        <time>2017-06-26T11:43:53Z</time>
      </trkpt>
      <trkpt lat="48.58711" lon="6.45317">
        <ele>292</ele>
        <time>2017-06-26T11:43:54Z</time>
      </trkpt>
      <trkpt lat="48.58706" lon="6.45312">
        <ele>291</ele>
        <time>2017-06-26T11:43:55Z</time>
      </trkpt>
      <trkpt lat="48.58704" lon="6.45311">
        <ele>291</ele>
        <time>2017-06-26T11:43:56Z</time>
      </trkpt>
      <trkpt lat="48.58703" lon="6.45309">
        <ele>291</ele>
        <time>2017-06-26T11:43:57Z</time>
      </trkpt>
      <trkpt lat="48.58701" lon="6.45308">
        <ele>291</ele>
        <time>2017-06-26T11:43:58Z</time>
      </trkpt>
      <trkpt lat="48.58696" lon="6.45303">
        <ele>291</ele>
        <time>2017-06-26T11:43:59Z</time>
      </trkpt>
      <trkpt lat="48.58695" lon="6.45301">
        <ele>291</ele>
        <time>2017-06-26T11:44:00Z</time>
      </trkpt>
      <trkpt lat="48.58693" lon="6.453">
        <ele>291</ele>
        <time>2017-06-26T11:44:01Z</time>
      </trkpt>
      <trkpt lat="48.58692" lon="6.45298">
        <ele>291</ele>
        <time>2017-06-26T11:44:02Z</time>
      </trkpt>
      <trkpt lat="48.58691" lon="6.45297">
        <ele>291</ele>
        <time>2017-06-26T11:44:03Z</time>
      </trkpt>
      <trkpt lat="48.58689" lon="6.45296">
        <ele>291</ele>
        <time>2017-06-26T11:44:04Z</time>
      </trkpt>
      <trkpt lat="48.58688" lon="6.45294">
        <ele>291</ele>
        <time>2017-06-26T11:44:05Z</time>
      </trkpt>
      <trkpt lat="48.58687" lon="6.45294">
        <ele>291</ele>
        <time>2017-06-26T11:44:06Z</time>
      </trkpt>
      <trkpt lat="48.58686" lon="6.45293">
        <ele>291</ele>
        <time>2017-06-26T11:44:07Z</time>
      </trkpt>
      <trkpt lat="48.58684" lon="6.45292">
        <ele>291</ele>
        <time>2017-06-26T11:44:08Z</time>
      </trkpt>
      <trkpt lat="48.58683" lon="6.45292">
        <ele>291</ele>
        <time>2017-06-26T11:44:09Z</time>
      </trkpt>
      <trkpt lat="48.58682" lon="6.45291">
        <ele>291</ele>
        <time>2017-06-26T11:44:10Z</time>
      </trkpt>
      <trkpt lat="48.58677" lon="6.45289">
        <ele>291</ele>
        <time>2017-06-26T11:44:11Z</time>
      </trkpt>
      <trkpt lat="48.58675" lon="6.45288">
        <ele>291</ele>
        <time>2017-06-26T11:44:12Z</time>
      </trkpt>
      <trkpt lat="48.58673" lon="6.45287">
        <ele>291</ele>
        <time>2017-06-26T11:44:13Z</time>
      </trkpt>
      <trkpt lat="48.58671" lon="6.45285">
        <ele>291</ele>
        <time>2017-06-26T11:44:14Z</time>
      </trkpt>
      <trkpt lat="48.58666" lon="6.45282">
        <ele>291</ele>
        <time>2017-06-26T11:44:15Z</time>
      </trkpt>
      <trkpt lat="48.58665" lon="6.45281">
        <ele>291</ele>
        <time>2017-06-26T11:44:16Z</time>
      </trkpt>
      <trkpt lat="48.58664" lon="6.4528">
        <ele>292</ele>
        <time>2017-06-26T11:44:17Z</time>
      </trkpt>
      <trkpt lat="48.58662" lon="6.45279">
        <ele>292</ele>
        <time>2017-06-26T11:44:18Z</time>
      </trkpt>
      <trkpt lat="48.58661" lon="6.45278">
        <ele>292</ele>
        <time>2017-06-26T11:44:19Z</time>
      </trkpt>
      <trkpt lat="48.58657" lon="6.45274">
        <ele>292</ele>
        <time>2017-06-26T11:44:20Z</time>
      </trkpt>
      <trkpt lat="48.58655" lon="6.45273">
        <ele>292</ele>
        <time>2017-06-26T11:44:21Z</time>
      </trkpt>
      <trkpt lat="48.58654" lon="6.45271">
        <ele>292</ele>
        <time>2017-06-26T11:44:22Z</time>
      </trkpt>
      <trkpt lat="48.58652" lon="6.4527">
        <ele>292</ele>
        <time>2017-06-26T11:44:23Z</time>
      </trkpt>
      <trkpt lat="48.58651" lon="6.45269">
        <ele>292</ele>
        <time>2017-06-26T11:44:24Z</time>
      </trkpt>
      <trkpt lat="48.58645" lon="6.45265">
        <ele>291</ele>
        <time>2017-06-26T11:44:25Z</time>
      </trkpt>
      <trkpt lat="48.58644" lon="6.45264">
        <ele>291</ele>
        <time>2017-06-26T11:44:26Z</time>
      </trkpt>
      <trkpt lat="48.58643" lon="6.45263">
        <ele>291</ele>
        <time>2017-06-26T11:44:27Z</time>
      </trkpt>
      <trkpt lat="48.58642" lon="6.45262">
        <ele>291</ele>
        <time>2017-06-26T11:44:28Z</time>
      </trkpt>
      <trkpt lat="48.5864" lon="6.45261">
        <ele>291</ele>
        <time>2017-06-26T11:44:29Z</time>
      </trkpt>
      <trkpt lat="48.58636" lon="6.45257">
        <ele>291</ele>
        <time>2017-06-26T11:44:30Z</time>
      </trkpt>
      <trkpt lat="48.58634" lon="6.45255">
        <ele>291</ele>
        <time>2017-06-26T11:44:31Z</time>
      </trkpt>
      <trkpt lat="48.58632" lon="6.45254">
        <ele>291</ele>
        <time>2017-06-26T11:44:32Z</time>
      </trkpt>
      <trkpt lat="48.5863" lon="6.45252">
        <ele>291</ele>
        <time>2017-06-26T11:44:33Z</time>
      </trkpt>
      <trkpt lat="48.58628" lon="6.4525">
        <ele>291</ele>
        <time>2017-06-26T11:44:34Z</time>
      </trkpt>
      <trkpt lat="48.58627" lon="6.45248">
        <ele>290</ele>
        <time>2017-06-26T11:44:35Z</time>
      </trkpt>
      <trkpt lat="48.58625" lon="6.45247">
        <ele>290</ele>
        <time>2017-06-26T11:44:36Z</time>
      </trkpt>
      <trkpt lat="48.58623" lon="6.45246">
        <ele>290</ele>
        <time>2017-06-26T11:44:37Z</time>
      </trkpt>
      <trkpt lat="48.58622" lon="6.45244">
        <ele>290</ele>
        <time>2017-06-26T11:44:38Z</time>
      </trkpt>
      <trkpt lat="48.58617" lon="6.4524">
        <ele>290</ele>
        <time>2017-06-26T11:44:39Z</time>
      </trkpt>
      <trkpt lat="48.58615" lon="6.45238">
        <ele>290</ele>
        <time>2017-06-26T11:44:40Z</time>
      </trkpt>
      <trkpt lat="48.58613" lon="6.45236">
        <ele>290</ele>
        <time>2017-06-26T11:44:41Z</time>
      </trkpt>
      <trkpt lat="48.5861" lon="6.45234">
        <ele>290</ele>
        <time>2017-06-26T11:44:42Z</time>
      </trkpt>
      <trkpt lat="48.58608" lon="6.45232">
        <ele>290</ele>
        <time>2017-06-26T11:44:43Z</time>
      </trkpt>
      <trkpt lat="48.58607" lon="6.4523">
        <ele>290</ele>
        <time>2017-06-26T11:44:44Z</time>
      </trkpt>
      <trkpt lat="48.58606" lon="6.45228">
        <ele>290</ele>
        <time>2017-06-26T11:44:45Z</time>
      </trkpt>
      <trkpt lat="48.58605" lon="6.45227">
        <ele>290</ele>
        <time>2017-06-26T11:44:46Z</time>
      </trkpt>
      <trkpt lat="48.58604" lon="6.45225">
        <ele>290</ele>
        <time>2017-06-26T11:44:47Z</time>
      </trkpt>
      <trkpt lat="48.58601" lon="6.45219">
        <ele>290</ele>
        <time>2017-06-26T11:44:48Z</time>
      </trkpt>
      <trkpt lat="48.58599" lon="6.45217">
        <ele>290</ele>
        <time>2017-06-26T11:44:49Z</time>
      </trkpt>
      <trkpt lat="48.58597" lon="6.45214">
        <ele>290</ele>
        <time>2017-06-26T11:44:50Z</time>
      </trkpt>
      <trkpt lat="48.58595" lon="6.45211">
        <ele>290</ele>
        <time>2017-06-26T11:44:51Z</time>
      </trkpt>
      <trkpt lat="48.58593" lon="6.45209">
        <ele>290</ele>
        <time>2017-06-26T11:44:52Z</time>
      </trkpt>
      <trkpt lat="48.58592" lon="6.45207">
        <ele>290</ele>
        <time>2017-06-26T11:44:53Z</time>
      </trkpt>
      <trkpt lat="48.5859" lon="6.45205">
        <ele>290</ele>
        <time>2017-06-26T11:44:54Z</time>
      </trkpt>
      <trkpt lat="48.58589" lon="6.45204">
        <ele>289</ele>
        <time>2017-06-26T11:44:55Z</time>
      </trkpt>
      <trkpt lat="48.58585" lon="6.45199">
        <ele>289</ele>
        <time>2017-06-26T11:44:56Z</time>
      </trkpt>
      <trkpt lat="48.58584" lon="6.45198">
        <ele>289</ele>
        <time>2017-06-26T11:44:57Z</time>
      </trkpt>
      <trkpt lat="48.58583" lon="6.45197">
        <ele>289</ele>
        <time>2017-06-26T11:44:58Z</time>
      </trkpt>
      <trkpt lat="48.58581" lon="6.45196">
        <ele>289</ele>
        <time>2017-06-26T11:44:59Z</time>
      </trkpt>
      <trkpt lat="48.5858" lon="6.45195">
        <ele>289</ele>
        <time>2017-06-26T11:45:00Z</time>
      </trkpt>
      <trkpt lat="48.58575" lon="6.45191">
        <ele>289</ele>
        <time>2017-06-26T11:45:01Z</time>
      </trkpt>
      <trkpt lat="48.58574" lon="6.4519">
        <ele>289</ele>
        <time>2017-06-26T11:45:02Z</time>
      </trkpt>
      <trkpt lat="48.58573" lon="6.45189">
        <ele>289</ele>
        <time>2017-06-26T11:45:03Z</time>
      </trkpt>
      <trkpt lat="48.58572" lon="6.45188">
        <ele>289</ele>
        <time>2017-06-26T11:45:04Z</time>
      </trkpt>
      <trkpt lat="48.5857" lon="6.45187">
        <ele>289</ele>
        <time>2017-06-26T11:45:05Z</time>
      </trkpt>
      <trkpt lat="48.58566" lon="6.45183">
        <ele>289</ele>
        <time>2017-06-26T11:45:06Z</time>
      </trkpt>
      <trkpt lat="48.58565" lon="6.45181">
        <ele>289</ele>
        <time>2017-06-26T11:45:07Z</time>
      </trkpt>
      <trkpt lat="48.58564" lon="6.4518">
        <ele>289</ele>
        <time>2017-06-26T11:45:08Z</time>
      </trkpt>
      <trkpt lat="48.58563" lon="6.45178">
        <ele>289</ele>
        <time>2017-06-26T11:45:09Z</time>
      </trkpt>
      <trkpt lat="48.58562" lon="6.45176">
        <ele>289</ele>
        <time>2017-06-26T11:45:10Z</time>
      </trkpt>
      <trkpt lat="48.58559" lon="6.4517">
        <ele>289</ele>
        <time>2017-06-26T11:45:11Z</time>
      </trkpt>
      <trkpt lat="48.58558" lon="6.45169">
        <ele>289</ele>
        <time>2017-06-26T11:45:12Z</time>
      </trkpt>
      <trkpt lat="48.58557" lon="6.45168">
        <ele>289</ele>
        <time>2017-06-26T11:45:13Z</time>
      </trkpt>
      <trkpt lat="48.58556" lon="6.45167">
        <ele>289</ele>
        <time>2017-06-26T11:45:14Z</time>
      </trkpt>
      <trkpt lat="48.58555" lon="6.45165">
        <ele>290</ele>
        <time>2017-06-26T11:45:15Z</time>
      </trkpt>
      <trkpt lat="48.58551" lon="6.45161">
        <ele>290</ele>
        <time>2017-06-26T11:45:16Z</time>
      </trkpt>
      <trkpt lat="48.5855" lon="6.45159">
        <ele>290</ele>
        <time>2017-06-26T11:45:17Z</time>
      </trkpt>
      <trkpt lat="48.58549" lon="6.45158">
        <ele>290</ele>
        <time>2017-06-26T11:45:18Z</time>
      </trkpt>
      <trkpt lat="48.58548" lon="6.45156">
        <ele>290</ele>
        <time>2017-06-26T11:45:19Z</time>
      </trkpt>
      <trkpt lat="48.58547" lon="6.45155">
        <ele>290</ele>
        <time>2017-06-26T11:45:20Z</time>
      </trkpt>
      <trkpt lat="48.58542" lon="6.45148">
        <ele>290</ele>
        <time>2017-06-26T11:45:21Z</time>
      </trkpt>
      <trkpt lat="48.58541" lon="6.45147">
        <ele>290</ele>
        <time>2017-06-26T11:45:22Z</time>
      </trkpt>
      <trkpt lat="48.5854" lon="6.45146">
        <ele>290</ele>
        <time>2017-06-26T11:45:23Z</time>
      </trkpt>
      <trkpt lat="48.58539" lon="6.45145">
        <ele>290</ele>
        <time>2017-06-26T11:45:24Z</time>
      </trkpt>
      <trkpt lat="48.58538" lon="6.45143">
        <ele>290</ele>
        <time>2017-06-26T11:45:25Z</time>
      </trkpt>
      <trkpt lat="48.58533" lon="6.45139">
        <ele>290</ele>
        <time>2017-06-26T11:45:26Z</time>
      </trkpt>
      <trkpt lat="48.58532" lon="6.45137">
        <ele>290</ele>
        <time>2017-06-26T11:45:27Z</time>
      </trkpt>
      <trkpt lat="48.5853" lon="6.45136">
        <ele>290</ele>
        <time>2017-06-26T11:45:28Z</time>
      </trkpt>
      <trkpt lat="48.58529" lon="6.45135">
        <ele>290</ele>
        <time>2017-06-26T11:45:29Z</time>
      </trkpt>
      <trkpt lat="48.58528" lon="6.45133">
        <ele>290</ele>
        <time>2017-06-26T11:45:30Z</time>
      </trkpt>
      <trkpt lat="48.58524" lon="6.45128">
        <ele>290</ele>
        <time>2017-06-26T11:45:31Z</time>
      </trkpt>
      <trkpt lat="48.58522" lon="6.45127">
        <ele>290</ele>
        <time>2017-06-26T11:45:32Z</time>
      </trkpt>
      <trkpt lat="48.58521" lon="6.45126">
        <ele>290</ele>
        <time>2017-06-26T11:45:33Z</time>
      </trkpt>
      <trkpt lat="48.5852" lon="6.45125">
        <ele>290</ele>
        <time>2017-06-26T11:45:34Z</time>
      </trkpt>
      <trkpt lat="48.58519" lon="6.45124">
        <ele>289</ele>
        <time>2017-06-26T11:45:35Z</time>
      </trkpt>
      <trkpt lat="48.58514" lon="6.45121">
        <ele>289</ele>
        <time>2017-06-26T11:45:36Z</time>
      </trkpt>
      <trkpt lat="48.58513" lon="6.4512">
        <ele>289</ele>
        <time>2017-06-26T11:45:37Z</time>
      </trkpt>
      <trkpt lat="48.58512" lon="6.45119">
        <ele>289</ele>
        <time>2017-06-26T11:45:39Z</time>
      </trkpt>
      <trkpt lat="48.58511" lon="6.45119">
        <ele>289</ele>
        <time>2017-06-26T11:45:40Z</time>
      </trkpt>
      <trkpt lat="48.5851" lon="6.45118">
        <ele>289</ele>
        <time>2017-06-26T11:45:41Z</time>
      </trkpt>
      <trkpt lat="48.58509" lon="6.45117">
        <ele>289</ele>
        <time>2017-06-26T11:45:42Z</time>
      </trkpt>
      <trkpt lat="48.58508" lon="6.45116">
        <ele>289</ele>
        <time>2017-06-26T11:45:44Z</time>
      </trkpt>
      <trkpt lat="48.58507" lon="6.45116">
        <ele>288</ele>
        <time>2017-06-26T11:45:45Z</time>
      </trkpt>
      <trkpt lat="48.58506" lon="6.45115">
        <ele>288</ele>
        <time>2017-06-26T11:45:46Z</time>
      </trkpt>
      <trkpt lat="48.58505" lon="6.45115">
        <ele>288</ele>
        <time>2017-06-26T11:45:48Z</time>
      </trkpt>
      <trkpt lat="48.58504" lon="6.45115">
        <ele>288</ele>
        <time>2017-06-26T11:45:50Z</time>
      </trkpt>
      <trkpt lat="48.58504" lon="6.45116">
        <ele>288</ele>
        <time>2017-06-26T11:45:51Z</time>
      </trkpt>
      <trkpt lat="48.58503" lon="6.45116">
        <ele>288</ele>
        <time>2017-06-26T11:45:52Z</time>
      </trkpt>
      <trkpt lat="48.58502" lon="6.45117">
        <ele>288</ele>
        <time>2017-06-26T11:45:54Z</time>
      </trkpt>
      <trkpt lat="48.58501" lon="6.45117">
        <ele>285</ele>
        <time>2017-06-26T11:45:57Z</time>
      </trkpt>
      <trkpt lat="48.58501" lon="6.45118">
        <ele>285</ele>
        <time>2017-06-26T11:45:58Z</time>
      </trkpt>
      <trkpt lat="48.58496" lon="6.45121">
        <ele>285</ele>
        <time>2017-06-26T11:45:59Z</time>
      </trkpt>
      <trkpt lat="48.58495" lon="6.45121">
        <ele>283</ele>
        <time>2017-06-26T11:46:00Z</time>
      </trkpt>
      <trkpt lat="48.58494" lon="6.45122">
        <ele>283</ele>
        <time>2017-06-26T11:46:01Z</time>
      </trkpt>
      <trkpt lat="48.58493" lon="6.45122">
        <ele>283</ele>
        <time>2017-06-26T11:46:02Z</time>
      </trkpt>
      <trkpt lat="48.58492" lon="6.45123">
        <ele>283</ele>
        <time>2017-06-26T11:46:03Z</time>
      </trkpt>
      <trkpt lat="48.58491" lon="6.45123">
        <ele>283</ele>
        <time>2017-06-26T11:46:04Z</time>
      </trkpt>
      <trkpt lat="48.5849" lon="6.45123">
        <ele>282</ele>
        <time>2017-06-26T11:46:05Z</time>
      </trkpt>
      <trkpt lat="48.58485" lon="6.45126">
        <ele>282</ele>
        <time>2017-06-26T11:46:06Z</time>
      </trkpt>
      <trkpt lat="48.58483" lon="6.45125">
        <ele>282</ele>
        <time>2017-06-26T11:46:07Z</time>
      </trkpt>
      <trkpt lat="48.58481" lon="6.45124">
        <ele>282</ele>
        <time>2017-06-26T11:46:08Z</time>
      </trkpt>
      <trkpt lat="48.58479" lon="6.45123">
        <ele>282</ele>
        <time>2017-06-26T11:46:09Z</time>
      </trkpt>
      <trkpt lat="48.58473" lon="6.4512">
        <ele>282</ele>
        <time>2017-06-26T11:46:10Z</time>
      </trkpt>
      <trkpt lat="48.58471" lon="6.45118">
        <ele>282</ele>
        <time>2017-06-26T11:46:11Z</time>
      </trkpt>
      <trkpt lat="48.58469" lon="6.45117">
        <ele>282</ele>
        <time>2017-06-26T11:46:12Z</time>
      </trkpt>
      <trkpt lat="48.58467" lon="6.45116">
        <ele>282</ele>
        <time>2017-06-26T11:46:13Z</time>
      </trkpt>
      <trkpt lat="48.58462" lon="6.45112">
        <ele>282</ele>
        <time>2017-06-26T11:46:14Z</time>
      </trkpt>
      <trkpt lat="48.5846" lon="6.45108">
        <ele>282</ele>
        <time>2017-06-26T11:46:15Z</time>
      </trkpt>
      <trkpt lat="48.58458" lon="6.45105">
        <ele>282</ele>
        <time>2017-06-26T11:46:16Z</time>
      </trkpt>
      <trkpt lat="48.58455" lon="6.45102">
        <ele>282</ele>
        <time>2017-06-26T11:46:17Z</time>
      </trkpt>
      <trkpt lat="48.58454" lon="6.45101">
        <ele>282</ele>
        <time>2017-06-26T11:46:18Z</time>
      </trkpt>
      <trkpt lat="48.58452" lon="6.451">
        <ele>282</ele>
        <time>2017-06-26T11:46:19Z</time>
      </trkpt>
      <trkpt lat="48.58451" lon="6.45099">
        <ele>282</ele>
        <time>2017-06-26T11:46:20Z</time>
      </trkpt>
      <trkpt lat="48.58446" lon="6.45095">
        <ele>282</ele>
        <time>2017-06-26T11:46:21Z</time>
      </trkpt>
      <trkpt lat="48.58444" lon="6.45093">
        <ele>282</ele>
        <time>2017-06-26T11:46:22Z</time>
      </trkpt>
      <trkpt lat="48.58442" lon="6.45091">
        <ele>282</ele>
        <time>2017-06-26T11:46:23Z</time>
      </trkpt>
      <trkpt lat="48.58439" lon="6.45089">
        <ele>282</ele>
        <time>2017-06-26T11:46:24Z</time>
      </trkpt>
      <trkpt lat="48.58437" lon="6.45087">
        <ele>281</ele>
        <time>2017-06-26T11:46:25Z</time>
      </trkpt>
      <trkpt lat="48.58436" lon="6.45086">
        <ele>281</ele>
        <time>2017-06-26T11:46:26Z</time>
      </trkpt>
      <trkpt lat="48.58435" lon="6.45084">
        <ele>281</ele>
        <time>2017-06-26T11:46:27Z</time>
      </trkpt>
      <trkpt lat="48.58433" lon="6.45083">
        <ele>281</ele>
        <time>2017-06-26T11:46:28Z</time>
      </trkpt>
      <trkpt lat="48.58432" lon="6.45082">
        <ele>281</ele>
        <time>2017-06-26T11:46:29Z</time>
      </trkpt>
      <trkpt lat="48.58426" lon="6.45078">
        <ele>281</ele>
        <time>2017-06-26T11:46:30Z</time>
      </trkpt>
      <trkpt lat="48.58425" lon="6.45075">
        <ele>281</ele>
        <time>2017-06-26T11:46:31Z</time>
      </trkpt>
      <trkpt lat="48.58423" lon="6.45073">
        <ele>281</ele>
        <time>2017-06-26T11:46:32Z</time>
      </trkpt>
      <trkpt lat="48.58421" lon="6.4507">
        <ele>281</ele>
        <time>2017-06-26T11:46:33Z</time>
      </trkpt>
      <trkpt lat="48.58419" lon="6.45068">
        <ele>281</ele>
        <time>2017-06-26T11:46:34Z</time>
      </trkpt>
      <trkpt lat="48.58418" lon="6.45066">
        <ele>282</ele>
        <time>2017-06-26T11:46:35Z</time>
      </trkpt>
      <trkpt lat="48.58416" lon="6.45065">
        <ele>282</ele>
        <time>2017-06-26T11:46:36Z</time>
      </trkpt>
      <trkpt lat="48.58415" lon="6.45064">
        <ele>282</ele>
        <time>2017-06-26T11:46:37Z</time>
      </trkpt>
      <trkpt lat="48.58414" lon="6.45063">
        <ele>282</ele>
        <time>2017-06-26T11:46:38Z</time>
      </trkpt>
      <trkpt lat="48.58409" lon="6.45058">
        <ele>282</ele>
        <time>2017-06-26T11:46:39Z</time>
      </trkpt>
      <trkpt lat="48.58406" lon="6.45056">
        <ele>282</ele>
        <time>2017-06-26T11:46:40Z</time>
      </trkpt>
      <trkpt lat="48.58404" lon="6.45055">
        <ele>282</ele>
        <time>2017-06-26T11:46:41Z</time>
      </trkpt>
      <trkpt lat="48.58402" lon="6.45053">
        <ele>282</ele>
        <time>2017-06-26T11:46:42Z</time>
      </trkpt>
      <trkpt lat="48.584" lon="6.45052">
        <ele>282</ele>
        <time>2017-06-26T11:46:43Z</time>
      </trkpt>
      <trkpt lat="48.58398" lon="6.45051">
        <ele>282</ele>
        <time>2017-06-26T11:46:44Z</time>
      </trkpt>
      <trkpt lat="48.58397" lon="6.4505">
        <ele>282</ele>
        <time>2017-06-26T11:46:45Z</time>
      </trkpt>
      <trkpt lat="48.58396" lon="6.45049">
        <ele>282</ele>
        <time>2017-06-26T11:46:46Z</time>
      </trkpt>
      <trkpt lat="48.58395" lon="6.45048">
        <ele>282</ele>
        <time>2017-06-26T11:46:47Z</time>
      </trkpt>
      <trkpt lat="48.5839" lon="6.45045">
        <ele>282</ele>
        <time>2017-06-26T11:46:48Z</time>
      </trkpt>
      <trkpt lat="48.58389" lon="6.45044">
        <ele>282</ele>
        <time>2017-06-26T11:46:49Z</time>
      </trkpt>
      <trkpt lat="48.58388" lon="6.45043">
        <ele>282</ele>
        <time>2017-06-26T11:46:50Z</time>
      </trkpt>
      <trkpt lat="48.58386" lon="6.45042">
        <ele>282</ele>
        <time>2017-06-26T11:46:51Z</time>
      </trkpt>
      <trkpt lat="48.58385" lon="6.45041">
        <ele>282</ele>
        <time>2017-06-26T11:46:52Z</time>
      </trkpt>
      <trkpt lat="48.5838" lon="6.45038">
        <ele>282</ele>
        <time>2017-06-26T11:46:53Z</time>
      </trkpt>
      <trkpt lat="48.58379" lon="6.45037">
        <ele>282</ele>
        <time>2017-06-26T11:46:54Z</time>
      </trkpt>
      <trkpt lat="48.58378" lon="6.45036">
        <ele>283</ele>
        <time>2017-06-26T11:46:55Z</time>
      </trkpt>
      <trkpt lat="48.58376" lon="6.45035">
        <ele>283</ele>
        <time>2017-06-26T11:46:56Z</time>
      </trkpt>
      <trkpt lat="48.58375" lon="6.45034">
        <ele>283</ele>
        <time>2017-06-26T11:46:57Z</time>
      </trkpt>
      <trkpt lat="48.5837" lon="6.4503">
        <ele>283</ele>
        <time>2017-06-26T11:46:58Z</time>
      </trkpt>
      <trkpt lat="48.58369" lon="6.45029">
        <ele>283</ele>
        <time>2017-06-26T11:46:59Z</time>
      </trkpt>
      <trkpt lat="48.58368" lon="6.45028">
        <ele>283</ele>
        <time>2017-06-26T11:47:00Z</time>
      </trkpt>
      <trkpt lat="48.58366" lon="6.45027">
        <ele>283</ele>
        <time>2017-06-26T11:47:01Z</time>
      </trkpt>
      <trkpt lat="48.58365" lon="6.45026">
        <ele>283</ele>
        <time>2017-06-26T11:47:02Z</time>
      </trkpt>
      <trkpt lat="48.5836" lon="6.45023">
        <ele>283</ele>
        <time>2017-06-26T11:47:03Z</time>
      </trkpt>
      <trkpt lat="48.58358" lon="6.45022">
        <ele>283</ele>
        <time>2017-06-26T11:47:04Z</time>
      </trkpt>
      <trkpt lat="48.58356" lon="6.45022">
        <ele>286</ele>
        <time>2017-06-26T11:47:05Z</time>
      </trkpt>
      <trkpt lat="48.58354" lon="6.45021">
        <ele>286</ele>
        <time>2017-06-26T11:47:06Z</time>
      </trkpt>
      <trkpt lat="48.58352" lon="6.4502">
        <ele>286</ele>
        <time>2017-06-26T11:47:07Z</time>
      </trkpt>
      <trkpt lat="48.5835" lon="6.4502">
        <ele>286</ele>
        <time>2017-06-26T11:47:08Z</time>
      </trkpt>
      <trkpt lat="48.58349" lon="6.45019">
        <ele>286</ele>
        <time>2017-06-26T11:47:09Z</time>
      </trkpt>
      <trkpt lat="48.58348" lon="6.45018">
        <ele>286</ele>
        <time>2017-06-26T11:47:10Z</time>
      </trkpt>
      <trkpt lat="48.58347" lon="6.45018">
        <ele>286</ele>
        <time>2017-06-26T11:47:11Z</time>
      </trkpt>
      <trkpt lat="48.58346" lon="6.45017">
        <ele>286</ele>
        <time>2017-06-26T11:47:12Z</time>
      </trkpt>
      <trkpt lat="48.58345" lon="6.45016">
        <ele>286</ele>
        <time>2017-06-26T11:47:13Z</time>
      </trkpt>
      <trkpt lat="48.58339" lon="6.45013">
        <ele>286</ele>
        <time>2017-06-26T11:47:14Z</time>
      </trkpt>
      <trkpt lat="48.58338" lon="6.45012">
        <ele>287</ele>
        <time>2017-06-26T11:47:15Z</time>
      </trkpt>
      <trkpt lat="48.58336" lon="6.4501">
        <ele>287</ele>
        <time>2017-06-26T11:47:16Z</time>
      </trkpt>
      <trkpt lat="48.58334" lon="6.45009">
        <ele>287</ele>
        <time>2017-06-26T11:47:17Z</time>
      </trkpt>
      <trkpt lat="48.58332" lon="6.45008">
        <ele>287</ele>
        <time>2017-06-26T11:47:18Z</time>
      </trkpt>
      <trkpt lat="48.5833" lon="6.45007">
        <ele>287</ele>
        <time>2017-06-26T11:47:19Z</time>
      </trkpt>
      <trkpt lat="48.58329" lon="6.45006">
        <ele>287</ele>
        <time>2017-06-26T11:47:20Z</time>
      </trkpt>
      <trkpt lat="48.58328" lon="6.45005">
        <ele>287</ele>
        <time>2017-06-26T11:47:21Z</time>
      </trkpt>
      <trkpt lat="48.58327" lon="6.45005">
        <ele>287</ele>
        <time>2017-06-26T11:47:22Z</time>
      </trkpt>
      <trkpt lat="48.58326" lon="6.45004">
        <ele>287</ele>
        <time>2017-06-26T11:47:23Z</time>
      </trkpt>
      <trkpt lat="48.58325" lon="6.45003">
        <ele>287</ele>
        <time>2017-06-26T11:47:24Z</time>
      </trkpt>
      <trkpt lat="48.58319" lon="6.45">
        <ele>289</ele>
        <time>2017-06-26T11:47:25Z</time>
      </trkpt>
      <trkpt lat="48.58318" lon="6.45">
        <ele>289</ele>
        <time>2017-06-26T11:47:26Z</time>
      </trkpt>
      <trkpt lat="48.58317" lon="6.44999">
        <ele>289</ele>
        <time>2017-06-26T11:47:27Z</time>
      </trkpt>
      <trkpt lat="48.58315" lon="6.44998">
        <ele>289</ele>
        <time>2017-06-26T11:47:28Z</time>
      </trkpt>
      <trkpt lat="48.58314" lon="6.44997">
        <ele>289</ele>
        <time>2017-06-26T11:47:29Z</time>
      </trkpt>
      <trkpt lat="48.58309" lon="6.44994">
        <ele>289</ele>
        <time>2017-06-26T11:47:30Z</time>
      </trkpt>
      <trkpt lat="48.58308" lon="6.44993">
        <ele>289</ele>
        <time>2017-06-26T11:47:31Z</time>
      </trkpt>
      <trkpt lat="48.58306" lon="6.44992">
        <ele>289</ele>
        <time>2017-06-26T11:47:32Z</time>
      </trkpt>
      <trkpt lat="48.58305" lon="6.4499">
        <ele>289</ele>
        <time>2017-06-26T11:47:33Z</time>
      </trkpt>
      <trkpt lat="48.58304" lon="6.44989">
        <ele>289</ele>
        <time>2017-06-26T11:47:34Z</time>
      </trkpt>
      <trkpt lat="48.58299" lon="6.44984">
        <ele>289</ele>
        <time>2017-06-26T11:47:35Z</time>
      </trkpt>
      <trkpt lat="48.58297" lon="6.44982">
        <ele>289</ele>
        <time>2017-06-26T11:47:36Z</time>
      </trkpt>
      <trkpt lat="48.58294" lon="6.4498">
        <ele>289</ele>
        <time>2017-06-26T11:47:37Z</time>
      </trkpt>
      <trkpt lat="48.58292" lon="6.44979">
        <ele>289</ele>
        <time>2017-06-26T11:47:38Z</time>
      </trkpt>
      <trkpt lat="48.5829" lon="6.44977">
        <ele>289</ele>
        <time>2017-06-26T11:47:39Z</time>
      </trkpt>
    </trkseg>
  </trk>
  <trk>
    <name><![CDATA[13km]]></name>
    <extensions>
      <line xmlns="http://www.topografix.com/GPX/gpx_style/0/2">
        <color>00FF00</color>
        <opacity>0.85</opacity>
        <width>9</width>
          <extensions>
            <sens>1</sens>
          </extensions>
      </line>
    </extensions>
    <trkseg>
      <trkpt lat="48.58481" lon="6.45128">
        <ele>273</ele>
        <time>2017-06-26T08:31:33Z</time>
      </trkpt>
      <trkpt lat="48.58479" lon="6.45126">
        <ele>274</ele>
        <time>2017-06-26T08:31:37Z</time>
      </trkpt>
      <trkpt lat="48.58477" lon="6.45124">
        <ele>273</ele>
        <time>2017-06-26T08:31:38Z</time>
      </trkpt>
      <trkpt lat="48.58474" lon="6.45123">
        <ele>273</ele>
        <time>2017-06-26T08:31:39Z</time>
      </trkpt>
      <trkpt lat="48.58471" lon="6.45122">
        <ele>273</ele>
        <time>2017-06-26T08:31:40Z</time>
      </trkpt>
      <trkpt lat="48.58468" lon="6.4512">
        <ele>273</ele>
        <time>2017-06-26T08:31:41Z</time>
      </trkpt>
      <trkpt lat="48.58465" lon="6.45119">
        <ele>273</ele>
        <time>2017-06-26T08:31:42Z</time>
      </trkpt>
      <trkpt lat="48.58462" lon="6.45117">
        <ele>272</ele>
        <time>2017-06-26T08:31:43Z</time>
      </trkpt>
      <trkpt lat="48.58459" lon="6.45115">
        <ele>272</ele>
        <time>2017-06-26T08:31:44Z</time>
      </trkpt>
      <trkpt lat="48.58457" lon="6.45112">
        <ele>272</ele>
        <time>2017-06-26T08:31:45Z</time>
      </trkpt>
      <trkpt lat="48.58455" lon="6.45111">
        <ele>272</ele>
        <time>2017-06-26T08:31:46Z</time>
      </trkpt>
      <trkpt lat="48.58452" lon="6.45109">
        <ele>271</ele>
        <time>2017-06-26T08:31:47Z</time>
      </trkpt>
      <trkpt lat="48.5845" lon="6.45107">
        <ele>271</ele>
        <time>2017-06-26T08:31:48Z</time>
      </trkpt>
      <trkpt lat="48.58448" lon="6.45105">
        <ele>271</ele>
        <time>2017-06-26T08:31:49Z</time>
      </trkpt>
      <trkpt lat="48.58446" lon="6.45103">
        <ele>271</ele>
        <time>2017-06-26T08:31:50Z</time>
      </trkpt>
      <trkpt lat="48.58443" lon="6.45101">
        <ele>270</ele>
        <time>2017-06-26T08:31:51Z</time>
      </trkpt>
      <trkpt lat="48.58441" lon="6.45099">
        <ele>270</ele>
        <time>2017-06-26T08:31:52Z</time>
      </trkpt>
      <trkpt lat="48.58439" lon="6.45097">
        <ele>270</ele>
        <time>2017-06-26T08:31:53Z</time>
      </trkpt>
      <trkpt lat="48.58436" lon="6.45094">
        <ele>270</ele>
        <time>2017-06-26T08:31:54Z</time>
      </trkpt>
      <trkpt lat="48.58434" lon="6.45092">
        <ele>270</ele>
        <time>2017-06-26T08:31:55Z</time>
      </trkpt>
      <trkpt lat="48.58432" lon="6.4509">
        <ele>270</ele>
        <time>2017-06-26T08:31:56Z</time>
      </trkpt>
      <trkpt lat="48.58429" lon="6.45088">
        <ele>270</ele>
        <time>2017-06-26T08:31:57Z</time>
      </trkpt>
      <trkpt lat="48.58426" lon="6.45086">
        <ele>270</ele>
        <time>2017-06-26T08:31:58Z</time>
      </trkpt>
      <trkpt lat="48.58424" lon="6.45084">
        <ele>270</ele>
        <time>2017-06-26T08:31:59Z</time>
      </trkpt>
      <trkpt lat="48.58422" lon="6.45081">
        <ele>270</ele>
        <time>2017-06-26T08:32:00Z</time>
      </trkpt>
      <trkpt lat="48.5842" lon="6.45077">
        <ele>270</ele>
        <time>2017-06-26T08:32:01Z</time>
      </trkpt>
      <trkpt lat="48.58418" lon="6.45074">
        <ele>270</ele>
        <time>2017-06-26T08:32:02Z</time>
      </trkpt>
      <trkpt lat="48.58416" lon="6.45071">
        <ele>271</ele>
        <time>2017-06-26T08:32:03Z</time>
      </trkpt>
      <trkpt lat="48.58414" lon="6.45068">
        <ele>271</ele>
        <time>2017-06-26T08:32:04Z</time>
      </trkpt>
      <trkpt lat="48.58412" lon="6.45065">
        <ele>271</ele>
        <time>2017-06-26T08:32:05Z</time>
      </trkpt>
      <trkpt lat="48.58411" lon="6.45063">
        <ele>271</ele>
        <time>2017-06-26T08:32:06Z</time>
      </trkpt>
      <trkpt lat="48.58409" lon="6.4506">
        <ele>271</ele>
        <time>2017-06-26T08:32:07Z</time>
      </trkpt>
      <trkpt lat="48.58407" lon="6.45057">
        <ele>271</ele>
        <time>2017-06-26T08:32:08Z</time>
      </trkpt>
      <trkpt lat="48.58405" lon="6.45054">
        <ele>271</ele>
        <time>2017-06-26T08:32:09Z</time>
      </trkpt>
      <trkpt lat="48.58402" lon="6.45052">
        <ele>271</ele>
        <time>2017-06-26T08:32:10Z</time>
      </trkpt>
      <trkpt lat="48.584" lon="6.4505">
        <ele>271</ele>
        <time>2017-06-26T08:32:11Z</time>
      </trkpt>
      <trkpt lat="48.58397" lon="6.45048">
        <ele>271</ele>
        <time>2017-06-26T08:32:12Z</time>
      </trkpt>
      <trkpt lat="48.58395" lon="6.45045">
        <ele>271</ele>
        <time>2017-06-26T08:32:13Z</time>
      </trkpt>
      <trkpt lat="48.58393" lon="6.45043">
        <ele>271</ele>
        <time>2017-06-26T08:32:14Z</time>
      </trkpt>
      <trkpt lat="48.58391" lon="6.45041">
        <ele>271</ele>
        <time>2017-06-26T08:32:15Z</time>
      </trkpt>
      <trkpt lat="48.58389" lon="6.45039">
        <ele>271</ele>
        <time>2017-06-26T08:32:16Z</time>
      </trkpt>
      <trkpt lat="48.58387" lon="6.45036">
        <ele>271</ele>
        <time>2017-06-26T08:32:17Z</time>
      </trkpt>
      <trkpt lat="48.58384" lon="6.45034">
        <ele>271</ele>
        <time>2017-06-26T08:32:18Z</time>
      </trkpt>
      <trkpt lat="48.58381" lon="6.45033">
        <ele>271</ele>
        <time>2017-06-26T08:32:19Z</time>
      </trkpt>
      <trkpt lat="48.58378" lon="6.45032">
        <ele>271</ele>
        <time>2017-06-26T08:32:20Z</time>
      </trkpt>
      <trkpt lat="48.58375" lon="6.4503">
        <ele>271</ele>
        <time>2017-06-26T08:32:21Z</time>
      </trkpt>
      <trkpt lat="48.58373" lon="6.45028">
        <ele>271</ele>
        <time>2017-06-26T08:32:22Z</time>
      </trkpt>
      <trkpt lat="48.5837" lon="6.45027">
        <ele>271</ele>
        <time>2017-06-26T08:32:23Z</time>
      </trkpt>
      <trkpt lat="48.58368" lon="6.45025">
        <ele>270</ele>
        <time>2017-06-26T08:32:24Z</time>
      </trkpt>
      <trkpt lat="48.58365" lon="6.45024">
        <ele>270</ele>
        <time>2017-06-26T08:32:25Z</time>
      </trkpt>
      <trkpt lat="48.58363" lon="6.45023">
        <ele>270</ele>
        <time>2017-06-26T08:32:26Z</time>
      </trkpt>
      <trkpt lat="48.58361" lon="6.45022">
        <ele>270</ele>
        <time>2017-06-26T08:32:27Z</time>
      </trkpt>
      <trkpt lat="48.58359" lon="6.4502">
        <ele>270</ele>
        <time>2017-06-26T08:32:28Z</time>
      </trkpt>
      <trkpt lat="48.58356" lon="6.45019">
        <ele>270</ele>
        <time>2017-06-26T08:32:29Z</time>
      </trkpt>
      <trkpt lat="48.58354" lon="6.45018">
        <ele>270</ele>
        <time>2017-06-26T08:32:30Z</time>
      </trkpt>
      <trkpt lat="48.58351" lon="6.45017">
        <ele>270</ele>
        <time>2017-06-26T08:32:31Z</time>
      </trkpt>
      <trkpt lat="48.58348" lon="6.45015">
        <ele>270</ele>
        <time>2017-06-26T08:32:32Z</time>
      </trkpt>
      <trkpt lat="48.58345" lon="6.45014">
        <ele>270</ele>
        <time>2017-06-26T08:32:33Z</time>
      </trkpt>
      <trkpt lat="48.58343" lon="6.45012">
        <ele>270</ele>
        <time>2017-06-26T08:32:34Z</time>
      </trkpt>
      <trkpt lat="48.5834" lon="6.4501">
        <ele>270</ele>
        <time>2017-06-26T08:32:35Z</time>
      </trkpt>
      <trkpt lat="48.58338" lon="6.4501">
        <ele>270</ele>
        <time>2017-06-26T08:32:36Z</time>
      </trkpt>
      <trkpt lat="48.58335" lon="6.45009">
        <ele>270</ele>
        <time>2017-06-26T08:32:37Z</time>
      </trkpt>
      <trkpt lat="48.58332" lon="6.45007">
        <ele>270</ele>
        <time>2017-06-26T08:32:38Z</time>
      </trkpt>
      <trkpt lat="48.58329" lon="6.45006">
        <ele>270</ele>
        <time>2017-06-26T08:32:39Z</time>
      </trkpt>
      <trkpt lat="48.58327" lon="6.45005">
        <ele>270</ele>
        <time>2017-06-26T08:32:40Z</time>
      </trkpt>
      <trkpt lat="48.58324" lon="6.45004">
        <ele>270</ele>
        <time>2017-06-26T08:32:41Z</time>
      </trkpt>
      <trkpt lat="48.58322" lon="6.45003">
        <ele>270</ele>
        <time>2017-06-26T08:32:42Z</time>
      </trkpt>
      <trkpt lat="48.5832" lon="6.45002">
        <ele>270</ele>
        <time>2017-06-26T08:32:43Z</time>
      </trkpt>
      <trkpt lat="48.58318" lon="6.45001">
        <ele>271</ele>
        <time>2017-06-26T08:32:44Z</time>
      </trkpt>
      <trkpt lat="48.58315" lon="6.45">
        <ele>271</ele>
        <time>2017-06-26T08:32:45Z</time>
      </trkpt>
      <trkpt lat="48.58312" lon="6.44999">
        <ele>271</ele>
        <time>2017-06-26T08:32:46Z</time>
      </trkpt>
      <trkpt lat="48.5831" lon="6.44997">
        <ele>271</ele>
        <time>2017-06-26T08:32:47Z</time>
      </trkpt>
      <trkpt lat="48.58307" lon="6.44994">
        <ele>271</ele>
        <time>2017-06-26T08:32:48Z</time>
      </trkpt>
      <trkpt lat="48.58305" lon="6.44993">
        <ele>271</ele>
        <time>2017-06-26T08:32:49Z</time>
      </trkpt>
      <trkpt lat="48.58302" lon="6.44991">
        <ele>271</ele>
        <time>2017-06-26T08:32:50Z</time>
      </trkpt>
      <trkpt lat="48.583" lon="6.44989">
        <ele>271</ele>
        <time>2017-06-26T08:32:51Z</time>
      </trkpt>
      <trkpt lat="48.58297" lon="6.44987">
        <ele>272</ele>
        <time>2017-06-26T08:32:52Z</time>
      </trkpt>
      <trkpt lat="48.58295" lon="6.44985">
        <ele>272</ele>
        <time>2017-06-26T08:32:53Z</time>
      </trkpt>
      <trkpt lat="48.58292" lon="6.44983">
        <ele>272</ele>
        <time>2017-06-26T08:32:54Z</time>
      </trkpt>
      <trkpt lat="48.58289" lon="6.4498">
        <ele>272</ele>
        <time>2017-06-26T08:32:55Z</time>
      </trkpt>
      <trkpt lat="48.58286" lon="6.44978">
        <ele>272</ele>
        <time>2017-06-26T08:32:56Z</time>
      </trkpt>
      <trkpt lat="48.58283" lon="6.44976">
        <ele>272</ele>
        <time>2017-06-26T08:32:57Z</time>
      </trkpt>
      <trkpt lat="48.5828" lon="6.44974">
        <ele>272</ele>
        <time>2017-06-26T08:32:58Z</time>
      </trkpt>
      <trkpt lat="48.58278" lon="6.44972">
        <ele>272</ele>
        <time>2017-06-26T08:32:59Z</time>
      </trkpt>
      <trkpt lat="48.58275" lon="6.44971">
        <ele>273</ele>
        <time>2017-06-26T08:33:00Z</time>
      </trkpt>
      <trkpt lat="48.58273" lon="6.44969">
        <ele>273</ele>
        <time>2017-06-26T08:33:01Z</time>
      </trkpt>
      <trkpt lat="48.5827" lon="6.44969">
        <ele>273</ele>
        <time>2017-06-26T08:33:02Z</time>
      </trkpt>
      <trkpt lat="48.58267" lon="6.44969">
        <ele>273</ele>
        <time>2017-06-26T08:33:03Z</time>
      </trkpt>
      <trkpt lat="48.58265" lon="6.4497">
        <ele>273</ele>
        <time>2017-06-26T08:33:04Z</time>
      </trkpt>
      <trkpt lat="48.58263" lon="6.44973">
        <ele>273</ele>
        <time>2017-06-26T08:33:05Z</time>
      </trkpt>
      <trkpt lat="48.58262" lon="6.44975">
        <ele>273</ele>
        <time>2017-06-26T08:33:06Z</time>
      </trkpt>
      <trkpt lat="48.5826" lon="6.44978">
        <ele>273</ele>
        <time>2017-06-26T08:33:07Z</time>
      </trkpt>
      <trkpt lat="48.58259" lon="6.44982">
        <ele>272</ele>
        <time>2017-06-26T08:33:08Z</time>
      </trkpt>
      <trkpt lat="48.58257" lon="6.44985">
        <ele>272</ele>
        <time>2017-06-26T08:33:09Z</time>
      </trkpt>
      <trkpt lat="48.58255" lon="6.44988">
        <ele>272</ele>
        <time>2017-06-26T08:33:10Z</time>
      </trkpt>
      <trkpt lat="48.58254" lon="6.44992">
        <ele>272</ele>
        <time>2017-06-26T08:33:11Z</time>
      </trkpt>
      <trkpt lat="48.58252" lon="6.44996">
        <ele>272</ele>
        <time>2017-06-26T08:33:12Z</time>
      </trkpt>
      <trkpt lat="48.5825" lon="6.44999">
        <ele>272</ele>
        <time>2017-06-26T08:33:13Z</time>
      </trkpt>
      <trkpt lat="48.58249" lon="6.45002">
        <ele>272</ele>
        <time>2017-06-26T08:33:14Z</time>
      </trkpt>
      <trkpt lat="48.58248" lon="6.45006">
        <ele>271</ele>
        <time>2017-06-26T08:33:15Z</time>
      </trkpt>
      <trkpt lat="48.58246" lon="6.45009">
        <ele>271</ele>
        <time>2017-06-26T08:33:16Z</time>
      </trkpt>
      <trkpt lat="48.58245" lon="6.45012">
        <ele>271</ele>
        <time>2017-06-26T08:33:17Z</time>
      </trkpt>
      <trkpt lat="48.58244" lon="6.45015">
        <ele>271</ele>
        <time>2017-06-26T08:33:18Z</time>
      </trkpt>
      <trkpt lat="48.58242" lon="6.45019">
        <ele>271</ele>
        <time>2017-06-26T08:33:19Z</time>
      </trkpt>
      <trkpt lat="48.58241" lon="6.45026">
        <ele>269</ele>
        <time>2017-06-26T08:33:20Z</time>
      </trkpt>
      <trkpt lat="48.5824" lon="6.45033">
        <ele>269</ele>
        <time>2017-06-26T08:33:21Z</time>
      </trkpt>
      <trkpt lat="48.58238" lon="6.45036">
        <ele>269</ele>
        <time>2017-06-26T08:33:22Z</time>
      </trkpt>
      <trkpt lat="48.58236" lon="6.45039">
        <ele>269</ele>
        <time>2017-06-26T08:33:23Z</time>
      </trkpt>
      <trkpt lat="48.58231" lon="6.45044">
        <ele>268</ele>
        <time>2017-06-26T08:33:24Z</time>
      </trkpt>
      <trkpt lat="48.58229" lon="6.45047">
        <ele>268</ele>
        <time>2017-06-26T08:33:25Z</time>
      </trkpt>
      <trkpt lat="48.58228" lon="6.4505">
        <ele>268</ele>
        <time>2017-06-26T08:33:26Z</time>
      </trkpt>
      <trkpt lat="48.58224" lon="6.45056">
        <ele>267</ele>
        <time>2017-06-26T08:33:27Z</time>
      </trkpt>
      <trkpt lat="48.58222" lon="6.45059">
        <ele>267</ele>
        <time>2017-06-26T08:33:28Z</time>
      </trkpt>
      <trkpt lat="48.5822" lon="6.45062">
        <ele>267</ele>
        <time>2017-06-26T08:33:29Z</time>
      </trkpt>
      <trkpt lat="48.58218" lon="6.45065">
        <ele>266</ele>
        <time>2017-06-26T08:33:30Z</time>
      </trkpt>
      <trkpt lat="48.58217" lon="6.45068">
        <ele>266</ele>
        <time>2017-06-26T08:33:31Z</time>
      </trkpt>
      <trkpt lat="48.58216" lon="6.45071">
        <ele>266</ele>
        <time>2017-06-26T08:33:32Z</time>
      </trkpt>
      <trkpt lat="48.58215" lon="6.45073">
        <ele>266</ele>
        <time>2017-06-26T08:33:33Z</time>
      </trkpt>
      <trkpt lat="48.58215" lon="6.45077">
        <ele>266</ele>
        <time>2017-06-26T08:33:34Z</time>
      </trkpt>
      <trkpt lat="48.58213" lon="6.45081">
        <ele>265</ele>
        <time>2017-06-26T08:33:35Z</time>
      </trkpt>
      <trkpt lat="48.58212" lon="6.45086">
        <ele>263</ele>
        <time>2017-06-26T08:33:36Z</time>
      </trkpt>
      <trkpt lat="48.5821" lon="6.45095">
        <ele>263</ele>
        <time>2017-06-26T08:33:37Z</time>
      </trkpt>
      <trkpt lat="48.58208" lon="6.45097">
        <ele>263</ele>
        <time>2017-06-26T08:33:38Z</time>
      </trkpt>
      <trkpt lat="48.58206" lon="6.451">
        <ele>263</ele>
        <time>2017-06-26T08:33:39Z</time>
      </trkpt>
      <trkpt lat="48.58201" lon="6.45105">
        <ele>262</ele>
        <time>2017-06-26T08:33:40Z</time>
      </trkpt>
      <trkpt lat="48.582" lon="6.4511">
        <ele>262</ele>
        <time>2017-06-26T08:33:41Z</time>
      </trkpt>
      <trkpt lat="48.58198" lon="6.45114">
        <ele>262</ele>
        <time>2017-06-26T08:33:42Z</time>
      </trkpt>
      <trkpt lat="48.58196" lon="6.45118">
        <ele>262</ele>
        <time>2017-06-26T08:33:43Z</time>
      </trkpt>
      <trkpt lat="48.58194" lon="6.45122">
        <ele>262</ele>
        <time>2017-06-26T08:33:44Z</time>
      </trkpt>
      <trkpt lat="48.58192" lon="6.45125">
        <ele>262</ele>
        <time>2017-06-26T08:33:45Z</time>
      </trkpt>
      <trkpt lat="48.5819" lon="6.45129">
        <ele>262</ele>
        <time>2017-06-26T08:33:46Z</time>
      </trkpt>
      <trkpt lat="48.58189" lon="6.45131">
        <ele>262</ele>
        <time>2017-06-26T08:33:47Z</time>
      </trkpt>
      <trkpt lat="48.58186" lon="6.45134">
        <ele>262</ele>
        <time>2017-06-26T08:33:48Z</time>
      </trkpt>
      <trkpt lat="48.58184" lon="6.45137">
        <ele>262</ele>
        <time>2017-06-26T08:33:49Z</time>
      </trkpt>
      <trkpt lat="48.58182" lon="6.45139">
        <ele>262</ele>
        <time>2017-06-26T08:33:50Z</time>
      </trkpt>
      <trkpt lat="48.58181" lon="6.45142">
        <ele>262</ele>
        <time>2017-06-26T08:33:51Z</time>
      </trkpt>
      <trkpt lat="48.58179" lon="6.45145">
        <ele>261</ele>
        <time>2017-06-26T08:33:52Z</time>
      </trkpt>
      <trkpt lat="48.58178" lon="6.45148">
        <ele>261</ele>
        <time>2017-06-26T08:33:53Z</time>
      </trkpt>
      <trkpt lat="48.58176" lon="6.45151">
        <ele>261</ele>
        <time>2017-06-26T08:33:54Z</time>
      </trkpt>
      <trkpt lat="48.58172" lon="6.45158">
        <ele>260</ele>
        <time>2017-06-26T08:33:55Z</time>
      </trkpt>
      <trkpt lat="48.5817" lon="6.45161">
        <ele>260</ele>
        <time>2017-06-26T08:33:56Z</time>
      </trkpt>
      <trkpt lat="48.58169" lon="6.45165">
        <ele>260</ele>
        <time>2017-06-26T08:33:57Z</time>
      </trkpt>
      <trkpt lat="48.58167" lon="6.45168">
        <ele>259</ele>
        <time>2017-06-26T08:33:58Z</time>
      </trkpt>
      <trkpt lat="48.58166" lon="6.45172">
        <ele>259</ele>
        <time>2017-06-26T08:33:59Z</time>
      </trkpt>
      <trkpt lat="48.58165" lon="6.45176">
        <ele>259</ele>
        <time>2017-06-26T08:34:00Z</time>
      </trkpt>
      <trkpt lat="48.58164" lon="6.45179">
        <ele>260</ele>
        <time>2017-06-26T08:34:01Z</time>
      </trkpt>
      <trkpt lat="48.58163" lon="6.45183">
        <ele>260</ele>
        <time>2017-06-26T08:34:02Z</time>
      </trkpt>
      <trkpt lat="48.58162" lon="6.45187">
        <ele>260</ele>
        <time>2017-06-26T08:34:03Z</time>
      </trkpt>
      <trkpt lat="48.58162" lon="6.45191">
        <ele>260</ele>
        <time>2017-06-26T08:34:04Z</time>
      </trkpt>
      <trkpt lat="48.58162" lon="6.45194">
        <ele>260</ele>
        <time>2017-06-26T08:34:05Z</time>
      </trkpt>
      <trkpt lat="48.58161" lon="6.45197">
        <ele>260</ele>
        <time>2017-06-26T08:34:06Z</time>
      </trkpt>
      <trkpt lat="48.5816" lon="6.45201">
        <ele>260</ele>
        <time>2017-06-26T08:34:07Z</time>
      </trkpt>
      <trkpt lat="48.58159" lon="6.45204">
        <ele>260</ele>
        <time>2017-06-26T08:34:08Z</time>
      </trkpt>
      <trkpt lat="48.58156" lon="6.4521">
        <ele>260</ele>
        <time>2017-06-26T08:34:09Z</time>
      </trkpt>
      <trkpt lat="48.58153" lon="6.45216">
        <ele>260</ele>
        <time>2017-06-26T08:34:10Z</time>
      </trkpt>
      <trkpt lat="48.58154" lon="6.45218">
        <ele>260</ele>
        <time>2017-06-26T08:34:11Z</time>
      </trkpt>
      <trkpt lat="48.58154" lon="6.45221">
        <ele>259</ele>
        <time>2017-06-26T08:34:12Z</time>
      </trkpt>
      <trkpt lat="48.58155" lon="6.45223">
        <ele>259</ele>
        <time>2017-06-26T08:34:13Z</time>
      </trkpt>
      <trkpt lat="48.58156" lon="6.45231">
        <ele>259</ele>
        <time>2017-06-26T08:34:14Z</time>
      </trkpt>
      <trkpt lat="48.58157" lon="6.45234">
        <ele>259</ele>
        <time>2017-06-26T08:34:15Z</time>
      </trkpt>
      <trkpt lat="48.58157" lon="6.45237">
        <ele>259</ele>
        <time>2017-06-26T08:34:16Z</time>
      </trkpt>
      <trkpt lat="48.58157" lon="6.45239">
        <ele>259</ele>
        <time>2017-06-26T08:34:17Z</time>
      </trkpt>
      <trkpt lat="48.58158" lon="6.45247">
        <ele>259</ele>
        <time>2017-06-26T08:34:18Z</time>
      </trkpt>
      <trkpt lat="48.58159" lon="6.45251">
        <ele>259</ele>
        <time>2017-06-26T08:34:19Z</time>
      </trkpt>
      <trkpt lat="48.58159" lon="6.45254">
        <ele>259</ele>
        <time>2017-06-26T08:34:20Z</time>
      </trkpt>
      <trkpt lat="48.58159" lon="6.45258">
        <ele>259</ele>
        <time>2017-06-26T08:34:21Z</time>
      </trkpt>
      <trkpt lat="48.5816" lon="6.45261">
        <ele>259</ele>
        <time>2017-06-26T08:34:22Z</time>
      </trkpt>
      <trkpt lat="48.5816" lon="6.45265">
        <ele>259</ele>
        <time>2017-06-26T08:34:23Z</time>
      </trkpt>
      <trkpt lat="48.58161" lon="6.45268">
        <ele>259</ele>
        <time>2017-06-26T08:34:24Z</time>
      </trkpt>
      <trkpt lat="48.58161" lon="6.45272">
        <ele>259</ele>
        <time>2017-06-26T08:34:25Z</time>
      </trkpt>
      <trkpt lat="48.58161" lon="6.45276">
        <ele>259</ele>
        <time>2017-06-26T08:34:26Z</time>
      </trkpt>
      <trkpt lat="48.58162" lon="6.4528">
        <ele>259</ele>
        <time>2017-06-26T08:34:27Z</time>
      </trkpt>
      <trkpt lat="48.58162" lon="6.45284">
        <ele>259</ele>
        <time>2017-06-26T08:34:28Z</time>
      </trkpt>
      <trkpt lat="48.58163" lon="6.45288">
        <ele>258</ele>
        <time>2017-06-26T08:34:29Z</time>
      </trkpt>
      <trkpt lat="48.58164" lon="6.45292">
        <ele>258</ele>
        <time>2017-06-26T08:34:30Z</time>
      </trkpt>
      <trkpt lat="48.58165" lon="6.45296">
        <ele>258</ele>
        <time>2017-06-26T08:34:31Z</time>
      </trkpt>
      <trkpt lat="48.58166" lon="6.453">
        <ele>258</ele>
        <time>2017-06-26T08:34:32Z</time>
      </trkpt>
      <trkpt lat="48.58167" lon="6.45304">
        <ele>258</ele>
        <time>2017-06-26T08:34:33Z</time>
      </trkpt>
      <trkpt lat="48.58167" lon="6.45307">
        <ele>258</ele>
        <time>2017-06-26T08:34:34Z</time>
      </trkpt>
      <trkpt lat="48.58168" lon="6.45311">
        <ele>259</ele>
        <time>2017-06-26T08:34:35Z</time>
      </trkpt>
      <trkpt lat="48.58168" lon="6.45316">
        <ele>259</ele>
        <time>2017-06-26T08:34:36Z</time>
      </trkpt>
      <trkpt lat="48.58168" lon="6.4532">
        <ele>259</ele>
        <time>2017-06-26T08:34:37Z</time>
      </trkpt>
      <trkpt lat="48.58169" lon="6.45325">
        <ele>259</ele>
        <time>2017-06-26T08:34:38Z</time>
      </trkpt>
      <trkpt lat="48.5817" lon="6.45329">
        <ele>259</ele>
        <time>2017-06-26T08:34:39Z</time>
      </trkpt>
      <trkpt lat="48.58171" lon="6.45333">
        <ele>259</ele>
        <time>2017-06-26T08:34:40Z</time>
      </trkpt>
      <trkpt lat="48.58171" lon="6.45336">
        <ele>259</ele>
        <time>2017-06-26T08:34:41Z</time>
      </trkpt>
      <trkpt lat="48.58172" lon="6.45339">
        <ele>259</ele>
        <time>2017-06-26T08:34:42Z</time>
      </trkpt>
      <trkpt lat="48.58173" lon="6.45342">
        <ele>260</ele>
        <time>2017-06-26T08:34:43Z</time>
      </trkpt>
      <trkpt lat="48.58174" lon="6.45345">
        <ele>260</ele>
        <time>2017-06-26T08:34:44Z</time>
      </trkpt>
      <trkpt lat="48.58174" lon="6.45349">
        <ele>260</ele>
        <time>2017-06-26T08:34:45Z</time>
      </trkpt>
      <trkpt lat="48.58174" lon="6.45353">
        <ele>260</ele>
        <time>2017-06-26T08:34:46Z</time>
      </trkpt>
      <trkpt lat="48.58174" lon="6.45356">
        <ele>260</ele>
        <time>2017-06-26T08:34:47Z</time>
      </trkpt>
      <trkpt lat="48.58174" lon="6.4536">
        <ele>260</ele>
        <time>2017-06-26T08:34:48Z</time>
      </trkpt>
      <trkpt lat="48.58174" lon="6.45364">
        <ele>260</ele>
        <time>2017-06-26T08:34:49Z</time>
      </trkpt>
      <trkpt lat="48.58175" lon="6.45368">
        <ele>259</ele>
        <time>2017-06-26T08:34:50Z</time>
      </trkpt>
      <trkpt lat="48.58176" lon="6.45373">
        <ele>259</ele>
        <time>2017-06-26T08:34:51Z</time>
      </trkpt>
      <trkpt lat="48.58178" lon="6.45379">
        <ele>259</ele>
        <time>2017-06-26T08:34:52Z</time>
      </trkpt>
      <trkpt lat="48.58178" lon="6.45382">
        <ele>259</ele>
        <time>2017-06-26T08:34:53Z</time>
      </trkpt>
      <trkpt lat="48.58179" lon="6.45385">
        <ele>259</ele>
        <time>2017-06-26T08:34:54Z</time>
      </trkpt>
      <trkpt lat="48.58179" lon="6.45389">
        <ele>259</ele>
        <time>2017-06-26T08:34:55Z</time>
      </trkpt>
      <trkpt lat="48.5818" lon="6.45393">
        <ele>259</ele>
        <time>2017-06-26T08:34:56Z</time>
      </trkpt>
      <trkpt lat="48.58181" lon="6.45397">
        <ele>258</ele>
        <time>2017-06-26T08:34:57Z</time>
      </trkpt>
      <trkpt lat="48.58181" lon="6.45401">
        <ele>258</ele>
        <time>2017-06-26T08:34:58Z</time>
      </trkpt>
      <trkpt lat="48.58182" lon="6.45405">
        <ele>258</ele>
        <time>2017-06-26T08:34:59Z</time>
      </trkpt>
      <trkpt lat="48.58182" lon="6.4541">
        <ele>258</ele>
        <time>2017-06-26T08:35:00Z</time>
      </trkpt>
      <trkpt lat="48.58183" lon="6.45414">
        <ele>258</ele>
        <time>2017-06-26T08:35:01Z</time>
      </trkpt>
      <trkpt lat="48.58183" lon="6.45418">
        <ele>258</ele>
        <time>2017-06-26T08:35:02Z</time>
      </trkpt>
      <trkpt lat="48.58184" lon="6.45424">
        <ele>258</ele>
        <time>2017-06-26T08:35:03Z</time>
      </trkpt>
      <trkpt lat="48.58185" lon="6.4543">
        <ele>258</ele>
        <time>2017-06-26T08:35:04Z</time>
      </trkpt>
      <trkpt lat="48.58185" lon="6.45436">
        <ele>258</ele>
        <time>2017-06-26T08:35:05Z</time>
      </trkpt>
      <trkpt lat="48.58186" lon="6.45442">
        <ele>258</ele>
        <time>2017-06-26T08:35:06Z</time>
      </trkpt>
      <trkpt lat="48.58187" lon="6.45447">
        <ele>258</ele>
        <time>2017-06-26T08:35:07Z</time>
      </trkpt>
      <trkpt lat="48.58187" lon="6.45453">
        <ele>258</ele>
        <time>2017-06-26T08:35:08Z</time>
      </trkpt>
      <trkpt lat="48.58187" lon="6.45458">
        <ele>258</ele>
        <time>2017-06-26T08:35:09Z</time>
      </trkpt>
      <trkpt lat="48.58188" lon="6.45463">
        <ele>258</ele>
        <time>2017-06-26T08:35:10Z</time>
      </trkpt>
      <trkpt lat="48.58189" lon="6.45467">
        <ele>258</ele>
        <time>2017-06-26T08:35:11Z</time>
      </trkpt>
      <trkpt lat="48.58189" lon="6.45471">
        <ele>258</ele>
        <time>2017-06-26T08:35:12Z</time>
      </trkpt>
      <trkpt lat="48.5819" lon="6.45475">
        <ele>258</ele>
        <time>2017-06-26T08:35:13Z</time>
      </trkpt>
      <trkpt lat="48.5819" lon="6.45479">
        <ele>258</ele>
        <time>2017-06-26T08:35:14Z</time>
      </trkpt>
      <trkpt lat="48.5819" lon="6.45483">
        <ele>258</ele>
        <time>2017-06-26T08:35:15Z</time>
      </trkpt>
      <trkpt lat="48.58191" lon="6.45487">
        <ele>257</ele>
        <time>2017-06-26T08:35:16Z</time>
      </trkpt>
      <trkpt lat="48.58192" lon="6.45491">
        <ele>257</ele>
        <time>2017-06-26T08:35:17Z</time>
      </trkpt>
      <trkpt lat="48.58192" lon="6.45495">
        <ele>257</ele>
        <time>2017-06-26T08:35:18Z</time>
      </trkpt>
      <trkpt lat="48.58192" lon="6.45499">
        <ele>257</ele>
        <time>2017-06-26T08:35:19Z</time>
      </trkpt>
      <trkpt lat="48.58193" lon="6.45504">
        <ele>257</ele>
        <time>2017-06-26T08:35:20Z</time>
      </trkpt>
      <trkpt lat="48.58194" lon="6.45508">
        <ele>256</ele>
        <time>2017-06-26T08:35:21Z</time>
      </trkpt>
      <trkpt lat="48.58195" lon="6.45513">
        <ele>256</ele>
        <time>2017-06-26T08:35:22Z</time>
      </trkpt>
      <trkpt lat="48.58196" lon="6.45518">
        <ele>256</ele>
        <time>2017-06-26T08:35:23Z</time>
      </trkpt>
      <trkpt lat="48.58197" lon="6.45523">
        <ele>256</ele>
        <time>2017-06-26T08:35:24Z</time>
      </trkpt>
      <trkpt lat="48.58198" lon="6.45528">
        <ele>256</ele>
        <time>2017-06-26T08:35:25Z</time>
      </trkpt>
      <trkpt lat="48.58198" lon="6.45532">
        <ele>256</ele>
        <time>2017-06-26T08:35:26Z</time>
      </trkpt>
      <trkpt lat="48.58199" lon="6.45537">
        <ele>256</ele>
        <time>2017-06-26T08:35:27Z</time>
      </trkpt>
      <trkpt lat="48.582" lon="6.45542">
        <ele>255</ele>
        <time>2017-06-26T08:35:28Z</time>
      </trkpt>
      <trkpt lat="48.58201" lon="6.45546">
        <ele>255</ele>
        <time>2017-06-26T08:35:29Z</time>
      </trkpt>
      <trkpt lat="48.58202" lon="6.45551">
        <ele>255</ele>
        <time>2017-06-26T08:35:30Z</time>
      </trkpt>
      <trkpt lat="48.58203" lon="6.45555">
        <ele>255</ele>
        <time>2017-06-26T08:35:31Z</time>
      </trkpt>
      <trkpt lat="48.58203" lon="6.45559">
        <ele>255</ele>
        <time>2017-06-26T08:35:32Z</time>
      </trkpt>
      <trkpt lat="48.58204" lon="6.45563">
        <ele>256</ele>
        <time>2017-06-26T08:35:33Z</time>
      </trkpt>
      <trkpt lat="48.58205" lon="6.45568">
        <ele>256</ele>
        <time>2017-06-26T08:35:34Z</time>
      </trkpt>
      <trkpt lat="48.58205" lon="6.45572">
        <ele>256</ele>
        <time>2017-06-26T08:35:35Z</time>
      </trkpt>
      <trkpt lat="48.58206" lon="6.45577">
        <ele>256</ele>
        <time>2017-06-26T08:35:36Z</time>
      </trkpt>
      <trkpt lat="48.58205" lon="6.45581">
        <ele>255</ele>
        <time>2017-06-26T08:35:37Z</time>
      </trkpt>
      <trkpt lat="48.58203" lon="6.45585">
        <ele>255</ele>
        <time>2017-06-26T08:35:38Z</time>
      </trkpt>
      <trkpt lat="48.58201" lon="6.45588">
        <ele>255</ele>
        <time>2017-06-26T08:35:39Z</time>
      </trkpt>
      <trkpt lat="48.58198" lon="6.45589">
        <ele>255</ele>
        <time>2017-06-26T08:35:40Z</time>
      </trkpt>
      <trkpt lat="48.58196" lon="6.45588">
        <ele>255</ele>
        <time>2017-06-26T08:35:41Z</time>
      </trkpt>
      <trkpt lat="48.58193" lon="6.45586">
        <ele>255</ele>
        <time>2017-06-26T08:35:42Z</time>
      </trkpt>
      <trkpt lat="48.5819" lon="6.45584">
        <ele>254</ele>
        <time>2017-06-26T08:35:43Z</time>
      </trkpt>
      <trkpt lat="48.58187" lon="6.45584">
        <ele>253</ele>
        <time>2017-06-26T08:35:44Z</time>
      </trkpt>
      <trkpt lat="48.58183" lon="6.45584">
        <ele>252</ele>
        <time>2017-06-26T08:35:45Z</time>
      </trkpt>
      <trkpt lat="48.58177" lon="6.45584">
        <ele>252</ele>
        <time>2017-06-26T08:35:46Z</time>
      </trkpt>
      <trkpt lat="48.58174" lon="6.45585">
        <ele>252</ele>
        <time>2017-06-26T08:35:47Z</time>
      </trkpt>
      <trkpt lat="48.58171" lon="6.45585">
        <ele>252</ele>
        <time>2017-06-26T08:35:48Z</time>
      </trkpt>
      <trkpt lat="48.58165" lon="6.45586">
        <ele>252</ele>
        <time>2017-06-26T08:35:49Z</time>
      </trkpt>
      <trkpt lat="48.58163" lon="6.45586">
        <ele>253</ele>
        <time>2017-06-26T08:35:50Z</time>
      </trkpt>
      <trkpt lat="48.5816" lon="6.45586">
        <ele>253</ele>
        <time>2017-06-26T08:35:51Z</time>
      </trkpt>
      <trkpt lat="48.58158" lon="6.45586">
        <ele>253</ele>
        <time>2017-06-26T08:35:52Z</time>
      </trkpt>
      <trkpt lat="48.58155" lon="6.45586">
        <ele>253</ele>
        <time>2017-06-26T08:35:53Z</time>
      </trkpt>
      <trkpt lat="48.58153" lon="6.4559">
        <ele>252</ele>
        <time>2017-06-26T08:35:54Z</time>
      </trkpt>
      <trkpt lat="48.58151" lon="6.45594">
        <ele>252</ele>
        <time>2017-06-26T08:35:55Z</time>
      </trkpt>
      <trkpt lat="48.58149" lon="6.45598">
        <ele>252</ele>
        <time>2017-06-26T08:35:56Z</time>
      </trkpt>
      <trkpt lat="48.58147" lon="6.45599">
        <ele>252</ele>
        <time>2017-06-26T08:35:57Z</time>
      </trkpt>
      <trkpt lat="48.58145" lon="6.456">
        <ele>252</ele>
        <time>2017-06-26T08:35:58Z</time>
      </trkpt>
      <trkpt lat="48.58144" lon="6.45601">
        <ele>252</ele>
        <time>2017-06-26T08:35:59Z</time>
      </trkpt>
      <trkpt lat="48.58139" lon="6.45604">
        <ele>251</ele>
        <time>2017-06-26T08:36:00Z</time>
      </trkpt>
      <trkpt lat="48.58137" lon="6.45607">
        <ele>251</ele>
        <time>2017-06-26T08:36:01Z</time>
      </trkpt>
      <trkpt lat="48.58135" lon="6.45609">
        <ele>251</ele>
        <time>2017-06-26T08:36:02Z</time>
      </trkpt>
      <trkpt lat="48.58133" lon="6.45611">
        <ele>250</ele>
        <time>2017-06-26T08:36:03Z</time>
      </trkpt>
      <trkpt lat="48.5813" lon="6.45613">
        <ele>250</ele>
        <time>2017-06-26T08:36:04Z</time>
      </trkpt>
      <trkpt lat="48.58128" lon="6.45615">
        <ele>250</ele>
        <time>2017-06-26T08:36:05Z</time>
      </trkpt>
      <trkpt lat="48.58125" lon="6.45617">
        <ele>251</ele>
        <time>2017-06-26T08:36:06Z</time>
      </trkpt>
      <trkpt lat="48.58122" lon="6.45618">
        <ele>251</ele>
        <time>2017-06-26T08:36:07Z</time>
      </trkpt>
      <trkpt lat="48.5812" lon="6.4562">
        <ele>251</ele>
        <time>2017-06-26T08:36:08Z</time>
      </trkpt>
      <trkpt lat="48.58118" lon="6.45621">
        <ele>251</ele>
        <time>2017-06-26T08:36:09Z</time>
      </trkpt>
      <trkpt lat="48.58117" lon="6.45621">
        <ele>251</ele>
        <time>2017-06-26T08:36:10Z</time>
      </trkpt>
      <trkpt lat="48.58115" lon="6.45623">
        <ele>251</ele>
        <time>2017-06-26T08:36:11Z</time>
      </trkpt>
      <trkpt lat="48.58113" lon="6.45624">
        <ele>250</ele>
        <time>2017-06-26T08:36:12Z</time>
      </trkpt>
      <trkpt lat="48.58111" lon="6.45625">
        <ele>250</ele>
        <time>2017-06-26T08:36:13Z</time>
      </trkpt>
      <trkpt lat="48.58108" lon="6.45626">
        <ele>250</ele>
        <time>2017-06-26T08:36:14Z</time>
      </trkpt>
      <trkpt lat="48.58106" lon="6.45629">
        <ele>250</ele>
        <time>2017-06-26T08:36:15Z</time>
      </trkpt>
      <trkpt lat="48.58103" lon="6.45632">
        <ele>250</ele>
        <time>2017-06-26T08:36:16Z</time>
      </trkpt>
      <trkpt lat="48.581" lon="6.45634">
        <ele>250</ele>
        <time>2017-06-26T08:36:17Z</time>
      </trkpt>
      <trkpt lat="48.58095" lon="6.45637">
        <ele>250</ele>
        <time>2017-06-26T08:36:18Z</time>
      </trkpt>
      <trkpt lat="48.5809" lon="6.4564">
        <ele>249</ele>
        <time>2017-06-26T08:36:19Z</time>
      </trkpt>
      <trkpt lat="48.58085" lon="6.45641">
        <ele>249</ele>
        <time>2017-06-26T08:36:20Z</time>
      </trkpt>
      <trkpt lat="48.5808" lon="6.45642">
        <ele>249</ele>
        <time>2017-06-26T08:36:21Z</time>
      </trkpt>
      <trkpt lat="48.58079" lon="6.45644">
        <ele>248</ele>
        <time>2017-06-26T08:36:22Z</time>
      </trkpt>
      <trkpt lat="48.58077" lon="6.45645">
        <ele>248</ele>
        <time>2017-06-26T08:36:23Z</time>
      </trkpt>
      <trkpt lat="48.58076" lon="6.45646">
        <ele>248</ele>
        <time>2017-06-26T08:36:24Z</time>
      </trkpt>
      <trkpt lat="48.58074" lon="6.45647">
        <ele>248</ele>
        <time>2017-06-26T08:36:25Z</time>
      </trkpt>
      <trkpt lat="48.58069" lon="6.45652">
        <ele>248</ele>
        <time>2017-06-26T08:36:26Z</time>
      </trkpt>
      <trkpt lat="48.58066" lon="6.45656">
        <ele>248</ele>
        <time>2017-06-26T08:36:27Z</time>
      </trkpt>
      <trkpt lat="48.58064" lon="6.45659">
        <ele>248</ele>
        <time>2017-06-26T08:36:28Z</time>
      </trkpt>
      <trkpt lat="48.58062" lon="6.45663">
        <ele>248</ele>
        <time>2017-06-26T08:36:29Z</time>
      </trkpt>
      <trkpt lat="48.58059" lon="6.45663">
        <ele>249</ele>
        <time>2017-06-26T08:36:30Z</time>
      </trkpt>
      <trkpt lat="48.58056" lon="6.45662">
        <ele>249</ele>
        <time>2017-06-26T08:36:31Z</time>
      </trkpt>
      <trkpt lat="48.58053" lon="6.45662">
        <ele>248</ele>
        <time>2017-06-26T08:36:32Z</time>
      </trkpt>
      <trkpt lat="48.58051" lon="6.45665">
        <ele>247</ele>
        <time>2017-06-26T08:36:33Z</time>
      </trkpt>
      <trkpt lat="48.58049" lon="6.45668">
        <ele>246</ele>
        <time>2017-06-26T08:36:34Z</time>
      </trkpt>
      <trkpt lat="48.58044" lon="6.45673">
        <ele>247</ele>
        <time>2017-06-26T08:36:35Z</time>
      </trkpt>
      <trkpt lat="48.58043" lon="6.45675">
        <ele>246</ele>
        <time>2017-06-26T08:36:36Z</time>
      </trkpt>
      <trkpt lat="48.58042" lon="6.45677">
        <ele>246</ele>
        <time>2017-06-26T08:36:37Z</time>
      </trkpt>
      <trkpt lat="48.5804" lon="6.45679">
        <ele>247</ele>
        <time>2017-06-26T08:36:38Z</time>
      </trkpt>
      <trkpt lat="48.58039" lon="6.4568">
        <ele>246</ele>
        <time>2017-06-26T08:36:39Z</time>
      </trkpt>
      <trkpt lat="48.58033" lon="6.45688">
        <ele>246</ele>
        <time>2017-06-26T08:36:40Z</time>
      </trkpt>
      <trkpt lat="48.58032" lon="6.45688">
        <ele>245</ele>
        <time>2017-06-26T08:36:41Z</time>
      </trkpt>
      <trkpt lat="48.58031" lon="6.45688">
        <ele>246</ele>
        <time>2017-06-26T08:36:42Z</time>
      </trkpt>
      <trkpt lat="48.58029" lon="6.45688">
        <ele>246</ele>
        <time>2017-06-26T08:36:43Z</time>
      </trkpt>
      <trkpt lat="48.58028" lon="6.45688">
        <ele>247</ele>
        <time>2017-06-26T08:36:44Z</time>
      </trkpt>
      <trkpt lat="48.58023" lon="6.45689">
        <ele>248</ele>
        <time>2017-06-26T08:36:45Z</time>
      </trkpt>
      <trkpt lat="48.58022" lon="6.4569">
        <ele>248</ele>
        <time>2017-06-26T08:36:46Z</time>
      </trkpt>
      <trkpt lat="48.5802" lon="6.45692">
        <ele>248</ele>
        <time>2017-06-26T08:36:47Z</time>
      </trkpt>
      <trkpt lat="48.58019" lon="6.45693">
        <ele>249</ele>
        <time>2017-06-26T08:36:48Z</time>
      </trkpt>
      <trkpt lat="48.58018" lon="6.45695">
        <ele>248</ele>
        <time>2017-06-26T08:36:49Z</time>
      </trkpt>
      <trkpt lat="48.58016" lon="6.45696">
        <ele>248</ele>
        <time>2017-06-26T08:36:50Z</time>
      </trkpt>
      <trkpt lat="48.58015" lon="6.45697">
        <ele>246</ele>
        <time>2017-06-26T08:36:51Z</time>
      </trkpt>
      <trkpt lat="48.5801" lon="6.45702">
        <ele>246</ele>
        <time>2017-06-26T08:36:52Z</time>
      </trkpt>
      <trkpt lat="48.58005" lon="6.45706">
        <ele>245</ele>
        <time>2017-06-26T08:36:53Z</time>
      </trkpt>
      <trkpt lat="48.57999" lon="6.45711">
        <ele>244</ele>
        <time>2017-06-26T08:36:54Z</time>
      </trkpt>
      <trkpt lat="48.57994" lon="6.45715">
        <ele>244</ele>
        <time>2017-06-26T08:36:55Z</time>
      </trkpt>
      <trkpt lat="48.57992" lon="6.45717">
        <ele>244</ele>
        <time>2017-06-26T08:36:56Z</time>
      </trkpt>
      <trkpt lat="48.5799" lon="6.45718">
        <ele>243</ele>
        <time>2017-06-26T08:36:57Z</time>
      </trkpt>
      <trkpt lat="48.57988" lon="6.45719">
        <ele>245</ele>
        <time>2017-06-26T08:36:58Z</time>
      </trkpt>
      <trkpt lat="48.57986" lon="6.4572">
        <ele>247</ele>
        <time>2017-06-26T08:36:59Z</time>
      </trkpt>
      <trkpt lat="48.57985" lon="6.45721">
        <ele>246</ele>
        <time>2017-06-26T08:37:00Z</time>
      </trkpt>
      <trkpt lat="48.57983" lon="6.45722">
        <ele>247</ele>
        <time>2017-06-26T08:37:01Z</time>
      </trkpt>
      <trkpt lat="48.57981" lon="6.45723">
        <ele>246</ele>
        <time>2017-06-26T08:37:02Z</time>
      </trkpt>
      <trkpt lat="48.57979" lon="6.45724">
        <ele>246</ele>
        <time>2017-06-26T08:37:03Z</time>
      </trkpt>
      <trkpt lat="48.57974" lon="6.45726">
        <ele>247</ele>
        <time>2017-06-26T08:37:04Z</time>
      </trkpt>
      <trkpt lat="48.57971" lon="6.45729">
        <ele>246</ele>
        <time>2017-06-26T08:37:05Z</time>
      </trkpt>
      <trkpt lat="48.57969" lon="6.45731">
        <ele>245</ele>
        <time>2017-06-26T08:37:06Z</time>
      </trkpt>
      <trkpt lat="48.57966" lon="6.45733">
        <ele>244</ele>
        <time>2017-06-26T08:37:07Z</time>
      </trkpt>
      <trkpt lat="48.57964" lon="6.45734">
        <ele>244</ele>
        <time>2017-06-26T08:37:08Z</time>
      </trkpt>
      <trkpt lat="48.57961" lon="6.45735">
        <ele>243</ele>
        <time>2017-06-26T08:37:09Z</time>
      </trkpt>
      <trkpt lat="48.57956" lon="6.45738">
        <ele>242</ele>
        <time>2017-06-26T08:37:10Z</time>
      </trkpt>
      <trkpt lat="48.57953" lon="6.45737">
        <ele>242</ele>
        <time>2017-06-26T08:37:11Z</time>
      </trkpt>
      <trkpt lat="48.5795" lon="6.45736">
        <ele>242</ele>
        <time>2017-06-26T08:37:12Z</time>
      </trkpt>
      <trkpt lat="48.57946" lon="6.45736">
        <ele>242</ele>
        <time>2017-06-26T08:37:13Z</time>
      </trkpt>
      <trkpt lat="48.57944" lon="6.45737">
        <ele>242</ele>
        <time>2017-06-26T08:37:14Z</time>
      </trkpt>
      <trkpt lat="48.57941" lon="6.45737">
        <ele>242</ele>
        <time>2017-06-26T08:37:15Z</time>
      </trkpt>
      <trkpt lat="48.57935" lon="6.45739">
        <ele>243</ele>
        <time>2017-06-26T08:37:16Z</time>
      </trkpt>
      <trkpt lat="48.57933" lon="6.45739">
        <ele>244</ele>
        <time>2017-06-26T08:37:17Z</time>
      </trkpt>
      <trkpt lat="48.5793" lon="6.45739">
        <ele>243</ele>
        <time>2017-06-26T08:37:18Z</time>
      </trkpt>
      <trkpt lat="48.57928" lon="6.45739">
        <ele>244</ele>
        <time>2017-06-26T08:37:19Z</time>
      </trkpt>
      <trkpt lat="48.57926" lon="6.45739">
        <ele>244</ele>
        <time>2017-06-26T08:37:20Z</time>
      </trkpt>
      <trkpt lat="48.57923" lon="6.45738">
        <ele>245</ele>
        <time>2017-06-26T08:37:21Z</time>
      </trkpt>
      <trkpt lat="48.5792" lon="6.45737">
        <ele>244</ele>
        <time>2017-06-26T08:37:22Z</time>
      </trkpt>
      <trkpt lat="48.57915" lon="6.45735">
        <ele>244</ele>
        <time>2017-06-26T08:37:23Z</time>
      </trkpt>
      <trkpt lat="48.57912" lon="6.45733">
        <ele>245</ele>
        <time>2017-06-26T08:37:24Z</time>
      </trkpt>
      <trkpt lat="48.5791" lon="6.4573">
        <ele>247</ele>
        <time>2017-06-26T08:37:25Z</time>
      </trkpt>
      <trkpt lat="48.57907" lon="6.45727">
        <ele>248</ele>
        <time>2017-06-26T08:37:26Z</time>
      </trkpt>
      <trkpt lat="48.57906" lon="6.45722">
        <ele>250</ele>
        <time>2017-06-26T08:37:27Z</time>
      </trkpt>
      <trkpt lat="48.57905" lon="6.45718">
        <ele>252</ele>
        <time>2017-06-26T08:37:28Z</time>
      </trkpt>
      <trkpt lat="48.57904" lon="6.45714">
        <ele>253</ele>
        <time>2017-06-26T08:37:29Z</time>
      </trkpt>
      <trkpt lat="48.57904" lon="6.45709">
        <ele>254</ele>
        <time>2017-06-26T08:37:30Z</time>
      </trkpt>
      <trkpt lat="48.57904" lon="6.45705">
        <ele>255</ele>
        <time>2017-06-26T08:37:31Z</time>
      </trkpt>
      <trkpt lat="48.57903" lon="6.45702">
        <ele>256</ele>
        <time>2017-06-26T08:37:32Z</time>
      </trkpt>
      <trkpt lat="48.57903" lon="6.45698">
        <ele>256</ele>
        <time>2017-06-26T08:37:33Z</time>
      </trkpt>
      <trkpt lat="48.57902" lon="6.45695">
        <ele>256</ele>
        <time>2017-06-26T08:37:34Z</time>
      </trkpt>
      <trkpt lat="48.57901" lon="6.45691">
        <ele>256</ele>
        <time>2017-06-26T08:37:35Z</time>
      </trkpt>
      <trkpt lat="48.57901" lon="6.45687">
        <ele>256</ele>
        <time>2017-06-26T08:37:36Z</time>
      </trkpt>
      <trkpt lat="48.57901" lon="6.45683">
        <ele>257</ele>
        <time>2017-06-26T08:37:37Z</time>
      </trkpt>
      <trkpt lat="48.579" lon="6.45679">
        <ele>257</ele>
        <time>2017-06-26T08:37:38Z</time>
      </trkpt>
      <trkpt lat="48.579" lon="6.45675">
        <ele>257</ele>
        <time>2017-06-26T08:37:39Z</time>
      </trkpt>
      <trkpt lat="48.57899" lon="6.45671">
        <ele>257</ele>
        <time>2017-06-26T08:37:40Z</time>
      </trkpt>
      <trkpt lat="48.57898" lon="6.45668">
        <ele>257</ele>
        <time>2017-06-26T08:37:41Z</time>
      </trkpt>
      <trkpt lat="48.57898" lon="6.45664">
        <ele>257</ele>
        <time>2017-06-26T08:37:42Z</time>
      </trkpt>
      <trkpt lat="48.57897" lon="6.4566">
        <ele>257</ele>
        <time>2017-06-26T08:37:43Z</time>
      </trkpt>
      <trkpt lat="48.57896" lon="6.45656">
        <ele>257</ele>
        <time>2017-06-26T08:37:44Z</time>
      </trkpt>
      <trkpt lat="48.57896" lon="6.45652">
        <ele>257</ele>
        <time>2017-06-26T08:37:45Z</time>
      </trkpt>
      <trkpt lat="48.57895" lon="6.45648">
        <ele>257</ele>
        <time>2017-06-26T08:37:46Z</time>
      </trkpt>
      <trkpt lat="48.57894" lon="6.45645">
        <ele>257</ele>
        <time>2017-06-26T08:37:47Z</time>
      </trkpt>
      <trkpt lat="48.57892" lon="6.45642">
        <ele>257</ele>
        <time>2017-06-26T08:37:48Z</time>
      </trkpt>
      <trkpt lat="48.57892" lon="6.45639">
        <ele>256</ele>
        <time>2017-06-26T08:37:49Z</time>
      </trkpt>
      <trkpt lat="48.57891" lon="6.45634">
        <ele>255</ele>
        <time>2017-06-26T08:37:50Z</time>
      </trkpt>
      <trkpt lat="48.57891" lon="6.4563">
        <ele>255</ele>
        <time>2017-06-26T08:37:51Z</time>
      </trkpt>
      <trkpt lat="48.5789" lon="6.4562">
        <ele>254</ele>
        <time>2017-06-26T08:37:52Z</time>
      </trkpt>
      <trkpt lat="48.57889" lon="6.45616">
        <ele>254</ele>
        <time>2017-06-26T08:37:53Z</time>
      </trkpt>
      <trkpt lat="48.57888" lon="6.45612">
        <ele>254</ele>
        <time>2017-06-26T08:37:54Z</time>
      </trkpt>
      <trkpt lat="48.57887" lon="6.45608">
        <ele>254</ele>
        <time>2017-06-26T08:37:55Z</time>
      </trkpt>
      <trkpt lat="48.57886" lon="6.45604">
        <ele>254</ele>
        <time>2017-06-26T08:37:56Z</time>
      </trkpt>
      <trkpt lat="48.57885" lon="6.456">
        <ele>254</ele>
        <time>2017-06-26T08:37:57Z</time>
      </trkpt>
      <trkpt lat="48.57883" lon="6.45597">
        <ele>254</ele>
        <time>2017-06-26T08:37:58Z</time>
      </trkpt>
      <trkpt lat="48.57882" lon="6.45593">
        <ele>255</ele>
        <time>2017-06-26T08:37:59Z</time>
      </trkpt>
      <trkpt lat="48.57882" lon="6.4559">
        <ele>255</ele>
        <time>2017-06-26T08:38:00Z</time>
      </trkpt>
      <trkpt lat="48.57881" lon="6.45587">
        <ele>256</ele>
        <time>2017-06-26T08:38:01Z</time>
      </trkpt>
      <trkpt lat="48.57881" lon="6.45584">
        <ele>256</ele>
        <time>2017-06-26T08:38:02Z</time>
      </trkpt>
      <trkpt lat="48.5788" lon="6.45581">
        <ele>256</ele>
        <time>2017-06-26T08:38:03Z</time>
      </trkpt>
      <trkpt lat="48.5788" lon="6.45579">
        <ele>256</ele>
        <time>2017-06-26T08:38:04Z</time>
      </trkpt>
      <trkpt lat="48.57879" lon="6.45576">
        <ele>256</ele>
        <time>2017-06-26T08:38:05Z</time>
      </trkpt>
      <trkpt lat="48.57877" lon="6.45574">
        <ele>256</ele>
        <time>2017-06-26T08:38:06Z</time>
      </trkpt>
      <trkpt lat="48.57876" lon="6.45572">
        <ele>257</ele>
        <time>2017-06-26T08:38:07Z</time>
      </trkpt>
      <trkpt lat="48.57873" lon="6.4557">
        <ele>257</ele>
        <time>2017-06-26T08:38:08Z</time>
      </trkpt>
      <trkpt lat="48.57871" lon="6.45568">
        <ele>257</ele>
        <time>2017-06-26T08:38:09Z</time>
      </trkpt>
      <trkpt lat="48.57869" lon="6.45566">
        <ele>257</ele>
        <time>2017-06-26T08:38:10Z</time>
      </trkpt>
      <trkpt lat="48.57867" lon="6.45563">
        <ele>258</ele>
        <time>2017-06-26T08:38:11Z</time>
      </trkpt>
      <trkpt lat="48.57865" lon="6.4556">
        <ele>258</ele>
        <time>2017-06-26T08:38:12Z</time>
      </trkpt>
      <trkpt lat="48.57864" lon="6.45557">
        <ele>258</ele>
        <time>2017-06-26T08:38:13Z</time>
      </trkpt>
      <trkpt lat="48.57863" lon="6.45554">
        <ele>258</ele>
        <time>2017-06-26T08:38:14Z</time>
      </trkpt>
      <trkpt lat="48.57862" lon="6.45551">
        <ele>258</ele>
        <time>2017-06-26T08:38:15Z</time>
      </trkpt>
      <trkpt lat="48.57859" lon="6.45544">
        <ele>259</ele>
        <time>2017-06-26T08:38:16Z</time>
      </trkpt>
      <trkpt lat="48.57856" lon="6.45537">
        <ele>259</ele>
        <time>2017-06-26T08:38:17Z</time>
      </trkpt>
      <trkpt lat="48.57854" lon="6.4553">
        <ele>260</ele>
        <time>2017-06-26T08:38:18Z</time>
      </trkpt>
      <trkpt lat="48.57852" lon="6.45524">
        <ele>260</ele>
        <time>2017-06-26T08:38:19Z</time>
      </trkpt>
      <trkpt lat="48.57852" lon="6.45521">
        <ele>261</ele>
        <time>2017-06-26T08:38:20Z</time>
      </trkpt>
      <trkpt lat="48.57851" lon="6.45519">
        <ele>262</ele>
        <time>2017-06-26T08:38:21Z</time>
      </trkpt>
      <trkpt lat="48.57851" lon="6.45516">
        <ele>262</ele>
        <time>2017-06-26T08:38:22Z</time>
      </trkpt>
      <trkpt lat="48.57851" lon="6.45514">
        <ele>262</ele>
        <time>2017-06-26T08:38:23Z</time>
      </trkpt>
      <trkpt lat="48.5785" lon="6.45511">
        <ele>262</ele>
        <time>2017-06-26T08:38:24Z</time>
      </trkpt>
      <trkpt lat="48.5785" lon="6.45509">
        <ele>263</ele>
        <time>2017-06-26T08:38:25Z</time>
      </trkpt>
      <trkpt lat="48.57852" lon="6.45506">
        <ele>263</ele>
        <time>2017-06-26T08:38:26Z</time>
      </trkpt>
      <trkpt lat="48.57853" lon="6.45504">
        <ele>263</ele>
        <time>2017-06-26T08:38:27Z</time>
      </trkpt>
      <trkpt lat="48.57855" lon="6.45501">
        <ele>264</ele>
        <time>2017-06-26T08:38:28Z</time>
      </trkpt>
      <trkpt lat="48.57857" lon="6.45498">
        <ele>264</ele>
        <time>2017-06-26T08:38:29Z</time>
      </trkpt>
      <trkpt lat="48.57858" lon="6.45494">
        <ele>264</ele>
        <time>2017-06-26T08:38:30Z</time>
      </trkpt>
      <trkpt lat="48.57859" lon="6.4549">
        <ele>264</ele>
        <time>2017-06-26T08:38:31Z</time>
      </trkpt>
      <trkpt lat="48.57859" lon="6.45486">
        <ele>265</ele>
        <time>2017-06-26T08:38:32Z</time>
      </trkpt>
      <trkpt lat="48.5786" lon="6.45482">
        <ele>265</ele>
        <time>2017-06-26T08:38:33Z</time>
      </trkpt>
      <trkpt lat="48.57862" lon="6.45478">
        <ele>265</ele>
        <time>2017-06-26T08:38:34Z</time>
      </trkpt>
      <trkpt lat="48.57862" lon="6.45474">
        <ele>265</ele>
        <time>2017-06-26T08:38:35Z</time>
      </trkpt>
      <trkpt lat="48.57863" lon="6.45471">
        <ele>265</ele>
        <time>2017-06-26T08:38:36Z</time>
      </trkpt>
      <trkpt lat="48.57863" lon="6.45469">
        <ele>265</ele>
        <time>2017-06-26T08:38:37Z</time>
      </trkpt>
      <trkpt lat="48.57864" lon="6.45466">
        <ele>265</ele>
        <time>2017-06-26T08:38:38Z</time>
      </trkpt>
      <trkpt lat="48.57865" lon="6.45463">
        <ele>266</ele>
        <time>2017-06-26T08:38:39Z</time>
      </trkpt>
      <trkpt lat="48.57866" lon="6.4546">
        <ele>266</ele>
        <time>2017-06-26T08:38:40Z</time>
      </trkpt>
      <trkpt lat="48.57867" lon="6.45457">
        <ele>266</ele>
        <time>2017-06-26T08:38:41Z</time>
      </trkpt>
      <trkpt lat="48.57869" lon="6.45453">
        <ele>266</ele>
        <time>2017-06-26T08:38:42Z</time>
      </trkpt>
      <trkpt lat="48.5787" lon="6.4545">
        <ele>266</ele>
        <time>2017-06-26T08:38:43Z</time>
      </trkpt>
      <trkpt lat="48.57872" lon="6.45446">
        <ele>266</ele>
        <time>2017-06-26T08:38:44Z</time>
      </trkpt>
      <trkpt lat="48.57873" lon="6.45442">
        <ele>266</ele>
        <time>2017-06-26T08:38:45Z</time>
      </trkpt>
      <trkpt lat="48.57874" lon="6.45437">
        <ele>266</ele>
        <time>2017-06-26T08:38:46Z</time>
      </trkpt>
      <trkpt lat="48.57875" lon="6.45433">
        <ele>266</ele>
        <time>2017-06-26T08:38:47Z</time>
      </trkpt>
      <trkpt lat="48.57875" lon="6.45429">
        <ele>267</ele>
        <time>2017-06-26T08:38:48Z</time>
      </trkpt>
      <trkpt lat="48.57876" lon="6.45426">
        <ele>267</ele>
        <time>2017-06-26T08:38:49Z</time>
      </trkpt>
      <trkpt lat="48.57877" lon="6.45422">
        <ele>267</ele>
        <time>2017-06-26T08:38:50Z</time>
      </trkpt>
      <trkpt lat="48.57878" lon="6.45419">
        <ele>267</ele>
        <time>2017-06-26T08:38:51Z</time>
      </trkpt>
      <trkpt lat="48.5788" lon="6.45416">
        <ele>267</ele>
        <time>2017-06-26T08:38:52Z</time>
      </trkpt>
      <trkpt lat="48.57882" lon="6.45414">
        <ele>267</ele>
        <time>2017-06-26T08:38:53Z</time>
      </trkpt>
      <trkpt lat="48.57884" lon="6.45411">
        <ele>267</ele>
        <time>2017-06-26T08:38:54Z</time>
      </trkpt>
      <trkpt lat="48.57885" lon="6.45408">
        <ele>267</ele>
        <time>2017-06-26T08:38:55Z</time>
      </trkpt>
      <trkpt lat="48.57887" lon="6.45405">
        <ele>267</ele>
        <time>2017-06-26T08:38:56Z</time>
      </trkpt>
      <trkpt lat="48.57889" lon="6.45403">
        <ele>267</ele>
        <time>2017-06-26T08:38:57Z</time>
      </trkpt>
      <trkpt lat="48.5789" lon="6.45401">
        <ele>267</ele>
        <time>2017-06-26T08:38:58Z</time>
      </trkpt>
      <trkpt lat="48.57892" lon="6.454">
        <ele>267</ele>
        <time>2017-06-26T08:38:59Z</time>
      </trkpt>
      <trkpt lat="48.57894" lon="6.45398">
        <ele>267</ele>
        <time>2017-06-26T08:39:00Z</time>
      </trkpt>
      <trkpt lat="48.57896" lon="6.45396">
        <ele>267</ele>
        <time>2017-06-26T08:39:01Z</time>
      </trkpt>
      <trkpt lat="48.57898" lon="6.45394">
        <ele>267</ele>
        <time>2017-06-26T08:39:02Z</time>
      </trkpt>
      <trkpt lat="48.57901" lon="6.45392">
        <ele>267</ele>
        <time>2017-06-26T08:39:03Z</time>
      </trkpt>
      <trkpt lat="48.57903" lon="6.4539">
        <ele>267</ele>
        <time>2017-06-26T08:39:04Z</time>
      </trkpt>
      <trkpt lat="48.57905" lon="6.45389">
        <ele>267</ele>
        <time>2017-06-26T08:39:05Z</time>
      </trkpt>
      <trkpt lat="48.57907" lon="6.45386">
        <ele>267</ele>
        <time>2017-06-26T08:39:06Z</time>
      </trkpt>
      <trkpt lat="48.5791" lon="6.45383">
        <ele>267</ele>
        <time>2017-06-26T08:39:07Z</time>
      </trkpt>
      <trkpt lat="48.57912" lon="6.45381">
        <ele>267</ele>
        <time>2017-06-26T08:39:08Z</time>
      </trkpt>
      <trkpt lat="48.57914" lon="6.45378">
        <ele>267</ele>
        <time>2017-06-26T08:39:09Z</time>
      </trkpt>
      <trkpt lat="48.57915" lon="6.45375">
        <ele>267</ele>
        <time>2017-06-26T08:39:10Z</time>
      </trkpt>
      <trkpt lat="48.57917" lon="6.45372">
        <ele>267</ele>
        <time>2017-06-26T08:39:11Z</time>
      </trkpt>
      <trkpt lat="48.57919" lon="6.45369">
        <ele>267</ele>
        <time>2017-06-26T08:39:12Z</time>
      </trkpt>
      <trkpt lat="48.57921" lon="6.45366">
        <ele>267</ele>
        <time>2017-06-26T08:39:13Z</time>
      </trkpt>
      <trkpt lat="48.57922" lon="6.45363">
        <ele>268</ele>
        <time>2017-06-26T08:39:14Z</time>
      </trkpt>
      <trkpt lat="48.57923" lon="6.45361">
        <ele>268</ele>
        <time>2017-06-26T08:39:15Z</time>
      </trkpt>
      <trkpt lat="48.57925" lon="6.45359">
        <ele>268</ele>
        <time>2017-06-26T08:39:16Z</time>
      </trkpt>
      <trkpt lat="48.57927" lon="6.45356">
        <ele>268</ele>
        <time>2017-06-26T08:39:17Z</time>
      </trkpt>
      <trkpt lat="48.57928" lon="6.45352">
        <ele>268</ele>
        <time>2017-06-26T08:39:18Z</time>
      </trkpt>
      <trkpt lat="48.57929" lon="6.4535">
        <ele>269</ele>
        <time>2017-06-26T08:39:19Z</time>
      </trkpt>
      <trkpt lat="48.5793" lon="6.45347">
        <ele>269</ele>
        <time>2017-06-26T08:39:20Z</time>
      </trkpt>
      <trkpt lat="48.57932" lon="6.45344">
        <ele>269</ele>
        <time>2017-06-26T08:39:21Z</time>
      </trkpt>
      <trkpt lat="48.57934" lon="6.45342">
        <ele>269</ele>
        <time>2017-06-26T08:39:22Z</time>
      </trkpt>
      <trkpt lat="48.57935" lon="6.45339">
        <ele>269</ele>
        <time>2017-06-26T08:39:23Z</time>
      </trkpt>
      <trkpt lat="48.57937" lon="6.45336">
        <ele>269</ele>
        <time>2017-06-26T08:39:24Z</time>
      </trkpt>
      <trkpt lat="48.57939" lon="6.45333">
        <ele>270</ele>
        <time>2017-06-26T08:39:25Z</time>
      </trkpt>
      <trkpt lat="48.57941" lon="6.45331">
        <ele>270</ele>
        <time>2017-06-26T08:39:26Z</time>
      </trkpt>
      <trkpt lat="48.57941" lon="6.45327">
        <ele>271</ele>
        <time>2017-06-26T08:39:28Z</time>
      </trkpt>
      <trkpt lat="48.57939" lon="6.45324">
        <ele>272</ele>
        <time>2017-06-26T08:39:30Z</time>
      </trkpt>
      <trkpt lat="48.57937" lon="6.45321">
        <ele>272</ele>
        <time>2017-06-26T08:39:32Z</time>
      </trkpt>
      <trkpt lat="48.57935" lon="6.45319">
        <ele>272</ele>
        <time>2017-06-26T08:39:33Z</time>
      </trkpt>
      <trkpt lat="48.57933" lon="6.45318">
        <ele>272</ele>
        <time>2017-06-26T08:39:34Z</time>
      </trkpt>
      <trkpt lat="48.57931" lon="6.45316">
        <ele>273</ele>
        <time>2017-06-26T08:39:35Z</time>
      </trkpt>
      <trkpt lat="48.5793" lon="6.45314">
        <ele>273</ele>
        <time>2017-06-26T08:39:36Z</time>
      </trkpt>
      <trkpt lat="48.57927" lon="6.45311">
        <ele>273</ele>
        <time>2017-06-26T08:39:37Z</time>
      </trkpt>
      <trkpt lat="48.57925" lon="6.45308">
        <ele>273</ele>
        <time>2017-06-26T08:39:38Z</time>
      </trkpt>
      <trkpt lat="48.57924" lon="6.45305">
        <ele>273</ele>
        <time>2017-06-26T08:39:39Z</time>
      </trkpt>
      <trkpt lat="48.57922" lon="6.45303">
        <ele>274</ele>
        <time>2017-06-26T08:39:40Z</time>
      </trkpt>
      <trkpt lat="48.5792" lon="6.45301">
        <ele>274</ele>
        <time>2017-06-26T08:39:41Z</time>
      </trkpt>
      <trkpt lat="48.57918" lon="6.45298">
        <ele>274</ele>
        <time>2017-06-26T08:39:42Z</time>
      </trkpt>
      <trkpt lat="48.57916" lon="6.45294">
        <ele>274</ele>
        <time>2017-06-26T08:39:43Z</time>
      </trkpt>
      <trkpt lat="48.57914" lon="6.45291">
        <ele>274</ele>
        <time>2017-06-26T08:39:44Z</time>
      </trkpt>
      <trkpt lat="48.57912" lon="6.45288">
        <ele>274</ele>
        <time>2017-06-26T08:39:45Z</time>
      </trkpt>
      <trkpt lat="48.5791" lon="6.45286">
        <ele>274</ele>
        <time>2017-06-26T08:39:46Z</time>
      </trkpt>
      <trkpt lat="48.57909" lon="6.45283">
        <ele>275</ele>
        <time>2017-06-26T08:39:47Z</time>
      </trkpt>
      <trkpt lat="48.57907" lon="6.45281">
        <ele>275</ele>
        <time>2017-06-26T08:39:48Z</time>
      </trkpt>
      <trkpt lat="48.57905" lon="6.45278">
        <ele>276</ele>
        <time>2017-06-26T08:39:49Z</time>
      </trkpt>
      <trkpt lat="48.57903" lon="6.45275">
        <ele>276</ele>
        <time>2017-06-26T08:39:50Z</time>
      </trkpt>
      <trkpt lat="48.57901" lon="6.45273">
        <ele>276</ele>
        <time>2017-06-26T08:39:51Z</time>
      </trkpt>
      <trkpt lat="48.579" lon="6.4527">
        <ele>276</ele>
        <time>2017-06-26T08:39:52Z</time>
      </trkpt>
      <trkpt lat="48.57898" lon="6.45267">
        <ele>276</ele>
        <time>2017-06-26T08:39:53Z</time>
      </trkpt>
      <trkpt lat="48.57896" lon="6.45264">
        <ele>277</ele>
        <time>2017-06-26T08:39:54Z</time>
      </trkpt>
      <trkpt lat="48.57894" lon="6.45261">
        <ele>277</ele>
        <time>2017-06-26T08:39:55Z</time>
      </trkpt>
      <trkpt lat="48.57892" lon="6.45259">
        <ele>277</ele>
        <time>2017-06-26T08:39:56Z</time>
      </trkpt>
      <trkpt lat="48.5789" lon="6.45257">
        <ele>277</ele>
        <time>2017-06-26T08:39:57Z</time>
      </trkpt>
      <trkpt lat="48.57888" lon="6.45255">
        <ele>277</ele>
        <time>2017-06-26T08:39:58Z</time>
      </trkpt>
      <trkpt lat="48.57886" lon="6.45253">
        <ele>277</ele>
        <time>2017-06-26T08:39:59Z</time>
      </trkpt>
      <trkpt lat="48.57884" lon="6.45251">
        <ele>277</ele>
        <time>2017-06-26T08:40:00Z</time>
      </trkpt>
      <trkpt lat="48.57882" lon="6.45248">
        <ele>277</ele>
        <time>2017-06-26T08:40:01Z</time>
      </trkpt>
      <trkpt lat="48.57881" lon="6.45246">
        <ele>277</ele>
        <time>2017-06-26T08:40:02Z</time>
      </trkpt>
      <trkpt lat="48.57878" lon="6.45244">
        <ele>277</ele>
        <time>2017-06-26T08:40:03Z</time>
      </trkpt>
      <trkpt lat="48.57876" lon="6.45242">
        <ele>277</ele>
        <time>2017-06-26T08:40:04Z</time>
      </trkpt>
      <trkpt lat="48.57874" lon="6.45239">
        <ele>277</ele>
        <time>2017-06-26T08:40:05Z</time>
      </trkpt>
      <trkpt lat="48.57872" lon="6.45237">
        <ele>277</ele>
        <time>2017-06-26T08:40:06Z</time>
      </trkpt>
      <trkpt lat="48.5787" lon="6.45234">
        <ele>277</ele>
        <time>2017-06-26T08:40:07Z</time>
      </trkpt>
      <trkpt lat="48.57868" lon="6.45232">
        <ele>277</ele>
        <time>2017-06-26T08:40:08Z</time>
      </trkpt>
      <trkpt lat="48.57866" lon="6.45229">
        <ele>278</ele>
        <time>2017-06-26T08:40:09Z</time>
      </trkpt>
      <trkpt lat="48.57864" lon="6.45227">
        <ele>278</ele>
        <time>2017-06-26T08:40:10Z</time>
      </trkpt>
      <trkpt lat="48.57862" lon="6.45224">
        <ele>278</ele>
        <time>2017-06-26T08:40:11Z</time>
      </trkpt>
      <trkpt lat="48.57861" lon="6.45222">
        <ele>278</ele>
        <time>2017-06-26T08:40:12Z</time>
      </trkpt>
      <trkpt lat="48.57859" lon="6.4522">
        <ele>278</ele>
        <time>2017-06-26T08:40:13Z</time>
      </trkpt>
      <trkpt lat="48.57857" lon="6.45218">
        <ele>278</ele>
        <time>2017-06-26T08:40:14Z</time>
      </trkpt>
      <trkpt lat="48.57855" lon="6.45216">
        <ele>278</ele>
        <time>2017-06-26T08:40:15Z</time>
      </trkpt>
      <trkpt lat="48.57852" lon="6.45214">
        <ele>278</ele>
        <time>2017-06-26T08:40:16Z</time>
      </trkpt>
      <trkpt lat="48.5785" lon="6.45212">
        <ele>278</ele>
        <time>2017-06-26T08:40:17Z</time>
      </trkpt>
      <trkpt lat="48.57847" lon="6.4521">
        <ele>278</ele>
        <time>2017-06-26T08:40:18Z</time>
      </trkpt>
      <trkpt lat="48.57845" lon="6.45208">
        <ele>278</ele>
        <time>2017-06-26T08:40:19Z</time>
      </trkpt>
      <trkpt lat="48.57843" lon="6.45205">
        <ele>278</ele>
        <time>2017-06-26T08:40:20Z</time>
      </trkpt>
      <trkpt lat="48.57841" lon="6.45203">
        <ele>278</ele>
        <time>2017-06-26T08:40:21Z</time>
      </trkpt>
      <trkpt lat="48.57839" lon="6.45201">
        <ele>278</ele>
        <time>2017-06-26T08:40:22Z</time>
      </trkpt>
      <trkpt lat="48.57837" lon="6.45198">
        <ele>278</ele>
        <time>2017-06-26T08:40:23Z</time>
      </trkpt>
      <trkpt lat="48.57835" lon="6.45196">
        <ele>278</ele>
        <time>2017-06-26T08:40:24Z</time>
      </trkpt>
      <trkpt lat="48.57833" lon="6.45193">
        <ele>279</ele>
        <time>2017-06-26T08:40:25Z</time>
      </trkpt>
      <trkpt lat="48.57832" lon="6.4519">
        <ele>279</ele>
        <time>2017-06-26T08:40:26Z</time>
      </trkpt>
      <trkpt lat="48.5783" lon="6.45187">
        <ele>279</ele>
        <time>2017-06-26T08:40:27Z</time>
      </trkpt>
      <trkpt lat="48.57827" lon="6.45184">
        <ele>279</ele>
        <time>2017-06-26T08:40:28Z</time>
      </trkpt>
      <trkpt lat="48.57825" lon="6.45181">
        <ele>279</ele>
        <time>2017-06-26T08:40:29Z</time>
      </trkpt>
      <trkpt lat="48.57823" lon="6.45179">
        <ele>279</ele>
        <time>2017-06-26T08:40:30Z</time>
      </trkpt>
      <trkpt lat="48.57821" lon="6.45176">
        <ele>279</ele>
        <time>2017-06-26T08:40:31Z</time>
      </trkpt>
      <trkpt lat="48.5782" lon="6.45173">
        <ele>279</ele>
        <time>2017-06-26T08:40:32Z</time>
      </trkpt>
      <trkpt lat="48.57818" lon="6.4517">
        <ele>279</ele>
        <time>2017-06-26T08:40:33Z</time>
      </trkpt>
      <trkpt lat="48.57816" lon="6.45167">
        <ele>279</ele>
        <time>2017-06-26T08:40:34Z</time>
      </trkpt>
      <trkpt lat="48.57814" lon="6.45165">
        <ele>279</ele>
        <time>2017-06-26T08:40:35Z</time>
      </trkpt>
      <trkpt lat="48.57811" lon="6.45162">
        <ele>279</ele>
        <time>2017-06-26T08:40:36Z</time>
      </trkpt>
      <trkpt lat="48.57809" lon="6.45159">
        <ele>279</ele>
        <time>2017-06-26T08:40:37Z</time>
      </trkpt>
      <trkpt lat="48.57807" lon="6.45157">
        <ele>279</ele>
        <time>2017-06-26T08:40:38Z</time>
      </trkpt>
      <trkpt lat="48.57805" lon="6.45154">
        <ele>280</ele>
        <time>2017-06-26T08:40:39Z</time>
      </trkpt>
      <trkpt lat="48.57803" lon="6.45152">
        <ele>280</ele>
        <time>2017-06-26T08:40:40Z</time>
      </trkpt>
      <trkpt lat="48.57801" lon="6.4515">
        <ele>280</ele>
        <time>2017-06-26T08:40:41Z</time>
      </trkpt>
      <trkpt lat="48.578" lon="6.45146">
        <ele>280</ele>
        <time>2017-06-26T08:40:42Z</time>
      </trkpt>
      <trkpt lat="48.57798" lon="6.45142">
        <ele>280</ele>
        <time>2017-06-26T08:40:43Z</time>
      </trkpt>
      <trkpt lat="48.57795" lon="6.45135">
        <ele>281</ele>
        <time>2017-06-26T08:40:44Z</time>
      </trkpt>
      <trkpt lat="48.57792" lon="6.45132">
        <ele>281</ele>
        <time>2017-06-26T08:40:45Z</time>
      </trkpt>
      <trkpt lat="48.5779" lon="6.45129">
        <ele>281</ele>
        <time>2017-06-26T08:40:46Z</time>
      </trkpt>
      <trkpt lat="48.57787" lon="6.45126">
        <ele>281</ele>
        <time>2017-06-26T08:40:47Z</time>
      </trkpt>
      <trkpt lat="48.57784" lon="6.45124">
        <ele>281</ele>
        <time>2017-06-26T08:40:48Z</time>
      </trkpt>
      <trkpt lat="48.57782" lon="6.45121">
        <ele>281</ele>
        <time>2017-06-26T08:40:49Z</time>
      </trkpt>
      <trkpt lat="48.5778" lon="6.45118">
        <ele>281</ele>
        <time>2017-06-26T08:40:50Z</time>
      </trkpt>
      <trkpt lat="48.57778" lon="6.45116">
        <ele>281</ele>
        <time>2017-06-26T08:40:51Z</time>
      </trkpt>
      <trkpt lat="48.57776" lon="6.45114">
        <ele>282</ele>
        <time>2017-06-26T08:40:52Z</time>
      </trkpt>
      <trkpt lat="48.57774" lon="6.45111">
        <ele>282</ele>
        <time>2017-06-26T08:40:53Z</time>
      </trkpt>
      <trkpt lat="48.57772" lon="6.45108">
        <ele>282</ele>
        <time>2017-06-26T08:40:54Z</time>
      </trkpt>
      <trkpt lat="48.5777" lon="6.45105">
        <ele>282</ele>
        <time>2017-06-26T08:40:55Z</time>
      </trkpt>
      <trkpt lat="48.57769" lon="6.45102">
        <ele>282</ele>
        <time>2017-06-26T08:40:56Z</time>
      </trkpt>
      <trkpt lat="48.57766" lon="6.45099">
        <ele>282</ele>
        <time>2017-06-26T08:40:57Z</time>
      </trkpt>
      <trkpt lat="48.57764" lon="6.45097">
        <ele>282</ele>
        <time>2017-06-26T08:40:58Z</time>
      </trkpt>
      <trkpt lat="48.57762" lon="6.45094">
        <ele>282</ele>
        <time>2017-06-26T08:40:59Z</time>
      </trkpt>
      <trkpt lat="48.5776" lon="6.45091">
        <ele>282</ele>
        <time>2017-06-26T08:41:00Z</time>
      </trkpt>
      <trkpt lat="48.57759" lon="6.45088">
        <ele>282</ele>
        <time>2017-06-26T08:41:01Z</time>
      </trkpt>
      <trkpt lat="48.57757" lon="6.45086">
        <ele>282</ele>
        <time>2017-06-26T08:41:02Z</time>
      </trkpt>
      <trkpt lat="48.57755" lon="6.45083">
        <ele>281</ele>
        <time>2017-06-26T08:41:03Z</time>
      </trkpt>
      <trkpt lat="48.57753" lon="6.45081">
        <ele>281</ele>
        <time>2017-06-26T08:41:04Z</time>
      </trkpt>
      <trkpt lat="48.57751" lon="6.45078">
        <ele>282</ele>
        <time>2017-06-26T08:41:05Z</time>
      </trkpt>
      <trkpt lat="48.57749" lon="6.45076">
        <ele>282</ele>
        <time>2017-06-26T08:41:06Z</time>
      </trkpt>
      <trkpt lat="48.57747" lon="6.45074">
        <ele>282</ele>
        <time>2017-06-26T08:41:07Z</time>
      </trkpt>
      <trkpt lat="48.57745" lon="6.45072">
        <ele>282</ele>
        <time>2017-06-26T08:41:08Z</time>
      </trkpt>
      <trkpt lat="48.57743" lon="6.4507">
        <ele>282</ele>
        <time>2017-06-26T08:41:09Z</time>
      </trkpt>
      <trkpt lat="48.57741" lon="6.45068">
        <ele>282</ele>
        <time>2017-06-26T08:41:10Z</time>
      </trkpt>
      <trkpt lat="48.57739" lon="6.45064">
        <ele>282</ele>
        <time>2017-06-26T08:41:11Z</time>
      </trkpt>
      <trkpt lat="48.57737" lon="6.4506">
        <ele>282</ele>
        <time>2017-06-26T08:41:12Z</time>
      </trkpt>
      <trkpt lat="48.57735" lon="6.45057">
        <ele>282</ele>
        <time>2017-06-26T08:41:13Z</time>
      </trkpt>
      <trkpt lat="48.57733" lon="6.45055">
        <ele>283</ele>
        <time>2017-06-26T08:41:14Z</time>
      </trkpt>
      <trkpt lat="48.57731" lon="6.45053">
        <ele>283</ele>
        <time>2017-06-26T08:41:15Z</time>
      </trkpt>
      <trkpt lat="48.57729" lon="6.45051">
        <ele>283</ele>
        <time>2017-06-26T08:41:16Z</time>
      </trkpt>
      <trkpt lat="48.57727" lon="6.45047">
        <ele>283</ele>
        <time>2017-06-26T08:41:17Z</time>
      </trkpt>
      <trkpt lat="48.57725" lon="6.45043">
        <ele>283</ele>
        <time>2017-06-26T08:41:18Z</time>
      </trkpt>
      <trkpt lat="48.57723" lon="6.4504">
        <ele>284</ele>
        <time>2017-06-26T08:41:19Z</time>
      </trkpt>
      <trkpt lat="48.57722" lon="6.45037">
        <ele>284</ele>
        <time>2017-06-26T08:41:20Z</time>
      </trkpt>
      <trkpt lat="48.57719" lon="6.45034">
        <ele>285</ele>
        <time>2017-06-26T08:41:21Z</time>
      </trkpt>
      <trkpt lat="48.57717" lon="6.4503">
        <ele>285</ele>
        <time>2017-06-26T08:41:22Z</time>
      </trkpt>
      <trkpt lat="48.57715" lon="6.45027">
        <ele>285</ele>
        <time>2017-06-26T08:41:23Z</time>
      </trkpt>
      <trkpt lat="48.57712" lon="6.45024">
        <ele>285</ele>
        <time>2017-06-26T08:41:24Z</time>
      </trkpt>
      <trkpt lat="48.5771" lon="6.45021">
        <ele>285</ele>
        <time>2017-06-26T08:41:25Z</time>
      </trkpt>
      <trkpt lat="48.57708" lon="6.45018">
        <ele>285</ele>
        <time>2017-06-26T08:41:26Z</time>
      </trkpt>
      <trkpt lat="48.57706" lon="6.45016">
        <ele>286</ele>
        <time>2017-06-26T08:41:27Z</time>
      </trkpt>
      <trkpt lat="48.57704" lon="6.45013">
        <ele>286</ele>
        <time>2017-06-26T08:41:28Z</time>
      </trkpt>
      <trkpt lat="48.57702" lon="6.45011">
        <ele>286</ele>
        <time>2017-06-26T08:41:29Z</time>
      </trkpt>
      <trkpt lat="48.577" lon="6.45009">
        <ele>286</ele>
        <time>2017-06-26T08:41:30Z</time>
      </trkpt>
      <trkpt lat="48.57698" lon="6.45007">
        <ele>286</ele>
        <time>2017-06-26T08:41:31Z</time>
      </trkpt>
      <trkpt lat="48.57696" lon="6.45005">
        <ele>285</ele>
        <time>2017-06-26T08:41:32Z</time>
      </trkpt>
      <trkpt lat="48.57694" lon="6.45003">
        <ele>285</ele>
        <time>2017-06-26T08:41:33Z</time>
      </trkpt>
      <trkpt lat="48.57692" lon="6.45001">
        <ele>286</ele>
        <time>2017-06-26T08:41:34Z</time>
      </trkpt>
      <trkpt lat="48.5769" lon="6.44999">
        <ele>286</ele>
        <time>2017-06-26T08:41:35Z</time>
      </trkpt>
      <trkpt lat="48.57688" lon="6.44996">
        <ele>286</ele>
        <time>2017-06-26T08:41:36Z</time>
      </trkpt>
      <trkpt lat="48.57685" lon="6.44993">
        <ele>286</ele>
        <time>2017-06-26T08:41:37Z</time>
      </trkpt>
      <trkpt lat="48.57683" lon="6.44991">
        <ele>286</ele>
        <time>2017-06-26T08:41:38Z</time>
      </trkpt>
      <trkpt lat="48.5768" lon="6.44989">
        <ele>286</ele>
        <time>2017-06-26T08:41:39Z</time>
      </trkpt>
      <trkpt lat="48.57678" lon="6.44987">
        <ele>286</ele>
        <time>2017-06-26T08:41:40Z</time>
      </trkpt>
      <trkpt lat="48.57676" lon="6.44985">
        <ele>286</ele>
        <time>2017-06-26T08:41:41Z</time>
      </trkpt>
      <trkpt lat="48.57674" lon="6.44982">
        <ele>287</ele>
        <time>2017-06-26T08:41:42Z</time>
      </trkpt>
      <trkpt lat="48.57671" lon="6.4498">
        <ele>287</ele>
        <time>2017-06-26T08:41:43Z</time>
      </trkpt>
      <trkpt lat="48.57669" lon="6.44978">
        <ele>287</ele>
        <time>2017-06-26T08:41:44Z</time>
      </trkpt>
      <trkpt lat="48.57667" lon="6.44976">
        <ele>287</ele>
        <time>2017-06-26T08:41:45Z</time>
      </trkpt>
      <trkpt lat="48.57665" lon="6.44974">
        <ele>287</ele>
        <time>2017-06-26T08:41:46Z</time>
      </trkpt>
      <trkpt lat="48.57662" lon="6.44971">
        <ele>287</ele>
        <time>2017-06-26T08:41:47Z</time>
      </trkpt>
      <trkpt lat="48.5766" lon="6.44969">
        <ele>287</ele>
        <time>2017-06-26T08:41:48Z</time>
      </trkpt>
      <trkpt lat="48.57658" lon="6.44967">
        <ele>287</ele>
        <time>2017-06-26T08:41:49Z</time>
      </trkpt>
      <trkpt lat="48.57656" lon="6.44964">
        <ele>287</ele>
        <time>2017-06-26T08:41:50Z</time>
      </trkpt>
      <trkpt lat="48.57654" lon="6.44962">
        <ele>287</ele>
        <time>2017-06-26T08:41:51Z</time>
      </trkpt>
      <trkpt lat="48.57651" lon="6.4496">
        <ele>287</ele>
        <time>2017-06-26T08:41:52Z</time>
      </trkpt>
      <trkpt lat="48.57649" lon="6.44957">
        <ele>287</ele>
        <time>2017-06-26T08:41:53Z</time>
      </trkpt>
      <trkpt lat="48.57647" lon="6.44955">
        <ele>287</ele>
        <time>2017-06-26T08:41:54Z</time>
      </trkpt>
      <trkpt lat="48.57646" lon="6.44952">
        <ele>287</ele>
        <time>2017-06-26T08:41:55Z</time>
      </trkpt>
      <trkpt lat="48.57644" lon="6.44949">
        <ele>286</ele>
        <time>2017-06-26T08:41:56Z</time>
      </trkpt>
      <trkpt lat="48.57642" lon="6.44946">
        <ele>286</ele>
        <time>2017-06-26T08:41:57Z</time>
      </trkpt>
      <trkpt lat="48.57639" lon="6.44943">
        <ele>286</ele>
        <time>2017-06-26T08:41:58Z</time>
      </trkpt>
      <trkpt lat="48.57638" lon="6.4494">
        <ele>286</ele>
        <time>2017-06-26T08:41:59Z</time>
      </trkpt>
      <trkpt lat="48.57636" lon="6.44937">
        <ele>286</ele>
        <time>2017-06-26T08:42:00Z</time>
      </trkpt>
      <trkpt lat="48.57631" lon="6.44931">
        <ele>285</ele>
        <time>2017-06-26T08:42:01Z</time>
      </trkpt>
      <trkpt lat="48.57627" lon="6.44924">
        <ele>283</ele>
        <time>2017-06-26T08:42:02Z</time>
      </trkpt>
      <trkpt lat="48.57624" lon="6.44923">
        <ele>282</ele>
        <time>2017-06-26T08:42:03Z</time>
      </trkpt>
      <trkpt lat="48.57621" lon="6.44922">
        <ele>282</ele>
        <time>2017-06-26T08:42:04Z</time>
      </trkpt>
      <trkpt lat="48.57618" lon="6.44921">
        <ele>281</ele>
        <time>2017-06-26T08:42:05Z</time>
      </trkpt>
      <trkpt lat="48.57617" lon="6.44919">
        <ele>281</ele>
        <time>2017-06-26T08:42:06Z</time>
      </trkpt>
      <trkpt lat="48.57615" lon="6.44916">
        <ele>280</ele>
        <time>2017-06-26T08:42:07Z</time>
      </trkpt>
      <trkpt lat="48.57613" lon="6.44914">
        <ele>280</ele>
        <time>2017-06-26T08:42:08Z</time>
      </trkpt>
      <trkpt lat="48.57612" lon="6.44912">
        <ele>279</ele>
        <time>2017-06-26T08:42:09Z</time>
      </trkpt>
      <trkpt lat="48.57615" lon="6.44899">
        <ele>278</ele>
        <time>2017-06-26T08:42:10Z</time>
      </trkpt>
      <trkpt lat="48.57619" lon="6.44887">
        <ele>276</ele>
        <time>2017-06-26T08:42:11Z</time>
      </trkpt>
      <trkpt lat="48.57619" lon="6.44883">
        <ele>273</ele>
        <time>2017-06-26T08:42:12Z</time>
      </trkpt>
      <trkpt lat="48.5762" lon="6.44879">
        <ele>273</ele>
        <time>2017-06-26T08:42:13Z</time>
      </trkpt>
      <trkpt lat="48.57618" lon="6.44881">
        <ele>271</ele>
        <time>2017-06-26T08:42:19Z</time>
      </trkpt>
      <trkpt lat="48.57616" lon="6.44881">
        <ele>270</ele>
        <time>2017-06-26T08:42:20Z</time>
      </trkpt>
      <trkpt lat="48.57615" lon="6.44881">
        <ele>270</ele>
        <time>2017-06-26T08:42:21Z</time>
      </trkpt>
      <trkpt lat="48.57612" lon="6.44879">
        <ele>269</ele>
        <time>2017-06-26T08:42:22Z</time>
      </trkpt>
      <trkpt lat="48.5761" lon="6.44877">
        <ele>269</ele>
        <time>2017-06-26T08:42:23Z</time>
      </trkpt>
      <trkpt lat="48.57608" lon="6.44875">
        <ele>269</ele>
        <time>2017-06-26T08:42:24Z</time>
      </trkpt>
      <trkpt lat="48.57605" lon="6.44873">
        <ele>269</ele>
        <time>2017-06-26T08:42:25Z</time>
      </trkpt>
      <trkpt lat="48.57603" lon="6.4487">
        <ele>269</ele>
        <time>2017-06-26T08:42:26Z</time>
      </trkpt>
      <trkpt lat="48.576" lon="6.44868">
        <ele>269</ele>
        <time>2017-06-26T08:42:27Z</time>
      </trkpt>
      <trkpt lat="48.57598" lon="6.44865">
        <ele>269</ele>
        <time>2017-06-26T08:42:28Z</time>
      </trkpt>
      <trkpt lat="48.57596" lon="6.44862">
        <ele>268</ele>
        <time>2017-06-26T08:42:29Z</time>
      </trkpt>
      <trkpt lat="48.57594" lon="6.44859">
        <ele>269</ele>
        <time>2017-06-26T08:42:30Z</time>
      </trkpt>
      <trkpt lat="48.57592" lon="6.44856">
        <ele>269</ele>
        <time>2017-06-26T08:42:31Z</time>
      </trkpt>
      <trkpt lat="48.5759" lon="6.44853">
        <ele>269</ele>
        <time>2017-06-26T08:42:32Z</time>
      </trkpt>
      <trkpt lat="48.57587" lon="6.44851">
        <ele>269</ele>
        <time>2017-06-26T08:42:33Z</time>
      </trkpt>
      <trkpt lat="48.57585" lon="6.44848">
        <ele>269</ele>
        <time>2017-06-26T08:42:34Z</time>
      </trkpt>
      <trkpt lat="48.57582" lon="6.44845">
        <ele>269</ele>
        <time>2017-06-26T08:42:35Z</time>
      </trkpt>
      <trkpt lat="48.5758" lon="6.44842">
        <ele>269</ele>
        <time>2017-06-26T08:42:36Z</time>
      </trkpt>
      <trkpt lat="48.57577" lon="6.44839">
        <ele>270</ele>
        <time>2017-06-26T08:42:37Z</time>
      </trkpt>
      <trkpt lat="48.57575" lon="6.44837">
        <ele>270</ele>
        <time>2017-06-26T08:42:38Z</time>
      </trkpt>
      <trkpt lat="48.57572" lon="6.44834">
        <ele>270</ele>
        <time>2017-06-26T08:42:39Z</time>
      </trkpt>
      <trkpt lat="48.5757" lon="6.44831">
        <ele>270</ele>
        <time>2017-06-26T08:42:40Z</time>
      </trkpt>
      <trkpt lat="48.57567" lon="6.44828">
        <ele>270</ele>
        <time>2017-06-26T08:42:41Z</time>
      </trkpt>
      <trkpt lat="48.57564" lon="6.44826">
        <ele>270</ele>
        <time>2017-06-26T08:42:42Z</time>
      </trkpt>
      <trkpt lat="48.57562" lon="6.44823">
        <ele>270</ele>
        <time>2017-06-26T08:42:43Z</time>
      </trkpt>
      <trkpt lat="48.5756" lon="6.44821">
        <ele>270</ele>
        <time>2017-06-26T08:42:44Z</time>
      </trkpt>
      <trkpt lat="48.57557" lon="6.44819">
        <ele>270</ele>
        <time>2017-06-26T08:42:45Z</time>
      </trkpt>
      <trkpt lat="48.57555" lon="6.44817">
        <ele>270</ele>
        <time>2017-06-26T08:42:46Z</time>
      </trkpt>
      <trkpt lat="48.57552" lon="6.44815">
        <ele>270</ele>
        <time>2017-06-26T08:42:47Z</time>
      </trkpt>
      <trkpt lat="48.57551" lon="6.44813">
        <ele>270</ele>
        <time>2017-06-26T08:42:48Z</time>
      </trkpt>
      <trkpt lat="48.57548" lon="6.4481">
        <ele>270</ele>
        <time>2017-06-26T08:42:49Z</time>
      </trkpt>
      <trkpt lat="48.57546" lon="6.44808">
        <ele>270</ele>
        <time>2017-06-26T08:42:50Z</time>
      </trkpt>
      <trkpt lat="48.57543" lon="6.44805">
        <ele>270</ele>
        <time>2017-06-26T08:42:51Z</time>
      </trkpt>
      <trkpt lat="48.57541" lon="6.44802">
        <ele>270</ele>
        <time>2017-06-26T08:42:52Z</time>
      </trkpt>
      <trkpt lat="48.57538" lon="6.44798">
        <ele>270</ele>
        <time>2017-06-26T08:42:53Z</time>
      </trkpt>
      <trkpt lat="48.57536" lon="6.44796">
        <ele>270</ele>
        <time>2017-06-26T08:42:54Z</time>
      </trkpt>
      <trkpt lat="48.57535" lon="6.44793">
        <ele>270</ele>
        <time>2017-06-26T08:42:55Z</time>
      </trkpt>
      <trkpt lat="48.57533" lon="6.4479">
        <ele>271</ele>
        <time>2017-06-26T08:42:56Z</time>
      </trkpt>
      <trkpt lat="48.57531" lon="6.44787">
        <ele>271</ele>
        <time>2017-06-26T08:42:57Z</time>
      </trkpt>
      <trkpt lat="48.57529" lon="6.44783">
        <ele>270</ele>
        <time>2017-06-26T08:42:58Z</time>
      </trkpt>
      <trkpt lat="48.57528" lon="6.44779">
        <ele>270</ele>
        <time>2017-06-26T08:42:59Z</time>
      </trkpt>
      <trkpt lat="48.57526" lon="6.44775">
        <ele>270</ele>
        <time>2017-06-26T08:43:00Z</time>
      </trkpt>
      <trkpt lat="48.57525" lon="6.4477">
        <ele>270</ele>
        <time>2017-06-26T08:43:01Z</time>
      </trkpt>
      <trkpt lat="48.57525" lon="6.44765">
        <ele>270</ele>
        <time>2017-06-26T08:43:02Z</time>
      </trkpt>
      <trkpt lat="48.57524" lon="6.4476">
        <ele>270</ele>
        <time>2017-06-26T08:43:03Z</time>
      </trkpt>
      <trkpt lat="48.57523" lon="6.44755">
        <ele>270</ele>
        <time>2017-06-26T08:43:04Z</time>
      </trkpt>
      <trkpt lat="48.57522" lon="6.44751">
        <ele>270</ele>
        <time>2017-06-26T08:43:05Z</time>
      </trkpt>
      <trkpt lat="48.57522" lon="6.44741">
        <ele>269</ele>
        <time>2017-06-26T08:43:06Z</time>
      </trkpt>
      <trkpt lat="48.57521" lon="6.44732">
        <ele>269</ele>
        <time>2017-06-26T08:43:07Z</time>
      </trkpt>
      <trkpt lat="48.5752" lon="6.44727">
        <ele>269</ele>
        <time>2017-06-26T08:43:08Z</time>
      </trkpt>
      <trkpt lat="48.5752" lon="6.44723">
        <ele>269</ele>
        <time>2017-06-26T08:43:09Z</time>
      </trkpt>
      <trkpt lat="48.57519" lon="6.44718">
        <ele>269</ele>
        <time>2017-06-26T08:43:10Z</time>
      </trkpt>
      <trkpt lat="48.57517" lon="6.44714">
        <ele>268</ele>
        <time>2017-06-26T08:43:11Z</time>
      </trkpt>
      <trkpt lat="48.57516" lon="6.4471">
        <ele>268</ele>
        <time>2017-06-26T08:43:12Z</time>
      </trkpt>
      <trkpt lat="48.57516" lon="6.44706">
        <ele>269</ele>
        <time>2017-06-26T08:43:13Z</time>
      </trkpt>
      <trkpt lat="48.57515" lon="6.44702">
        <ele>269</ele>
        <time>2017-06-26T08:43:14Z</time>
      </trkpt>
      <trkpt lat="48.57514" lon="6.44698">
        <ele>269</ele>
        <time>2017-06-26T08:43:15Z</time>
      </trkpt>
      <trkpt lat="48.57513" lon="6.44694">
        <ele>270</ele>
        <time>2017-06-26T08:43:16Z</time>
      </trkpt>
      <trkpt lat="48.57511" lon="6.44689">
        <ele>270</ele>
        <time>2017-06-26T08:43:17Z</time>
      </trkpt>
      <trkpt lat="48.5751" lon="6.44685">
        <ele>270</ele>
        <time>2017-06-26T08:43:18Z</time>
      </trkpt>
      <trkpt lat="48.5751" lon="6.4468">
        <ele>271</ele>
        <time>2017-06-26T08:43:19Z</time>
      </trkpt>
      <trkpt lat="48.57509" lon="6.44675">
        <ele>270</ele>
        <time>2017-06-26T08:43:20Z</time>
      </trkpt>
      <trkpt lat="48.57509" lon="6.44671">
        <ele>270</ele>
        <time>2017-06-26T08:43:21Z</time>
      </trkpt>
      <trkpt lat="48.57509" lon="6.44666">
        <ele>270</ele>
        <time>2017-06-26T08:43:22Z</time>
      </trkpt>
      <trkpt lat="48.57508" lon="6.44662">
        <ele>270</ele>
        <time>2017-06-26T08:43:23Z</time>
      </trkpt>
      <trkpt lat="48.57507" lon="6.44657">
        <ele>270</ele>
        <time>2017-06-26T08:43:24Z</time>
      </trkpt>
      <trkpt lat="48.57507" lon="6.44654">
        <ele>270</ele>
        <time>2017-06-26T08:43:25Z</time>
      </trkpt>
      <trkpt lat="48.57506" lon="6.4465">
        <ele>270</ele>
        <time>2017-06-26T08:43:26Z</time>
      </trkpt>
      <trkpt lat="48.57506" lon="6.44647">
        <ele>270</ele>
        <time>2017-06-26T08:43:27Z</time>
      </trkpt>
      <trkpt lat="48.57504" lon="6.44643">
        <ele>270</ele>
        <time>2017-06-26T08:43:28Z</time>
      </trkpt>
      <trkpt lat="48.57503" lon="6.4464">
        <ele>270</ele>
        <time>2017-06-26T08:43:29Z</time>
      </trkpt>
      <trkpt lat="48.57501" lon="6.44637">
        <ele>271</ele>
        <time>2017-06-26T08:43:30Z</time>
      </trkpt>
      <trkpt lat="48.57499" lon="6.44635">
        <ele>271</ele>
        <time>2017-06-26T08:43:31Z</time>
      </trkpt>
      <trkpt lat="48.57497" lon="6.44633">
        <ele>271</ele>
        <time>2017-06-26T08:43:32Z</time>
      </trkpt>
      <trkpt lat="48.57495" lon="6.44632">
        <ele>271</ele>
        <time>2017-06-26T08:43:33Z</time>
      </trkpt>
      <trkpt lat="48.57492" lon="6.44631">
        <ele>271</ele>
        <time>2017-06-26T08:43:34Z</time>
      </trkpt>
      <trkpt lat="48.57489" lon="6.4463">
        <ele>272</ele>
        <time>2017-06-26T08:43:35Z</time>
      </trkpt>
      <trkpt lat="48.57486" lon="6.44629">
        <ele>272</ele>
        <time>2017-06-26T08:43:36Z</time>
      </trkpt>
      <trkpt lat="48.57484" lon="6.44628">
        <ele>272</ele>
        <time>2017-06-26T08:43:37Z</time>
      </trkpt>
      <trkpt lat="48.57481" lon="6.44627">
        <ele>272</ele>
        <time>2017-06-26T08:43:38Z</time>
      </trkpt>
      <trkpt lat="48.57479" lon="6.44626">
        <ele>273</ele>
        <time>2017-06-26T08:43:39Z</time>
      </trkpt>
      <trkpt lat="48.57477" lon="6.44625">
        <ele>273</ele>
        <time>2017-06-26T08:43:40Z</time>
      </trkpt>
      <trkpt lat="48.57476" lon="6.44623">
        <ele>273</ele>
        <time>2017-06-26T08:43:41Z</time>
      </trkpt>
      <trkpt lat="48.57474" lon="6.44621">
        <ele>273</ele>
        <time>2017-06-26T08:43:42Z</time>
      </trkpt>
      <trkpt lat="48.57469" lon="6.44616">
        <ele>273</ele>
        <time>2017-06-26T08:43:43Z</time>
      </trkpt>
      <trkpt lat="48.57466" lon="6.44616">
        <ele>274</ele>
        <time>2017-06-26T08:43:44Z</time>
      </trkpt>
      <trkpt lat="48.57463" lon="6.44615">
        <ele>274</ele>
        <time>2017-06-26T08:43:45Z</time>
      </trkpt>
      <trkpt lat="48.5746" lon="6.44615">
        <ele>274</ele>
        <time>2017-06-26T08:43:46Z</time>
      </trkpt>
      <trkpt lat="48.57457" lon="6.44616">
        <ele>274</ele>
        <time>2017-06-26T08:43:47Z</time>
      </trkpt>
      <trkpt lat="48.57455" lon="6.44614">
        <ele>274</ele>
        <time>2017-06-26T08:43:48Z</time>
      </trkpt>
      <trkpt lat="48.57452" lon="6.44613">
        <ele>274</ele>
        <time>2017-06-26T08:43:49Z</time>
      </trkpt>
      <trkpt lat="48.57449" lon="6.44612">
        <ele>274</ele>
        <time>2017-06-26T08:43:50Z</time>
      </trkpt>
      <trkpt lat="48.57447" lon="6.4461">
        <ele>273</ele>
        <time>2017-06-26T08:43:51Z</time>
      </trkpt>
      <trkpt lat="48.57444" lon="6.44608">
        <ele>273</ele>
        <time>2017-06-26T08:43:52Z</time>
      </trkpt>
      <trkpt lat="48.57442" lon="6.44606">
        <ele>273</ele>
        <time>2017-06-26T08:43:53Z</time>
      </trkpt>
      <trkpt lat="48.57439" lon="6.44605">
        <ele>273</ele>
        <time>2017-06-26T08:43:54Z</time>
      </trkpt>
      <trkpt lat="48.57436" lon="6.44603">
        <ele>274</ele>
        <time>2017-06-26T08:43:55Z</time>
      </trkpt>
      <trkpt lat="48.57433" lon="6.44601">
        <ele>274</ele>
        <time>2017-06-26T08:43:56Z</time>
      </trkpt>
      <trkpt lat="48.57431" lon="6.44599">
        <ele>274</ele>
        <time>2017-06-26T08:43:57Z</time>
      </trkpt>
      <trkpt lat="48.57428" lon="6.44596">
        <ele>274</ele>
        <time>2017-06-26T08:43:58Z</time>
      </trkpt>
      <trkpt lat="48.57426" lon="6.44594">
        <ele>274</ele>
        <time>2017-06-26T08:43:59Z</time>
      </trkpt>
      <trkpt lat="48.57424" lon="6.44592">
        <ele>275</ele>
        <time>2017-06-26T08:44:00Z</time>
      </trkpt>
      <trkpt lat="48.57421" lon="6.4459">
        <ele>274</ele>
        <time>2017-06-26T08:44:01Z</time>
      </trkpt>
      <trkpt lat="48.57419" lon="6.44588">
        <ele>274</ele>
        <time>2017-06-26T08:44:02Z</time>
      </trkpt>
      <trkpt lat="48.57416" lon="6.44585">
        <ele>273</ele>
        <time>2017-06-26T08:44:03Z</time>
      </trkpt>
      <trkpt lat="48.57414" lon="6.44583">
        <ele>272</ele>
        <time>2017-06-26T08:44:04Z</time>
      </trkpt>
      <trkpt lat="48.57412" lon="6.4458">
        <ele>272</ele>
        <time>2017-06-26T08:44:05Z</time>
      </trkpt>
      <trkpt lat="48.5741" lon="6.44577">
        <ele>271</ele>
        <time>2017-06-26T08:44:06Z</time>
      </trkpt>
      <trkpt lat="48.57409" lon="6.44572">
        <ele>271</ele>
        <time>2017-06-26T08:44:07Z</time>
      </trkpt>
      <trkpt lat="48.57409" lon="6.44568">
        <ele>270</ele>
        <time>2017-06-26T08:44:08Z</time>
      </trkpt>
      <trkpt lat="48.5741" lon="6.44564">
        <ele>270</ele>
        <time>2017-06-26T08:44:09Z</time>
      </trkpt>
      <trkpt lat="48.57411" lon="6.4456">
        <ele>270</ele>
        <time>2017-06-26T08:44:10Z</time>
      </trkpt>
      <trkpt lat="48.57412" lon="6.44557">
        <ele>270</ele>
        <time>2017-06-26T08:44:11Z</time>
      </trkpt>
      <trkpt lat="48.57413" lon="6.44553">
        <ele>269</ele>
        <time>2017-06-26T08:44:12Z</time>
      </trkpt>
      <trkpt lat="48.57414" lon="6.44549">
        <ele>269</ele>
        <time>2017-06-26T08:44:13Z</time>
      </trkpt>
      <trkpt lat="48.57415" lon="6.44546">
        <ele>269</ele>
        <time>2017-06-26T08:44:14Z</time>
      </trkpt>
      <trkpt lat="48.57416" lon="6.44543">
        <ele>269</ele>
        <time>2017-06-26T08:44:15Z</time>
      </trkpt>
      <trkpt lat="48.57417" lon="6.44535">
        <ele>269</ele>
        <time>2017-06-26T08:44:16Z</time>
      </trkpt>
      <trkpt lat="48.57417" lon="6.44527">
        <ele>268</ele>
        <time>2017-06-26T08:44:17Z</time>
      </trkpt>
      <trkpt lat="48.57418" lon="6.44519">
        <ele>267</ele>
        <time>2017-06-26T08:44:18Z</time>
      </trkpt>
      <trkpt lat="48.57419" lon="6.44511">
        <ele>266</ele>
        <time>2017-06-26T08:44:19Z</time>
      </trkpt>
      <trkpt lat="48.57421" lon="6.44508">
        <ele>266</ele>
        <time>2017-06-26T08:44:20Z</time>
      </trkpt>
      <trkpt lat="48.57422" lon="6.44505">
        <ele>266</ele>
        <time>2017-06-26T08:44:21Z</time>
      </trkpt>
      <trkpt lat="48.57425" lon="6.44499">
        <ele>266</ele>
        <time>2017-06-26T08:44:22Z</time>
      </trkpt>
      <trkpt lat="48.57426" lon="6.44495">
        <ele>266</ele>
        <time>2017-06-26T08:44:23Z</time>
      </trkpt>
      <trkpt lat="48.57427" lon="6.44492">
        <ele>266</ele>
        <time>2017-06-26T08:44:24Z</time>
      </trkpt>
      <trkpt lat="48.57427" lon="6.44488">
        <ele>266</ele>
        <time>2017-06-26T08:44:25Z</time>
      </trkpt>
      <trkpt lat="48.57428" lon="6.44485">
        <ele>266</ele>
        <time>2017-06-26T08:44:26Z</time>
      </trkpt>
      <trkpt lat="48.57429" lon="6.44482">
        <ele>266</ele>
        <time>2017-06-26T08:44:27Z</time>
      </trkpt>
      <trkpt lat="48.57431" lon="6.44478">
        <ele>265</ele>
        <time>2017-06-26T08:44:28Z</time>
      </trkpt>
      <trkpt lat="48.57435" lon="6.44472">
        <ele>265</ele>
        <time>2017-06-26T08:44:29Z</time>
      </trkpt>
      <trkpt lat="48.57436" lon="6.4447">
        <ele>265</ele>
        <time>2017-06-26T08:44:30Z</time>
      </trkpt>
      <trkpt lat="48.57437" lon="6.44467">
        <ele>265</ele>
        <time>2017-06-26T08:44:31Z</time>
      </trkpt>
      <trkpt lat="48.57438" lon="6.44465">
        <ele>265</ele>
        <time>2017-06-26T08:44:32Z</time>
      </trkpt>
      <trkpt lat="48.57441" lon="6.44459">
        <ele>266</ele>
        <time>2017-06-26T08:44:33Z</time>
      </trkpt>
      <trkpt lat="48.57443" lon="6.44455">
        <ele>266</ele>
        <time>2017-06-26T08:44:34Z</time>
      </trkpt>
      <trkpt lat="48.57445" lon="6.44451">
        <ele>267</ele>
        <time>2017-06-26T08:44:35Z</time>
      </trkpt>
      <trkpt lat="48.57446" lon="6.44448">
        <ele>267</ele>
        <time>2017-06-26T08:44:36Z</time>
      </trkpt>
      <trkpt lat="48.57448" lon="6.44445">
        <ele>268</ele>
        <time>2017-06-26T08:44:37Z</time>
      </trkpt>
      <trkpt lat="48.5745" lon="6.44443">
        <ele>268</ele>
        <time>2017-06-26T08:44:38Z</time>
      </trkpt>
      <trkpt lat="48.57451" lon="6.4444">
        <ele>269</ele>
        <time>2017-06-26T08:44:39Z</time>
      </trkpt>
      <trkpt lat="48.57452" lon="6.44437">
        <ele>270</ele>
        <time>2017-06-26T08:44:40Z</time>
      </trkpt>
      <trkpt lat="48.57453" lon="6.44435">
        <ele>270</ele>
        <time>2017-06-26T08:44:41Z</time>
      </trkpt>
      <trkpt lat="48.57455" lon="6.44431">
        <ele>271</ele>
        <time>2017-06-26T08:44:43Z</time>
      </trkpt>
      <trkpt lat="48.57456" lon="6.44428">
        <ele>272</ele>
        <time>2017-06-26T08:44:44Z</time>
      </trkpt>
      <trkpt lat="48.57457" lon="6.44426">
        <ele>272</ele>
        <time>2017-06-26T08:44:45Z</time>
      </trkpt>
      <trkpt lat="48.57458" lon="6.44423">
        <ele>273</ele>
        <time>2017-06-26T08:44:46Z</time>
      </trkpt>
      <trkpt lat="48.57459" lon="6.44421">
        <ele>273</ele>
        <time>2017-06-26T08:44:47Z</time>
      </trkpt>
      <trkpt lat="48.57461" lon="6.44418">
        <ele>273</ele>
        <time>2017-06-26T08:44:48Z</time>
      </trkpt>
      <trkpt lat="48.57462" lon="6.44415">
        <ele>273</ele>
        <time>2017-06-26T08:44:49Z</time>
      </trkpt>
      <trkpt lat="48.57463" lon="6.44412">
        <ele>273</ele>
        <time>2017-06-26T08:44:50Z</time>
      </trkpt>
      <trkpt lat="48.57466" lon="6.44409">
        <ele>273</ele>
        <time>2017-06-26T08:44:51Z</time>
      </trkpt>
      <trkpt lat="48.57467" lon="6.44406">
        <ele>273</ele>
        <time>2017-06-26T08:44:52Z</time>
      </trkpt>
      <trkpt lat="48.5747" lon="6.44402">
        <ele>273</ele>
        <time>2017-06-26T08:44:53Z</time>
      </trkpt>
      <trkpt lat="48.57471" lon="6.44399">
        <ele>273</ele>
        <time>2017-06-26T08:44:54Z</time>
      </trkpt>
      <trkpt lat="48.57473" lon="6.44395">
        <ele>273</ele>
        <time>2017-06-26T08:44:55Z</time>
      </trkpt>
      <trkpt lat="48.57474" lon="6.44391">
        <ele>274</ele>
        <time>2017-06-26T08:44:56Z</time>
      </trkpt>
      <trkpt lat="48.57476" lon="6.44387">
        <ele>274</ele>
        <time>2017-06-26T08:44:57Z</time>
      </trkpt>
      <trkpt lat="48.57477" lon="6.44384">
        <ele>274</ele>
        <time>2017-06-26T08:44:58Z</time>
      </trkpt>
      <trkpt lat="48.57478" lon="6.44381">
        <ele>274</ele>
        <time>2017-06-26T08:44:59Z</time>
      </trkpt>
      <trkpt lat="48.5748" lon="6.44378">
        <ele>275</ele>
        <time>2017-06-26T08:45:00Z</time>
      </trkpt>
      <trkpt lat="48.57481" lon="6.44375">
        <ele>275</ele>
        <time>2017-06-26T08:45:01Z</time>
      </trkpt>
      <trkpt lat="48.57482" lon="6.44372">
        <ele>275</ele>
        <time>2017-06-26T08:45:02Z</time>
      </trkpt>
      <trkpt lat="48.57483" lon="6.4437">
        <ele>275</ele>
        <time>2017-06-26T08:45:03Z</time>
      </trkpt>
      <trkpt lat="48.57483" lon="6.44367">
        <ele>275</ele>
        <time>2017-06-26T08:45:04Z</time>
      </trkpt>
      <trkpt lat="48.57481" lon="6.44364">
        <ele>275</ele>
        <time>2017-06-26T08:45:06Z</time>
      </trkpt>
      <trkpt lat="48.57479" lon="6.44363">
        <ele>275</ele>
        <time>2017-06-26T08:45:07Z</time>
      </trkpt>
      <trkpt lat="48.57477" lon="6.44362">
        <ele>275</ele>
        <time>2017-06-26T08:45:08Z</time>
      </trkpt>
      <trkpt lat="48.57475" lon="6.44362">
        <ele>275</ele>
        <time>2017-06-26T08:45:09Z</time>
      </trkpt>
      <trkpt lat="48.57473" lon="6.44363">
        <ele>275</ele>
        <time>2017-06-26T08:45:11Z</time>
      </trkpt>
      <trkpt lat="48.5747" lon="6.44365">
        <ele>275</ele>
        <time>2017-06-26T08:45:13Z</time>
      </trkpt>
      <trkpt lat="48.57468" lon="6.44366">
        <ele>275</ele>
        <time>2017-06-26T08:45:14Z</time>
      </trkpt>
      <trkpt lat="48.57464" lon="6.44368">
        <ele>275</ele>
        <time>2017-06-26T08:45:16Z</time>
      </trkpt>
      <trkpt lat="48.57462" lon="6.44368">
        <ele>275</ele>
        <time>2017-06-26T08:45:17Z</time>
      </trkpt>
      <trkpt lat="48.5746" lon="6.44368">
        <ele>275</ele>
        <time>2017-06-26T08:45:18Z</time>
      </trkpt>
      <trkpt lat="48.57458" lon="6.44368">
        <ele>275</ele>
        <time>2017-06-26T08:45:19Z</time>
      </trkpt>
      <trkpt lat="48.57455" lon="6.44367">
        <ele>275</ele>
        <time>2017-06-26T08:45:20Z</time>
      </trkpt>
      <trkpt lat="48.57453" lon="6.44367">
        <ele>275</ele>
        <time>2017-06-26T08:45:21Z</time>
      </trkpt>
      <trkpt lat="48.5745" lon="6.44366">
        <ele>275</ele>
        <time>2017-06-26T08:45:22Z</time>
      </trkpt>
      <trkpt lat="48.57447" lon="6.44366">
        <ele>275</ele>
        <time>2017-06-26T08:45:23Z</time>
      </trkpt>
      <trkpt lat="48.57444" lon="6.44365">
        <ele>275</ele>
        <time>2017-06-26T08:45:24Z</time>
      </trkpt>
      <trkpt lat="48.57441" lon="6.44363">
        <ele>275</ele>
        <time>2017-06-26T08:45:25Z</time>
      </trkpt>
      <trkpt lat="48.57439" lon="6.44361">
        <ele>274</ele>
        <time>2017-06-26T08:45:26Z</time>
      </trkpt>
      <trkpt lat="48.57437" lon="6.44359">
        <ele>274</ele>
        <time>2017-06-26T08:45:27Z</time>
      </trkpt>
      <trkpt lat="48.57435" lon="6.44357">
        <ele>274</ele>
        <time>2017-06-26T08:45:28Z</time>
      </trkpt>
      <trkpt lat="48.57432" lon="6.44356">
        <ele>274</ele>
        <time>2017-06-26T08:45:29Z</time>
      </trkpt>
      <trkpt lat="48.57431" lon="6.44354">
        <ele>274</ele>
        <time>2017-06-26T08:45:30Z</time>
      </trkpt>
      <trkpt lat="48.57429" lon="6.44351">
        <ele>274</ele>
        <time>2017-06-26T08:45:31Z</time>
      </trkpt>
      <trkpt lat="48.57428" lon="6.44348">
        <ele>274</ele>
        <time>2017-06-26T08:45:32Z</time>
      </trkpt>
      <trkpt lat="48.57426" lon="6.44345">
        <ele>273</ele>
        <time>2017-06-26T08:45:33Z</time>
      </trkpt>
      <trkpt lat="48.57425" lon="6.44342">
        <ele>273</ele>
        <time>2017-06-26T08:45:34Z</time>
      </trkpt>
      <trkpt lat="48.57423" lon="6.44339">
        <ele>274</ele>
        <time>2017-06-26T08:45:35Z</time>
      </trkpt>
      <trkpt lat="48.5742" lon="6.44336">
        <ele>274</ele>
        <time>2017-06-26T08:45:36Z</time>
      </trkpt>
      <trkpt lat="48.57418" lon="6.44332">
        <ele>274</ele>
        <time>2017-06-26T08:45:37Z</time>
      </trkpt>
      <trkpt lat="48.57416" lon="6.4433">
        <ele>274</ele>
        <time>2017-06-26T08:45:38Z</time>
      </trkpt>
      <trkpt lat="48.57414" lon="6.44326">
        <ele>274</ele>
        <time>2017-06-26T08:45:39Z</time>
      </trkpt>
      <trkpt lat="48.57411" lon="6.44322">
        <ele>274</ele>
        <time>2017-06-26T08:45:40Z</time>
      </trkpt>
      <trkpt lat="48.57409" lon="6.44318">
        <ele>274</ele>
        <time>2017-06-26T08:45:41Z</time>
      </trkpt>
      <trkpt lat="48.57407" lon="6.44315">
        <ele>274</ele>
        <time>2017-06-26T08:45:42Z</time>
      </trkpt>
      <trkpt lat="48.57405" lon="6.44312">
        <ele>274</ele>
        <time>2017-06-26T08:45:43Z</time>
      </trkpt>
      <trkpt lat="48.57403" lon="6.44311">
        <ele>274</ele>
        <time>2017-06-26T08:45:44Z</time>
      </trkpt>
      <trkpt lat="48.57401" lon="6.44308">
        <ele>274</ele>
        <time>2017-06-26T08:45:45Z</time>
      </trkpt>
      <trkpt lat="48.57398" lon="6.44304">
        <ele>274</ele>
        <time>2017-06-26T08:45:46Z</time>
      </trkpt>
      <trkpt lat="48.57396" lon="6.44302">
        <ele>274</ele>
        <time>2017-06-26T08:45:47Z</time>
      </trkpt>
      <trkpt lat="48.57395" lon="6.44298">
        <ele>274</ele>
        <time>2017-06-26T08:45:48Z</time>
      </trkpt>
      <trkpt lat="48.57393" lon="6.44295">
        <ele>274</ele>
        <time>2017-06-26T08:45:49Z</time>
      </trkpt>
      <trkpt lat="48.57392" lon="6.44293">
        <ele>274</ele>
        <time>2017-06-26T08:45:50Z</time>
      </trkpt>
      <trkpt lat="48.5739" lon="6.44291">
        <ele>275</ele>
        <time>2017-06-26T08:45:51Z</time>
      </trkpt>
      <trkpt lat="48.57388" lon="6.44288">
        <ele>275</ele>
        <time>2017-06-26T08:45:52Z</time>
      </trkpt>
      <trkpt lat="48.57387" lon="6.44285">
        <ele>275</ele>
        <time>2017-06-26T08:45:53Z</time>
      </trkpt>
      <trkpt lat="48.57385" lon="6.44282">
        <ele>275</ele>
        <time>2017-06-26T08:45:54Z</time>
      </trkpt>
      <trkpt lat="48.57384" lon="6.44279">
        <ele>275</ele>
        <time>2017-06-26T08:45:55Z</time>
      </trkpt>
      <trkpt lat="48.57382" lon="6.44277">
        <ele>275</ele>
        <time>2017-06-26T08:45:56Z</time>
      </trkpt>
      <trkpt lat="48.5738" lon="6.44273">
        <ele>275</ele>
        <time>2017-06-26T08:45:57Z</time>
      </trkpt>
      <trkpt lat="48.57378" lon="6.4427">
        <ele>275</ele>
        <time>2017-06-26T08:45:58Z</time>
      </trkpt>
      <trkpt lat="48.57376" lon="6.44267">
        <ele>276</ele>
        <time>2017-06-26T08:45:59Z</time>
      </trkpt>
      <trkpt lat="48.57374" lon="6.44265">
        <ele>276</ele>
        <time>2017-06-26T08:46:00Z</time>
      </trkpt>
      <trkpt lat="48.57372" lon="6.44261">
        <ele>276</ele>
        <time>2017-06-26T08:46:01Z</time>
      </trkpt>
      <trkpt lat="48.5737" lon="6.44258">
        <ele>276</ele>
        <time>2017-06-26T08:46:02Z</time>
      </trkpt>
      <trkpt lat="48.57368" lon="6.44255">
        <ele>276</ele>
        <time>2017-06-26T08:46:03Z</time>
      </trkpt>
      <trkpt lat="48.57366" lon="6.44252">
        <ele>276</ele>
        <time>2017-06-26T08:46:04Z</time>
      </trkpt>
      <trkpt lat="48.57364" lon="6.44249">
        <ele>276</ele>
        <time>2017-06-26T08:46:05Z</time>
      </trkpt>
      <trkpt lat="48.57362" lon="6.44245">
        <ele>277</ele>
        <time>2017-06-26T08:46:06Z</time>
      </trkpt>
      <trkpt lat="48.57361" lon="6.44242">
        <ele>277</ele>
        <time>2017-06-26T08:46:07Z</time>
      </trkpt>
      <trkpt lat="48.5736" lon="6.44239">
        <ele>277</ele>
        <time>2017-06-26T08:46:08Z</time>
      </trkpt>
      <trkpt lat="48.57358" lon="6.44235">
        <ele>277</ele>
        <time>2017-06-26T08:46:09Z</time>
      </trkpt>
      <trkpt lat="48.57356" lon="6.44231">
        <ele>277</ele>
        <time>2017-06-26T08:46:10Z</time>
      </trkpt>
      <trkpt lat="48.57353" lon="6.44227">
        <ele>277</ele>
        <time>2017-06-26T08:46:11Z</time>
      </trkpt>
      <trkpt lat="48.57351" lon="6.44224">
        <ele>277</ele>
        <time>2017-06-26T08:46:12Z</time>
      </trkpt>
      <trkpt lat="48.57349" lon="6.44222">
        <ele>277</ele>
        <time>2017-06-26T08:46:13Z</time>
      </trkpt>
      <trkpt lat="48.57347" lon="6.44219">
        <ele>277</ele>
        <time>2017-06-26T08:46:14Z</time>
      </trkpt>
      <trkpt lat="48.57346" lon="6.44216">
        <ele>277</ele>
        <time>2017-06-26T08:46:15Z</time>
      </trkpt>
      <trkpt lat="48.57343" lon="6.44212">
        <ele>278</ele>
        <time>2017-06-26T08:46:16Z</time>
      </trkpt>
      <trkpt lat="48.57342" lon="6.44207">
        <ele>278</ele>
        <time>2017-06-26T08:46:17Z</time>
      </trkpt>
      <trkpt lat="48.57341" lon="6.44203">
        <ele>278</ele>
        <time>2017-06-26T08:46:18Z</time>
      </trkpt>
      <trkpt lat="48.5734" lon="6.44199">
        <ele>278</ele>
        <time>2017-06-26T08:46:19Z</time>
      </trkpt>
      <trkpt lat="48.57338" lon="6.44196">
        <ele>278</ele>
        <time>2017-06-26T08:46:20Z</time>
      </trkpt>
      <trkpt lat="48.57336" lon="6.44193">
        <ele>278</ele>
        <time>2017-06-26T08:46:21Z</time>
      </trkpt>
      <trkpt lat="48.57333" lon="6.4419">
        <ele>278</ele>
        <time>2017-06-26T08:46:22Z</time>
      </trkpt>
      <trkpt lat="48.57331" lon="6.44186">
        <ele>278</ele>
        <time>2017-06-26T08:46:23Z</time>
      </trkpt>
      <trkpt lat="48.57329" lon="6.44184">
        <ele>278</ele>
        <time>2017-06-26T08:46:24Z</time>
      </trkpt>
      <trkpt lat="48.57327" lon="6.44181">
        <ele>278</ele>
        <time>2017-06-26T08:46:25Z</time>
      </trkpt>
      <trkpt lat="48.57326" lon="6.44178">
        <ele>278</ele>
        <time>2017-06-26T08:46:26Z</time>
      </trkpt>
      <trkpt lat="48.57324" lon="6.44175">
        <ele>278</ele>
        <time>2017-06-26T08:46:27Z</time>
      </trkpt>
      <trkpt lat="48.57323" lon="6.44171">
        <ele>278</ele>
        <time>2017-06-26T08:46:28Z</time>
      </trkpt>
      <trkpt lat="48.57322" lon="6.44168">
        <ele>278</ele>
        <time>2017-06-26T08:46:29Z</time>
      </trkpt>
      <trkpt lat="48.57321" lon="6.44163">
        <ele>278</ele>
        <time>2017-06-26T08:46:30Z</time>
      </trkpt>
      <trkpt lat="48.57319" lon="6.44159">
        <ele>278</ele>
        <time>2017-06-26T08:46:31Z</time>
      </trkpt>
      <trkpt lat="48.57318" lon="6.44155">
        <ele>278</ele>
        <time>2017-06-26T08:46:32Z</time>
      </trkpt>
      <trkpt lat="48.57317" lon="6.4415">
        <ele>278</ele>
        <time>2017-06-26T08:46:33Z</time>
      </trkpt>
      <trkpt lat="48.57315" lon="6.44145">
        <ele>278</ele>
        <time>2017-06-26T08:46:34Z</time>
      </trkpt>
      <trkpt lat="48.57314" lon="6.44141">
        <ele>278</ele>
        <time>2017-06-26T08:46:35Z</time>
      </trkpt>
      <trkpt lat="48.57313" lon="6.44137">
        <ele>277</ele>
        <time>2017-06-26T08:46:36Z</time>
      </trkpt>
      <trkpt lat="48.57312" lon="6.44132">
        <ele>277</ele>
        <time>2017-06-26T08:46:37Z</time>
      </trkpt>
      <trkpt lat="48.57311" lon="6.44128">
        <ele>277</ele>
        <time>2017-06-26T08:46:38Z</time>
      </trkpt>
      <trkpt lat="48.57309" lon="6.44125">
        <ele>277</ele>
        <time>2017-06-26T08:46:39Z</time>
      </trkpt>
      <trkpt lat="48.57307" lon="6.44122">
        <ele>277</ele>
        <time>2017-06-26T08:46:40Z</time>
      </trkpt>
      <trkpt lat="48.57306" lon="6.44118">
        <ele>277</ele>
        <time>2017-06-26T08:46:41Z</time>
      </trkpt>
      <trkpt lat="48.57306" lon="6.44115">
        <ele>277</ele>
        <time>2017-06-26T08:46:42Z</time>
      </trkpt>
      <trkpt lat="48.57307" lon="6.44111">
        <ele>277</ele>
        <time>2017-06-26T08:46:43Z</time>
      </trkpt>
      <trkpt lat="48.57307" lon="6.44106">
        <ele>277</ele>
        <time>2017-06-26T08:46:44Z</time>
      </trkpt>
      <trkpt lat="48.57308" lon="6.44102">
        <ele>277</ele>
        <time>2017-06-26T08:46:45Z</time>
      </trkpt>
      <trkpt lat="48.57308" lon="6.44098">
        <ele>277</ele>
        <time>2017-06-26T08:46:46Z</time>
      </trkpt>
      <trkpt lat="48.57307" lon="6.44095">
        <ele>277</ele>
        <time>2017-06-26T08:46:47Z</time>
      </trkpt>
      <trkpt lat="48.57306" lon="6.44093">
        <ele>278</ele>
        <time>2017-06-26T08:46:48Z</time>
      </trkpt>
      <trkpt lat="48.57305" lon="6.44089">
        <ele>278</ele>
        <time>2017-06-26T08:46:49Z</time>
      </trkpt>
      <trkpt lat="48.57304" lon="6.44087">
        <ele>278</ele>
        <time>2017-06-26T08:46:50Z</time>
      </trkpt>
      <trkpt lat="48.57303" lon="6.44083">
        <ele>278</ele>
        <time>2017-06-26T08:46:51Z</time>
      </trkpt>
      <trkpt lat="48.57301" lon="6.4408">
        <ele>278</ele>
        <time>2017-06-26T08:46:52Z</time>
      </trkpt>
      <trkpt lat="48.57299" lon="6.44077">
        <ele>278</ele>
        <time>2017-06-26T08:46:53Z</time>
      </trkpt>
      <trkpt lat="48.57297" lon="6.44074">
        <ele>278</ele>
        <time>2017-06-26T08:46:54Z</time>
      </trkpt>
      <trkpt lat="48.57296" lon="6.44071">
        <ele>278</ele>
        <time>2017-06-26T08:46:55Z</time>
      </trkpt>
      <trkpt lat="48.57294" lon="6.44068">
        <ele>278</ele>
        <time>2017-06-26T08:46:56Z</time>
      </trkpt>
      <trkpt lat="48.57293" lon="6.44065">
        <ele>278</ele>
        <time>2017-06-26T08:46:57Z</time>
      </trkpt>
      <trkpt lat="48.57291" lon="6.44062">
        <ele>278</ele>
        <time>2017-06-26T08:46:58Z</time>
      </trkpt>
      <trkpt lat="48.57289" lon="6.44058">
        <ele>279</ele>
        <time>2017-06-26T08:46:59Z</time>
      </trkpt>
      <trkpt lat="48.57287" lon="6.44054">
        <ele>279</ele>
        <time>2017-06-26T08:47:00Z</time>
      </trkpt>
      <trkpt lat="48.57286" lon="6.4405">
        <ele>279</ele>
        <time>2017-06-26T08:47:01Z</time>
      </trkpt>
      <trkpt lat="48.57284" lon="6.44047">
        <ele>279</ele>
        <time>2017-06-26T08:47:02Z</time>
      </trkpt>
      <trkpt lat="48.57282" lon="6.44045">
        <ele>279</ele>
        <time>2017-06-26T08:47:03Z</time>
      </trkpt>
      <trkpt lat="48.5728" lon="6.44042">
        <ele>279</ele>
        <time>2017-06-26T08:47:04Z</time>
      </trkpt>
      <trkpt lat="48.57278" lon="6.4404">
        <ele>279</ele>
        <time>2017-06-26T08:47:05Z</time>
      </trkpt>
      <trkpt lat="48.57277" lon="6.44038">
        <ele>279</ele>
        <time>2017-06-26T08:47:06Z</time>
      </trkpt>
      <trkpt lat="48.57275" lon="6.44036">
        <ele>279</ele>
        <time>2017-06-26T08:47:07Z</time>
      </trkpt>
      <trkpt lat="48.57273" lon="6.44034">
        <ele>279</ele>
        <time>2017-06-26T08:47:08Z</time>
      </trkpt>
      <trkpt lat="48.57272" lon="6.44032">
        <ele>279</ele>
        <time>2017-06-26T08:47:09Z</time>
      </trkpt>
      <trkpt lat="48.5727" lon="6.44029">
        <ele>279</ele>
        <time>2017-06-26T08:47:10Z</time>
      </trkpt>
      <trkpt lat="48.57268" lon="6.44026">
        <ele>279</ele>
        <time>2017-06-26T08:47:11Z</time>
      </trkpt>
      <trkpt lat="48.57266" lon="6.44023">
        <ele>279</ele>
        <time>2017-06-26T08:47:12Z</time>
      </trkpt>
      <trkpt lat="48.57265" lon="6.44019">
        <ele>279</ele>
        <time>2017-06-26T08:47:13Z</time>
      </trkpt>
      <trkpt lat="48.57263" lon="6.44015">
        <ele>279</ele>
        <time>2017-06-26T08:47:14Z</time>
      </trkpt>
      <trkpt lat="48.57261" lon="6.44011">
        <ele>278</ele>
        <time>2017-06-26T08:47:15Z</time>
      </trkpt>
      <trkpt lat="48.5726" lon="6.44007">
        <ele>278</ele>
        <time>2017-06-26T08:47:16Z</time>
      </trkpt>
      <trkpt lat="48.57258" lon="6.44003">
        <ele>278</ele>
        <time>2017-06-26T08:47:17Z</time>
      </trkpt>
      <trkpt lat="48.57256" lon="6.44">
        <ele>278</ele>
        <time>2017-06-26T08:47:18Z</time>
      </trkpt>
      <trkpt lat="48.57254" lon="6.43996">
        <ele>278</ele>
        <time>2017-06-26T08:47:19Z</time>
      </trkpt>
      <trkpt lat="48.57253" lon="6.43992">
        <ele>278</ele>
        <time>2017-06-26T08:47:20Z</time>
      </trkpt>
      <trkpt lat="48.57251" lon="6.43988">
        <ele>277</ele>
        <time>2017-06-26T08:47:21Z</time>
      </trkpt>
      <trkpt lat="48.57249" lon="6.43984">
        <ele>277</ele>
        <time>2017-06-26T08:47:22Z</time>
      </trkpt>
      <trkpt lat="48.57247" lon="6.43981">
        <ele>277</ele>
        <time>2017-06-26T08:47:23Z</time>
      </trkpt>
      <trkpt lat="48.57245" lon="6.43978">
        <ele>277</ele>
        <time>2017-06-26T08:47:24Z</time>
      </trkpt>
      <trkpt lat="48.57243" lon="6.43975">
        <ele>278</ele>
        <time>2017-06-26T08:47:25Z</time>
      </trkpt>
      <trkpt lat="48.57241" lon="6.43972">
        <ele>278</ele>
        <time>2017-06-26T08:47:26Z</time>
      </trkpt>
      <trkpt lat="48.57238" lon="6.4397">
        <ele>278</ele>
        <time>2017-06-26T08:47:27Z</time>
      </trkpt>
      <trkpt lat="48.57236" lon="6.43968">
        <ele>279</ele>
        <time>2017-06-26T08:47:28Z</time>
      </trkpt>
      <trkpt lat="48.57234" lon="6.43966">
        <ele>279</ele>
        <time>2017-06-26T08:47:29Z</time>
      </trkpt>
      <trkpt lat="48.57232" lon="6.43962">
        <ele>279</ele>
        <time>2017-06-26T08:47:30Z</time>
      </trkpt>
      <trkpt lat="48.57231" lon="6.43959">
        <ele>279</ele>
        <time>2017-06-26T08:47:31Z</time>
      </trkpt>
      <trkpt lat="48.57229" lon="6.43955">
        <ele>279</ele>
        <time>2017-06-26T08:47:32Z</time>
      </trkpt>
      <trkpt lat="48.57227" lon="6.43951">
        <ele>278</ele>
        <time>2017-06-26T08:47:33Z</time>
      </trkpt>
      <trkpt lat="48.57226" lon="6.43946">
        <ele>278</ele>
        <time>2017-06-26T08:47:34Z</time>
      </trkpt>
      <trkpt lat="48.57224" lon="6.43943">
        <ele>278</ele>
        <time>2017-06-26T08:47:35Z</time>
      </trkpt>
      <trkpt lat="48.57223" lon="6.43939">
        <ele>278</ele>
        <time>2017-06-26T08:47:36Z</time>
      </trkpt>
      <trkpt lat="48.57221" lon="6.43935">
        <ele>277</ele>
        <time>2017-06-26T08:47:37Z</time>
      </trkpt>
      <trkpt lat="48.5722" lon="6.43931">
        <ele>277</ele>
        <time>2017-06-26T08:47:38Z</time>
      </trkpt>
      <trkpt lat="48.57218" lon="6.43927">
        <ele>277</ele>
        <time>2017-06-26T08:47:39Z</time>
      </trkpt>
      <trkpt lat="48.57217" lon="6.43923">
        <ele>276</ele>
        <time>2017-06-26T08:47:40Z</time>
      </trkpt>
      <trkpt lat="48.57215" lon="6.4392">
        <ele>276</ele>
        <time>2017-06-26T08:47:41Z</time>
      </trkpt>
      <trkpt lat="48.57213" lon="6.43915">
        <ele>276</ele>
        <time>2017-06-26T08:47:42Z</time>
      </trkpt>
      <trkpt lat="48.57211" lon="6.43911">
        <ele>276</ele>
        <time>2017-06-26T08:47:43Z</time>
      </trkpt>
      <trkpt lat="48.57209" lon="6.43908">
        <ele>276</ele>
        <time>2017-06-26T08:47:44Z</time>
      </trkpt>
      <trkpt lat="48.57207" lon="6.43905">
        <ele>276</ele>
        <time>2017-06-26T08:47:45Z</time>
      </trkpt>
      <trkpt lat="48.57205" lon="6.43903">
        <ele>276</ele>
        <time>2017-06-26T08:47:46Z</time>
      </trkpt>
      <trkpt lat="48.57203" lon="6.43899">
        <ele>276</ele>
        <time>2017-06-26T08:47:47Z</time>
      </trkpt>
      <trkpt lat="48.57201" lon="6.43896">
        <ele>276</ele>
        <time>2017-06-26T08:47:48Z</time>
      </trkpt>
      <trkpt lat="48.57199" lon="6.43893">
        <ele>276</ele>
        <time>2017-06-26T08:47:49Z</time>
      </trkpt>
      <trkpt lat="48.57198" lon="6.43891">
        <ele>276</ele>
        <time>2017-06-26T08:47:50Z</time>
      </trkpt>
      <trkpt lat="48.57196" lon="6.43888">
        <ele>276</ele>
        <time>2017-06-26T08:47:51Z</time>
      </trkpt>
      <trkpt lat="48.57195" lon="6.43885">
        <ele>276</ele>
        <time>2017-06-26T08:47:52Z</time>
      </trkpt>
      <trkpt lat="48.57193" lon="6.43881">
        <ele>277</ele>
        <time>2017-06-26T08:47:53Z</time>
      </trkpt>
      <trkpt lat="48.57191" lon="6.43876">
        <ele>277</ele>
        <time>2017-06-26T08:47:54Z</time>
      </trkpt>
      <trkpt lat="48.57189" lon="6.43872">
        <ele>276</ele>
        <time>2017-06-26T08:47:55Z</time>
      </trkpt>
      <trkpt lat="48.57187" lon="6.43868">
        <ele>276</ele>
        <time>2017-06-26T08:47:56Z</time>
      </trkpt>
      <trkpt lat="48.57185" lon="6.43866">
        <ele>277</ele>
        <time>2017-06-26T08:47:57Z</time>
      </trkpt>
      <trkpt lat="48.57184" lon="6.43863">
        <ele>277</ele>
        <time>2017-06-26T08:47:58Z</time>
      </trkpt>
      <trkpt lat="48.57182" lon="6.43859">
        <ele>276</ele>
        <time>2017-06-26T08:47:59Z</time>
      </trkpt>
      <trkpt lat="48.57181" lon="6.43855">
        <ele>276</ele>
        <time>2017-06-26T08:48:00Z</time>
      </trkpt>
      <trkpt lat="48.57179" lon="6.43852">
        <ele>276</ele>
        <time>2017-06-26T08:48:01Z</time>
      </trkpt>
      <trkpt lat="48.57177" lon="6.43849">
        <ele>276</ele>
        <time>2017-06-26T08:48:02Z</time>
      </trkpt>
      <trkpt lat="48.57176" lon="6.43844">
        <ele>276</ele>
        <time>2017-06-26T08:48:03Z</time>
      </trkpt>
      <trkpt lat="48.57176" lon="6.4384">
        <ele>276</ele>
        <time>2017-06-26T08:48:04Z</time>
      </trkpt>
      <trkpt lat="48.57177" lon="6.43837">
        <ele>276</ele>
        <time>2017-06-26T08:48:05Z</time>
      </trkpt>
      <trkpt lat="48.57177" lon="6.43833">
        <ele>276</ele>
        <time>2017-06-26T08:48:07Z</time>
      </trkpt>
      <trkpt lat="48.57177" lon="6.43829">
        <ele>276</ele>
        <time>2017-06-26T08:48:08Z</time>
      </trkpt>
      <trkpt lat="48.57178" lon="6.43824">
        <ele>276</ele>
        <time>2017-06-26T08:48:09Z</time>
      </trkpt>
      <trkpt lat="48.57178" lon="6.43821">
        <ele>276</ele>
        <time>2017-06-26T08:48:10Z</time>
      </trkpt>
      <trkpt lat="48.57179" lon="6.43816">
        <ele>276</ele>
        <time>2017-06-26T08:48:11Z</time>
      </trkpt>
      <trkpt lat="48.5718" lon="6.43811">
        <ele>276</ele>
        <time>2017-06-26T08:48:12Z</time>
      </trkpt>
      <trkpt lat="48.57181" lon="6.43806">
        <ele>276</ele>
        <time>2017-06-26T08:48:13Z</time>
      </trkpt>
      <trkpt lat="48.57182" lon="6.43803">
        <ele>276</ele>
        <time>2017-06-26T08:48:14Z</time>
      </trkpt>
      <trkpt lat="48.57184" lon="6.438">
        <ele>276</ele>
        <time>2017-06-26T08:48:15Z</time>
      </trkpt>
      <trkpt lat="48.57185" lon="6.43796">
        <ele>276</ele>
        <time>2017-06-26T08:48:16Z</time>
      </trkpt>
      <trkpt lat="48.57186" lon="6.43793">
        <ele>276</ele>
        <time>2017-06-26T08:48:17Z</time>
      </trkpt>
      <trkpt lat="48.57188" lon="6.4379">
        <ele>276</ele>
        <time>2017-06-26T08:48:18Z</time>
      </trkpt>
      <trkpt lat="48.57189" lon="6.43786">
        <ele>276</ele>
        <time>2017-06-26T08:48:19Z</time>
      </trkpt>
      <trkpt lat="48.5719" lon="6.43782">
        <ele>276</ele>
        <time>2017-06-26T08:48:20Z</time>
      </trkpt>
      <trkpt lat="48.57192" lon="6.43778">
        <ele>276</ele>
        <time>2017-06-26T08:48:21Z</time>
      </trkpt>
      <trkpt lat="48.57195" lon="6.43775">
        <ele>276</ele>
        <time>2017-06-26T08:48:22Z</time>
      </trkpt>
      <trkpt lat="48.57196" lon="6.43772">
        <ele>276</ele>
        <time>2017-06-26T08:48:23Z</time>
      </trkpt>
      <trkpt lat="48.57197" lon="6.43769">
        <ele>276</ele>
        <time>2017-06-26T08:48:24Z</time>
      </trkpt>
      <trkpt lat="48.57198" lon="6.43766">
        <ele>276</ele>
        <time>2017-06-26T08:48:25Z</time>
      </trkpt>
      <trkpt lat="48.57199" lon="6.43763">
        <ele>276</ele>
        <time>2017-06-26T08:48:26Z</time>
      </trkpt>
      <trkpt lat="48.572" lon="6.4376">
        <ele>276</ele>
        <time>2017-06-26T08:48:27Z</time>
      </trkpt>
      <trkpt lat="48.57201" lon="6.43756">
        <ele>276</ele>
        <time>2017-06-26T08:48:28Z</time>
      </trkpt>
      <trkpt lat="48.57202" lon="6.43753">
        <ele>276</ele>
        <time>2017-06-26T08:48:29Z</time>
      </trkpt>
      <trkpt lat="48.57203" lon="6.43751">
        <ele>276</ele>
        <time>2017-06-26T08:48:30Z</time>
      </trkpt>
      <trkpt lat="48.57204" lon="6.43748">
        <ele>276</ele>
        <time>2017-06-26T08:48:31Z</time>
      </trkpt>
      <trkpt lat="48.57205" lon="6.43745">
        <ele>276</ele>
        <time>2017-06-26T08:48:32Z</time>
      </trkpt>
      <trkpt lat="48.57206" lon="6.43742">
        <ele>276</ele>
        <time>2017-06-26T08:48:33Z</time>
      </trkpt>
      <trkpt lat="48.57207" lon="6.43739">
        <ele>276</ele>
        <time>2017-06-26T08:48:34Z</time>
      </trkpt>
      <trkpt lat="48.57208" lon="6.43736">
        <ele>276</ele>
        <time>2017-06-26T08:48:35Z</time>
      </trkpt>
      <trkpt lat="48.57209" lon="6.43733">
        <ele>276</ele>
        <time>2017-06-26T08:48:36Z</time>
      </trkpt>
      <trkpt lat="48.5721" lon="6.43731">
        <ele>275</ele>
        <time>2017-06-26T08:48:37Z</time>
      </trkpt>
      <trkpt lat="48.57211" lon="6.43728">
        <ele>276</ele>
        <time>2017-06-26T08:48:38Z</time>
      </trkpt>
      <trkpt lat="48.57213" lon="6.4372">
        <ele>275</ele>
        <time>2017-06-26T08:48:39Z</time>
      </trkpt>
      <trkpt lat="48.57215" lon="6.43716">
        <ele>275</ele>
        <time>2017-06-26T08:48:40Z</time>
      </trkpt>
      <trkpt lat="48.57216" lon="6.43711">
        <ele>275</ele>
        <time>2017-06-26T08:48:41Z</time>
      </trkpt>
      <trkpt lat="48.57217" lon="6.43707">
        <ele>276</ele>
        <time>2017-06-26T08:48:42Z</time>
      </trkpt>
      <trkpt lat="48.57218" lon="6.43703">
        <ele>275</ele>
        <time>2017-06-26T08:48:43Z</time>
      </trkpt>
      <trkpt lat="48.5722" lon="6.43699">
        <ele>275</ele>
        <time>2017-06-26T08:48:44Z</time>
      </trkpt>
      <trkpt lat="48.57222" lon="6.43691">
        <ele>275</ele>
        <time>2017-06-26T08:48:45Z</time>
      </trkpt>
      <trkpt lat="48.57223" lon="6.43688">
        <ele>275</ele>
        <time>2017-06-26T08:48:46Z</time>
      </trkpt>
      <trkpt lat="48.57224" lon="6.43684">
        <ele>275</ele>
        <time>2017-06-26T08:48:47Z</time>
      </trkpt>
      <trkpt lat="48.57225" lon="6.43681">
        <ele>275</ele>
        <time>2017-06-26T08:48:48Z</time>
      </trkpt>
      <trkpt lat="48.57226" lon="6.43678">
        <ele>275</ele>
        <time>2017-06-26T08:48:49Z</time>
      </trkpt>
      <trkpt lat="48.57227" lon="6.43675">
        <ele>275</ele>
        <time>2017-06-26T08:48:50Z</time>
      </trkpt>
      <trkpt lat="48.57229" lon="6.43672">
        <ele>275</ele>
        <time>2017-06-26T08:48:51Z</time>
      </trkpt>
      <trkpt lat="48.5723" lon="6.43668">
        <ele>275</ele>
        <time>2017-06-26T08:48:52Z</time>
      </trkpt>
      <trkpt lat="48.57232" lon="6.43665">
        <ele>275</ele>
        <time>2017-06-26T08:48:53Z</time>
      </trkpt>
      <trkpt lat="48.57233" lon="6.43661">
        <ele>274</ele>
        <time>2017-06-26T08:48:54Z</time>
      </trkpt>
      <trkpt lat="48.57234" lon="6.43657">
        <ele>275</ele>
        <time>2017-06-26T08:48:55Z</time>
      </trkpt>
      <trkpt lat="48.57235" lon="6.43654">
        <ele>275</ele>
        <time>2017-06-26T08:48:56Z</time>
      </trkpt>
      <trkpt lat="48.57237" lon="6.43651">
        <ele>275</ele>
        <time>2017-06-26T08:48:57Z</time>
      </trkpt>
      <trkpt lat="48.57238" lon="6.43648">
        <ele>275</ele>
        <time>2017-06-26T08:48:58Z</time>
      </trkpt>
      <trkpt lat="48.57239" lon="6.43646">
        <ele>275</ele>
        <time>2017-06-26T08:48:59Z</time>
      </trkpt>
      <trkpt lat="48.5724" lon="6.43644">
        <ele>276</ele>
        <time>2017-06-26T08:49:00Z</time>
      </trkpt>
      <trkpt lat="48.57241" lon="6.4364">
        <ele>276</ele>
        <time>2017-06-26T08:49:01Z</time>
      </trkpt>
      <trkpt lat="48.57242" lon="6.43638">
        <ele>276</ele>
        <time>2017-06-26T08:49:02Z</time>
      </trkpt>
      <trkpt lat="48.57242" lon="6.43635">
        <ele>277</ele>
        <time>2017-06-26T08:49:03Z</time>
      </trkpt>
      <trkpt lat="48.57243" lon="6.43632">
        <ele>277</ele>
        <time>2017-06-26T08:49:04Z</time>
      </trkpt>
      <trkpt lat="48.57245" lon="6.43628">
        <ele>277</ele>
        <time>2017-06-26T08:49:06Z</time>
      </trkpt>
      <trkpt lat="48.57247" lon="6.43624">
        <ele>277</ele>
        <time>2017-06-26T08:49:08Z</time>
      </trkpt>
      <trkpt lat="48.57249" lon="6.43621">
        <ele>277</ele>
        <time>2017-06-26T08:49:09Z</time>
      </trkpt>
      <trkpt lat="48.57251" lon="6.43619">
        <ele>278</ele>
        <time>2017-06-26T08:49:10Z</time>
      </trkpt>
      <trkpt lat="48.57253" lon="6.43616">
        <ele>277</ele>
        <time>2017-06-26T08:49:11Z</time>
      </trkpt>
      <trkpt lat="48.57255" lon="6.43613">
        <ele>277</ele>
        <time>2017-06-26T08:49:12Z</time>
      </trkpt>
      <trkpt lat="48.57256" lon="6.43609">
        <ele>277</ele>
        <time>2017-06-26T08:49:13Z</time>
      </trkpt>
      <trkpt lat="48.57258" lon="6.43606">
        <ele>277</ele>
        <time>2017-06-26T08:49:14Z</time>
      </trkpt>
      <trkpt lat="48.57259" lon="6.43602">
        <ele>277</ele>
        <time>2017-06-26T08:49:15Z</time>
      </trkpt>
      <trkpt lat="48.5726" lon="6.43598">
        <ele>277</ele>
        <time>2017-06-26T08:49:16Z</time>
      </trkpt>
      <trkpt lat="48.57261" lon="6.43594">
        <ele>277</ele>
        <time>2017-06-26T08:49:17Z</time>
      </trkpt>
      <trkpt lat="48.57262" lon="6.43589">
        <ele>277</ele>
        <time>2017-06-26T08:49:18Z</time>
      </trkpt>
      <trkpt lat="48.57264" lon="6.43585">
        <ele>277</ele>
        <time>2017-06-26T08:49:19Z</time>
      </trkpt>
      <trkpt lat="48.57265" lon="6.43581">
        <ele>277</ele>
        <time>2017-06-26T08:49:20Z</time>
      </trkpt>
      <trkpt lat="48.57266" lon="6.43577">
        <ele>277</ele>
        <time>2017-06-26T08:49:21Z</time>
      </trkpt>
      <trkpt lat="48.57269" lon="6.43569">
        <ele>276</ele>
        <time>2017-06-26T08:49:22Z</time>
      </trkpt>
      <trkpt lat="48.5727" lon="6.43564">
        <ele>276</ele>
        <time>2017-06-26T08:49:23Z</time>
      </trkpt>
      <trkpt lat="48.57271" lon="6.4356">
        <ele>276</ele>
        <time>2017-06-26T08:49:24Z</time>
      </trkpt>
      <trkpt lat="48.57273" lon="6.43555">
        <ele>277</ele>
        <time>2017-06-26T08:49:25Z</time>
      </trkpt>
      <trkpt lat="48.57273" lon="6.4355">
        <ele>277</ele>
        <time>2017-06-26T08:49:26Z</time>
      </trkpt>
      <trkpt lat="48.57275" lon="6.43547">
        <ele>277</ele>
        <time>2017-06-26T08:49:27Z</time>
      </trkpt>
      <trkpt lat="48.57276" lon="6.43544">
        <ele>277</ele>
        <time>2017-06-26T08:49:28Z</time>
      </trkpt>
      <trkpt lat="48.57277" lon="6.43542">
        <ele>277</ele>
        <time>2017-06-26T08:49:29Z</time>
      </trkpt>
      <trkpt lat="48.5728" lon="6.43538">
        <ele>276</ele>
        <time>2017-06-26T08:49:31Z</time>
      </trkpt>
      <trkpt lat="48.57281" lon="6.43535">
        <ele>276</ele>
        <time>2017-06-26T08:49:32Z</time>
      </trkpt>
      <trkpt lat="48.57282" lon="6.43532">
        <ele>276</ele>
        <time>2017-06-26T08:49:33Z</time>
      </trkpt>
      <trkpt lat="48.57284" lon="6.43529">
        <ele>276</ele>
        <time>2017-06-26T08:49:34Z</time>
      </trkpt>
      <trkpt lat="48.57285" lon="6.43526">
        <ele>276</ele>
        <time>2017-06-26T08:49:35Z</time>
      </trkpt>
      <trkpt lat="48.57286" lon="6.43523">
        <ele>277</ele>
        <time>2017-06-26T08:49:36Z</time>
      </trkpt>
      <trkpt lat="48.57287" lon="6.4352">
        <ele>277</ele>
        <time>2017-06-26T08:49:37Z</time>
      </trkpt>
      <trkpt lat="48.57288" lon="6.43513">
        <ele>277</ele>
        <time>2017-06-26T08:49:38Z</time>
      </trkpt>
      <trkpt lat="48.5729" lon="6.43506">
        <ele>276</ele>
        <time>2017-06-26T08:49:39Z</time>
      </trkpt>
      <trkpt lat="48.57293" lon="6.43497">
        <ele>275</ele>
        <time>2017-06-26T08:49:40Z</time>
      </trkpt>
      <trkpt lat="48.57295" lon="6.43488">
        <ele>275</ele>
        <time>2017-06-26T08:49:41Z</time>
      </trkpt>
      <trkpt lat="48.57297" lon="6.43486">
        <ele>275</ele>
        <time>2017-06-26T08:49:42Z</time>
      </trkpt>
      <trkpt lat="48.57299" lon="6.43484">
        <ele>275</ele>
        <time>2017-06-26T08:49:43Z</time>
      </trkpt>
      <trkpt lat="48.573" lon="6.43482">
        <ele>275</ele>
        <time>2017-06-26T08:49:44Z</time>
      </trkpt>
      <trkpt lat="48.57302" lon="6.4348">
        <ele>275</ele>
        <time>2017-06-26T08:49:45Z</time>
      </trkpt>
      <trkpt lat="48.57304" lon="6.43476">
        <ele>275</ele>
        <time>2017-06-26T08:49:46Z</time>
      </trkpt>
      <trkpt lat="48.57306" lon="6.43472">
        <ele>274</ele>
        <time>2017-06-26T08:49:47Z</time>
      </trkpt>
      <trkpt lat="48.57309" lon="6.43468">
        <ele>275</ele>
        <time>2017-06-26T08:49:48Z</time>
      </trkpt>
      <trkpt lat="48.57309" lon="6.43467">
        <ele>274</ele>
        <time>2017-06-26T08:49:49Z</time>
      </trkpt>
      <trkpt lat="48.57309" lon="6.43465">
        <ele>274</ele>
        <time>2017-06-26T08:49:50Z</time>
      </trkpt>
      <trkpt lat="48.5731" lon="6.43463">
        <ele>274</ele>
        <time>2017-06-26T08:49:51Z</time>
      </trkpt>
      <trkpt lat="48.57311" lon="6.4346">
        <ele>274</ele>
        <time>2017-06-26T08:49:52Z</time>
      </trkpt>
      <trkpt lat="48.57311" lon="6.43456">
        <ele>274</ele>
        <time>2017-06-26T08:49:53Z</time>
      </trkpt>
      <trkpt lat="48.57312" lon="6.43453">
        <ele>274</ele>
        <time>2017-06-26T08:49:54Z</time>
      </trkpt>
      <trkpt lat="48.57313" lon="6.43449">
        <ele>274</ele>
        <time>2017-06-26T08:49:55Z</time>
      </trkpt>
      <trkpt lat="48.57314" lon="6.43445">
        <ele>274</ele>
        <time>2017-06-26T08:49:56Z</time>
      </trkpt>
      <trkpt lat="48.57315" lon="6.43442">
        <ele>274</ele>
        <time>2017-06-26T08:49:57Z</time>
      </trkpt>
      <trkpt lat="48.57318" lon="6.43435">
        <ele>274</ele>
        <time>2017-06-26T08:49:58Z</time>
      </trkpt>
      <trkpt lat="48.57319" lon="6.43432">
        <ele>274</ele>
        <time>2017-06-26T08:49:59Z</time>
      </trkpt>
      <trkpt lat="48.57321" lon="6.43428">
        <ele>274</ele>
        <time>2017-06-26T08:50:00Z</time>
      </trkpt>
      <trkpt lat="48.57324" lon="6.43422">
        <ele>274</ele>
        <time>2017-06-26T08:50:01Z</time>
      </trkpt>
      <trkpt lat="48.57327" lon="6.43418">
        <ele>274</ele>
        <time>2017-06-26T08:50:02Z</time>
      </trkpt>
      <trkpt lat="48.57328" lon="6.43416">
        <ele>274</ele>
        <time>2017-06-26T08:50:03Z</time>
      </trkpt>
      <trkpt lat="48.5733" lon="6.43413">
        <ele>274</ele>
        <time>2017-06-26T08:50:04Z</time>
      </trkpt>
      <trkpt lat="48.57331" lon="6.43411">
        <ele>274</ele>
        <time>2017-06-26T08:50:05Z</time>
      </trkpt>
      <trkpt lat="48.57332" lon="6.43408">
        <ele>274</ele>
        <time>2017-06-26T08:50:06Z</time>
      </trkpt>
      <trkpt lat="48.57331" lon="6.43405">
        <ele>273</ele>
        <time>2017-06-26T08:50:08Z</time>
      </trkpt>
      <trkpt lat="48.57329" lon="6.43402">
        <ele>272</ele>
        <time>2017-06-26T08:50:09Z</time>
      </trkpt>
      <trkpt lat="48.57328" lon="6.43399">
        <ele>272</ele>
        <time>2017-06-26T08:50:10Z</time>
      </trkpt>
      <trkpt lat="48.57327" lon="6.43395">
        <ele>273</ele>
        <time>2017-06-26T08:50:11Z</time>
      </trkpt>
      <trkpt lat="48.57327" lon="6.43392">
        <ele>273</ele>
        <time>2017-06-26T08:50:12Z</time>
      </trkpt>
      <trkpt lat="48.57326" lon="6.43389">
        <ele>273</ele>
        <time>2017-06-26T08:50:13Z</time>
      </trkpt>
      <trkpt lat="48.57325" lon="6.43386">
        <ele>273</ele>
        <time>2017-06-26T08:50:14Z</time>
      </trkpt>
      <trkpt lat="48.57324" lon="6.43383">
        <ele>273</ele>
        <time>2017-06-26T08:50:15Z</time>
      </trkpt>
      <trkpt lat="48.57322" lon="6.4338">
        <ele>273</ele>
        <time>2017-06-26T08:50:16Z</time>
      </trkpt>
      <trkpt lat="48.57321" lon="6.43378">
        <ele>273</ele>
        <time>2017-06-26T08:50:17Z</time>
      </trkpt>
      <trkpt lat="48.57319" lon="6.43375">
        <ele>273</ele>
        <time>2017-06-26T08:50:18Z</time>
      </trkpt>
      <trkpt lat="48.57318" lon="6.43371">
        <ele>273</ele>
        <time>2017-06-26T08:50:19Z</time>
      </trkpt>
      <trkpt lat="48.57317" lon="6.43368">
        <ele>273</ele>
        <time>2017-06-26T08:50:20Z</time>
      </trkpt>
      <trkpt lat="48.57315" lon="6.43365">
        <ele>273</ele>
        <time>2017-06-26T08:50:21Z</time>
      </trkpt>
      <trkpt lat="48.57313" lon="6.43362">
        <ele>273</ele>
        <time>2017-06-26T08:50:22Z</time>
      </trkpt>
      <trkpt lat="48.57311" lon="6.4336">
        <ele>273</ele>
        <time>2017-06-26T08:50:23Z</time>
      </trkpt>
      <trkpt lat="48.57309" lon="6.43357">
        <ele>274</ele>
        <time>2017-06-26T08:50:24Z</time>
      </trkpt>
      <trkpt lat="48.57307" lon="6.43354">
        <ele>274</ele>
        <time>2017-06-26T08:50:25Z</time>
      </trkpt>
      <trkpt lat="48.57306" lon="6.43351">
        <ele>274</ele>
        <time>2017-06-26T08:50:26Z</time>
      </trkpt>
      <trkpt lat="48.57304" lon="6.43348">
        <ele>274</ele>
        <time>2017-06-26T08:50:27Z</time>
      </trkpt>
      <trkpt lat="48.57301" lon="6.43344">
        <ele>274</ele>
        <time>2017-06-26T08:50:28Z</time>
      </trkpt>
      <trkpt lat="48.57299" lon="6.43342">
        <ele>274</ele>
        <time>2017-06-26T08:50:29Z</time>
      </trkpt>
      <trkpt lat="48.57297" lon="6.43339">
        <ele>274</ele>
        <time>2017-06-26T08:50:30Z</time>
      </trkpt>
      <trkpt lat="48.57294" lon="6.43336">
        <ele>275</ele>
        <time>2017-06-26T08:50:31Z</time>
      </trkpt>
      <trkpt lat="48.57292" lon="6.43334">
        <ele>275</ele>
        <time>2017-06-26T08:50:32Z</time>
      </trkpt>
      <trkpt lat="48.5729" lon="6.43331">
        <ele>275</ele>
        <time>2017-06-26T08:50:33Z</time>
      </trkpt>
      <trkpt lat="48.57288" lon="6.43327">
        <ele>275</ele>
        <time>2017-06-26T08:50:34Z</time>
      </trkpt>
      <trkpt lat="48.57286" lon="6.43324">
        <ele>276</ele>
        <time>2017-06-26T08:50:35Z</time>
      </trkpt>
      <trkpt lat="48.57284" lon="6.43321">
        <ele>276</ele>
        <time>2017-06-26T08:50:36Z</time>
      </trkpt>
      <trkpt lat="48.57283" lon="6.43317">
        <ele>276</ele>
        <time>2017-06-26T08:50:37Z</time>
      </trkpt>
      <trkpt lat="48.57281" lon="6.43315">
        <ele>276</ele>
        <time>2017-06-26T08:50:38Z</time>
      </trkpt>
      <trkpt lat="48.57279" lon="6.43311">
        <ele>276</ele>
        <time>2017-06-26T08:50:39Z</time>
      </trkpt>
      <trkpt lat="48.57277" lon="6.43307">
        <ele>276</ele>
        <time>2017-06-26T08:50:40Z</time>
      </trkpt>
      <trkpt lat="48.57276" lon="6.43303">
        <ele>276</ele>
        <time>2017-06-26T08:50:41Z</time>
      </trkpt>
      <trkpt lat="48.57274" lon="6.43299">
        <ele>276</ele>
        <time>2017-06-26T08:50:42Z</time>
      </trkpt>
      <trkpt lat="48.57272" lon="6.43295">
        <ele>276</ele>
        <time>2017-06-26T08:50:43Z</time>
      </trkpt>
      <trkpt lat="48.5727" lon="6.43292">
        <ele>276</ele>
        <time>2017-06-26T08:50:44Z</time>
      </trkpt>
      <trkpt lat="48.57268" lon="6.43288">
        <ele>277</ele>
        <time>2017-06-26T08:50:45Z</time>
      </trkpt>
      <trkpt lat="48.57266" lon="6.43285">
        <ele>277</ele>
        <time>2017-06-26T08:50:46Z</time>
      </trkpt>
      <trkpt lat="48.57264" lon="6.43281">
        <ele>277</ele>
        <time>2017-06-26T08:50:47Z</time>
      </trkpt>
      <trkpt lat="48.57262" lon="6.43278">
        <ele>277</ele>
        <time>2017-06-26T08:50:48Z</time>
      </trkpt>
      <trkpt lat="48.5726" lon="6.43275">
        <ele>277</ele>
        <time>2017-06-26T08:50:49Z</time>
      </trkpt>
      <trkpt lat="48.57258" lon="6.43271">
        <ele>277</ele>
        <time>2017-06-26T08:50:50Z</time>
      </trkpt>
      <trkpt lat="48.57257" lon="6.43267">
        <ele>277</ele>
        <time>2017-06-26T08:50:51Z</time>
      </trkpt>
      <trkpt lat="48.57255" lon="6.43264">
        <ele>277</ele>
        <time>2017-06-26T08:50:52Z</time>
      </trkpt>
      <trkpt lat="48.57254" lon="6.43261">
        <ele>277</ele>
        <time>2017-06-26T08:50:53Z</time>
      </trkpt>
      <trkpt lat="48.57252" lon="6.43257">
        <ele>277</ele>
        <time>2017-06-26T08:50:54Z</time>
      </trkpt>
      <trkpt lat="48.57251" lon="6.43253">
        <ele>277</ele>
        <time>2017-06-26T08:50:55Z</time>
      </trkpt>
      <trkpt lat="48.5725" lon="6.43249">
        <ele>276</ele>
        <time>2017-06-26T08:50:56Z</time>
      </trkpt>
      <trkpt lat="48.57248" lon="6.43246">
        <ele>276</ele>
        <time>2017-06-26T08:50:57Z</time>
      </trkpt>
      <trkpt lat="48.57246" lon="6.43239">
        <ele>276</ele>
        <time>2017-06-26T08:50:58Z</time>
      </trkpt>
      <trkpt lat="48.57244" lon="6.43232">
        <ele>275</ele>
        <time>2017-06-26T08:50:59Z</time>
      </trkpt>
      <trkpt lat="48.57243" lon="6.43227">
        <ele>275</ele>
        <time>2017-06-26T08:51:00Z</time>
      </trkpt>
      <trkpt lat="48.57242" lon="6.43223">
        <ele>275</ele>
        <time>2017-06-26T08:51:01Z</time>
      </trkpt>
      <trkpt lat="48.57242" lon="6.43218">
        <ele>275</ele>
        <time>2017-06-26T08:51:02Z</time>
      </trkpt>
      <trkpt lat="48.5724" lon="6.43215">
        <ele>275</ele>
        <time>2017-06-26T08:51:03Z</time>
      </trkpt>
      <trkpt lat="48.5724" lon="6.43211">
        <ele>275</ele>
        <time>2017-06-26T08:51:04Z</time>
      </trkpt>
      <trkpt lat="48.57239" lon="6.43206">
        <ele>275</ele>
        <time>2017-06-26T08:51:05Z</time>
      </trkpt>
      <trkpt lat="48.5724" lon="6.43201">
        <ele>275</ele>
        <time>2017-06-26T08:51:06Z</time>
      </trkpt>
      <trkpt lat="48.5724" lon="6.43197">
        <ele>275</ele>
        <time>2017-06-26T08:51:07Z</time>
      </trkpt>
      <trkpt lat="48.5724" lon="6.43193">
        <ele>275</ele>
        <time>2017-06-26T08:51:08Z</time>
      </trkpt>
      <trkpt lat="48.5724" lon="6.43189">
        <ele>275</ele>
        <time>2017-06-26T08:51:09Z</time>
      </trkpt>
      <trkpt lat="48.5724" lon="6.43181">
        <ele>274</ele>
        <time>2017-06-26T08:51:10Z</time>
      </trkpt>
      <trkpt lat="48.57239" lon="6.43174">
        <ele>274</ele>
        <time>2017-06-26T08:51:11Z</time>
      </trkpt>
      <trkpt lat="48.5724" lon="6.43169">
        <ele>274</ele>
        <time>2017-06-26T08:51:12Z</time>
      </trkpt>
      <trkpt lat="48.5724" lon="6.43164">
        <ele>273</ele>
        <time>2017-06-26T08:51:13Z</time>
      </trkpt>
      <trkpt lat="48.57241" lon="6.43159">
        <ele>273</ele>
        <time>2017-06-26T08:51:14Z</time>
      </trkpt>
      <trkpt lat="48.57242" lon="6.43154">
        <ele>273</ele>
        <time>2017-06-26T08:51:15Z</time>
      </trkpt>
      <trkpt lat="48.57242" lon="6.4315">
        <ele>273</ele>
        <time>2017-06-26T08:51:16Z</time>
      </trkpt>
      <trkpt lat="48.57243" lon="6.43146">
        <ele>273</ele>
        <time>2017-06-26T08:51:17Z</time>
      </trkpt>
      <trkpt lat="48.57244" lon="6.43143">
        <ele>273</ele>
        <time>2017-06-26T08:51:18Z</time>
      </trkpt>
      <trkpt lat="48.57245" lon="6.43139">
        <ele>273</ele>
        <time>2017-06-26T08:51:19Z</time>
      </trkpt>
      <trkpt lat="48.57245" lon="6.43135">
        <ele>273</ele>
        <time>2017-06-26T08:51:20Z</time>
      </trkpt>
      <trkpt lat="48.57246" lon="6.43131">
        <ele>273</ele>
        <time>2017-06-26T08:51:21Z</time>
      </trkpt>
      <trkpt lat="48.57246" lon="6.43127">
        <ele>273</ele>
        <time>2017-06-26T08:51:22Z</time>
      </trkpt>
      <trkpt lat="48.57247" lon="6.43123">
        <ele>273</ele>
        <time>2017-06-26T08:51:23Z</time>
      </trkpt>
      <trkpt lat="48.57247" lon="6.43117">
        <ele>273</ele>
        <time>2017-06-26T08:51:24Z</time>
      </trkpt>
      <trkpt lat="48.57248" lon="6.43113">
        <ele>273</ele>
        <time>2017-06-26T08:51:25Z</time>
      </trkpt>
      <trkpt lat="48.57248" lon="6.43108">
        <ele>273</ele>
        <time>2017-06-26T08:51:26Z</time>
      </trkpt>
      <trkpt lat="48.57249" lon="6.43104">
        <ele>273</ele>
        <time>2017-06-26T08:51:27Z</time>
      </trkpt>
      <trkpt lat="48.5725" lon="6.431">
        <ele>273</ele>
        <time>2017-06-26T08:51:28Z</time>
      </trkpt>
      <trkpt lat="48.5725" lon="6.43096">
        <ele>272</ele>
        <time>2017-06-26T08:51:29Z</time>
      </trkpt>
      <trkpt lat="48.57251" lon="6.43092">
        <ele>272</ele>
        <time>2017-06-26T08:51:30Z</time>
      </trkpt>
      <trkpt lat="48.57252" lon="6.43088">
        <ele>272</ele>
        <time>2017-06-26T08:51:31Z</time>
      </trkpt>
      <trkpt lat="48.57252" lon="6.43083">
        <ele>272</ele>
        <time>2017-06-26T08:51:32Z</time>
      </trkpt>
      <trkpt lat="48.57253" lon="6.43079">
        <ele>272</ele>
        <time>2017-06-26T08:51:33Z</time>
      </trkpt>
      <trkpt lat="48.57253" lon="6.43074">
        <ele>271</ele>
        <time>2017-06-26T08:51:34Z</time>
      </trkpt>
      <trkpt lat="48.57254" lon="6.4307">
        <ele>271</ele>
        <time>2017-06-26T08:51:35Z</time>
      </trkpt>
      <trkpt lat="48.57255" lon="6.43065">
        <ele>271</ele>
        <time>2017-06-26T08:51:36Z</time>
      </trkpt>
      <trkpt lat="48.57255" lon="6.4306">
        <ele>271</ele>
        <time>2017-06-26T08:51:37Z</time>
      </trkpt>
      <trkpt lat="48.57256" lon="6.43055">
        <ele>271</ele>
        <time>2017-06-26T08:51:38Z</time>
      </trkpt>
      <trkpt lat="48.57257" lon="6.4305">
        <ele>271</ele>
        <time>2017-06-26T08:51:39Z</time>
      </trkpt>
      <trkpt lat="48.57258" lon="6.43045">
        <ele>271</ele>
        <time>2017-06-26T08:51:40Z</time>
      </trkpt>
      <trkpt lat="48.57258" lon="6.43042">
        <ele>271</ele>
        <time>2017-06-26T08:51:41Z</time>
      </trkpt>
      <trkpt lat="48.57259" lon="6.43037">
        <ele>271</ele>
        <time>2017-06-26T08:51:42Z</time>
      </trkpt>
      <trkpt lat="48.57259" lon="6.43033">
        <ele>270</ele>
        <time>2017-06-26T08:51:43Z</time>
      </trkpt>
      <trkpt lat="48.5726" lon="6.43029">
        <ele>270</ele>
        <time>2017-06-26T08:51:44Z</time>
      </trkpt>
      <trkpt lat="48.57261" lon="6.43025">
        <ele>270</ele>
        <time>2017-06-26T08:51:45Z</time>
      </trkpt>
      <trkpt lat="48.57261" lon="6.43021">
        <ele>270</ele>
        <time>2017-06-26T08:51:46Z</time>
      </trkpt>
      <trkpt lat="48.57262" lon="6.43017">
        <ele>270</ele>
        <time>2017-06-26T08:51:47Z</time>
      </trkpt>
      <trkpt lat="48.57263" lon="6.43013">
        <ele>270</ele>
        <time>2017-06-26T08:51:48Z</time>
      </trkpt>
      <trkpt lat="48.57264" lon="6.43008">
        <ele>270</ele>
        <time>2017-06-26T08:51:49Z</time>
      </trkpt>
      <trkpt lat="48.57264" lon="6.43004">
        <ele>270</ele>
        <time>2017-06-26T08:51:50Z</time>
      </trkpt>
      <trkpt lat="48.57265" lon="6.43">
        <ele>270</ele>
        <time>2017-06-26T08:51:51Z</time>
      </trkpt>
      <trkpt lat="48.57267" lon="6.42995">
        <ele>270</ele>
        <time>2017-06-26T08:51:52Z</time>
      </trkpt>
      <trkpt lat="48.57268" lon="6.4299">
        <ele>269</ele>
        <time>2017-06-26T08:51:53Z</time>
      </trkpt>
      <trkpt lat="48.57269" lon="6.42985">
        <ele>269</ele>
        <time>2017-06-26T08:51:54Z</time>
      </trkpt>
      <trkpt lat="48.5727" lon="6.42981">
        <ele>269</ele>
        <time>2017-06-26T08:51:55Z</time>
      </trkpt>
      <trkpt lat="48.57271" lon="6.42978">
        <ele>269</ele>
        <time>2017-06-26T08:51:56Z</time>
      </trkpt>
      <trkpt lat="48.57272" lon="6.42974">
        <ele>270</ele>
        <time>2017-06-26T08:51:57Z</time>
      </trkpt>
      <trkpt lat="48.57274" lon="6.4297">
        <ele>270</ele>
        <time>2017-06-26T08:51:58Z</time>
      </trkpt>
      <trkpt lat="48.57275" lon="6.42967">
        <ele>270</ele>
        <time>2017-06-26T08:51:59Z</time>
      </trkpt>
      <trkpt lat="48.57276" lon="6.42963">
        <ele>270</ele>
        <time>2017-06-26T08:52:00Z</time>
      </trkpt>
      <trkpt lat="48.57278" lon="6.42959">
        <ele>270</ele>
        <time>2017-06-26T08:52:01Z</time>
      </trkpt>
      <trkpt lat="48.57279" lon="6.42956">
        <ele>270</ele>
        <time>2017-06-26T08:52:02Z</time>
      </trkpt>
      <trkpt lat="48.57281" lon="6.42952">
        <ele>270</ele>
        <time>2017-06-26T08:52:03Z</time>
      </trkpt>
      <trkpt lat="48.57283" lon="6.42948">
        <ele>270</ele>
        <time>2017-06-26T08:52:04Z</time>
      </trkpt>
      <trkpt lat="48.57286" lon="6.42944">
        <ele>270</ele>
        <time>2017-06-26T08:52:05Z</time>
      </trkpt>
      <trkpt lat="48.57288" lon="6.4294">
        <ele>270</ele>
        <time>2017-06-26T08:52:06Z</time>
      </trkpt>
      <trkpt lat="48.5729" lon="6.42936">
        <ele>270</ele>
        <time>2017-06-26T08:52:07Z</time>
      </trkpt>
      <trkpt lat="48.57292" lon="6.42932">
        <ele>270</ele>
        <time>2017-06-26T08:52:08Z</time>
      </trkpt>
      <trkpt lat="48.57295" lon="6.42929">
        <ele>270</ele>
        <time>2017-06-26T08:52:09Z</time>
      </trkpt>
      <trkpt lat="48.57297" lon="6.42926">
        <ele>270</ele>
        <time>2017-06-26T08:52:10Z</time>
      </trkpt>
      <trkpt lat="48.57299" lon="6.42923">
        <ele>270</ele>
        <time>2017-06-26T08:52:11Z</time>
      </trkpt>
      <trkpt lat="48.57302" lon="6.4292">
        <ele>270</ele>
        <time>2017-06-26T08:52:12Z</time>
      </trkpt>
      <trkpt lat="48.57304" lon="6.42917">
        <ele>270</ele>
        <time>2017-06-26T08:52:13Z</time>
      </trkpt>
      <trkpt lat="48.57307" lon="6.42914">
        <ele>270</ele>
        <time>2017-06-26T08:52:14Z</time>
      </trkpt>
      <trkpt lat="48.57309" lon="6.42911">
        <ele>270</ele>
        <time>2017-06-26T08:52:15Z</time>
      </trkpt>
      <trkpt lat="48.57312" lon="6.42908">
        <ele>269</ele>
        <time>2017-06-26T08:52:16Z</time>
      </trkpt>
      <trkpt lat="48.57314" lon="6.42906">
        <ele>269</ele>
        <time>2017-06-26T08:52:17Z</time>
      </trkpt>
      <trkpt lat="48.57317" lon="6.42904">
        <ele>269</ele>
        <time>2017-06-26T08:52:18Z</time>
      </trkpt>
      <trkpt lat="48.5732" lon="6.42901">
        <ele>269</ele>
        <time>2017-06-26T08:52:19Z</time>
      </trkpt>
      <trkpt lat="48.57322" lon="6.42899">
        <ele>268</ele>
        <time>2017-06-26T08:52:20Z</time>
      </trkpt>
      <trkpt lat="48.57325" lon="6.42896">
        <ele>268</ele>
        <time>2017-06-26T08:52:21Z</time>
      </trkpt>
      <trkpt lat="48.57327" lon="6.42894">
        <ele>268</ele>
        <time>2017-06-26T08:52:22Z</time>
      </trkpt>
      <trkpt lat="48.5733" lon="6.42891">
        <ele>268</ele>
        <time>2017-06-26T08:52:23Z</time>
      </trkpt>
      <trkpt lat="48.57333" lon="6.42888">
        <ele>267</ele>
        <time>2017-06-26T08:52:24Z</time>
      </trkpt>
      <trkpt lat="48.57336" lon="6.42886">
        <ele>267</ele>
        <time>2017-06-26T08:52:25Z</time>
      </trkpt>
      <trkpt lat="48.57338" lon="6.42883">
        <ele>267</ele>
        <time>2017-06-26T08:52:26Z</time>
      </trkpt>
      <trkpt lat="48.57341" lon="6.42881">
        <ele>267</ele>
        <time>2017-06-26T08:52:27Z</time>
      </trkpt>
      <trkpt lat="48.57344" lon="6.42879">
        <ele>267</ele>
        <time>2017-06-26T08:52:28Z</time>
      </trkpt>
      <trkpt lat="48.57346" lon="6.42877">
        <ele>266</ele>
        <time>2017-06-26T08:52:29Z</time>
      </trkpt>
      <trkpt lat="48.57349" lon="6.42875">
        <ele>266</ele>
        <time>2017-06-26T08:52:30Z</time>
      </trkpt>
      <trkpt lat="48.57351" lon="6.42873">
        <ele>266</ele>
        <time>2017-06-26T08:52:31Z</time>
      </trkpt>
      <trkpt lat="48.57354" lon="6.4287">
        <ele>266</ele>
        <time>2017-06-26T08:52:32Z</time>
      </trkpt>
      <trkpt lat="48.57357" lon="6.42868">
        <ele>266</ele>
        <time>2017-06-26T08:52:33Z</time>
      </trkpt>
      <trkpt lat="48.57359" lon="6.42866">
        <ele>266</ele>
        <time>2017-06-26T08:52:34Z</time>
      </trkpt>
      <trkpt lat="48.57361" lon="6.42863">
        <ele>266</ele>
        <time>2017-06-26T08:52:35Z</time>
      </trkpt>
      <trkpt lat="48.57364" lon="6.42861">
        <ele>266</ele>
        <time>2017-06-26T08:52:36Z</time>
      </trkpt>
      <trkpt lat="48.57366" lon="6.42858">
        <ele>266</ele>
        <time>2017-06-26T08:52:37Z</time>
      </trkpt>
      <trkpt lat="48.57368" lon="6.42855">
        <ele>266</ele>
        <time>2017-06-26T08:52:38Z</time>
      </trkpt>
      <trkpt lat="48.5737" lon="6.42853">
        <ele>266</ele>
        <time>2017-06-26T08:52:39Z</time>
      </trkpt>
      <trkpt lat="48.57372" lon="6.4285">
        <ele>266</ele>
        <time>2017-06-26T08:52:40Z</time>
      </trkpt>
      <trkpt lat="48.57375" lon="6.42847">
        <ele>266</ele>
        <time>2017-06-26T08:52:41Z</time>
      </trkpt>
      <trkpt lat="48.57376" lon="6.42843">
        <ele>266</ele>
        <time>2017-06-26T08:52:42Z</time>
      </trkpt>
      <trkpt lat="48.57378" lon="6.42839">
        <ele>266</ele>
        <time>2017-06-26T08:52:43Z</time>
      </trkpt>
      <trkpt lat="48.5738" lon="6.42835">
        <ele>266</ele>
        <time>2017-06-26T08:52:44Z</time>
      </trkpt>
      <trkpt lat="48.57381" lon="6.42831">
        <ele>266</ele>
        <time>2017-06-26T08:52:45Z</time>
      </trkpt>
      <trkpt lat="48.57382" lon="6.42827">
        <ele>266</ele>
        <time>2017-06-26T08:52:46Z</time>
      </trkpt>
      <trkpt lat="48.57383" lon="6.42823">
        <ele>266</ele>
        <time>2017-06-26T08:52:47Z</time>
      </trkpt>
      <trkpt lat="48.57384" lon="6.42819">
        <ele>266</ele>
        <time>2017-06-26T08:52:48Z</time>
      </trkpt>
      <trkpt lat="48.57385" lon="6.42815">
        <ele>266</ele>
        <time>2017-06-26T08:52:49Z</time>
      </trkpt>
      <trkpt lat="48.57387" lon="6.42811">
        <ele>266</ele>
        <time>2017-06-26T08:52:50Z</time>
      </trkpt>
      <trkpt lat="48.57387" lon="6.42806">
        <ele>266</ele>
        <time>2017-06-26T08:52:51Z</time>
      </trkpt>
      <trkpt lat="48.57388" lon="6.42802">
        <ele>266</ele>
        <time>2017-06-26T08:52:52Z</time>
      </trkpt>
      <trkpt lat="48.57389" lon="6.42797">
        <ele>266</ele>
        <time>2017-06-26T08:52:53Z</time>
      </trkpt>
      <trkpt lat="48.5739" lon="6.42794">
        <ele>266</ele>
        <time>2017-06-26T08:52:54Z</time>
      </trkpt>
      <trkpt lat="48.5739" lon="6.4279">
        <ele>266</ele>
        <time>2017-06-26T08:52:55Z</time>
      </trkpt>
      <trkpt lat="48.57391" lon="6.42786">
        <ele>265</ele>
        <time>2017-06-26T08:52:56Z</time>
      </trkpt>
      <trkpt lat="48.57392" lon="6.42782">
        <ele>265</ele>
        <time>2017-06-26T08:52:57Z</time>
      </trkpt>
      <trkpt lat="48.57392" lon="6.42779">
        <ele>265</ele>
        <time>2017-06-26T08:52:58Z</time>
      </trkpt>
      <trkpt lat="48.57393" lon="6.42775">
        <ele>265</ele>
        <time>2017-06-26T08:52:59Z</time>
      </trkpt>
      <trkpt lat="48.57393" lon="6.42772">
        <ele>265</ele>
        <time>2017-06-26T08:53:00Z</time>
      </trkpt>
      <trkpt lat="48.57394" lon="6.42768">
        <ele>265</ele>
        <time>2017-06-26T08:53:01Z</time>
      </trkpt>
      <trkpt lat="48.57394" lon="6.42764">
        <ele>265</ele>
        <time>2017-06-26T08:53:02Z</time>
      </trkpt>
      <trkpt lat="48.57395" lon="6.4276">
        <ele>265</ele>
        <time>2017-06-26T08:53:03Z</time>
      </trkpt>
      <trkpt lat="48.57396" lon="6.42757">
        <ele>265</ele>
        <time>2017-06-26T08:53:04Z</time>
      </trkpt>
      <trkpt lat="48.57396" lon="6.42753">
        <ele>264</ele>
        <time>2017-06-26T08:53:05Z</time>
      </trkpt>
      <trkpt lat="48.57397" lon="6.42749">
        <ele>264</ele>
        <time>2017-06-26T08:53:06Z</time>
      </trkpt>
      <trkpt lat="48.57397" lon="6.42745">
        <ele>264</ele>
        <time>2017-06-26T08:53:07Z</time>
      </trkpt>
      <trkpt lat="48.57398" lon="6.42741">
        <ele>264</ele>
        <time>2017-06-26T08:53:08Z</time>
      </trkpt>
      <trkpt lat="48.57398" lon="6.42737">
        <ele>264</ele>
        <time>2017-06-26T08:53:09Z</time>
      </trkpt>
      <trkpt lat="48.57399" lon="6.42733">
        <ele>264</ele>
        <time>2017-06-26T08:53:10Z</time>
      </trkpt>
      <trkpt lat="48.574" lon="6.42729">
        <ele>264</ele>
        <time>2017-06-26T08:53:11Z</time>
      </trkpt>
      <trkpt lat="48.574" lon="6.42725">
        <ele>264</ele>
        <time>2017-06-26T08:53:12Z</time>
      </trkpt>
      <trkpt lat="48.57401" lon="6.4272">
        <ele>264</ele>
        <time>2017-06-26T08:53:13Z</time>
      </trkpt>
      <trkpt lat="48.57402" lon="6.42715">
        <ele>264</ele>
        <time>2017-06-26T08:53:14Z</time>
      </trkpt>
      <trkpt lat="48.57402" lon="6.42711">
        <ele>264</ele>
        <time>2017-06-26T08:53:15Z</time>
      </trkpt>
      <trkpt lat="48.57403" lon="6.42707">
        <ele>264</ele>
        <time>2017-06-26T08:53:16Z</time>
      </trkpt>
      <trkpt lat="48.57404" lon="6.42702">
        <ele>264</ele>
        <time>2017-06-26T08:53:17Z</time>
      </trkpt>
      <trkpt lat="48.57405" lon="6.42698">
        <ele>264</ele>
        <time>2017-06-26T08:53:18Z</time>
      </trkpt>
      <trkpt lat="48.57405" lon="6.42694">
        <ele>264</ele>
        <time>2017-06-26T08:53:19Z</time>
      </trkpt>
      <trkpt lat="48.57405" lon="6.4269">
        <ele>263</ele>
        <time>2017-06-26T08:53:20Z</time>
      </trkpt>
      <trkpt lat="48.57406" lon="6.42686">
        <ele>264</ele>
        <time>2017-06-26T08:53:21Z</time>
      </trkpt>
      <trkpt lat="48.57406" lon="6.42682">
        <ele>264</ele>
        <time>2017-06-26T08:53:22Z</time>
      </trkpt>
      <trkpt lat="48.57407" lon="6.42678">
        <ele>264</ele>
        <time>2017-06-26T08:53:23Z</time>
      </trkpt>
      <trkpt lat="48.57408" lon="6.42674">
        <ele>263</ele>
        <time>2017-06-26T08:53:24Z</time>
      </trkpt>
      <trkpt lat="48.57409" lon="6.4267">
        <ele>263</ele>
        <time>2017-06-26T08:53:25Z</time>
      </trkpt>
      <trkpt lat="48.57409" lon="6.42666">
        <ele>263</ele>
        <time>2017-06-26T08:53:26Z</time>
      </trkpt>
      <trkpt lat="48.5741" lon="6.42661">
        <ele>263</ele>
        <time>2017-06-26T08:53:27Z</time>
      </trkpt>
      <trkpt lat="48.5741" lon="6.42657">
        <ele>263</ele>
        <time>2017-06-26T08:53:28Z</time>
      </trkpt>
      <trkpt lat="48.57411" lon="6.42652">
        <ele>263</ele>
        <time>2017-06-26T08:53:29Z</time>
      </trkpt>
      <trkpt lat="48.57412" lon="6.42648">
        <ele>263</ele>
        <time>2017-06-26T08:53:30Z</time>
      </trkpt>
      <trkpt lat="48.57412" lon="6.42643">
        <ele>263</ele>
        <time>2017-06-26T08:53:31Z</time>
      </trkpt>
      <trkpt lat="48.57413" lon="6.42639">
        <ele>263</ele>
        <time>2017-06-26T08:53:32Z</time>
      </trkpt>
      <trkpt lat="48.57414" lon="6.42634">
        <ele>263</ele>
        <time>2017-06-26T08:53:33Z</time>
      </trkpt>
      <trkpt lat="48.57414" lon="6.4263">
        <ele>263</ele>
        <time>2017-06-26T08:53:34Z</time>
      </trkpt>
      <trkpt lat="48.57415" lon="6.42626">
        <ele>263</ele>
        <time>2017-06-26T08:53:35Z</time>
      </trkpt>
      <trkpt lat="48.57415" lon="6.42622">
        <ele>263</ele>
        <time>2017-06-26T08:53:36Z</time>
      </trkpt>
      <trkpt lat="48.57416" lon="6.42613">
        <ele>263</ele>
        <time>2017-06-26T08:53:37Z</time>
      </trkpt>
      <trkpt lat="48.57417" lon="6.42609">
        <ele>263</ele>
        <time>2017-06-26T08:53:38Z</time>
      </trkpt>
      <trkpt lat="48.57418" lon="6.42605">
        <ele>263</ele>
        <time>2017-06-26T08:53:39Z</time>
      </trkpt>
      <trkpt lat="48.57419" lon="6.42602">
        <ele>263</ele>
        <time>2017-06-26T08:53:40Z</time>
      </trkpt>
      <trkpt lat="48.57421" lon="6.42598">
        <ele>263</ele>
        <time>2017-06-26T08:53:41Z</time>
      </trkpt>
      <trkpt lat="48.57423" lon="6.42594">
        <ele>263</ele>
        <time>2017-06-26T08:53:42Z</time>
      </trkpt>
      <trkpt lat="48.57424" lon="6.42589">
        <ele>263</ele>
        <time>2017-06-26T08:53:43Z</time>
      </trkpt>
      <trkpt lat="48.57425" lon="6.42586">
        <ele>264</ele>
        <time>2017-06-26T08:53:44Z</time>
      </trkpt>
      <trkpt lat="48.57426" lon="6.42581">
        <ele>264</ele>
        <time>2017-06-26T08:53:45Z</time>
      </trkpt>
      <trkpt lat="48.57427" lon="6.42577">
        <ele>264</ele>
        <time>2017-06-26T08:53:46Z</time>
      </trkpt>
      <trkpt lat="48.57428" lon="6.42573">
        <ele>264</ele>
        <time>2017-06-26T08:53:47Z</time>
      </trkpt>
      <trkpt lat="48.57429" lon="6.42569">
        <ele>264</ele>
        <time>2017-06-26T08:53:48Z</time>
      </trkpt>
      <trkpt lat="48.57429" lon="6.42564">
        <ele>264</ele>
        <time>2017-06-26T08:53:49Z</time>
      </trkpt>
      <trkpt lat="48.5743" lon="6.4256">
        <ele>264</ele>
        <time>2017-06-26T08:53:50Z</time>
      </trkpt>
      <trkpt lat="48.5743" lon="6.42556">
        <ele>264</ele>
        <time>2017-06-26T08:53:51Z</time>
      </trkpt>
      <trkpt lat="48.57431" lon="6.42551">
        <ele>264</ele>
        <time>2017-06-26T08:53:52Z</time>
      </trkpt>
      <trkpt lat="48.57432" lon="6.42548">
        <ele>264</ele>
        <time>2017-06-26T08:53:53Z</time>
      </trkpt>
      <trkpt lat="48.57433" lon="6.42544">
        <ele>264</ele>
        <time>2017-06-26T08:53:54Z</time>
      </trkpt>
      <trkpt lat="48.57434" lon="6.4254">
        <ele>264</ele>
        <time>2017-06-26T08:53:55Z</time>
      </trkpt>
      <trkpt lat="48.57435" lon="6.42536">
        <ele>264</ele>
        <time>2017-06-26T08:53:56Z</time>
      </trkpt>
      <trkpt lat="48.57435" lon="6.42532">
        <ele>264</ele>
        <time>2017-06-26T08:53:57Z</time>
      </trkpt>
      <trkpt lat="48.57436" lon="6.42528">
        <ele>264</ele>
        <time>2017-06-26T08:53:58Z</time>
      </trkpt>
      <trkpt lat="48.57437" lon="6.42523">
        <ele>264</ele>
        <time>2017-06-26T08:53:59Z</time>
      </trkpt>
      <trkpt lat="48.57438" lon="6.4252">
        <ele>264</ele>
        <time>2017-06-26T08:54:00Z</time>
      </trkpt>
      <trkpt lat="48.57438" lon="6.42516">
        <ele>264</ele>
        <time>2017-06-26T08:54:01Z</time>
      </trkpt>
      <trkpt lat="48.57439" lon="6.42512">
        <ele>264</ele>
        <time>2017-06-26T08:54:02Z</time>
      </trkpt>
      <trkpt lat="48.5744" lon="6.42509">
        <ele>263</ele>
        <time>2017-06-26T08:54:03Z</time>
      </trkpt>
      <trkpt lat="48.57441" lon="6.42505">
        <ele>263</ele>
        <time>2017-06-26T08:54:04Z</time>
      </trkpt>
      <trkpt lat="48.57442" lon="6.42501">
        <ele>263</ele>
        <time>2017-06-26T08:54:05Z</time>
      </trkpt>
      <trkpt lat="48.57443" lon="6.42497">
        <ele>263</ele>
        <time>2017-06-26T08:54:06Z</time>
      </trkpt>
      <trkpt lat="48.57443" lon="6.42493">
        <ele>263</ele>
        <time>2017-06-26T08:54:07Z</time>
      </trkpt>
      <trkpt lat="48.57444" lon="6.42489">
        <ele>263</ele>
        <time>2017-06-26T08:54:08Z</time>
      </trkpt>
      <trkpt lat="48.57445" lon="6.42486">
        <ele>263</ele>
        <time>2017-06-26T08:54:09Z</time>
      </trkpt>
      <trkpt lat="48.57446" lon="6.42482">
        <ele>263</ele>
        <time>2017-06-26T08:54:10Z</time>
      </trkpt>
      <trkpt lat="48.57447" lon="6.42478">
        <ele>263</ele>
        <time>2017-06-26T08:54:11Z</time>
      </trkpt>
      <trkpt lat="48.57448" lon="6.42474">
        <ele>263</ele>
        <time>2017-06-26T08:54:12Z</time>
      </trkpt>
      <trkpt lat="48.57449" lon="6.4247">
        <ele>263</ele>
        <time>2017-06-26T08:54:13Z</time>
      </trkpt>
      <trkpt lat="48.5745" lon="6.42466">
        <ele>263</ele>
        <time>2017-06-26T08:54:14Z</time>
      </trkpt>
      <trkpt lat="48.57451" lon="6.42462">
        <ele>263</ele>
        <time>2017-06-26T08:54:15Z</time>
      </trkpt>
      <trkpt lat="48.57452" lon="6.42458">
        <ele>263</ele>
        <time>2017-06-26T08:54:16Z</time>
      </trkpt>
      <trkpt lat="48.57453" lon="6.42453">
        <ele>263</ele>
        <time>2017-06-26T08:54:17Z</time>
      </trkpt>
      <trkpt lat="48.57454" lon="6.42449">
        <ele>263</ele>
        <time>2017-06-26T08:54:18Z</time>
      </trkpt>
      <trkpt lat="48.57456" lon="6.42445">
        <ele>263</ele>
        <time>2017-06-26T08:54:19Z</time>
      </trkpt>
      <trkpt lat="48.57457" lon="6.42441">
        <ele>264</ele>
        <time>2017-06-26T08:54:20Z</time>
      </trkpt>
      <trkpt lat="48.57458" lon="6.42436">
        <ele>264</ele>
        <time>2017-06-26T08:54:21Z</time>
      </trkpt>
      <trkpt lat="48.5746" lon="6.42432">
        <ele>264</ele>
        <time>2017-06-26T08:54:22Z</time>
      </trkpt>
      <trkpt lat="48.57461" lon="6.42428">
        <ele>264</ele>
        <time>2017-06-26T08:54:23Z</time>
      </trkpt>
      <trkpt lat="48.57461" lon="6.42424">
        <ele>264</ele>
        <time>2017-06-26T08:54:24Z</time>
      </trkpt>
      <trkpt lat="48.57462" lon="6.42419">
        <ele>263</ele>
        <time>2017-06-26T08:54:25Z</time>
      </trkpt>
      <trkpt lat="48.57463" lon="6.42416">
        <ele>263</ele>
        <time>2017-06-26T08:54:26Z</time>
      </trkpt>
      <trkpt lat="48.57464" lon="6.42411">
        <ele>263</ele>
        <time>2017-06-26T08:54:27Z</time>
      </trkpt>
      <trkpt lat="48.57465" lon="6.42407">
        <ele>263</ele>
        <time>2017-06-26T08:54:28Z</time>
      </trkpt>
      <trkpt lat="48.57466" lon="6.42403">
        <ele>263</ele>
        <time>2017-06-26T08:54:29Z</time>
      </trkpt>
      <trkpt lat="48.57467" lon="6.42399">
        <ele>263</ele>
        <time>2017-06-26T08:54:30Z</time>
      </trkpt>
      <trkpt lat="48.57468" lon="6.42396">
        <ele>263</ele>
        <time>2017-06-26T08:54:31Z</time>
      </trkpt>
      <trkpt lat="48.57469" lon="6.42392">
        <ele>263</ele>
        <time>2017-06-26T08:54:32Z</time>
      </trkpt>
      <trkpt lat="48.57469" lon="6.42387">
        <ele>263</ele>
        <time>2017-06-26T08:54:33Z</time>
      </trkpt>
      <trkpt lat="48.5747" lon="6.42383">
        <ele>263</ele>
        <time>2017-06-26T08:54:34Z</time>
      </trkpt>
      <trkpt lat="48.5747" lon="6.42379">
        <ele>263</ele>
        <time>2017-06-26T08:54:35Z</time>
      </trkpt>
      <trkpt lat="48.57471" lon="6.42375">
        <ele>263</ele>
        <time>2017-06-26T08:54:36Z</time>
      </trkpt>
      <trkpt lat="48.57471" lon="6.42371">
        <ele>263</ele>
        <time>2017-06-26T08:54:37Z</time>
      </trkpt>
      <trkpt lat="48.57472" lon="6.42367">
        <ele>263</ele>
        <time>2017-06-26T08:54:38Z</time>
      </trkpt>
      <trkpt lat="48.57473" lon="6.42363">
        <ele>263</ele>
        <time>2017-06-26T08:54:39Z</time>
      </trkpt>
      <trkpt lat="48.57473" lon="6.42359">
        <ele>263</ele>
        <time>2017-06-26T08:54:40Z</time>
      </trkpt>
      <trkpt lat="48.57474" lon="6.42356">
        <ele>263</ele>
        <time>2017-06-26T08:54:41Z</time>
      </trkpt>
      <trkpt lat="48.57476" lon="6.42352">
        <ele>263</ele>
        <time>2017-06-26T08:54:43Z</time>
      </trkpt>
      <trkpt lat="48.57475" lon="6.42348">
        <ele>263</ele>
        <time>2017-06-26T08:54:45Z</time>
      </trkpt>
      <trkpt lat="48.57475" lon="6.42344">
        <ele>263</ele>
        <time>2017-06-26T08:54:46Z</time>
      </trkpt>
      <trkpt lat="48.57475" lon="6.4234">
        <ele>263</ele>
        <time>2017-06-26T08:54:47Z</time>
      </trkpt>
      <trkpt lat="48.57475" lon="6.42337">
        <ele>263</ele>
        <time>2017-06-26T08:54:48Z</time>
      </trkpt>
      <trkpt lat="48.57475" lon="6.42333">
        <ele>263</ele>
        <time>2017-06-26T08:54:49Z</time>
      </trkpt>
      <trkpt lat="48.57476" lon="6.4233">
        <ele>264</ele>
        <time>2017-06-26T08:54:50Z</time>
      </trkpt>
      <trkpt lat="48.57477" lon="6.42327">
        <ele>264</ele>
        <time>2017-06-26T08:54:51Z</time>
      </trkpt>
      <trkpt lat="48.57478" lon="6.42324">
        <ele>264</ele>
        <time>2017-06-26T08:54:52Z</time>
      </trkpt>
      <trkpt lat="48.57479" lon="6.4232">
        <ele>264</ele>
        <time>2017-06-26T08:54:53Z</time>
      </trkpt>
      <trkpt lat="48.57479" lon="6.42316">
        <ele>264</ele>
        <time>2017-06-26T08:54:54Z</time>
      </trkpt>
      <trkpt lat="48.5748" lon="6.42312">
        <ele>264</ele>
        <time>2017-06-26T08:54:55Z</time>
      </trkpt>
      <trkpt lat="48.57481" lon="6.42309">
        <ele>264</ele>
        <time>2017-06-26T08:54:56Z</time>
      </trkpt>
      <trkpt lat="48.57482" lon="6.42305">
        <ele>264</ele>
        <time>2017-06-26T08:54:57Z</time>
      </trkpt>
      <trkpt lat="48.57484" lon="6.42301">
        <ele>264</ele>
        <time>2017-06-26T08:54:58Z</time>
      </trkpt>
      <trkpt lat="48.57485" lon="6.42297">
        <ele>263</ele>
        <time>2017-06-26T08:54:59Z</time>
      </trkpt>
      <trkpt lat="48.57487" lon="6.42293">
        <ele>263</ele>
        <time>2017-06-26T08:55:00Z</time>
      </trkpt>
      <trkpt lat="48.57488" lon="6.42289">
        <ele>263</ele>
        <time>2017-06-26T08:55:01Z</time>
      </trkpt>
      <trkpt lat="48.57489" lon="6.42283">
        <ele>263</ele>
        <time>2017-06-26T08:55:02Z</time>
      </trkpt>
      <trkpt lat="48.5749" lon="6.42279">
        <ele>263</ele>
        <time>2017-06-26T08:55:03Z</time>
      </trkpt>
      <trkpt lat="48.57491" lon="6.42275">
        <ele>263</ele>
        <time>2017-06-26T08:55:04Z</time>
      </trkpt>
      <trkpt lat="48.57492" lon="6.4227">
        <ele>263</ele>
        <time>2017-06-26T08:55:05Z</time>
      </trkpt>
      <trkpt lat="48.57494" lon="6.42267">
        <ele>263</ele>
        <time>2017-06-26T08:55:06Z</time>
      </trkpt>
      <trkpt lat="48.57495" lon="6.42262">
        <ele>263</ele>
        <time>2017-06-26T08:55:07Z</time>
      </trkpt>
      <trkpt lat="48.57497" lon="6.42258">
        <ele>263</ele>
        <time>2017-06-26T08:55:08Z</time>
      </trkpt>
      <trkpt lat="48.57497" lon="6.42255">
        <ele>263</ele>
        <time>2017-06-26T08:55:09Z</time>
      </trkpt>
      <trkpt lat="48.57499" lon="6.42252">
        <ele>263</ele>
        <time>2017-06-26T08:55:10Z</time>
      </trkpt>
      <trkpt lat="48.57499" lon="6.42249">
        <ele>263</ele>
        <time>2017-06-26T08:55:11Z</time>
      </trkpt>
      <trkpt lat="48.575" lon="6.42246">
        <ele>263</ele>
        <time>2017-06-26T08:55:12Z</time>
      </trkpt>
      <trkpt lat="48.57501" lon="6.42243">
        <ele>263</ele>
        <time>2017-06-26T08:55:13Z</time>
      </trkpt>
      <trkpt lat="48.57502" lon="6.42239">
        <ele>263</ele>
        <time>2017-06-26T08:55:14Z</time>
      </trkpt>
      <trkpt lat="48.57503" lon="6.42235">
        <ele>263</ele>
        <time>2017-06-26T08:55:15Z</time>
      </trkpt>
      <trkpt lat="48.57504" lon="6.42231">
        <ele>263</ele>
        <time>2017-06-26T08:55:16Z</time>
      </trkpt>
      <trkpt lat="48.57506" lon="6.42228">
        <ele>264</ele>
        <time>2017-06-26T08:55:17Z</time>
      </trkpt>
      <trkpt lat="48.57507" lon="6.42225">
        <ele>264</ele>
        <time>2017-06-26T08:55:18Z</time>
      </trkpt>
      <trkpt lat="48.5751" lon="6.42221">
        <ele>264</ele>
        <time>2017-06-26T08:55:19Z</time>
      </trkpt>
      <trkpt lat="48.57512" lon="6.42218">
        <ele>264</ele>
        <time>2017-06-26T08:55:20Z</time>
      </trkpt>
      <trkpt lat="48.57513" lon="6.42216">
        <ele>264</ele>
        <time>2017-06-26T08:55:21Z</time>
      </trkpt>
      <trkpt lat="48.57515" lon="6.42214">
        <ele>264</ele>
        <time>2017-06-26T08:55:22Z</time>
      </trkpt>
      <trkpt lat="48.57516" lon="6.4221">
        <ele>264</ele>
        <time>2017-06-26T08:55:23Z</time>
      </trkpt>
      <trkpt lat="48.57519" lon="6.42205">
        <ele>264</ele>
        <time>2017-06-26T08:55:24Z</time>
      </trkpt>
      <trkpt lat="48.57521" lon="6.42203">
        <ele>264</ele>
        <time>2017-06-26T08:55:25Z</time>
      </trkpt>
      <trkpt lat="48.57523" lon="6.422">
        <ele>264</ele>
        <time>2017-06-26T08:55:26Z</time>
      </trkpt>
      <trkpt lat="48.57528" lon="6.42194">
        <ele>264</ele>
        <time>2017-06-26T08:55:27Z</time>
      </trkpt>
      <trkpt lat="48.5753" lon="6.42189">
        <ele>264</ele>
        <time>2017-06-26T08:55:28Z</time>
      </trkpt>
      <trkpt lat="48.57533" lon="6.42186">
        <ele>264</ele>
        <time>2017-06-26T08:55:29Z</time>
      </trkpt>
      <trkpt lat="48.57535" lon="6.42183">
        <ele>264</ele>
        <time>2017-06-26T08:55:30Z</time>
      </trkpt>
      <trkpt lat="48.57538" lon="6.42179">
        <ele>264</ele>
        <time>2017-06-26T08:55:31Z</time>
      </trkpt>
      <trkpt lat="48.57539" lon="6.42176">
        <ele>264</ele>
        <time>2017-06-26T08:55:32Z</time>
      </trkpt>
      <trkpt lat="48.57541" lon="6.42172">
        <ele>264</ele>
        <time>2017-06-26T08:55:33Z</time>
      </trkpt>
      <trkpt lat="48.57542" lon="6.42169">
        <ele>264</ele>
        <time>2017-06-26T08:55:34Z</time>
      </trkpt>
      <trkpt lat="48.57544" lon="6.42165">
        <ele>264</ele>
        <time>2017-06-26T08:55:35Z</time>
      </trkpt>
      <trkpt lat="48.57547" lon="6.42161">
        <ele>264</ele>
        <time>2017-06-26T08:55:36Z</time>
      </trkpt>
      <trkpt lat="48.57549" lon="6.42155">
        <ele>263</ele>
        <time>2017-06-26T08:55:37Z</time>
      </trkpt>
      <trkpt lat="48.57551" lon="6.4215">
        <ele>263</ele>
        <time>2017-06-26T08:55:38Z</time>
      </trkpt>
      <trkpt lat="48.57554" lon="6.42145">
        <ele>263</ele>
        <time>2017-06-26T08:55:39Z</time>
      </trkpt>
      <trkpt lat="48.57556" lon="6.42141">
        <ele>262</ele>
        <time>2017-06-26T08:55:40Z</time>
      </trkpt>
      <trkpt lat="48.57559" lon="6.42137">
        <ele>262</ele>
        <time>2017-06-26T08:55:41Z</time>
      </trkpt>
      <trkpt lat="48.57561" lon="6.42133">
        <ele>262</ele>
        <time>2017-06-26T08:55:42Z</time>
      </trkpt>
      <trkpt lat="48.57564" lon="6.4213">
        <ele>262</ele>
        <time>2017-06-26T08:55:43Z</time>
      </trkpt>
      <trkpt lat="48.57566" lon="6.42128">
        <ele>262</ele>
        <time>2017-06-26T08:55:44Z</time>
      </trkpt>
      <trkpt lat="48.57568" lon="6.42126">
        <ele>261</ele>
        <time>2017-06-26T08:55:45Z</time>
      </trkpt>
      <trkpt lat="48.5757" lon="6.42124">
        <ele>261</ele>
        <time>2017-06-26T08:55:46Z</time>
      </trkpt>
      <trkpt lat="48.57572" lon="6.42122">
        <ele>261</ele>
        <time>2017-06-26T08:55:47Z</time>
      </trkpt>
      <trkpt lat="48.57574" lon="6.42121">
        <ele>261</ele>
        <time>2017-06-26T08:55:48Z</time>
      </trkpt>
      <trkpt lat="48.57576" lon="6.4212">
        <ele>261</ele>
        <time>2017-06-26T08:55:49Z</time>
      </trkpt>
      <trkpt lat="48.57578" lon="6.42117">
        <ele>261</ele>
        <time>2017-06-26T08:55:50Z</time>
      </trkpt>
      <trkpt lat="48.5758" lon="6.42115">
        <ele>261</ele>
        <time>2017-06-26T08:55:51Z</time>
      </trkpt>
      <trkpt lat="48.57582" lon="6.42113">
        <ele>261</ele>
        <time>2017-06-26T08:55:52Z</time>
      </trkpt>
      <trkpt lat="48.57584" lon="6.42111">
        <ele>261</ele>
        <time>2017-06-26T08:55:53Z</time>
      </trkpt>
      <trkpt lat="48.57586" lon="6.42108">
        <ele>261</ele>
        <time>2017-06-26T08:55:54Z</time>
      </trkpt>
      <trkpt lat="48.57588" lon="6.42106">
        <ele>261</ele>
        <time>2017-06-26T08:55:55Z</time>
      </trkpt>
      <trkpt lat="48.57589" lon="6.42105">
        <ele>261</ele>
        <time>2017-06-26T08:55:56Z</time>
      </trkpt>
      <trkpt lat="48.57592" lon="6.42102">
        <ele>261</ele>
        <time>2017-06-26T08:55:57Z</time>
      </trkpt>
      <trkpt lat="48.57595" lon="6.421">
        <ele>260</ele>
        <time>2017-06-26T08:55:58Z</time>
      </trkpt>
      <trkpt lat="48.57599" lon="6.42095">
        <ele>260</ele>
        <time>2017-06-26T08:55:59Z</time>
      </trkpt>
      <trkpt lat="48.57602" lon="6.42091">
        <ele>260</ele>
        <time>2017-06-26T08:56:00Z</time>
      </trkpt>
      <trkpt lat="48.57606" lon="6.42088">
        <ele>260</ele>
        <time>2017-06-26T08:56:01Z</time>
      </trkpt>
      <trkpt lat="48.57609" lon="6.42085">
        <ele>259</ele>
        <time>2017-06-26T08:56:02Z</time>
      </trkpt>
      <trkpt lat="48.57612" lon="6.42082">
        <ele>259</ele>
        <time>2017-06-26T08:56:03Z</time>
      </trkpt>
      <trkpt lat="48.57615" lon="6.42078">
        <ele>259</ele>
        <time>2017-06-26T08:56:04Z</time>
      </trkpt>
      <trkpt lat="48.57617" lon="6.42076">
        <ele>259</ele>
        <time>2017-06-26T08:56:05Z</time>
      </trkpt>
      <trkpt lat="48.57619" lon="6.42073">
        <ele>259</ele>
        <time>2017-06-26T08:56:06Z</time>
      </trkpt>
      <trkpt lat="48.57621" lon="6.42071">
        <ele>259</ele>
        <time>2017-06-26T08:56:07Z</time>
      </trkpt>
      <trkpt lat="48.57624" lon="6.42069">
        <ele>259</ele>
        <time>2017-06-26T08:56:08Z</time>
      </trkpt>
      <trkpt lat="48.57626" lon="6.42067">
        <ele>259</ele>
        <time>2017-06-26T08:56:09Z</time>
      </trkpt>
      <trkpt lat="48.57629" lon="6.42064">
        <ele>259</ele>
        <time>2017-06-26T08:56:10Z</time>
      </trkpt>
      <trkpt lat="48.57631" lon="6.42062">
        <ele>259</ele>
        <time>2017-06-26T08:56:11Z</time>
      </trkpt>
      <trkpt lat="48.57634" lon="6.4206">
        <ele>259</ele>
        <time>2017-06-26T08:56:12Z</time>
      </trkpt>
      <trkpt lat="48.57636" lon="6.42057">
        <ele>259</ele>
        <time>2017-06-26T08:56:13Z</time>
      </trkpt>
      <trkpt lat="48.57638" lon="6.42055">
        <ele>258</ele>
        <time>2017-06-26T08:56:14Z</time>
      </trkpt>
      <trkpt lat="48.57641" lon="6.42052">
        <ele>258</ele>
        <time>2017-06-26T08:56:15Z</time>
      </trkpt>
      <trkpt lat="48.57644" lon="6.42049">
        <ele>258</ele>
        <time>2017-06-26T08:56:16Z</time>
      </trkpt>
      <trkpt lat="48.57647" lon="6.42046">
        <ele>258</ele>
        <time>2017-06-26T08:56:17Z</time>
      </trkpt>
      <trkpt lat="48.5765" lon="6.42042">
        <ele>258</ele>
        <time>2017-06-26T08:56:18Z</time>
      </trkpt>
      <trkpt lat="48.57652" lon="6.4204">
        <ele>257</ele>
        <time>2017-06-26T08:56:19Z</time>
      </trkpt>
      <trkpt lat="48.57655" lon="6.42037">
        <ele>257</ele>
        <time>2017-06-26T08:56:20Z</time>
      </trkpt>
      <trkpt lat="48.57657" lon="6.42035">
        <ele>257</ele>
        <time>2017-06-26T08:56:21Z</time>
      </trkpt>
      <trkpt lat="48.5766" lon="6.42033">
        <ele>257</ele>
        <time>2017-06-26T08:56:22Z</time>
      </trkpt>
      <trkpt lat="48.57662" lon="6.42031">
        <ele>257</ele>
        <time>2017-06-26T08:56:23Z</time>
      </trkpt>
      <trkpt lat="48.57665" lon="6.42029">
        <ele>256</ele>
        <time>2017-06-26T08:56:24Z</time>
      </trkpt>
      <trkpt lat="48.57667" lon="6.42027">
        <ele>256</ele>
        <time>2017-06-26T08:56:25Z</time>
      </trkpt>
      <trkpt lat="48.5767" lon="6.42025">
        <ele>257</ele>
        <time>2017-06-26T08:56:26Z</time>
      </trkpt>
      <trkpt lat="48.57673" lon="6.42022">
        <ele>257</ele>
        <time>2017-06-26T08:56:27Z</time>
      </trkpt>
      <trkpt lat="48.57676" lon="6.4202">
        <ele>256</ele>
        <time>2017-06-26T08:56:28Z</time>
      </trkpt>
      <trkpt lat="48.57679" lon="6.42017">
        <ele>256</ele>
        <time>2017-06-26T08:56:29Z</time>
      </trkpt>
      <trkpt lat="48.57682" lon="6.42015">
        <ele>256</ele>
        <time>2017-06-26T08:56:30Z</time>
      </trkpt>
      <trkpt lat="48.57684" lon="6.42012">
        <ele>256</ele>
        <time>2017-06-26T08:56:31Z</time>
      </trkpt>
      <trkpt lat="48.57686" lon="6.42009">
        <ele>256</ele>
        <time>2017-06-26T08:56:32Z</time>
      </trkpt>
      <trkpt lat="48.57689" lon="6.42007">
        <ele>256</ele>
        <time>2017-06-26T08:56:33Z</time>
      </trkpt>
      <trkpt lat="48.57691" lon="6.42004">
        <ele>256</ele>
        <time>2017-06-26T08:56:34Z</time>
      </trkpt>
      <trkpt lat="48.57694" lon="6.42002">
        <ele>255</ele>
        <time>2017-06-26T08:56:35Z</time>
      </trkpt>
      <trkpt lat="48.57696" lon="6.42">
        <ele>255</ele>
        <time>2017-06-26T08:56:36Z</time>
      </trkpt>
      <trkpt lat="48.57699" lon="6.41997">
        <ele>255</ele>
        <time>2017-06-26T08:56:37Z</time>
      </trkpt>
      <trkpt lat="48.57702" lon="6.41995">
        <ele>255</ele>
        <time>2017-06-26T08:56:38Z</time>
      </trkpt>
      <trkpt lat="48.57704" lon="6.41992">
        <ele>255</ele>
        <time>2017-06-26T08:56:39Z</time>
      </trkpt>
      <trkpt lat="48.57707" lon="6.41989">
        <ele>255</ele>
        <time>2017-06-26T08:56:40Z</time>
      </trkpt>
      <trkpt lat="48.57709" lon="6.41986">
        <ele>254</ele>
        <time>2017-06-26T08:56:41Z</time>
      </trkpt>
      <trkpt lat="48.57712" lon="6.41982">
        <ele>254</ele>
        <time>2017-06-26T08:56:42Z</time>
      </trkpt>
      <trkpt lat="48.57714" lon="6.41979">
        <ele>254</ele>
        <time>2017-06-26T08:56:43Z</time>
      </trkpt>
      <trkpt lat="48.57716" lon="6.41978">
        <ele>254</ele>
        <time>2017-06-26T08:56:44Z</time>
      </trkpt>
      <trkpt lat="48.57718" lon="6.41975">
        <ele>254</ele>
        <time>2017-06-26T08:56:45Z</time>
      </trkpt>
      <trkpt lat="48.57721" lon="6.41973">
        <ele>253</ele>
        <time>2017-06-26T08:56:46Z</time>
      </trkpt>
      <trkpt lat="48.57724" lon="6.4197">
        <ele>253</ele>
        <time>2017-06-26T08:56:47Z</time>
      </trkpt>
      <trkpt lat="48.57726" lon="6.41966">
        <ele>253</ele>
        <time>2017-06-26T08:56:48Z</time>
      </trkpt>
      <trkpt lat="48.57729" lon="6.41964">
        <ele>253</ele>
        <time>2017-06-26T08:56:49Z</time>
      </trkpt>
      <trkpt lat="48.57731" lon="6.41962">
        <ele>253</ele>
        <time>2017-06-26T08:56:50Z</time>
      </trkpt>
      <trkpt lat="48.57733" lon="6.41959">
        <ele>252</ele>
        <time>2017-06-26T08:56:51Z</time>
      </trkpt>
      <trkpt lat="48.57735" lon="6.41957">
        <ele>252</ele>
        <time>2017-06-26T08:56:52Z</time>
      </trkpt>
      <trkpt lat="48.57738" lon="6.41954">
        <ele>252</ele>
        <time>2017-06-26T08:56:53Z</time>
      </trkpt>
      <trkpt lat="48.5774" lon="6.41951">
        <ele>252</ele>
        <time>2017-06-26T08:56:54Z</time>
      </trkpt>
      <trkpt lat="48.57743" lon="6.41949">
        <ele>252</ele>
        <time>2017-06-26T08:56:55Z</time>
      </trkpt>
      <trkpt lat="48.57745" lon="6.41946">
        <ele>252</ele>
        <time>2017-06-26T08:56:56Z</time>
      </trkpt>
      <trkpt lat="48.57748" lon="6.41944">
        <ele>251</ele>
        <time>2017-06-26T08:56:57Z</time>
      </trkpt>
      <trkpt lat="48.5775" lon="6.41941">
        <ele>251</ele>
        <time>2017-06-26T08:56:58Z</time>
      </trkpt>
      <trkpt lat="48.57753" lon="6.41938">
        <ele>251</ele>
        <time>2017-06-26T08:56:59Z</time>
      </trkpt>
      <trkpt lat="48.57755" lon="6.41935">
        <ele>251</ele>
        <time>2017-06-26T08:57:00Z</time>
      </trkpt>
      <trkpt lat="48.57757" lon="6.41932">
        <ele>250</ele>
        <time>2017-06-26T08:57:01Z</time>
      </trkpt>
      <trkpt lat="48.5776" lon="6.4193">
        <ele>250</ele>
        <time>2017-06-26T08:57:02Z</time>
      </trkpt>
      <trkpt lat="48.57762" lon="6.41929">
        <ele>250</ele>
        <time>2017-06-26T08:57:03Z</time>
      </trkpt>
      <trkpt lat="48.57764" lon="6.41926">
        <ele>250</ele>
        <time>2017-06-26T08:57:04Z</time>
      </trkpt>
      <trkpt lat="48.57767" lon="6.41924">
        <ele>250</ele>
        <time>2017-06-26T08:57:05Z</time>
      </trkpt>
      <trkpt lat="48.57769" lon="6.41921">
        <ele>250</ele>
        <time>2017-06-26T08:57:06Z</time>
      </trkpt>
      <trkpt lat="48.57772" lon="6.41917">
        <ele>249</ele>
        <time>2017-06-26T08:57:07Z</time>
      </trkpt>
      <trkpt lat="48.57774" lon="6.41914">
        <ele>249</ele>
        <time>2017-06-26T08:57:08Z</time>
      </trkpt>
      <trkpt lat="48.57777" lon="6.4191">
        <ele>249</ele>
        <time>2017-06-26T08:57:09Z</time>
      </trkpt>
      <trkpt lat="48.5778" lon="6.41906">
        <ele>249</ele>
        <time>2017-06-26T08:57:10Z</time>
      </trkpt>
      <trkpt lat="48.57782" lon="6.41903">
        <ele>248</ele>
        <time>2017-06-26T08:57:11Z</time>
      </trkpt>
      <trkpt lat="48.57784" lon="6.419">
        <ele>248</ele>
        <time>2017-06-26T08:57:12Z</time>
      </trkpt>
      <trkpt lat="48.57787" lon="6.41897">
        <ele>248</ele>
        <time>2017-06-26T08:57:13Z</time>
      </trkpt>
      <trkpt lat="48.57789" lon="6.41893">
        <ele>248</ele>
        <time>2017-06-26T08:57:14Z</time>
      </trkpt>
      <trkpt lat="48.57791" lon="6.41888">
        <ele>247</ele>
        <time>2017-06-26T08:57:15Z</time>
      </trkpt>
      <trkpt lat="48.57793" lon="6.41882">
        <ele>247</ele>
        <time>2017-06-26T08:57:16Z</time>
      </trkpt>
      <trkpt lat="48.57794" lon="6.41877">
        <ele>247</ele>
        <time>2017-06-26T08:57:17Z</time>
      </trkpt>
      <trkpt lat="48.57795" lon="6.41873">
        <ele>247</ele>
        <time>2017-06-26T08:57:18Z</time>
      </trkpt>
      <trkpt lat="48.57797" lon="6.4187">
        <ele>247</ele>
        <time>2017-06-26T08:57:19Z</time>
      </trkpt>
      <trkpt lat="48.57798" lon="6.41866">
        <ele>247</ele>
        <time>2017-06-26T08:57:20Z</time>
      </trkpt>
      <trkpt lat="48.57799" lon="6.41864">
        <ele>247</ele>
        <time>2017-06-26T08:57:21Z</time>
      </trkpt>
      <trkpt lat="48.57801" lon="6.41861">
        <ele>247</ele>
        <time>2017-06-26T08:57:22Z</time>
      </trkpt>
      <trkpt lat="48.57802" lon="6.41858">
        <ele>247</ele>
        <time>2017-06-26T08:57:23Z</time>
      </trkpt>
      <trkpt lat="48.57803" lon="6.41855">
        <ele>246</ele>
        <time>2017-06-26T08:57:24Z</time>
      </trkpt>
      <trkpt lat="48.57805" lon="6.41851">
        <ele>246</ele>
        <time>2017-06-26T08:57:25Z</time>
      </trkpt>
      <trkpt lat="48.57807" lon="6.41846">
        <ele>246</ele>
        <time>2017-06-26T08:57:26Z</time>
      </trkpt>
      <trkpt lat="48.57808" lon="6.41842">
        <ele>245</ele>
        <time>2017-06-26T08:57:27Z</time>
      </trkpt>
      <trkpt lat="48.57809" lon="6.41837">
        <ele>245</ele>
        <time>2017-06-26T08:57:28Z</time>
      </trkpt>
      <trkpt lat="48.57811" lon="6.41832">
        <ele>245</ele>
        <time>2017-06-26T08:57:29Z</time>
      </trkpt>
      <trkpt lat="48.57812" lon="6.41828">
        <ele>245</ele>
        <time>2017-06-26T08:57:30Z</time>
      </trkpt>
      <trkpt lat="48.57813" lon="6.41824">
        <ele>245</ele>
        <time>2017-06-26T08:57:31Z</time>
      </trkpt>
      <trkpt lat="48.57814" lon="6.41821">
        <ele>245</ele>
        <time>2017-06-26T08:57:32Z</time>
      </trkpt>
      <trkpt lat="48.57815" lon="6.41817">
        <ele>245</ele>
        <time>2017-06-26T08:57:33Z</time>
      </trkpt>
      <trkpt lat="48.57817" lon="6.41812">
        <ele>245</ele>
        <time>2017-06-26T08:57:34Z</time>
      </trkpt>
      <trkpt lat="48.57819" lon="6.41808">
        <ele>245</ele>
        <time>2017-06-26T08:57:35Z</time>
      </trkpt>
      <trkpt lat="48.5782" lon="6.41804">
        <ele>245</ele>
        <time>2017-06-26T08:57:36Z</time>
      </trkpt>
      <trkpt lat="48.57821" lon="6.418">
        <ele>245</ele>
        <time>2017-06-26T08:57:37Z</time>
      </trkpt>
      <trkpt lat="48.57822" lon="6.41793">
        <ele>245</ele>
        <time>2017-06-26T08:57:38Z</time>
      </trkpt>
      <trkpt lat="48.57823" lon="6.41789">
        <ele>245</ele>
        <time>2017-06-26T08:57:39Z</time>
      </trkpt>
      <trkpt lat="48.57824" lon="6.41785">
        <ele>245</ele>
        <time>2017-06-26T08:57:40Z</time>
      </trkpt>
      <trkpt lat="48.57825" lon="6.41781">
        <ele>245</ele>
        <time>2017-06-26T08:57:41Z</time>
      </trkpt>
      <trkpt lat="48.57825" lon="6.41777">
        <ele>245</ele>
        <time>2017-06-26T08:57:42Z</time>
      </trkpt>
      <trkpt lat="48.57826" lon="6.41773">
        <ele>245</ele>
        <time>2017-06-26T08:57:43Z</time>
      </trkpt>
      <trkpt lat="48.57827" lon="6.4177">
        <ele>245</ele>
        <time>2017-06-26T08:57:44Z</time>
      </trkpt>
      <trkpt lat="48.57828" lon="6.41766">
        <ele>245</ele>
        <time>2017-06-26T08:57:45Z</time>
      </trkpt>
      <trkpt lat="48.5783" lon="6.41762">
        <ele>245</ele>
        <time>2017-06-26T08:57:46Z</time>
      </trkpt>
      <trkpt lat="48.57831" lon="6.41759">
        <ele>245</ele>
        <time>2017-06-26T08:57:47Z</time>
      </trkpt>
      <trkpt lat="48.57831" lon="6.41757">
        <ele>245</ele>
        <time>2017-06-26T08:57:48Z</time>
      </trkpt>
      <trkpt lat="48.57832" lon="6.41754">
        <ele>245</ele>
        <time>2017-06-26T08:57:49Z</time>
      </trkpt>
      <trkpt lat="48.57833" lon="6.41751">
        <ele>245</ele>
        <time>2017-06-26T08:57:50Z</time>
      </trkpt>
      <trkpt lat="48.57833" lon="6.41747">
        <ele>246</ele>
        <time>2017-06-26T08:57:51Z</time>
      </trkpt>
      <trkpt lat="48.57834" lon="6.41743">
        <ele>246</ele>
        <time>2017-06-26T08:57:52Z</time>
      </trkpt>
      <trkpt lat="48.57835" lon="6.41739">
        <ele>246</ele>
        <time>2017-06-26T08:57:53Z</time>
      </trkpt>
      <trkpt lat="48.57836" lon="6.41735">
        <ele>246</ele>
        <time>2017-06-26T08:57:54Z</time>
      </trkpt>
      <trkpt lat="48.57837" lon="6.41731">
        <ele>246</ele>
        <time>2017-06-26T08:57:55Z</time>
      </trkpt>
      <trkpt lat="48.57838" lon="6.41727">
        <ele>246</ele>
        <time>2017-06-26T08:57:56Z</time>
      </trkpt>
      <trkpt lat="48.57838" lon="6.41724">
        <ele>246</ele>
        <time>2017-06-26T08:57:57Z</time>
      </trkpt>
      <trkpt lat="48.57839" lon="6.41721">
        <ele>247</ele>
        <time>2017-06-26T08:57:58Z</time>
      </trkpt>
      <trkpt lat="48.57841" lon="6.41717">
        <ele>246</ele>
        <time>2017-06-26T08:57:59Z</time>
      </trkpt>
      <trkpt lat="48.57843" lon="6.41712">
        <ele>246</ele>
        <time>2017-06-26T08:58:00Z</time>
      </trkpt>
      <trkpt lat="48.57845" lon="6.41707">
        <ele>247</ele>
        <time>2017-06-26T08:58:01Z</time>
      </trkpt>
      <trkpt lat="48.57846" lon="6.41703">
        <ele>247</ele>
        <time>2017-06-26T08:58:02Z</time>
      </trkpt>
      <trkpt lat="48.57848" lon="6.41698">
        <ele>247</ele>
        <time>2017-06-26T08:58:03Z</time>
      </trkpt>
      <trkpt lat="48.57849" lon="6.41694">
        <ele>247</ele>
        <time>2017-06-26T08:58:04Z</time>
      </trkpt>
      <trkpt lat="48.5785" lon="6.4169">
        <ele>247</ele>
        <time>2017-06-26T08:58:05Z</time>
      </trkpt>
      <trkpt lat="48.57853" lon="6.41682">
        <ele>247</ele>
        <time>2017-06-26T08:58:06Z</time>
      </trkpt>
      <trkpt lat="48.57855" lon="6.41679">
        <ele>247</ele>
        <time>2017-06-26T08:58:07Z</time>
      </trkpt>
      <trkpt lat="48.57856" lon="6.41675">
        <ele>247</ele>
        <time>2017-06-26T08:58:08Z</time>
      </trkpt>
      <trkpt lat="48.57856" lon="6.41671">
        <ele>247</ele>
        <time>2017-06-26T08:58:09Z</time>
      </trkpt>
      <trkpt lat="48.57857" lon="6.41669">
        <ele>247</ele>
        <time>2017-06-26T08:58:10Z</time>
      </trkpt>
      <trkpt lat="48.57856" lon="6.41666">
        <ele>247</ele>
        <time>2017-06-26T08:58:11Z</time>
      </trkpt>
      <trkpt lat="48.57856" lon="6.41663">
        <ele>247</ele>
        <time>2017-06-26T08:58:12Z</time>
      </trkpt>
      <trkpt lat="48.57855" lon="6.41661">
        <ele>247</ele>
        <time>2017-06-26T08:58:13Z</time>
      </trkpt>
      <trkpt lat="48.57854" lon="6.41659">
        <ele>247</ele>
        <time>2017-06-26T08:58:14Z</time>
      </trkpt>
      <trkpt lat="48.57852" lon="6.41657">
        <ele>247</ele>
        <time>2017-06-26T08:58:15Z</time>
      </trkpt>
      <trkpt lat="48.5785" lon="6.41655">
        <ele>247</ele>
        <time>2017-06-26T08:58:16Z</time>
      </trkpt>
      <trkpt lat="48.57848" lon="6.41654">
        <ele>247</ele>
        <time>2017-06-26T08:58:17Z</time>
      </trkpt>
      <trkpt lat="48.57847" lon="6.41651">
        <ele>247</ele>
        <time>2017-06-26T08:58:18Z</time>
      </trkpt>
      <trkpt lat="48.57846" lon="6.41648">
        <ele>247</ele>
        <time>2017-06-26T08:58:19Z</time>
      </trkpt>
      <trkpt lat="48.57845" lon="6.41645">
        <ele>247</ele>
        <time>2017-06-26T08:58:20Z</time>
      </trkpt>
      <trkpt lat="48.57844" lon="6.41643">
        <ele>247</ele>
        <time>2017-06-26T08:58:21Z</time>
      </trkpt>
      <trkpt lat="48.57843" lon="6.4164">
        <ele>247</ele>
        <time>2017-06-26T08:58:22Z</time>
      </trkpt>
      <trkpt lat="48.57843" lon="6.41637">
        <ele>247</ele>
        <time>2017-06-26T08:58:23Z</time>
      </trkpt>
      <trkpt lat="48.57842" lon="6.41635">
        <ele>247</ele>
        <time>2017-06-26T08:58:24Z</time>
      </trkpt>
      <trkpt lat="48.57841" lon="6.41631">
        <ele>247</ele>
        <time>2017-06-26T08:58:25Z</time>
      </trkpt>
      <trkpt lat="48.57841" lon="6.41627">
        <ele>246</ele>
        <time>2017-06-26T08:58:26Z</time>
      </trkpt>
      <trkpt lat="48.5784" lon="6.41623">
        <ele>246</ele>
        <time>2017-06-26T08:58:27Z</time>
      </trkpt>
      <trkpt lat="48.5784" lon="6.41619">
        <ele>246</ele>
        <time>2017-06-26T08:58:28Z</time>
      </trkpt>
      <trkpt lat="48.5784" lon="6.41616">
        <ele>246</ele>
        <time>2017-06-26T08:58:29Z</time>
      </trkpt>
      <trkpt lat="48.5784" lon="6.41612">
        <ele>246</ele>
        <time>2017-06-26T08:58:30Z</time>
      </trkpt>
      <trkpt lat="48.5784" lon="6.41608">
        <ele>246</ele>
        <time>2017-06-26T08:58:31Z</time>
      </trkpt>
      <trkpt lat="48.57841" lon="6.41605">
        <ele>246</ele>
        <time>2017-06-26T08:58:32Z</time>
      </trkpt>
      <trkpt lat="48.57841" lon="6.41602">
        <ele>246</ele>
        <time>2017-06-26T08:58:33Z</time>
      </trkpt>
      <trkpt lat="48.5784" lon="6.41598">
        <ele>246</ele>
        <time>2017-06-26T08:58:34Z</time>
      </trkpt>
      <trkpt lat="48.5784" lon="6.41594">
        <ele>246</ele>
        <time>2017-06-26T08:58:35Z</time>
      </trkpt>
      <trkpt lat="48.57839" lon="6.41591">
        <ele>246</ele>
        <time>2017-06-26T08:58:36Z</time>
      </trkpt>
      <trkpt lat="48.57839" lon="6.41587">
        <ele>246</ele>
        <time>2017-06-26T08:58:37Z</time>
      </trkpt>
      <trkpt lat="48.57838" lon="6.41583">
        <ele>246</ele>
        <time>2017-06-26T08:58:38Z</time>
      </trkpt>
      <trkpt lat="48.57838" lon="6.4158">
        <ele>246</ele>
        <time>2017-06-26T08:58:39Z</time>
      </trkpt>
      <trkpt lat="48.57838" lon="6.41577">
        <ele>246</ele>
        <time>2017-06-26T08:58:40Z</time>
      </trkpt>
      <trkpt lat="48.57838" lon="6.41573">
        <ele>246</ele>
        <time>2017-06-26T08:58:41Z</time>
      </trkpt>
      <trkpt lat="48.57838" lon="6.4157">
        <ele>246</ele>
        <time>2017-06-26T08:58:42Z</time>
      </trkpt>
      <trkpt lat="48.57838" lon="6.41566">
        <ele>246</ele>
        <time>2017-06-26T08:58:43Z</time>
      </trkpt>
      <trkpt lat="48.57837" lon="6.41563">
        <ele>246</ele>
        <time>2017-06-26T08:58:44Z</time>
      </trkpt>
      <trkpt lat="48.57837" lon="6.4156">
        <ele>246</ele>
        <time>2017-06-26T08:58:45Z</time>
      </trkpt>
      <trkpt lat="48.57837" lon="6.41556">
        <ele>246</ele>
        <time>2017-06-26T08:58:46Z</time>
      </trkpt>
      <trkpt lat="48.57837" lon="6.41553">
        <ele>246</ele>
        <time>2017-06-26T08:58:47Z</time>
      </trkpt>
      <trkpt lat="48.57837" lon="6.41549">
        <ele>246</ele>
        <time>2017-06-26T08:58:48Z</time>
      </trkpt>
      <trkpt lat="48.57836" lon="6.41545">
        <ele>246</ele>
        <time>2017-06-26T08:58:49Z</time>
      </trkpt>
      <trkpt lat="48.57836" lon="6.41541">
        <ele>246</ele>
        <time>2017-06-26T08:58:50Z</time>
      </trkpt>
      <trkpt lat="48.57836" lon="6.41538">
        <ele>246</ele>
        <time>2017-06-26T08:58:51Z</time>
      </trkpt>
      <trkpt lat="48.57836" lon="6.41534">
        <ele>246</ele>
        <time>2017-06-26T08:58:53Z</time>
      </trkpt>
      <trkpt lat="48.57837" lon="6.41531">
        <ele>245</ele>
        <time>2017-06-26T08:58:54Z</time>
      </trkpt>
      <trkpt lat="48.57837" lon="6.41528">
        <ele>245</ele>
        <time>2017-06-26T08:58:56Z</time>
      </trkpt>
      <trkpt lat="48.57837" lon="6.41524">
        <ele>245</ele>
        <time>2017-06-26T08:58:58Z</time>
      </trkpt>
      <trkpt lat="48.57838" lon="6.41519">
        <ele>245</ele>
        <time>2017-06-26T08:59:00Z</time>
      </trkpt>
      <trkpt lat="48.57839" lon="6.41515">
        <ele>245</ele>
        <time>2017-06-26T08:59:02Z</time>
      </trkpt>
      <trkpt lat="48.5784" lon="6.41512">
        <ele>245</ele>
        <time>2017-06-26T08:59:03Z</time>
      </trkpt>
      <trkpt lat="48.57841" lon="6.4151">
        <ele>245</ele>
        <time>2017-06-26T08:59:04Z</time>
      </trkpt>
      <trkpt lat="48.57842" lon="6.41506">
        <ele>245</ele>
        <time>2017-06-26T08:59:05Z</time>
      </trkpt>
      <trkpt lat="48.57842" lon="6.41503">
        <ele>245</ele>
        <time>2017-06-26T08:59:06Z</time>
      </trkpt>
      <trkpt lat="48.57843" lon="6.415">
        <ele>245</ele>
        <time>2017-06-26T08:59:07Z</time>
      </trkpt>
      <trkpt lat="48.57845" lon="6.4149">
        <ele>245</ele>
        <time>2017-06-26T08:59:08Z</time>
      </trkpt>
      <trkpt lat="48.57845" lon="6.41488">
        <ele>245</ele>
        <time>2017-06-26T08:59:09Z</time>
      </trkpt>
      <trkpt lat="48.57846" lon="6.41486">
        <ele>245</ele>
        <time>2017-06-26T08:59:10Z</time>
      </trkpt>
      <trkpt lat="48.57846" lon="6.41484">
        <ele>245</ele>
        <time>2017-06-26T08:59:11Z</time>
      </trkpt>
      <trkpt lat="48.57847" lon="6.41481">
        <ele>245</ele>
        <time>2017-06-26T08:59:12Z</time>
      </trkpt>
      <trkpt lat="48.57848" lon="6.41473">
        <ele>245</ele>
        <time>2017-06-26T08:59:13Z</time>
      </trkpt>
      <trkpt lat="48.5785" lon="6.41464">
        <ele>246</ele>
        <time>2017-06-26T08:59:14Z</time>
      </trkpt>
      <trkpt lat="48.57851" lon="6.41462">
        <ele>246</ele>
        <time>2017-06-26T08:59:15Z</time>
      </trkpt>
      <trkpt lat="48.57852" lon="6.41459">
        <ele>246</ele>
        <time>2017-06-26T08:59:16Z</time>
      </trkpt>
      <trkpt lat="48.57854" lon="6.41456">
        <ele>246</ele>
        <time>2017-06-26T08:59:18Z</time>
      </trkpt>
      <trkpt lat="48.57853" lon="6.41453">
        <ele>247</ele>
        <time>2017-06-26T08:59:23Z</time>
      </trkpt>
      <trkpt lat="48.57852" lon="6.41451">
        <ele>247</ele>
        <time>2017-06-26T08:59:26Z</time>
      </trkpt>
      <trkpt lat="48.5785" lon="6.41449">
        <ele>248</ele>
        <time>2017-06-26T08:59:28Z</time>
      </trkpt>
      <trkpt lat="48.57848" lon="6.4145">
        <ele>248</ele>
        <time>2017-06-26T08:59:30Z</time>
      </trkpt>
      <trkpt lat="48.57844" lon="6.41451">
        <ele>248</ele>
        <time>2017-06-26T08:59:33Z</time>
      </trkpt>
      <trkpt lat="48.57842" lon="6.41451">
        <ele>248</ele>
        <time>2017-06-26T08:59:34Z</time>
      </trkpt>
      <trkpt lat="48.5784" lon="6.41451">
        <ele>248</ele>
        <time>2017-06-26T08:59:35Z</time>
      </trkpt>
      <trkpt lat="48.57838" lon="6.4145">
        <ele>249</ele>
        <time>2017-06-26T08:59:36Z</time>
      </trkpt>
      <trkpt lat="48.57835" lon="6.4145">
        <ele>249</ele>
        <time>2017-06-26T08:59:37Z</time>
      </trkpt>
      <trkpt lat="48.57833" lon="6.4145">
        <ele>250</ele>
        <time>2017-06-26T08:59:38Z</time>
      </trkpt>
      <trkpt lat="48.5783" lon="6.4145">
        <ele>250</ele>
        <time>2017-06-26T08:59:39Z</time>
      </trkpt>
      <trkpt lat="48.57828" lon="6.41448">
        <ele>250</ele>
        <time>2017-06-26T08:59:40Z</time>
      </trkpt>
      <trkpt lat="48.57826" lon="6.41447">
        <ele>250</ele>
        <time>2017-06-26T08:59:41Z</time>
      </trkpt>
      <trkpt lat="48.57823" lon="6.41447">
        <ele>250</ele>
        <time>2017-06-26T08:59:42Z</time>
      </trkpt>
      <trkpt lat="48.57821" lon="6.41446">
        <ele>250</ele>
        <time>2017-06-26T08:59:43Z</time>
      </trkpt>
      <trkpt lat="48.57819" lon="6.41445">
        <ele>250</ele>
        <time>2017-06-26T08:59:44Z</time>
      </trkpt>
      <trkpt lat="48.57817" lon="6.41443">
        <ele>250</ele>
        <time>2017-06-26T08:59:45Z</time>
      </trkpt>
      <trkpt lat="48.57815" lon="6.41441">
        <ele>250</ele>
        <time>2017-06-26T08:59:46Z</time>
      </trkpt>
      <trkpt lat="48.57813" lon="6.41439">
        <ele>250</ele>
        <time>2017-06-26T08:59:47Z</time>
      </trkpt>
      <trkpt lat="48.57811" lon="6.41436">
        <ele>250</ele>
        <time>2017-06-26T08:59:48Z</time>
      </trkpt>
      <trkpt lat="48.57809" lon="6.41434">
        <ele>250</ele>
        <time>2017-06-26T08:59:49Z</time>
      </trkpt>
      <trkpt lat="48.57807" lon="6.41432">
        <ele>250</ele>
        <time>2017-06-26T08:59:50Z</time>
      </trkpt>
      <trkpt lat="48.57805" lon="6.41429">
        <ele>251</ele>
        <time>2017-06-26T08:59:51Z</time>
      </trkpt>
      <trkpt lat="48.57803" lon="6.41426">
        <ele>251</ele>
        <time>2017-06-26T08:59:52Z</time>
      </trkpt>
      <trkpt lat="48.57802" lon="6.41423">
        <ele>251</ele>
        <time>2017-06-26T08:59:53Z</time>
      </trkpt>
      <trkpt lat="48.57801" lon="6.41419">
        <ele>251</ele>
        <time>2017-06-26T08:59:54Z</time>
      </trkpt>
      <trkpt lat="48.578" lon="6.41415">
        <ele>251</ele>
        <time>2017-06-26T08:59:55Z</time>
      </trkpt>
      <trkpt lat="48.578" lon="6.41411">
        <ele>251</ele>
        <time>2017-06-26T08:59:56Z</time>
      </trkpt>
      <trkpt lat="48.57799" lon="6.41407">
        <ele>251</ele>
        <time>2017-06-26T08:59:57Z</time>
      </trkpt>
      <trkpt lat="48.57799" lon="6.41404">
        <ele>251</ele>
        <time>2017-06-26T08:59:58Z</time>
      </trkpt>
      <trkpt lat="48.57798" lon="6.414">
        <ele>251</ele>
        <time>2017-06-26T08:59:59Z</time>
      </trkpt>
      <trkpt lat="48.57798" lon="6.41395">
        <ele>250</ele>
        <time>2017-06-26T09:00:00Z</time>
      </trkpt>
      <trkpt lat="48.57798" lon="6.41389">
        <ele>250</ele>
        <time>2017-06-26T09:00:01Z</time>
      </trkpt>
      <trkpt lat="48.57797" lon="6.41384">
        <ele>250</ele>
        <time>2017-06-26T09:00:02Z</time>
      </trkpt>
      <trkpt lat="48.57796" lon="6.4138">
        <ele>249</ele>
        <time>2017-06-26T09:00:03Z</time>
      </trkpt>
      <trkpt lat="48.57794" lon="6.41376">
        <ele>249</ele>
        <time>2017-06-26T09:00:04Z</time>
      </trkpt>
      <trkpt lat="48.57792" lon="6.41371">
        <ele>249</ele>
        <time>2017-06-26T09:00:05Z</time>
      </trkpt>
      <trkpt lat="48.57791" lon="6.41366">
        <ele>249</ele>
        <time>2017-06-26T09:00:06Z</time>
      </trkpt>
      <trkpt lat="48.57789" lon="6.41361">
        <ele>248</ele>
        <time>2017-06-26T09:00:07Z</time>
      </trkpt>
      <trkpt lat="48.57788" lon="6.41357">
        <ele>248</ele>
        <time>2017-06-26T09:00:08Z</time>
      </trkpt>
      <trkpt lat="48.57788" lon="6.41353">
        <ele>249</ele>
        <time>2017-06-26T09:00:09Z</time>
      </trkpt>
      <trkpt lat="48.57787" lon="6.41349">
        <ele>249</ele>
        <time>2017-06-26T09:00:10Z</time>
      </trkpt>
      <trkpt lat="48.57786" lon="6.41346">
        <ele>249</ele>
        <time>2017-06-26T09:00:11Z</time>
      </trkpt>
      <trkpt lat="48.57784" lon="6.41342">
        <ele>249</ele>
        <time>2017-06-26T09:00:12Z</time>
      </trkpt>
      <trkpt lat="48.57783" lon="6.41339">
        <ele>249</ele>
        <time>2017-06-26T09:00:13Z</time>
      </trkpt>
      <trkpt lat="48.57782" lon="6.41336">
        <ele>249</ele>
        <time>2017-06-26T09:00:14Z</time>
      </trkpt>
      <trkpt lat="48.57782" lon="6.41333">
        <ele>249</ele>
        <time>2017-06-26T09:00:15Z</time>
      </trkpt>
      <trkpt lat="48.57781" lon="6.4133">
        <ele>249</ele>
        <time>2017-06-26T09:00:16Z</time>
      </trkpt>
      <trkpt lat="48.57781" lon="6.41326">
        <ele>249</ele>
        <time>2017-06-26T09:00:17Z</time>
      </trkpt>
      <trkpt lat="48.5778" lon="6.41322">
        <ele>249</ele>
        <time>2017-06-26T09:00:18Z</time>
      </trkpt>
      <trkpt lat="48.5778" lon="6.41316">
        <ele>249</ele>
        <time>2017-06-26T09:00:19Z</time>
      </trkpt>
      <trkpt lat="48.57779" lon="6.41312">
        <ele>248</ele>
        <time>2017-06-26T09:00:20Z</time>
      </trkpt>
      <trkpt lat="48.57778" lon="6.41308">
        <ele>248</ele>
        <time>2017-06-26T09:00:21Z</time>
      </trkpt>
      <trkpt lat="48.57777" lon="6.41304">
        <ele>248</ele>
        <time>2017-06-26T09:00:22Z</time>
      </trkpt>
      <trkpt lat="48.57776" lon="6.41302">
        <ele>248</ele>
        <time>2017-06-26T09:00:23Z</time>
      </trkpt>
      <trkpt lat="48.57775" lon="6.41299">
        <ele>247</ele>
        <time>2017-06-26T09:00:24Z</time>
      </trkpt>
      <trkpt lat="48.57774" lon="6.41295">
        <ele>247</ele>
        <time>2017-06-26T09:00:25Z</time>
      </trkpt>
      <trkpt lat="48.57773" lon="6.41291">
        <ele>247</ele>
        <time>2017-06-26T09:00:26Z</time>
      </trkpt>
      <trkpt lat="48.57772" lon="6.41287">
        <ele>247</ele>
        <time>2017-06-26T09:00:27Z</time>
      </trkpt>
      <trkpt lat="48.57771" lon="6.41284">
        <ele>246</ele>
        <time>2017-06-26T09:00:28Z</time>
      </trkpt>
      <trkpt lat="48.57769" lon="6.41277">
        <ele>246</ele>
        <time>2017-06-26T09:00:29Z</time>
      </trkpt>
      <trkpt lat="48.57767" lon="6.41271">
        <ele>245</ele>
        <time>2017-06-26T09:00:30Z</time>
      </trkpt>
      <trkpt lat="48.57767" lon="6.41267">
        <ele>245</ele>
        <time>2017-06-26T09:00:31Z</time>
      </trkpt>
      <trkpt lat="48.57767" lon="6.41262">
        <ele>245</ele>
        <time>2017-06-26T09:00:32Z</time>
      </trkpt>
      <trkpt lat="48.57767" lon="6.41254">
        <ele>245</ele>
        <time>2017-06-26T09:00:33Z</time>
      </trkpt>
      <trkpt lat="48.57766" lon="6.4125">
        <ele>244</ele>
        <time>2017-06-26T09:00:34Z</time>
      </trkpt>
      <trkpt lat="48.57765" lon="6.41246">
        <ele>244</ele>
        <time>2017-06-26T09:00:35Z</time>
      </trkpt>
      <trkpt lat="48.57764" lon="6.41238">
        <ele>245</ele>
        <time>2017-06-26T09:00:36Z</time>
      </trkpt>
      <trkpt lat="48.57763" lon="6.41235">
        <ele>245</ele>
        <time>2017-06-26T09:00:37Z</time>
      </trkpt>
      <trkpt lat="48.57762" lon="6.4123">
        <ele>245</ele>
        <time>2017-06-26T09:00:38Z</time>
      </trkpt>
      <trkpt lat="48.57761" lon="6.41226">
        <ele>245</ele>
        <time>2017-06-26T09:00:39Z</time>
      </trkpt>
      <trkpt lat="48.57761" lon="6.41222">
        <ele>245</ele>
        <time>2017-06-26T09:00:40Z</time>
      </trkpt>
      <trkpt lat="48.5776" lon="6.41218">
        <ele>245</ele>
        <time>2017-06-26T09:00:41Z</time>
      </trkpt>
      <trkpt lat="48.57759" lon="6.41215">
        <ele>244</ele>
        <time>2017-06-26T09:00:42Z</time>
      </trkpt>
      <trkpt lat="48.57758" lon="6.41212">
        <ele>244</ele>
        <time>2017-06-26T09:00:43Z</time>
      </trkpt>
      <trkpt lat="48.57758" lon="6.41209">
        <ele>244</ele>
        <time>2017-06-26T09:00:44Z</time>
      </trkpt>
      <trkpt lat="48.57757" lon="6.41205">
        <ele>244</ele>
        <time>2017-06-26T09:00:45Z</time>
      </trkpt>
      <trkpt lat="48.57757" lon="6.41202">
        <ele>244</ele>
        <time>2017-06-26T09:00:46Z</time>
      </trkpt>
      <trkpt lat="48.57755" lon="6.41197">
        <ele>244</ele>
        <time>2017-06-26T09:00:47Z</time>
      </trkpt>
      <trkpt lat="48.57754" lon="6.41193">
        <ele>244</ele>
        <time>2017-06-26T09:00:48Z</time>
      </trkpt>
      <trkpt lat="48.57753" lon="6.41189">
        <ele>244</ele>
        <time>2017-06-26T09:00:49Z</time>
      </trkpt>
      <trkpt lat="48.57752" lon="6.41185">
        <ele>244</ele>
        <time>2017-06-26T09:00:50Z</time>
      </trkpt>
      <trkpt lat="48.5775" lon="6.41182">
        <ele>244</ele>
        <time>2017-06-26T09:00:51Z</time>
      </trkpt>
      <trkpt lat="48.5775" lon="6.41179">
        <ele>244</ele>
        <time>2017-06-26T09:00:52Z</time>
      </trkpt>
      <trkpt lat="48.5775" lon="6.41176">
        <ele>244</ele>
        <time>2017-06-26T09:00:53Z</time>
      </trkpt>
      <trkpt lat="48.57749" lon="6.41172">
        <ele>244</ele>
        <time>2017-06-26T09:00:54Z</time>
      </trkpt>
      <trkpt lat="48.57749" lon="6.41168">
        <ele>243</ele>
        <time>2017-06-26T09:00:55Z</time>
      </trkpt>
      <trkpt lat="48.57748" lon="6.41164">
        <ele>244</ele>
        <time>2017-06-26T09:00:56Z</time>
      </trkpt>
      <trkpt lat="48.57748" lon="6.4116">
        <ele>244</ele>
        <time>2017-06-26T09:00:57Z</time>
      </trkpt>
      <trkpt lat="48.57747" lon="6.41156">
        <ele>244</ele>
        <time>2017-06-26T09:00:58Z</time>
      </trkpt>
      <trkpt lat="48.57746" lon="6.41153">
        <ele>244</ele>
        <time>2017-06-26T09:00:59Z</time>
      </trkpt>
      <trkpt lat="48.57745" lon="6.41149">
        <ele>244</ele>
        <time>2017-06-26T09:01:00Z</time>
      </trkpt>
      <trkpt lat="48.57745" lon="6.41144">
        <ele>244</ele>
        <time>2017-06-26T09:01:01Z</time>
      </trkpt>
      <trkpt lat="48.57743" lon="6.41139">
        <ele>244</ele>
        <time>2017-06-26T09:01:02Z</time>
      </trkpt>
      <trkpt lat="48.57742" lon="6.41136">
        <ele>244</ele>
        <time>2017-06-26T09:01:03Z</time>
      </trkpt>
      <trkpt lat="48.57741" lon="6.41132">
        <ele>244</ele>
        <time>2017-06-26T09:01:04Z</time>
      </trkpt>
      <trkpt lat="48.5774" lon="6.41129">
        <ele>244</ele>
        <time>2017-06-26T09:01:05Z</time>
      </trkpt>
      <trkpt lat="48.57739" lon="6.41125">
        <ele>244</ele>
        <time>2017-06-26T09:01:06Z</time>
      </trkpt>
      <trkpt lat="48.57738" lon="6.41121">
        <ele>244</ele>
        <time>2017-06-26T09:01:07Z</time>
      </trkpt>
      <trkpt lat="48.57737" lon="6.41117">
        <ele>244</ele>
        <time>2017-06-26T09:01:08Z</time>
      </trkpt>
      <trkpt lat="48.57735" lon="6.41112">
        <ele>244</ele>
        <time>2017-06-26T09:01:09Z</time>
      </trkpt>
      <trkpt lat="48.57735" lon="6.41109">
        <ele>244</ele>
        <time>2017-06-26T09:01:10Z</time>
      </trkpt>
      <trkpt lat="48.57734" lon="6.41105">
        <ele>243</ele>
        <time>2017-06-26T09:01:11Z</time>
      </trkpt>
      <trkpt lat="48.57734" lon="6.41101">
        <ele>243</ele>
        <time>2017-06-26T09:01:12Z</time>
      </trkpt>
      <trkpt lat="48.57735" lon="6.41096">
        <ele>243</ele>
        <time>2017-06-26T09:01:13Z</time>
      </trkpt>
      <trkpt lat="48.57737" lon="6.41093">
        <ele>243</ele>
        <time>2017-06-26T09:01:14Z</time>
      </trkpt>
      <trkpt lat="48.57739" lon="6.41091">
        <ele>243</ele>
        <time>2017-06-26T09:01:15Z</time>
      </trkpt>
      <trkpt lat="48.57741" lon="6.4109">
        <ele>243</ele>
        <time>2017-06-26T09:01:16Z</time>
      </trkpt>
      <trkpt lat="48.57744" lon="6.4109">
        <ele>243</ele>
        <time>2017-06-26T09:01:17Z</time>
      </trkpt>
      <trkpt lat="48.57746" lon="6.41091">
        <ele>243</ele>
        <time>2017-06-26T09:01:18Z</time>
      </trkpt>
      <trkpt lat="48.57748" lon="6.41092">
        <ele>243</ele>
        <time>2017-06-26T09:01:19Z</time>
      </trkpt>
      <trkpt lat="48.5775" lon="6.41093">
        <ele>243</ele>
        <time>2017-06-26T09:01:20Z</time>
      </trkpt>
      <trkpt lat="48.57751" lon="6.41095">
        <ele>242</ele>
        <time>2017-06-26T09:01:21Z</time>
      </trkpt>
      <trkpt lat="48.57753" lon="6.41096">
        <ele>242</ele>
        <time>2017-06-26T09:01:22Z</time>
      </trkpt>
      <trkpt lat="48.57756" lon="6.41097">
        <ele>242</ele>
        <time>2017-06-26T09:01:23Z</time>
      </trkpt>
      <trkpt lat="48.57758" lon="6.41097">
        <ele>242</ele>
        <time>2017-06-26T09:01:24Z</time>
      </trkpt>
      <trkpt lat="48.57761" lon="6.41098">
        <ele>243</ele>
        <time>2017-06-26T09:01:25Z</time>
      </trkpt>
      <trkpt lat="48.57763" lon="6.41099">
        <ele>242</ele>
        <time>2017-06-26T09:01:26Z</time>
      </trkpt>
      <trkpt lat="48.57765" lon="6.411">
        <ele>242</ele>
        <time>2017-06-26T09:01:27Z</time>
      </trkpt>
      <trkpt lat="48.57767" lon="6.41101">
        <ele>242</ele>
        <time>2017-06-26T09:01:28Z</time>
      </trkpt>
      <trkpt lat="48.5777" lon="6.41103">
        <ele>243</ele>
        <time>2017-06-26T09:01:29Z</time>
      </trkpt>
      <trkpt lat="48.57771" lon="6.41104">
        <ele>243</ele>
        <time>2017-06-26T09:01:30Z</time>
      </trkpt>
      <trkpt lat="48.57775" lon="6.41105">
        <ele>243</ele>
        <time>2017-06-26T09:01:32Z</time>
      </trkpt>
      <trkpt lat="48.57777" lon="6.41106">
        <ele>243</ele>
        <time>2017-06-26T09:01:33Z</time>
      </trkpt>
      <trkpt lat="48.57779" lon="6.41107">
        <ele>243</ele>
        <time>2017-06-26T09:01:34Z</time>
      </trkpt>
      <trkpt lat="48.57781" lon="6.41109">
        <ele>243</ele>
        <time>2017-06-26T09:01:35Z</time>
      </trkpt>
      <trkpt lat="48.57783" lon="6.41111">
        <ele>243</ele>
        <time>2017-06-26T09:01:36Z</time>
      </trkpt>
      <trkpt lat="48.57785" lon="6.41113">
        <ele>243</ele>
        <time>2017-06-26T09:01:37Z</time>
      </trkpt>
      <trkpt lat="48.57788" lon="6.41115">
        <ele>243</ele>
        <time>2017-06-26T09:01:38Z</time>
      </trkpt>
      <trkpt lat="48.5779" lon="6.41116">
        <ele>243</ele>
        <time>2017-06-26T09:01:39Z</time>
      </trkpt>
      <trkpt lat="48.57792" lon="6.41118">
        <ele>243</ele>
        <time>2017-06-26T09:01:40Z</time>
      </trkpt>
      <trkpt lat="48.57794" lon="6.41121">
        <ele>243</ele>
        <time>2017-06-26T09:01:41Z</time>
      </trkpt>
      <trkpt lat="48.57797" lon="6.41123">
        <ele>243</ele>
        <time>2017-06-26T09:01:42Z</time>
      </trkpt>
      <trkpt lat="48.57798" lon="6.41124">
        <ele>243</ele>
        <time>2017-06-26T09:01:43Z</time>
      </trkpt>
      <trkpt lat="48.578" lon="6.41126">
        <ele>243</ele>
        <time>2017-06-26T09:01:44Z</time>
      </trkpt>
      <trkpt lat="48.57802" lon="6.41127">
        <ele>243</ele>
        <time>2017-06-26T09:01:45Z</time>
      </trkpt>
      <trkpt lat="48.57803" lon="6.41129">
        <ele>243</ele>
        <time>2017-06-26T09:01:46Z</time>
      </trkpt>
      <trkpt lat="48.57805" lon="6.4113">
        <ele>243</ele>
        <time>2017-06-26T09:01:47Z</time>
      </trkpt>
      <trkpt lat="48.57807" lon="6.41131">
        <ele>243</ele>
        <time>2017-06-26T09:01:48Z</time>
      </trkpt>
      <trkpt lat="48.57808" lon="6.41132">
        <ele>243</ele>
        <time>2017-06-26T09:01:49Z</time>
      </trkpt>
      <trkpt lat="48.5781" lon="6.41134">
        <ele>243</ele>
        <time>2017-06-26T09:01:50Z</time>
      </trkpt>
      <trkpt lat="48.57811" lon="6.41136">
        <ele>243</ele>
        <time>2017-06-26T09:01:51Z</time>
      </trkpt>
      <trkpt lat="48.57814" lon="6.41137">
        <ele>243</ele>
        <time>2017-06-26T09:01:52Z</time>
      </trkpt>
      <trkpt lat="48.57817" lon="6.41139">
        <ele>243</ele>
        <time>2017-06-26T09:01:53Z</time>
      </trkpt>
      <trkpt lat="48.57818" lon="6.4114">
        <ele>243</ele>
        <time>2017-06-26T09:01:54Z</time>
      </trkpt>
      <trkpt lat="48.5782" lon="6.41142">
        <ele>242</ele>
        <time>2017-06-26T09:01:55Z</time>
      </trkpt>
      <trkpt lat="48.57822" lon="6.41144">
        <ele>242</ele>
        <time>2017-06-26T09:01:57Z</time>
      </trkpt>
      <trkpt lat="48.57824" lon="6.41146">
        <ele>242</ele>
        <time>2017-06-26T09:01:58Z</time>
      </trkpt>
      <trkpt lat="48.57826" lon="6.41148">
        <ele>242</ele>
        <time>2017-06-26T09:01:59Z</time>
      </trkpt>
      <trkpt lat="48.57828" lon="6.41149">
        <ele>242</ele>
        <time>2017-06-26T09:02:00Z</time>
      </trkpt>
      <trkpt lat="48.57831" lon="6.41152">
        <ele>242</ele>
        <time>2017-06-26T09:02:01Z</time>
      </trkpt>
      <trkpt lat="48.57833" lon="6.41154">
        <ele>242</ele>
        <time>2017-06-26T09:02:02Z</time>
      </trkpt>
      <trkpt lat="48.57835" lon="6.41156">
        <ele>242</ele>
        <time>2017-06-26T09:02:03Z</time>
      </trkpt>
      <trkpt lat="48.57836" lon="6.41158">
        <ele>242</ele>
        <time>2017-06-26T09:02:04Z</time>
      </trkpt>
      <trkpt lat="48.57838" lon="6.4116">
        <ele>242</ele>
        <time>2017-06-26T09:02:05Z</time>
      </trkpt>
      <trkpt lat="48.5784" lon="6.41162">
        <ele>242</ele>
        <time>2017-06-26T09:02:06Z</time>
      </trkpt>
      <trkpt lat="48.57842" lon="6.41164">
        <ele>242</ele>
        <time>2017-06-26T09:02:07Z</time>
      </trkpt>
      <trkpt lat="48.57844" lon="6.41166">
        <ele>242</ele>
        <time>2017-06-26T09:02:08Z</time>
      </trkpt>
      <trkpt lat="48.57845" lon="6.41169">
        <ele>242</ele>
        <time>2017-06-26T09:02:09Z</time>
      </trkpt>
      <trkpt lat="48.57846" lon="6.41171">
        <ele>242</ele>
        <time>2017-06-26T09:02:10Z</time>
      </trkpt>
      <trkpt lat="48.57849" lon="6.41173">
        <ele>242</ele>
        <time>2017-06-26T09:02:12Z</time>
      </trkpt>
      <trkpt lat="48.57851" lon="6.41174">
        <ele>242</ele>
        <time>2017-06-26T09:02:13Z</time>
      </trkpt>
      <trkpt lat="48.57853" lon="6.41176">
        <ele>242</ele>
        <time>2017-06-26T09:02:14Z</time>
      </trkpt>
      <trkpt lat="48.57854" lon="6.41178">
        <ele>242</ele>
        <time>2017-06-26T09:02:16Z</time>
      </trkpt>
      <trkpt lat="48.57856" lon="6.41181">
        <ele>242</ele>
        <time>2017-06-26T09:02:19Z</time>
      </trkpt>
      <trkpt lat="48.57859" lon="6.41182">
        <ele>243</ele>
        <time>2017-06-26T09:02:21Z</time>
      </trkpt>
      <trkpt lat="48.57861" lon="6.41183">
        <ele>243</ele>
        <time>2017-06-26T09:02:22Z</time>
      </trkpt>
      <trkpt lat="48.57863" lon="6.41185">
        <ele>243</ele>
        <time>2017-06-26T09:02:23Z</time>
      </trkpt>
      <trkpt lat="48.57865" lon="6.41187">
        <ele>244</ele>
        <time>2017-06-26T09:02:24Z</time>
      </trkpt>
      <trkpt lat="48.57867" lon="6.41189">
        <ele>244</ele>
        <time>2017-06-26T09:02:25Z</time>
      </trkpt>
      <trkpt lat="48.57869" lon="6.41191">
        <ele>244</ele>
        <time>2017-06-26T09:02:26Z</time>
      </trkpt>
      <trkpt lat="48.57871" lon="6.41193">
        <ele>244</ele>
        <time>2017-06-26T09:02:27Z</time>
      </trkpt>
      <trkpt lat="48.57873" lon="6.41197">
        <ele>245</ele>
        <time>2017-06-26T09:02:29Z</time>
      </trkpt>
      <trkpt lat="48.57875" lon="6.41199">
        <ele>246</ele>
        <time>2017-06-26T09:02:30Z</time>
      </trkpt>
      <trkpt lat="48.57877" lon="6.412">
        <ele>246</ele>
        <time>2017-06-26T09:02:31Z</time>
      </trkpt>
      <trkpt lat="48.57879" lon="6.41203">
        <ele>247</ele>
        <time>2017-06-26T09:02:32Z</time>
      </trkpt>
      <trkpt lat="48.5788" lon="6.41205">
        <ele>247</ele>
        <time>2017-06-26T09:02:33Z</time>
      </trkpt>
      <trkpt lat="48.57883" lon="6.41208">
        <ele>247</ele>
        <time>2017-06-26T09:02:34Z</time>
      </trkpt>
      <trkpt lat="48.57884" lon="6.41212">
        <ele>248</ele>
        <time>2017-06-26T09:02:35Z</time>
      </trkpt>
      <trkpt lat="48.57885" lon="6.41215">
        <ele>248</ele>
        <time>2017-06-26T09:02:36Z</time>
      </trkpt>
      <trkpt lat="48.57887" lon="6.41217">
        <ele>248</ele>
        <time>2017-06-26T09:02:37Z</time>
      </trkpt>
      <trkpt lat="48.57889" lon="6.4122">
        <ele>249</ele>
        <time>2017-06-26T09:02:39Z</time>
      </trkpt>
      <trkpt lat="48.57891" lon="6.41222">
        <ele>249</ele>
        <time>2017-06-26T09:02:40Z</time>
      </trkpt>
      <trkpt lat="48.57894" lon="6.41225">
        <ele>250</ele>
        <time>2017-06-26T09:02:42Z</time>
      </trkpt>
      <trkpt lat="48.57896" lon="6.41227">
        <ele>251</ele>
        <time>2017-06-26T09:02:44Z</time>
      </trkpt>
      <trkpt lat="48.57898" lon="6.41229">
        <ele>251</ele>
        <time>2017-06-26T09:02:45Z</time>
      </trkpt>
      <trkpt lat="48.57899" lon="6.41232">
        <ele>251</ele>
        <time>2017-06-26T09:02:46Z</time>
      </trkpt>
      <trkpt lat="48.579" lon="6.41235">
        <ele>252</ele>
        <time>2017-06-26T09:02:47Z</time>
      </trkpt>
      <trkpt lat="48.57902" lon="6.41238">
        <ele>252</ele>
        <time>2017-06-26T09:02:48Z</time>
      </trkpt>
      <trkpt lat="48.57904" lon="6.41242">
        <ele>252</ele>
        <time>2017-06-26T09:02:49Z</time>
      </trkpt>
      <trkpt lat="48.57906" lon="6.41244">
        <ele>252</ele>
        <time>2017-06-26T09:02:50Z</time>
      </trkpt>
      <trkpt lat="48.57907" lon="6.41247">
        <ele>252</ele>
        <time>2017-06-26T09:02:51Z</time>
      </trkpt>
      <trkpt lat="48.57909" lon="6.41249">
        <ele>252</ele>
        <time>2017-06-26T09:02:52Z</time>
      </trkpt>
      <trkpt lat="48.57911" lon="6.41253">
        <ele>253</ele>
        <time>2017-06-26T09:02:54Z</time>
      </trkpt>
      <trkpt lat="48.57913" lon="6.41257">
        <ele>253</ele>
        <time>2017-06-26T09:02:56Z</time>
      </trkpt>
      <trkpt lat="48.57916" lon="6.4126">
        <ele>254</ele>
        <time>2017-06-26T09:02:58Z</time>
      </trkpt>
      <trkpt lat="48.57917" lon="6.41262">
        <ele>254</ele>
        <time>2017-06-26T09:02:59Z</time>
      </trkpt>
      <trkpt lat="48.57919" lon="6.41263">
        <ele>254</ele>
        <time>2017-06-26T09:03:00Z</time>
      </trkpt>
      <trkpt lat="48.5792" lon="6.41267">
        <ele>254</ele>
        <time>2017-06-26T09:03:02Z</time>
      </trkpt>
      <trkpt lat="48.57922" lon="6.41271">
        <ele>254</ele>
        <time>2017-06-26T09:03:04Z</time>
      </trkpt>
      <trkpt lat="48.57925" lon="6.41275">
        <ele>254</ele>
        <time>2017-06-26T09:03:06Z</time>
      </trkpt>
      <trkpt lat="48.57927" lon="6.41277">
        <ele>255</ele>
        <time>2017-06-26T09:03:07Z</time>
      </trkpt>
      <trkpt lat="48.57928" lon="6.41278">
        <ele>254</ele>
        <time>2017-06-26T09:03:08Z</time>
      </trkpt>
      <trkpt lat="48.5793" lon="6.41281">
        <ele>255</ele>
        <time>2017-06-26T09:03:10Z</time>
      </trkpt>
      <trkpt lat="48.57932" lon="6.41285">
        <ele>255</ele>
        <time>2017-06-26T09:03:12Z</time>
      </trkpt>
      <trkpt lat="48.57932" lon="6.4129">
        <ele>255</ele>
        <time>2017-06-26T09:03:14Z</time>
      </trkpt>
      <trkpt lat="48.57933" lon="6.41295">
        <ele>255</ele>
        <time>2017-06-26T09:03:16Z</time>
      </trkpt>
      <trkpt lat="48.57935" lon="6.41298">
        <ele>255</ele>
        <time>2017-06-26T09:03:18Z</time>
      </trkpt>
      <trkpt lat="48.57937" lon="6.41299">
        <ele>255</ele>
        <time>2017-06-26T09:03:19Z</time>
      </trkpt>
      <trkpt lat="48.57939" lon="6.41302">
        <ele>256</ele>
        <time>2017-06-26T09:03:21Z</time>
      </trkpt>
      <trkpt lat="48.57942" lon="6.41304">
        <ele>257</ele>
        <time>2017-06-26T09:03:23Z</time>
      </trkpt>
      <trkpt lat="48.57945" lon="6.41307">
        <ele>257</ele>
        <time>2017-06-26T09:03:25Z</time>
      </trkpt>
      <trkpt lat="48.57947" lon="6.41309">
        <ele>258</ele>
        <time>2017-06-26T09:03:27Z</time>
      </trkpt>
      <trkpt lat="48.57949" lon="6.4131">
        <ele>258</ele>
        <time>2017-06-26T09:03:29Z</time>
      </trkpt>
      <trkpt lat="48.57952" lon="6.41313">
        <ele>259</ele>
        <time>2017-06-26T09:03:31Z</time>
      </trkpt>
      <trkpt lat="48.57954" lon="6.41314">
        <ele>259</ele>
        <time>2017-06-26T09:03:33Z</time>
      </trkpt>
      <trkpt lat="48.57957" lon="6.41317">
        <ele>260</ele>
        <time>2017-06-26T09:03:35Z</time>
      </trkpt>
      <trkpt lat="48.57959" lon="6.41317">
        <ele>260</ele>
        <time>2017-06-26T09:03:36Z</time>
      </trkpt>
      <trkpt lat="48.57961" lon="6.41318">
        <ele>260</ele>
        <time>2017-06-26T09:03:37Z</time>
      </trkpt>
      <trkpt lat="48.57962" lon="6.41319">
        <ele>260</ele>
        <time>2017-06-26T09:03:38Z</time>
      </trkpt>
      <trkpt lat="48.57965" lon="6.41321">
        <ele>260</ele>
        <time>2017-06-26T09:03:40Z</time>
      </trkpt>
      <trkpt lat="48.57968" lon="6.41324">
        <ele>261</ele>
        <time>2017-06-26T09:03:42Z</time>
      </trkpt>
      <trkpt lat="48.57971" lon="6.41325">
        <ele>261</ele>
        <time>2017-06-26T09:03:44Z</time>
      </trkpt>
      <trkpt lat="48.57973" lon="6.41328">
        <ele>261</ele>
        <time>2017-06-26T09:03:46Z</time>
      </trkpt>
      <trkpt lat="48.57976" lon="6.41331">
        <ele>261</ele>
        <time>2017-06-26T09:03:48Z</time>
      </trkpt>
      <trkpt lat="48.57978" lon="6.41332">
        <ele>261</ele>
        <time>2017-06-26T09:03:49Z</time>
      </trkpt>
      <trkpt lat="48.5798" lon="6.41336">
        <ele>261</ele>
        <time>2017-06-26T09:03:51Z</time>
      </trkpt>
      <trkpt lat="48.57982" lon="6.41338">
        <ele>262</ele>
        <time>2017-06-26T09:03:52Z</time>
      </trkpt>
      <trkpt lat="48.57984" lon="6.41339">
        <ele>262</ele>
        <time>2017-06-26T09:03:53Z</time>
      </trkpt>
      <trkpt lat="48.57986" lon="6.4134">
        <ele>262</ele>
        <time>2017-06-26T09:03:54Z</time>
      </trkpt>
      <trkpt lat="48.57988" lon="6.41342">
        <ele>262</ele>
        <time>2017-06-26T09:03:55Z</time>
      </trkpt>
      <trkpt lat="48.5799" lon="6.41344">
        <ele>262</ele>
        <time>2017-06-26T09:03:56Z</time>
      </trkpt>
      <trkpt lat="48.57992" lon="6.41346">
        <ele>262</ele>
        <time>2017-06-26T09:03:57Z</time>
      </trkpt>
      <trkpt lat="48.57994" lon="6.41347">
        <ele>262</ele>
        <time>2017-06-26T09:03:58Z</time>
      </trkpt>
      <trkpt lat="48.57996" lon="6.41349">
        <ele>262</ele>
        <time>2017-06-26T09:03:59Z</time>
      </trkpt>
      <trkpt lat="48.57998" lon="6.41351">
        <ele>262</ele>
        <time>2017-06-26T09:04:00Z</time>
      </trkpt>
      <trkpt lat="48.58" lon="6.41353">
        <ele>262</ele>
        <time>2017-06-26T09:04:01Z</time>
      </trkpt>
      <trkpt lat="48.58002" lon="6.41356">
        <ele>262</ele>
        <time>2017-06-26T09:04:02Z</time>
      </trkpt>
      <trkpt lat="48.58004" lon="6.41358">
        <ele>261</ele>
        <time>2017-06-26T09:04:03Z</time>
      </trkpt>
      <trkpt lat="48.58006" lon="6.41361">
        <ele>261</ele>
        <time>2017-06-26T09:04:04Z</time>
      </trkpt>
      <trkpt lat="48.58008" lon="6.41363">
        <ele>261</ele>
        <time>2017-06-26T09:04:05Z</time>
      </trkpt>
      <trkpt lat="48.5801" lon="6.41366">
        <ele>260</ele>
        <time>2017-06-26T09:04:06Z</time>
      </trkpt>
      <trkpt lat="48.58012" lon="6.41369">
        <ele>260</ele>
        <time>2017-06-26T09:04:07Z</time>
      </trkpt>
      <trkpt lat="48.58014" lon="6.41372">
        <ele>260</ele>
        <time>2017-06-26T09:04:08Z</time>
      </trkpt>
      <trkpt lat="48.58016" lon="6.41375">
        <ele>260</ele>
        <time>2017-06-26T09:04:09Z</time>
      </trkpt>
      <trkpt lat="48.58018" lon="6.41377">
        <ele>260</ele>
        <time>2017-06-26T09:04:10Z</time>
      </trkpt>
      <trkpt lat="48.5802" lon="6.4138">
        <ele>260</ele>
        <time>2017-06-26T09:04:11Z</time>
      </trkpt>
      <trkpt lat="48.58023" lon="6.41382">
        <ele>260</ele>
        <time>2017-06-26T09:04:12Z</time>
      </trkpt>
      <trkpt lat="48.58025" lon="6.41385">
        <ele>260</ele>
        <time>2017-06-26T09:04:13Z</time>
      </trkpt>
      <trkpt lat="48.58028" lon="6.41386">
        <ele>260</ele>
        <time>2017-06-26T09:04:14Z</time>
      </trkpt>
      <trkpt lat="48.5803" lon="6.41388">
        <ele>260</ele>
        <time>2017-06-26T09:04:15Z</time>
      </trkpt>
      <trkpt lat="48.58032" lon="6.4139">
        <ele>260</ele>
        <time>2017-06-26T09:04:16Z</time>
      </trkpt>
      <trkpt lat="48.58035" lon="6.41391">
        <ele>260</ele>
        <time>2017-06-26T09:04:17Z</time>
      </trkpt>
      <trkpt lat="48.58037" lon="6.41393">
        <ele>260</ele>
        <time>2017-06-26T09:04:18Z</time>
      </trkpt>
      <trkpt lat="48.5804" lon="6.41394">
        <ele>259</ele>
        <time>2017-06-26T09:04:19Z</time>
      </trkpt>
      <trkpt lat="48.58042" lon="6.41396">
        <ele>259</ele>
        <time>2017-06-26T09:04:20Z</time>
      </trkpt>
      <trkpt lat="48.58045" lon="6.41397">
        <ele>259</ele>
        <time>2017-06-26T09:04:21Z</time>
      </trkpt>
      <trkpt lat="48.58047" lon="6.41399">
        <ele>259</ele>
        <time>2017-06-26T09:04:22Z</time>
      </trkpt>
      <trkpt lat="48.58049" lon="6.414">
        <ele>259</ele>
        <time>2017-06-26T09:04:23Z</time>
      </trkpt>
      <trkpt lat="48.58051" lon="6.41402">
        <ele>259</ele>
        <time>2017-06-26T09:04:24Z</time>
      </trkpt>
      <trkpt lat="48.58054" lon="6.41403">
        <ele>259</ele>
        <time>2017-06-26T09:04:25Z</time>
      </trkpt>
      <trkpt lat="48.58057" lon="6.41404">
        <ele>259</ele>
        <time>2017-06-26T09:04:26Z</time>
      </trkpt>
      <trkpt lat="48.5806" lon="6.41404">
        <ele>259</ele>
        <time>2017-06-26T09:04:27Z</time>
      </trkpt>
      <trkpt lat="48.58063" lon="6.41405">
        <ele>259</ele>
        <time>2017-06-26T09:04:28Z</time>
      </trkpt>
      <trkpt lat="48.58065" lon="6.41405">
        <ele>259</ele>
        <time>2017-06-26T09:04:29Z</time>
      </trkpt>
      <trkpt lat="48.58068" lon="6.41404">
        <ele>259</ele>
        <time>2017-06-26T09:04:30Z</time>
      </trkpt>
      <trkpt lat="48.5807" lon="6.41403">
        <ele>259</ele>
        <time>2017-06-26T09:04:31Z</time>
      </trkpt>
      <trkpt lat="48.58071" lon="6.414">
        <ele>259</ele>
        <time>2017-06-26T09:04:32Z</time>
      </trkpt>
      <trkpt lat="48.58072" lon="6.41398">
        <ele>259</ele>
        <time>2017-06-26T09:04:33Z</time>
      </trkpt>
      <trkpt lat="48.58072" lon="6.41394">
        <ele>259</ele>
        <time>2017-06-26T09:04:34Z</time>
      </trkpt>
      <trkpt lat="48.58071" lon="6.41392">
        <ele>259</ele>
        <time>2017-06-26T09:04:35Z</time>
      </trkpt>
      <trkpt lat="48.5807" lon="6.41388">
        <ele>259</ele>
        <time>2017-06-26T09:04:36Z</time>
      </trkpt>
      <trkpt lat="48.5807" lon="6.41385">
        <ele>259</ele>
        <time>2017-06-26T09:04:37Z</time>
      </trkpt>
      <trkpt lat="48.58068" lon="6.4138">
        <ele>260</ele>
        <time>2017-06-26T09:04:39Z</time>
      </trkpt>
      <trkpt lat="48.58067" lon="6.41377">
        <ele>260</ele>
        <time>2017-06-26T09:04:40Z</time>
      </trkpt>
      <trkpt lat="48.58066" lon="6.41374">
        <ele>260</ele>
        <time>2017-06-26T09:04:41Z</time>
      </trkpt>
      <trkpt lat="48.58064" lon="6.41372">
        <ele>260</ele>
        <time>2017-06-26T09:04:42Z</time>
      </trkpt>
      <trkpt lat="48.58063" lon="6.4137">
        <ele>260</ele>
        <time>2017-06-26T09:04:43Z</time>
      </trkpt>
      <trkpt lat="48.58061" lon="6.41368">
        <ele>260</ele>
        <time>2017-06-26T09:04:44Z</time>
      </trkpt>
      <trkpt lat="48.5806" lon="6.41366">
        <ele>260</ele>
        <time>2017-06-26T09:04:45Z</time>
      </trkpt>
      <trkpt lat="48.58058" lon="6.41363">
        <ele>260</ele>
        <time>2017-06-26T09:04:46Z</time>
      </trkpt>
      <trkpt lat="48.58056" lon="6.4136">
        <ele>260</ele>
        <time>2017-06-26T09:04:47Z</time>
      </trkpt>
      <trkpt lat="48.58055" lon="6.41357">
        <ele>260</ele>
        <time>2017-06-26T09:04:48Z</time>
      </trkpt>
      <trkpt lat="48.58054" lon="6.41355">
        <ele>260</ele>
        <time>2017-06-26T09:04:49Z</time>
      </trkpt>
      <trkpt lat="48.58054" lon="6.41352">
        <ele>260</ele>
        <time>2017-06-26T09:04:50Z</time>
      </trkpt>
      <trkpt lat="48.58053" lon="6.41348">
        <ele>260</ele>
        <time>2017-06-26T09:04:51Z</time>
      </trkpt>
      <trkpt lat="48.58053" lon="6.41345">
        <ele>260</ele>
        <time>2017-06-26T09:04:52Z</time>
      </trkpt>
      <trkpt lat="48.58053" lon="6.41341">
        <ele>260</ele>
        <time>2017-06-26T09:04:53Z</time>
      </trkpt>
      <trkpt lat="48.58053" lon="6.41337">
        <ele>260</ele>
        <time>2017-06-26T09:04:54Z</time>
      </trkpt>
      <trkpt lat="48.58053" lon="6.41333">
        <ele>260</ele>
        <time>2017-06-26T09:04:55Z</time>
      </trkpt>
      <trkpt lat="48.58052" lon="6.4133">
        <ele>260</ele>
        <time>2017-06-26T09:04:56Z</time>
      </trkpt>
      <trkpt lat="48.58051" lon="6.41326">
        <ele>260</ele>
        <time>2017-06-26T09:04:57Z</time>
      </trkpt>
      <trkpt lat="48.58051" lon="6.41322">
        <ele>260</ele>
        <time>2017-06-26T09:04:58Z</time>
      </trkpt>
      <trkpt lat="48.58051" lon="6.41318">
        <ele>260</ele>
        <time>2017-06-26T09:04:59Z</time>
      </trkpt>
      <trkpt lat="48.5805" lon="6.41314">
        <ele>260</ele>
        <time>2017-06-26T09:05:00Z</time>
      </trkpt>
      <trkpt lat="48.5805" lon="6.41311">
        <ele>260</ele>
        <time>2017-06-26T09:05:01Z</time>
      </trkpt>
      <trkpt lat="48.5805" lon="6.41307">
        <ele>260</ele>
        <time>2017-06-26T09:05:02Z</time>
      </trkpt>
      <trkpt lat="48.5805" lon="6.41303">
        <ele>260</ele>
        <time>2017-06-26T09:05:03Z</time>
      </trkpt>
      <trkpt lat="48.5805" lon="6.41299">
        <ele>260</ele>
        <time>2017-06-26T09:05:04Z</time>
      </trkpt>
      <trkpt lat="48.5805" lon="6.41296">
        <ele>260</ele>
        <time>2017-06-26T09:05:05Z</time>
      </trkpt>
      <trkpt lat="48.58051" lon="6.41292">
        <ele>260</ele>
        <time>2017-06-26T09:05:06Z</time>
      </trkpt>
      <trkpt lat="48.58051" lon="6.41288">
        <ele>260</ele>
        <time>2017-06-26T09:05:07Z</time>
      </trkpt>
      <trkpt lat="48.58052" lon="6.41285">
        <ele>260</ele>
        <time>2017-06-26T09:05:08Z</time>
      </trkpt>
      <trkpt lat="48.58053" lon="6.41282">
        <ele>260</ele>
        <time>2017-06-26T09:05:09Z</time>
      </trkpt>
      <trkpt lat="48.58054" lon="6.41278">
        <ele>260</ele>
        <time>2017-06-26T09:05:10Z</time>
      </trkpt>
      <trkpt lat="48.58055" lon="6.41276">
        <ele>260</ele>
        <time>2017-06-26T09:05:11Z</time>
      </trkpt>
      <trkpt lat="48.58056" lon="6.41273">
        <ele>260</ele>
        <time>2017-06-26T09:05:12Z</time>
      </trkpt>
      <trkpt lat="48.58058" lon="6.41268">
        <ele>260</ele>
        <time>2017-06-26T09:05:13Z</time>
      </trkpt>
      <trkpt lat="48.5806" lon="6.41264">
        <ele>260</ele>
        <time>2017-06-26T09:05:14Z</time>
      </trkpt>
      <trkpt lat="48.58062" lon="6.41258">
        <ele>259</ele>
        <time>2017-06-26T09:05:15Z</time>
      </trkpt>
      <trkpt lat="48.58063" lon="6.41254">
        <ele>259</ele>
        <time>2017-06-26T09:05:16Z</time>
      </trkpt>
      <trkpt lat="48.58065" lon="6.41248">
        <ele>259</ele>
        <time>2017-06-26T09:05:17Z</time>
      </trkpt>
      <trkpt lat="48.58066" lon="6.41243">
        <ele>259</ele>
        <time>2017-06-26T09:05:18Z</time>
      </trkpt>
      <trkpt lat="48.58068" lon="6.41238">
        <ele>259</ele>
        <time>2017-06-26T09:05:19Z</time>
      </trkpt>
      <trkpt lat="48.5807" lon="6.41233">
        <ele>259</ele>
        <time>2017-06-26T09:05:20Z</time>
      </trkpt>
      <trkpt lat="48.58071" lon="6.41228">
        <ele>259</ele>
        <time>2017-06-26T09:05:21Z</time>
      </trkpt>
      <trkpt lat="48.58071" lon="6.41225">
        <ele>259</ele>
        <time>2017-06-26T09:05:22Z</time>
      </trkpt>
      <trkpt lat="48.58072" lon="6.41221">
        <ele>259</ele>
        <time>2017-06-26T09:05:23Z</time>
      </trkpt>
      <trkpt lat="48.58073" lon="6.41218">
        <ele>259</ele>
        <time>2017-06-26T09:05:24Z</time>
      </trkpt>
      <trkpt lat="48.58074" lon="6.41213">
        <ele>259</ele>
        <time>2017-06-26T09:05:25Z</time>
      </trkpt>
      <trkpt lat="48.58075" lon="6.41209">
        <ele>259</ele>
        <time>2017-06-26T09:05:26Z</time>
      </trkpt>
      <trkpt lat="48.58076" lon="6.41204">
        <ele>259</ele>
        <time>2017-06-26T09:05:27Z</time>
      </trkpt>
      <trkpt lat="48.58077" lon="6.41199">
        <ele>260</ele>
        <time>2017-06-26T09:05:28Z</time>
      </trkpt>
      <trkpt lat="48.58078" lon="6.41195">
        <ele>260</ele>
        <time>2017-06-26T09:05:29Z</time>
      </trkpt>
      <trkpt lat="48.58077" lon="6.4119">
        <ele>260</ele>
        <time>2017-06-26T09:05:30Z</time>
      </trkpt>
      <trkpt lat="48.58077" lon="6.41186">
        <ele>259</ele>
        <time>2017-06-26T09:05:31Z</time>
      </trkpt>
      <trkpt lat="48.58076" lon="6.41182">
        <ele>259</ele>
        <time>2017-06-26T09:05:32Z</time>
      </trkpt>
      <trkpt lat="48.58076" lon="6.41178">
        <ele>259</ele>
        <time>2017-06-26T09:05:33Z</time>
      </trkpt>
      <trkpt lat="48.58075" lon="6.41174">
        <ele>259</ele>
        <time>2017-06-26T09:05:34Z</time>
      </trkpt>
      <trkpt lat="48.58074" lon="6.4117">
        <ele>259</ele>
        <time>2017-06-26T09:05:35Z</time>
      </trkpt>
      <trkpt lat="48.58074" lon="6.41166">
        <ele>259</ele>
        <time>2017-06-26T09:05:36Z</time>
      </trkpt>
      <trkpt lat="48.58074" lon="6.41162">
        <ele>259</ele>
        <time>2017-06-26T09:05:37Z</time>
      </trkpt>
      <trkpt lat="48.58073" lon="6.41159">
        <ele>259</ele>
        <time>2017-06-26T09:05:38Z</time>
      </trkpt>
      <trkpt lat="48.58072" lon="6.41155">
        <ele>259</ele>
        <time>2017-06-26T09:05:39Z</time>
      </trkpt>
      <trkpt lat="48.58071" lon="6.41152">
        <ele>259</ele>
        <time>2017-06-26T09:05:40Z</time>
      </trkpt>
      <trkpt lat="48.5807" lon="6.41148">
        <ele>259</ele>
        <time>2017-06-26T09:05:41Z</time>
      </trkpt>
      <trkpt lat="48.5807" lon="6.41143">
        <ele>259</ele>
        <time>2017-06-26T09:05:42Z</time>
      </trkpt>
      <trkpt lat="48.5807" lon="6.41139">
        <ele>258</ele>
        <time>2017-06-26T09:05:43Z</time>
      </trkpt>
      <trkpt lat="48.58069" lon="6.41135">
        <ele>258</ele>
        <time>2017-06-26T09:05:44Z</time>
      </trkpt>
      <trkpt lat="48.5807" lon="6.41131">
        <ele>258</ele>
        <time>2017-06-26T09:05:45Z</time>
      </trkpt>
      <trkpt lat="48.58071" lon="6.41127">
        <ele>258</ele>
        <time>2017-06-26T09:05:46Z</time>
      </trkpt>
      <trkpt lat="48.58072" lon="6.41123">
        <ele>258</ele>
        <time>2017-06-26T09:05:47Z</time>
      </trkpt>
      <trkpt lat="48.58072" lon="6.41118">
        <ele>258</ele>
        <time>2017-06-26T09:05:48Z</time>
      </trkpt>
      <trkpt lat="48.58073" lon="6.41114">
        <ele>257</ele>
        <time>2017-06-26T09:05:49Z</time>
      </trkpt>
      <trkpt lat="48.58073" lon="6.41111">
        <ele>257</ele>
        <time>2017-06-26T09:05:50Z</time>
      </trkpt>
      <trkpt lat="48.58073" lon="6.41108">
        <ele>257</ele>
        <time>2017-06-26T09:05:51Z</time>
      </trkpt>
      <trkpt lat="48.58072" lon="6.41105">
        <ele>257</ele>
        <time>2017-06-26T09:05:52Z</time>
      </trkpt>
      <trkpt lat="48.58071" lon="6.41103">
        <ele>257</ele>
        <time>2017-06-26T09:05:53Z</time>
      </trkpt>
      <trkpt lat="48.58069" lon="6.411">
        <ele>257</ele>
        <time>2017-06-26T09:05:54Z</time>
      </trkpt>
      <trkpt lat="48.58068" lon="6.41096">
        <ele>257</ele>
        <time>2017-06-26T09:05:55Z</time>
      </trkpt>
      <trkpt lat="48.58066" lon="6.41093">
        <ele>257</ele>
        <time>2017-06-26T09:05:56Z</time>
      </trkpt>
      <trkpt lat="48.58064" lon="6.4109">
        <ele>257</ele>
        <time>2017-06-26T09:05:57Z</time>
      </trkpt>
      <trkpt lat="48.58062" lon="6.41089">
        <ele>257</ele>
        <time>2017-06-26T09:05:58Z</time>
      </trkpt>
      <trkpt lat="48.5806" lon="6.41088">
        <ele>257</ele>
        <time>2017-06-26T09:05:59Z</time>
      </trkpt>
      <trkpt lat="48.58058" lon="6.41087">
        <ele>256</ele>
        <time>2017-06-26T09:06:00Z</time>
      </trkpt>
      <trkpt lat="48.58055" lon="6.41087">
        <ele>256</ele>
        <time>2017-06-26T09:06:01Z</time>
      </trkpt>
      <trkpt lat="48.58053" lon="6.41086">
        <ele>256</ele>
        <time>2017-06-26T09:06:02Z</time>
      </trkpt>
      <trkpt lat="48.58051" lon="6.41085">
        <ele>256</ele>
        <time>2017-06-26T09:06:03Z</time>
      </trkpt>
      <trkpt lat="48.58049" lon="6.41082">
        <ele>256</ele>
        <time>2017-06-26T09:06:04Z</time>
      </trkpt>
      <trkpt lat="48.58048" lon="6.41078">
        <ele>256</ele>
        <time>2017-06-26T09:06:06Z</time>
      </trkpt>
      <trkpt lat="48.58045" lon="6.41076">
        <ele>256</ele>
        <time>2017-06-26T09:06:08Z</time>
      </trkpt>
      <trkpt lat="48.58042" lon="6.41075">
        <ele>256</ele>
        <time>2017-06-26T09:06:10Z</time>
      </trkpt>
      <trkpt lat="48.5804" lon="6.41075">
        <ele>256</ele>
        <time>2017-06-26T09:06:11Z</time>
      </trkpt>
      <trkpt lat="48.58037" lon="6.41073">
        <ele>256</ele>
        <time>2017-06-26T09:06:12Z</time>
      </trkpt>
      <trkpt lat="48.58035" lon="6.41071">
        <ele>256</ele>
        <time>2017-06-26T09:06:13Z</time>
      </trkpt>
      <trkpt lat="48.58032" lon="6.41069">
        <ele>256</ele>
        <time>2017-06-26T09:06:14Z</time>
      </trkpt>
      <trkpt lat="48.5803" lon="6.41069">
        <ele>256</ele>
        <time>2017-06-26T09:06:15Z</time>
      </trkpt>
      <trkpt lat="48.58028" lon="6.41068">
        <ele>256</ele>
        <time>2017-06-26T09:06:16Z</time>
      </trkpt>
      <trkpt lat="48.58026" lon="6.41068">
        <ele>256</ele>
        <time>2017-06-26T09:06:17Z</time>
      </trkpt>
      <trkpt lat="48.58025" lon="6.41065">
        <ele>255</ele>
        <time>2017-06-26T09:06:18Z</time>
      </trkpt>
      <trkpt lat="48.58025" lon="6.41061">
        <ele>255</ele>
        <time>2017-06-26T09:06:19Z</time>
      </trkpt>
      <trkpt lat="48.58026" lon="6.41057">
        <ele>255</ele>
        <time>2017-06-26T09:06:20Z</time>
      </trkpt>
      <trkpt lat="48.58027" lon="6.41053">
        <ele>254</ele>
        <time>2017-06-26T09:06:21Z</time>
      </trkpt>
      <trkpt lat="48.58028" lon="6.41048">
        <ele>254</ele>
        <time>2017-06-26T09:06:22Z</time>
      </trkpt>
      <trkpt lat="48.5803" lon="6.41045">
        <ele>254</ele>
        <time>2017-06-26T09:06:23Z</time>
      </trkpt>
      <trkpt lat="48.58032" lon="6.41042">
        <ele>254</ele>
        <time>2017-06-26T09:06:24Z</time>
      </trkpt>
      <trkpt lat="48.58033" lon="6.41041">
        <ele>254</ele>
        <time>2017-06-26T09:06:25Z</time>
      </trkpt>
      <trkpt lat="48.58035" lon="6.41039">
        <ele>254</ele>
        <time>2017-06-26T09:06:26Z</time>
      </trkpt>
      <trkpt lat="48.58037" lon="6.41037">
        <ele>253</ele>
        <time>2017-06-26T09:06:28Z</time>
      </trkpt>
      <trkpt lat="48.58038" lon="6.41033">
        <ele>253</ele>
        <time>2017-06-26T09:06:30Z</time>
      </trkpt>
      <trkpt lat="48.5804" lon="6.4103">
        <ele>252</ele>
        <time>2017-06-26T09:06:32Z</time>
      </trkpt>
      <trkpt lat="48.58041" lon="6.41027">
        <ele>252</ele>
        <time>2017-06-26T09:06:34Z</time>
      </trkpt>
      <trkpt lat="48.58042" lon="6.41023">
        <ele>252</ele>
        <time>2017-06-26T09:06:36Z</time>
      </trkpt>
      <trkpt lat="48.58043" lon="6.41018">
        <ele>252</ele>
        <time>2017-06-26T09:06:38Z</time>
      </trkpt>
      <trkpt lat="48.58044" lon="6.41015">
        <ele>252</ele>
        <time>2017-06-26T09:06:39Z</time>
      </trkpt>
      <trkpt lat="48.58044" lon="6.41013">
        <ele>252</ele>
        <time>2017-06-26T09:06:40Z</time>
      </trkpt>
      <trkpt lat="48.58045" lon="6.4101">
        <ele>252</ele>
        <time>2017-06-26T09:06:41Z</time>
      </trkpt>
      <trkpt lat="48.58046" lon="6.41006">
        <ele>252</ele>
        <time>2017-06-26T09:06:42Z</time>
      </trkpt>
      <trkpt lat="48.58047" lon="6.41002">
        <ele>252</ele>
        <time>2017-06-26T09:06:43Z</time>
      </trkpt>
      <trkpt lat="48.58048" lon="6.41">
        <ele>251</ele>
        <time>2017-06-26T09:06:44Z</time>
      </trkpt>
      <trkpt lat="48.58049" lon="6.40996">
        <ele>251</ele>
        <time>2017-06-26T09:06:45Z</time>
      </trkpt>
      <trkpt lat="48.58051" lon="6.40991">
        <ele>251</ele>
        <time>2017-06-26T09:06:46Z</time>
      </trkpt>
      <trkpt lat="48.58052" lon="6.40988">
        <ele>250</ele>
        <time>2017-06-26T09:06:47Z</time>
      </trkpt>
      <trkpt lat="48.58053" lon="6.40985">
        <ele>250</ele>
        <time>2017-06-26T09:06:48Z</time>
      </trkpt>
      <trkpt lat="48.58053" lon="6.40982">
        <ele>250</ele>
        <time>2017-06-26T09:06:49Z</time>
      </trkpt>
      <trkpt lat="48.58052" lon="6.40977">
        <ele>250</ele>
        <time>2017-06-26T09:06:51Z</time>
      </trkpt>
      <trkpt lat="48.58052" lon="6.40974">
        <ele>250</ele>
        <time>2017-06-26T09:06:52Z</time>
      </trkpt>
      <trkpt lat="48.58053" lon="6.40971">
        <ele>250</ele>
        <time>2017-06-26T09:06:53Z</time>
      </trkpt>
      <trkpt lat="48.58054" lon="6.40968">
        <ele>251</ele>
        <time>2017-06-26T09:06:54Z</time>
      </trkpt>
      <trkpt lat="48.58055" lon="6.40963">
        <ele>251</ele>
        <time>2017-06-26T09:06:56Z</time>
      </trkpt>
      <trkpt lat="48.58056" lon="6.4096">
        <ele>251</ele>
        <time>2017-06-26T09:06:57Z</time>
      </trkpt>
      <trkpt lat="48.58057" lon="6.40958">
        <ele>251</ele>
        <time>2017-06-26T09:06:58Z</time>
      </trkpt>
      <trkpt lat="48.58058" lon="6.40953">
        <ele>251</ele>
        <time>2017-06-26T09:07:00Z</time>
      </trkpt>
      <trkpt lat="48.58058" lon="6.4095">
        <ele>251</ele>
        <time>2017-06-26T09:07:01Z</time>
      </trkpt>
      <trkpt lat="48.58059" lon="6.40947">
        <ele>251</ele>
        <time>2017-06-26T09:07:02Z</time>
      </trkpt>
      <trkpt lat="48.5806" lon="6.40945">
        <ele>251</ele>
        <time>2017-06-26T09:07:03Z</time>
      </trkpt>
      <trkpt lat="48.58061" lon="6.40941">
        <ele>251</ele>
        <time>2017-06-26T09:07:04Z</time>
      </trkpt>
      <trkpt lat="48.58061" lon="6.40936">
        <ele>251</ele>
        <time>2017-06-26T09:07:05Z</time>
      </trkpt>
      <trkpt lat="48.58062" lon="6.40931">
        <ele>250</ele>
        <time>2017-06-26T09:07:06Z</time>
      </trkpt>
      <trkpt lat="48.58063" lon="6.40927">
        <ele>250</ele>
        <time>2017-06-26T09:07:07Z</time>
      </trkpt>
      <trkpt lat="48.58065" lon="6.40922">
        <ele>250</ele>
        <time>2017-06-26T09:07:08Z</time>
      </trkpt>
      <trkpt lat="48.58067" lon="6.40919">
        <ele>250</ele>
        <time>2017-06-26T09:07:09Z</time>
      </trkpt>
      <trkpt lat="48.58068" lon="6.40915">
        <ele>250</ele>
        <time>2017-06-26T09:07:10Z</time>
      </trkpt>
      <trkpt lat="48.58071" lon="6.40911">
        <ele>250</ele>
        <time>2017-06-26T09:07:11Z</time>
      </trkpt>
      <trkpt lat="48.58073" lon="6.40906">
        <ele>251</ele>
        <time>2017-06-26T09:07:12Z</time>
      </trkpt>
      <trkpt lat="48.58074" lon="6.40902">
        <ele>251</ele>
        <time>2017-06-26T09:07:13Z</time>
      </trkpt>
      <trkpt lat="48.58074" lon="6.40899">
        <ele>251</ele>
        <time>2017-06-26T09:07:14Z</time>
      </trkpt>
      <trkpt lat="48.58074" lon="6.40896">
        <ele>251</ele>
        <time>2017-06-26T09:07:15Z</time>
      </trkpt>
      <trkpt lat="48.58074" lon="6.40891">
        <ele>252</ele>
        <time>2017-06-26T09:07:17Z</time>
      </trkpt>
      <trkpt lat="48.58075" lon="6.40887">
        <ele>252</ele>
        <time>2017-06-26T09:07:19Z</time>
      </trkpt>
      <trkpt lat="48.58073" lon="6.40884">
        <ele>252</ele>
        <time>2017-06-26T09:07:21Z</time>
      </trkpt>
      <trkpt lat="48.5807" lon="6.40882">
        <ele>253</ele>
        <time>2017-06-26T09:07:23Z</time>
      </trkpt>
      <trkpt lat="48.58067" lon="6.4088">
        <ele>253</ele>
        <time>2017-06-26T09:07:25Z</time>
      </trkpt>
      <trkpt lat="48.58065" lon="6.40879">
        <ele>253</ele>
        <time>2017-06-26T09:07:27Z</time>
      </trkpt>
      <trkpt lat="48.58062" lon="6.40878">
        <ele>253</ele>
        <time>2017-06-26T09:07:29Z</time>
      </trkpt>
      <trkpt lat="48.58059" lon="6.40877">
        <ele>253</ele>
        <time>2017-06-26T09:07:31Z</time>
      </trkpt>
      <trkpt lat="48.58056" lon="6.40876">
        <ele>253</ele>
        <time>2017-06-26T09:07:33Z</time>
      </trkpt>
      <trkpt lat="48.58053" lon="6.40875">
        <ele>254</ele>
        <time>2017-06-26T09:07:35Z</time>
      </trkpt>
      <trkpt lat="48.5805" lon="6.40874">
        <ele>254</ele>
        <time>2017-06-26T09:07:37Z</time>
      </trkpt>
      <trkpt lat="48.58047" lon="6.40874">
        <ele>253</ele>
        <time>2017-06-26T09:07:39Z</time>
      </trkpt>
      <trkpt lat="48.58044" lon="6.40872">
        <ele>253</ele>
        <time>2017-06-26T09:07:41Z</time>
      </trkpt>
      <trkpt lat="48.58041" lon="6.40871">
        <ele>253</ele>
        <time>2017-06-26T09:07:43Z</time>
      </trkpt>
      <trkpt lat="48.58039" lon="6.40871">
        <ele>253</ele>
        <time>2017-06-26T09:07:44Z</time>
      </trkpt>
      <trkpt lat="48.58037" lon="6.40868">
        <ele>254</ele>
        <time>2017-06-26T09:07:46Z</time>
      </trkpt>
      <trkpt lat="48.58034" lon="6.40866">
        <ele>254</ele>
        <time>2017-06-26T09:07:48Z</time>
      </trkpt>
      <trkpt lat="48.58032" lon="6.40865">
        <ele>254</ele>
        <time>2017-06-26T09:07:50Z</time>
      </trkpt>
      <trkpt lat="48.5803" lon="6.40865">
        <ele>254</ele>
        <time>2017-06-26T09:07:52Z</time>
      </trkpt>
      <trkpt lat="48.58027" lon="6.40863">
        <ele>254</ele>
        <time>2017-06-26T09:07:54Z</time>
      </trkpt>
      <trkpt lat="48.58026" lon="6.40863">
        <ele>254</ele>
        <time>2017-06-26T09:07:55Z</time>
      </trkpt>
      <trkpt lat="48.58024" lon="6.40863">
        <ele>254</ele>
        <time>2017-06-26T09:07:56Z</time>
      </trkpt>
      <trkpt lat="48.58022" lon="6.40862">
        <ele>254</ele>
        <time>2017-06-26T09:07:57Z</time>
      </trkpt>
      <trkpt lat="48.5802" lon="6.40861">
        <ele>254</ele>
        <time>2017-06-26T09:07:58Z</time>
      </trkpt>
      <trkpt lat="48.58018" lon="6.4086">
        <ele>254</ele>
        <time>2017-06-26T09:07:59Z</time>
      </trkpt>
      <trkpt lat="48.58016" lon="6.40859">
        <ele>254</ele>
        <time>2017-06-26T09:08:01Z</time>
      </trkpt>
      <trkpt lat="48.58014" lon="6.40857">
        <ele>255</ele>
        <time>2017-06-26T09:08:03Z</time>
      </trkpt>
      <trkpt lat="48.58011" lon="6.40855">
        <ele>255</ele>
        <time>2017-06-26T09:08:05Z</time>
      </trkpt>
      <trkpt lat="48.58009" lon="6.40854">
        <ele>254</ele>
        <time>2017-06-26T09:08:06Z</time>
      </trkpt>
      <trkpt lat="48.58007" lon="6.40852">
        <ele>254</ele>
        <time>2017-06-26T09:08:07Z</time>
      </trkpt>
      <trkpt lat="48.58006" lon="6.4085">
        <ele>255</ele>
        <time>2017-06-26T09:08:08Z</time>
      </trkpt>
      <trkpt lat="48.58004" lon="6.40849">
        <ele>254</ele>
        <time>2017-06-26T09:08:09Z</time>
      </trkpt>
      <trkpt lat="48.58002" lon="6.40847">
        <ele>254</ele>
        <time>2017-06-26T09:08:10Z</time>
      </trkpt>
      <trkpt lat="48.57999" lon="6.40845">
        <ele>254</ele>
        <time>2017-06-26T09:08:12Z</time>
      </trkpt>
      <trkpt lat="48.57998" lon="6.40843">
        <ele>255</ele>
        <time>2017-06-26T09:08:14Z</time>
      </trkpt>
      <trkpt lat="48.57995" lon="6.40841">
        <ele>255</ele>
        <time>2017-06-26T09:08:16Z</time>
      </trkpt>
      <trkpt lat="48.57993" lon="6.4084">
        <ele>255</ele>
        <time>2017-06-26T09:08:18Z</time>
      </trkpt>
      <trkpt lat="48.57989" lon="6.4084">
        <ele>255</ele>
        <time>2017-06-26T09:08:21Z</time>
      </trkpt>
      <trkpt lat="48.57987" lon="6.4084">
        <ele>255</ele>
        <time>2017-06-26T09:08:22Z</time>
      </trkpt>
      <trkpt lat="48.57985" lon="6.4084">
        <ele>255</ele>
        <time>2017-06-26T09:08:23Z</time>
      </trkpt>
      <trkpt lat="48.57983" lon="6.40839">
        <ele>255</ele>
        <time>2017-06-26T09:08:24Z</time>
      </trkpt>
      <trkpt lat="48.57981" lon="6.40838">
        <ele>255</ele>
        <time>2017-06-26T09:08:25Z</time>
      </trkpt>
      <trkpt lat="48.57979" lon="6.40836">
        <ele>255</ele>
        <time>2017-06-26T09:08:26Z</time>
      </trkpt>
      <trkpt lat="48.57977" lon="6.40835">
        <ele>255</ele>
        <time>2017-06-26T09:08:27Z</time>
      </trkpt>
      <trkpt lat="48.57974" lon="6.40835">
        <ele>255</ele>
        <time>2017-06-26T09:08:28Z</time>
      </trkpt>
      <trkpt lat="48.57972" lon="6.40834">
        <ele>255</ele>
        <time>2017-06-26T09:08:29Z</time>
      </trkpt>
      <trkpt lat="48.57969" lon="6.40833">
        <ele>255</ele>
        <time>2017-06-26T09:08:30Z</time>
      </trkpt>
      <trkpt lat="48.57966" lon="6.40832">
        <ele>255</ele>
        <time>2017-06-26T09:08:31Z</time>
      </trkpt>
      <trkpt lat="48.57963" lon="6.40831">
        <ele>255</ele>
        <time>2017-06-26T09:08:32Z</time>
      </trkpt>
      <trkpt lat="48.57961" lon="6.4083">
        <ele>255</ele>
        <time>2017-06-26T09:08:33Z</time>
      </trkpt>
      <trkpt lat="48.57959" lon="6.40828">
        <ele>255</ele>
        <time>2017-06-26T09:08:34Z</time>
      </trkpt>
      <trkpt lat="48.57957" lon="6.40827">
        <ele>255</ele>
        <time>2017-06-26T09:08:35Z</time>
      </trkpt>
      <trkpt lat="48.57955" lon="6.40827">
        <ele>255</ele>
        <time>2017-06-26T09:08:36Z</time>
      </trkpt>
      <trkpt lat="48.57952" lon="6.40826">
        <ele>255</ele>
        <time>2017-06-26T09:08:37Z</time>
      </trkpt>
      <trkpt lat="48.5795" lon="6.40824">
        <ele>255</ele>
        <time>2017-06-26T09:08:38Z</time>
      </trkpt>
      <trkpt lat="48.57948" lon="6.40823">
        <ele>255</ele>
        <time>2017-06-26T09:08:39Z</time>
      </trkpt>
      <trkpt lat="48.57946" lon="6.40822">
        <ele>255</ele>
        <time>2017-06-26T09:08:40Z</time>
      </trkpt>
      <trkpt lat="48.57943" lon="6.40821">
        <ele>255</ele>
        <time>2017-06-26T09:08:41Z</time>
      </trkpt>
      <trkpt lat="48.5794" lon="6.4082">
        <ele>255</ele>
        <time>2017-06-26T09:08:42Z</time>
      </trkpt>
      <trkpt lat="48.57938" lon="6.40819">
        <ele>255</ele>
        <time>2017-06-26T09:08:43Z</time>
      </trkpt>
      <trkpt lat="48.57935" lon="6.40819">
        <ele>255</ele>
        <time>2017-06-26T09:08:44Z</time>
      </trkpt>
      <trkpt lat="48.57932" lon="6.40818">
        <ele>255</ele>
        <time>2017-06-26T09:08:45Z</time>
      </trkpt>
      <trkpt lat="48.57931" lon="6.40817">
        <ele>255</ele>
        <time>2017-06-26T09:08:46Z</time>
      </trkpt>
      <trkpt lat="48.57928" lon="6.40816">
        <ele>255</ele>
        <time>2017-06-26T09:08:47Z</time>
      </trkpt>
      <trkpt lat="48.57926" lon="6.40815">
        <ele>255</ele>
        <time>2017-06-26T09:08:48Z</time>
      </trkpt>
      <trkpt lat="48.57924" lon="6.40814">
        <ele>255</ele>
        <time>2017-06-26T09:08:49Z</time>
      </trkpt>
      <trkpt lat="48.57922" lon="6.40814">
        <ele>255</ele>
        <time>2017-06-26T09:08:50Z</time>
      </trkpt>
      <trkpt lat="48.57919" lon="6.40813">
        <ele>255</ele>
        <time>2017-06-26T09:08:51Z</time>
      </trkpt>
      <trkpt lat="48.57917" lon="6.40812">
        <ele>255</ele>
        <time>2017-06-26T09:08:52Z</time>
      </trkpt>
      <trkpt lat="48.57916" lon="6.40811">
        <ele>256</ele>
        <time>2017-06-26T09:08:53Z</time>
      </trkpt>
      <trkpt lat="48.57914" lon="6.4081">
        <ele>256</ele>
        <time>2017-06-26T09:08:54Z</time>
      </trkpt>
      <trkpt lat="48.57912" lon="6.4081">
        <ele>256</ele>
        <time>2017-06-26T09:08:55Z</time>
      </trkpt>
      <trkpt lat="48.5791" lon="6.4081">
        <ele>256</ele>
        <time>2017-06-26T09:08:56Z</time>
      </trkpt>
      <trkpt lat="48.57907" lon="6.4081">
        <ele>256</ele>
        <time>2017-06-26T09:08:57Z</time>
      </trkpt>
      <trkpt lat="48.57904" lon="6.4081">
        <ele>256</ele>
        <time>2017-06-26T09:08:58Z</time>
      </trkpt>
      <trkpt lat="48.57901" lon="6.40809">
        <ele>256</ele>
        <time>2017-06-26T09:08:59Z</time>
      </trkpt>
      <trkpt lat="48.57899" lon="6.40809">
        <ele>256</ele>
        <time>2017-06-26T09:09:00Z</time>
      </trkpt>
      <trkpt lat="48.57896" lon="6.40809">
        <ele>256</ele>
        <time>2017-06-26T09:09:01Z</time>
      </trkpt>
      <trkpt lat="48.57893" lon="6.40809">
        <ele>256</ele>
        <time>2017-06-26T09:09:02Z</time>
      </trkpt>
      <trkpt lat="48.5789" lon="6.40808">
        <ele>256</ele>
        <time>2017-06-26T09:09:03Z</time>
      </trkpt>
      <trkpt lat="48.57887" lon="6.40808">
        <ele>255</ele>
        <time>2017-06-26T09:09:04Z</time>
      </trkpt>
      <trkpt lat="48.57885" lon="6.40808">
        <ele>255</ele>
        <time>2017-06-26T09:09:05Z</time>
      </trkpt>
      <trkpt lat="48.57882" lon="6.40808">
        <ele>255</ele>
        <time>2017-06-26T09:09:06Z</time>
      </trkpt>
      <trkpt lat="48.57879" lon="6.40808">
        <ele>255</ele>
        <time>2017-06-26T09:09:07Z</time>
      </trkpt>
      <trkpt lat="48.57876" lon="6.40807">
        <ele>255</ele>
        <time>2017-06-26T09:09:08Z</time>
      </trkpt>
      <trkpt lat="48.57873" lon="6.40806">
        <ele>255</ele>
        <time>2017-06-26T09:09:09Z</time>
      </trkpt>
      <trkpt lat="48.57871" lon="6.40806">
        <ele>255</ele>
        <time>2017-06-26T09:09:10Z</time>
      </trkpt>
      <trkpt lat="48.57868" lon="6.40805">
        <ele>255</ele>
        <time>2017-06-26T09:09:11Z</time>
      </trkpt>
      <trkpt lat="48.57865" lon="6.40805">
        <ele>255</ele>
        <time>2017-06-26T09:09:12Z</time>
      </trkpt>
      <trkpt lat="48.57863" lon="6.40804">
        <ele>254</ele>
        <time>2017-06-26T09:09:13Z</time>
      </trkpt>
      <trkpt lat="48.5786" lon="6.40803">
        <ele>254</ele>
        <time>2017-06-26T09:09:14Z</time>
      </trkpt>
      <trkpt lat="48.57858" lon="6.40803">
        <ele>254</ele>
        <time>2017-06-26T09:09:15Z</time>
      </trkpt>
      <trkpt lat="48.57855" lon="6.40803">
        <ele>254</ele>
        <time>2017-06-26T09:09:16Z</time>
      </trkpt>
      <trkpt lat="48.57852" lon="6.40803">
        <ele>254</ele>
        <time>2017-06-26T09:09:17Z</time>
      </trkpt>
      <trkpt lat="48.57849" lon="6.40803">
        <ele>254</ele>
        <time>2017-06-26T09:09:18Z</time>
      </trkpt>
      <trkpt lat="48.57846" lon="6.40803">
        <ele>253</ele>
        <time>2017-06-26T09:09:19Z</time>
      </trkpt>
      <trkpt lat="48.57843" lon="6.40804">
        <ele>253</ele>
        <time>2017-06-26T09:09:20Z</time>
      </trkpt>
      <trkpt lat="48.5784" lon="6.40804">
        <ele>253</ele>
        <time>2017-06-26T09:09:21Z</time>
      </trkpt>
      <trkpt lat="48.57837" lon="6.40804">
        <ele>253</ele>
        <time>2017-06-26T09:09:22Z</time>
      </trkpt>
      <trkpt lat="48.57834" lon="6.40803">
        <ele>253</ele>
        <time>2017-06-26T09:09:23Z</time>
      </trkpt>
      <trkpt lat="48.57831" lon="6.40802">
        <ele>253</ele>
        <time>2017-06-26T09:09:24Z</time>
      </trkpt>
      <trkpt lat="48.57828" lon="6.40802">
        <ele>253</ele>
        <time>2017-06-26T09:09:25Z</time>
      </trkpt>
      <trkpt lat="48.57826" lon="6.40799">
        <ele>253</ele>
        <time>2017-06-26T09:09:26Z</time>
      </trkpt>
      <trkpt lat="48.57826" lon="6.40796">
        <ele>253</ele>
        <time>2017-06-26T09:09:27Z</time>
      </trkpt>
      <trkpt lat="48.57827" lon="6.40794">
        <ele>253</ele>
        <time>2017-06-26T09:09:28Z</time>
      </trkpt>
      <trkpt lat="48.57829" lon="6.40791">
        <ele>252</ele>
        <time>2017-06-26T09:09:29Z</time>
      </trkpt>
      <trkpt lat="48.57831" lon="6.40789">
        <ele>253</ele>
        <time>2017-06-26T09:09:30Z</time>
      </trkpt>
      <trkpt lat="48.57832" lon="6.40786">
        <ele>253</ele>
        <time>2017-06-26T09:09:31Z</time>
      </trkpt>
      <trkpt lat="48.57834" lon="6.40783">
        <ele>253</ele>
        <time>2017-06-26T09:09:32Z</time>
      </trkpt>
      <trkpt lat="48.57836" lon="6.40781">
        <ele>253</ele>
        <time>2017-06-26T09:09:33Z</time>
      </trkpt>
      <trkpt lat="48.57837" lon="6.40778">
        <ele>253</ele>
        <time>2017-06-26T09:09:34Z</time>
      </trkpt>
      <trkpt lat="48.57839" lon="6.40776">
        <ele>253</ele>
        <time>2017-06-26T09:09:35Z</time>
      </trkpt>
      <trkpt lat="48.57841" lon="6.40774">
        <ele>253</ele>
        <time>2017-06-26T09:09:36Z</time>
      </trkpt>
      <trkpt lat="48.57843" lon="6.40771">
        <ele>252</ele>
        <time>2017-06-26T09:09:37Z</time>
      </trkpt>
      <trkpt lat="48.57845" lon="6.40769">
        <ele>252</ele>
        <time>2017-06-26T09:09:38Z</time>
      </trkpt>
      <trkpt lat="48.57847" lon="6.40766">
        <ele>252</ele>
        <time>2017-06-26T09:09:39Z</time>
      </trkpt>
      <trkpt lat="48.57849" lon="6.40764">
        <ele>253</ele>
        <time>2017-06-26T09:09:40Z</time>
      </trkpt>
      <trkpt lat="48.57851" lon="6.40762">
        <ele>253</ele>
        <time>2017-06-26T09:09:41Z</time>
      </trkpt>
      <trkpt lat="48.57853" lon="6.4076">
        <ele>253</ele>
        <time>2017-06-26T09:09:42Z</time>
      </trkpt>
      <trkpt lat="48.57855" lon="6.40758">
        <ele>253</ele>
        <time>2017-06-26T09:09:43Z</time>
      </trkpt>
      <trkpt lat="48.57857" lon="6.40756">
        <ele>253</ele>
        <time>2017-06-26T09:09:44Z</time>
      </trkpt>
      <trkpt lat="48.57859" lon="6.40754">
        <ele>253</ele>
        <time>2017-06-26T09:09:45Z</time>
      </trkpt>
      <trkpt lat="48.5786" lon="6.40752">
        <ele>253</ele>
        <time>2017-06-26T09:09:46Z</time>
      </trkpt>
      <trkpt lat="48.57862" lon="6.4075">
        <ele>253</ele>
        <time>2017-06-26T09:09:47Z</time>
      </trkpt>
      <trkpt lat="48.57864" lon="6.40748">
        <ele>253</ele>
        <time>2017-06-26T09:09:48Z</time>
      </trkpt>
      <trkpt lat="48.57865" lon="6.40746">
        <ele>253</ele>
        <time>2017-06-26T09:09:49Z</time>
      </trkpt>
      <trkpt lat="48.57867" lon="6.40744">
        <ele>253</ele>
        <time>2017-06-26T09:09:50Z</time>
      </trkpt>
      <trkpt lat="48.57868" lon="6.40742">
        <ele>253</ele>
        <time>2017-06-26T09:09:51Z</time>
      </trkpt>
      <trkpt lat="48.5787" lon="6.40739">
        <ele>253</ele>
        <time>2017-06-26T09:09:52Z</time>
      </trkpt>
      <trkpt lat="48.57872" lon="6.40737">
        <ele>253</ele>
        <time>2017-06-26T09:09:53Z</time>
      </trkpt>
      <trkpt lat="48.57873" lon="6.40734">
        <ele>253</ele>
        <time>2017-06-26T09:09:54Z</time>
      </trkpt>
      <trkpt lat="48.57875" lon="6.40731">
        <ele>254</ele>
        <time>2017-06-26T09:09:55Z</time>
      </trkpt>
      <trkpt lat="48.57877" lon="6.40728">
        <ele>254</ele>
        <time>2017-06-26T09:09:56Z</time>
      </trkpt>
      <trkpt lat="48.57878" lon="6.40726">
        <ele>254</ele>
        <time>2017-06-26T09:09:57Z</time>
      </trkpt>
      <trkpt lat="48.5788" lon="6.40723">
        <ele>254</ele>
        <time>2017-06-26T09:09:58Z</time>
      </trkpt>
      <trkpt lat="48.57882" lon="6.40721">
        <ele>254</ele>
        <time>2017-06-26T09:09:59Z</time>
      </trkpt>
      <trkpt lat="48.57883" lon="6.40718">
        <ele>254</ele>
        <time>2017-06-26T09:10:00Z</time>
      </trkpt>
      <trkpt lat="48.57885" lon="6.40715">
        <ele>254</ele>
        <time>2017-06-26T09:10:01Z</time>
      </trkpt>
      <trkpt lat="48.57887" lon="6.40712">
        <ele>254</ele>
        <time>2017-06-26T09:10:02Z</time>
      </trkpt>
      <trkpt lat="48.57888" lon="6.40709">
        <ele>255</ele>
        <time>2017-06-26T09:10:03Z</time>
      </trkpt>
      <trkpt lat="48.5789" lon="6.40707">
        <ele>255</ele>
        <time>2017-06-26T09:10:04Z</time>
      </trkpt>
      <trkpt lat="48.57891" lon="6.40704">
        <ele>255</ele>
        <time>2017-06-26T09:10:05Z</time>
      </trkpt>
      <trkpt lat="48.57893" lon="6.407">
        <ele>255</ele>
        <time>2017-06-26T09:10:06Z</time>
      </trkpt>
      <trkpt lat="48.57895" lon="6.40697">
        <ele>255</ele>
        <time>2017-06-26T09:10:07Z</time>
      </trkpt>
      <trkpt lat="48.57896" lon="6.40693">
        <ele>255</ele>
        <time>2017-06-26T09:10:08Z</time>
      </trkpt>
      <trkpt lat="48.57898" lon="6.4069">
        <ele>255</ele>
        <time>2017-06-26T09:10:09Z</time>
      </trkpt>
      <trkpt lat="48.579" lon="6.40687">
        <ele>255</ele>
        <time>2017-06-26T09:10:10Z</time>
      </trkpt>
      <trkpt lat="48.57902" lon="6.40684">
        <ele>255</ele>
        <time>2017-06-26T09:10:11Z</time>
      </trkpt>
      <trkpt lat="48.57904" lon="6.40682">
        <ele>256</ele>
        <time>2017-06-26T09:10:12Z</time>
      </trkpt>
      <trkpt lat="48.57906" lon="6.4068">
        <ele>256</ele>
        <time>2017-06-26T09:10:13Z</time>
      </trkpt>
      <trkpt lat="48.57907" lon="6.40678">
        <ele>256</ele>
        <time>2017-06-26T09:10:14Z</time>
      </trkpt>
      <trkpt lat="48.57909" lon="6.40676">
        <ele>256</ele>
        <time>2017-06-26T09:10:15Z</time>
      </trkpt>
      <trkpt lat="48.57911" lon="6.40673">
        <ele>256</ele>
        <time>2017-06-26T09:10:16Z</time>
      </trkpt>
      <trkpt lat="48.57913" lon="6.40671">
        <ele>256</ele>
        <time>2017-06-26T09:10:17Z</time>
      </trkpt>
      <trkpt lat="48.57914" lon="6.40669">
        <ele>256</ele>
        <time>2017-06-26T09:10:18Z</time>
      </trkpt>
      <trkpt lat="48.57916" lon="6.40666">
        <ele>256</ele>
        <time>2017-06-26T09:10:19Z</time>
      </trkpt>
      <trkpt lat="48.57918" lon="6.40664">
        <ele>257</ele>
        <time>2017-06-26T09:10:20Z</time>
      </trkpt>
      <trkpt lat="48.5792" lon="6.40661">
        <ele>257</ele>
        <time>2017-06-26T09:10:21Z</time>
      </trkpt>
      <trkpt lat="48.57922" lon="6.40659">
        <ele>257</ele>
        <time>2017-06-26T09:10:22Z</time>
      </trkpt>
      <trkpt lat="48.57923" lon="6.40656">
        <ele>257</ele>
        <time>2017-06-26T09:10:23Z</time>
      </trkpt>
      <trkpt lat="48.57926" lon="6.40654">
        <ele>257</ele>
        <time>2017-06-26T09:10:24Z</time>
      </trkpt>
      <trkpt lat="48.57927" lon="6.40651">
        <ele>257</ele>
        <time>2017-06-26T09:10:25Z</time>
      </trkpt>
      <trkpt lat="48.57929" lon="6.40648">
        <ele>257</ele>
        <time>2017-06-26T09:10:26Z</time>
      </trkpt>
      <trkpt lat="48.57932" lon="6.40646">
        <ele>257</ele>
        <time>2017-06-26T09:10:27Z</time>
      </trkpt>
      <trkpt lat="48.57934" lon="6.40643">
        <ele>257</ele>
        <time>2017-06-26T09:10:28Z</time>
      </trkpt>
      <trkpt lat="48.57935" lon="6.4064">
        <ele>257</ele>
        <time>2017-06-26T09:10:29Z</time>
      </trkpt>
      <trkpt lat="48.57937" lon="6.40638">
        <ele>257</ele>
        <time>2017-06-26T09:10:30Z</time>
      </trkpt>
      <trkpt lat="48.5794" lon="6.40635">
        <ele>257</ele>
        <time>2017-06-26T09:10:31Z</time>
      </trkpt>
      <trkpt lat="48.57942" lon="6.40632">
        <ele>257</ele>
        <time>2017-06-26T09:10:32Z</time>
      </trkpt>
      <trkpt lat="48.57944" lon="6.40629">
        <ele>257</ele>
        <time>2017-06-26T09:10:33Z</time>
      </trkpt>
      <trkpt lat="48.57946" lon="6.40627">
        <ele>257</ele>
        <time>2017-06-26T09:10:34Z</time>
      </trkpt>
      <trkpt lat="48.57948" lon="6.40624">
        <ele>257</ele>
        <time>2017-06-26T09:10:35Z</time>
      </trkpt>
      <trkpt lat="48.5795" lon="6.40622">
        <ele>257</ele>
        <time>2017-06-26T09:10:36Z</time>
      </trkpt>
      <trkpt lat="48.57952" lon="6.4062">
        <ele>257</ele>
        <time>2017-06-26T09:10:37Z</time>
      </trkpt>
      <trkpt lat="48.57954" lon="6.40618">
        <ele>257</ele>
        <time>2017-06-26T09:10:38Z</time>
      </trkpt>
      <trkpt lat="48.57956" lon="6.40615">
        <ele>257</ele>
        <time>2017-06-26T09:10:39Z</time>
      </trkpt>
      <trkpt lat="48.57959" lon="6.40613">
        <ele>257</ele>
        <time>2017-06-26T09:10:40Z</time>
      </trkpt>
      <trkpt lat="48.57961" lon="6.4061">
        <ele>257</ele>
        <time>2017-06-26T09:10:41Z</time>
      </trkpt>
      <trkpt lat="48.57963" lon="6.40608">
        <ele>257</ele>
        <time>2017-06-26T09:10:42Z</time>
      </trkpt>
      <trkpt lat="48.57965" lon="6.40606">
        <ele>257</ele>
        <time>2017-06-26T09:10:43Z</time>
      </trkpt>
      <trkpt lat="48.57967" lon="6.40603">
        <ele>257</ele>
        <time>2017-06-26T09:10:44Z</time>
      </trkpt>
      <trkpt lat="48.5797" lon="6.40601">
        <ele>257</ele>
        <time>2017-06-26T09:10:45Z</time>
      </trkpt>
      <trkpt lat="48.57972" lon="6.40598">
        <ele>257</ele>
        <time>2017-06-26T09:10:46Z</time>
      </trkpt>
      <trkpt lat="48.57974" lon="6.40596">
        <ele>257</ele>
        <time>2017-06-26T09:10:47Z</time>
      </trkpt>
      <trkpt lat="48.57977" lon="6.40594">
        <ele>257</ele>
        <time>2017-06-26T09:10:48Z</time>
      </trkpt>
      <trkpt lat="48.57978" lon="6.40592">
        <ele>258</ele>
        <time>2017-06-26T09:10:49Z</time>
      </trkpt>
      <trkpt lat="48.57981" lon="6.4059">
        <ele>258</ele>
        <time>2017-06-26T09:10:50Z</time>
      </trkpt>
      <trkpt lat="48.57983" lon="6.40588">
        <ele>258</ele>
        <time>2017-06-26T09:10:51Z</time>
      </trkpt>
      <trkpt lat="48.57985" lon="6.40586">
        <ele>258</ele>
        <time>2017-06-26T09:10:52Z</time>
      </trkpt>
      <trkpt lat="48.57987" lon="6.40583">
        <ele>258</ele>
        <time>2017-06-26T09:10:53Z</time>
      </trkpt>
      <trkpt lat="48.57989" lon="6.4058">
        <ele>258</ele>
        <time>2017-06-26T09:10:54Z</time>
      </trkpt>
      <trkpt lat="48.57991" lon="6.40578">
        <ele>258</ele>
        <time>2017-06-26T09:10:55Z</time>
      </trkpt>
      <trkpt lat="48.57993" lon="6.40575">
        <ele>258</ele>
        <time>2017-06-26T09:10:56Z</time>
      </trkpt>
      <trkpt lat="48.57995" lon="6.40573">
        <ele>258</ele>
        <time>2017-06-26T09:10:57Z</time>
      </trkpt>
      <trkpt lat="48.57996" lon="6.40572">
        <ele>258</ele>
        <time>2017-06-26T09:10:58Z</time>
      </trkpt>
      <trkpt lat="48.57998" lon="6.40569">
        <ele>258</ele>
        <time>2017-06-26T09:10:59Z</time>
      </trkpt>
      <trkpt lat="48.58" lon="6.40567">
        <ele>258</ele>
        <time>2017-06-26T09:11:00Z</time>
      </trkpt>
      <trkpt lat="48.58002" lon="6.40565">
        <ele>258</ele>
        <time>2017-06-26T09:11:01Z</time>
      </trkpt>
      <trkpt lat="48.58005" lon="6.40563">
        <ele>258</ele>
        <time>2017-06-26T09:11:02Z</time>
      </trkpt>
      <trkpt lat="48.58006" lon="6.40561">
        <ele>258</ele>
        <time>2017-06-26T09:11:03Z</time>
      </trkpt>
      <trkpt lat="48.58008" lon="6.40559">
        <ele>258</ele>
        <time>2017-06-26T09:11:04Z</time>
      </trkpt>
      <trkpt lat="48.58009" lon="6.40556">
        <ele>258</ele>
        <time>2017-06-26T09:11:05Z</time>
      </trkpt>
      <trkpt lat="48.5801" lon="6.40554">
        <ele>258</ele>
        <time>2017-06-26T09:11:06Z</time>
      </trkpt>
      <trkpt lat="48.58012" lon="6.40552">
        <ele>259</ele>
        <time>2017-06-26T09:11:07Z</time>
      </trkpt>
      <trkpt lat="48.58014" lon="6.40551">
        <ele>259</ele>
        <time>2017-06-26T09:11:08Z</time>
      </trkpt>
      <trkpt lat="48.58016" lon="6.40549">
        <ele>259</ele>
        <time>2017-06-26T09:11:09Z</time>
      </trkpt>
      <trkpt lat="48.58018" lon="6.40548">
        <ele>259</ele>
        <time>2017-06-26T09:11:10Z</time>
      </trkpt>
      <trkpt lat="48.58021" lon="6.40546">
        <ele>259</ele>
        <time>2017-06-26T09:11:11Z</time>
      </trkpt>
      <trkpt lat="48.58024" lon="6.40545">
        <ele>259</ele>
        <time>2017-06-26T09:11:12Z</time>
      </trkpt>
      <trkpt lat="48.58026" lon="6.40543">
        <ele>259</ele>
        <time>2017-06-26T09:11:13Z</time>
      </trkpt>
      <trkpt lat="48.58028" lon="6.40542">
        <ele>259</ele>
        <time>2017-06-26T09:11:14Z</time>
      </trkpt>
      <trkpt lat="48.58031" lon="6.40541">
        <ele>259</ele>
        <time>2017-06-26T09:11:15Z</time>
      </trkpt>
      <trkpt lat="48.58034" lon="6.4054">
        <ele>259</ele>
        <time>2017-06-26T09:11:16Z</time>
      </trkpt>
      <trkpt lat="48.58036" lon="6.40539">
        <ele>259</ele>
        <time>2017-06-26T09:11:17Z</time>
      </trkpt>
      <trkpt lat="48.58039" lon="6.40538">
        <ele>258</ele>
        <time>2017-06-26T09:11:18Z</time>
      </trkpt>
      <trkpt lat="48.58041" lon="6.40537">
        <ele>259</ele>
        <time>2017-06-26T09:11:19Z</time>
      </trkpt>
      <trkpt lat="48.58043" lon="6.40535">
        <ele>259</ele>
        <time>2017-06-26T09:11:20Z</time>
      </trkpt>
      <trkpt lat="48.58046" lon="6.40533">
        <ele>259</ele>
        <time>2017-06-26T09:11:21Z</time>
      </trkpt>
      <trkpt lat="48.58049" lon="6.40532">
        <ele>259</ele>
        <time>2017-06-26T09:11:22Z</time>
      </trkpt>
      <trkpt lat="48.58052" lon="6.40531">
        <ele>259</ele>
        <time>2017-06-26T09:11:23Z</time>
      </trkpt>
      <trkpt lat="48.58055" lon="6.4053">
        <ele>259</ele>
        <time>2017-06-26T09:11:24Z</time>
      </trkpt>
      <trkpt lat="48.58058" lon="6.40529">
        <ele>259</ele>
        <time>2017-06-26T09:11:25Z</time>
      </trkpt>
      <trkpt lat="48.5806" lon="6.40528">
        <ele>259</ele>
        <time>2017-06-26T09:11:26Z</time>
      </trkpt>
      <trkpt lat="48.58063" lon="6.40527">
        <ele>259</ele>
        <time>2017-06-26T09:11:27Z</time>
      </trkpt>
      <trkpt lat="48.58066" lon="6.40526">
        <ele>259</ele>
        <time>2017-06-26T09:11:28Z</time>
      </trkpt>
      <trkpt lat="48.58069" lon="6.40525">
        <ele>259</ele>
        <time>2017-06-26T09:11:29Z</time>
      </trkpt>
      <trkpt lat="48.58071" lon="6.40524">
        <ele>259</ele>
        <time>2017-06-26T09:11:30Z</time>
      </trkpt>
      <trkpt lat="48.58074" lon="6.40523">
        <ele>259</ele>
        <time>2017-06-26T09:11:31Z</time>
      </trkpt>
      <trkpt lat="48.58077" lon="6.40521">
        <ele>259</ele>
        <time>2017-06-26T09:11:32Z</time>
      </trkpt>
      <trkpt lat="48.58079" lon="6.40521">
        <ele>259</ele>
        <time>2017-06-26T09:11:33Z</time>
      </trkpt>
      <trkpt lat="48.58082" lon="6.4052">
        <ele>259</ele>
        <time>2017-06-26T09:11:34Z</time>
      </trkpt>
      <trkpt lat="48.58085" lon="6.40519">
        <ele>259</ele>
        <time>2017-06-26T09:11:35Z</time>
      </trkpt>
      <trkpt lat="48.58087" lon="6.40517">
        <ele>259</ele>
        <time>2017-06-26T09:11:36Z</time>
      </trkpt>
      <trkpt lat="48.5809" lon="6.40516">
        <ele>259</ele>
        <time>2017-06-26T09:11:37Z</time>
      </trkpt>
      <trkpt lat="48.58093" lon="6.40515">
        <ele>259</ele>
        <time>2017-06-26T09:11:38Z</time>
      </trkpt>
      <trkpt lat="48.58095" lon="6.40513">
        <ele>259</ele>
        <time>2017-06-26T09:11:39Z</time>
      </trkpt>
      <trkpt lat="48.58098" lon="6.40512">
        <ele>259</ele>
        <time>2017-06-26T09:11:40Z</time>
      </trkpt>
      <trkpt lat="48.581" lon="6.40511">
        <ele>259</ele>
        <time>2017-06-26T09:11:41Z</time>
      </trkpt>
      <trkpt lat="48.58102" lon="6.4051">
        <ele>259</ele>
        <time>2017-06-26T09:11:42Z</time>
      </trkpt>
      <trkpt lat="48.58105" lon="6.40509">
        <ele>259</ele>
        <time>2017-06-26T09:11:43Z</time>
      </trkpt>
      <trkpt lat="48.58107" lon="6.40508">
        <ele>259</ele>
        <time>2017-06-26T09:11:44Z</time>
      </trkpt>
      <trkpt lat="48.58111" lon="6.40507">
        <ele>259</ele>
        <time>2017-06-26T09:11:46Z</time>
      </trkpt>
      <trkpt lat="48.58112" lon="6.40506">
        <ele>259</ele>
        <time>2017-06-26T09:11:47Z</time>
      </trkpt>
      <trkpt lat="48.58115" lon="6.40506">
        <ele>259</ele>
        <time>2017-06-26T09:11:48Z</time>
      </trkpt>
      <trkpt lat="48.58117" lon="6.40506">
        <ele>259</ele>
        <time>2017-06-26T09:11:49Z</time>
      </trkpt>
      <trkpt lat="48.58119" lon="6.40505">
        <ele>259</ele>
        <time>2017-06-26T09:11:50Z</time>
      </trkpt>
      <trkpt lat="48.58122" lon="6.40503">
        <ele>259</ele>
        <time>2017-06-26T09:11:51Z</time>
      </trkpt>
      <trkpt lat="48.58125" lon="6.40502">
        <ele>259</ele>
        <time>2017-06-26T09:11:52Z</time>
      </trkpt>
      <trkpt lat="48.58128" lon="6.40501">
        <ele>259</ele>
        <time>2017-06-26T09:11:53Z</time>
      </trkpt>
      <trkpt lat="48.58131" lon="6.405">
        <ele>259</ele>
        <time>2017-06-26T09:11:54Z</time>
      </trkpt>
      <trkpt lat="48.58133" lon="6.405">
        <ele>259</ele>
        <time>2017-06-26T09:11:55Z</time>
      </trkpt>
      <trkpt lat="48.58135" lon="6.40499">
        <ele>260</ele>
        <time>2017-06-26T09:11:56Z</time>
      </trkpt>
      <trkpt lat="48.58137" lon="6.40498">
        <ele>260</ele>
        <time>2017-06-26T09:11:57Z</time>
      </trkpt>
      <trkpt lat="48.5814" lon="6.40497">
        <ele>260</ele>
        <time>2017-06-26T09:11:58Z</time>
      </trkpt>
      <trkpt lat="48.58142" lon="6.40496">
        <ele>260</ele>
        <time>2017-06-26T09:11:59Z</time>
      </trkpt>
      <trkpt lat="48.58145" lon="6.40495">
        <ele>260</ele>
        <time>2017-06-26T09:12:00Z</time>
      </trkpt>
      <trkpt lat="48.58147" lon="6.40495">
        <ele>260</ele>
        <time>2017-06-26T09:12:01Z</time>
      </trkpt>
      <trkpt lat="48.58149" lon="6.40494">
        <ele>260</ele>
        <time>2017-06-26T09:12:02Z</time>
      </trkpt>
      <trkpt lat="48.58152" lon="6.40494">
        <ele>260</ele>
        <time>2017-06-26T09:12:03Z</time>
      </trkpt>
      <trkpt lat="48.58155" lon="6.40493">
        <ele>260</ele>
        <time>2017-06-26T09:12:04Z</time>
      </trkpt>
      <trkpt lat="48.58157" lon="6.40492">
        <ele>260</ele>
        <time>2017-06-26T09:12:05Z</time>
      </trkpt>
      <trkpt lat="48.5816" lon="6.40491">
        <ele>260</ele>
        <time>2017-06-26T09:12:06Z</time>
      </trkpt>
      <trkpt lat="48.58163" lon="6.4049">
        <ele>260</ele>
        <time>2017-06-26T09:12:07Z</time>
      </trkpt>
      <trkpt lat="48.58166" lon="6.4049">
        <ele>260</ele>
        <time>2017-06-26T09:12:08Z</time>
      </trkpt>
      <trkpt lat="48.58168" lon="6.40489">
        <ele>260</ele>
        <time>2017-06-26T09:12:09Z</time>
      </trkpt>
      <trkpt lat="48.58171" lon="6.40489">
        <ele>260</ele>
        <time>2017-06-26T09:12:10Z</time>
      </trkpt>
      <trkpt lat="48.58174" lon="6.40488">
        <ele>260</ele>
        <time>2017-06-26T09:12:11Z</time>
      </trkpt>
      <trkpt lat="48.58176" lon="6.40488">
        <ele>261</ele>
        <time>2017-06-26T09:12:12Z</time>
      </trkpt>
      <trkpt lat="48.58179" lon="6.40488">
        <ele>261</ele>
        <time>2017-06-26T09:12:13Z</time>
      </trkpt>
      <trkpt lat="48.58182" lon="6.40487">
        <ele>261</ele>
        <time>2017-06-26T09:12:14Z</time>
      </trkpt>
      <trkpt lat="48.58185" lon="6.40486">
        <ele>261</ele>
        <time>2017-06-26T09:12:15Z</time>
      </trkpt>
      <trkpt lat="48.58188" lon="6.40486">
        <ele>261</ele>
        <time>2017-06-26T09:12:16Z</time>
      </trkpt>
      <trkpt lat="48.5819" lon="6.40486">
        <ele>261</ele>
        <time>2017-06-26T09:12:17Z</time>
      </trkpt>
      <trkpt lat="48.58192" lon="6.40486">
        <ele>261</ele>
        <time>2017-06-26T09:12:18Z</time>
      </trkpt>
      <trkpt lat="48.58195" lon="6.40488">
        <ele>260</ele>
        <time>2017-06-26T09:12:20Z</time>
      </trkpt>
      <trkpt lat="48.58196" lon="6.40491">
        <ele>259</ele>
        <time>2017-06-26T09:12:23Z</time>
      </trkpt>
      <trkpt lat="48.58198" lon="6.40496">
        <ele>259</ele>
        <time>2017-06-26T09:12:29Z</time>
      </trkpt>
      <trkpt lat="48.582" lon="6.40499">
        <ele>259</ele>
        <time>2017-06-26T09:12:31Z</time>
      </trkpt>
      <trkpt lat="48.58201" lon="6.40504">
        <ele>259</ele>
        <time>2017-06-26T09:12:33Z</time>
      </trkpt>
      <trkpt lat="48.58202" lon="6.40507">
        <ele>259</ele>
        <time>2017-06-26T09:12:34Z</time>
      </trkpt>
      <trkpt lat="48.58204" lon="6.40509">
        <ele>259</ele>
        <time>2017-06-26T09:12:35Z</time>
      </trkpt>
      <trkpt lat="48.58205" lon="6.40512">
        <ele>260</ele>
        <time>2017-06-26T09:12:36Z</time>
      </trkpt>
      <trkpt lat="48.58205" lon="6.40515">
        <ele>260</ele>
        <time>2017-06-26T09:12:37Z</time>
      </trkpt>
      <trkpt lat="48.58206" lon="6.40518">
        <ele>260</ele>
        <time>2017-06-26T09:12:38Z</time>
      </trkpt>
      <trkpt lat="48.58207" lon="6.40522">
        <ele>260</ele>
        <time>2017-06-26T09:12:39Z</time>
      </trkpt>
      <trkpt lat="48.58208" lon="6.40525">
        <ele>260</ele>
        <time>2017-06-26T09:12:40Z</time>
      </trkpt>
      <trkpt lat="48.58208" lon="6.40528">
        <ele>260</ele>
        <time>2017-06-26T09:12:41Z</time>
      </trkpt>
      <trkpt lat="48.58209" lon="6.40532">
        <ele>260</ele>
        <time>2017-06-26T09:12:42Z</time>
      </trkpt>
      <trkpt lat="48.58209" lon="6.40535">
        <ele>260</ele>
        <time>2017-06-26T09:12:43Z</time>
      </trkpt>
      <trkpt lat="48.5821" lon="6.40538">
        <ele>260</ele>
        <time>2017-06-26T09:12:44Z</time>
      </trkpt>
      <trkpt lat="48.58211" lon="6.40542">
        <ele>260</ele>
        <time>2017-06-26T09:12:45Z</time>
      </trkpt>
      <trkpt lat="48.58211" lon="6.40546">
        <ele>260</ele>
        <time>2017-06-26T09:12:46Z</time>
      </trkpt>
      <trkpt lat="48.58212" lon="6.40549">
        <ele>260</ele>
        <time>2017-06-26T09:12:47Z</time>
      </trkpt>
      <trkpt lat="48.58213" lon="6.40552">
        <ele>260</ele>
        <time>2017-06-26T09:12:48Z</time>
      </trkpt>
      <trkpt lat="48.58214" lon="6.40555">
        <ele>261</ele>
        <time>2017-06-26T09:12:49Z</time>
      </trkpt>
      <trkpt lat="48.58215" lon="6.40559">
        <ele>261</ele>
        <time>2017-06-26T09:12:50Z</time>
      </trkpt>
      <trkpt lat="48.58216" lon="6.40562">
        <ele>261</ele>
        <time>2017-06-26T09:12:51Z</time>
      </trkpt>
      <trkpt lat="48.58217" lon="6.40567">
        <ele>261</ele>
        <time>2017-06-26T09:12:52Z</time>
      </trkpt>
      <trkpt lat="48.58217" lon="6.40571">
        <ele>261</ele>
        <time>2017-06-26T09:12:53Z</time>
      </trkpt>
      <trkpt lat="48.58218" lon="6.40575">
        <ele>261</ele>
        <time>2017-06-26T09:12:54Z</time>
      </trkpt>
      <trkpt lat="48.58219" lon="6.40579">
        <ele>261</ele>
        <time>2017-06-26T09:12:55Z</time>
      </trkpt>
      <trkpt lat="48.5822" lon="6.40582">
        <ele>261</ele>
        <time>2017-06-26T09:12:56Z</time>
      </trkpt>
      <trkpt lat="48.58222" lon="6.40586">
        <ele>261</ele>
        <time>2017-06-26T09:12:57Z</time>
      </trkpt>
      <trkpt lat="48.58223" lon="6.40589">
        <ele>261</ele>
        <time>2017-06-26T09:12:58Z</time>
      </trkpt>
      <trkpt lat="48.58225" lon="6.40592">
        <ele>261</ele>
        <time>2017-06-26T09:12:59Z</time>
      </trkpt>
      <trkpt lat="48.58227" lon="6.40595">
        <ele>261</ele>
        <time>2017-06-26T09:13:00Z</time>
      </trkpt>
      <trkpt lat="48.58228" lon="6.40598">
        <ele>261</ele>
        <time>2017-06-26T09:13:01Z</time>
      </trkpt>
      <trkpt lat="48.5823" lon="6.40601">
        <ele>262</ele>
        <time>2017-06-26T09:13:02Z</time>
      </trkpt>
      <trkpt lat="48.58231" lon="6.40605">
        <ele>262</ele>
        <time>2017-06-26T09:13:03Z</time>
      </trkpt>
      <trkpt lat="48.58233" lon="6.40609">
        <ele>261</ele>
        <time>2017-06-26T09:13:04Z</time>
      </trkpt>
      <trkpt lat="48.58234" lon="6.40612">
        <ele>261</ele>
        <time>2017-06-26T09:13:05Z</time>
      </trkpt>
      <trkpt lat="48.58235" lon="6.40616">
        <ele>261</ele>
        <time>2017-06-26T09:13:06Z</time>
      </trkpt>
      <trkpt lat="48.58236" lon="6.40618">
        <ele>261</ele>
        <time>2017-06-26T09:13:07Z</time>
      </trkpt>
      <trkpt lat="48.58237" lon="6.40621">
        <ele>262</ele>
        <time>2017-06-26T09:13:08Z</time>
      </trkpt>
      <trkpt lat="48.58238" lon="6.40625">
        <ele>262</ele>
        <time>2017-06-26T09:13:09Z</time>
      </trkpt>
      <trkpt lat="48.58239" lon="6.40629">
        <ele>262</ele>
        <time>2017-06-26T09:13:10Z</time>
      </trkpt>
      <trkpt lat="48.58241" lon="6.40632">
        <ele>262</ele>
        <time>2017-06-26T09:13:11Z</time>
      </trkpt>
      <trkpt lat="48.58242" lon="6.40636">
        <ele>262</ele>
        <time>2017-06-26T09:13:12Z</time>
      </trkpt>
      <trkpt lat="48.58243" lon="6.4064">
        <ele>262</ele>
        <time>2017-06-26T09:13:13Z</time>
      </trkpt>
      <trkpt lat="48.58244" lon="6.40644">
        <ele>262</ele>
        <time>2017-06-26T09:13:14Z</time>
      </trkpt>
      <trkpt lat="48.58246" lon="6.40648">
        <ele>262</ele>
        <time>2017-06-26T09:13:15Z</time>
      </trkpt>
      <trkpt lat="48.58247" lon="6.40652">
        <ele>263</ele>
        <time>2017-06-26T09:13:16Z</time>
      </trkpt>
      <trkpt lat="48.58248" lon="6.40656">
        <ele>263</ele>
        <time>2017-06-26T09:13:17Z</time>
      </trkpt>
      <trkpt lat="48.58249" lon="6.4066">
        <ele>263</ele>
        <time>2017-06-26T09:13:18Z</time>
      </trkpt>
      <trkpt lat="48.5825" lon="6.40664">
        <ele>263</ele>
        <time>2017-06-26T09:13:19Z</time>
      </trkpt>
      <trkpt lat="48.58252" lon="6.40668">
        <ele>263</ele>
        <time>2017-06-26T09:13:20Z</time>
      </trkpt>
      <trkpt lat="48.58253" lon="6.40671">
        <ele>263</ele>
        <time>2017-06-26T09:13:21Z</time>
      </trkpt>
      <trkpt lat="48.58254" lon="6.40674">
        <ele>264</ele>
        <time>2017-06-26T09:13:22Z</time>
      </trkpt>
      <trkpt lat="48.58256" lon="6.40678">
        <ele>264</ele>
        <time>2017-06-26T09:13:23Z</time>
      </trkpt>
      <trkpt lat="48.58257" lon="6.40681">
        <ele>264</ele>
        <time>2017-06-26T09:13:24Z</time>
      </trkpt>
      <trkpt lat="48.58258" lon="6.40684">
        <ele>264</ele>
        <time>2017-06-26T09:13:25Z</time>
      </trkpt>
      <trkpt lat="48.5826" lon="6.40687">
        <ele>264</ele>
        <time>2017-06-26T09:13:26Z</time>
      </trkpt>
      <trkpt lat="48.58261" lon="6.40691">
        <ele>264</ele>
        <time>2017-06-26T09:13:27Z</time>
      </trkpt>
      <trkpt lat="48.58262" lon="6.40694">
        <ele>265</ele>
        <time>2017-06-26T09:13:28Z</time>
      </trkpt>
      <trkpt lat="48.58264" lon="6.40697">
        <ele>265</ele>
        <time>2017-06-26T09:13:29Z</time>
      </trkpt>
      <trkpt lat="48.58265" lon="6.407">
        <ele>265</ele>
        <time>2017-06-26T09:13:30Z</time>
      </trkpt>
      <trkpt lat="48.58266" lon="6.40703">
        <ele>265</ele>
        <time>2017-06-26T09:13:31Z</time>
      </trkpt>
      <trkpt lat="48.58267" lon="6.40707">
        <ele>265</ele>
        <time>2017-06-26T09:13:32Z</time>
      </trkpt>
      <trkpt lat="48.58269" lon="6.4071">
        <ele>265</ele>
        <time>2017-06-26T09:13:33Z</time>
      </trkpt>
      <trkpt lat="48.5827" lon="6.40713">
        <ele>265</ele>
        <time>2017-06-26T09:13:34Z</time>
      </trkpt>
      <trkpt lat="48.58272" lon="6.40715">
        <ele>266</ele>
        <time>2017-06-26T09:13:35Z</time>
      </trkpt>
      <trkpt lat="48.58273" lon="6.40718">
        <ele>266</ele>
        <time>2017-06-26T09:13:36Z</time>
      </trkpt>
      <trkpt lat="48.58274" lon="6.40721">
        <ele>266</ele>
        <time>2017-06-26T09:13:37Z</time>
      </trkpt>
      <trkpt lat="48.58275" lon="6.40723">
        <ele>266</ele>
        <time>2017-06-26T09:13:38Z</time>
      </trkpt>
      <trkpt lat="48.58276" lon="6.40725">
        <ele>266</ele>
        <time>2017-06-26T09:13:39Z</time>
      </trkpt>
      <trkpt lat="48.58277" lon="6.40728">
        <ele>267</ele>
        <time>2017-06-26T09:13:40Z</time>
      </trkpt>
      <trkpt lat="48.58278" lon="6.40731">
        <ele>267</ele>
        <time>2017-06-26T09:13:41Z</time>
      </trkpt>
      <trkpt lat="48.58279" lon="6.40733">
        <ele>267</ele>
        <time>2017-06-26T09:13:42Z</time>
      </trkpt>
      <trkpt lat="48.5828" lon="6.40737">
        <ele>267</ele>
        <time>2017-06-26T09:13:43Z</time>
      </trkpt>
      <trkpt lat="48.58281" lon="6.40741">
        <ele>267</ele>
        <time>2017-06-26T09:13:44Z</time>
      </trkpt>
      <trkpt lat="48.58283" lon="6.40743">
        <ele>268</ele>
        <time>2017-06-26T09:13:45Z</time>
      </trkpt>
      <trkpt lat="48.58284" lon="6.40746">
        <ele>268</ele>
        <time>2017-06-26T09:13:46Z</time>
      </trkpt>
      <trkpt lat="48.58285" lon="6.40749">
        <ele>268</ele>
        <time>2017-06-26T09:13:47Z</time>
      </trkpt>
      <trkpt lat="48.58287" lon="6.40753">
        <ele>268</ele>
        <time>2017-06-26T09:13:48Z</time>
      </trkpt>
      <trkpt lat="48.58288" lon="6.40757">
        <ele>268</ele>
        <time>2017-06-26T09:13:49Z</time>
      </trkpt>
      <trkpt lat="48.58289" lon="6.40761">
        <ele>268</ele>
        <time>2017-06-26T09:13:50Z</time>
      </trkpt>
      <trkpt lat="48.58289" lon="6.40764">
        <ele>268</ele>
        <time>2017-06-26T09:13:51Z</time>
      </trkpt>
      <trkpt lat="48.5829" lon="6.40768">
        <ele>268</ele>
        <time>2017-06-26T09:13:52Z</time>
      </trkpt>
      <trkpt lat="48.58291" lon="6.40771">
        <ele>268</ele>
        <time>2017-06-26T09:13:53Z</time>
      </trkpt>
      <trkpt lat="48.58293" lon="6.40775">
        <ele>268</ele>
        <time>2017-06-26T09:13:54Z</time>
      </trkpt>
      <trkpt lat="48.58293" lon="6.40778">
        <ele>268</ele>
        <time>2017-06-26T09:13:55Z</time>
      </trkpt>
      <trkpt lat="48.58294" lon="6.40782">
        <ele>268</ele>
        <time>2017-06-26T09:13:56Z</time>
      </trkpt>
      <trkpt lat="48.58294" lon="6.40785">
        <ele>268</ele>
        <time>2017-06-26T09:13:57Z</time>
      </trkpt>
      <trkpt lat="48.58296" lon="6.40788">
        <ele>268</ele>
        <time>2017-06-26T09:13:58Z</time>
      </trkpt>
      <trkpt lat="48.58297" lon="6.40791">
        <ele>268</ele>
        <time>2017-06-26T09:13:59Z</time>
      </trkpt>
      <trkpt lat="48.58298" lon="6.40794">
        <ele>268</ele>
        <time>2017-06-26T09:14:00Z</time>
      </trkpt>
      <trkpt lat="48.58299" lon="6.40797">
        <ele>268</ele>
        <time>2017-06-26T09:14:01Z</time>
      </trkpt>
      <trkpt lat="48.583" lon="6.40801">
        <ele>268</ele>
        <time>2017-06-26T09:14:02Z</time>
      </trkpt>
      <trkpt lat="48.58301" lon="6.40805">
        <ele>268</ele>
        <time>2017-06-26T09:14:03Z</time>
      </trkpt>
      <trkpt lat="48.58303" lon="6.40808">
        <ele>268</ele>
        <time>2017-06-26T09:14:04Z</time>
      </trkpt>
      <trkpt lat="48.58304" lon="6.40811">
        <ele>268</ele>
        <time>2017-06-26T09:14:05Z</time>
      </trkpt>
      <trkpt lat="48.58305" lon="6.40815">
        <ele>268</ele>
        <time>2017-06-26T09:14:06Z</time>
      </trkpt>
      <trkpt lat="48.58307" lon="6.40818">
        <ele>268</ele>
        <time>2017-06-26T09:14:07Z</time>
      </trkpt>
      <trkpt lat="48.58307" lon="6.40821">
        <ele>268</ele>
        <time>2017-06-26T09:14:08Z</time>
      </trkpt>
      <trkpt lat="48.58308" lon="6.40824">
        <ele>269</ele>
        <time>2017-06-26T09:14:09Z</time>
      </trkpt>
      <trkpt lat="48.58309" lon="6.40827">
        <ele>269</ele>
        <time>2017-06-26T09:14:10Z</time>
      </trkpt>
      <trkpt lat="48.58309" lon="6.40831">
        <ele>269</ele>
        <time>2017-06-26T09:14:11Z</time>
      </trkpt>
      <trkpt lat="48.5831" lon="6.40835">
        <ele>269</ele>
        <time>2017-06-26T09:14:12Z</time>
      </trkpt>
      <trkpt lat="48.58311" lon="6.40838">
        <ele>269</ele>
        <time>2017-06-26T09:14:13Z</time>
      </trkpt>
      <trkpt lat="48.58313" lon="6.40841">
        <ele>269</ele>
        <time>2017-06-26T09:14:14Z</time>
      </trkpt>
      <trkpt lat="48.58314" lon="6.40844">
        <ele>269</ele>
        <time>2017-06-26T09:14:15Z</time>
      </trkpt>
      <trkpt lat="48.58315" lon="6.40847">
        <ele>269</ele>
        <time>2017-06-26T09:14:16Z</time>
      </trkpt>
      <trkpt lat="48.58316" lon="6.40851">
        <ele>270</ele>
        <time>2017-06-26T09:14:17Z</time>
      </trkpt>
      <trkpt lat="48.58318" lon="6.40855">
        <ele>270</ele>
        <time>2017-06-26T09:14:18Z</time>
      </trkpt>
      <trkpt lat="48.58319" lon="6.40859">
        <ele>270</ele>
        <time>2017-06-26T09:14:19Z</time>
      </trkpt>
      <trkpt lat="48.5832" lon="6.40862">
        <ele>270</ele>
        <time>2017-06-26T09:14:20Z</time>
      </trkpt>
      <trkpt lat="48.58322" lon="6.40866">
        <ele>270</ele>
        <time>2017-06-26T09:14:21Z</time>
      </trkpt>
      <trkpt lat="48.58323" lon="6.40869">
        <ele>270</ele>
        <time>2017-06-26T09:14:22Z</time>
      </trkpt>
      <trkpt lat="48.58325" lon="6.40871">
        <ele>270</ele>
        <time>2017-06-26T09:14:23Z</time>
      </trkpt>
      <trkpt lat="48.58326" lon="6.40874">
        <ele>270</ele>
        <time>2017-06-26T09:14:24Z</time>
      </trkpt>
      <trkpt lat="48.58327" lon="6.40877">
        <ele>270</ele>
        <time>2017-06-26T09:14:25Z</time>
      </trkpt>
      <trkpt lat="48.58327" lon="6.4088">
        <ele>270</ele>
        <time>2017-06-26T09:14:26Z</time>
      </trkpt>
      <trkpt lat="48.58329" lon="6.40885">
        <ele>270</ele>
        <time>2017-06-26T09:14:27Z</time>
      </trkpt>
      <trkpt lat="48.58331" lon="6.40891">
        <ele>270</ele>
        <time>2017-06-26T09:14:28Z</time>
      </trkpt>
      <trkpt lat="48.58332" lon="6.40895">
        <ele>269</ele>
        <time>2017-06-26T09:14:29Z</time>
      </trkpt>
      <trkpt lat="48.58333" lon="6.40899">
        <ele>270</ele>
        <time>2017-06-26T09:14:30Z</time>
      </trkpt>
      <trkpt lat="48.58334" lon="6.40904">
        <ele>269</ele>
        <time>2017-06-26T09:14:31Z</time>
      </trkpt>
      <trkpt lat="48.58335" lon="6.40909">
        <ele>270</ele>
        <time>2017-06-26T09:14:32Z</time>
      </trkpt>
      <trkpt lat="48.58335" lon="6.40913">
        <ele>270</ele>
        <time>2017-06-26T09:14:33Z</time>
      </trkpt>
      <trkpt lat="48.58336" lon="6.40916">
        <ele>270</ele>
        <time>2017-06-26T09:14:34Z</time>
      </trkpt>
      <trkpt lat="48.58337" lon="6.4092">
        <ele>270</ele>
        <time>2017-06-26T09:14:35Z</time>
      </trkpt>
      <trkpt lat="48.58337" lon="6.40925">
        <ele>270</ele>
        <time>2017-06-26T09:14:36Z</time>
      </trkpt>
      <trkpt lat="48.58337" lon="6.40928">
        <ele>270</ele>
        <time>2017-06-26T09:14:37Z</time>
      </trkpt>
      <trkpt lat="48.58337" lon="6.40932">
        <ele>270</ele>
        <time>2017-06-26T09:14:38Z</time>
      </trkpt>
      <trkpt lat="48.58338" lon="6.40935">
        <ele>270</ele>
        <time>2017-06-26T09:14:39Z</time>
      </trkpt>
      <trkpt lat="48.58337" lon="6.40938">
        <ele>270</ele>
        <time>2017-06-26T09:14:40Z</time>
      </trkpt>
      <trkpt lat="48.58337" lon="6.40941">
        <ele>270</ele>
        <time>2017-06-26T09:14:41Z</time>
      </trkpt>
      <trkpt lat="48.58336" lon="6.40944">
        <ele>270</ele>
        <time>2017-06-26T09:14:42Z</time>
      </trkpt>
      <trkpt lat="48.58334" lon="6.40948">
        <ele>270</ele>
        <time>2017-06-26T09:14:43Z</time>
      </trkpt>
      <trkpt lat="48.58333" lon="6.40951">
        <ele>270</ele>
        <time>2017-06-26T09:14:44Z</time>
      </trkpt>
      <trkpt lat="48.58331" lon="6.40956">
        <ele>270</ele>
        <time>2017-06-26T09:14:45Z</time>
      </trkpt>
      <trkpt lat="48.5833" lon="6.40959">
        <ele>270</ele>
        <time>2017-06-26T09:14:46Z</time>
      </trkpt>
      <trkpt lat="48.58329" lon="6.40963">
        <ele>270</ele>
        <time>2017-06-26T09:14:47Z</time>
      </trkpt>
      <trkpt lat="48.58327" lon="6.40966">
        <ele>270</ele>
        <time>2017-06-26T09:14:48Z</time>
      </trkpt>
      <trkpt lat="48.58326" lon="6.4097">
        <ele>270</ele>
        <time>2017-06-26T09:14:49Z</time>
      </trkpt>
      <trkpt lat="48.58325" lon="6.40973">
        <ele>270</ele>
        <time>2017-06-26T09:14:50Z</time>
      </trkpt>
      <trkpt lat="48.58324" lon="6.40977">
        <ele>270</ele>
        <time>2017-06-26T09:14:51Z</time>
      </trkpt>
      <trkpt lat="48.58323" lon="6.4098">
        <ele>270</ele>
        <time>2017-06-26T09:14:52Z</time>
      </trkpt>
      <trkpt lat="48.58322" lon="6.40984">
        <ele>270</ele>
        <time>2017-06-26T09:14:53Z</time>
      </trkpt>
      <trkpt lat="48.58321" lon="6.40987">
        <ele>270</ele>
        <time>2017-06-26T09:14:54Z</time>
      </trkpt>
      <trkpt lat="48.5832" lon="6.4099">
        <ele>270</ele>
        <time>2017-06-26T09:14:55Z</time>
      </trkpt>
      <trkpt lat="48.58318" lon="6.40994">
        <ele>270</ele>
        <time>2017-06-26T09:14:56Z</time>
      </trkpt>
      <trkpt lat="48.58317" lon="6.40998">
        <ele>270</ele>
        <time>2017-06-26T09:14:57Z</time>
      </trkpt>
      <trkpt lat="48.58316" lon="6.41001">
        <ele>270</ele>
        <time>2017-06-26T09:14:58Z</time>
      </trkpt>
      <trkpt lat="48.58316" lon="6.41005">
        <ele>270</ele>
        <time>2017-06-26T09:14:59Z</time>
      </trkpt>
      <trkpt lat="48.58314" lon="6.41008">
        <ele>270</ele>
        <time>2017-06-26T09:15:00Z</time>
      </trkpt>
      <trkpt lat="48.58313" lon="6.41012">
        <ele>270</ele>
        <time>2017-06-26T09:15:01Z</time>
      </trkpt>
      <trkpt lat="48.58312" lon="6.41015">
        <ele>270</ele>
        <time>2017-06-26T09:15:02Z</time>
      </trkpt>
      <trkpt lat="48.5831" lon="6.41019">
        <ele>270</ele>
        <time>2017-06-26T09:15:03Z</time>
      </trkpt>
      <trkpt lat="48.5831" lon="6.41022">
        <ele>270</ele>
        <time>2017-06-26T09:15:04Z</time>
      </trkpt>
      <trkpt lat="48.58308" lon="6.41026">
        <ele>270</ele>
        <time>2017-06-26T09:15:05Z</time>
      </trkpt>
      <trkpt lat="48.58307" lon="6.41029">
        <ele>270</ele>
        <time>2017-06-26T09:15:06Z</time>
      </trkpt>
      <trkpt lat="48.58306" lon="6.41033">
        <ele>270</ele>
        <time>2017-06-26T09:15:07Z</time>
      </trkpt>
      <trkpt lat="48.58305" lon="6.41036">
        <ele>270</ele>
        <time>2017-06-26T09:15:08Z</time>
      </trkpt>
      <trkpt lat="48.58304" lon="6.41039">
        <ele>270</ele>
        <time>2017-06-26T09:15:09Z</time>
      </trkpt>
      <trkpt lat="48.58303" lon="6.41043">
        <ele>270</ele>
        <time>2017-06-26T09:15:10Z</time>
      </trkpt>
      <trkpt lat="48.58301" lon="6.41046">
        <ele>270</ele>
        <time>2017-06-26T09:15:11Z</time>
      </trkpt>
      <trkpt lat="48.58301" lon="6.41049">
        <ele>270</ele>
        <time>2017-06-26T09:15:12Z</time>
      </trkpt>
      <trkpt lat="48.58299" lon="6.41053">
        <ele>270</ele>
        <time>2017-06-26T09:15:13Z</time>
      </trkpt>
      <trkpt lat="48.58298" lon="6.41056">
        <ele>270</ele>
        <time>2017-06-26T09:15:14Z</time>
      </trkpt>
      <trkpt lat="48.58296" lon="6.4106">
        <ele>270</ele>
        <time>2017-06-26T09:15:15Z</time>
      </trkpt>
      <trkpt lat="48.58295" lon="6.41064">
        <ele>269</ele>
        <time>2017-06-26T09:15:16Z</time>
      </trkpt>
      <trkpt lat="48.58294" lon="6.41068">
        <ele>269</ele>
        <time>2017-06-26T09:15:17Z</time>
      </trkpt>
      <trkpt lat="48.58293" lon="6.41072">
        <ele>269</ele>
        <time>2017-06-26T09:15:18Z</time>
      </trkpt>
      <trkpt lat="48.58291" lon="6.41077">
        <ele>269</ele>
        <time>2017-06-26T09:15:19Z</time>
      </trkpt>
      <trkpt lat="48.5829" lon="6.41081">
        <ele>269</ele>
        <time>2017-06-26T09:15:20Z</time>
      </trkpt>
      <trkpt lat="48.58289" lon="6.41085">
        <ele>269</ele>
        <time>2017-06-26T09:15:21Z</time>
      </trkpt>
      <trkpt lat="48.58287" lon="6.4109">
        <ele>269</ele>
        <time>2017-06-26T09:15:22Z</time>
      </trkpt>
      <trkpt lat="48.58285" lon="6.41092">
        <ele>269</ele>
        <time>2017-06-26T09:15:23Z</time>
      </trkpt>
      <trkpt lat="48.58284" lon="6.41097">
        <ele>269</ele>
        <time>2017-06-26T09:15:24Z</time>
      </trkpt>
      <trkpt lat="48.58282" lon="6.41101">
        <ele>269</ele>
        <time>2017-06-26T09:15:25Z</time>
      </trkpt>
      <trkpt lat="48.5828" lon="6.41105">
        <ele>269</ele>
        <time>2017-06-26T09:15:26Z</time>
      </trkpt>
      <trkpt lat="48.58279" lon="6.41108">
        <ele>268</ele>
        <time>2017-06-26T09:15:27Z</time>
      </trkpt>
      <trkpt lat="48.58277" lon="6.41112">
        <ele>268</ele>
        <time>2017-06-26T09:15:28Z</time>
      </trkpt>
      <trkpt lat="48.58275" lon="6.41116">
        <ele>268</ele>
        <time>2017-06-26T09:15:29Z</time>
      </trkpt>
      <trkpt lat="48.58273" lon="6.4112">
        <ele>268</ele>
        <time>2017-06-26T09:15:30Z</time>
      </trkpt>
      <trkpt lat="48.58272" lon="6.41124">
        <ele>268</ele>
        <time>2017-06-26T09:15:31Z</time>
      </trkpt>
      <trkpt lat="48.5827" lon="6.41128">
        <ele>268</ele>
        <time>2017-06-26T09:15:32Z</time>
      </trkpt>
      <trkpt lat="48.58268" lon="6.41131">
        <ele>268</ele>
        <time>2017-06-26T09:15:33Z</time>
      </trkpt>
      <trkpt lat="48.58267" lon="6.41134">
        <ele>268</ele>
        <time>2017-06-26T09:15:34Z</time>
      </trkpt>
      <trkpt lat="48.58267" lon="6.41137">
        <ele>268</ele>
        <time>2017-06-26T09:15:35Z</time>
      </trkpt>
      <trkpt lat="48.58267" lon="6.4114">
        <ele>268</ele>
        <time>2017-06-26T09:15:36Z</time>
      </trkpt>
      <trkpt lat="48.58268" lon="6.41143">
        <ele>268</ele>
        <time>2017-06-26T09:15:37Z</time>
      </trkpt>
      <trkpt lat="48.5827" lon="6.41146">
        <ele>268</ele>
        <time>2017-06-26T09:15:39Z</time>
      </trkpt>
      <trkpt lat="48.58272" lon="6.41148">
        <ele>268</ele>
        <time>2017-06-26T09:15:41Z</time>
      </trkpt>
      <trkpt lat="48.58274" lon="6.4115">
        <ele>268</ele>
        <time>2017-06-26T09:15:42Z</time>
      </trkpt>
      <trkpt lat="48.58276" lon="6.41152">
        <ele>268</ele>
        <time>2017-06-26T09:15:43Z</time>
      </trkpt>
      <trkpt lat="48.58277" lon="6.41154">
        <ele>268</ele>
        <time>2017-06-26T09:15:44Z</time>
      </trkpt>
      <trkpt lat="48.58278" lon="6.41156">
        <ele>268</ele>
        <time>2017-06-26T09:15:45Z</time>
      </trkpt>
      <trkpt lat="48.5828" lon="6.41158">
        <ele>268</ele>
        <time>2017-06-26T09:15:46Z</time>
      </trkpt>
      <trkpt lat="48.58281" lon="6.41159">
        <ele>268</ele>
        <time>2017-06-26T09:15:47Z</time>
      </trkpt>
      <trkpt lat="48.58283" lon="6.4116">
        <ele>268</ele>
        <time>2017-06-26T09:15:48Z</time>
      </trkpt>
      <trkpt lat="48.58285" lon="6.41161">
        <ele>268</ele>
        <time>2017-06-26T09:15:49Z</time>
      </trkpt>
      <trkpt lat="48.58287" lon="6.41162">
        <ele>268</ele>
        <time>2017-06-26T09:15:50Z</time>
      </trkpt>
      <trkpt lat="48.58288" lon="6.41163">
        <ele>268</ele>
        <time>2017-06-26T09:15:51Z</time>
      </trkpt>
      <trkpt lat="48.5829" lon="6.41164">
        <ele>268</ele>
        <time>2017-06-26T09:15:52Z</time>
      </trkpt>
      <trkpt lat="48.58292" lon="6.41166">
        <ele>268</ele>
        <time>2017-06-26T09:15:53Z</time>
      </trkpt>
      <trkpt lat="48.58294" lon="6.41168">
        <ele>268</ele>
        <time>2017-06-26T09:15:54Z</time>
      </trkpt>
      <trkpt lat="48.58296" lon="6.41169">
        <ele>267</ele>
        <time>2017-06-26T09:15:55Z</time>
      </trkpt>
      <trkpt lat="48.58299" lon="6.41171">
        <ele>267</ele>
        <time>2017-06-26T09:15:56Z</time>
      </trkpt>
      <trkpt lat="48.58301" lon="6.41173">
        <ele>268</ele>
        <time>2017-06-26T09:15:57Z</time>
      </trkpt>
      <trkpt lat="48.58303" lon="6.41175">
        <ele>267</ele>
        <time>2017-06-26T09:15:58Z</time>
      </trkpt>
      <trkpt lat="48.58306" lon="6.41177">
        <ele>267</ele>
        <time>2017-06-26T09:15:59Z</time>
      </trkpt>
      <trkpt lat="48.58308" lon="6.41178">
        <ele>267</ele>
        <time>2017-06-26T09:16:00Z</time>
      </trkpt>
      <trkpt lat="48.5831" lon="6.41181">
        <ele>267</ele>
        <time>2017-06-26T09:16:01Z</time>
      </trkpt>
      <trkpt lat="48.58313" lon="6.41183">
        <ele>267</ele>
        <time>2017-06-26T09:16:02Z</time>
      </trkpt>
      <trkpt lat="48.58315" lon="6.41186">
        <ele>267</ele>
        <time>2017-06-26T09:16:03Z</time>
      </trkpt>
      <trkpt lat="48.58317" lon="6.41188">
        <ele>267</ele>
        <time>2017-06-26T09:16:04Z</time>
      </trkpt>
      <trkpt lat="48.58319" lon="6.4119">
        <ele>267</ele>
        <time>2017-06-26T09:16:05Z</time>
      </trkpt>
      <trkpt lat="48.58321" lon="6.41192">
        <ele>267</ele>
        <time>2017-06-26T09:16:06Z</time>
      </trkpt>
      <trkpt lat="48.58323" lon="6.41194">
        <ele>267</ele>
        <time>2017-06-26T09:16:07Z</time>
      </trkpt>
      <trkpt lat="48.58325" lon="6.41195">
        <ele>267</ele>
        <time>2017-06-26T09:16:08Z</time>
      </trkpt>
      <trkpt lat="48.58328" lon="6.41197">
        <ele>267</ele>
        <time>2017-06-26T09:16:09Z</time>
      </trkpt>
      <trkpt lat="48.5833" lon="6.41198">
        <ele>267</ele>
        <time>2017-06-26T09:16:10Z</time>
      </trkpt>
      <trkpt lat="48.58332" lon="6.41199">
        <ele>268</ele>
        <time>2017-06-26T09:16:11Z</time>
      </trkpt>
      <trkpt lat="48.58334" lon="6.41201">
        <ele>268</ele>
        <time>2017-06-26T09:16:12Z</time>
      </trkpt>
      <trkpt lat="48.58336" lon="6.41202">
        <ele>268</ele>
        <time>2017-06-26T09:16:13Z</time>
      </trkpt>
      <trkpt lat="48.58338" lon="6.41205">
        <ele>268</ele>
        <time>2017-06-26T09:16:14Z</time>
      </trkpt>
      <trkpt lat="48.5834" lon="6.41207">
        <ele>268</ele>
        <time>2017-06-26T09:16:15Z</time>
      </trkpt>
      <trkpt lat="48.58342" lon="6.41208">
        <ele>269</ele>
        <time>2017-06-26T09:16:16Z</time>
      </trkpt>
      <trkpt lat="48.58345" lon="6.4121">
        <ele>269</ele>
        <time>2017-06-26T09:16:17Z</time>
      </trkpt>
      <trkpt lat="48.58347" lon="6.41211">
        <ele>269</ele>
        <time>2017-06-26T09:16:18Z</time>
      </trkpt>
      <trkpt lat="48.58349" lon="6.41213">
        <ele>269</ele>
        <time>2017-06-26T09:16:19Z</time>
      </trkpt>
      <trkpt lat="48.58351" lon="6.41214">
        <ele>269</ele>
        <time>2017-06-26T09:16:20Z</time>
      </trkpt>
      <trkpt lat="48.58353" lon="6.41216">
        <ele>269</ele>
        <time>2017-06-26T09:16:21Z</time>
      </trkpt>
      <trkpt lat="48.58355" lon="6.41219">
        <ele>269</ele>
        <time>2017-06-26T09:16:22Z</time>
      </trkpt>
      <trkpt lat="48.58358" lon="6.41221">
        <ele>269</ele>
        <time>2017-06-26T09:16:23Z</time>
      </trkpt>
      <trkpt lat="48.5836" lon="6.41223">
        <ele>269</ele>
        <time>2017-06-26T09:16:24Z</time>
      </trkpt>
      <trkpt lat="48.58362" lon="6.41225">
        <ele>269</ele>
        <time>2017-06-26T09:16:25Z</time>
      </trkpt>
      <trkpt lat="48.58364" lon="6.41226">
        <ele>269</ele>
        <time>2017-06-26T09:16:26Z</time>
      </trkpt>
      <trkpt lat="48.58365" lon="6.41228">
        <ele>269</ele>
        <time>2017-06-26T09:16:27Z</time>
      </trkpt>
      <trkpt lat="48.58367" lon="6.41229">
        <ele>269</ele>
        <time>2017-06-26T09:16:28Z</time>
      </trkpt>
      <trkpt lat="48.58369" lon="6.41231">
        <ele>269</ele>
        <time>2017-06-26T09:16:29Z</time>
      </trkpt>
      <trkpt lat="48.58371" lon="6.41233">
        <ele>269</ele>
        <time>2017-06-26T09:16:30Z</time>
      </trkpt>
      <trkpt lat="48.58373" lon="6.41234">
        <ele>269</ele>
        <time>2017-06-26T09:16:31Z</time>
      </trkpt>
      <trkpt lat="48.58375" lon="6.41235">
        <ele>270</ele>
        <time>2017-06-26T09:16:32Z</time>
      </trkpt>
      <trkpt lat="48.58377" lon="6.41236">
        <ele>270</ele>
        <time>2017-06-26T09:16:33Z</time>
      </trkpt>
      <trkpt lat="48.58379" lon="6.41238">
        <ele>270</ele>
        <time>2017-06-26T09:16:34Z</time>
      </trkpt>
      <trkpt lat="48.58382" lon="6.41239">
        <ele>270</ele>
        <time>2017-06-26T09:16:35Z</time>
      </trkpt>
      <trkpt lat="48.58384" lon="6.41241">
        <ele>270</ele>
        <time>2017-06-26T09:16:36Z</time>
      </trkpt>
      <trkpt lat="48.58386" lon="6.41244">
        <ele>270</ele>
        <time>2017-06-26T09:16:37Z</time>
      </trkpt>
      <trkpt lat="48.58388" lon="6.41246">
        <ele>270</ele>
        <time>2017-06-26T09:16:38Z</time>
      </trkpt>
      <trkpt lat="48.5839" lon="6.41248">
        <ele>269</ele>
        <time>2017-06-26T09:16:39Z</time>
      </trkpt>
      <trkpt lat="48.58393" lon="6.4125">
        <ele>269</ele>
        <time>2017-06-26T09:16:40Z</time>
      </trkpt>
      <trkpt lat="48.58395" lon="6.41252">
        <ele>269</ele>
        <time>2017-06-26T09:16:41Z</time>
      </trkpt>
      <trkpt lat="48.58398" lon="6.41254">
        <ele>270</ele>
        <time>2017-06-26T09:16:42Z</time>
      </trkpt>
      <trkpt lat="48.58401" lon="6.41256">
        <ele>270</ele>
        <time>2017-06-26T09:16:43Z</time>
      </trkpt>
      <trkpt lat="48.58403" lon="6.41258">
        <ele>269</ele>
        <time>2017-06-26T09:16:44Z</time>
      </trkpt>
      <trkpt lat="48.58406" lon="6.41261">
        <ele>269</ele>
        <time>2017-06-26T09:16:45Z</time>
      </trkpt>
      <trkpt lat="48.58409" lon="6.41263">
        <ele>269</ele>
        <time>2017-06-26T09:16:46Z</time>
      </trkpt>
      <trkpt lat="48.58411" lon="6.41266">
        <ele>269</ele>
        <time>2017-06-26T09:16:47Z</time>
      </trkpt>
      <trkpt lat="48.58413" lon="6.41269">
        <ele>269</ele>
        <time>2017-06-26T09:16:48Z</time>
      </trkpt>
      <trkpt lat="48.58415" lon="6.4127">
        <ele>270</ele>
        <time>2017-06-26T09:16:49Z</time>
      </trkpt>
      <trkpt lat="48.58417" lon="6.41272">
        <ele>269</ele>
        <time>2017-06-26T09:16:50Z</time>
      </trkpt>
      <trkpt lat="48.58419" lon="6.41273">
        <ele>270</ele>
        <time>2017-06-26T09:16:51Z</time>
      </trkpt>
      <trkpt lat="48.58422" lon="6.41275">
        <ele>270</ele>
        <time>2017-06-26T09:16:52Z</time>
      </trkpt>
      <trkpt lat="48.58423" lon="6.41277">
        <ele>270</ele>
        <time>2017-06-26T09:16:53Z</time>
      </trkpt>
      <trkpt lat="48.58425" lon="6.41279">
        <ele>269</ele>
        <time>2017-06-26T09:16:54Z</time>
      </trkpt>
      <trkpt lat="48.58427" lon="6.41282">
        <ele>269</ele>
        <time>2017-06-26T09:16:55Z</time>
      </trkpt>
      <trkpt lat="48.5843" lon="6.41284">
        <ele>270</ele>
        <time>2017-06-26T09:16:56Z</time>
      </trkpt>
      <trkpt lat="48.58432" lon="6.41285">
        <ele>270</ele>
        <time>2017-06-26T09:16:57Z</time>
      </trkpt>
      <trkpt lat="48.58434" lon="6.41287">
        <ele>270</ele>
        <time>2017-06-26T09:16:58Z</time>
      </trkpt>
      <trkpt lat="48.58437" lon="6.4129">
        <ele>270</ele>
        <time>2017-06-26T09:16:59Z</time>
      </trkpt>
      <trkpt lat="48.58439" lon="6.41293">
        <ele>270</ele>
        <time>2017-06-26T09:17:00Z</time>
      </trkpt>
      <trkpt lat="48.58441" lon="6.41295">
        <ele>270</ele>
        <time>2017-06-26T09:17:01Z</time>
      </trkpt>
      <trkpt lat="48.58443" lon="6.41296">
        <ele>270</ele>
        <time>2017-06-26T09:17:02Z</time>
      </trkpt>
      <trkpt lat="48.58445" lon="6.41298">
        <ele>270</ele>
        <time>2017-06-26T09:17:03Z</time>
      </trkpt>
      <trkpt lat="48.58447" lon="6.41299">
        <ele>270</ele>
        <time>2017-06-26T09:17:04Z</time>
      </trkpt>
      <trkpt lat="48.58449" lon="6.41301">
        <ele>270</ele>
        <time>2017-06-26T09:17:05Z</time>
      </trkpt>
      <trkpt lat="48.58451" lon="6.41302">
        <ele>271</ele>
        <time>2017-06-26T09:17:06Z</time>
      </trkpt>
      <trkpt lat="48.58453" lon="6.41303">
        <ele>271</ele>
        <time>2017-06-26T09:17:07Z</time>
      </trkpt>
      <trkpt lat="48.58455" lon="6.41305">
        <ele>271</ele>
        <time>2017-06-26T09:17:08Z</time>
      </trkpt>
      <trkpt lat="48.58457" lon="6.41306">
        <ele>271</ele>
        <time>2017-06-26T09:17:09Z</time>
      </trkpt>
      <trkpt lat="48.58458" lon="6.41308">
        <ele>271</ele>
        <time>2017-06-26T09:17:10Z</time>
      </trkpt>
      <trkpt lat="48.58461" lon="6.4131">
        <ele>271</ele>
        <time>2017-06-26T09:17:11Z</time>
      </trkpt>
      <trkpt lat="48.58463" lon="6.41312">
        <ele>271</ele>
        <time>2017-06-26T09:17:12Z</time>
      </trkpt>
      <trkpt lat="48.58465" lon="6.41314">
        <ele>271</ele>
        <time>2017-06-26T09:17:13Z</time>
      </trkpt>
      <trkpt lat="48.58468" lon="6.41316">
        <ele>271</ele>
        <time>2017-06-26T09:17:14Z</time>
      </trkpt>
      <trkpt lat="48.5847" lon="6.41318">
        <ele>271</ele>
        <time>2017-06-26T09:17:15Z</time>
      </trkpt>
      <trkpt lat="48.58472" lon="6.41319">
        <ele>271</ele>
        <time>2017-06-26T09:17:16Z</time>
      </trkpt>
      <trkpt lat="48.58474" lon="6.41321">
        <ele>271</ele>
        <time>2017-06-26T09:17:17Z</time>
      </trkpt>
      <trkpt lat="48.58476" lon="6.41322">
        <ele>272</ele>
        <time>2017-06-26T09:17:18Z</time>
      </trkpt>
      <trkpt lat="48.58479" lon="6.41324">
        <ele>272</ele>
        <time>2017-06-26T09:17:19Z</time>
      </trkpt>
      <trkpt lat="48.58482" lon="6.41327">
        <ele>272</ele>
        <time>2017-06-26T09:17:20Z</time>
      </trkpt>
      <trkpt lat="48.58484" lon="6.41329">
        <ele>272</ele>
        <time>2017-06-26T09:17:21Z</time>
      </trkpt>
      <trkpt lat="48.58486" lon="6.41331">
        <ele>272</ele>
        <time>2017-06-26T09:17:22Z</time>
      </trkpt>
      <trkpt lat="48.58488" lon="6.41333">
        <ele>272</ele>
        <time>2017-06-26T09:17:23Z</time>
      </trkpt>
      <trkpt lat="48.5849" lon="6.41334">
        <ele>272</ele>
        <time>2017-06-26T09:17:24Z</time>
      </trkpt>
      <trkpt lat="48.58492" lon="6.41335">
        <ele>272</ele>
        <time>2017-06-26T09:17:25Z</time>
      </trkpt>
      <trkpt lat="48.58494" lon="6.41338">
        <ele>272</ele>
        <time>2017-06-26T09:17:26Z</time>
      </trkpt>
      <trkpt lat="48.58496" lon="6.4134">
        <ele>273</ele>
        <time>2017-06-26T09:17:27Z</time>
      </trkpt>
      <trkpt lat="48.58499" lon="6.41342">
        <ele>272</ele>
        <time>2017-06-26T09:17:28Z</time>
      </trkpt>
      <trkpt lat="48.58501" lon="6.41345">
        <ele>272</ele>
        <time>2017-06-26T09:17:29Z</time>
      </trkpt>
      <trkpt lat="48.58503" lon="6.41347">
        <ele>272</ele>
        <time>2017-06-26T09:17:30Z</time>
      </trkpt>
      <trkpt lat="48.58505" lon="6.4135">
        <ele>272</ele>
        <time>2017-06-26T09:17:31Z</time>
      </trkpt>
      <trkpt lat="48.58507" lon="6.41351">
        <ele>272</ele>
        <time>2017-06-26T09:17:32Z</time>
      </trkpt>
      <trkpt lat="48.58509" lon="6.41352">
        <ele>272</ele>
        <time>2017-06-26T09:17:33Z</time>
      </trkpt>
      <trkpt lat="48.58512" lon="6.41354">
        <ele>271</ele>
        <time>2017-06-26T09:17:34Z</time>
      </trkpt>
      <trkpt lat="48.58514" lon="6.41356">
        <ele>271</ele>
        <time>2017-06-26T09:17:35Z</time>
      </trkpt>
      <trkpt lat="48.58516" lon="6.41357">
        <ele>271</ele>
        <time>2017-06-26T09:17:36Z</time>
      </trkpt>
      <trkpt lat="48.58518" lon="6.41359">
        <ele>270</ele>
        <time>2017-06-26T09:17:37Z</time>
      </trkpt>
      <trkpt lat="48.5852" lon="6.41361">
        <ele>270</ele>
        <time>2017-06-26T09:17:38Z</time>
      </trkpt>
      <trkpt lat="48.58521" lon="6.41362">
        <ele>270</ele>
        <time>2017-06-26T09:17:39Z</time>
      </trkpt>
      <trkpt lat="48.58523" lon="6.41364">
        <ele>270</ele>
        <time>2017-06-26T09:17:40Z</time>
      </trkpt>
      <trkpt lat="48.58526" lon="6.41366">
        <ele>270</ele>
        <time>2017-06-26T09:17:42Z</time>
      </trkpt>
      <trkpt lat="48.58527" lon="6.41368">
        <ele>271</ele>
        <time>2017-06-26T09:17:43Z</time>
      </trkpt>
      <trkpt lat="48.5853" lon="6.41369">
        <ele>271</ele>
        <time>2017-06-26T09:17:44Z</time>
      </trkpt>
      <trkpt lat="48.58532" lon="6.41371">
        <ele>270</ele>
        <time>2017-06-26T09:17:46Z</time>
      </trkpt>
      <trkpt lat="48.58534" lon="6.41373">
        <ele>270</ele>
        <time>2017-06-26T09:17:48Z</time>
      </trkpt>
      <trkpt lat="48.58536" lon="6.41374">
        <ele>270</ele>
        <time>2017-06-26T09:17:50Z</time>
      </trkpt>
      <trkpt lat="48.58538" lon="6.41376">
        <ele>270</ele>
        <time>2017-06-26T09:17:52Z</time>
      </trkpt>
      <trkpt lat="48.58541" lon="6.41378">
        <ele>271</ele>
        <time>2017-06-26T09:17:54Z</time>
      </trkpt>
      <trkpt lat="48.58543" lon="6.41381">
        <ele>271</ele>
        <time>2017-06-26T09:17:56Z</time>
      </trkpt>
      <trkpt lat="48.58545" lon="6.41383">
        <ele>271</ele>
        <time>2017-06-26T09:17:58Z</time>
      </trkpt>
      <trkpt lat="48.58548" lon="6.41385">
        <ele>271</ele>
        <time>2017-06-26T09:18:00Z</time>
      </trkpt>
      <trkpt lat="48.5855" lon="6.41386">
        <ele>270</ele>
        <time>2017-06-26T09:18:01Z</time>
      </trkpt>
      <trkpt lat="48.58552" lon="6.41389">
        <ele>270</ele>
        <time>2017-06-26T09:18:03Z</time>
      </trkpt>
      <trkpt lat="48.58554" lon="6.41391">
        <ele>271</ele>
        <time>2017-06-26T09:18:05Z</time>
      </trkpt>
      <trkpt lat="48.58556" lon="6.41393">
        <ele>271</ele>
        <time>2017-06-26T09:18:06Z</time>
      </trkpt>
      <trkpt lat="48.58558" lon="6.41394">
        <ele>271</ele>
        <time>2017-06-26T09:18:07Z</time>
      </trkpt>
      <trkpt lat="48.5856" lon="6.41395">
        <ele>271</ele>
        <time>2017-06-26T09:18:08Z</time>
      </trkpt>
      <trkpt lat="48.58562" lon="6.41396">
        <ele>271</ele>
        <time>2017-06-26T09:18:09Z</time>
      </trkpt>
      <trkpt lat="48.58565" lon="6.41398">
        <ele>271</ele>
        <time>2017-06-26T09:18:11Z</time>
      </trkpt>
      <trkpt lat="48.58566" lon="6.414">
        <ele>271</ele>
        <time>2017-06-26T09:18:12Z</time>
      </trkpt>
      <trkpt lat="48.58569" lon="6.41403">
        <ele>271</ele>
        <time>2017-06-26T09:18:14Z</time>
      </trkpt>
      <trkpt lat="48.58571" lon="6.41404">
        <ele>271</ele>
        <time>2017-06-26T09:18:16Z</time>
      </trkpt>
      <trkpt lat="48.58573" lon="6.41406">
        <ele>271</ele>
        <time>2017-06-26T09:18:18Z</time>
      </trkpt>
      <trkpt lat="48.58575" lon="6.41408">
        <ele>271</ele>
        <time>2017-06-26T09:18:20Z</time>
      </trkpt>
      <trkpt lat="48.58576" lon="6.4141">
        <ele>271</ele>
        <time>2017-06-26T09:18:21Z</time>
      </trkpt>
      <trkpt lat="48.58578" lon="6.41412">
        <ele>271</ele>
        <time>2017-06-26T09:18:22Z</time>
      </trkpt>
      <trkpt lat="48.58579" lon="6.41414">
        <ele>271</ele>
        <time>2017-06-26T09:18:23Z</time>
      </trkpt>
      <trkpt lat="48.58582" lon="6.41416">
        <ele>272</ele>
        <time>2017-06-26T09:18:25Z</time>
      </trkpt>
      <trkpt lat="48.58585" lon="6.41417">
        <ele>272</ele>
        <time>2017-06-26T09:18:27Z</time>
      </trkpt>
      <trkpt lat="48.58588" lon="6.41417">
        <ele>272</ele>
        <time>2017-06-26T09:18:29Z</time>
      </trkpt>
      <trkpt lat="48.5859" lon="6.41419">
        <ele>272</ele>
        <time>2017-06-26T09:18:30Z</time>
      </trkpt>
      <trkpt lat="48.58591" lon="6.4142">
        <ele>272</ele>
        <time>2017-06-26T09:18:31Z</time>
      </trkpt>
      <trkpt lat="48.58594" lon="6.41423">
        <ele>273</ele>
        <time>2017-06-26T09:18:33Z</time>
      </trkpt>
      <trkpt lat="48.58595" lon="6.41425">
        <ele>273</ele>
        <time>2017-06-26T09:18:34Z</time>
      </trkpt>
      <trkpt lat="48.58598" lon="6.41427">
        <ele>272</ele>
        <time>2017-06-26T09:18:36Z</time>
      </trkpt>
      <trkpt lat="48.58599" lon="6.41429">
        <ele>272</ele>
        <time>2017-06-26T09:18:37Z</time>
      </trkpt>
      <trkpt lat="48.58601" lon="6.41431">
        <ele>272</ele>
        <time>2017-06-26T09:18:38Z</time>
      </trkpt>
      <trkpt lat="48.58603" lon="6.41432">
        <ele>272</ele>
        <time>2017-06-26T09:18:39Z</time>
      </trkpt>
      <trkpt lat="48.58605" lon="6.41434">
        <ele>272</ele>
        <time>2017-06-26T09:18:41Z</time>
      </trkpt>
      <trkpt lat="48.58608" lon="6.41436">
        <ele>272</ele>
        <time>2017-06-26T09:18:43Z</time>
      </trkpt>
      <trkpt lat="48.5861" lon="6.41438">
        <ele>272</ele>
        <time>2017-06-26T09:18:44Z</time>
      </trkpt>
      <trkpt lat="48.58612" lon="6.41439">
        <ele>272</ele>
        <time>2017-06-26T09:18:45Z</time>
      </trkpt>
      <trkpt lat="48.58614" lon="6.4144">
        <ele>272</ele>
        <time>2017-06-26T09:18:46Z</time>
      </trkpt>
      <trkpt lat="48.58616" lon="6.41443">
        <ele>272</ele>
        <time>2017-06-26T09:18:48Z</time>
      </trkpt>
      <trkpt lat="48.58619" lon="6.41447">
        <ele>273</ele>
        <time>2017-06-26T09:18:50Z</time>
      </trkpt>
      <trkpt lat="48.58621" lon="6.4145">
        <ele>273</ele>
        <time>2017-06-26T09:18:52Z</time>
      </trkpt>
      <trkpt lat="48.58623" lon="6.41451">
        <ele>273</ele>
        <time>2017-06-26T09:18:54Z</time>
      </trkpt>
      <trkpt lat="48.58626" lon="6.41452">
        <ele>273</ele>
        <time>2017-06-26T09:18:56Z</time>
      </trkpt>
      <trkpt lat="48.58628" lon="6.41452">
        <ele>273</ele>
        <time>2017-06-26T09:18:57Z</time>
      </trkpt>
      <trkpt lat="48.58631" lon="6.41454">
        <ele>274</ele>
        <time>2017-06-26T09:18:59Z</time>
      </trkpt>
      <trkpt lat="48.58633" lon="6.41454">
        <ele>274</ele>
        <time>2017-06-26T09:19:00Z</time>
      </trkpt>
      <trkpt lat="48.58635" lon="6.41455">
        <ele>273</ele>
        <time>2017-06-26T09:19:01Z</time>
      </trkpt>
      <trkpt lat="48.58637" lon="6.41458">
        <ele>273</ele>
        <time>2017-06-26T09:19:04Z</time>
      </trkpt>
      <trkpt lat="48.58639" lon="6.4146">
        <ele>273</ele>
        <time>2017-06-26T09:19:05Z</time>
      </trkpt>
      <trkpt lat="48.58641" lon="6.41461">
        <ele>273</ele>
        <time>2017-06-26T09:19:06Z</time>
      </trkpt>
      <trkpt lat="48.58642" lon="6.41463">
        <ele>272</ele>
        <time>2017-06-26T09:19:07Z</time>
      </trkpt>
      <trkpt lat="48.58644" lon="6.41465">
        <ele>272</ele>
        <time>2017-06-26T09:19:08Z</time>
      </trkpt>
      <trkpt lat="48.58646" lon="6.41468">
        <ele>272</ele>
        <time>2017-06-26T09:19:09Z</time>
      </trkpt>
      <trkpt lat="48.58648" lon="6.4147">
        <ele>272</ele>
        <time>2017-06-26T09:19:10Z</time>
      </trkpt>
      <trkpt lat="48.58649" lon="6.41472">
        <ele>272</ele>
        <time>2017-06-26T09:19:11Z</time>
      </trkpt>
      <trkpt lat="48.58651" lon="6.41474">
        <ele>272</ele>
        <time>2017-06-26T09:19:12Z</time>
      </trkpt>
      <trkpt lat="48.58653" lon="6.41476">
        <ele>272</ele>
        <time>2017-06-26T09:19:13Z</time>
      </trkpt>
      <trkpt lat="48.58655" lon="6.41478">
        <ele>272</ele>
        <time>2017-06-26T09:19:14Z</time>
      </trkpt>
      <trkpt lat="48.58658" lon="6.4148">
        <ele>272</ele>
        <time>2017-06-26T09:19:15Z</time>
      </trkpt>
      <trkpt lat="48.5866" lon="6.41482">
        <ele>272</ele>
        <time>2017-06-26T09:19:16Z</time>
      </trkpt>
      <trkpt lat="48.58662" lon="6.41484">
        <ele>272</ele>
        <time>2017-06-26T09:19:17Z</time>
      </trkpt>
      <trkpt lat="48.58664" lon="6.41486">
        <ele>272</ele>
        <time>2017-06-26T09:19:18Z</time>
      </trkpt>
      <trkpt lat="48.58666" lon="6.41488">
        <ele>272</ele>
        <time>2017-06-26T09:19:19Z</time>
      </trkpt>
      <trkpt lat="48.58668" lon="6.4149">
        <ele>272</ele>
        <time>2017-06-26T09:19:20Z</time>
      </trkpt>
      <trkpt lat="48.5867" lon="6.41492">
        <ele>272</ele>
        <time>2017-06-26T09:19:21Z</time>
      </trkpt>
      <trkpt lat="48.58673" lon="6.41494">
        <ele>272</ele>
        <time>2017-06-26T09:19:22Z</time>
      </trkpt>
      <trkpt lat="48.58675" lon="6.41496">
        <ele>272</ele>
        <time>2017-06-26T09:19:23Z</time>
      </trkpt>
      <trkpt lat="48.58678" lon="6.41498">
        <ele>272</ele>
        <time>2017-06-26T09:19:24Z</time>
      </trkpt>
      <trkpt lat="48.5868" lon="6.415">
        <ele>272</ele>
        <time>2017-06-26T09:19:25Z</time>
      </trkpt>
      <trkpt lat="48.58682" lon="6.41502">
        <ele>272</ele>
        <time>2017-06-26T09:19:26Z</time>
      </trkpt>
      <trkpt lat="48.58683" lon="6.41504">
        <ele>273</ele>
        <time>2017-06-26T09:19:27Z</time>
      </trkpt>
      <trkpt lat="48.58686" lon="6.41506">
        <ele>273</ele>
        <time>2017-06-26T09:19:28Z</time>
      </trkpt>
      <trkpt lat="48.58688" lon="6.41507">
        <ele>273</ele>
        <time>2017-06-26T09:19:29Z</time>
      </trkpt>
      <trkpt lat="48.5869" lon="6.41509">
        <ele>273</ele>
        <time>2017-06-26T09:19:30Z</time>
      </trkpt>
      <trkpt lat="48.58692" lon="6.4151">
        <ele>273</ele>
        <time>2017-06-26T09:19:31Z</time>
      </trkpt>
      <trkpt lat="48.58693" lon="6.41511">
        <ele>273</ele>
        <time>2017-06-26T09:19:32Z</time>
      </trkpt>
      <trkpt lat="48.58696" lon="6.41513">
        <ele>273</ele>
        <time>2017-06-26T09:19:33Z</time>
      </trkpt>
      <trkpt lat="48.58698" lon="6.41515">
        <ele>273</ele>
        <time>2017-06-26T09:19:34Z</time>
      </trkpt>
      <trkpt lat="48.58699" lon="6.41517">
        <ele>274</ele>
        <time>2017-06-26T09:19:35Z</time>
      </trkpt>
      <trkpt lat="48.58701" lon="6.41518">
        <ele>274</ele>
        <time>2017-06-26T09:19:36Z</time>
      </trkpt>
      <trkpt lat="48.58704" lon="6.41519">
        <ele>274</ele>
        <time>2017-06-26T09:19:37Z</time>
      </trkpt>
      <trkpt lat="48.58706" lon="6.41521">
        <ele>274</ele>
        <time>2017-06-26T09:19:38Z</time>
      </trkpt>
      <trkpt lat="48.58709" lon="6.41524">
        <ele>275</ele>
        <time>2017-06-26T09:19:39Z</time>
      </trkpt>
      <trkpt lat="48.58711" lon="6.41525">
        <ele>275</ele>
        <time>2017-06-26T09:19:40Z</time>
      </trkpt>
      <trkpt lat="48.58714" lon="6.41527">
        <ele>275</ele>
        <time>2017-06-26T09:19:41Z</time>
      </trkpt>
      <trkpt lat="48.58716" lon="6.41529">
        <ele>275</ele>
        <time>2017-06-26T09:19:42Z</time>
      </trkpt>
      <trkpt lat="48.58718" lon="6.41531">
        <ele>275</ele>
        <time>2017-06-26T09:19:43Z</time>
      </trkpt>
      <trkpt lat="48.5872" lon="6.41533">
        <ele>275</ele>
        <time>2017-06-26T09:19:44Z</time>
      </trkpt>
      <trkpt lat="48.58722" lon="6.41535">
        <ele>275</ele>
        <time>2017-06-26T09:19:45Z</time>
      </trkpt>
      <trkpt lat="48.58724" lon="6.41538">
        <ele>275</ele>
        <time>2017-06-26T09:19:46Z</time>
      </trkpt>
      <trkpt lat="48.58726" lon="6.4154">
        <ele>276</ele>
        <time>2017-06-26T09:19:47Z</time>
      </trkpt>
      <trkpt lat="48.58729" lon="6.41541">
        <ele>275</ele>
        <time>2017-06-26T09:19:48Z</time>
      </trkpt>
      <trkpt lat="48.58731" lon="6.41543">
        <ele>276</ele>
        <time>2017-06-26T09:19:49Z</time>
      </trkpt>
      <trkpt lat="48.58733" lon="6.41545">
        <ele>276</ele>
        <time>2017-06-26T09:19:50Z</time>
      </trkpt>
      <trkpt lat="48.58735" lon="6.41546">
        <ele>276</ele>
        <time>2017-06-26T09:19:51Z</time>
      </trkpt>
      <trkpt lat="48.58737" lon="6.41548">
        <ele>276</ele>
        <time>2017-06-26T09:19:52Z</time>
      </trkpt>
      <trkpt lat="48.58739" lon="6.4155">
        <ele>276</ele>
        <time>2017-06-26T09:19:53Z</time>
      </trkpt>
      <trkpt lat="48.58741" lon="6.41553">
        <ele>276</ele>
        <time>2017-06-26T09:19:54Z</time>
      </trkpt>
      <trkpt lat="48.58743" lon="6.41555">
        <ele>276</ele>
        <time>2017-06-26T09:19:55Z</time>
      </trkpt>
      <trkpt lat="48.58745" lon="6.41558">
        <ele>276</ele>
        <time>2017-06-26T09:19:56Z</time>
      </trkpt>
      <trkpt lat="48.58749" lon="6.4156">
        <ele>276</ele>
        <time>2017-06-26T09:19:57Z</time>
      </trkpt>
      <trkpt lat="48.58752" lon="6.41562">
        <ele>276</ele>
        <time>2017-06-26T09:19:58Z</time>
      </trkpt>
      <trkpt lat="48.58754" lon="6.41564">
        <ele>276</ele>
        <time>2017-06-26T09:19:59Z</time>
      </trkpt>
      <trkpt lat="48.58757" lon="6.41565">
        <ele>276</ele>
        <time>2017-06-26T09:20:00Z</time>
      </trkpt>
      <trkpt lat="48.58759" lon="6.41567">
        <ele>276</ele>
        <time>2017-06-26T09:20:01Z</time>
      </trkpt>
      <trkpt lat="48.58761" lon="6.41569">
        <ele>276</ele>
        <time>2017-06-26T09:20:02Z</time>
      </trkpt>
      <trkpt lat="48.58764" lon="6.41571">
        <ele>276</ele>
        <time>2017-06-26T09:20:03Z</time>
      </trkpt>
      <trkpt lat="48.58767" lon="6.41573">
        <ele>276</ele>
        <time>2017-06-26T09:20:04Z</time>
      </trkpt>
      <trkpt lat="48.5877" lon="6.41576">
        <ele>276</ele>
        <time>2017-06-26T09:20:05Z</time>
      </trkpt>
      <trkpt lat="48.58773" lon="6.41578">
        <ele>276</ele>
        <time>2017-06-26T09:20:06Z</time>
      </trkpt>
      <trkpt lat="48.58775" lon="6.41579">
        <ele>276</ele>
        <time>2017-06-26T09:20:07Z</time>
      </trkpt>
      <trkpt lat="48.58777" lon="6.41581">
        <ele>276</ele>
        <time>2017-06-26T09:20:08Z</time>
      </trkpt>
      <trkpt lat="48.58779" lon="6.41583">
        <ele>276</ele>
        <time>2017-06-26T09:20:09Z</time>
      </trkpt>
      <trkpt lat="48.58781" lon="6.41584">
        <ele>276</ele>
        <time>2017-06-26T09:20:10Z</time>
      </trkpt>
      <trkpt lat="48.58784" lon="6.41585">
        <ele>276</ele>
        <time>2017-06-26T09:20:11Z</time>
      </trkpt>
      <trkpt lat="48.58786" lon="6.41587">
        <ele>276</ele>
        <time>2017-06-26T09:20:12Z</time>
      </trkpt>
      <trkpt lat="48.58788" lon="6.4159">
        <ele>276</ele>
        <time>2017-06-26T09:20:13Z</time>
      </trkpt>
      <trkpt lat="48.58788" lon="6.41593">
        <ele>276</ele>
        <time>2017-06-26T09:20:14Z</time>
      </trkpt>
      <trkpt lat="48.58788" lon="6.41597">
        <ele>276</ele>
        <time>2017-06-26T09:20:15Z</time>
      </trkpt>
      <trkpt lat="48.58788" lon="6.41601">
        <ele>276</ele>
        <time>2017-06-26T09:20:16Z</time>
      </trkpt>
      <trkpt lat="48.58787" lon="6.41606">
        <ele>276</ele>
        <time>2017-06-26T09:20:17Z</time>
      </trkpt>
      <trkpt lat="48.58786" lon="6.41609">
        <ele>276</ele>
        <time>2017-06-26T09:20:18Z</time>
      </trkpt>
      <trkpt lat="48.58786" lon="6.41612">
        <ele>276</ele>
        <time>2017-06-26T09:20:19Z</time>
      </trkpt>
      <trkpt lat="48.58786" lon="6.41616">
        <ele>276</ele>
        <time>2017-06-26T09:20:20Z</time>
      </trkpt>
      <trkpt lat="48.58786" lon="6.41621">
        <ele>276</ele>
        <time>2017-06-26T09:20:21Z</time>
      </trkpt>
      <trkpt lat="48.58786" lon="6.41625">
        <ele>275</ele>
        <time>2017-06-26T09:20:22Z</time>
      </trkpt>
      <trkpt lat="48.58785" lon="6.41629">
        <ele>275</ele>
        <time>2017-06-26T09:20:23Z</time>
      </trkpt>
      <trkpt lat="48.58785" lon="6.41634">
        <ele>275</ele>
        <time>2017-06-26T09:20:24Z</time>
      </trkpt>
      <trkpt lat="48.58785" lon="6.41638">
        <ele>275</ele>
        <time>2017-06-26T09:20:25Z</time>
      </trkpt>
      <trkpt lat="48.58785" lon="6.41642">
        <ele>275</ele>
        <time>2017-06-26T09:20:26Z</time>
      </trkpt>
      <trkpt lat="48.58784" lon="6.41645">
        <ele>275</ele>
        <time>2017-06-26T09:20:27Z</time>
      </trkpt>
      <trkpt lat="48.58784" lon="6.41649">
        <ele>275</ele>
        <time>2017-06-26T09:20:28Z</time>
      </trkpt>
      <trkpt lat="48.58784" lon="6.41652">
        <ele>275</ele>
        <time>2017-06-26T09:20:29Z</time>
      </trkpt>
      <trkpt lat="48.58783" lon="6.41655">
        <ele>275</ele>
        <time>2017-06-26T09:20:30Z</time>
      </trkpt>
      <trkpt lat="48.58781" lon="6.41658">
        <ele>275</ele>
        <time>2017-06-26T09:20:31Z</time>
      </trkpt>
      <trkpt lat="48.5878" lon="6.41661">
        <ele>275</ele>
        <time>2017-06-26T09:20:32Z</time>
      </trkpt>
      <trkpt lat="48.58779" lon="6.41664">
        <ele>275</ele>
        <time>2017-06-26T09:20:33Z</time>
      </trkpt>
      <trkpt lat="48.58778" lon="6.41668">
        <ele>275</ele>
        <time>2017-06-26T09:20:34Z</time>
      </trkpt>
      <trkpt lat="48.58777" lon="6.41672">
        <ele>275</ele>
        <time>2017-06-26T09:20:35Z</time>
      </trkpt>
      <trkpt lat="48.58776" lon="6.41676">
        <ele>275</ele>
        <time>2017-06-26T09:20:36Z</time>
      </trkpt>
      <trkpt lat="48.58775" lon="6.41679">
        <ele>275</ele>
        <time>2017-06-26T09:20:37Z</time>
      </trkpt>
      <trkpt lat="48.58774" lon="6.41683">
        <ele>276</ele>
        <time>2017-06-26T09:20:38Z</time>
      </trkpt>
      <trkpt lat="48.58773" lon="6.41687">
        <ele>276</ele>
        <time>2017-06-26T09:20:39Z</time>
      </trkpt>
      <trkpt lat="48.58772" lon="6.41691">
        <ele>276</ele>
        <time>2017-06-26T09:20:40Z</time>
      </trkpt>
      <trkpt lat="48.58771" lon="6.41696">
        <ele>276</ele>
        <time>2017-06-26T09:20:41Z</time>
      </trkpt>
      <trkpt lat="48.58769" lon="6.41701">
        <ele>276</ele>
        <time>2017-06-26T09:20:42Z</time>
      </trkpt>
      <trkpt lat="48.58767" lon="6.41705">
        <ele>275</ele>
        <time>2017-06-26T09:20:43Z</time>
      </trkpt>
      <trkpt lat="48.58765" lon="6.41708">
        <ele>275</ele>
        <time>2017-06-26T09:20:44Z</time>
      </trkpt>
      <trkpt lat="48.58764" lon="6.41711">
        <ele>275</ele>
        <time>2017-06-26T09:20:45Z</time>
      </trkpt>
      <trkpt lat="48.58762" lon="6.41715">
        <ele>275</ele>
        <time>2017-06-26T09:20:46Z</time>
      </trkpt>
      <trkpt lat="48.58759" lon="6.41722">
        <ele>275</ele>
        <time>2017-06-26T09:20:47Z</time>
      </trkpt>
      <trkpt lat="48.58757" lon="6.41725">
        <ele>275</ele>
        <time>2017-06-26T09:20:48Z</time>
      </trkpt>
      <trkpt lat="48.58755" lon="6.41729">
        <ele>275</ele>
        <time>2017-06-26T09:20:49Z</time>
      </trkpt>
      <trkpt lat="48.58754" lon="6.41733">
        <ele>275</ele>
        <time>2017-06-26T09:20:50Z</time>
      </trkpt>
      <trkpt lat="48.58752" lon="6.41736">
        <ele>275</ele>
        <time>2017-06-26T09:20:51Z</time>
      </trkpt>
      <trkpt lat="48.58751" lon="6.41739">
        <ele>275</ele>
        <time>2017-06-26T09:20:52Z</time>
      </trkpt>
      <trkpt lat="48.5875" lon="6.41742">
        <ele>275</ele>
        <time>2017-06-26T09:20:53Z</time>
      </trkpt>
      <trkpt lat="48.58749" lon="6.41746">
        <ele>274</ele>
        <time>2017-06-26T09:20:54Z</time>
      </trkpt>
      <trkpt lat="48.58748" lon="6.41748">
        <ele>274</ele>
        <time>2017-06-26T09:20:55Z</time>
      </trkpt>
      <trkpt lat="48.58748" lon="6.41751">
        <ele>274</ele>
        <time>2017-06-26T09:20:56Z</time>
      </trkpt>
      <trkpt lat="48.58747" lon="6.41753">
        <ele>274</ele>
        <time>2017-06-26T09:20:57Z</time>
      </trkpt>
      <trkpt lat="48.58744" lon="6.41761">
        <ele>274</ele>
        <time>2017-06-26T09:20:58Z</time>
      </trkpt>
      <trkpt lat="48.58742" lon="6.41764">
        <ele>274</ele>
        <time>2017-06-26T09:20:59Z</time>
      </trkpt>
      <trkpt lat="48.58741" lon="6.41768">
        <ele>274</ele>
        <time>2017-06-26T09:21:00Z</time>
      </trkpt>
      <trkpt lat="48.58739" lon="6.41771">
        <ele>274</ele>
        <time>2017-06-26T09:21:01Z</time>
      </trkpt>
      <trkpt lat="48.58738" lon="6.41774">
        <ele>274</ele>
        <time>2017-06-26T09:21:02Z</time>
      </trkpt>
      <trkpt lat="48.58737" lon="6.41777">
        <ele>274</ele>
        <time>2017-06-26T09:21:03Z</time>
      </trkpt>
      <trkpt lat="48.58735" lon="6.41781">
        <ele>274</ele>
        <time>2017-06-26T09:21:04Z</time>
      </trkpt>
      <trkpt lat="48.58733" lon="6.41784">
        <ele>274</ele>
        <time>2017-06-26T09:21:05Z</time>
      </trkpt>
      <trkpt lat="48.58731" lon="6.41787">
        <ele>274</ele>
        <time>2017-06-26T09:21:06Z</time>
      </trkpt>
      <trkpt lat="48.58728" lon="6.41789">
        <ele>274</ele>
        <time>2017-06-26T09:21:07Z</time>
      </trkpt>
      <trkpt lat="48.58725" lon="6.4179">
        <ele>274</ele>
        <time>2017-06-26T09:21:08Z</time>
      </trkpt>
      <trkpt lat="48.58724" lon="6.41792">
        <ele>274</ele>
        <time>2017-06-26T09:21:09Z</time>
      </trkpt>
      <trkpt lat="48.58722" lon="6.41794">
        <ele>274</ele>
        <time>2017-06-26T09:21:10Z</time>
      </trkpt>
      <trkpt lat="48.58721" lon="6.41795">
        <ele>274</ele>
        <time>2017-06-26T09:21:11Z</time>
      </trkpt>
      <trkpt lat="48.58717" lon="6.418">
        <ele>274</ele>
        <time>2017-06-26T09:21:12Z</time>
      </trkpt>
      <trkpt lat="48.58716" lon="6.41803">
        <ele>274</ele>
        <time>2017-06-26T09:21:13Z</time>
      </trkpt>
      <trkpt lat="48.58715" lon="6.41807">
        <ele>274</ele>
        <time>2017-06-26T09:21:14Z</time>
      </trkpt>
      <trkpt lat="48.58714" lon="6.4181">
        <ele>274</ele>
        <time>2017-06-26T09:21:15Z</time>
      </trkpt>
      <trkpt lat="48.58713" lon="6.41813">
        <ele>274</ele>
        <time>2017-06-26T09:21:16Z</time>
      </trkpt>
      <trkpt lat="48.58714" lon="6.41818">
        <ele>273</ele>
        <time>2017-06-26T09:21:18Z</time>
      </trkpt>
      <trkpt lat="48.58714" lon="6.41821">
        <ele>273</ele>
        <time>2017-06-26T09:21:19Z</time>
      </trkpt>
      <trkpt lat="48.58715" lon="6.41824">
        <ele>274</ele>
        <time>2017-06-26T09:21:20Z</time>
      </trkpt>
      <trkpt lat="48.58715" lon="6.41827">
        <ele>274</ele>
        <time>2017-06-26T09:21:21Z</time>
      </trkpt>
      <trkpt lat="48.58715" lon="6.41831">
        <ele>274</ele>
        <time>2017-06-26T09:21:22Z</time>
      </trkpt>
      <trkpt lat="48.58715" lon="6.41835">
        <ele>274</ele>
        <time>2017-06-26T09:21:23Z</time>
      </trkpt>
      <trkpt lat="48.58714" lon="6.41838">
        <ele>274</ele>
        <time>2017-06-26T09:21:24Z</time>
      </trkpt>
      <trkpt lat="48.58713" lon="6.41841">
        <ele>274</ele>
        <time>2017-06-26T09:21:25Z</time>
      </trkpt>
      <trkpt lat="48.58712" lon="6.41844">
        <ele>274</ele>
        <time>2017-06-26T09:21:26Z</time>
      </trkpt>
      <trkpt lat="48.5871" lon="6.41847">
        <ele>274</ele>
        <time>2017-06-26T09:21:27Z</time>
      </trkpt>
      <trkpt lat="48.58709" lon="6.41849">
        <ele>275</ele>
        <time>2017-06-26T09:21:28Z</time>
      </trkpt>
      <trkpt lat="48.58708" lon="6.41852">
        <ele>274</ele>
        <time>2017-06-26T09:21:29Z</time>
      </trkpt>
      <trkpt lat="48.58707" lon="6.41857">
        <ele>274</ele>
        <time>2017-06-26T09:21:31Z</time>
      </trkpt>
      <trkpt lat="48.58705" lon="6.41859">
        <ele>274</ele>
        <time>2017-06-26T09:21:32Z</time>
      </trkpt>
      <trkpt lat="48.58704" lon="6.41862">
        <ele>274</ele>
        <time>2017-06-26T09:21:33Z</time>
      </trkpt>
      <trkpt lat="48.58703" lon="6.41864">
        <ele>274</ele>
        <time>2017-06-26T09:21:34Z</time>
      </trkpt>
      <trkpt lat="48.58702" lon="6.41867">
        <ele>274</ele>
        <time>2017-06-26T09:21:35Z</time>
      </trkpt>
      <trkpt lat="48.58701" lon="6.41869">
        <ele>274</ele>
        <time>2017-06-26T09:21:36Z</time>
      </trkpt>
      <trkpt lat="48.587" lon="6.41873">
        <ele>274</ele>
        <time>2017-06-26T09:21:37Z</time>
      </trkpt>
      <trkpt lat="48.58699" lon="6.41875">
        <ele>274</ele>
        <time>2017-06-26T09:21:38Z</time>
      </trkpt>
      <trkpt lat="48.58698" lon="6.41879">
        <ele>274</ele>
        <time>2017-06-26T09:21:39Z</time>
      </trkpt>
      <trkpt lat="48.58697" lon="6.41881">
        <ele>274</ele>
        <time>2017-06-26T09:21:40Z</time>
      </trkpt>
      <trkpt lat="48.58696" lon="6.41884">
        <ele>274</ele>
        <time>2017-06-26T09:21:41Z</time>
      </trkpt>
      <trkpt lat="48.58694" lon="6.41886">
        <ele>274</ele>
        <time>2017-06-26T09:21:42Z</time>
      </trkpt>
      <trkpt lat="48.58693" lon="6.41888">
        <ele>274</ele>
        <time>2017-06-26T09:21:43Z</time>
      </trkpt>
      <trkpt lat="48.58692" lon="6.41893">
        <ele>275</ele>
        <time>2017-06-26T09:21:45Z</time>
      </trkpt>
      <trkpt lat="48.5869" lon="6.41897">
        <ele>275</ele>
        <time>2017-06-26T09:21:47Z</time>
      </trkpt>
      <trkpt lat="48.58689" lon="6.41902">
        <ele>275</ele>
        <time>2017-06-26T09:21:49Z</time>
      </trkpt>
      <trkpt lat="48.58688" lon="6.41905">
        <ele>275</ele>
        <time>2017-06-26T09:21:50Z</time>
      </trkpt>
      <trkpt lat="48.58687" lon="6.41909">
        <ele>275</ele>
        <time>2017-06-26T09:21:51Z</time>
      </trkpt>
      <trkpt lat="48.58686" lon="6.41911">
        <ele>275</ele>
        <time>2017-06-26T09:21:52Z</time>
      </trkpt>
      <trkpt lat="48.58685" lon="6.41915">
        <ele>275</ele>
        <time>2017-06-26T09:21:54Z</time>
      </trkpt>
      <trkpt lat="48.58684" lon="6.41918">
        <ele>275</ele>
        <time>2017-06-26T09:21:55Z</time>
      </trkpt>
      <trkpt lat="48.58683" lon="6.4192">
        <ele>275</ele>
        <time>2017-06-26T09:21:56Z</time>
      </trkpt>
      <trkpt lat="48.58682" lon="6.41923">
        <ele>275</ele>
        <time>2017-06-26T09:21:57Z</time>
      </trkpt>
      <trkpt lat="48.58681" lon="6.41925">
        <ele>275</ele>
        <time>2017-06-26T09:21:58Z</time>
      </trkpt>
      <trkpt lat="48.5868" lon="6.41928">
        <ele>275</ele>
        <time>2017-06-26T09:21:59Z</time>
      </trkpt>
      <trkpt lat="48.58679" lon="6.41931">
        <ele>275</ele>
        <time>2017-06-26T09:22:00Z</time>
      </trkpt>
      <trkpt lat="48.58678" lon="6.41934">
        <ele>275</ele>
        <time>2017-06-26T09:22:01Z</time>
      </trkpt>
      <trkpt lat="48.58677" lon="6.41936">
        <ele>275</ele>
        <time>2017-06-26T09:22:02Z</time>
      </trkpt>
      <trkpt lat="48.58676" lon="6.41939">
        <ele>275</ele>
        <time>2017-06-26T09:22:03Z</time>
      </trkpt>
      <trkpt lat="48.58674" lon="6.41941">
        <ele>275</ele>
        <time>2017-06-26T09:22:04Z</time>
      </trkpt>
      <trkpt lat="48.58673" lon="6.41944">
        <ele>275</ele>
        <time>2017-06-26T09:22:05Z</time>
      </trkpt>
      <trkpt lat="48.58672" lon="6.41946">
        <ele>275</ele>
        <time>2017-06-26T09:22:06Z</time>
      </trkpt>
      <trkpt lat="48.5867" lon="6.41949">
        <ele>275</ele>
        <time>2017-06-26T09:22:07Z</time>
      </trkpt>
      <trkpt lat="48.58668" lon="6.41951">
        <ele>275</ele>
        <time>2017-06-26T09:22:08Z</time>
      </trkpt>
      <trkpt lat="48.58666" lon="6.41953">
        <ele>274</ele>
        <time>2017-06-26T09:22:09Z</time>
      </trkpt>
      <trkpt lat="48.58664" lon="6.41954">
        <ele>274</ele>
        <time>2017-06-26T09:22:10Z</time>
      </trkpt>
      <trkpt lat="48.58661" lon="6.41955">
        <ele>274</ele>
        <time>2017-06-26T09:22:11Z</time>
      </trkpt>
      <trkpt lat="48.58659" lon="6.41956">
        <ele>274</ele>
        <time>2017-06-26T09:22:12Z</time>
      </trkpt>
      <trkpt lat="48.58657" lon="6.41957">
        <ele>274</ele>
        <time>2017-06-26T09:22:13Z</time>
      </trkpt>
      <trkpt lat="48.58655" lon="6.41959">
        <ele>273</ele>
        <time>2017-06-26T09:22:14Z</time>
      </trkpt>
      <trkpt lat="48.58652" lon="6.41959">
        <ele>273</ele>
        <time>2017-06-26T09:22:15Z</time>
      </trkpt>
      <trkpt lat="48.5865" lon="6.4196">
        <ele>273</ele>
        <time>2017-06-26T09:22:16Z</time>
      </trkpt>
      <trkpt lat="48.58647" lon="6.41962">
        <ele>273</ele>
        <time>2017-06-26T09:22:17Z</time>
      </trkpt>
      <trkpt lat="48.58644" lon="6.41964">
        <ele>273</ele>
        <time>2017-06-26T09:22:18Z</time>
      </trkpt>
      <trkpt lat="48.58642" lon="6.41966">
        <ele>273</ele>
        <time>2017-06-26T09:22:19Z</time>
      </trkpt>
      <trkpt lat="48.58639" lon="6.41967">
        <ele>273</ele>
        <time>2017-06-26T09:22:20Z</time>
      </trkpt>
      <trkpt lat="48.58637" lon="6.41968">
        <ele>272</ele>
        <time>2017-06-26T09:22:21Z</time>
      </trkpt>
      <trkpt lat="48.58634" lon="6.4197">
        <ele>272</ele>
        <time>2017-06-26T09:22:22Z</time>
      </trkpt>
      <trkpt lat="48.5863" lon="6.41972">
        <ele>272</ele>
        <time>2017-06-26T09:22:23Z</time>
      </trkpt>
      <trkpt lat="48.58627" lon="6.41974">
        <ele>272</ele>
        <time>2017-06-26T09:22:24Z</time>
      </trkpt>
      <trkpt lat="48.58624" lon="6.41976">
        <ele>272</ele>
        <time>2017-06-26T09:22:25Z</time>
      </trkpt>
      <trkpt lat="48.58621" lon="6.41979">
        <ele>272</ele>
        <time>2017-06-26T09:22:26Z</time>
      </trkpt>
      <trkpt lat="48.5862" lon="6.41981">
        <ele>272</ele>
        <time>2017-06-26T09:22:27Z</time>
      </trkpt>
      <trkpt lat="48.58619" lon="6.41984">
        <ele>272</ele>
        <time>2017-06-26T09:22:28Z</time>
      </trkpt>
      <trkpt lat="48.58617" lon="6.41987">
        <ele>272</ele>
        <time>2017-06-26T09:22:29Z</time>
      </trkpt>
      <trkpt lat="48.58614" lon="6.41991">
        <ele>272</ele>
        <time>2017-06-26T09:22:30Z</time>
      </trkpt>
      <trkpt lat="48.58613" lon="6.41995">
        <ele>272</ele>
        <time>2017-06-26T09:22:31Z</time>
      </trkpt>
      <trkpt lat="48.58611" lon="6.41997">
        <ele>272</ele>
        <time>2017-06-26T09:22:32Z</time>
      </trkpt>
      <trkpt lat="48.58609" lon="6.42">
        <ele>271</ele>
        <time>2017-06-26T09:22:33Z</time>
      </trkpt>
      <trkpt lat="48.58607" lon="6.42002">
        <ele>271</ele>
        <time>2017-06-26T09:22:34Z</time>
      </trkpt>
      <trkpt lat="48.58605" lon="6.42005">
        <ele>271</ele>
        <time>2017-06-26T09:22:35Z</time>
      </trkpt>
      <trkpt lat="48.58603" lon="6.42008">
        <ele>271</ele>
        <time>2017-06-26T09:22:36Z</time>
      </trkpt>
      <trkpt lat="48.58602" lon="6.42011">
        <ele>271</ele>
        <time>2017-06-26T09:22:37Z</time>
      </trkpt>
      <trkpt lat="48.586" lon="6.42014">
        <ele>271</ele>
        <time>2017-06-26T09:22:38Z</time>
      </trkpt>
      <trkpt lat="48.58599" lon="6.42017">
        <ele>271</ele>
        <time>2017-06-26T09:22:39Z</time>
      </trkpt>
      <trkpt lat="48.58598" lon="6.4202">
        <ele>271</ele>
        <time>2017-06-26T09:22:40Z</time>
      </trkpt>
      <trkpt lat="48.58596" lon="6.42024">
        <ele>271</ele>
        <time>2017-06-26T09:22:41Z</time>
      </trkpt>
      <trkpt lat="48.58595" lon="6.42028">
        <ele>271</ele>
        <time>2017-06-26T09:22:42Z</time>
      </trkpt>
      <trkpt lat="48.58593" lon="6.42031">
        <ele>271</ele>
        <time>2017-06-26T09:22:43Z</time>
      </trkpt>
      <trkpt lat="48.58592" lon="6.42033">
        <ele>271</ele>
        <time>2017-06-26T09:22:44Z</time>
      </trkpt>
      <trkpt lat="48.58591" lon="6.42036">
        <ele>271</ele>
        <time>2017-06-26T09:22:45Z</time>
      </trkpt>
      <trkpt lat="48.58589" lon="6.42039">
        <ele>271</ele>
        <time>2017-06-26T09:22:46Z</time>
      </trkpt>
      <trkpt lat="48.58588" lon="6.42041">
        <ele>271</ele>
        <time>2017-06-26T09:22:47Z</time>
      </trkpt>
      <trkpt lat="48.58587" lon="6.42044">
        <ele>271</ele>
        <time>2017-06-26T09:22:48Z</time>
      </trkpt>
      <trkpt lat="48.58585" lon="6.42047">
        <ele>271</ele>
        <time>2017-06-26T09:22:49Z</time>
      </trkpt>
      <trkpt lat="48.58584" lon="6.4205">
        <ele>271</ele>
        <time>2017-06-26T09:22:50Z</time>
      </trkpt>
      <trkpt lat="48.58582" lon="6.42053">
        <ele>271</ele>
        <time>2017-06-26T09:22:51Z</time>
      </trkpt>
      <trkpt lat="48.58581" lon="6.42055">
        <ele>271</ele>
        <time>2017-06-26T09:22:52Z</time>
      </trkpt>
      <trkpt lat="48.58579" lon="6.42058">
        <ele>271</ele>
        <time>2017-06-26T09:22:53Z</time>
      </trkpt>
      <trkpt lat="48.58578" lon="6.42062">
        <ele>271</ele>
        <time>2017-06-26T09:22:54Z</time>
      </trkpt>
      <trkpt lat="48.58576" lon="6.42065">
        <ele>271</ele>
        <time>2017-06-26T09:22:55Z</time>
      </trkpt>
      <trkpt lat="48.58574" lon="6.42069">
        <ele>271</ele>
        <time>2017-06-26T09:22:56Z</time>
      </trkpt>
      <trkpt lat="48.58572" lon="6.42072">
        <ele>271</ele>
        <time>2017-06-26T09:22:57Z</time>
      </trkpt>
      <trkpt lat="48.5857" lon="6.42076">
        <ele>270</ele>
        <time>2017-06-26T09:22:58Z</time>
      </trkpt>
      <trkpt lat="48.58568" lon="6.42079">
        <ele>270</ele>
        <time>2017-06-26T09:22:59Z</time>
      </trkpt>
      <trkpt lat="48.58566" lon="6.42083">
        <ele>270</ele>
        <time>2017-06-26T09:23:00Z</time>
      </trkpt>
      <trkpt lat="48.58564" lon="6.42087">
        <ele>270</ele>
        <time>2017-06-26T09:23:01Z</time>
      </trkpt>
      <trkpt lat="48.58562" lon="6.4209">
        <ele>270</ele>
        <time>2017-06-26T09:23:02Z</time>
      </trkpt>
      <trkpt lat="48.58561" lon="6.42094">
        <ele>270</ele>
        <time>2017-06-26T09:23:03Z</time>
      </trkpt>
      <trkpt lat="48.5856" lon="6.42097">
        <ele>270</ele>
        <time>2017-06-26T09:23:04Z</time>
      </trkpt>
      <trkpt lat="48.58558" lon="6.421">
        <ele>270</ele>
        <time>2017-06-26T09:23:05Z</time>
      </trkpt>
      <trkpt lat="48.58557" lon="6.42104">
        <ele>270</ele>
        <time>2017-06-26T09:23:06Z</time>
      </trkpt>
      <trkpt lat="48.58556" lon="6.42107">
        <ele>270</ele>
        <time>2017-06-26T09:23:07Z</time>
      </trkpt>
      <trkpt lat="48.58554" lon="6.4211">
        <ele>269</ele>
        <time>2017-06-26T09:23:08Z</time>
      </trkpt>
      <trkpt lat="48.58553" lon="6.42113">
        <ele>269</ele>
        <time>2017-06-26T09:23:09Z</time>
      </trkpt>
      <trkpt lat="48.58552" lon="6.42117">
        <ele>269</ele>
        <time>2017-06-26T09:23:10Z</time>
      </trkpt>
      <trkpt lat="48.5855" lon="6.4212">
        <ele>269</ele>
        <time>2017-06-26T09:23:11Z</time>
      </trkpt>
      <trkpt lat="48.58549" lon="6.42122">
        <ele>269</ele>
        <time>2017-06-26T09:23:12Z</time>
      </trkpt>
      <trkpt lat="48.58548" lon="6.42125">
        <ele>269</ele>
        <time>2017-06-26T09:23:13Z</time>
      </trkpt>
      <trkpt lat="48.58546" lon="6.42127">
        <ele>269</ele>
        <time>2017-06-26T09:23:14Z</time>
      </trkpt>
      <trkpt lat="48.58542" lon="6.42134">
        <ele>269</ele>
        <time>2017-06-26T09:23:15Z</time>
      </trkpt>
      <trkpt lat="48.58541" lon="6.42138">
        <ele>269</ele>
        <time>2017-06-26T09:23:16Z</time>
      </trkpt>
      <trkpt lat="48.58539" lon="6.42141">
        <ele>268</ele>
        <time>2017-06-26T09:23:17Z</time>
      </trkpt>
      <trkpt lat="48.58538" lon="6.42145">
        <ele>268</ele>
        <time>2017-06-26T09:23:18Z</time>
      </trkpt>
      <trkpt lat="48.58536" lon="6.42148">
        <ele>268</ele>
        <time>2017-06-26T09:23:19Z</time>
      </trkpt>
      <trkpt lat="48.58535" lon="6.42152">
        <ele>268</ele>
        <time>2017-06-26T09:23:20Z</time>
      </trkpt>
      <trkpt lat="48.58534" lon="6.42155">
        <ele>268</ele>
        <time>2017-06-26T09:23:21Z</time>
      </trkpt>
      <trkpt lat="48.58533" lon="6.42159">
        <ele>268</ele>
        <time>2017-06-26T09:23:22Z</time>
      </trkpt>
      <trkpt lat="48.58531" lon="6.42162">
        <ele>268</ele>
        <time>2017-06-26T09:23:23Z</time>
      </trkpt>
      <trkpt lat="48.5853" lon="6.42165">
        <ele>268</ele>
        <time>2017-06-26T09:23:24Z</time>
      </trkpt>
      <trkpt lat="48.58528" lon="6.42169">
        <ele>268</ele>
        <time>2017-06-26T09:23:25Z</time>
      </trkpt>
      <trkpt lat="48.58526" lon="6.42172">
        <ele>268</ele>
        <time>2017-06-26T09:23:26Z</time>
      </trkpt>
      <trkpt lat="48.58524" lon="6.42176">
        <ele>268</ele>
        <time>2017-06-26T09:23:27Z</time>
      </trkpt>
      <trkpt lat="48.58522" lon="6.42179">
        <ele>267</ele>
        <time>2017-06-26T09:23:28Z</time>
      </trkpt>
      <trkpt lat="48.58521" lon="6.42182">
        <ele>267</ele>
        <time>2017-06-26T09:23:29Z</time>
      </trkpt>
      <trkpt lat="48.58519" lon="6.42185">
        <ele>267</ele>
        <time>2017-06-26T09:23:30Z</time>
      </trkpt>
      <trkpt lat="48.58517" lon="6.42188">
        <ele>267</ele>
        <time>2017-06-26T09:23:31Z</time>
      </trkpt>
      <trkpt lat="48.58516" lon="6.42191">
        <ele>267</ele>
        <time>2017-06-26T09:23:32Z</time>
      </trkpt>
      <trkpt lat="48.58515" lon="6.42193">
        <ele>267</ele>
        <time>2017-06-26T09:23:33Z</time>
      </trkpt>
      <trkpt lat="48.58513" lon="6.42196">
        <ele>267</ele>
        <time>2017-06-26T09:23:34Z</time>
      </trkpt>
      <trkpt lat="48.58512" lon="6.42198">
        <ele>266</ele>
        <time>2017-06-26T09:23:35Z</time>
      </trkpt>
      <trkpt lat="48.58511" lon="6.42201">
        <ele>266</ele>
        <time>2017-06-26T09:23:36Z</time>
      </trkpt>
      <trkpt lat="48.58509" lon="6.42205">
        <ele>266</ele>
        <time>2017-06-26T09:23:37Z</time>
      </trkpt>
      <trkpt lat="48.58508" lon="6.42207">
        <ele>266</ele>
        <time>2017-06-26T09:23:38Z</time>
      </trkpt>
      <trkpt lat="48.58507" lon="6.4221">
        <ele>266</ele>
        <time>2017-06-26T09:23:39Z</time>
      </trkpt>
      <trkpt lat="48.58506" lon="6.42214">
        <ele>266</ele>
        <time>2017-06-26T09:23:40Z</time>
      </trkpt>
      <trkpt lat="48.58505" lon="6.42216">
        <ele>266</ele>
        <time>2017-06-26T09:23:41Z</time>
      </trkpt>
      <trkpt lat="48.58504" lon="6.42219">
        <ele>266</ele>
        <time>2017-06-26T09:23:42Z</time>
      </trkpt>
      <trkpt lat="48.58503" lon="6.42221">
        <ele>267</ele>
        <time>2017-06-26T09:23:43Z</time>
      </trkpt>
      <trkpt lat="48.58502" lon="6.42224">
        <ele>267</ele>
        <time>2017-06-26T09:23:44Z</time>
      </trkpt>
      <trkpt lat="48.585" lon="6.42227">
        <ele>267</ele>
        <time>2017-06-26T09:23:45Z</time>
      </trkpt>
      <trkpt lat="48.58499" lon="6.4223">
        <ele>267</ele>
        <time>2017-06-26T09:23:46Z</time>
      </trkpt>
      <trkpt lat="48.58497" lon="6.42234">
        <ele>266</ele>
        <time>2017-06-26T09:23:47Z</time>
      </trkpt>
      <trkpt lat="48.58493" lon="6.42239">
        <ele>266</ele>
        <time>2017-06-26T09:23:48Z</time>
      </trkpt>
      <trkpt lat="48.58489" lon="6.42243">
        <ele>266</ele>
        <time>2017-06-26T09:23:49Z</time>
      </trkpt>
      <trkpt lat="48.58487" lon="6.42247">
        <ele>266</ele>
        <time>2017-06-26T09:23:50Z</time>
      </trkpt>
      <trkpt lat="48.58485" lon="6.4225">
        <ele>266</ele>
        <time>2017-06-26T09:23:51Z</time>
      </trkpt>
      <trkpt lat="48.58484" lon="6.42254">
        <ele>266</ele>
        <time>2017-06-26T09:23:52Z</time>
      </trkpt>
      <trkpt lat="48.58482" lon="6.42257">
        <ele>265</ele>
        <time>2017-06-26T09:23:53Z</time>
      </trkpt>
      <trkpt lat="48.5848" lon="6.4226">
        <ele>265</ele>
        <time>2017-06-26T09:23:54Z</time>
      </trkpt>
      <trkpt lat="48.58479" lon="6.42263">
        <ele>265</ele>
        <time>2017-06-26T09:23:55Z</time>
      </trkpt>
      <trkpt lat="48.58478" lon="6.42266">
        <ele>265</ele>
        <time>2017-06-26T09:23:56Z</time>
      </trkpt>
      <trkpt lat="48.58477" lon="6.42269">
        <ele>265</ele>
        <time>2017-06-26T09:23:57Z</time>
      </trkpt>
      <trkpt lat="48.58475" lon="6.42273">
        <ele>265</ele>
        <time>2017-06-26T09:23:58Z</time>
      </trkpt>
      <trkpt lat="48.58473" lon="6.42277">
        <ele>265</ele>
        <time>2017-06-26T09:23:59Z</time>
      </trkpt>
      <trkpt lat="48.58471" lon="6.42281">
        <ele>265</ele>
        <time>2017-06-26T09:24:00Z</time>
      </trkpt>
      <trkpt lat="48.5847" lon="6.42284">
        <ele>265</ele>
        <time>2017-06-26T09:24:01Z</time>
      </trkpt>
      <trkpt lat="48.58468" lon="6.42288">
        <ele>265</ele>
        <time>2017-06-26T09:24:02Z</time>
      </trkpt>
      <trkpt lat="48.58466" lon="6.42292">
        <ele>265</ele>
        <time>2017-06-26T09:24:03Z</time>
      </trkpt>
      <trkpt lat="48.58465" lon="6.42295">
        <ele>265</ele>
        <time>2017-06-26T09:24:04Z</time>
      </trkpt>
      <trkpt lat="48.58463" lon="6.42298">
        <ele>265</ele>
        <time>2017-06-26T09:24:05Z</time>
      </trkpt>
      <trkpt lat="48.58462" lon="6.423">
        <ele>265</ele>
        <time>2017-06-26T09:24:06Z</time>
      </trkpt>
      <trkpt lat="48.58461" lon="6.42304">
        <ele>265</ele>
        <time>2017-06-26T09:24:07Z</time>
      </trkpt>
      <trkpt lat="48.58459" lon="6.42307">
        <ele>264</ele>
        <time>2017-06-26T09:24:08Z</time>
      </trkpt>
      <trkpt lat="48.58457" lon="6.42311">
        <ele>264</ele>
        <time>2017-06-26T09:24:09Z</time>
      </trkpt>
      <trkpt lat="48.58455" lon="6.42314">
        <ele>264</ele>
        <time>2017-06-26T09:24:10Z</time>
      </trkpt>
      <trkpt lat="48.58453" lon="6.42317">
        <ele>263</ele>
        <time>2017-06-26T09:24:11Z</time>
      </trkpt>
      <trkpt lat="48.58451" lon="6.4232">
        <ele>263</ele>
        <time>2017-06-26T09:24:12Z</time>
      </trkpt>
      <trkpt lat="48.5845" lon="6.42324">
        <ele>263</ele>
        <time>2017-06-26T09:24:13Z</time>
      </trkpt>
      <trkpt lat="48.58449" lon="6.42328">
        <ele>263</ele>
        <time>2017-06-26T09:24:14Z</time>
      </trkpt>
      <trkpt lat="48.58449" lon="6.42331">
        <ele>263</ele>
        <time>2017-06-26T09:24:15Z</time>
      </trkpt>
      <trkpt lat="48.5845" lon="6.42333">
        <ele>263</ele>
        <time>2017-06-26T09:24:16Z</time>
      </trkpt>
      <trkpt lat="48.58452" lon="6.42336">
        <ele>263</ele>
        <time>2017-06-26T09:24:17Z</time>
      </trkpt>
      <trkpt lat="48.58454" lon="6.42339">
        <ele>262</ele>
        <time>2017-06-26T09:24:19Z</time>
      </trkpt>
      <trkpt lat="48.58456" lon="6.42343">
        <ele>262</ele>
        <time>2017-06-26T09:24:21Z</time>
      </trkpt>
      <trkpt lat="48.58457" lon="6.42345">
        <ele>262</ele>
        <time>2017-06-26T09:24:23Z</time>
      </trkpt>
      <trkpt lat="48.58459" lon="6.42348">
        <ele>262</ele>
        <time>2017-06-26T09:24:25Z</time>
      </trkpt>
      <trkpt lat="48.58461" lon="6.42351">
        <ele>262</ele>
        <time>2017-06-26T09:24:27Z</time>
      </trkpt>
      <trkpt lat="48.58463" lon="6.42354">
        <ele>262</ele>
        <time>2017-06-26T09:24:29Z</time>
      </trkpt>
      <trkpt lat="48.58465" lon="6.42356">
        <ele>262</ele>
        <time>2017-06-26T09:24:31Z</time>
      </trkpt>
      <trkpt lat="48.58468" lon="6.42359">
        <ele>261</ele>
        <time>2017-06-26T09:24:33Z</time>
      </trkpt>
      <trkpt lat="48.5847" lon="6.42361">
        <ele>261</ele>
        <time>2017-06-26T09:24:35Z</time>
      </trkpt>
      <trkpt lat="48.58471" lon="6.42362">
        <ele>261</ele>
        <time>2017-06-26T09:24:37Z</time>
      </trkpt>
      <trkpt lat="48.58473" lon="6.42365">
        <ele>260</ele>
        <time>2017-06-26T09:24:39Z</time>
      </trkpt>
      <trkpt lat="48.58476" lon="6.42368">
        <ele>260</ele>
        <time>2017-06-26T09:24:41Z</time>
      </trkpt>
      <trkpt lat="48.58477" lon="6.4237">
        <ele>260</ele>
        <time>2017-06-26T09:24:42Z</time>
      </trkpt>
      <trkpt lat="48.5848" lon="6.42373">
        <ele>260</ele>
        <time>2017-06-26T09:24:44Z</time>
      </trkpt>
      <trkpt lat="48.58482" lon="6.42375">
        <ele>260</ele>
        <time>2017-06-26T09:24:46Z</time>
      </trkpt>
      <trkpt lat="48.58485" lon="6.42378">
        <ele>260</ele>
        <time>2017-06-26T09:24:48Z</time>
      </trkpt>
      <trkpt lat="48.58487" lon="6.42381">
        <ele>260</ele>
        <time>2017-06-26T09:24:50Z</time>
      </trkpt>
      <trkpt lat="48.5849" lon="6.42384">
        <ele>260</ele>
        <time>2017-06-26T09:24:52Z</time>
      </trkpt>
      <trkpt lat="48.58492" lon="6.42386">
        <ele>260</ele>
        <time>2017-06-26T09:24:54Z</time>
      </trkpt>
      <trkpt lat="48.58495" lon="6.42388">
        <ele>261</ele>
        <time>2017-06-26T09:24:56Z</time>
      </trkpt>
      <trkpt lat="48.58498" lon="6.42391">
        <ele>261</ele>
        <time>2017-06-26T09:24:58Z</time>
      </trkpt>
      <trkpt lat="48.585" lon="6.42394">
        <ele>260</ele>
        <time>2017-06-26T09:25:00Z</time>
      </trkpt>
      <trkpt lat="48.58503" lon="6.42397">
        <ele>260</ele>
        <time>2017-06-26T09:25:02Z</time>
      </trkpt>
      <trkpt lat="48.58506" lon="6.424">
        <ele>260</ele>
        <time>2017-06-26T09:25:04Z</time>
      </trkpt>
      <trkpt lat="48.58508" lon="6.42403">
        <ele>260</ele>
        <time>2017-06-26T09:25:06Z</time>
      </trkpt>
      <trkpt lat="48.5851" lon="6.42405">
        <ele>260</ele>
        <time>2017-06-26T09:25:07Z</time>
      </trkpt>
      <trkpt lat="48.58512" lon="6.42408">
        <ele>260</ele>
        <time>2017-06-26T09:25:09Z</time>
      </trkpt>
      <trkpt lat="48.58515" lon="6.42409">
        <ele>260</ele>
        <time>2017-06-26T09:25:11Z</time>
      </trkpt>
      <trkpt lat="48.58516" lon="6.42411">
        <ele>260</ele>
        <time>2017-06-26T09:25:12Z</time>
      </trkpt>
      <trkpt lat="48.58518" lon="6.42413">
        <ele>260</ele>
        <time>2017-06-26T09:25:13Z</time>
      </trkpt>
      <trkpt lat="48.5852" lon="6.42416">
        <ele>260</ele>
        <time>2017-06-26T09:25:14Z</time>
      </trkpt>
      <trkpt lat="48.58522" lon="6.42418">
        <ele>260</ele>
        <time>2017-06-26T09:25:15Z</time>
      </trkpt>
      <trkpt lat="48.58524" lon="6.42421">
        <ele>260</ele>
        <time>2017-06-26T09:25:16Z</time>
      </trkpt>
      <trkpt lat="48.58525" lon="6.42423">
        <ele>260</ele>
        <time>2017-06-26T09:25:17Z</time>
      </trkpt>
      <trkpt lat="48.58527" lon="6.42425">
        <ele>260</ele>
        <time>2017-06-26T09:25:18Z</time>
      </trkpt>
      <trkpt lat="48.58529" lon="6.42427">
        <ele>260</ele>
        <time>2017-06-26T09:25:19Z</time>
      </trkpt>
      <trkpt lat="48.58531" lon="6.42429">
        <ele>260</ele>
        <time>2017-06-26T09:25:20Z</time>
      </trkpt>
      <trkpt lat="48.58533" lon="6.42432">
        <ele>260</ele>
        <time>2017-06-26T09:25:21Z</time>
      </trkpt>
      <trkpt lat="48.58535" lon="6.42435">
        <ele>261</ele>
        <time>2017-06-26T09:25:22Z</time>
      </trkpt>
      <trkpt lat="48.58537" lon="6.42437">
        <ele>261</ele>
        <time>2017-06-26T09:25:23Z</time>
      </trkpt>
      <trkpt lat="48.58539" lon="6.4244">
        <ele>261</ele>
        <time>2017-06-26T09:25:24Z</time>
      </trkpt>
      <trkpt lat="48.58541" lon="6.42442">
        <ele>261</ele>
        <time>2017-06-26T09:25:25Z</time>
      </trkpt>
      <trkpt lat="48.58544" lon="6.42443">
        <ele>261</ele>
        <time>2017-06-26T09:25:26Z</time>
      </trkpt>
      <trkpt lat="48.58546" lon="6.42445">
        <ele>261</ele>
        <time>2017-06-26T09:25:27Z</time>
      </trkpt>
      <trkpt lat="48.58549" lon="6.42447">
        <ele>261</ele>
        <time>2017-06-26T09:25:28Z</time>
      </trkpt>
      <trkpt lat="48.58551" lon="6.4245">
        <ele>261</ele>
        <time>2017-06-26T09:25:29Z</time>
      </trkpt>
      <trkpt lat="48.58553" lon="6.42452">
        <ele>261</ele>
        <time>2017-06-26T09:25:30Z</time>
      </trkpt>
      <trkpt lat="48.58555" lon="6.42455">
        <ele>261</ele>
        <time>2017-06-26T09:25:31Z</time>
      </trkpt>
      <trkpt lat="48.58557" lon="6.42458">
        <ele>261</ele>
        <time>2017-06-26T09:25:32Z</time>
      </trkpt>
      <trkpt lat="48.58559" lon="6.4246">
        <ele>261</ele>
        <time>2017-06-26T09:25:33Z</time>
      </trkpt>
      <trkpt lat="48.58561" lon="6.42462">
        <ele>261</ele>
        <time>2017-06-26T09:25:34Z</time>
      </trkpt>
      <trkpt lat="48.58564" lon="6.42464">
        <ele>261</ele>
        <time>2017-06-26T09:25:35Z</time>
      </trkpt>
      <trkpt lat="48.58566" lon="6.42467">
        <ele>261</ele>
        <time>2017-06-26T09:25:36Z</time>
      </trkpt>
      <trkpt lat="48.58569" lon="6.42469">
        <ele>261</ele>
        <time>2017-06-26T09:25:37Z</time>
      </trkpt>
      <trkpt lat="48.58571" lon="6.42472">
        <ele>262</ele>
        <time>2017-06-26T09:25:38Z</time>
      </trkpt>
      <trkpt lat="48.58572" lon="6.42474">
        <ele>262</ele>
        <time>2017-06-26T09:25:39Z</time>
      </trkpt>
      <trkpt lat="48.58575" lon="6.42477">
        <ele>262</ele>
        <time>2017-06-26T09:25:40Z</time>
      </trkpt>
      <trkpt lat="48.58577" lon="6.4248">
        <ele>262</ele>
        <time>2017-06-26T09:25:41Z</time>
      </trkpt>
      <trkpt lat="48.58579" lon="6.42482">
        <ele>262</ele>
        <time>2017-06-26T09:25:42Z</time>
      </trkpt>
      <trkpt lat="48.58581" lon="6.42484">
        <ele>262</ele>
        <time>2017-06-26T09:25:43Z</time>
      </trkpt>
      <trkpt lat="48.58583" lon="6.42487">
        <ele>262</ele>
        <time>2017-06-26T09:25:44Z</time>
      </trkpt>
      <trkpt lat="48.58585" lon="6.42489">
        <ele>262</ele>
        <time>2017-06-26T09:25:45Z</time>
      </trkpt>
      <trkpt lat="48.58587" lon="6.42492">
        <ele>263</ele>
        <time>2017-06-26T09:25:46Z</time>
      </trkpt>
      <trkpt lat="48.58589" lon="6.42494">
        <ele>263</ele>
        <time>2017-06-26T09:25:47Z</time>
      </trkpt>
      <trkpt lat="48.58592" lon="6.42496">
        <ele>263</ele>
        <time>2017-06-26T09:25:48Z</time>
      </trkpt>
      <trkpt lat="48.58593" lon="6.42498">
        <ele>263</ele>
        <time>2017-06-26T09:25:49Z</time>
      </trkpt>
      <trkpt lat="48.58595" lon="6.42499">
        <ele>263</ele>
        <time>2017-06-26T09:25:50Z</time>
      </trkpt>
      <trkpt lat="48.58597" lon="6.42502">
        <ele>263</ele>
        <time>2017-06-26T09:25:51Z</time>
      </trkpt>
      <trkpt lat="48.586" lon="6.42504">
        <ele>264</ele>
        <time>2017-06-26T09:25:52Z</time>
      </trkpt>
      <trkpt lat="48.58602" lon="6.42506">
        <ele>264</ele>
        <time>2017-06-26T09:25:53Z</time>
      </trkpt>
      <trkpt lat="48.58605" lon="6.42508">
        <ele>264</ele>
        <time>2017-06-26T09:25:54Z</time>
      </trkpt>
      <trkpt lat="48.58607" lon="6.4251">
        <ele>264</ele>
        <time>2017-06-26T09:25:55Z</time>
      </trkpt>
      <trkpt lat="48.58609" lon="6.42512">
        <ele>265</ele>
        <time>2017-06-26T09:25:56Z</time>
      </trkpt>
      <trkpt lat="48.58611" lon="6.42514">
        <ele>265</ele>
        <time>2017-06-26T09:25:57Z</time>
      </trkpt>
      <trkpt lat="48.58613" lon="6.42516">
        <ele>265</ele>
        <time>2017-06-26T09:25:58Z</time>
      </trkpt>
      <trkpt lat="48.58615" lon="6.42519">
        <ele>265</ele>
        <time>2017-06-26T09:25:59Z</time>
      </trkpt>
      <trkpt lat="48.58617" lon="6.42521">
        <ele>265</ele>
        <time>2017-06-26T09:26:00Z</time>
      </trkpt>
      <trkpt lat="48.58619" lon="6.42523">
        <ele>265</ele>
        <time>2017-06-26T09:26:01Z</time>
      </trkpt>
      <trkpt lat="48.58621" lon="6.42526">
        <ele>266</ele>
        <time>2017-06-26T09:26:02Z</time>
      </trkpt>
      <trkpt lat="48.58623" lon="6.42527">
        <ele>266</ele>
        <time>2017-06-26T09:26:03Z</time>
      </trkpt>
      <trkpt lat="48.58625" lon="6.4253">
        <ele>266</ele>
        <time>2017-06-26T09:26:04Z</time>
      </trkpt>
      <trkpt lat="48.58627" lon="6.42531">
        <ele>266</ele>
        <time>2017-06-26T09:26:05Z</time>
      </trkpt>
      <trkpt lat="48.58628" lon="6.42533">
        <ele>266</ele>
        <time>2017-06-26T09:26:06Z</time>
      </trkpt>
      <trkpt lat="48.5863" lon="6.42534">
        <ele>266</ele>
        <time>2017-06-26T09:26:07Z</time>
      </trkpt>
      <trkpt lat="48.58632" lon="6.42536">
        <ele>266</ele>
        <time>2017-06-26T09:26:08Z</time>
      </trkpt>
      <trkpt lat="48.58633" lon="6.42537">
        <ele>266</ele>
        <time>2017-06-26T09:26:09Z</time>
      </trkpt>
      <trkpt lat="48.58636" lon="6.4254">
        <ele>266</ele>
        <time>2017-06-26T09:26:11Z</time>
      </trkpt>
      <trkpt lat="48.58638" lon="6.42543">
        <ele>266</ele>
        <time>2017-06-26T09:26:13Z</time>
      </trkpt>
      <trkpt lat="48.58639" lon="6.42545">
        <ele>266</ele>
        <time>2017-06-26T09:26:14Z</time>
      </trkpt>
      <trkpt lat="48.58641" lon="6.42547">
        <ele>266</ele>
        <time>2017-06-26T09:26:15Z</time>
      </trkpt>
      <trkpt lat="48.58643" lon="6.42549">
        <ele>266</ele>
        <time>2017-06-26T09:26:16Z</time>
      </trkpt>
      <trkpt lat="48.58645" lon="6.42552">
        <ele>266</ele>
        <time>2017-06-26T09:26:18Z</time>
      </trkpt>
      <trkpt lat="48.58647" lon="6.42555">
        <ele>266</ele>
        <time>2017-06-26T09:26:20Z</time>
      </trkpt>
      <trkpt lat="48.58649" lon="6.42558">
        <ele>266</ele>
        <time>2017-06-26T09:26:22Z</time>
      </trkpt>
      <trkpt lat="48.58652" lon="6.42561">
        <ele>266</ele>
        <time>2017-06-26T09:26:24Z</time>
      </trkpt>
      <trkpt lat="48.58654" lon="6.42565">
        <ele>266</ele>
        <time>2017-06-26T09:26:26Z</time>
      </trkpt>
      <trkpt lat="48.58656" lon="6.42567">
        <ele>266</ele>
        <time>2017-06-26T09:26:27Z</time>
      </trkpt>
      <trkpt lat="48.58657" lon="6.42569">
        <ele>266</ele>
        <time>2017-06-26T09:26:28Z</time>
      </trkpt>
      <trkpt lat="48.58658" lon="6.42571">
        <ele>266</ele>
        <time>2017-06-26T09:26:29Z</time>
      </trkpt>
      <trkpt lat="48.58661" lon="6.42573">
        <ele>266</ele>
        <time>2017-06-26T09:26:31Z</time>
      </trkpt>
      <trkpt lat="48.58664" lon="6.42577">
        <ele>266</ele>
        <time>2017-06-26T09:26:33Z</time>
      </trkpt>
      <trkpt lat="48.58666" lon="6.42579">
        <ele>266</ele>
        <time>2017-06-26T09:26:34Z</time>
      </trkpt>
      <trkpt lat="48.58668" lon="6.42582">
        <ele>266</ele>
        <time>2017-06-26T09:26:35Z</time>
      </trkpt>
      <trkpt lat="48.5867" lon="6.42584">
        <ele>266</ele>
        <time>2017-06-26T09:26:36Z</time>
      </trkpt>
      <trkpt lat="48.58672" lon="6.42586">
        <ele>266</ele>
        <time>2017-06-26T09:26:37Z</time>
      </trkpt>
      <trkpt lat="48.58673" lon="6.42588">
        <ele>266</ele>
        <time>2017-06-26T09:26:38Z</time>
      </trkpt>
      <trkpt lat="48.58675" lon="6.4259">
        <ele>266</ele>
        <time>2017-06-26T09:26:39Z</time>
      </trkpt>
      <trkpt lat="48.58677" lon="6.42592">
        <ele>266</ele>
        <time>2017-06-26T09:26:40Z</time>
      </trkpt>
      <trkpt lat="48.58679" lon="6.42594">
        <ele>266</ele>
        <time>2017-06-26T09:26:41Z</time>
      </trkpt>
      <trkpt lat="48.58681" lon="6.42596">
        <ele>266</ele>
        <time>2017-06-26T09:26:42Z</time>
      </trkpt>
      <trkpt lat="48.58684" lon="6.42599">
        <ele>266</ele>
        <time>2017-06-26T09:26:43Z</time>
      </trkpt>
      <trkpt lat="48.58686" lon="6.42601">
        <ele>266</ele>
        <time>2017-06-26T09:26:44Z</time>
      </trkpt>
      <trkpt lat="48.58688" lon="6.42603">
        <ele>266</ele>
        <time>2017-06-26T09:26:45Z</time>
      </trkpt>
      <trkpt lat="48.5869" lon="6.42605">
        <ele>266</ele>
        <time>2017-06-26T09:26:46Z</time>
      </trkpt>
      <trkpt lat="48.58692" lon="6.42607">
        <ele>266</ele>
        <time>2017-06-26T09:26:47Z</time>
      </trkpt>
      <trkpt lat="48.58694" lon="6.42609">
        <ele>266</ele>
        <time>2017-06-26T09:26:48Z</time>
      </trkpt>
      <trkpt lat="48.58696" lon="6.42611">
        <ele>266</ele>
        <time>2017-06-26T09:26:49Z</time>
      </trkpt>
      <trkpt lat="48.58697" lon="6.42614">
        <ele>266</ele>
        <time>2017-06-26T09:26:50Z</time>
      </trkpt>
      <trkpt lat="48.58699" lon="6.42616">
        <ele>266</ele>
        <time>2017-06-26T09:26:51Z</time>
      </trkpt>
      <trkpt lat="48.58701" lon="6.42618">
        <ele>266</ele>
        <time>2017-06-26T09:26:52Z</time>
      </trkpt>
      <trkpt lat="48.58704" lon="6.4262">
        <ele>266</ele>
        <time>2017-06-26T09:26:53Z</time>
      </trkpt>
      <trkpt lat="48.58706" lon="6.42622">
        <ele>266</ele>
        <time>2017-06-26T09:26:54Z</time>
      </trkpt>
      <trkpt lat="48.58708" lon="6.42625">
        <ele>266</ele>
        <time>2017-06-26T09:26:55Z</time>
      </trkpt>
      <trkpt lat="48.5871" lon="6.42627">
        <ele>267</ele>
        <time>2017-06-26T09:26:56Z</time>
      </trkpt>
      <trkpt lat="48.58712" lon="6.42629">
        <ele>267</ele>
        <time>2017-06-26T09:26:57Z</time>
      </trkpt>
      <trkpt lat="48.58714" lon="6.42632">
        <ele>267</ele>
        <time>2017-06-26T09:26:58Z</time>
      </trkpt>
      <trkpt lat="48.58716" lon="6.42634">
        <ele>267</ele>
        <time>2017-06-26T09:26:59Z</time>
      </trkpt>
      <trkpt lat="48.58718" lon="6.42637">
        <ele>267</ele>
        <time>2017-06-26T09:27:00Z</time>
      </trkpt>
      <trkpt lat="48.58721" lon="6.42639">
        <ele>267</ele>
        <time>2017-06-26T09:27:01Z</time>
      </trkpt>
      <trkpt lat="48.58723" lon="6.42642">
        <ele>268</ele>
        <time>2017-06-26T09:27:02Z</time>
      </trkpt>
      <trkpt lat="48.58725" lon="6.42643">
        <ele>268</ele>
        <time>2017-06-26T09:27:03Z</time>
      </trkpt>
      <trkpt lat="48.58727" lon="6.42645">
        <ele>268</ele>
        <time>2017-06-26T09:27:04Z</time>
      </trkpt>
      <trkpt lat="48.58729" lon="6.42648">
        <ele>268</ele>
        <time>2017-06-26T09:27:05Z</time>
      </trkpt>
      <trkpt lat="48.58731" lon="6.42651">
        <ele>268</ele>
        <time>2017-06-26T09:27:06Z</time>
      </trkpt>
      <trkpt lat="48.58733" lon="6.42654">
        <ele>268</ele>
        <time>2017-06-26T09:27:07Z</time>
      </trkpt>
      <trkpt lat="48.58735" lon="6.42656">
        <ele>268</ele>
        <time>2017-06-26T09:27:08Z</time>
      </trkpt>
      <trkpt lat="48.58737" lon="6.42658">
        <ele>268</ele>
        <time>2017-06-26T09:27:09Z</time>
      </trkpt>
      <trkpt lat="48.58739" lon="6.4266">
        <ele>268</ele>
        <time>2017-06-26T09:27:10Z</time>
      </trkpt>
      <trkpt lat="48.58742" lon="6.42663">
        <ele>268</ele>
        <time>2017-06-26T09:27:11Z</time>
      </trkpt>
      <trkpt lat="48.58744" lon="6.42665">
        <ele>268</ele>
        <time>2017-06-26T09:27:12Z</time>
      </trkpt>
      <trkpt lat="48.58746" lon="6.42668">
        <ele>268</ele>
        <time>2017-06-26T09:27:13Z</time>
      </trkpt>
      <trkpt lat="48.58748" lon="6.4267">
        <ele>268</ele>
        <time>2017-06-26T09:27:14Z</time>
      </trkpt>
      <trkpt lat="48.58751" lon="6.42673">
        <ele>268</ele>
        <time>2017-06-26T09:27:15Z</time>
      </trkpt>
      <trkpt lat="48.58753" lon="6.42676">
        <ele>268</ele>
        <time>2017-06-26T09:27:16Z</time>
      </trkpt>
      <trkpt lat="48.58755" lon="6.42679">
        <ele>268</ele>
        <time>2017-06-26T09:27:17Z</time>
      </trkpt>
      <trkpt lat="48.58757" lon="6.42682">
        <ele>268</ele>
        <time>2017-06-26T09:27:18Z</time>
      </trkpt>
      <trkpt lat="48.58758" lon="6.42684">
        <ele>268</ele>
        <time>2017-06-26T09:27:19Z</time>
      </trkpt>
      <trkpt lat="48.5876" lon="6.42687">
        <ele>268</ele>
        <time>2017-06-26T09:27:20Z</time>
      </trkpt>
      <trkpt lat="48.58763" lon="6.4269">
        <ele>268</ele>
        <time>2017-06-26T09:27:21Z</time>
      </trkpt>
      <trkpt lat="48.58765" lon="6.42692">
        <ele>268</ele>
        <time>2017-06-26T09:27:22Z</time>
      </trkpt>
      <trkpt lat="48.58767" lon="6.42695">
        <ele>268</ele>
        <time>2017-06-26T09:27:23Z</time>
      </trkpt>
      <trkpt lat="48.58769" lon="6.42697">
        <ele>268</ele>
        <time>2017-06-26T09:27:24Z</time>
      </trkpt>
      <trkpt lat="48.58771" lon="6.42699">
        <ele>268</ele>
        <time>2017-06-26T09:27:25Z</time>
      </trkpt>
      <trkpt lat="48.58773" lon="6.42701">
        <ele>268</ele>
        <time>2017-06-26T09:27:26Z</time>
      </trkpt>
      <trkpt lat="48.58776" lon="6.42703">
        <ele>268</ele>
        <time>2017-06-26T09:27:27Z</time>
      </trkpt>
      <trkpt lat="48.58778" lon="6.42706">
        <ele>268</ele>
        <time>2017-06-26T09:27:28Z</time>
      </trkpt>
      <trkpt lat="48.5878" lon="6.42708">
        <ele>268</ele>
        <time>2017-06-26T09:27:29Z</time>
      </trkpt>
      <trkpt lat="48.58782" lon="6.42711">
        <ele>268</ele>
        <time>2017-06-26T09:27:30Z</time>
      </trkpt>
      <trkpt lat="48.58784" lon="6.42713">
        <ele>268</ele>
        <time>2017-06-26T09:27:31Z</time>
      </trkpt>
      <trkpt lat="48.58786" lon="6.42715">
        <ele>268</ele>
        <time>2017-06-26T09:27:32Z</time>
      </trkpt>
      <trkpt lat="48.58789" lon="6.42718">
        <ele>268</ele>
        <time>2017-06-26T09:27:33Z</time>
      </trkpt>
      <trkpt lat="48.58791" lon="6.4272">
        <ele>268</ele>
        <time>2017-06-26T09:27:34Z</time>
      </trkpt>
      <trkpt lat="48.58793" lon="6.42722">
        <ele>268</ele>
        <time>2017-06-26T09:27:35Z</time>
      </trkpt>
      <trkpt lat="48.58795" lon="6.42725">
        <ele>268</ele>
        <time>2017-06-26T09:27:36Z</time>
      </trkpt>
      <trkpt lat="48.58797" lon="6.42728">
        <ele>268</ele>
        <time>2017-06-26T09:27:37Z</time>
      </trkpt>
      <trkpt lat="48.58799" lon="6.4273">
        <ele>268</ele>
        <time>2017-06-26T09:27:38Z</time>
      </trkpt>
      <trkpt lat="48.58801" lon="6.42732">
        <ele>268</ele>
        <time>2017-06-26T09:27:39Z</time>
      </trkpt>
      <trkpt lat="48.58803" lon="6.42735">
        <ele>268</ele>
        <time>2017-06-26T09:27:40Z</time>
      </trkpt>
      <trkpt lat="48.58805" lon="6.42737">
        <ele>268</ele>
        <time>2017-06-26T09:27:41Z</time>
      </trkpt>
      <trkpt lat="48.58807" lon="6.42739">
        <ele>268</ele>
        <time>2017-06-26T09:27:42Z</time>
      </trkpt>
      <trkpt lat="48.58809" lon="6.42742">
        <ele>268</ele>
        <time>2017-06-26T09:27:43Z</time>
      </trkpt>
      <trkpt lat="48.58811" lon="6.42745">
        <ele>268</ele>
        <time>2017-06-26T09:27:44Z</time>
      </trkpt>
      <trkpt lat="48.58813" lon="6.42748">
        <ele>268</ele>
        <time>2017-06-26T09:27:45Z</time>
      </trkpt>
      <trkpt lat="48.58815" lon="6.4275">
        <ele>268</ele>
        <time>2017-06-26T09:27:46Z</time>
      </trkpt>
      <trkpt lat="48.58817" lon="6.42753">
        <ele>268</ele>
        <time>2017-06-26T09:27:47Z</time>
      </trkpt>
      <trkpt lat="48.58819" lon="6.42756">
        <ele>268</ele>
        <time>2017-06-26T09:27:48Z</time>
      </trkpt>
      <trkpt lat="48.58822" lon="6.42758">
        <ele>268</ele>
        <time>2017-06-26T09:27:49Z</time>
      </trkpt>
      <trkpt lat="48.58824" lon="6.42761">
        <ele>268</ele>
        <time>2017-06-26T09:27:50Z</time>
      </trkpt>
      <trkpt lat="48.58826" lon="6.42764">
        <ele>268</ele>
        <time>2017-06-26T09:27:51Z</time>
      </trkpt>
      <trkpt lat="48.58828" lon="6.42767">
        <ele>268</ele>
        <time>2017-06-26T09:27:52Z</time>
      </trkpt>
      <trkpt lat="48.58831" lon="6.4277">
        <ele>268</ele>
        <time>2017-06-26T09:27:53Z</time>
      </trkpt>
      <trkpt lat="48.58833" lon="6.42773">
        <ele>268</ele>
        <time>2017-06-26T09:27:54Z</time>
      </trkpt>
      <trkpt lat="48.58835" lon="6.42775">
        <ele>268</ele>
        <time>2017-06-26T09:27:55Z</time>
      </trkpt>
      <trkpt lat="48.58838" lon="6.42778">
        <ele>268</ele>
        <time>2017-06-26T09:27:56Z</time>
      </trkpt>
      <trkpt lat="48.58841" lon="6.42781">
        <ele>268</ele>
        <time>2017-06-26T09:27:57Z</time>
      </trkpt>
      <trkpt lat="48.58843" lon="6.42783">
        <ele>268</ele>
        <time>2017-06-26T09:27:58Z</time>
      </trkpt>
      <trkpt lat="48.58845" lon="6.42786">
        <ele>268</ele>
        <time>2017-06-26T09:27:59Z</time>
      </trkpt>
      <trkpt lat="48.58848" lon="6.42789">
        <ele>268</ele>
        <time>2017-06-26T09:28:00Z</time>
      </trkpt>
      <trkpt lat="48.5885" lon="6.42792">
        <ele>268</ele>
        <time>2017-06-26T09:28:01Z</time>
      </trkpt>
      <trkpt lat="48.58852" lon="6.42794">
        <ele>268</ele>
        <time>2017-06-26T09:28:02Z</time>
      </trkpt>
      <trkpt lat="48.58855" lon="6.42797">
        <ele>268</ele>
        <time>2017-06-26T09:28:03Z</time>
      </trkpt>
      <trkpt lat="48.58857" lon="6.42799">
        <ele>268</ele>
        <time>2017-06-26T09:28:04Z</time>
      </trkpt>
      <trkpt lat="48.58859" lon="6.42802">
        <ele>268</ele>
        <time>2017-06-26T09:28:05Z</time>
      </trkpt>
      <trkpt lat="48.58861" lon="6.42805">
        <ele>268</ele>
        <time>2017-06-26T09:28:06Z</time>
      </trkpt>
      <trkpt lat="48.58863" lon="6.42807">
        <ele>268</ele>
        <time>2017-06-26T09:28:07Z</time>
      </trkpt>
      <trkpt lat="48.58866" lon="6.4281">
        <ele>269</ele>
        <time>2017-06-26T09:28:08Z</time>
      </trkpt>
      <trkpt lat="48.58868" lon="6.42812">
        <ele>269</ele>
        <time>2017-06-26T09:28:09Z</time>
      </trkpt>
      <trkpt lat="48.58871" lon="6.42815">
        <ele>269</ele>
        <time>2017-06-26T09:28:10Z</time>
      </trkpt>
      <trkpt lat="48.58873" lon="6.42817">
        <ele>269</ele>
        <time>2017-06-26T09:28:11Z</time>
      </trkpt>
      <trkpt lat="48.58875" lon="6.4282">
        <ele>269</ele>
        <time>2017-06-26T09:28:12Z</time>
      </trkpt>
      <trkpt lat="48.58877" lon="6.42823">
        <ele>269</ele>
        <time>2017-06-26T09:28:13Z</time>
      </trkpt>
      <trkpt lat="48.58879" lon="6.42827">
        <ele>269</ele>
        <time>2017-06-26T09:28:14Z</time>
      </trkpt>
      <trkpt lat="48.58881" lon="6.4283">
        <ele>269</ele>
        <time>2017-06-26T09:28:15Z</time>
      </trkpt>
      <trkpt lat="48.58883" lon="6.42833">
        <ele>269</ele>
        <time>2017-06-26T09:28:16Z</time>
      </trkpt>
      <trkpt lat="48.58885" lon="6.42836">
        <ele>269</ele>
        <time>2017-06-26T09:28:17Z</time>
      </trkpt>
      <trkpt lat="48.58887" lon="6.42839">
        <ele>269</ele>
        <time>2017-06-26T09:28:18Z</time>
      </trkpt>
      <trkpt lat="48.58889" lon="6.42842">
        <ele>269</ele>
        <time>2017-06-26T09:28:19Z</time>
      </trkpt>
      <trkpt lat="48.58891" lon="6.42845">
        <ele>269</ele>
        <time>2017-06-26T09:28:20Z</time>
      </trkpt>
      <trkpt lat="48.58893" lon="6.42848">
        <ele>269</ele>
        <time>2017-06-26T09:28:21Z</time>
      </trkpt>
      <trkpt lat="48.58894" lon="6.42851">
        <ele>269</ele>
        <time>2017-06-26T09:28:22Z</time>
      </trkpt>
      <trkpt lat="48.58896" lon="6.42854">
        <ele>270</ele>
        <time>2017-06-26T09:28:23Z</time>
      </trkpt>
      <trkpt lat="48.58897" lon="6.42858">
        <ele>270</ele>
        <time>2017-06-26T09:28:24Z</time>
      </trkpt>
      <trkpt lat="48.58899" lon="6.42861">
        <ele>270</ele>
        <time>2017-06-26T09:28:25Z</time>
      </trkpt>
      <trkpt lat="48.589" lon="6.42864">
        <ele>270</ele>
        <time>2017-06-26T09:28:26Z</time>
      </trkpt>
      <trkpt lat="48.58901" lon="6.42868">
        <ele>270</ele>
        <time>2017-06-26T09:28:27Z</time>
      </trkpt>
      <trkpt lat="48.58902" lon="6.42871">
        <ele>270</ele>
        <time>2017-06-26T09:28:28Z</time>
      </trkpt>
      <trkpt lat="48.58903" lon="6.42874">
        <ele>270</ele>
        <time>2017-06-26T09:28:29Z</time>
      </trkpt>
      <trkpt lat="48.58904" lon="6.42877">
        <ele>270</ele>
        <time>2017-06-26T09:28:30Z</time>
      </trkpt>
      <trkpt lat="48.58905" lon="6.42881">
        <ele>270</ele>
        <time>2017-06-26T09:28:32Z</time>
      </trkpt>
      <trkpt lat="48.58906" lon="6.42886">
        <ele>270</ele>
        <time>2017-06-26T09:28:34Z</time>
      </trkpt>
      <trkpt lat="48.58907" lon="6.4289">
        <ele>270</ele>
        <time>2017-06-26T09:28:36Z</time>
      </trkpt>
      <trkpt lat="48.58908" lon="6.42894">
        <ele>270</ele>
        <time>2017-06-26T09:28:38Z</time>
      </trkpt>
      <trkpt lat="48.58908" lon="6.42897">
        <ele>271</ele>
        <time>2017-06-26T09:29:04Z</time>
      </trkpt>
      <trkpt lat="48.58907" lon="6.429">
        <ele>271</ele>
        <time>2017-06-26T09:29:12Z</time>
      </trkpt>
      <trkpt lat="48.58906" lon="6.42898">
        <ele>271</ele>
        <time>2017-06-26T09:29:21Z</time>
      </trkpt>
      <trkpt lat="48.58905" lon="6.42901">
        <ele>271</ele>
        <time>2017-06-26T09:29:27Z</time>
      </trkpt>
      <trkpt lat="48.58904" lon="6.42904">
        <ele>271</ele>
        <time>2017-06-26T09:29:28Z</time>
      </trkpt>
      <trkpt lat="48.58904" lon="6.42908">
        <ele>271</ele>
        <time>2017-06-26T09:29:29Z</time>
      </trkpt>
      <trkpt lat="48.58903" lon="6.42912">
        <ele>271</ele>
        <time>2017-06-26T09:29:30Z</time>
      </trkpt>
      <trkpt lat="48.58902" lon="6.42916">
        <ele>271</ele>
        <time>2017-06-26T09:29:31Z</time>
      </trkpt>
      <trkpt lat="48.58902" lon="6.42921">
        <ele>271</ele>
        <time>2017-06-26T09:29:32Z</time>
      </trkpt>
      <trkpt lat="48.58901" lon="6.42926">
        <ele>271</ele>
        <time>2017-06-26T09:29:33Z</time>
      </trkpt>
      <trkpt lat="48.58901" lon="6.42931">
        <ele>271</ele>
        <time>2017-06-26T09:29:34Z</time>
      </trkpt>
      <trkpt lat="48.58901" lon="6.42935">
        <ele>272</ele>
        <time>2017-06-26T09:29:35Z</time>
      </trkpt>
      <trkpt lat="48.589" lon="6.42939">
        <ele>272</ele>
        <time>2017-06-26T09:29:36Z</time>
      </trkpt>
      <trkpt lat="48.58899" lon="6.42944">
        <ele>272</ele>
        <time>2017-06-26T09:29:37Z</time>
      </trkpt>
      <trkpt lat="48.58899" lon="6.42949">
        <ele>272</ele>
        <time>2017-06-26T09:29:38Z</time>
      </trkpt>
      <trkpt lat="48.58897" lon="6.42954">
        <ele>272</ele>
        <time>2017-06-26T09:29:39Z</time>
      </trkpt>
      <trkpt lat="48.58896" lon="6.42958">
        <ele>272</ele>
        <time>2017-06-26T09:29:40Z</time>
      </trkpt>
      <trkpt lat="48.58895" lon="6.42963">
        <ele>272</ele>
        <time>2017-06-26T09:29:41Z</time>
      </trkpt>
      <trkpt lat="48.58894" lon="6.42967">
        <ele>272</ele>
        <time>2017-06-26T09:29:42Z</time>
      </trkpt>
      <trkpt lat="48.58893" lon="6.42972">
        <ele>272</ele>
        <time>2017-06-26T09:29:43Z</time>
      </trkpt>
      <trkpt lat="48.58892" lon="6.42976">
        <ele>272</ele>
        <time>2017-06-26T09:29:44Z</time>
      </trkpt>
      <trkpt lat="48.58891" lon="6.4298">
        <ele>272</ele>
        <time>2017-06-26T09:29:45Z</time>
      </trkpt>
      <trkpt lat="48.5889" lon="6.42984">
        <ele>272</ele>
        <time>2017-06-26T09:29:46Z</time>
      </trkpt>
      <trkpt lat="48.58889" lon="6.42989">
        <ele>272</ele>
        <time>2017-06-26T09:29:47Z</time>
      </trkpt>
      <trkpt lat="48.58888" lon="6.42993">
        <ele>272</ele>
        <time>2017-06-26T09:29:48Z</time>
      </trkpt>
      <trkpt lat="48.58887" lon="6.42996">
        <ele>272</ele>
        <time>2017-06-26T09:29:49Z</time>
      </trkpt>
      <trkpt lat="48.58886" lon="6.43001">
        <ele>271</ele>
        <time>2017-06-26T09:29:50Z</time>
      </trkpt>
      <trkpt lat="48.58885" lon="6.43005">
        <ele>272</ele>
        <time>2017-06-26T09:29:51Z</time>
      </trkpt>
      <trkpt lat="48.58884" lon="6.4301">
        <ele>271</ele>
        <time>2017-06-26T09:29:52Z</time>
      </trkpt>
      <trkpt lat="48.58883" lon="6.43014">
        <ele>271</ele>
        <time>2017-06-26T09:29:53Z</time>
      </trkpt>
      <trkpt lat="48.58881" lon="6.43018">
        <ele>271</ele>
        <time>2017-06-26T09:29:54Z</time>
      </trkpt>
      <trkpt lat="48.5888" lon="6.43021">
        <ele>271</ele>
        <time>2017-06-26T09:29:55Z</time>
      </trkpt>
      <trkpt lat="48.58879" lon="6.43025">
        <ele>271</ele>
        <time>2017-06-26T09:29:56Z</time>
      </trkpt>
      <trkpt lat="48.58879" lon="6.4303">
        <ele>271</ele>
        <time>2017-06-26T09:29:57Z</time>
      </trkpt>
      <trkpt lat="48.58878" lon="6.43034">
        <ele>271</ele>
        <time>2017-06-26T09:29:58Z</time>
      </trkpt>
      <trkpt lat="48.58877" lon="6.43038">
        <ele>271</ele>
        <time>2017-06-26T09:29:59Z</time>
      </trkpt>
      <trkpt lat="48.58876" lon="6.43042">
        <ele>271</ele>
        <time>2017-06-26T09:30:00Z</time>
      </trkpt>
      <trkpt lat="48.58875" lon="6.43046">
        <ele>271</ele>
        <time>2017-06-26T09:30:01Z</time>
      </trkpt>
      <trkpt lat="48.58874" lon="6.4305">
        <ele>271</ele>
        <time>2017-06-26T09:30:02Z</time>
      </trkpt>
      <trkpt lat="48.58873" lon="6.43053">
        <ele>271</ele>
        <time>2017-06-26T09:30:03Z</time>
      </trkpt>
      <trkpt lat="48.58873" lon="6.43057">
        <ele>271</ele>
        <time>2017-06-26T09:30:04Z</time>
      </trkpt>
      <trkpt lat="48.58872" lon="6.4306">
        <ele>271</ele>
        <time>2017-06-26T09:30:05Z</time>
      </trkpt>
      <trkpt lat="48.58871" lon="6.43064">
        <ele>271</ele>
        <time>2017-06-26T09:30:06Z</time>
      </trkpt>
      <trkpt lat="48.5887" lon="6.43068">
        <ele>271</ele>
        <time>2017-06-26T09:30:07Z</time>
      </trkpt>
      <trkpt lat="48.58869" lon="6.43073">
        <ele>271</ele>
        <time>2017-06-26T09:30:08Z</time>
      </trkpt>
      <trkpt lat="48.58868" lon="6.43077">
        <ele>271</ele>
        <time>2017-06-26T09:30:09Z</time>
      </trkpt>
      <trkpt lat="48.58866" lon="6.43081">
        <ele>271</ele>
        <time>2017-06-26T09:30:10Z</time>
      </trkpt>
      <trkpt lat="48.58865" lon="6.43085">
        <ele>271</ele>
        <time>2017-06-26T09:30:11Z</time>
      </trkpt>
      <trkpt lat="48.58863" lon="6.4309">
        <ele>270</ele>
        <time>2017-06-26T09:30:12Z</time>
      </trkpt>
      <trkpt lat="48.58861" lon="6.43094">
        <ele>270</ele>
        <time>2017-06-26T09:30:13Z</time>
      </trkpt>
      <trkpt lat="48.5886" lon="6.43098">
        <ele>270</ele>
        <time>2017-06-26T09:30:14Z</time>
      </trkpt>
      <trkpt lat="48.58858" lon="6.43102">
        <ele>270</ele>
        <time>2017-06-26T09:30:15Z</time>
      </trkpt>
      <trkpt lat="48.58857" lon="6.43106">
        <ele>270</ele>
        <time>2017-06-26T09:30:16Z</time>
      </trkpt>
      <trkpt lat="48.58856" lon="6.4311">
        <ele>270</ele>
        <time>2017-06-26T09:30:17Z</time>
      </trkpt>
      <trkpt lat="48.58855" lon="6.43114">
        <ele>270</ele>
        <time>2017-06-26T09:30:18Z</time>
      </trkpt>
      <trkpt lat="48.58854" lon="6.43117">
        <ele>270</ele>
        <time>2017-06-26T09:30:19Z</time>
      </trkpt>
      <trkpt lat="48.58853" lon="6.43121">
        <ele>270</ele>
        <time>2017-06-26T09:30:20Z</time>
      </trkpt>
      <trkpt lat="48.58851" lon="6.43124">
        <ele>270</ele>
        <time>2017-06-26T09:30:21Z</time>
      </trkpt>
      <trkpt lat="48.5885" lon="6.43127">
        <ele>269</ele>
        <time>2017-06-26T09:30:22Z</time>
      </trkpt>
      <trkpt lat="48.58848" lon="6.43131">
        <ele>269</ele>
        <time>2017-06-26T09:30:23Z</time>
      </trkpt>
      <trkpt lat="48.58847" lon="6.43135">
        <ele>269</ele>
        <time>2017-06-26T09:30:24Z</time>
      </trkpt>
      <trkpt lat="48.58846" lon="6.43138">
        <ele>269</ele>
        <time>2017-06-26T09:30:25Z</time>
      </trkpt>
      <trkpt lat="48.58844" lon="6.43142">
        <ele>269</ele>
        <time>2017-06-26T09:30:26Z</time>
      </trkpt>
      <trkpt lat="48.58843" lon="6.43146">
        <ele>268</ele>
        <time>2017-06-26T09:30:27Z</time>
      </trkpt>
      <trkpt lat="48.58841" lon="6.4315">
        <ele>268</ele>
        <time>2017-06-26T09:30:28Z</time>
      </trkpt>
      <trkpt lat="48.5884" lon="6.43154">
        <ele>268</ele>
        <time>2017-06-26T09:30:29Z</time>
      </trkpt>
      <trkpt lat="48.58838" lon="6.43158">
        <ele>268</ele>
        <time>2017-06-26T09:30:30Z</time>
      </trkpt>
      <trkpt lat="48.58836" lon="6.43162">
        <ele>268</ele>
        <time>2017-06-26T09:30:31Z</time>
      </trkpt>
      <trkpt lat="48.58835" lon="6.43165">
        <ele>268</ele>
        <time>2017-06-26T09:30:32Z</time>
      </trkpt>
      <trkpt lat="48.58833" lon="6.4317">
        <ele>268</ele>
        <time>2017-06-26T09:30:33Z</time>
      </trkpt>
      <trkpt lat="48.58832" lon="6.43174">
        <ele>268</ele>
        <time>2017-06-26T09:30:34Z</time>
      </trkpt>
      <trkpt lat="48.5883" lon="6.43178">
        <ele>267</ele>
        <time>2017-06-26T09:30:35Z</time>
      </trkpt>
      <trkpt lat="48.58829" lon="6.43182">
        <ele>267</ele>
        <time>2017-06-26T09:30:36Z</time>
      </trkpt>
      <trkpt lat="48.58828" lon="6.43185">
        <ele>267</ele>
        <time>2017-06-26T09:30:37Z</time>
      </trkpt>
      <trkpt lat="48.58826" lon="6.43189">
        <ele>267</ele>
        <time>2017-06-26T09:30:38Z</time>
      </trkpt>
      <trkpt lat="48.58824" lon="6.43193">
        <ele>267</ele>
        <time>2017-06-26T09:30:39Z</time>
      </trkpt>
      <trkpt lat="48.58822" lon="6.43197">
        <ele>266</ele>
        <time>2017-06-26T09:30:40Z</time>
      </trkpt>
      <trkpt lat="48.58819" lon="6.43201">
        <ele>266</ele>
        <time>2017-06-26T09:30:41Z</time>
      </trkpt>
      <trkpt lat="48.58818" lon="6.43204">
        <ele>266</ele>
        <time>2017-06-26T09:30:42Z</time>
      </trkpt>
      <trkpt lat="48.58818" lon="6.43208">
        <ele>266</ele>
        <time>2017-06-26T09:30:43Z</time>
      </trkpt>
      <trkpt lat="48.58817" lon="6.43212">
        <ele>266</ele>
        <time>2017-06-26T09:30:44Z</time>
      </trkpt>
      <trkpt lat="48.58816" lon="6.43216">
        <ele>266</ele>
        <time>2017-06-26T09:30:45Z</time>
      </trkpt>
      <trkpt lat="48.58815" lon="6.43219">
        <ele>265</ele>
        <time>2017-06-26T09:30:46Z</time>
      </trkpt>
      <trkpt lat="48.58814" lon="6.43222">
        <ele>265</ele>
        <time>2017-06-26T09:30:47Z</time>
      </trkpt>
      <trkpt lat="48.58812" lon="6.43226">
        <ele>265</ele>
        <time>2017-06-26T09:30:48Z</time>
      </trkpt>
      <trkpt lat="48.58811" lon="6.4323">
        <ele>265</ele>
        <time>2017-06-26T09:30:49Z</time>
      </trkpt>
      <trkpt lat="48.5881" lon="6.43234">
        <ele>265</ele>
        <time>2017-06-26T09:30:50Z</time>
      </trkpt>
      <trkpt lat="48.5881" lon="6.43237">
        <ele>265</ele>
        <time>2017-06-26T09:30:51Z</time>
      </trkpt>
      <trkpt lat="48.58808" lon="6.43242">
        <ele>265</ele>
        <time>2017-06-26T09:30:52Z</time>
      </trkpt>
      <trkpt lat="48.58807" lon="6.43246">
        <ele>265</ele>
        <time>2017-06-26T09:30:53Z</time>
      </trkpt>
      <trkpt lat="48.58805" lon="6.4325">
        <ele>265</ele>
        <time>2017-06-26T09:30:54Z</time>
      </trkpt>
      <trkpt lat="48.58804" lon="6.43254">
        <ele>265</ele>
        <time>2017-06-26T09:30:55Z</time>
      </trkpt>
      <trkpt lat="48.58803" lon="6.43258">
        <ele>264</ele>
        <time>2017-06-26T09:30:56Z</time>
      </trkpt>
      <trkpt lat="48.58802" lon="6.43262">
        <ele>264</ele>
        <time>2017-06-26T09:30:57Z</time>
      </trkpt>
      <trkpt lat="48.58801" lon="6.43267">
        <ele>264</ele>
        <time>2017-06-26T09:30:58Z</time>
      </trkpt>
      <trkpt lat="48.588" lon="6.43271">
        <ele>264</ele>
        <time>2017-06-26T09:30:59Z</time>
      </trkpt>
      <trkpt lat="48.588" lon="6.43275">
        <ele>264</ele>
        <time>2017-06-26T09:31:00Z</time>
      </trkpt>
      <trkpt lat="48.58799" lon="6.43279">
        <ele>264</ele>
        <time>2017-06-26T09:31:01Z</time>
      </trkpt>
      <trkpt lat="48.58798" lon="6.43283">
        <ele>264</ele>
        <time>2017-06-26T09:31:02Z</time>
      </trkpt>
      <trkpt lat="48.58797" lon="6.43286">
        <ele>264</ele>
        <time>2017-06-26T09:31:03Z</time>
      </trkpt>
      <trkpt lat="48.58796" lon="6.4329">
        <ele>263</ele>
        <time>2017-06-26T09:31:04Z</time>
      </trkpt>
      <trkpt lat="48.58794" lon="6.43294">
        <ele>263</ele>
        <time>2017-06-26T09:31:05Z</time>
      </trkpt>
      <trkpt lat="48.58794" lon="6.43298">
        <ele>263</ele>
        <time>2017-06-26T09:31:06Z</time>
      </trkpt>
      <trkpt lat="48.58793" lon="6.43303">
        <ele>263</ele>
        <time>2017-06-26T09:31:07Z</time>
      </trkpt>
      <trkpt lat="48.58792" lon="6.43306">
        <ele>263</ele>
        <time>2017-06-26T09:31:08Z</time>
      </trkpt>
      <trkpt lat="48.58791" lon="6.4331">
        <ele>263</ele>
        <time>2017-06-26T09:31:09Z</time>
      </trkpt>
      <trkpt lat="48.5879" lon="6.43314">
        <ele>263</ele>
        <time>2017-06-26T09:31:10Z</time>
      </trkpt>
      <trkpt lat="48.58789" lon="6.43318">
        <ele>263</ele>
        <time>2017-06-26T09:31:11Z</time>
      </trkpt>
      <trkpt lat="48.58788" lon="6.43322">
        <ele>263</ele>
        <time>2017-06-26T09:31:12Z</time>
      </trkpt>
      <trkpt lat="48.58787" lon="6.43325">
        <ele>263</ele>
        <time>2017-06-26T09:31:13Z</time>
      </trkpt>
      <trkpt lat="48.58785" lon="6.43329">
        <ele>262</ele>
        <time>2017-06-26T09:31:14Z</time>
      </trkpt>
      <trkpt lat="48.58784" lon="6.43332">
        <ele>262</ele>
        <time>2017-06-26T09:31:15Z</time>
      </trkpt>
      <trkpt lat="48.58783" lon="6.43336">
        <ele>262</ele>
        <time>2017-06-26T09:31:16Z</time>
      </trkpt>
      <trkpt lat="48.58782" lon="6.4334">
        <ele>263</ele>
        <time>2017-06-26T09:31:17Z</time>
      </trkpt>
      <trkpt lat="48.58781" lon="6.43344">
        <ele>263</ele>
        <time>2017-06-26T09:31:18Z</time>
      </trkpt>
      <trkpt lat="48.5878" lon="6.43349">
        <ele>262</ele>
        <time>2017-06-26T09:31:19Z</time>
      </trkpt>
      <trkpt lat="48.58779" lon="6.43353">
        <ele>262</ele>
        <time>2017-06-26T09:31:20Z</time>
      </trkpt>
      <trkpt lat="48.58778" lon="6.43357">
        <ele>262</ele>
        <time>2017-06-26T09:31:21Z</time>
      </trkpt>
      <trkpt lat="48.58777" lon="6.43361">
        <ele>262</ele>
        <time>2017-06-26T09:31:22Z</time>
      </trkpt>
      <trkpt lat="48.58776" lon="6.43365">
        <ele>262</ele>
        <time>2017-06-26T09:31:23Z</time>
      </trkpt>
      <trkpt lat="48.58775" lon="6.43369">
        <ele>262</ele>
        <time>2017-06-26T09:31:24Z</time>
      </trkpt>
      <trkpt lat="48.58774" lon="6.43372">
        <ele>262</ele>
        <time>2017-06-26T09:31:25Z</time>
      </trkpt>
      <trkpt lat="48.58773" lon="6.43375">
        <ele>262</ele>
        <time>2017-06-26T09:31:26Z</time>
      </trkpt>
      <trkpt lat="48.58772" lon="6.43379">
        <ele>262</ele>
        <time>2017-06-26T09:31:27Z</time>
      </trkpt>
      <trkpt lat="48.58771" lon="6.43383">
        <ele>261</ele>
        <time>2017-06-26T09:31:28Z</time>
      </trkpt>
      <trkpt lat="48.58769" lon="6.43386">
        <ele>261</ele>
        <time>2017-06-26T09:31:29Z</time>
      </trkpt>
      <trkpt lat="48.58767" lon="6.43388">
        <ele>261</ele>
        <time>2017-06-26T09:31:30Z</time>
      </trkpt>
      <trkpt lat="48.58766" lon="6.43391">
        <ele>261</ele>
        <time>2017-06-26T09:31:31Z</time>
      </trkpt>
      <trkpt lat="48.58765" lon="6.43394">
        <ele>261</ele>
        <time>2017-06-26T09:31:32Z</time>
      </trkpt>
      <trkpt lat="48.58765" lon="6.43398">
        <ele>261</ele>
        <time>2017-06-26T09:31:33Z</time>
      </trkpt>
      <trkpt lat="48.58764" lon="6.43402">
        <ele>261</ele>
        <time>2017-06-26T09:31:34Z</time>
      </trkpt>
      <trkpt lat="48.58764" lon="6.43406">
        <ele>261</ele>
        <time>2017-06-26T09:31:35Z</time>
      </trkpt>
      <trkpt lat="48.58763" lon="6.4341">
        <ele>260</ele>
        <time>2017-06-26T09:31:36Z</time>
      </trkpt>
      <trkpt lat="48.58763" lon="6.43414">
        <ele>260</ele>
        <time>2017-06-26T09:31:37Z</time>
      </trkpt>
      <trkpt lat="48.58762" lon="6.43419">
        <ele>260</ele>
        <time>2017-06-26T09:31:38Z</time>
      </trkpt>
      <trkpt lat="48.58761" lon="6.43423">
        <ele>260</ele>
        <time>2017-06-26T09:31:39Z</time>
      </trkpt>
      <trkpt lat="48.5876" lon="6.43427">
        <ele>259</ele>
        <time>2017-06-26T09:31:40Z</time>
      </trkpt>
      <trkpt lat="48.58759" lon="6.43432">
        <ele>259</ele>
        <time>2017-06-26T09:31:41Z</time>
      </trkpt>
      <trkpt lat="48.58758" lon="6.43436">
        <ele>260</ele>
        <time>2017-06-26T09:31:42Z</time>
      </trkpt>
      <trkpt lat="48.58756" lon="6.4344">
        <ele>260</ele>
        <time>2017-06-26T09:31:43Z</time>
      </trkpt>
      <trkpt lat="48.58755" lon="6.43445">
        <ele>260</ele>
        <time>2017-06-26T09:31:44Z</time>
      </trkpt>
      <trkpt lat="48.58755" lon="6.4345">
        <ele>260</ele>
        <time>2017-06-26T09:31:45Z</time>
      </trkpt>
      <trkpt lat="48.58754" lon="6.43454">
        <ele>260</ele>
        <time>2017-06-26T09:31:46Z</time>
      </trkpt>
      <trkpt lat="48.58752" lon="6.43458">
        <ele>260</ele>
        <time>2017-06-26T09:31:47Z</time>
      </trkpt>
      <trkpt lat="48.58751" lon="6.43463">
        <ele>260</ele>
        <time>2017-06-26T09:31:48Z</time>
      </trkpt>
      <trkpt lat="48.58749" lon="6.43467">
        <ele>260</ele>
        <time>2017-06-26T09:31:49Z</time>
      </trkpt>
      <trkpt lat="48.58748" lon="6.43471">
        <ele>260</ele>
        <time>2017-06-26T09:31:50Z</time>
      </trkpt>
      <trkpt lat="48.58746" lon="6.43474">
        <ele>260</ele>
        <time>2017-06-26T09:31:51Z</time>
      </trkpt>
      <trkpt lat="48.58745" lon="6.43478">
        <ele>260</ele>
        <time>2017-06-26T09:31:52Z</time>
      </trkpt>
      <trkpt lat="48.58744" lon="6.43482">
        <ele>260</ele>
        <time>2017-06-26T09:31:53Z</time>
      </trkpt>
      <trkpt lat="48.58742" lon="6.43486">
        <ele>260</ele>
        <time>2017-06-26T09:31:54Z</time>
      </trkpt>
      <trkpt lat="48.58741" lon="6.4349">
        <ele>259</ele>
        <time>2017-06-26T09:31:55Z</time>
      </trkpt>
      <trkpt lat="48.58739" lon="6.43494">
        <ele>259</ele>
        <time>2017-06-26T09:31:56Z</time>
      </trkpt>
      <trkpt lat="48.58738" lon="6.43498">
        <ele>259</ele>
        <time>2017-06-26T09:31:57Z</time>
      </trkpt>
      <trkpt lat="48.58737" lon="6.43502">
        <ele>259</ele>
        <time>2017-06-26T09:31:58Z</time>
      </trkpt>
      <trkpt lat="48.58737" lon="6.43506">
        <ele>259</ele>
        <time>2017-06-26T09:31:59Z</time>
      </trkpt>
      <trkpt lat="48.58736" lon="6.43511">
        <ele>259</ele>
        <time>2017-06-26T09:32:00Z</time>
      </trkpt>
      <trkpt lat="48.58735" lon="6.43515">
        <ele>259</ele>
        <time>2017-06-26T09:32:01Z</time>
      </trkpt>
      <trkpt lat="48.58734" lon="6.4352">
        <ele>260</ele>
        <time>2017-06-26T09:32:02Z</time>
      </trkpt>
      <trkpt lat="48.58733" lon="6.43524">
        <ele>260</ele>
        <time>2017-06-26T09:32:03Z</time>
      </trkpt>
      <trkpt lat="48.58732" lon="6.43528">
        <ele>260</ele>
        <time>2017-06-26T09:32:04Z</time>
      </trkpt>
      <trkpt lat="48.58732" lon="6.43532">
        <ele>260</ele>
        <time>2017-06-26T09:32:05Z</time>
      </trkpt>
      <trkpt lat="48.5873" lon="6.43535">
        <ele>260</ele>
        <time>2017-06-26T09:32:06Z</time>
      </trkpt>
      <trkpt lat="48.58728" lon="6.4354">
        <ele>260</ele>
        <time>2017-06-26T09:32:07Z</time>
      </trkpt>
      <trkpt lat="48.58727" lon="6.43544">
        <ele>260</ele>
        <time>2017-06-26T09:32:08Z</time>
      </trkpt>
      <trkpt lat="48.58726" lon="6.43548">
        <ele>260</ele>
        <time>2017-06-26T09:32:09Z</time>
      </trkpt>
      <trkpt lat="48.58725" lon="6.43552">
        <ele>260</ele>
        <time>2017-06-26T09:32:10Z</time>
      </trkpt>
      <trkpt lat="48.58724" lon="6.43555">
        <ele>260</ele>
        <time>2017-06-26T09:32:11Z</time>
      </trkpt>
      <trkpt lat="48.58723" lon="6.43559">
        <ele>260</ele>
        <time>2017-06-26T09:32:12Z</time>
      </trkpt>
      <trkpt lat="48.58721" lon="6.43562">
        <ele>259</ele>
        <time>2017-06-26T09:32:13Z</time>
      </trkpt>
      <trkpt lat="48.58721" lon="6.43566">
        <ele>259</ele>
        <time>2017-06-26T09:32:14Z</time>
      </trkpt>
      <trkpt lat="48.5872" lon="6.4357">
        <ele>259</ele>
        <time>2017-06-26T09:32:15Z</time>
      </trkpt>
      <trkpt lat="48.58719" lon="6.43574">
        <ele>259</ele>
        <time>2017-06-26T09:32:16Z</time>
      </trkpt>
      <trkpt lat="48.58718" lon="6.43578">
        <ele>259</ele>
        <time>2017-06-26T09:32:17Z</time>
      </trkpt>
      <trkpt lat="48.58717" lon="6.43582">
        <ele>258</ele>
        <time>2017-06-26T09:32:18Z</time>
      </trkpt>
      <trkpt lat="48.58716" lon="6.43587">
        <ele>258</ele>
        <time>2017-06-26T09:32:19Z</time>
      </trkpt>
      <trkpt lat="48.58715" lon="6.43591">
        <ele>258</ele>
        <time>2017-06-26T09:32:20Z</time>
      </trkpt>
      <trkpt lat="48.58713" lon="6.43595">
        <ele>258</ele>
        <time>2017-06-26T09:32:21Z</time>
      </trkpt>
      <trkpt lat="48.58712" lon="6.43599">
        <ele>258</ele>
        <time>2017-06-26T09:32:22Z</time>
      </trkpt>
      <trkpt lat="48.58711" lon="6.43603">
        <ele>258</ele>
        <time>2017-06-26T09:32:23Z</time>
      </trkpt>
      <trkpt lat="48.5871" lon="6.43608">
        <ele>259</ele>
        <time>2017-06-26T09:32:24Z</time>
      </trkpt>
      <trkpt lat="48.5871" lon="6.43612">
        <ele>259</ele>
        <time>2017-06-26T09:32:25Z</time>
      </trkpt>
      <trkpt lat="48.58709" lon="6.43616">
        <ele>259</ele>
        <time>2017-06-26T09:32:26Z</time>
      </trkpt>
      <trkpt lat="48.58708" lon="6.4362">
        <ele>259</ele>
        <time>2017-06-26T09:32:27Z</time>
      </trkpt>
      <trkpt lat="48.58707" lon="6.43624">
        <ele>259</ele>
        <time>2017-06-26T09:32:28Z</time>
      </trkpt>
      <trkpt lat="48.58706" lon="6.43628">
        <ele>259</ele>
        <time>2017-06-26T09:32:29Z</time>
      </trkpt>
      <trkpt lat="48.58705" lon="6.43632">
        <ele>259</ele>
        <time>2017-06-26T09:32:30Z</time>
      </trkpt>
      <trkpt lat="48.58704" lon="6.43636">
        <ele>258</ele>
        <time>2017-06-26T09:32:31Z</time>
      </trkpt>
      <trkpt lat="48.58703" lon="6.4364">
        <ele>258</ele>
        <time>2017-06-26T09:32:32Z</time>
      </trkpt>
      <trkpt lat="48.58702" lon="6.43645">
        <ele>258</ele>
        <time>2017-06-26T09:32:33Z</time>
      </trkpt>
      <trkpt lat="48.58701" lon="6.43649">
        <ele>258</ele>
        <time>2017-06-26T09:32:34Z</time>
      </trkpt>
      <trkpt lat="48.587" lon="6.43653">
        <ele>258</ele>
        <time>2017-06-26T09:32:35Z</time>
      </trkpt>
      <trkpt lat="48.58698" lon="6.43657">
        <ele>258</ele>
        <time>2017-06-26T09:32:36Z</time>
      </trkpt>
      <trkpt lat="48.58697" lon="6.43662">
        <ele>258</ele>
        <time>2017-06-26T09:32:37Z</time>
      </trkpt>
      <trkpt lat="48.58696" lon="6.43666">
        <ele>258</ele>
        <time>2017-06-26T09:32:38Z</time>
      </trkpt>
      <trkpt lat="48.58695" lon="6.4367">
        <ele>258</ele>
        <time>2017-06-26T09:32:39Z</time>
      </trkpt>
      <trkpt lat="48.58694" lon="6.43674">
        <ele>258</ele>
        <time>2017-06-26T09:32:40Z</time>
      </trkpt>
      <trkpt lat="48.58694" lon="6.43678">
        <ele>258</ele>
        <time>2017-06-26T09:32:41Z</time>
      </trkpt>
      <trkpt lat="48.58693" lon="6.43683">
        <ele>258</ele>
        <time>2017-06-26T09:32:42Z</time>
      </trkpt>
      <trkpt lat="48.58693" lon="6.43687">
        <ele>258</ele>
        <time>2017-06-26T09:32:43Z</time>
      </trkpt>
      <trkpt lat="48.58692" lon="6.43691">
        <ele>258</ele>
        <time>2017-06-26T09:32:44Z</time>
      </trkpt>
      <trkpt lat="48.58692" lon="6.43696">
        <ele>258</ele>
        <time>2017-06-26T09:32:45Z</time>
      </trkpt>
      <trkpt lat="48.58691" lon="6.437">
        <ele>258</ele>
        <time>2017-06-26T09:32:46Z</time>
      </trkpt>
      <trkpt lat="48.58691" lon="6.43705">
        <ele>258</ele>
        <time>2017-06-26T09:32:47Z</time>
      </trkpt>
      <trkpt lat="48.5869" lon="6.4371">
        <ele>258</ele>
        <time>2017-06-26T09:32:48Z</time>
      </trkpt>
      <trkpt lat="48.5869" lon="6.43714">
        <ele>258</ele>
        <time>2017-06-26T09:32:49Z</time>
      </trkpt>
      <trkpt lat="48.58689" lon="6.43719">
        <ele>258</ele>
        <time>2017-06-26T09:32:50Z</time>
      </trkpt>
      <trkpt lat="48.58688" lon="6.43723">
        <ele>258</ele>
        <time>2017-06-26T09:32:51Z</time>
      </trkpt>
      <trkpt lat="48.58687" lon="6.43728">
        <ele>258</ele>
        <time>2017-06-26T09:32:52Z</time>
      </trkpt>
      <trkpt lat="48.58687" lon="6.43732">
        <ele>258</ele>
        <time>2017-06-26T09:32:53Z</time>
      </trkpt>
      <trkpt lat="48.58686" lon="6.43735">
        <ele>258</ele>
        <time>2017-06-26T09:32:54Z</time>
      </trkpt>
      <trkpt lat="48.58685" lon="6.43739">
        <ele>258</ele>
        <time>2017-06-26T09:32:55Z</time>
      </trkpt>
      <trkpt lat="48.58685" lon="6.43743">
        <ele>258</ele>
        <time>2017-06-26T09:32:56Z</time>
      </trkpt>
      <trkpt lat="48.58684" lon="6.43747">
        <ele>258</ele>
        <time>2017-06-26T09:32:57Z</time>
      </trkpt>
      <trkpt lat="48.58684" lon="6.43751">
        <ele>258</ele>
        <time>2017-06-26T09:32:58Z</time>
      </trkpt>
      <trkpt lat="48.58683" lon="6.43756">
        <ele>258</ele>
        <time>2017-06-26T09:32:59Z</time>
      </trkpt>
      <trkpt lat="48.58682" lon="6.4376">
        <ele>258</ele>
        <time>2017-06-26T09:33:00Z</time>
      </trkpt>
      <trkpt lat="48.5868" lon="6.43763">
        <ele>258</ele>
        <time>2017-06-26T09:33:01Z</time>
      </trkpt>
      <trkpt lat="48.58679" lon="6.43767">
        <ele>258</ele>
        <time>2017-06-26T09:33:02Z</time>
      </trkpt>
      <trkpt lat="48.58677" lon="6.43771">
        <ele>258</ele>
        <time>2017-06-26T09:33:03Z</time>
      </trkpt>
      <trkpt lat="48.58676" lon="6.43775">
        <ele>258</ele>
        <time>2017-06-26T09:33:04Z</time>
      </trkpt>
      <trkpt lat="48.58675" lon="6.43778">
        <ele>258</ele>
        <time>2017-06-26T09:33:05Z</time>
      </trkpt>
      <trkpt lat="48.58674" lon="6.43782">
        <ele>258</ele>
        <time>2017-06-26T09:33:06Z</time>
      </trkpt>
      <trkpt lat="48.58673" lon="6.43785">
        <ele>258</ele>
        <time>2017-06-26T09:33:07Z</time>
      </trkpt>
      <trkpt lat="48.58671" lon="6.43789">
        <ele>257</ele>
        <time>2017-06-26T09:33:08Z</time>
      </trkpt>
      <trkpt lat="48.5867" lon="6.43792">
        <ele>257</ele>
        <time>2017-06-26T09:33:09Z</time>
      </trkpt>
      <trkpt lat="48.58668" lon="6.43796">
        <ele>257</ele>
        <time>2017-06-26T09:33:10Z</time>
      </trkpt>
      <trkpt lat="48.58667" lon="6.43799">
        <ele>257</ele>
        <time>2017-06-26T09:33:11Z</time>
      </trkpt>
      <trkpt lat="48.58666" lon="6.43802">
        <ele>257</ele>
        <time>2017-06-26T09:33:12Z</time>
      </trkpt>
      <trkpt lat="48.58665" lon="6.43806">
        <ele>256</ele>
        <time>2017-06-26T09:33:13Z</time>
      </trkpt>
      <trkpt lat="48.58664" lon="6.43809">
        <ele>256</ele>
        <time>2017-06-26T09:33:14Z</time>
      </trkpt>
      <trkpt lat="48.58663" lon="6.43813">
        <ele>256</ele>
        <time>2017-06-26T09:33:15Z</time>
      </trkpt>
      <trkpt lat="48.58662" lon="6.43816">
        <ele>256</ele>
        <time>2017-06-26T09:33:16Z</time>
      </trkpt>
      <trkpt lat="48.5866" lon="6.4382">
        <ele>256</ele>
        <time>2017-06-26T09:33:17Z</time>
      </trkpt>
      <trkpt lat="48.58659" lon="6.43823">
        <ele>255</ele>
        <time>2017-06-26T09:33:18Z</time>
      </trkpt>
      <trkpt lat="48.58658" lon="6.43827">
        <ele>255</ele>
        <time>2017-06-26T09:33:19Z</time>
      </trkpt>
      <trkpt lat="48.58657" lon="6.4383">
        <ele>255</ele>
        <time>2017-06-26T09:33:20Z</time>
      </trkpt>
      <trkpt lat="48.58656" lon="6.43834">
        <ele>254</ele>
        <time>2017-06-26T09:33:21Z</time>
      </trkpt>
      <trkpt lat="48.58654" lon="6.43838">
        <ele>254</ele>
        <time>2017-06-26T09:33:22Z</time>
      </trkpt>
      <trkpt lat="48.58652" lon="6.43841">
        <ele>253</ele>
        <time>2017-06-26T09:33:23Z</time>
      </trkpt>
      <trkpt lat="48.58651" lon="6.43845">
        <ele>253</ele>
        <time>2017-06-26T09:33:24Z</time>
      </trkpt>
      <trkpt lat="48.58649" lon="6.43848">
        <ele>253</ele>
        <time>2017-06-26T09:33:25Z</time>
      </trkpt>
      <trkpt lat="48.58648" lon="6.43852">
        <ele>253</ele>
        <time>2017-06-26T09:33:26Z</time>
      </trkpt>
      <trkpt lat="48.58646" lon="6.43857">
        <ele>252</ele>
        <time>2017-06-26T09:33:27Z</time>
      </trkpt>
      <trkpt lat="48.58644" lon="6.43861">
        <ele>252</ele>
        <time>2017-06-26T09:33:28Z</time>
      </trkpt>
      <trkpt lat="48.58643" lon="6.43866">
        <ele>252</ele>
        <time>2017-06-26T09:33:29Z</time>
      </trkpt>
      <trkpt lat="48.58641" lon="6.4387">
        <ele>252</ele>
        <time>2017-06-26T09:33:30Z</time>
      </trkpt>
      <trkpt lat="48.5864" lon="6.43874">
        <ele>252</ele>
        <time>2017-06-26T09:33:31Z</time>
      </trkpt>
      <trkpt lat="48.58639" lon="6.43878">
        <ele>252</ele>
        <time>2017-06-26T09:33:32Z</time>
      </trkpt>
      <trkpt lat="48.58638" lon="6.43882">
        <ele>251</ele>
        <time>2017-06-26T09:33:33Z</time>
      </trkpt>
      <trkpt lat="48.58637" lon="6.43886">
        <ele>251</ele>
        <time>2017-06-26T09:33:34Z</time>
      </trkpt>
      <trkpt lat="48.58636" lon="6.4389">
        <ele>251</ele>
        <time>2017-06-26T09:33:35Z</time>
      </trkpt>
      <trkpt lat="48.58635" lon="6.43895">
        <ele>251</ele>
        <time>2017-06-26T09:33:36Z</time>
      </trkpt>
      <trkpt lat="48.58634" lon="6.43899">
        <ele>251</ele>
        <time>2017-06-26T09:33:37Z</time>
      </trkpt>
      <trkpt lat="48.58633" lon="6.43903">
        <ele>250</ele>
        <time>2017-06-26T09:33:38Z</time>
      </trkpt>
      <trkpt lat="48.58631" lon="6.43907">
        <ele>250</ele>
        <time>2017-06-26T09:33:39Z</time>
      </trkpt>
      <trkpt lat="48.5863" lon="6.43911">
        <ele>250</ele>
        <time>2017-06-26T09:33:40Z</time>
      </trkpt>
      <trkpt lat="48.58629" lon="6.43915">
        <ele>250</ele>
        <time>2017-06-26T09:33:41Z</time>
      </trkpt>
      <trkpt lat="48.58627" lon="6.43918">
        <ele>250</ele>
        <time>2017-06-26T09:33:42Z</time>
      </trkpt>
      <trkpt lat="48.58626" lon="6.43922">
        <ele>250</ele>
        <time>2017-06-26T09:33:43Z</time>
      </trkpt>
      <trkpt lat="48.58625" lon="6.43926">
        <ele>250</ele>
        <time>2017-06-26T09:33:44Z</time>
      </trkpt>
      <trkpt lat="48.58624" lon="6.4393">
        <ele>250</ele>
        <time>2017-06-26T09:33:45Z</time>
      </trkpt>
      <trkpt lat="48.58623" lon="6.43934">
        <ele>250</ele>
        <time>2017-06-26T09:33:46Z</time>
      </trkpt>
      <trkpt lat="48.58622" lon="6.43938">
        <ele>250</ele>
        <time>2017-06-26T09:33:47Z</time>
      </trkpt>
      <trkpt lat="48.58622" lon="6.43941">
        <ele>250</ele>
        <time>2017-06-26T09:33:48Z</time>
      </trkpt>
      <trkpt lat="48.58622" lon="6.43945">
        <ele>250</ele>
        <time>2017-06-26T09:33:49Z</time>
      </trkpt>
      <trkpt lat="48.58621" lon="6.43949">
        <ele>250</ele>
        <time>2017-06-26T09:33:50Z</time>
      </trkpt>
      <trkpt lat="48.5862" lon="6.43953">
        <ele>250</ele>
        <time>2017-06-26T09:33:51Z</time>
      </trkpt>
      <trkpt lat="48.58619" lon="6.43958">
        <ele>250</ele>
        <time>2017-06-26T09:33:52Z</time>
      </trkpt>
      <trkpt lat="48.58618" lon="6.43962">
        <ele>250</ele>
        <time>2017-06-26T09:33:53Z</time>
      </trkpt>
      <trkpt lat="48.58617" lon="6.43966">
        <ele>250</ele>
        <time>2017-06-26T09:33:54Z</time>
      </trkpt>
      <trkpt lat="48.58617" lon="6.4397">
        <ele>250</ele>
        <time>2017-06-26T09:33:55Z</time>
      </trkpt>
      <trkpt lat="48.58616" lon="6.43974">
        <ele>250</ele>
        <time>2017-06-26T09:33:56Z</time>
      </trkpt>
      <trkpt lat="48.58615" lon="6.43978">
        <ele>250</ele>
        <time>2017-06-26T09:33:57Z</time>
      </trkpt>
      <trkpt lat="48.58614" lon="6.43982">
        <ele>250</ele>
        <time>2017-06-26T09:33:58Z</time>
      </trkpt>
      <trkpt lat="48.58614" lon="6.43986">
        <ele>249</ele>
        <time>2017-06-26T09:33:59Z</time>
      </trkpt>
      <trkpt lat="48.58613" lon="6.4399">
        <ele>250</ele>
        <time>2017-06-26T09:34:00Z</time>
      </trkpt>
      <trkpt lat="48.58612" lon="6.43994">
        <ele>250</ele>
        <time>2017-06-26T09:34:01Z</time>
      </trkpt>
      <trkpt lat="48.58612" lon="6.43998">
        <ele>249</ele>
        <time>2017-06-26T09:34:02Z</time>
      </trkpt>
      <trkpt lat="48.58611" lon="6.44002">
        <ele>249</ele>
        <time>2017-06-26T09:34:03Z</time>
      </trkpt>
      <trkpt lat="48.58611" lon="6.44007">
        <ele>249</ele>
        <time>2017-06-26T09:34:04Z</time>
      </trkpt>
      <trkpt lat="48.58611" lon="6.44011">
        <ele>249</ele>
        <time>2017-06-26T09:34:05Z</time>
      </trkpt>
      <trkpt lat="48.58611" lon="6.44015">
        <ele>249</ele>
        <time>2017-06-26T09:34:06Z</time>
      </trkpt>
      <trkpt lat="48.58611" lon="6.44019">
        <ele>249</ele>
        <time>2017-06-26T09:34:07Z</time>
      </trkpt>
      <trkpt lat="48.58612" lon="6.44023">
        <ele>249</ele>
        <time>2017-06-26T09:34:08Z</time>
      </trkpt>
      <trkpt lat="48.58613" lon="6.44028">
        <ele>249</ele>
        <time>2017-06-26T09:34:09Z</time>
      </trkpt>
      <trkpt lat="48.58614" lon="6.44032">
        <ele>249</ele>
        <time>2017-06-26T09:34:10Z</time>
      </trkpt>
      <trkpt lat="48.58615" lon="6.44035">
        <ele>249</ele>
        <time>2017-06-26T09:34:11Z</time>
      </trkpt>
      <trkpt lat="48.58617" lon="6.44038">
        <ele>249</ele>
        <time>2017-06-26T09:34:12Z</time>
      </trkpt>
      <trkpt lat="48.58618" lon="6.44042">
        <ele>249</ele>
        <time>2017-06-26T09:34:13Z</time>
      </trkpt>
      <trkpt lat="48.5862" lon="6.44045">
        <ele>249</ele>
        <time>2017-06-26T09:34:14Z</time>
      </trkpt>
      <trkpt lat="48.58622" lon="6.44048">
        <ele>249</ele>
        <time>2017-06-26T09:34:15Z</time>
      </trkpt>
      <trkpt lat="48.58625" lon="6.44052">
        <ele>249</ele>
        <time>2017-06-26T09:34:16Z</time>
      </trkpt>
      <trkpt lat="48.58627" lon="6.44056">
        <ele>249</ele>
        <time>2017-06-26T09:34:17Z</time>
      </trkpt>
      <trkpt lat="48.5863" lon="6.44058">
        <ele>249</ele>
        <time>2017-06-26T09:34:18Z</time>
      </trkpt>
      <trkpt lat="48.58632" lon="6.44061">
        <ele>249</ele>
        <time>2017-06-26T09:34:19Z</time>
      </trkpt>
      <trkpt lat="48.58634" lon="6.44064">
        <ele>249</ele>
        <time>2017-06-26T09:34:20Z</time>
      </trkpt>
      <trkpt lat="48.58636" lon="6.44066">
        <ele>249</ele>
        <time>2017-06-26T09:34:21Z</time>
      </trkpt>
      <trkpt lat="48.58638" lon="6.44069">
        <ele>249</ele>
        <time>2017-06-26T09:34:22Z</time>
      </trkpt>
      <trkpt lat="48.5864" lon="6.44071">
        <ele>249</ele>
        <time>2017-06-26T09:34:23Z</time>
      </trkpt>
      <trkpt lat="48.58642" lon="6.44074">
        <ele>248</ele>
        <time>2017-06-26T09:34:24Z</time>
      </trkpt>
      <trkpt lat="48.58645" lon="6.44076">
        <ele>248</ele>
        <time>2017-06-26T09:34:25Z</time>
      </trkpt>
      <trkpt lat="48.58647" lon="6.4408">
        <ele>248</ele>
        <time>2017-06-26T09:34:26Z</time>
      </trkpt>
      <trkpt lat="48.58648" lon="6.44084">
        <ele>248</ele>
        <time>2017-06-26T09:34:27Z</time>
      </trkpt>
      <trkpt lat="48.58648" lon="6.44088">
        <ele>248</ele>
        <time>2017-06-26T09:34:28Z</time>
      </trkpt>
      <trkpt lat="48.58648" lon="6.44093">
        <ele>248</ele>
        <time>2017-06-26T09:34:29Z</time>
      </trkpt>
      <trkpt lat="48.58647" lon="6.44097">
        <ele>248</ele>
        <time>2017-06-26T09:34:30Z</time>
      </trkpt>
      <trkpt lat="48.58647" lon="6.44101">
        <ele>248</ele>
        <time>2017-06-26T09:34:31Z</time>
      </trkpt>
      <trkpt lat="48.58646" lon="6.44105">
        <ele>248</ele>
        <time>2017-06-26T09:34:32Z</time>
      </trkpt>
      <trkpt lat="48.58646" lon="6.44109">
        <ele>248</ele>
        <time>2017-06-26T09:34:33Z</time>
      </trkpt>
      <trkpt lat="48.58645" lon="6.44114">
        <ele>248</ele>
        <time>2017-06-26T09:34:34Z</time>
      </trkpt>
      <trkpt lat="48.58644" lon="6.44117">
        <ele>248</ele>
        <time>2017-06-26T09:34:35Z</time>
      </trkpt>
      <trkpt lat="48.58643" lon="6.44121">
        <ele>248</ele>
        <time>2017-06-26T09:34:36Z</time>
      </trkpt>
      <trkpt lat="48.58643" lon="6.44125">
        <ele>248</ele>
        <time>2017-06-26T09:34:37Z</time>
      </trkpt>
      <trkpt lat="48.58642" lon="6.44128">
        <ele>248</ele>
        <time>2017-06-26T09:34:38Z</time>
      </trkpt>
      <trkpt lat="48.58641" lon="6.44132">
        <ele>248</ele>
        <time>2017-06-26T09:34:39Z</time>
      </trkpt>
      <trkpt lat="48.58639" lon="6.44136">
        <ele>248</ele>
        <time>2017-06-26T09:34:40Z</time>
      </trkpt>
      <trkpt lat="48.58638" lon="6.4414">
        <ele>248</ele>
        <time>2017-06-26T09:34:41Z</time>
      </trkpt>
      <trkpt lat="48.58637" lon="6.44143">
        <ele>248</ele>
        <time>2017-06-26T09:34:42Z</time>
      </trkpt>
      <trkpt lat="48.58637" lon="6.44147">
        <ele>248</ele>
        <time>2017-06-26T09:34:43Z</time>
      </trkpt>
      <trkpt lat="48.58638" lon="6.4415">
        <ele>248</ele>
        <time>2017-06-26T09:34:44Z</time>
      </trkpt>
      <trkpt lat="48.5864" lon="6.44153">
        <ele>248</ele>
        <time>2017-06-26T09:34:45Z</time>
      </trkpt>
      <trkpt lat="48.58641" lon="6.44155">
        <ele>248</ele>
        <time>2017-06-26T09:34:46Z</time>
      </trkpt>
      <trkpt lat="48.58643" lon="6.44158">
        <ele>248</ele>
        <time>2017-06-26T09:34:47Z</time>
      </trkpt>
      <trkpt lat="48.58644" lon="6.4416">
        <ele>248</ele>
        <time>2017-06-26T09:34:48Z</time>
      </trkpt>
      <trkpt lat="48.58646" lon="6.44163">
        <ele>248</ele>
        <time>2017-06-26T09:34:49Z</time>
      </trkpt>
      <trkpt lat="48.58647" lon="6.44166">
        <ele>248</ele>
        <time>2017-06-26T09:34:50Z</time>
      </trkpt>
      <trkpt lat="48.58648" lon="6.44169">
        <ele>248</ele>
        <time>2017-06-26T09:34:51Z</time>
      </trkpt>
      <trkpt lat="48.5865" lon="6.44172">
        <ele>248</ele>
        <time>2017-06-26T09:34:52Z</time>
      </trkpt>
      <trkpt lat="48.58651" lon="6.44174">
        <ele>248</ele>
        <time>2017-06-26T09:34:53Z</time>
      </trkpt>
      <trkpt lat="48.58653" lon="6.44176">
        <ele>248</ele>
        <time>2017-06-26T09:34:54Z</time>
      </trkpt>
      <trkpt lat="48.58654" lon="6.44179">
        <ele>248</ele>
        <time>2017-06-26T09:34:55Z</time>
      </trkpt>
      <trkpt lat="48.58655" lon="6.44182">
        <ele>248</ele>
        <time>2017-06-26T09:34:56Z</time>
      </trkpt>
      <trkpt lat="48.58657" lon="6.44185">
        <ele>248</ele>
        <time>2017-06-26T09:34:57Z</time>
      </trkpt>
      <trkpt lat="48.58658" lon="6.44187">
        <ele>248</ele>
        <time>2017-06-26T09:34:58Z</time>
      </trkpt>
      <trkpt lat="48.5866" lon="6.4419">
        <ele>248</ele>
        <time>2017-06-26T09:34:59Z</time>
      </trkpt>
      <trkpt lat="48.58661" lon="6.44193">
        <ele>248</ele>
        <time>2017-06-26T09:35:00Z</time>
      </trkpt>
      <trkpt lat="48.58663" lon="6.44195">
        <ele>248</ele>
        <time>2017-06-26T09:35:01Z</time>
      </trkpt>
      <trkpt lat="48.58665" lon="6.44198">
        <ele>248</ele>
        <time>2017-06-26T09:35:02Z</time>
      </trkpt>
      <trkpt lat="48.58666" lon="6.44201">
        <ele>248</ele>
        <time>2017-06-26T09:35:03Z</time>
      </trkpt>
      <trkpt lat="48.58668" lon="6.44203">
        <ele>248</ele>
        <time>2017-06-26T09:35:04Z</time>
      </trkpt>
      <trkpt lat="48.58669" lon="6.44206">
        <ele>248</ele>
        <time>2017-06-26T09:35:05Z</time>
      </trkpt>
      <trkpt lat="48.58671" lon="6.44208">
        <ele>248</ele>
        <time>2017-06-26T09:35:06Z</time>
      </trkpt>
      <trkpt lat="48.58673" lon="6.44211">
        <ele>248</ele>
        <time>2017-06-26T09:35:07Z</time>
      </trkpt>
      <trkpt lat="48.58674" lon="6.44214">
        <ele>248</ele>
        <time>2017-06-26T09:35:08Z</time>
      </trkpt>
      <trkpt lat="48.58675" lon="6.44217">
        <ele>248</ele>
        <time>2017-06-26T09:35:09Z</time>
      </trkpt>
      <trkpt lat="48.58677" lon="6.4422">
        <ele>248</ele>
        <time>2017-06-26T09:35:10Z</time>
      </trkpt>
      <trkpt lat="48.58678" lon="6.44223">
        <ele>248</ele>
        <time>2017-06-26T09:35:11Z</time>
      </trkpt>
      <trkpt lat="48.5868" lon="6.44226">
        <ele>248</ele>
        <time>2017-06-26T09:35:12Z</time>
      </trkpt>
      <trkpt lat="48.58681" lon="6.44229">
        <ele>248</ele>
        <time>2017-06-26T09:35:13Z</time>
      </trkpt>
      <trkpt lat="48.58683" lon="6.44231">
        <ele>249</ele>
        <time>2017-06-26T09:35:14Z</time>
      </trkpt>
      <trkpt lat="48.58684" lon="6.44234">
        <ele>249</ele>
        <time>2017-06-26T09:35:15Z</time>
      </trkpt>
      <trkpt lat="48.58686" lon="6.44237">
        <ele>249</ele>
        <time>2017-06-26T09:35:16Z</time>
      </trkpt>
      <trkpt lat="48.58688" lon="6.4424">
        <ele>249</ele>
        <time>2017-06-26T09:35:17Z</time>
      </trkpt>
      <trkpt lat="48.58689" lon="6.44244">
        <ele>249</ele>
        <time>2017-06-26T09:35:18Z</time>
      </trkpt>
      <trkpt lat="48.58691" lon="6.44247">
        <ele>249</ele>
        <time>2017-06-26T09:35:19Z</time>
      </trkpt>
      <trkpt lat="48.58692" lon="6.4425">
        <ele>249</ele>
        <time>2017-06-26T09:35:20Z</time>
      </trkpt>
      <trkpt lat="48.58693" lon="6.44252">
        <ele>249</ele>
        <time>2017-06-26T09:35:21Z</time>
      </trkpt>
      <trkpt lat="48.58695" lon="6.44255">
        <ele>249</ele>
        <time>2017-06-26T09:35:22Z</time>
      </trkpt>
      <trkpt lat="48.58697" lon="6.44258">
        <ele>249</ele>
        <time>2017-06-26T09:35:23Z</time>
      </trkpt>
      <trkpt lat="48.58698" lon="6.44261">
        <ele>249</ele>
        <time>2017-06-26T09:35:24Z</time>
      </trkpt>
      <trkpt lat="48.587" lon="6.44264">
        <ele>249</ele>
        <time>2017-06-26T09:35:25Z</time>
      </trkpt>
      <trkpt lat="48.58701" lon="6.44267">
        <ele>250</ele>
        <time>2017-06-26T09:35:26Z</time>
      </trkpt>
      <trkpt lat="48.58703" lon="6.4427">
        <ele>250</ele>
        <time>2017-06-26T09:35:27Z</time>
      </trkpt>
      <trkpt lat="48.58704" lon="6.44274">
        <ele>250</ele>
        <time>2017-06-26T09:35:28Z</time>
      </trkpt>
      <trkpt lat="48.58706" lon="6.44276">
        <ele>250</ele>
        <time>2017-06-26T09:35:29Z</time>
      </trkpt>
      <trkpt lat="48.58708" lon="6.44279">
        <ele>250</ele>
        <time>2017-06-26T09:35:30Z</time>
      </trkpt>
      <trkpt lat="48.58709" lon="6.44282">
        <ele>250</ele>
        <time>2017-06-26T09:35:31Z</time>
      </trkpt>
      <trkpt lat="48.58711" lon="6.44285">
        <ele>250</ele>
        <time>2017-06-26T09:35:32Z</time>
      </trkpt>
      <trkpt lat="48.58712" lon="6.44288">
        <ele>250</ele>
        <time>2017-06-26T09:35:33Z</time>
      </trkpt>
      <trkpt lat="48.58714" lon="6.44291">
        <ele>250</ele>
        <time>2017-06-26T09:35:34Z</time>
      </trkpt>
      <trkpt lat="48.58715" lon="6.44294">
        <ele>250</ele>
        <time>2017-06-26T09:35:35Z</time>
      </trkpt>
      <trkpt lat="48.58717" lon="6.44297">
        <ele>250</ele>
        <time>2017-06-26T09:35:36Z</time>
      </trkpt>
      <trkpt lat="48.58718" lon="6.443">
        <ele>250</ele>
        <time>2017-06-26T09:35:37Z</time>
      </trkpt>
      <trkpt lat="48.5872" lon="6.44303">
        <ele>250</ele>
        <time>2017-06-26T09:35:38Z</time>
      </trkpt>
      <trkpt lat="48.58721" lon="6.44305">
        <ele>250</ele>
        <time>2017-06-26T09:35:39Z</time>
      </trkpt>
      <trkpt lat="48.58723" lon="6.44308">
        <ele>250</ele>
        <time>2017-06-26T09:35:40Z</time>
      </trkpt>
      <trkpt lat="48.58724" lon="6.44311">
        <ele>250</ele>
        <time>2017-06-26T09:35:41Z</time>
      </trkpt>
      <trkpt lat="48.58725" lon="6.44314">
        <ele>250</ele>
        <time>2017-06-26T09:35:42Z</time>
      </trkpt>
      <trkpt lat="48.58727" lon="6.44317">
        <ele>250</ele>
        <time>2017-06-26T09:35:43Z</time>
      </trkpt>
      <trkpt lat="48.58729" lon="6.4432">
        <ele>250</ele>
        <time>2017-06-26T09:35:44Z</time>
      </trkpt>
      <trkpt lat="48.5873" lon="6.44322">
        <ele>250</ele>
        <time>2017-06-26T09:35:45Z</time>
      </trkpt>
      <trkpt lat="48.58732" lon="6.44325">
        <ele>250</ele>
        <time>2017-06-26T09:35:46Z</time>
      </trkpt>
      <trkpt lat="48.58733" lon="6.44327">
        <ele>250</ele>
        <time>2017-06-26T09:35:47Z</time>
      </trkpt>
      <trkpt lat="48.58734" lon="6.4433">
        <ele>250</ele>
        <time>2017-06-26T09:35:48Z</time>
      </trkpt>
      <trkpt lat="48.58736" lon="6.44332">
        <ele>250</ele>
        <time>2017-06-26T09:35:49Z</time>
      </trkpt>
      <trkpt lat="48.58738" lon="6.44334">
        <ele>250</ele>
        <time>2017-06-26T09:35:50Z</time>
      </trkpt>
      <trkpt lat="48.5874" lon="6.44336">
        <ele>250</ele>
        <time>2017-06-26T09:35:51Z</time>
      </trkpt>
      <trkpt lat="48.58741" lon="6.44337">
        <ele>250</ele>
        <time>2017-06-26T09:35:52Z</time>
      </trkpt>
      <trkpt lat="48.58744" lon="6.44338">
        <ele>250</ele>
        <time>2017-06-26T09:35:53Z</time>
      </trkpt>
      <trkpt lat="48.58746" lon="6.44339">
        <ele>250</ele>
        <time>2017-06-26T09:35:54Z</time>
      </trkpt>
      <trkpt lat="48.58748" lon="6.4434">
        <ele>250</ele>
        <time>2017-06-26T09:35:55Z</time>
      </trkpt>
      <trkpt lat="48.58751" lon="6.4434">
        <ele>250</ele>
        <time>2017-06-26T09:35:56Z</time>
      </trkpt>
      <trkpt lat="48.58753" lon="6.4434">
        <ele>250</ele>
        <time>2017-06-26T09:35:57Z</time>
      </trkpt>
      <trkpt lat="48.58756" lon="6.44341">
        <ele>250</ele>
        <time>2017-06-26T09:35:58Z</time>
      </trkpt>
      <trkpt lat="48.58758" lon="6.44341">
        <ele>250</ele>
        <time>2017-06-26T09:35:59Z</time>
      </trkpt>
      <trkpt lat="48.5876" lon="6.44341">
        <ele>250</ele>
        <time>2017-06-26T09:36:00Z</time>
      </trkpt>
      <trkpt lat="48.58762" lon="6.44341">
        <ele>251</ele>
        <time>2017-06-26T09:36:01Z</time>
      </trkpt>
      <trkpt lat="48.58765" lon="6.44342">
        <ele>251</ele>
        <time>2017-06-26T09:36:03Z</time>
      </trkpt>
      <trkpt lat="48.58767" lon="6.44344">
        <ele>251</ele>
        <time>2017-06-26T09:36:04Z</time>
      </trkpt>
      <trkpt lat="48.58769" lon="6.44346">
        <ele>251</ele>
        <time>2017-06-26T09:36:05Z</time>
      </trkpt>
      <trkpt lat="48.58771" lon="6.44348">
        <ele>251</ele>
        <time>2017-06-26T09:36:06Z</time>
      </trkpt>
      <trkpt lat="48.58773" lon="6.4435">
        <ele>252</ele>
        <time>2017-06-26T09:36:07Z</time>
      </trkpt>
      <trkpt lat="48.58775" lon="6.44351">
        <ele>252</ele>
        <time>2017-06-26T09:36:08Z</time>
      </trkpt>
      <trkpt lat="48.58776" lon="6.44353">
        <ele>252</ele>
        <time>2017-06-26T09:36:09Z</time>
      </trkpt>
      <trkpt lat="48.58778" lon="6.44354">
        <ele>252</ele>
        <time>2017-06-26T09:36:10Z</time>
      </trkpt>
      <trkpt lat="48.58779" lon="6.44356">
        <ele>252</ele>
        <time>2017-06-26T09:36:11Z</time>
      </trkpt>
      <trkpt lat="48.58781" lon="6.4436">
        <ele>252</ele>
        <time>2017-06-26T09:36:13Z</time>
      </trkpt>
      <trkpt lat="48.58783" lon="6.44364">
        <ele>252</ele>
        <time>2017-06-26T09:36:15Z</time>
      </trkpt>
      <trkpt lat="48.58784" lon="6.44366">
        <ele>252</ele>
        <time>2017-06-26T09:36:16Z</time>
      </trkpt>
      <trkpt lat="48.58786" lon="6.44369">
        <ele>252</ele>
        <time>2017-06-26T09:36:17Z</time>
      </trkpt>
      <trkpt lat="48.58787" lon="6.44371">
        <ele>252</ele>
        <time>2017-06-26T09:36:18Z</time>
      </trkpt>
      <trkpt lat="48.58788" lon="6.44373">
        <ele>252</ele>
        <time>2017-06-26T09:36:19Z</time>
      </trkpt>
      <trkpt lat="48.58791" lon="6.44377">
        <ele>253</ele>
        <time>2017-06-26T09:36:21Z</time>
      </trkpt>
      <trkpt lat="48.58791" lon="6.4438">
        <ele>253</ele>
        <time>2017-06-26T09:36:22Z</time>
      </trkpt>
      <trkpt lat="48.58793" lon="6.44383">
        <ele>253</ele>
        <time>2017-06-26T09:36:24Z</time>
      </trkpt>
      <trkpt lat="48.58794" lon="6.44385">
        <ele>253</ele>
        <time>2017-06-26T09:36:25Z</time>
      </trkpt>
      <trkpt lat="48.58795" lon="6.44388">
        <ele>253</ele>
        <time>2017-06-26T09:36:26Z</time>
      </trkpt>
      <trkpt lat="48.58797" lon="6.4439">
        <ele>253</ele>
        <time>2017-06-26T09:36:27Z</time>
      </trkpt>
      <trkpt lat="48.58798" lon="6.44394">
        <ele>254</ele>
        <time>2017-06-26T09:36:28Z</time>
      </trkpt>
      <trkpt lat="48.58799" lon="6.44397">
        <ele>254</ele>
        <time>2017-06-26T09:36:29Z</time>
      </trkpt>
      <trkpt lat="48.58801" lon="6.444">
        <ele>254</ele>
        <time>2017-06-26T09:36:30Z</time>
      </trkpt>
      <trkpt lat="48.58803" lon="6.44404">
        <ele>254</ele>
        <time>2017-06-26T09:36:31Z</time>
      </trkpt>
      <trkpt lat="48.58804" lon="6.44407">
        <ele>254</ele>
        <time>2017-06-26T09:36:32Z</time>
      </trkpt>
      <trkpt lat="48.58806" lon="6.4441">
        <ele>254</ele>
        <time>2017-06-26T09:36:33Z</time>
      </trkpt>
      <trkpt lat="48.58807" lon="6.44413">
        <ele>254</ele>
        <time>2017-06-26T09:36:34Z</time>
      </trkpt>
      <trkpt lat="48.58808" lon="6.44416">
        <ele>254</ele>
        <time>2017-06-26T09:36:35Z</time>
      </trkpt>
      <trkpt lat="48.5881" lon="6.44418">
        <ele>255</ele>
        <time>2017-06-26T09:36:36Z</time>
      </trkpt>
      <trkpt lat="48.58811" lon="6.4442">
        <ele>255</ele>
        <time>2017-06-26T09:36:37Z</time>
      </trkpt>
      <trkpt lat="48.58813" lon="6.44422">
        <ele>255</ele>
        <time>2017-06-26T09:36:38Z</time>
      </trkpt>
      <trkpt lat="48.58814" lon="6.44425">
        <ele>255</ele>
        <time>2017-06-26T09:36:39Z</time>
      </trkpt>
      <trkpt lat="48.58815" lon="6.44428">
        <ele>255</ele>
        <time>2017-06-26T09:36:40Z</time>
      </trkpt>
      <trkpt lat="48.58817" lon="6.44431">
        <ele>255</ele>
        <time>2017-06-26T09:36:41Z</time>
      </trkpt>
      <trkpt lat="48.58818" lon="6.44434">
        <ele>256</ele>
        <time>2017-06-26T09:36:42Z</time>
      </trkpt>
      <trkpt lat="48.5882" lon="6.44437">
        <ele>256</ele>
        <time>2017-06-26T09:36:43Z</time>
      </trkpt>
      <trkpt lat="48.58822" lon="6.4444">
        <ele>256</ele>
        <time>2017-06-26T09:36:44Z</time>
      </trkpt>
      <trkpt lat="48.58824" lon="6.44443">
        <ele>256</ele>
        <time>2017-06-26T09:36:45Z</time>
      </trkpt>
      <trkpt lat="48.58825" lon="6.44445">
        <ele>256</ele>
        <time>2017-06-26T09:36:46Z</time>
      </trkpt>
      <trkpt lat="48.58827" lon="6.44448">
        <ele>256</ele>
        <time>2017-06-26T09:36:47Z</time>
      </trkpt>
      <trkpt lat="48.58828" lon="6.44451">
        <ele>257</ele>
        <time>2017-06-26T09:36:48Z</time>
      </trkpt>
      <trkpt lat="48.58829" lon="6.44454">
        <ele>257</ele>
        <time>2017-06-26T09:36:49Z</time>
      </trkpt>
      <trkpt lat="48.5883" lon="6.44457">
        <ele>257</ele>
        <time>2017-06-26T09:36:50Z</time>
      </trkpt>
      <trkpt lat="48.58831" lon="6.44459">
        <ele>257</ele>
        <time>2017-06-26T09:36:51Z</time>
      </trkpt>
      <trkpt lat="48.58832" lon="6.44462">
        <ele>258</ele>
        <time>2017-06-26T09:36:52Z</time>
      </trkpt>
      <trkpt lat="48.58834" lon="6.44464">
        <ele>258</ele>
        <time>2017-06-26T09:36:53Z</time>
      </trkpt>
      <trkpt lat="48.58835" lon="6.44467">
        <ele>258</ele>
        <time>2017-06-26T09:36:54Z</time>
      </trkpt>
      <trkpt lat="48.58836" lon="6.44469">
        <ele>258</ele>
        <time>2017-06-26T09:36:55Z</time>
      </trkpt>
      <trkpt lat="48.58837" lon="6.44472">
        <ele>258</ele>
        <time>2017-06-26T09:36:56Z</time>
      </trkpt>
      <trkpt lat="48.58838" lon="6.44475">
        <ele>259</ele>
        <time>2017-06-26T09:36:57Z</time>
      </trkpt>
      <trkpt lat="48.58839" lon="6.44477">
        <ele>259</ele>
        <time>2017-06-26T09:36:58Z</time>
      </trkpt>
      <trkpt lat="48.5884" lon="6.4448">
        <ele>259</ele>
        <time>2017-06-26T09:36:59Z</time>
      </trkpt>
      <trkpt lat="48.58841" lon="6.44483">
        <ele>259</ele>
        <time>2017-06-26T09:37:00Z</time>
      </trkpt>
      <trkpt lat="48.58842" lon="6.44486">
        <ele>259</ele>
        <time>2017-06-26T09:37:01Z</time>
      </trkpt>
      <trkpt lat="48.58843" lon="6.44489">
        <ele>259</ele>
        <time>2017-06-26T09:37:02Z</time>
      </trkpt>
      <trkpt lat="48.58844" lon="6.44491">
        <ele>260</ele>
        <time>2017-06-26T09:37:03Z</time>
      </trkpt>
      <trkpt lat="48.58844" lon="6.44495">
        <ele>260</ele>
        <time>2017-06-26T09:37:04Z</time>
      </trkpt>
      <trkpt lat="48.58845" lon="6.44497">
        <ele>260</ele>
        <time>2017-06-26T09:37:05Z</time>
      </trkpt>
      <trkpt lat="48.58847" lon="6.445">
        <ele>260</ele>
        <time>2017-06-26T09:37:06Z</time>
      </trkpt>
      <trkpt lat="48.58849" lon="6.44503">
        <ele>260</ele>
        <time>2017-06-26T09:37:07Z</time>
      </trkpt>
      <trkpt lat="48.58851" lon="6.44506">
        <ele>260</ele>
        <time>2017-06-26T09:37:08Z</time>
      </trkpt>
      <trkpt lat="48.58852" lon="6.44509">
        <ele>260</ele>
        <time>2017-06-26T09:37:09Z</time>
      </trkpt>
      <trkpt lat="48.58854" lon="6.44513">
        <ele>260</ele>
        <time>2017-06-26T09:37:10Z</time>
      </trkpt>
      <trkpt lat="48.58856" lon="6.44516">
        <ele>261</ele>
        <time>2017-06-26T09:37:11Z</time>
      </trkpt>
      <trkpt lat="48.58857" lon="6.4452">
        <ele>261</ele>
        <time>2017-06-26T09:37:12Z</time>
      </trkpt>
      <trkpt lat="48.58858" lon="6.44523">
        <ele>261</ele>
        <time>2017-06-26T09:37:13Z</time>
      </trkpt>
      <trkpt lat="48.5886" lon="6.44526">
        <ele>261</ele>
        <time>2017-06-26T09:37:14Z</time>
      </trkpt>
      <trkpt lat="48.58861" lon="6.44529">
        <ele>261</ele>
        <time>2017-06-26T09:37:15Z</time>
      </trkpt>
      <trkpt lat="48.58863" lon="6.44532">
        <ele>261</ele>
        <time>2017-06-26T09:37:16Z</time>
      </trkpt>
      <trkpt lat="48.58864" lon="6.44535">
        <ele>261</ele>
        <time>2017-06-26T09:37:17Z</time>
      </trkpt>
      <trkpt lat="48.58866" lon="6.44538">
        <ele>262</ele>
        <time>2017-06-26T09:37:18Z</time>
      </trkpt>
      <trkpt lat="48.58867" lon="6.44541">
        <ele>262</ele>
        <time>2017-06-26T09:37:19Z</time>
      </trkpt>
      <trkpt lat="48.58868" lon="6.44544">
        <ele>262</ele>
        <time>2017-06-26T09:37:20Z</time>
      </trkpt>
      <trkpt lat="48.58869" lon="6.44547">
        <ele>263</ele>
        <time>2017-06-26T09:37:21Z</time>
      </trkpt>
      <trkpt lat="48.58871" lon="6.4455">
        <ele>263</ele>
        <time>2017-06-26T09:37:22Z</time>
      </trkpt>
      <trkpt lat="48.58872" lon="6.44552">
        <ele>263</ele>
        <time>2017-06-26T09:37:23Z</time>
      </trkpt>
      <trkpt lat="48.58873" lon="6.44555">
        <ele>263</ele>
        <time>2017-06-26T09:37:24Z</time>
      </trkpt>
      <trkpt lat="48.58874" lon="6.44558">
        <ele>263</ele>
        <time>2017-06-26T09:37:25Z</time>
      </trkpt>
      <trkpt lat="48.58875" lon="6.44561">
        <ele>263</ele>
        <time>2017-06-26T09:37:26Z</time>
      </trkpt>
      <trkpt lat="48.58877" lon="6.44564">
        <ele>264</ele>
        <time>2017-06-26T09:37:27Z</time>
      </trkpt>
      <trkpt lat="48.58878" lon="6.44567">
        <ele>264</ele>
        <time>2017-06-26T09:37:28Z</time>
      </trkpt>
      <trkpt lat="48.58879" lon="6.44569">
        <ele>264</ele>
        <time>2017-06-26T09:37:29Z</time>
      </trkpt>
      <trkpt lat="48.5888" lon="6.44571">
        <ele>264</ele>
        <time>2017-06-26T09:37:30Z</time>
      </trkpt>
      <trkpt lat="48.58881" lon="6.44574">
        <ele>264</ele>
        <time>2017-06-26T09:37:31Z</time>
      </trkpt>
      <trkpt lat="48.58882" lon="6.44577">
        <ele>264</ele>
        <time>2017-06-26T09:37:32Z</time>
      </trkpt>
      <trkpt lat="48.58883" lon="6.4458">
        <ele>264</ele>
        <time>2017-06-26T09:37:33Z</time>
      </trkpt>
      <trkpt lat="48.58885" lon="6.44583">
        <ele>264</ele>
        <time>2017-06-26T09:37:34Z</time>
      </trkpt>
      <trkpt lat="48.58887" lon="6.44587">
        <ele>264</ele>
        <time>2017-06-26T09:37:35Z</time>
      </trkpt>
      <trkpt lat="48.58889" lon="6.4459">
        <ele>264</ele>
        <time>2017-06-26T09:37:36Z</time>
      </trkpt>
      <trkpt lat="48.58891" lon="6.44594">
        <ele>264</ele>
        <time>2017-06-26T09:37:37Z</time>
      </trkpt>
      <trkpt lat="48.58893" lon="6.44598">
        <ele>265</ele>
        <time>2017-06-26T09:37:38Z</time>
      </trkpt>
      <trkpt lat="48.58895" lon="6.44601">
        <ele>265</ele>
        <time>2017-06-26T09:37:39Z</time>
      </trkpt>
      <trkpt lat="48.58896" lon="6.44604">
        <ele>265</ele>
        <time>2017-06-26T09:37:40Z</time>
      </trkpt>
      <trkpt lat="48.58897" lon="6.44608">
        <ele>265</ele>
        <time>2017-06-26T09:37:41Z</time>
      </trkpt>
      <trkpt lat="48.58898" lon="6.44611">
        <ele>264</ele>
        <time>2017-06-26T09:37:42Z</time>
      </trkpt>
      <trkpt lat="48.589" lon="6.44614">
        <ele>265</ele>
        <time>2017-06-26T09:37:43Z</time>
      </trkpt>
      <trkpt lat="48.58902" lon="6.44617">
        <ele>265</ele>
        <time>2017-06-26T09:37:44Z</time>
      </trkpt>
      <trkpt lat="48.58904" lon="6.4462">
        <ele>265</ele>
        <time>2017-06-26T09:37:45Z</time>
      </trkpt>
      <trkpt lat="48.58905" lon="6.44624">
        <ele>264</ele>
        <time>2017-06-26T09:37:46Z</time>
      </trkpt>
      <trkpt lat="48.58907" lon="6.44628">
        <ele>264</ele>
        <time>2017-06-26T09:37:47Z</time>
      </trkpt>
      <trkpt lat="48.58908" lon="6.44631">
        <ele>265</ele>
        <time>2017-06-26T09:37:48Z</time>
      </trkpt>
      <trkpt lat="48.5891" lon="6.44634">
        <ele>265</ele>
        <time>2017-06-26T09:37:49Z</time>
      </trkpt>
      <trkpt lat="48.58912" lon="6.44637">
        <ele>265</ele>
        <time>2017-06-26T09:37:50Z</time>
      </trkpt>
      <trkpt lat="48.58914" lon="6.44641">
        <ele>265</ele>
        <time>2017-06-26T09:37:51Z</time>
      </trkpt>
      <trkpt lat="48.58916" lon="6.44644">
        <ele>265</ele>
        <time>2017-06-26T09:37:52Z</time>
      </trkpt>
      <trkpt lat="48.58917" lon="6.44647">
        <ele>265</ele>
        <time>2017-06-26T09:37:53Z</time>
      </trkpt>
      <trkpt lat="48.58919" lon="6.44649">
        <ele>265</ele>
        <time>2017-06-26T09:37:54Z</time>
      </trkpt>
      <trkpt lat="48.5892" lon="6.44652">
        <ele>265</ele>
        <time>2017-06-26T09:37:55Z</time>
      </trkpt>
      <trkpt lat="48.58922" lon="6.44654">
        <ele>265</ele>
        <time>2017-06-26T09:37:56Z</time>
      </trkpt>
      <trkpt lat="48.58924" lon="6.44657">
        <ele>265</ele>
        <time>2017-06-26T09:37:57Z</time>
      </trkpt>
      <trkpt lat="48.58926" lon="6.44659">
        <ele>265</ele>
        <time>2017-06-26T09:37:58Z</time>
      </trkpt>
      <trkpt lat="48.58927" lon="6.44663">
        <ele>265</ele>
        <time>2017-06-26T09:37:59Z</time>
      </trkpt>
      <trkpt lat="48.58928" lon="6.44666">
        <ele>265</ele>
        <time>2017-06-26T09:38:00Z</time>
      </trkpt>
      <trkpt lat="48.58929" lon="6.44668">
        <ele>265</ele>
        <time>2017-06-26T09:38:01Z</time>
      </trkpt>
      <trkpt lat="48.58931" lon="6.44671">
        <ele>265</ele>
        <time>2017-06-26T09:38:02Z</time>
      </trkpt>
      <trkpt lat="48.58933" lon="6.44673">
        <ele>265</ele>
        <time>2017-06-26T09:38:03Z</time>
      </trkpt>
      <trkpt lat="48.58935" lon="6.44676">
        <ele>265</ele>
        <time>2017-06-26T09:38:04Z</time>
      </trkpt>
      <trkpt lat="48.58937" lon="6.44679">
        <ele>265</ele>
        <time>2017-06-26T09:38:05Z</time>
      </trkpt>
      <trkpt lat="48.58939" lon="6.44681">
        <ele>265</ele>
        <time>2017-06-26T09:38:06Z</time>
      </trkpt>
      <trkpt lat="48.58941" lon="6.44684">
        <ele>266</ele>
        <time>2017-06-26T09:38:07Z</time>
      </trkpt>
      <trkpt lat="48.58942" lon="6.44687">
        <ele>266</ele>
        <time>2017-06-26T09:38:08Z</time>
      </trkpt>
      <trkpt lat="48.58945" lon="6.44689">
        <ele>266</ele>
        <time>2017-06-26T09:38:09Z</time>
      </trkpt>
      <trkpt lat="48.58947" lon="6.44693">
        <ele>266</ele>
        <time>2017-06-26T09:38:10Z</time>
      </trkpt>
      <trkpt lat="48.58949" lon="6.44695">
        <ele>266</ele>
        <time>2017-06-26T09:38:11Z</time>
      </trkpt>
      <trkpt lat="48.58951" lon="6.44699">
        <ele>265</ele>
        <time>2017-06-26T09:38:12Z</time>
      </trkpt>
      <trkpt lat="48.58953" lon="6.44701">
        <ele>266</ele>
        <time>2017-06-26T09:38:13Z</time>
      </trkpt>
      <trkpt lat="48.58955" lon="6.44704">
        <ele>266</ele>
        <time>2017-06-26T09:38:14Z</time>
      </trkpt>
      <trkpt lat="48.58957" lon="6.44707">
        <ele>266</ele>
        <time>2017-06-26T09:38:15Z</time>
      </trkpt>
      <trkpt lat="48.58959" lon="6.44709">
        <ele>266</ele>
        <time>2017-06-26T09:38:16Z</time>
      </trkpt>
      <trkpt lat="48.58962" lon="6.44712">
        <ele>266</ele>
        <time>2017-06-26T09:38:17Z</time>
      </trkpt>
      <trkpt lat="48.58964" lon="6.44714">
        <ele>266</ele>
        <time>2017-06-26T09:38:18Z</time>
      </trkpt>
      <trkpt lat="48.58965" lon="6.44716">
        <ele>266</ele>
        <time>2017-06-26T09:38:19Z</time>
      </trkpt>
      <trkpt lat="48.58967" lon="6.44718">
        <ele>266</ele>
        <time>2017-06-26T09:38:20Z</time>
      </trkpt>
      <trkpt lat="48.58969" lon="6.4472">
        <ele>266</ele>
        <time>2017-06-26T09:38:21Z</time>
      </trkpt>
      <trkpt lat="48.58971" lon="6.44723">
        <ele>266</ele>
        <time>2017-06-26T09:38:22Z</time>
      </trkpt>
      <trkpt lat="48.58973" lon="6.44726">
        <ele>266</ele>
        <time>2017-06-26T09:38:23Z</time>
      </trkpt>
      <trkpt lat="48.58975" lon="6.4473">
        <ele>266</ele>
        <time>2017-06-26T09:38:24Z</time>
      </trkpt>
      <trkpt lat="48.58976" lon="6.44733">
        <ele>266</ele>
        <time>2017-06-26T09:38:25Z</time>
      </trkpt>
      <trkpt lat="48.58978" lon="6.44736">
        <ele>266</ele>
        <time>2017-06-26T09:38:26Z</time>
      </trkpt>
      <trkpt lat="48.5898" lon="6.44739">
        <ele>266</ele>
        <time>2017-06-26T09:38:27Z</time>
      </trkpt>
      <trkpt lat="48.58982" lon="6.44742">
        <ele>266</ele>
        <time>2017-06-26T09:38:28Z</time>
      </trkpt>
      <trkpt lat="48.58984" lon="6.44745">
        <ele>265</ele>
        <time>2017-06-26T09:38:29Z</time>
      </trkpt>
      <trkpt lat="48.58986" lon="6.44747">
        <ele>265</ele>
        <time>2017-06-26T09:38:30Z</time>
      </trkpt>
      <trkpt lat="48.58988" lon="6.44749">
        <ele>265</ele>
        <time>2017-06-26T09:38:31Z</time>
      </trkpt>
      <trkpt lat="48.58991" lon="6.44752">
        <ele>265</ele>
        <time>2017-06-26T09:38:32Z</time>
      </trkpt>
      <trkpt lat="48.58993" lon="6.44754">
        <ele>265</ele>
        <time>2017-06-26T09:38:33Z</time>
      </trkpt>
      <trkpt lat="48.58995" lon="6.44757">
        <ele>265</ele>
        <time>2017-06-26T09:38:34Z</time>
      </trkpt>
      <trkpt lat="48.58996" lon="6.4476">
        <ele>265</ele>
        <time>2017-06-26T09:38:35Z</time>
      </trkpt>
      <trkpt lat="48.58998" lon="6.44763">
        <ele>265</ele>
        <time>2017-06-26T09:38:36Z</time>
      </trkpt>
      <trkpt lat="48.59001" lon="6.44765">
        <ele>265</ele>
        <time>2017-06-26T09:38:37Z</time>
      </trkpt>
      <trkpt lat="48.59003" lon="6.44768">
        <ele>265</ele>
        <time>2017-06-26T09:38:38Z</time>
      </trkpt>
      <trkpt lat="48.59004" lon="6.44771">
        <ele>265</ele>
        <time>2017-06-26T09:38:39Z</time>
      </trkpt>
      <trkpt lat="48.59007" lon="6.44773">
        <ele>265</ele>
        <time>2017-06-26T09:38:40Z</time>
      </trkpt>
      <trkpt lat="48.59008" lon="6.44776">
        <ele>265</ele>
        <time>2017-06-26T09:38:41Z</time>
      </trkpt>
      <trkpt lat="48.5901" lon="6.44778">
        <ele>265</ele>
        <time>2017-06-26T09:38:42Z</time>
      </trkpt>
      <trkpt lat="48.59012" lon="6.44781">
        <ele>264</ele>
        <time>2017-06-26T09:38:43Z</time>
      </trkpt>
      <trkpt lat="48.59014" lon="6.44783">
        <ele>264</ele>
        <time>2017-06-26T09:38:44Z</time>
      </trkpt>
      <trkpt lat="48.59016" lon="6.44786">
        <ele>264</ele>
        <time>2017-06-26T09:38:45Z</time>
      </trkpt>
      <trkpt lat="48.59019" lon="6.44789">
        <ele>264</ele>
        <time>2017-06-26T09:38:46Z</time>
      </trkpt>
      <trkpt lat="48.59021" lon="6.44792">
        <ele>264</ele>
        <time>2017-06-26T09:38:47Z</time>
      </trkpt>
      <trkpt lat="48.59024" lon="6.44795">
        <ele>265</ele>
        <time>2017-06-26T09:38:48Z</time>
      </trkpt>
      <trkpt lat="48.59026" lon="6.44798">
        <ele>265</ele>
        <time>2017-06-26T09:38:49Z</time>
      </trkpt>
      <trkpt lat="48.59028" lon="6.44801">
        <ele>265</ele>
        <time>2017-06-26T09:38:50Z</time>
      </trkpt>
      <trkpt lat="48.59031" lon="6.44804">
        <ele>265</ele>
        <time>2017-06-26T09:38:51Z</time>
      </trkpt>
      <trkpt lat="48.59033" lon="6.44807">
        <ele>265</ele>
        <time>2017-06-26T09:38:52Z</time>
      </trkpt>
      <trkpt lat="48.59035" lon="6.44809">
        <ele>265</ele>
        <time>2017-06-26T09:38:53Z</time>
      </trkpt>
      <trkpt lat="48.59037" lon="6.44812">
        <ele>265</ele>
        <time>2017-06-26T09:38:54Z</time>
      </trkpt>
      <trkpt lat="48.59039" lon="6.44815">
        <ele>265</ele>
        <time>2017-06-26T09:38:55Z</time>
      </trkpt>
      <trkpt lat="48.59041" lon="6.44817">
        <ele>265</ele>
        <time>2017-06-26T09:38:56Z</time>
      </trkpt>
      <trkpt lat="48.59043" lon="6.44819">
        <ele>265</ele>
        <time>2017-06-26T09:38:57Z</time>
      </trkpt>
      <trkpt lat="48.59045" lon="6.44822">
        <ele>265</ele>
        <time>2017-06-26T09:38:58Z</time>
      </trkpt>
      <trkpt lat="48.59047" lon="6.44825">
        <ele>266</ele>
        <time>2017-06-26T09:38:59Z</time>
      </trkpt>
      <trkpt lat="48.59049" lon="6.44828">
        <ele>266</ele>
        <time>2017-06-26T09:39:00Z</time>
      </trkpt>
      <trkpt lat="48.59051" lon="6.4483">
        <ele>266</ele>
        <time>2017-06-26T09:39:01Z</time>
      </trkpt>
      <trkpt lat="48.59053" lon="6.44833">
        <ele>266</ele>
        <time>2017-06-26T09:39:02Z</time>
      </trkpt>
      <trkpt lat="48.59055" lon="6.44836">
        <ele>266</ele>
        <time>2017-06-26T09:39:03Z</time>
      </trkpt>
      <trkpt lat="48.59057" lon="6.44839">
        <ele>266</ele>
        <time>2017-06-26T09:39:04Z</time>
      </trkpt>
      <trkpt lat="48.59059" lon="6.44841">
        <ele>266</ele>
        <time>2017-06-26T09:39:05Z</time>
      </trkpt>
      <trkpt lat="48.5906" lon="6.44844">
        <ele>265</ele>
        <time>2017-06-26T09:39:06Z</time>
      </trkpt>
      <trkpt lat="48.59062" lon="6.44847">
        <ele>265</ele>
        <time>2017-06-26T09:39:07Z</time>
      </trkpt>
      <trkpt lat="48.59064" lon="6.44849">
        <ele>265</ele>
        <time>2017-06-26T09:39:08Z</time>
      </trkpt>
      <trkpt lat="48.59066" lon="6.44852">
        <ele>265</ele>
        <time>2017-06-26T09:39:09Z</time>
      </trkpt>
      <trkpt lat="48.59068" lon="6.44855">
        <ele>265</ele>
        <time>2017-06-26T09:39:10Z</time>
      </trkpt>
      <trkpt lat="48.59069" lon="6.44858">
        <ele>265</ele>
        <time>2017-06-26T09:39:11Z</time>
      </trkpt>
      <trkpt lat="48.59071" lon="6.44862">
        <ele>265</ele>
        <time>2017-06-26T09:39:12Z</time>
      </trkpt>
      <trkpt lat="48.59073" lon="6.44865">
        <ele>265</ele>
        <time>2017-06-26T09:39:13Z</time>
      </trkpt>
      <trkpt lat="48.59075" lon="6.44868">
        <ele>265</ele>
        <time>2017-06-26T09:39:14Z</time>
      </trkpt>
      <trkpt lat="48.59077" lon="6.44871">
        <ele>265</ele>
        <time>2017-06-26T09:39:15Z</time>
      </trkpt>
      <trkpt lat="48.59079" lon="6.44874">
        <ele>265</ele>
        <time>2017-06-26T09:39:16Z</time>
      </trkpt>
      <trkpt lat="48.5908" lon="6.44877">
        <ele>265</ele>
        <time>2017-06-26T09:39:17Z</time>
      </trkpt>
      <trkpt lat="48.59082" lon="6.44879">
        <ele>264</ele>
        <time>2017-06-26T09:39:18Z</time>
      </trkpt>
      <trkpt lat="48.59084" lon="6.44882">
        <ele>264</ele>
        <time>2017-06-26T09:39:19Z</time>
      </trkpt>
      <trkpt lat="48.59086" lon="6.44884">
        <ele>264</ele>
        <time>2017-06-26T09:39:20Z</time>
      </trkpt>
      <trkpt lat="48.59088" lon="6.44887">
        <ele>264</ele>
        <time>2017-06-26T09:39:21Z</time>
      </trkpt>
      <trkpt lat="48.5909" lon="6.4489">
        <ele>264</ele>
        <time>2017-06-26T09:39:22Z</time>
      </trkpt>
      <trkpt lat="48.59091" lon="6.44893">
        <ele>263</ele>
        <time>2017-06-26T09:39:23Z</time>
      </trkpt>
      <trkpt lat="48.59093" lon="6.44896">
        <ele>263</ele>
        <time>2017-06-26T09:39:24Z</time>
      </trkpt>
      <trkpt lat="48.59095" lon="6.44898">
        <ele>263</ele>
        <time>2017-06-26T09:39:25Z</time>
      </trkpt>
      <trkpt lat="48.59096" lon="6.44901">
        <ele>263</ele>
        <time>2017-06-26T09:39:26Z</time>
      </trkpt>
      <trkpt lat="48.59098" lon="6.44904">
        <ele>263</ele>
        <time>2017-06-26T09:39:27Z</time>
      </trkpt>
      <trkpt lat="48.591" lon="6.44906">
        <ele>262</ele>
        <time>2017-06-26T09:39:28Z</time>
      </trkpt>
      <trkpt lat="48.59102" lon="6.44909">
        <ele>262</ele>
        <time>2017-06-26T09:39:29Z</time>
      </trkpt>
      <trkpt lat="48.59104" lon="6.44911">
        <ele>262</ele>
        <time>2017-06-26T09:39:30Z</time>
      </trkpt>
      <trkpt lat="48.59105" lon="6.44915">
        <ele>262</ele>
        <time>2017-06-26T09:39:31Z</time>
      </trkpt>
      <trkpt lat="48.59107" lon="6.44918">
        <ele>262</ele>
        <time>2017-06-26T09:39:32Z</time>
      </trkpt>
      <trkpt lat="48.59109" lon="6.4492">
        <ele>261</ele>
        <time>2017-06-26T09:39:33Z</time>
      </trkpt>
      <trkpt lat="48.5911" lon="6.44923">
        <ele>261</ele>
        <time>2017-06-26T09:39:34Z</time>
      </trkpt>
      <trkpt lat="48.59111" lon="6.44926">
        <ele>261</ele>
        <time>2017-06-26T09:39:35Z</time>
      </trkpt>
      <trkpt lat="48.59113" lon="6.44929">
        <ele>261</ele>
        <time>2017-06-26T09:39:36Z</time>
      </trkpt>
      <trkpt lat="48.59115" lon="6.44932">
        <ele>261</ele>
        <time>2017-06-26T09:39:37Z</time>
      </trkpt>
      <trkpt lat="48.59117" lon="6.44935">
        <ele>261</ele>
        <time>2017-06-26T09:39:38Z</time>
      </trkpt>
      <trkpt lat="48.59119" lon="6.44938">
        <ele>261</ele>
        <time>2017-06-26T09:39:39Z</time>
      </trkpt>
      <trkpt lat="48.59121" lon="6.44941">
        <ele>261</ele>
        <time>2017-06-26T09:39:40Z</time>
      </trkpt>
      <trkpt lat="48.59123" lon="6.44943">
        <ele>261</ele>
        <time>2017-06-26T09:39:41Z</time>
      </trkpt>
      <trkpt lat="48.59125" lon="6.44945">
        <ele>260</ele>
        <time>2017-06-26T09:39:42Z</time>
      </trkpt>
      <trkpt lat="48.59127" lon="6.44948">
        <ele>260</ele>
        <time>2017-06-26T09:39:43Z</time>
      </trkpt>
      <trkpt lat="48.59129" lon="6.44951">
        <ele>260</ele>
        <time>2017-06-26T09:39:44Z</time>
      </trkpt>
      <trkpt lat="48.5913" lon="6.44954">
        <ele>260</ele>
        <time>2017-06-26T09:39:45Z</time>
      </trkpt>
      <trkpt lat="48.59132" lon="6.44956">
        <ele>260</ele>
        <time>2017-06-26T09:39:46Z</time>
      </trkpt>
      <trkpt lat="48.59134" lon="6.44959">
        <ele>260</ele>
        <time>2017-06-26T09:39:47Z</time>
      </trkpt>
      <trkpt lat="48.59136" lon="6.44962">
        <ele>260</ele>
        <time>2017-06-26T09:39:48Z</time>
      </trkpt>
      <trkpt lat="48.59138" lon="6.44965">
        <ele>260</ele>
        <time>2017-06-26T09:39:49Z</time>
      </trkpt>
      <trkpt lat="48.5914" lon="6.44968">
        <ele>260</ele>
        <time>2017-06-26T09:39:50Z</time>
      </trkpt>
      <trkpt lat="48.59142" lon="6.44971">
        <ele>260</ele>
        <time>2017-06-26T09:39:51Z</time>
      </trkpt>
      <trkpt lat="48.59144" lon="6.44975">
        <ele>260</ele>
        <time>2017-06-26T09:39:52Z</time>
      </trkpt>
      <trkpt lat="48.59146" lon="6.44978">
        <ele>260</ele>
        <time>2017-06-26T09:39:53Z</time>
      </trkpt>
      <trkpt lat="48.59148" lon="6.44981">
        <ele>260</ele>
        <time>2017-06-26T09:39:54Z</time>
      </trkpt>
      <trkpt lat="48.59151" lon="6.44984">
        <ele>260</ele>
        <time>2017-06-26T09:39:55Z</time>
      </trkpt>
      <trkpt lat="48.59153" lon="6.44987">
        <ele>260</ele>
        <time>2017-06-26T09:39:56Z</time>
      </trkpt>
      <trkpt lat="48.59155" lon="6.4499">
        <ele>260</ele>
        <time>2017-06-26T09:39:57Z</time>
      </trkpt>
      <trkpt lat="48.59157" lon="6.44993">
        <ele>260</ele>
        <time>2017-06-26T09:39:58Z</time>
      </trkpt>
      <trkpt lat="48.59159" lon="6.44996">
        <ele>260</ele>
        <time>2017-06-26T09:39:59Z</time>
      </trkpt>
      <trkpt lat="48.59161" lon="6.44999">
        <ele>260</ele>
        <time>2017-06-26T09:40:00Z</time>
      </trkpt>
      <trkpt lat="48.59162" lon="6.45002">
        <ele>260</ele>
        <time>2017-06-26T09:40:01Z</time>
      </trkpt>
      <trkpt lat="48.59164" lon="6.45005">
        <ele>260</ele>
        <time>2017-06-26T09:40:02Z</time>
      </trkpt>
      <trkpt lat="48.59165" lon="6.45009">
        <ele>260</ele>
        <time>2017-06-26T09:40:03Z</time>
      </trkpt>
      <trkpt lat="48.59167" lon="6.45012">
        <ele>260</ele>
        <time>2017-06-26T09:40:04Z</time>
      </trkpt>
      <trkpt lat="48.59169" lon="6.45016">
        <ele>260</ele>
        <time>2017-06-26T09:40:05Z</time>
      </trkpt>
      <trkpt lat="48.5917" lon="6.45018">
        <ele>260</ele>
        <time>2017-06-26T09:40:06Z</time>
      </trkpt>
      <trkpt lat="48.59171" lon="6.45022">
        <ele>260</ele>
        <time>2017-06-26T09:40:07Z</time>
      </trkpt>
      <trkpt lat="48.59173" lon="6.45026">
        <ele>260</ele>
        <time>2017-06-26T09:40:08Z</time>
      </trkpt>
      <trkpt lat="48.59174" lon="6.4503">
        <ele>260</ele>
        <time>2017-06-26T09:40:09Z</time>
      </trkpt>
      <trkpt lat="48.59175" lon="6.45033">
        <ele>260</ele>
        <time>2017-06-26T09:40:10Z</time>
      </trkpt>
      <trkpt lat="48.59176" lon="6.45037">
        <ele>260</ele>
        <time>2017-06-26T09:40:11Z</time>
      </trkpt>
      <trkpt lat="48.59176" lon="6.45041">
        <ele>260</ele>
        <time>2017-06-26T09:40:12Z</time>
      </trkpt>
      <trkpt lat="48.59176" lon="6.45044">
        <ele>260</ele>
        <time>2017-06-26T09:40:13Z</time>
      </trkpt>
      <trkpt lat="48.59176" lon="6.45049">
        <ele>260</ele>
        <time>2017-06-26T09:40:15Z</time>
      </trkpt>
      <trkpt lat="48.59176" lon="6.45052">
        <ele>260</ele>
        <time>2017-06-26T09:40:16Z</time>
      </trkpt>
      <trkpt lat="48.59176" lon="6.45055">
        <ele>260</ele>
        <time>2017-06-26T09:40:17Z</time>
      </trkpt>
      <trkpt lat="48.59177" lon="6.45058">
        <ele>260</ele>
        <time>2017-06-26T09:40:18Z</time>
      </trkpt>
      <trkpt lat="48.59178" lon="6.45063">
        <ele>259</ele>
        <time>2017-06-26T09:40:20Z</time>
      </trkpt>
      <trkpt lat="48.59179" lon="6.45067">
        <ele>260</ele>
        <time>2017-06-26T09:40:22Z</time>
      </trkpt>
      <trkpt lat="48.5918" lon="6.4507">
        <ele>260</ele>
        <time>2017-06-26T09:40:24Z</time>
      </trkpt>
      <trkpt lat="48.5918" lon="6.45074">
        <ele>261</ele>
        <time>2017-06-26T09:40:26Z</time>
      </trkpt>
      <trkpt lat="48.59181" lon="6.45078">
        <ele>261</ele>
        <time>2017-06-26T09:40:28Z</time>
      </trkpt>
      <trkpt lat="48.59183" lon="6.45082">
        <ele>262</ele>
        <time>2017-06-26T09:40:30Z</time>
      </trkpt>
      <trkpt lat="48.59184" lon="6.45085">
        <ele>262</ele>
        <time>2017-06-26T09:40:32Z</time>
      </trkpt>
      <trkpt lat="48.59185" lon="6.45089">
        <ele>263</ele>
        <time>2017-06-26T09:40:34Z</time>
      </trkpt>
      <trkpt lat="48.59186" lon="6.45092">
        <ele>263</ele>
        <time>2017-06-26T09:40:37Z</time>
      </trkpt>
      <trkpt lat="48.59188" lon="6.45094">
        <ele>263</ele>
        <time>2017-06-26T09:40:40Z</time>
      </trkpt>
      <trkpt lat="48.59189" lon="6.45096">
        <ele>264</ele>
        <time>2017-06-26T09:40:42Z</time>
      </trkpt>
      <trkpt lat="48.59191" lon="6.45099">
        <ele>264</ele>
        <time>2017-06-26T09:40:44Z</time>
      </trkpt>
      <trkpt lat="48.59192" lon="6.45102">
        <ele>264</ele>
        <time>2017-06-26T09:40:45Z</time>
      </trkpt>
      <trkpt lat="48.59193" lon="6.45105">
        <ele>264</ele>
        <time>2017-06-26T09:40:46Z</time>
      </trkpt>
      <trkpt lat="48.59194" lon="6.45108">
        <ele>264</ele>
        <time>2017-06-26T09:40:47Z</time>
      </trkpt>
      <trkpt lat="48.59195" lon="6.45111">
        <ele>264</ele>
        <time>2017-06-26T09:40:48Z</time>
      </trkpt>
      <trkpt lat="48.59196" lon="6.45114">
        <ele>263</ele>
        <time>2017-06-26T09:40:49Z</time>
      </trkpt>
      <trkpt lat="48.59197" lon="6.45118">
        <ele>263</ele>
        <time>2017-06-26T09:40:50Z</time>
      </trkpt>
      <trkpt lat="48.59197" lon="6.45122">
        <ele>263</ele>
        <time>2017-06-26T09:40:51Z</time>
      </trkpt>
      <trkpt lat="48.59198" lon="6.45126">
        <ele>263</ele>
        <time>2017-06-26T09:40:52Z</time>
      </trkpt>
      <trkpt lat="48.59199" lon="6.4513">
        <ele>263</ele>
        <time>2017-06-26T09:40:53Z</time>
      </trkpt>
      <trkpt lat="48.59198" lon="6.45133">
        <ele>263</ele>
        <time>2017-06-26T09:40:54Z</time>
      </trkpt>
      <trkpt lat="48.59198" lon="6.45137">
        <ele>264</ele>
        <time>2017-06-26T09:40:55Z</time>
      </trkpt>
      <trkpt lat="48.59197" lon="6.4514">
        <ele>264</ele>
        <time>2017-06-26T09:40:56Z</time>
      </trkpt>
      <trkpt lat="48.59197" lon="6.45142">
        <ele>264</ele>
        <time>2017-06-26T09:40:57Z</time>
      </trkpt>
      <trkpt lat="48.59196" lon="6.45145">
        <ele>264</ele>
        <time>2017-06-26T09:40:58Z</time>
      </trkpt>
      <trkpt lat="48.59195" lon="6.45147">
        <ele>264</ele>
        <time>2017-06-26T09:40:59Z</time>
      </trkpt>
      <trkpt lat="48.59195" lon="6.4515">
        <ele>265</ele>
        <time>2017-06-26T09:41:00Z</time>
      </trkpt>
      <trkpt lat="48.59194" lon="6.45153">
        <ele>265</ele>
        <time>2017-06-26T09:41:01Z</time>
      </trkpt>
      <trkpt lat="48.59193" lon="6.45157">
        <ele>265</ele>
        <time>2017-06-26T09:41:02Z</time>
      </trkpt>
      <trkpt lat="48.59192" lon="6.4516">
        <ele>265</ele>
        <time>2017-06-26T09:41:03Z</time>
      </trkpt>
      <trkpt lat="48.59191" lon="6.45162">
        <ele>265</ele>
        <time>2017-06-26T09:41:04Z</time>
      </trkpt>
      <trkpt lat="48.5919" lon="6.45165">
        <ele>266</ele>
        <time>2017-06-26T09:41:05Z</time>
      </trkpt>
      <trkpt lat="48.59189" lon="6.45167">
        <ele>266</ele>
        <time>2017-06-26T09:41:06Z</time>
      </trkpt>
      <trkpt lat="48.59188" lon="6.4517">
        <ele>266</ele>
        <time>2017-06-26T09:41:07Z</time>
      </trkpt>
      <trkpt lat="48.59187" lon="6.45173">
        <ele>266</ele>
        <time>2017-06-26T09:41:08Z</time>
      </trkpt>
      <trkpt lat="48.59186" lon="6.45176">
        <ele>266</ele>
        <time>2017-06-26T09:41:09Z</time>
      </trkpt>
      <trkpt lat="48.59186" lon="6.45179">
        <ele>266</ele>
        <time>2017-06-26T09:41:10Z</time>
      </trkpt>
      <trkpt lat="48.59185" lon="6.45182">
        <ele>266</ele>
        <time>2017-06-26T09:41:11Z</time>
      </trkpt>
      <trkpt lat="48.59184" lon="6.45186">
        <ele>267</ele>
        <time>2017-06-26T09:41:12Z</time>
      </trkpt>
      <trkpt lat="48.59183" lon="6.45189">
        <ele>267</ele>
        <time>2017-06-26T09:41:13Z</time>
      </trkpt>
      <trkpt lat="48.59183" lon="6.45192">
        <ele>267</ele>
        <time>2017-06-26T09:41:14Z</time>
      </trkpt>
      <trkpt lat="48.59182" lon="6.45195">
        <ele>267</ele>
        <time>2017-06-26T09:41:15Z</time>
      </trkpt>
      <trkpt lat="48.59182" lon="6.45198">
        <ele>267</ele>
        <time>2017-06-26T09:41:16Z</time>
      </trkpt>
      <trkpt lat="48.59182" lon="6.45202">
        <ele>267</ele>
        <time>2017-06-26T09:41:17Z</time>
      </trkpt>
      <trkpt lat="48.59181" lon="6.45205">
        <ele>268</ele>
        <time>2017-06-26T09:41:18Z</time>
      </trkpt>
      <trkpt lat="48.5918" lon="6.45207">
        <ele>268</ele>
        <time>2017-06-26T09:41:19Z</time>
      </trkpt>
      <trkpt lat="48.59178" lon="6.45209">
        <ele>268</ele>
        <time>2017-06-26T09:41:20Z</time>
      </trkpt>
      <trkpt lat="48.59175" lon="6.4521">
        <ele>268</ele>
        <time>2017-06-26T09:41:21Z</time>
      </trkpt>
      <trkpt lat="48.59173" lon="6.45212">
        <ele>268</ele>
        <time>2017-06-26T09:41:22Z</time>
      </trkpt>
      <trkpt lat="48.59171" lon="6.45213">
        <ele>269</ele>
        <time>2017-06-26T09:41:23Z</time>
      </trkpt>
      <trkpt lat="48.59168" lon="6.45216">
        <ele>268</ele>
        <time>2017-06-26T09:41:25Z</time>
      </trkpt>
      <trkpt lat="48.59166" lon="6.45219">
        <ele>269</ele>
        <time>2017-06-26T09:41:27Z</time>
      </trkpt>
      <trkpt lat="48.59164" lon="6.45221">
        <ele>269</ele>
        <time>2017-06-26T09:41:28Z</time>
      </trkpt>
      <trkpt lat="48.59164" lon="6.45225">
        <ele>270</ele>
        <time>2017-06-26T09:41:30Z</time>
      </trkpt>
      <trkpt lat="48.59164" lon="6.45229">
        <ele>270</ele>
        <time>2017-06-26T09:41:32Z</time>
      </trkpt>
      <trkpt lat="48.59163" lon="6.45234">
        <ele>270</ele>
        <time>2017-06-26T09:41:34Z</time>
      </trkpt>
      <trkpt lat="48.59162" lon="6.45237">
        <ele>271</ele>
        <time>2017-06-26T09:41:36Z</time>
      </trkpt>
      <trkpt lat="48.59161" lon="6.4524">
        <ele>271</ele>
        <time>2017-06-26T09:41:38Z</time>
      </trkpt>
      <trkpt lat="48.59159" lon="6.45243">
        <ele>271</ele>
        <time>2017-06-26T09:41:40Z</time>
      </trkpt>
      <trkpt lat="48.59156" lon="6.45244">
        <ele>271</ele>
        <time>2017-06-26T09:41:41Z</time>
      </trkpt>
      <trkpt lat="48.59154" lon="6.45244">
        <ele>270</ele>
        <time>2017-06-26T09:41:42Z</time>
      </trkpt>
      <trkpt lat="48.59151" lon="6.45245">
        <ele>270</ele>
        <time>2017-06-26T09:41:43Z</time>
      </trkpt>
      <trkpt lat="48.59148" lon="6.45246">
        <ele>270</ele>
        <time>2017-06-26T09:41:44Z</time>
      </trkpt>
      <trkpt lat="48.59146" lon="6.45247">
        <ele>270</ele>
        <time>2017-06-26T09:41:45Z</time>
      </trkpt>
      <trkpt lat="48.59145" lon="6.45248">
        <ele>270</ele>
        <time>2017-06-26T09:41:46Z</time>
      </trkpt>
      <trkpt lat="48.59143" lon="6.45249">
        <ele>270</ele>
        <time>2017-06-26T09:41:47Z</time>
      </trkpt>
      <trkpt lat="48.59142" lon="6.4525">
        <ele>270</ele>
        <time>2017-06-26T09:41:48Z</time>
      </trkpt>
      <trkpt lat="48.5914" lon="6.45253">
        <ele>270</ele>
        <time>2017-06-26T09:41:50Z</time>
      </trkpt>
      <trkpt lat="48.59139" lon="6.45257">
        <ele>271</ele>
        <time>2017-06-26T09:41:52Z</time>
      </trkpt>
      <trkpt lat="48.59137" lon="6.45261">
        <ele>272</ele>
        <time>2017-06-26T09:41:54Z</time>
      </trkpt>
      <trkpt lat="48.59134" lon="6.45264">
        <ele>272</ele>
        <time>2017-06-26T09:41:56Z</time>
      </trkpt>
      <trkpt lat="48.59133" lon="6.45266">
        <ele>272</ele>
        <time>2017-06-26T09:41:57Z</time>
      </trkpt>
      <trkpt lat="48.59131" lon="6.45268">
        <ele>273</ele>
        <time>2017-06-26T09:41:58Z</time>
      </trkpt>
      <trkpt lat="48.59128" lon="6.4527">
        <ele>273</ele>
        <time>2017-06-26T09:42:00Z</time>
      </trkpt>
      <trkpt lat="48.59126" lon="6.45271">
        <ele>273</ele>
        <time>2017-06-26T09:42:01Z</time>
      </trkpt>
      <trkpt lat="48.59125" lon="6.45271">
        <ele>273</ele>
        <time>2017-06-26T09:42:02Z</time>
      </trkpt>
      <trkpt lat="48.59123" lon="6.45272">
        <ele>274</ele>
        <time>2017-06-26T09:42:03Z</time>
      </trkpt>
      <trkpt lat="48.59121" lon="6.45273">
        <ele>274</ele>
        <time>2017-06-26T09:42:04Z</time>
      </trkpt>
      <trkpt lat="48.59119" lon="6.45274">
        <ele>274</ele>
        <time>2017-06-26T09:42:05Z</time>
      </trkpt>
      <trkpt lat="48.59116" lon="6.45275">
        <ele>274</ele>
        <time>2017-06-26T09:42:07Z</time>
      </trkpt>
      <trkpt lat="48.59113" lon="6.45276">
        <ele>274</ele>
        <time>2017-06-26T09:42:09Z</time>
      </trkpt>
      <trkpt lat="48.59111" lon="6.45276">
        <ele>274</ele>
        <time>2017-06-26T09:42:10Z</time>
      </trkpt>
      <trkpt lat="48.59108" lon="6.45277">
        <ele>274</ele>
        <time>2017-06-26T09:42:12Z</time>
      </trkpt>
      <trkpt lat="48.59106" lon="6.45278">
        <ele>274</ele>
        <time>2017-06-26T09:42:13Z</time>
      </trkpt>
      <trkpt lat="48.59103" lon="6.45279">
        <ele>274</ele>
        <time>2017-06-26T09:42:15Z</time>
      </trkpt>
      <trkpt lat="48.59101" lon="6.4528">
        <ele>274</ele>
        <time>2017-06-26T09:42:16Z</time>
      </trkpt>
      <trkpt lat="48.59099" lon="6.45281">
        <ele>274</ele>
        <time>2017-06-26T09:42:17Z</time>
      </trkpt>
      <trkpt lat="48.59097" lon="6.45282">
        <ele>274</ele>
        <time>2017-06-26T09:42:18Z</time>
      </trkpt>
      <trkpt lat="48.59095" lon="6.45282">
        <ele>274</ele>
        <time>2017-06-26T09:42:19Z</time>
      </trkpt>
      <trkpt lat="48.59093" lon="6.45283">
        <ele>274</ele>
        <time>2017-06-26T09:42:20Z</time>
      </trkpt>
      <trkpt lat="48.5909" lon="6.45284">
        <ele>274</ele>
        <time>2017-06-26T09:42:21Z</time>
      </trkpt>
      <trkpt lat="48.59088" lon="6.45284">
        <ele>274</ele>
        <time>2017-06-26T09:42:22Z</time>
      </trkpt>
      <trkpt lat="48.59087" lon="6.45286">
        <ele>274</ele>
        <time>2017-06-26T09:42:23Z</time>
      </trkpt>
      <trkpt lat="48.59085" lon="6.45288">
        <ele>274</ele>
        <time>2017-06-26T09:42:24Z</time>
      </trkpt>
      <trkpt lat="48.59083" lon="6.45289">
        <ele>274</ele>
        <time>2017-06-26T09:42:25Z</time>
      </trkpt>
      <trkpt lat="48.5908" lon="6.4529">
        <ele>274</ele>
        <time>2017-06-26T09:42:26Z</time>
      </trkpt>
      <trkpt lat="48.59078" lon="6.45291">
        <ele>274</ele>
        <time>2017-06-26T09:42:27Z</time>
      </trkpt>
      <trkpt lat="48.59075" lon="6.45292">
        <ele>274</ele>
        <time>2017-06-26T09:42:28Z</time>
      </trkpt>
      <trkpt lat="48.59073" lon="6.45293">
        <ele>274</ele>
        <time>2017-06-26T09:42:29Z</time>
      </trkpt>
      <trkpt lat="48.59071" lon="6.45294">
        <ele>274</ele>
        <time>2017-06-26T09:42:30Z</time>
      </trkpt>
      <trkpt lat="48.59068" lon="6.45296">
        <ele>274</ele>
        <time>2017-06-26T09:42:31Z</time>
      </trkpt>
      <trkpt lat="48.59065" lon="6.45298">
        <ele>274</ele>
        <time>2017-06-26T09:42:32Z</time>
      </trkpt>
      <trkpt lat="48.59062" lon="6.45299">
        <ele>274</ele>
        <time>2017-06-26T09:42:33Z</time>
      </trkpt>
      <trkpt lat="48.5906" lon="6.453">
        <ele>274</ele>
        <time>2017-06-26T09:42:34Z</time>
      </trkpt>
      <trkpt lat="48.59058" lon="6.45302">
        <ele>274</ele>
        <time>2017-06-26T09:42:35Z</time>
      </trkpt>
      <trkpt lat="48.59056" lon="6.45303">
        <ele>274</ele>
        <time>2017-06-26T09:42:36Z</time>
      </trkpt>
      <trkpt lat="48.59054" lon="6.45304">
        <ele>274</ele>
        <time>2017-06-26T09:42:37Z</time>
      </trkpt>
      <trkpt lat="48.59051" lon="6.45306">
        <ele>275</ele>
        <time>2017-06-26T09:42:39Z</time>
      </trkpt>
      <trkpt lat="48.59049" lon="6.45307">
        <ele>275</ele>
        <time>2017-06-26T09:42:40Z</time>
      </trkpt>
      <trkpt lat="48.59046" lon="6.45307">
        <ele>276</ele>
        <time>2017-06-26T09:42:41Z</time>
      </trkpt>
      <trkpt lat="48.59044" lon="6.45308">
        <ele>276</ele>
        <time>2017-06-26T09:42:42Z</time>
      </trkpt>
      <trkpt lat="48.59041" lon="6.45308">
        <ele>276</ele>
        <time>2017-06-26T09:42:43Z</time>
      </trkpt>
      <trkpt lat="48.59039" lon="6.45309">
        <ele>276</ele>
        <time>2017-06-26T09:42:44Z</time>
      </trkpt>
      <trkpt lat="48.59037" lon="6.4531">
        <ele>276</ele>
        <time>2017-06-26T09:42:45Z</time>
      </trkpt>
      <trkpt lat="48.59035" lon="6.45313">
        <ele>277</ele>
        <time>2017-06-26T09:42:47Z</time>
      </trkpt>
      <trkpt lat="48.59033" lon="6.45316">
        <ele>277</ele>
        <time>2017-06-26T09:42:49Z</time>
      </trkpt>
      <trkpt lat="48.59031" lon="6.45318">
        <ele>278</ele>
        <time>2017-06-26T09:42:51Z</time>
      </trkpt>
      <trkpt lat="48.59029" lon="6.45321">
        <ele>278</ele>
        <time>2017-06-26T09:42:53Z</time>
      </trkpt>
      <trkpt lat="48.59027" lon="6.45323">
        <ele>279</ele>
        <time>2017-06-26T09:42:55Z</time>
      </trkpt>
      <trkpt lat="48.59024" lon="6.45324">
        <ele>279</ele>
        <time>2017-06-26T09:42:57Z</time>
      </trkpt>
      <trkpt lat="48.59021" lon="6.45325">
        <ele>280</ele>
        <time>2017-06-26T09:42:59Z</time>
      </trkpt>
      <trkpt lat="48.59019" lon="6.45326">
        <ele>280</ele>
        <time>2017-06-26T09:43:01Z</time>
      </trkpt>
      <trkpt lat="48.59017" lon="6.45327">
        <ele>280</ele>
        <time>2017-06-26T09:43:03Z</time>
      </trkpt>
      <trkpt lat="48.59014" lon="6.45329">
        <ele>280</ele>
        <time>2017-06-26T09:43:05Z</time>
      </trkpt>
      <trkpt lat="48.59012" lon="6.45329">
        <ele>281</ele>
        <time>2017-06-26T09:43:07Z</time>
      </trkpt>
      <trkpt lat="48.5901" lon="6.45331">
        <ele>281</ele>
        <time>2017-06-26T09:43:09Z</time>
      </trkpt>
      <trkpt lat="48.59008" lon="6.45333">
        <ele>281</ele>
        <time>2017-06-26T09:43:11Z</time>
      </trkpt>
      <trkpt lat="48.59009" lon="6.45336">
        <ele>281</ele>
        <time>2017-06-26T09:43:13Z</time>
      </trkpt>
      <trkpt lat="48.5901" lon="6.45339">
        <ele>281</ele>
        <time>2017-06-26T09:43:15Z</time>
      </trkpt>
      <trkpt lat="48.59013" lon="6.45342">
        <ele>281</ele>
        <time>2017-06-26T09:43:17Z</time>
      </trkpt>
      <trkpt lat="48.59015" lon="6.45345">
        <ele>282</ele>
        <time>2017-06-26T09:43:18Z</time>
      </trkpt>
      <trkpt lat="48.59017" lon="6.45347">
        <ele>282</ele>
        <time>2017-06-26T09:43:19Z</time>
      </trkpt>
      <trkpt lat="48.59019" lon="6.45349">
        <ele>282</ele>
        <time>2017-06-26T09:43:20Z</time>
      </trkpt>
      <trkpt lat="48.59021" lon="6.45351">
        <ele>282</ele>
        <time>2017-06-26T09:43:21Z</time>
      </trkpt>
      <trkpt lat="48.59023" lon="6.45354">
        <ele>282</ele>
        <time>2017-06-26T09:43:22Z</time>
      </trkpt>
      <trkpt lat="48.59025" lon="6.45356">
        <ele>282</ele>
        <time>2017-06-26T09:43:23Z</time>
      </trkpt>
      <trkpt lat="48.59027" lon="6.45358">
        <ele>282</ele>
        <time>2017-06-26T09:43:24Z</time>
      </trkpt>
      <trkpt lat="48.59029" lon="6.45361">
        <ele>282</ele>
        <time>2017-06-26T09:43:25Z</time>
      </trkpt>
      <trkpt lat="48.59031" lon="6.45363">
        <ele>282</ele>
        <time>2017-06-26T09:43:26Z</time>
      </trkpt>
      <trkpt lat="48.59033" lon="6.45366">
        <ele>282</ele>
        <time>2017-06-26T09:43:27Z</time>
      </trkpt>
      <trkpt lat="48.59035" lon="6.45369">
        <ele>282</ele>
        <time>2017-06-26T09:43:28Z</time>
      </trkpt>
      <trkpt lat="48.59037" lon="6.45372">
        <ele>283</ele>
        <time>2017-06-26T09:43:29Z</time>
      </trkpt>
      <trkpt lat="48.59039" lon="6.45374">
        <ele>283</ele>
        <time>2017-06-26T09:43:30Z</time>
      </trkpt>
      <trkpt lat="48.59041" lon="6.45377">
        <ele>283</ele>
        <time>2017-06-26T09:43:31Z</time>
      </trkpt>
      <trkpt lat="48.59043" lon="6.4538">
        <ele>283</ele>
        <time>2017-06-26T09:43:32Z</time>
      </trkpt>
      <trkpt lat="48.59045" lon="6.45382">
        <ele>282</ele>
        <time>2017-06-26T09:43:33Z</time>
      </trkpt>
      <trkpt lat="48.59047" lon="6.45385">
        <ele>282</ele>
        <time>2017-06-26T09:43:34Z</time>
      </trkpt>
      <trkpt lat="48.59049" lon="6.45388">
        <ele>282</ele>
        <time>2017-06-26T09:43:35Z</time>
      </trkpt>
      <trkpt lat="48.59051" lon="6.4539">
        <ele>283</ele>
        <time>2017-06-26T09:43:36Z</time>
      </trkpt>
      <trkpt lat="48.59053" lon="6.45393">
        <ele>283</ele>
        <time>2017-06-26T09:43:37Z</time>
      </trkpt>
      <trkpt lat="48.59056" lon="6.45396">
        <ele>283</ele>
        <time>2017-06-26T09:43:38Z</time>
      </trkpt>
      <trkpt lat="48.59058" lon="6.45399">
        <ele>283</ele>
        <time>2017-06-26T09:43:39Z</time>
      </trkpt>
      <trkpt lat="48.5906" lon="6.45401">
        <ele>283</ele>
        <time>2017-06-26T09:43:40Z</time>
      </trkpt>
      <trkpt lat="48.59061" lon="6.45404">
        <ele>283</ele>
        <time>2017-06-26T09:43:41Z</time>
      </trkpt>
      <trkpt lat="48.59063" lon="6.45406">
        <ele>283</ele>
        <time>2017-06-26T09:43:42Z</time>
      </trkpt>
      <trkpt lat="48.59064" lon="6.45409">
        <ele>283</ele>
        <time>2017-06-26T09:43:43Z</time>
      </trkpt>
      <trkpt lat="48.59066" lon="6.45412">
        <ele>283</ele>
        <time>2017-06-26T09:43:44Z</time>
      </trkpt>
      <trkpt lat="48.59067" lon="6.45414">
        <ele>283</ele>
        <time>2017-06-26T09:43:45Z</time>
      </trkpt>
      <trkpt lat="48.59069" lon="6.45417">
        <ele>283</ele>
        <time>2017-06-26T09:43:46Z</time>
      </trkpt>
      <trkpt lat="48.59071" lon="6.4542">
        <ele>282</ele>
        <time>2017-06-26T09:43:47Z</time>
      </trkpt>
      <trkpt lat="48.59073" lon="6.45423">
        <ele>282</ele>
        <time>2017-06-26T09:43:48Z</time>
      </trkpt>
      <trkpt lat="48.59075" lon="6.45426">
        <ele>282</ele>
        <time>2017-06-26T09:43:49Z</time>
      </trkpt>
      <trkpt lat="48.59076" lon="6.45429">
        <ele>282</ele>
        <time>2017-06-26T09:43:50Z</time>
      </trkpt>
      <trkpt lat="48.59079" lon="6.45432">
        <ele>282</ele>
        <time>2017-06-26T09:43:51Z</time>
      </trkpt>
      <trkpt lat="48.5908" lon="6.45435">
        <ele>282</ele>
        <time>2017-06-26T09:43:52Z</time>
      </trkpt>
      <trkpt lat="48.59083" lon="6.45438">
        <ele>282</ele>
        <time>2017-06-26T09:43:53Z</time>
      </trkpt>
      <trkpt lat="48.59085" lon="6.45441">
        <ele>282</ele>
        <time>2017-06-26T09:43:54Z</time>
      </trkpt>
      <trkpt lat="48.59087" lon="6.45445">
        <ele>281</ele>
        <time>2017-06-26T09:43:55Z</time>
      </trkpt>
      <trkpt lat="48.59089" lon="6.45447">
        <ele>281</ele>
        <time>2017-06-26T09:43:56Z</time>
      </trkpt>
      <trkpt lat="48.59092" lon="6.4545">
        <ele>281</ele>
        <time>2017-06-26T09:43:57Z</time>
      </trkpt>
      <trkpt lat="48.59094" lon="6.45453">
        <ele>281</ele>
        <time>2017-06-26T09:43:58Z</time>
      </trkpt>
      <trkpt lat="48.59096" lon="6.45456">
        <ele>281</ele>
        <time>2017-06-26T09:43:59Z</time>
      </trkpt>
      <trkpt lat="48.59098" lon="6.45459">
        <ele>281</ele>
        <time>2017-06-26T09:44:00Z</time>
      </trkpt>
      <trkpt lat="48.591" lon="6.45462">
        <ele>281</ele>
        <time>2017-06-26T09:44:01Z</time>
      </trkpt>
      <trkpt lat="48.59102" lon="6.45464">
        <ele>281</ele>
        <time>2017-06-26T09:44:02Z</time>
      </trkpt>
      <trkpt lat="48.59104" lon="6.45467">
        <ele>281</ele>
        <time>2017-06-26T09:44:03Z</time>
      </trkpt>
      <trkpt lat="48.59106" lon="6.4547">
        <ele>280</ele>
        <time>2017-06-26T09:44:04Z</time>
      </trkpt>
      <trkpt lat="48.59108" lon="6.45472">
        <ele>280</ele>
        <time>2017-06-26T09:44:05Z</time>
      </trkpt>
      <trkpt lat="48.5911" lon="6.45476">
        <ele>281</ele>
        <time>2017-06-26T09:44:06Z</time>
      </trkpt>
      <trkpt lat="48.59112" lon="6.45479">
        <ele>281</ele>
        <time>2017-06-26T09:44:07Z</time>
      </trkpt>
      <trkpt lat="48.59114" lon="6.45481">
        <ele>280</ele>
        <time>2017-06-26T09:44:08Z</time>
      </trkpt>
      <trkpt lat="48.59116" lon="6.45484">
        <ele>280</ele>
        <time>2017-06-26T09:44:09Z</time>
      </trkpt>
      <trkpt lat="48.59118" lon="6.45487">
        <ele>280</ele>
        <time>2017-06-26T09:44:10Z</time>
      </trkpt>
      <trkpt lat="48.5912" lon="6.4549">
        <ele>280</ele>
        <time>2017-06-26T09:44:11Z</time>
      </trkpt>
      <trkpt lat="48.59122" lon="6.45493">
        <ele>281</ele>
        <time>2017-06-26T09:44:12Z</time>
      </trkpt>
      <trkpt lat="48.59124" lon="6.45496">
        <ele>281</ele>
        <time>2017-06-26T09:44:13Z</time>
      </trkpt>
      <trkpt lat="48.59126" lon="6.45499">
        <ele>281</ele>
        <time>2017-06-26T09:44:14Z</time>
      </trkpt>
      <trkpt lat="48.59128" lon="6.45502">
        <ele>281</ele>
        <time>2017-06-26T09:44:15Z</time>
      </trkpt>
      <trkpt lat="48.5913" lon="6.45505">
        <ele>281</ele>
        <time>2017-06-26T09:44:16Z</time>
      </trkpt>
      <trkpt lat="48.59133" lon="6.45508">
        <ele>281</ele>
        <time>2017-06-26T09:44:17Z</time>
      </trkpt>
      <trkpt lat="48.59135" lon="6.45511">
        <ele>281</ele>
        <time>2017-06-26T09:44:18Z</time>
      </trkpt>
      <trkpt lat="48.59138" lon="6.45513">
        <ele>281</ele>
        <time>2017-06-26T09:44:19Z</time>
      </trkpt>
      <trkpt lat="48.5914" lon="6.45516">
        <ele>281</ele>
        <time>2017-06-26T09:44:20Z</time>
      </trkpt>
      <trkpt lat="48.59143" lon="6.45518">
        <ele>281</ele>
        <time>2017-06-26T09:44:21Z</time>
      </trkpt>
      <trkpt lat="48.59146" lon="6.45521">
        <ele>281</ele>
        <time>2017-06-26T09:44:22Z</time>
      </trkpt>
      <trkpt lat="48.59147" lon="6.45524">
        <ele>281</ele>
        <time>2017-06-26T09:44:23Z</time>
      </trkpt>
      <trkpt lat="48.59149" lon="6.45527">
        <ele>281</ele>
        <time>2017-06-26T09:44:24Z</time>
      </trkpt>
      <trkpt lat="48.59151" lon="6.45529">
        <ele>282</ele>
        <time>2017-06-26T09:44:25Z</time>
      </trkpt>
      <trkpt lat="48.59153" lon="6.45532">
        <ele>282</ele>
        <time>2017-06-26T09:44:26Z</time>
      </trkpt>
      <trkpt lat="48.59154" lon="6.45535">
        <ele>282</ele>
        <time>2017-06-26T09:44:27Z</time>
      </trkpt>
      <trkpt lat="48.59157" lon="6.45538">
        <ele>283</ele>
        <time>2017-06-26T09:44:28Z</time>
      </trkpt>
      <trkpt lat="48.59159" lon="6.45541">
        <ele>283</ele>
        <time>2017-06-26T09:44:29Z</time>
      </trkpt>
      <trkpt lat="48.59161" lon="6.45544">
        <ele>283</ele>
        <time>2017-06-26T09:44:30Z</time>
      </trkpt>
      <trkpt lat="48.59162" lon="6.45547">
        <ele>283</ele>
        <time>2017-06-26T09:44:31Z</time>
      </trkpt>
      <trkpt lat="48.59164" lon="6.4555">
        <ele>283</ele>
        <time>2017-06-26T09:44:32Z</time>
      </trkpt>
      <trkpt lat="48.59166" lon="6.45552">
        <ele>283</ele>
        <time>2017-06-26T09:44:33Z</time>
      </trkpt>
      <trkpt lat="48.59168" lon="6.45555">
        <ele>283</ele>
        <time>2017-06-26T09:44:34Z</time>
      </trkpt>
      <trkpt lat="48.59169" lon="6.45557">
        <ele>284</ele>
        <time>2017-06-26T09:44:35Z</time>
      </trkpt>
      <trkpt lat="48.59171" lon="6.4556">
        <ele>284</ele>
        <time>2017-06-26T09:44:36Z</time>
      </trkpt>
      <trkpt lat="48.59173" lon="6.45562">
        <ele>284</ele>
        <time>2017-06-26T09:44:37Z</time>
      </trkpt>
      <trkpt lat="48.59175" lon="6.45564">
        <ele>284</ele>
        <time>2017-06-26T09:44:38Z</time>
      </trkpt>
      <trkpt lat="48.59177" lon="6.45567">
        <ele>284</ele>
        <time>2017-06-26T09:44:39Z</time>
      </trkpt>
      <trkpt lat="48.59179" lon="6.4557">
        <ele>284</ele>
        <time>2017-06-26T09:44:40Z</time>
      </trkpt>
      <trkpt lat="48.59181" lon="6.45573">
        <ele>284</ele>
        <time>2017-06-26T09:44:41Z</time>
      </trkpt>
      <trkpt lat="48.59182" lon="6.45577">
        <ele>284</ele>
        <time>2017-06-26T09:44:42Z</time>
      </trkpt>
      <trkpt lat="48.59184" lon="6.45581">
        <ele>284</ele>
        <time>2017-06-26T09:44:43Z</time>
      </trkpt>
      <trkpt lat="48.59185" lon="6.45585">
        <ele>284</ele>
        <time>2017-06-26T09:44:44Z</time>
      </trkpt>
      <trkpt lat="48.59185" lon="6.45589">
        <ele>284</ele>
        <time>2017-06-26T09:44:45Z</time>
      </trkpt>
      <trkpt lat="48.59184" lon="6.45592">
        <ele>284</ele>
        <time>2017-06-26T09:44:46Z</time>
      </trkpt>
      <trkpt lat="48.59183" lon="6.45594">
        <ele>285</ele>
        <time>2017-06-26T09:44:47Z</time>
      </trkpt>
      <trkpt lat="48.59181" lon="6.45597">
        <ele>285</ele>
        <time>2017-06-26T09:44:48Z</time>
      </trkpt>
      <trkpt lat="48.5918" lon="6.456">
        <ele>285</ele>
        <time>2017-06-26T09:44:49Z</time>
      </trkpt>
      <trkpt lat="48.59179" lon="6.45603">
        <ele>285</ele>
        <time>2017-06-26T09:44:50Z</time>
      </trkpt>
      <trkpt lat="48.59177" lon="6.45607">
        <ele>286</ele>
        <time>2017-06-26T09:44:51Z</time>
      </trkpt>
      <trkpt lat="48.59175" lon="6.45609">
        <ele>286</ele>
        <time>2017-06-26T09:44:52Z</time>
      </trkpt>
      <trkpt lat="48.59174" lon="6.45612">
        <ele>286</ele>
        <time>2017-06-26T09:44:53Z</time>
      </trkpt>
      <trkpt lat="48.59173" lon="6.45614">
        <ele>286</ele>
        <time>2017-06-26T09:44:54Z</time>
      </trkpt>
      <trkpt lat="48.59172" lon="6.45616">
        <ele>286</ele>
        <time>2017-06-26T09:44:55Z</time>
      </trkpt>
      <trkpt lat="48.59171" lon="6.45619">
        <ele>286</ele>
        <time>2017-06-26T09:44:56Z</time>
      </trkpt>
      <trkpt lat="48.5917" lon="6.45621">
        <ele>286</ele>
        <time>2017-06-26T09:44:57Z</time>
      </trkpt>
      <trkpt lat="48.59168" lon="6.45623">
        <ele>287</ele>
        <time>2017-06-26T09:44:58Z</time>
      </trkpt>
      <trkpt lat="48.59167" lon="6.45625">
        <ele>287</ele>
        <time>2017-06-26T09:44:59Z</time>
      </trkpt>
      <trkpt lat="48.59165" lon="6.45629">
        <ele>286</ele>
        <time>2017-06-26T09:45:01Z</time>
      </trkpt>
      <trkpt lat="48.59163" lon="6.45632">
        <ele>287</ele>
        <time>2017-06-26T09:45:03Z</time>
      </trkpt>
      <trkpt lat="48.59161" lon="6.45635">
        <ele>287</ele>
        <time>2017-06-26T09:45:05Z</time>
      </trkpt>
      <trkpt lat="48.59158" lon="6.45638">
        <ele>287</ele>
        <time>2017-06-26T09:45:07Z</time>
      </trkpt>
      <trkpt lat="48.59157" lon="6.45641">
        <ele>287</ele>
        <time>2017-06-26T09:45:09Z</time>
      </trkpt>
      <trkpt lat="48.59155" lon="6.45644">
        <ele>287</ele>
        <time>2017-06-26T09:45:10Z</time>
      </trkpt>
      <trkpt lat="48.59153" lon="6.45646">
        <ele>287</ele>
        <time>2017-06-26T09:45:11Z</time>
      </trkpt>
      <trkpt lat="48.59152" lon="6.45649">
        <ele>288</ele>
        <time>2017-06-26T09:45:13Z</time>
      </trkpt>
      <trkpt lat="48.5915" lon="6.45653">
        <ele>288</ele>
        <time>2017-06-26T09:45:15Z</time>
      </trkpt>
      <trkpt lat="48.59148" lon="6.45655">
        <ele>288</ele>
        <time>2017-06-26T09:45:16Z</time>
      </trkpt>
      <trkpt lat="48.59147" lon="6.45657">
        <ele>288</ele>
        <time>2017-06-26T09:45:17Z</time>
      </trkpt>
      <trkpt lat="48.59146" lon="6.45659">
        <ele>288</ele>
        <time>2017-06-26T09:45:18Z</time>
      </trkpt>
      <trkpt lat="48.59144" lon="6.45664">
        <ele>288</ele>
        <time>2017-06-26T09:45:20Z</time>
      </trkpt>
      <trkpt lat="48.59143" lon="6.45666">
        <ele>288</ele>
        <time>2017-06-26T09:45:21Z</time>
      </trkpt>
      <trkpt lat="48.59141" lon="6.45668">
        <ele>288</ele>
        <time>2017-06-26T09:45:23Z</time>
      </trkpt>
      <trkpt lat="48.59139" lon="6.45672">
        <ele>288</ele>
        <time>2017-06-26T09:45:25Z</time>
      </trkpt>
      <trkpt lat="48.59138" lon="6.45674">
        <ele>288</ele>
        <time>2017-06-26T09:45:26Z</time>
      </trkpt>
      <trkpt lat="48.59137" lon="6.45676">
        <ele>288</ele>
        <time>2017-06-26T09:45:27Z</time>
      </trkpt>
      <trkpt lat="48.59135" lon="6.45678">
        <ele>288</ele>
        <time>2017-06-26T09:45:28Z</time>
      </trkpt>
      <trkpt lat="48.59134" lon="6.45681">
        <ele>288</ele>
        <time>2017-06-26T09:45:29Z</time>
      </trkpt>
      <trkpt lat="48.59133" lon="6.45683">
        <ele>288</ele>
        <time>2017-06-26T09:45:30Z</time>
      </trkpt>
      <trkpt lat="48.5913" lon="6.45686">
        <ele>288</ele>
        <time>2017-06-26T09:45:32Z</time>
      </trkpt>
      <trkpt lat="48.59127" lon="6.45689">
        <ele>288</ele>
        <time>2017-06-26T09:45:34Z</time>
      </trkpt>
      <trkpt lat="48.59126" lon="6.4569">
        <ele>288</ele>
        <time>2017-06-26T09:45:35Z</time>
      </trkpt>
      <trkpt lat="48.59124" lon="6.45692">
        <ele>289</ele>
        <time>2017-06-26T09:45:36Z</time>
      </trkpt>
      <trkpt lat="48.59123" lon="6.45694">
        <ele>288</ele>
        <time>2017-06-26T09:45:37Z</time>
      </trkpt>
      <trkpt lat="48.59121" lon="6.45696">
        <ele>288</ele>
        <time>2017-06-26T09:45:38Z</time>
      </trkpt>
      <trkpt lat="48.5912" lon="6.45698">
        <ele>288</ele>
        <time>2017-06-26T09:45:39Z</time>
      </trkpt>
      <trkpt lat="48.59119" lon="6.457">
        <ele>288</ele>
        <time>2017-06-26T09:45:40Z</time>
      </trkpt>
      <trkpt lat="48.59116" lon="6.45704">
        <ele>288</ele>
        <time>2017-06-26T09:45:42Z</time>
      </trkpt>
      <trkpt lat="48.59115" lon="6.45705">
        <ele>288</ele>
        <time>2017-06-26T09:45:43Z</time>
      </trkpt>
      <trkpt lat="48.59113" lon="6.45707">
        <ele>289</ele>
        <time>2017-06-26T09:45:44Z</time>
      </trkpt>
      <trkpt lat="48.59111" lon="6.4571">
        <ele>289</ele>
        <time>2017-06-26T09:45:46Z</time>
      </trkpt>
      <trkpt lat="48.59109" lon="6.45714">
        <ele>289</ele>
        <time>2017-06-26T09:45:48Z</time>
      </trkpt>
      <trkpt lat="48.59108" lon="6.45718">
        <ele>289</ele>
        <time>2017-06-26T09:45:50Z</time>
      </trkpt>
      <trkpt lat="48.59106" lon="6.45721">
        <ele>290</ele>
        <time>2017-06-26T09:45:52Z</time>
      </trkpt>
      <trkpt lat="48.59104" lon="6.45723">
        <ele>290</ele>
        <time>2017-06-26T09:45:53Z</time>
      </trkpt>
      <trkpt lat="48.59103" lon="6.45725">
        <ele>291</ele>
        <time>2017-06-26T09:45:54Z</time>
      </trkpt>
      <trkpt lat="48.59102" lon="6.45728">
        <ele>291</ele>
        <time>2017-06-26T09:45:55Z</time>
      </trkpt>
      <trkpt lat="48.591" lon="6.4573">
        <ele>291</ele>
        <time>2017-06-26T09:45:56Z</time>
      </trkpt>
      <trkpt lat="48.59099" lon="6.45734">
        <ele>291</ele>
        <time>2017-06-26T09:45:58Z</time>
      </trkpt>
      <trkpt lat="48.59097" lon="6.45737">
        <ele>291</ele>
        <time>2017-06-26T09:46:00Z</time>
      </trkpt>
      <trkpt lat="48.59096" lon="6.45742">
        <ele>292</ele>
        <time>2017-06-26T09:46:02Z</time>
      </trkpt>
      <trkpt lat="48.59095" lon="6.45745">
        <ele>292</ele>
        <time>2017-06-26T09:46:04Z</time>
      </trkpt>
      <trkpt lat="48.59093" lon="6.45749">
        <ele>293</ele>
        <time>2017-06-26T09:46:06Z</time>
      </trkpt>
      <trkpt lat="48.59091" lon="6.45752">
        <ele>293</ele>
        <time>2017-06-26T09:46:09Z</time>
      </trkpt>
      <trkpt lat="48.59089" lon="6.45756">
        <ele>293</ele>
        <time>2017-06-26T09:46:11Z</time>
      </trkpt>
      <trkpt lat="48.59087" lon="6.45757">
        <ele>293</ele>
        <time>2017-06-26T09:46:12Z</time>
      </trkpt>
      <trkpt lat="48.59086" lon="6.45759">
        <ele>293</ele>
        <time>2017-06-26T09:46:13Z</time>
      </trkpt>
      <trkpt lat="48.59084" lon="6.45761">
        <ele>293</ele>
        <time>2017-06-26T09:46:14Z</time>
      </trkpt>
      <trkpt lat="48.59083" lon="6.45763">
        <ele>293</ele>
        <time>2017-06-26T09:46:15Z</time>
      </trkpt>
      <trkpt lat="48.59082" lon="6.45765">
        <ele>293</ele>
        <time>2017-06-26T09:46:16Z</time>
      </trkpt>
      <trkpt lat="48.5908" lon="6.45767">
        <ele>293</ele>
        <time>2017-06-26T09:46:17Z</time>
      </trkpt>
      <trkpt lat="48.59078" lon="6.45771">
        <ele>293</ele>
        <time>2017-06-26T09:46:19Z</time>
      </trkpt>
      <trkpt lat="48.59076" lon="6.45774">
        <ele>293</ele>
        <time>2017-06-26T09:46:21Z</time>
      </trkpt>
      <trkpt lat="48.59074" lon="6.45777">
        <ele>293</ele>
        <time>2017-06-26T09:46:23Z</time>
      </trkpt>
      <trkpt lat="48.59074" lon="6.4578">
        <ele>293</ele>
        <time>2017-06-26T09:46:25Z</time>
      </trkpt>
      <trkpt lat="48.59074" lon="6.45784">
        <ele>294</ele>
        <time>2017-06-26T09:46:27Z</time>
      </trkpt>
      <trkpt lat="48.59077" lon="6.45787">
        <ele>294</ele>
        <time>2017-06-26T09:46:29Z</time>
      </trkpt>
      <trkpt lat="48.59079" lon="6.4579">
        <ele>294</ele>
        <time>2017-06-26T09:46:31Z</time>
      </trkpt>
      <trkpt lat="48.5908" lon="6.45793">
        <ele>293</ele>
        <time>2017-06-26T09:46:33Z</time>
      </trkpt>
      <trkpt lat="48.59081" lon="6.45797">
        <ele>293</ele>
        <time>2017-06-26T09:46:35Z</time>
      </trkpt>
      <trkpt lat="48.59083" lon="6.45801">
        <ele>293</ele>
        <time>2017-06-26T09:46:37Z</time>
      </trkpt>
      <trkpt lat="48.59084" lon="6.45804">
        <ele>293</ele>
        <time>2017-06-26T09:46:39Z</time>
      </trkpt>
      <trkpt lat="48.59086" lon="6.45806">
        <ele>293</ele>
        <time>2017-06-26T09:46:40Z</time>
      </trkpt>
      <trkpt lat="48.59087" lon="6.45809">
        <ele>293</ele>
        <time>2017-06-26T09:46:41Z</time>
      </trkpt>
      <trkpt lat="48.59089" lon="6.45811">
        <ele>293</ele>
        <time>2017-06-26T09:46:42Z</time>
      </trkpt>
      <trkpt lat="48.5909" lon="6.45813">
        <ele>293</ele>
        <time>2017-06-26T09:46:43Z</time>
      </trkpt>
      <trkpt lat="48.59092" lon="6.45815">
        <ele>293</ele>
        <time>2017-06-26T09:46:44Z</time>
      </trkpt>
      <trkpt lat="48.59093" lon="6.45817">
        <ele>293</ele>
        <time>2017-06-26T09:46:45Z</time>
      </trkpt>
      <trkpt lat="48.59094" lon="6.45819">
        <ele>293</ele>
        <time>2017-06-26T09:46:46Z</time>
      </trkpt>
      <trkpt lat="48.59096" lon="6.45821">
        <ele>293</ele>
        <time>2017-06-26T09:46:47Z</time>
      </trkpt>
      <trkpt lat="48.59097" lon="6.45823">
        <ele>293</ele>
        <time>2017-06-26T09:46:48Z</time>
      </trkpt>
      <trkpt lat="48.59099" lon="6.45826">
        <ele>293</ele>
        <time>2017-06-26T09:46:49Z</time>
      </trkpt>
      <trkpt lat="48.59101" lon="6.45828">
        <ele>293</ele>
        <time>2017-06-26T09:46:50Z</time>
      </trkpt>
      <trkpt lat="48.59102" lon="6.4583">
        <ele>293</ele>
        <time>2017-06-26T09:46:51Z</time>
      </trkpt>
      <trkpt lat="48.59104" lon="6.45833">
        <ele>294</ele>
        <time>2017-06-26T09:46:52Z</time>
      </trkpt>
      <trkpt lat="48.59106" lon="6.45836">
        <ele>294</ele>
        <time>2017-06-26T09:46:53Z</time>
      </trkpt>
      <trkpt lat="48.59108" lon="6.45839">
        <ele>294</ele>
        <time>2017-06-26T09:46:54Z</time>
      </trkpt>
      <trkpt lat="48.5911" lon="6.45842">
        <ele>294</ele>
        <time>2017-06-26T09:46:55Z</time>
      </trkpt>
      <trkpt lat="48.59112" lon="6.45844">
        <ele>294</ele>
        <time>2017-06-26T09:46:56Z</time>
      </trkpt>
      <trkpt lat="48.59114" lon="6.45847">
        <ele>294</ele>
        <time>2017-06-26T09:46:57Z</time>
      </trkpt>
      <trkpt lat="48.59116" lon="6.45849">
        <ele>294</ele>
        <time>2017-06-26T09:46:58Z</time>
      </trkpt>
      <trkpt lat="48.59119" lon="6.45851">
        <ele>294</ele>
        <time>2017-06-26T09:46:59Z</time>
      </trkpt>
      <trkpt lat="48.59121" lon="6.45854">
        <ele>294</ele>
        <time>2017-06-26T09:47:00Z</time>
      </trkpt>
      <trkpt lat="48.59123" lon="6.45858">
        <ele>294</ele>
        <time>2017-06-26T09:47:01Z</time>
      </trkpt>
      <trkpt lat="48.59125" lon="6.45861">
        <ele>294</ele>
        <time>2017-06-26T09:47:02Z</time>
      </trkpt>
      <trkpt lat="48.59126" lon="6.45863">
        <ele>294</ele>
        <time>2017-06-26T09:47:03Z</time>
      </trkpt>
      <trkpt lat="48.59128" lon="6.45866">
        <ele>294</ele>
        <time>2017-06-26T09:47:04Z</time>
      </trkpt>
      <trkpt lat="48.59131" lon="6.45869">
        <ele>294</ele>
        <time>2017-06-26T09:47:05Z</time>
      </trkpt>
      <trkpt lat="48.59133" lon="6.45872">
        <ele>294</ele>
        <time>2017-06-26T09:47:06Z</time>
      </trkpt>
      <trkpt lat="48.59136" lon="6.45875">
        <ele>294</ele>
        <time>2017-06-26T09:47:07Z</time>
      </trkpt>
      <trkpt lat="48.59138" lon="6.45878">
        <ele>294</ele>
        <time>2017-06-26T09:47:08Z</time>
      </trkpt>
      <trkpt lat="48.5914" lon="6.45881">
        <ele>294</ele>
        <time>2017-06-26T09:47:09Z</time>
      </trkpt>
      <trkpt lat="48.59142" lon="6.45884">
        <ele>294</ele>
        <time>2017-06-26T09:47:10Z</time>
      </trkpt>
      <trkpt lat="48.59144" lon="6.45887">
        <ele>294</ele>
        <time>2017-06-26T09:47:11Z</time>
      </trkpt>
      <trkpt lat="48.59146" lon="6.4589">
        <ele>294</ele>
        <time>2017-06-26T09:47:12Z</time>
      </trkpt>
      <trkpt lat="48.59148" lon="6.45892">
        <ele>295</ele>
        <time>2017-06-26T09:47:13Z</time>
      </trkpt>
      <trkpt lat="48.5915" lon="6.45895">
        <ele>295</ele>
        <time>2017-06-26T09:47:14Z</time>
      </trkpt>
      <trkpt lat="48.59152" lon="6.45898">
        <ele>295</ele>
        <time>2017-06-26T09:47:15Z</time>
      </trkpt>
      <trkpt lat="48.59153" lon="6.459">
        <ele>295</ele>
        <time>2017-06-26T09:47:16Z</time>
      </trkpt>
      <trkpt lat="48.59156" lon="6.45904">
        <ele>295</ele>
        <time>2017-06-26T09:47:17Z</time>
      </trkpt>
      <trkpt lat="48.59158" lon="6.45907">
        <ele>294</ele>
        <time>2017-06-26T09:47:18Z</time>
      </trkpt>
      <trkpt lat="48.5916" lon="6.4591">
        <ele>294</ele>
        <time>2017-06-26T09:47:19Z</time>
      </trkpt>
      <trkpt lat="48.59162" lon="6.45913">
        <ele>294</ele>
        <time>2017-06-26T09:47:20Z</time>
      </trkpt>
      <trkpt lat="48.59164" lon="6.45916">
        <ele>294</ele>
        <time>2017-06-26T09:47:21Z</time>
      </trkpt>
      <trkpt lat="48.59166" lon="6.45919">
        <ele>294</ele>
        <time>2017-06-26T09:47:22Z</time>
      </trkpt>
      <trkpt lat="48.59169" lon="6.45922">
        <ele>295</ele>
        <time>2017-06-26T09:47:23Z</time>
      </trkpt>
      <trkpt lat="48.59171" lon="6.45924">
        <ele>295</ele>
        <time>2017-06-26T09:47:24Z</time>
      </trkpt>
      <trkpt lat="48.59173" lon="6.45927">
        <ele>295</ele>
        <time>2017-06-26T09:47:25Z</time>
      </trkpt>
      <trkpt lat="48.59175" lon="6.45929">
        <ele>295</ele>
        <time>2017-06-26T09:47:26Z</time>
      </trkpt>
      <trkpt lat="48.59177" lon="6.45932">
        <ele>295</ele>
        <time>2017-06-26T09:47:27Z</time>
      </trkpt>
      <trkpt lat="48.59179" lon="6.45934">
        <ele>295</ele>
        <time>2017-06-26T09:47:28Z</time>
      </trkpt>
      <trkpt lat="48.59181" lon="6.45937">
        <ele>295</ele>
        <time>2017-06-26T09:47:29Z</time>
      </trkpt>
      <trkpt lat="48.59184" lon="6.4594">
        <ele>295</ele>
        <time>2017-06-26T09:47:30Z</time>
      </trkpt>
      <trkpt lat="48.59186" lon="6.45943">
        <ele>295</ele>
        <time>2017-06-26T09:47:31Z</time>
      </trkpt>
      <trkpt lat="48.59188" lon="6.45946">
        <ele>295</ele>
        <time>2017-06-26T09:47:32Z</time>
      </trkpt>
      <trkpt lat="48.5919" lon="6.4595">
        <ele>295</ele>
        <time>2017-06-26T09:47:33Z</time>
      </trkpt>
      <trkpt lat="48.59193" lon="6.45954">
        <ele>295</ele>
        <time>2017-06-26T09:47:34Z</time>
      </trkpt>
      <trkpt lat="48.59195" lon="6.45957">
        <ele>295</ele>
        <time>2017-06-26T09:47:35Z</time>
      </trkpt>
      <trkpt lat="48.59197" lon="6.4596">
        <ele>295</ele>
        <time>2017-06-26T09:47:36Z</time>
      </trkpt>
      <trkpt lat="48.59198" lon="6.45964">
        <ele>295</ele>
        <time>2017-06-26T09:47:37Z</time>
      </trkpt>
      <trkpt lat="48.592" lon="6.45967">
        <ele>294</ele>
        <time>2017-06-26T09:47:38Z</time>
      </trkpt>
      <trkpt lat="48.59202" lon="6.4597">
        <ele>294</ele>
        <time>2017-06-26T09:47:39Z</time>
      </trkpt>
      <trkpt lat="48.59204" lon="6.45972">
        <ele>294</ele>
        <time>2017-06-26T09:47:40Z</time>
      </trkpt>
      <trkpt lat="48.59206" lon="6.45974">
        <ele>294</ele>
        <time>2017-06-26T09:47:41Z</time>
      </trkpt>
      <trkpt lat="48.59208" lon="6.45976">
        <ele>294</ele>
        <time>2017-06-26T09:47:42Z</time>
      </trkpt>
      <trkpt lat="48.59209" lon="6.4598">
        <ele>294</ele>
        <time>2017-06-26T09:47:43Z</time>
      </trkpt>
      <trkpt lat="48.5921" lon="6.45984">
        <ele>294</ele>
        <time>2017-06-26T09:47:44Z</time>
      </trkpt>
      <trkpt lat="48.5921" lon="6.45988">
        <ele>294</ele>
        <time>2017-06-26T09:47:45Z</time>
      </trkpt>
      <trkpt lat="48.59209" lon="6.45991">
        <ele>294</ele>
        <time>2017-06-26T09:47:46Z</time>
      </trkpt>
      <trkpt lat="48.59207" lon="6.45995">
        <ele>293</ele>
        <time>2017-06-26T09:47:47Z</time>
      </trkpt>
      <trkpt lat="48.59206" lon="6.45999">
        <ele>293</ele>
        <time>2017-06-26T09:47:48Z</time>
      </trkpt>
      <trkpt lat="48.59206" lon="6.46004">
        <ele>293</ele>
        <time>2017-06-26T09:47:49Z</time>
      </trkpt>
      <trkpt lat="48.59206" lon="6.46009">
        <ele>293</ele>
        <time>2017-06-26T09:47:50Z</time>
      </trkpt>
      <trkpt lat="48.59206" lon="6.46013">
        <ele>293</ele>
        <time>2017-06-26T09:47:51Z</time>
      </trkpt>
      <trkpt lat="48.59206" lon="6.46017">
        <ele>293</ele>
        <time>2017-06-26T09:47:52Z</time>
      </trkpt>
      <trkpt lat="48.59207" lon="6.46021">
        <ele>293</ele>
        <time>2017-06-26T09:47:53Z</time>
      </trkpt>
      <trkpt lat="48.59207" lon="6.46025">
        <ele>293</ele>
        <time>2017-06-26T09:47:54Z</time>
      </trkpt>
      <trkpt lat="48.59207" lon="6.46029">
        <ele>293</ele>
        <time>2017-06-26T09:47:55Z</time>
      </trkpt>
      <trkpt lat="48.59208" lon="6.46032">
        <ele>293</ele>
        <time>2017-06-26T09:47:56Z</time>
      </trkpt>
      <trkpt lat="48.59209" lon="6.46036">
        <ele>292</ele>
        <time>2017-06-26T09:47:57Z</time>
      </trkpt>
      <trkpt lat="48.5921" lon="6.4604">
        <ele>292</ele>
        <time>2017-06-26T09:47:58Z</time>
      </trkpt>
      <trkpt lat="48.5921" lon="6.46045">
        <ele>292</ele>
        <time>2017-06-26T09:47:59Z</time>
      </trkpt>
      <trkpt lat="48.59209" lon="6.46049">
        <ele>292</ele>
        <time>2017-06-26T09:48:00Z</time>
      </trkpt>
      <trkpt lat="48.59207" lon="6.46052">
        <ele>292</ele>
        <time>2017-06-26T09:48:01Z</time>
      </trkpt>
      <trkpt lat="48.59205" lon="6.46054">
        <ele>291</ele>
        <time>2017-06-26T09:48:02Z</time>
      </trkpt>
      <trkpt lat="48.59203" lon="6.46055">
        <ele>291</ele>
        <time>2017-06-26T09:48:03Z</time>
      </trkpt>
      <trkpt lat="48.592" lon="6.46056">
        <ele>291</ele>
        <time>2017-06-26T09:48:04Z</time>
      </trkpt>
      <trkpt lat="48.59198" lon="6.46059">
        <ele>291</ele>
        <time>2017-06-26T09:48:05Z</time>
      </trkpt>
      <trkpt lat="48.59196" lon="6.46061">
        <ele>291</ele>
        <time>2017-06-26T09:48:06Z</time>
      </trkpt>
      <trkpt lat="48.59194" lon="6.46065">
        <ele>290</ele>
        <time>2017-06-26T09:48:07Z</time>
      </trkpt>
      <trkpt lat="48.59193" lon="6.46068">
        <ele>290</ele>
        <time>2017-06-26T09:48:08Z</time>
      </trkpt>
      <trkpt lat="48.59191" lon="6.46072">
        <ele>290</ele>
        <time>2017-06-26T09:48:09Z</time>
      </trkpt>
      <trkpt lat="48.59189" lon="6.46075">
        <ele>290</ele>
        <time>2017-06-26T09:48:10Z</time>
      </trkpt>
      <trkpt lat="48.59187" lon="6.46079">
        <ele>290</ele>
        <time>2017-06-26T09:48:11Z</time>
      </trkpt>
      <trkpt lat="48.59186" lon="6.46083">
        <ele>290</ele>
        <time>2017-06-26T09:48:12Z</time>
      </trkpt>
      <trkpt lat="48.59184" lon="6.46087">
        <ele>290</ele>
        <time>2017-06-26T09:48:13Z</time>
      </trkpt>
      <trkpt lat="48.59182" lon="6.4609">
        <ele>290</ele>
        <time>2017-06-26T09:48:14Z</time>
      </trkpt>
      <trkpt lat="48.59179" lon="6.46092">
        <ele>290</ele>
        <time>2017-06-26T09:48:15Z</time>
      </trkpt>
      <trkpt lat="48.59177" lon="6.46095">
        <ele>289</ele>
        <time>2017-06-26T09:48:16Z</time>
      </trkpt>
      <trkpt lat="48.59175" lon="6.46097">
        <ele>289</ele>
        <time>2017-06-26T09:48:17Z</time>
      </trkpt>
      <trkpt lat="48.59172" lon="6.461">
        <ele>289</ele>
        <time>2017-06-26T09:48:18Z</time>
      </trkpt>
      <trkpt lat="48.59169" lon="6.46102">
        <ele>289</ele>
        <time>2017-06-26T09:48:19Z</time>
      </trkpt>
      <trkpt lat="48.59167" lon="6.46105">
        <ele>289</ele>
        <time>2017-06-26T09:48:20Z</time>
      </trkpt>
      <trkpt lat="48.59165" lon="6.46106">
        <ele>289</ele>
        <time>2017-06-26T09:48:21Z</time>
      </trkpt>
      <trkpt lat="48.59163" lon="6.46109">
        <ele>289</ele>
        <time>2017-06-26T09:48:22Z</time>
      </trkpt>
      <trkpt lat="48.59161" lon="6.46111">
        <ele>289</ele>
        <time>2017-06-26T09:48:23Z</time>
      </trkpt>
      <trkpt lat="48.59158" lon="6.46113">
        <ele>289</ele>
        <time>2017-06-26T09:48:24Z</time>
      </trkpt>
      <trkpt lat="48.59157" lon="6.46116">
        <ele>289</ele>
        <time>2017-06-26T09:48:25Z</time>
      </trkpt>
      <trkpt lat="48.59157" lon="6.46119">
        <ele>289</ele>
        <time>2017-06-26T09:48:26Z</time>
      </trkpt>
      <trkpt lat="48.59157" lon="6.46124">
        <ele>289</ele>
        <time>2017-06-26T09:48:27Z</time>
      </trkpt>
      <trkpt lat="48.59157" lon="6.46128">
        <ele>289</ele>
        <time>2017-06-26T09:48:28Z</time>
      </trkpt>
      <trkpt lat="48.59155" lon="6.46132">
        <ele>289</ele>
        <time>2017-06-26T09:48:29Z</time>
      </trkpt>
      <trkpt lat="48.59154" lon="6.46136">
        <ele>289</ele>
        <time>2017-06-26T09:48:30Z</time>
      </trkpt>
      <trkpt lat="48.59153" lon="6.4614">
        <ele>289</ele>
        <time>2017-06-26T09:48:31Z</time>
      </trkpt>
      <trkpt lat="48.59152" lon="6.46142">
        <ele>289</ele>
        <time>2017-06-26T09:48:32Z</time>
      </trkpt>
      <trkpt lat="48.59152" lon="6.46146">
        <ele>289</ele>
        <time>2017-06-26T09:48:33Z</time>
      </trkpt>
      <trkpt lat="48.59151" lon="6.4615">
        <ele>289</ele>
        <time>2017-06-26T09:48:34Z</time>
      </trkpt>
      <trkpt lat="48.5915" lon="6.46154">
        <ele>289</ele>
        <time>2017-06-26T09:48:35Z</time>
      </trkpt>
      <trkpt lat="48.59148" lon="6.46159">
        <ele>289</ele>
        <time>2017-06-26T09:48:36Z</time>
      </trkpt>
      <trkpt lat="48.59147" lon="6.46163">
        <ele>289</ele>
        <time>2017-06-26T09:48:37Z</time>
      </trkpt>
      <trkpt lat="48.59145" lon="6.46168">
        <ele>289</ele>
        <time>2017-06-26T09:48:38Z</time>
      </trkpt>
      <trkpt lat="48.59144" lon="6.46172">
        <ele>289</ele>
        <time>2017-06-26T09:48:39Z</time>
      </trkpt>
      <trkpt lat="48.59143" lon="6.46175">
        <ele>289</ele>
        <time>2017-06-26T09:48:40Z</time>
      </trkpt>
      <trkpt lat="48.59142" lon="6.46178">
        <ele>289</ele>
        <time>2017-06-26T09:48:41Z</time>
      </trkpt>
      <trkpt lat="48.59141" lon="6.46182">
        <ele>290</ele>
        <time>2017-06-26T09:48:42Z</time>
      </trkpt>
      <trkpt lat="48.5914" lon="6.46186">
        <ele>289</ele>
        <time>2017-06-26T09:48:43Z</time>
      </trkpt>
      <trkpt lat="48.59139" lon="6.4619">
        <ele>289</ele>
        <time>2017-06-26T09:48:44Z</time>
      </trkpt>
      <trkpt lat="48.59138" lon="6.46193">
        <ele>289</ele>
        <time>2017-06-26T09:48:45Z</time>
      </trkpt>
      <trkpt lat="48.59137" lon="6.46197">
        <ele>289</ele>
        <time>2017-06-26T09:48:46Z</time>
      </trkpt>
      <trkpt lat="48.59136" lon="6.46201">
        <ele>289</ele>
        <time>2017-06-26T09:48:47Z</time>
      </trkpt>
      <trkpt lat="48.59135" lon="6.46204">
        <ele>289</ele>
        <time>2017-06-26T09:48:48Z</time>
      </trkpt>
      <trkpt lat="48.59135" lon="6.46208">
        <ele>289</ele>
        <time>2017-06-26T09:48:49Z</time>
      </trkpt>
      <trkpt lat="48.59135" lon="6.46213">
        <ele>289</ele>
        <time>2017-06-26T09:48:50Z</time>
      </trkpt>
      <trkpt lat="48.59135" lon="6.46217">
        <ele>289</ele>
        <time>2017-06-26T09:48:51Z</time>
      </trkpt>
      <trkpt lat="48.59134" lon="6.46222">
        <ele>289</ele>
        <time>2017-06-26T09:48:52Z</time>
      </trkpt>
      <trkpt lat="48.59134" lon="6.46227">
        <ele>289</ele>
        <time>2017-06-26T09:48:53Z</time>
      </trkpt>
      <trkpt lat="48.59133" lon="6.46232">
        <ele>289</ele>
        <time>2017-06-26T09:48:54Z</time>
      </trkpt>
      <trkpt lat="48.59132" lon="6.46236">
        <ele>289</ele>
        <time>2017-06-26T09:48:55Z</time>
      </trkpt>
      <trkpt lat="48.59131" lon="6.4624">
        <ele>289</ele>
        <time>2017-06-26T09:48:56Z</time>
      </trkpt>
      <trkpt lat="48.59129" lon="6.46245">
        <ele>289</ele>
        <time>2017-06-26T09:48:57Z</time>
      </trkpt>
      <trkpt lat="48.59128" lon="6.4625">
        <ele>289</ele>
        <time>2017-06-26T09:48:58Z</time>
      </trkpt>
      <trkpt lat="48.59126" lon="6.46254">
        <ele>289</ele>
        <time>2017-06-26T09:48:59Z</time>
      </trkpt>
      <trkpt lat="48.59124" lon="6.46258">
        <ele>289</ele>
        <time>2017-06-26T09:49:00Z</time>
      </trkpt>
      <trkpt lat="48.59122" lon="6.46262">
        <ele>289</ele>
        <time>2017-06-26T09:49:01Z</time>
      </trkpt>
      <trkpt lat="48.5912" lon="6.46266">
        <ele>289</ele>
        <time>2017-06-26T09:49:02Z</time>
      </trkpt>
      <trkpt lat="48.59118" lon="6.46269">
        <ele>289</ele>
        <time>2017-06-26T09:49:03Z</time>
      </trkpt>
      <trkpt lat="48.59116" lon="6.46272">
        <ele>289</ele>
        <time>2017-06-26T09:49:04Z</time>
      </trkpt>
      <trkpt lat="48.59114" lon="6.46275">
        <ele>289</ele>
        <time>2017-06-26T09:49:05Z</time>
      </trkpt>
      <trkpt lat="48.59113" lon="6.46279">
        <ele>289</ele>
        <time>2017-06-26T09:49:06Z</time>
      </trkpt>
      <trkpt lat="48.59111" lon="6.46282">
        <ele>289</ele>
        <time>2017-06-26T09:49:07Z</time>
      </trkpt>
      <trkpt lat="48.5911" lon="6.46286">
        <ele>289</ele>
        <time>2017-06-26T09:49:08Z</time>
      </trkpt>
      <trkpt lat="48.59108" lon="6.46291">
        <ele>289</ele>
        <time>2017-06-26T09:49:09Z</time>
      </trkpt>
      <trkpt lat="48.59106" lon="6.46295">
        <ele>289</ele>
        <time>2017-06-26T09:49:10Z</time>
      </trkpt>
      <trkpt lat="48.59104" lon="6.46298">
        <ele>288</ele>
        <time>2017-06-26T09:49:11Z</time>
      </trkpt>
      <trkpt lat="48.59102" lon="6.46302">
        <ele>288</ele>
        <time>2017-06-26T09:49:12Z</time>
      </trkpt>
      <trkpt lat="48.59099" lon="6.46306">
        <ele>288</ele>
        <time>2017-06-26T09:49:13Z</time>
      </trkpt>
      <trkpt lat="48.59097" lon="6.4631">
        <ele>288</ele>
        <time>2017-06-26T09:49:14Z</time>
      </trkpt>
      <trkpt lat="48.59095" lon="6.46313">
        <ele>288</ele>
        <time>2017-06-26T09:49:15Z</time>
      </trkpt>
      <trkpt lat="48.59093" lon="6.46317">
        <ele>288</ele>
        <time>2017-06-26T09:49:16Z</time>
      </trkpt>
      <trkpt lat="48.5909" lon="6.4632">
        <ele>288</ele>
        <time>2017-06-26T09:49:17Z</time>
      </trkpt>
      <trkpt lat="48.59087" lon="6.46324">
        <ele>288</ele>
        <time>2017-06-26T09:49:18Z</time>
      </trkpt>
      <trkpt lat="48.59085" lon="6.46327">
        <ele>288</ele>
        <time>2017-06-26T09:49:19Z</time>
      </trkpt>
      <trkpt lat="48.59083" lon="6.4633">
        <ele>288</ele>
        <time>2017-06-26T09:49:20Z</time>
      </trkpt>
      <trkpt lat="48.59082" lon="6.46334">
        <ele>288</ele>
        <time>2017-06-26T09:49:21Z</time>
      </trkpt>
      <trkpt lat="48.5908" lon="6.46338">
        <ele>287</ele>
        <time>2017-06-26T09:49:22Z</time>
      </trkpt>
      <trkpt lat="48.59078" lon="6.46341">
        <ele>287</ele>
        <time>2017-06-26T09:49:23Z</time>
      </trkpt>
      <trkpt lat="48.59076" lon="6.46345">
        <ele>287</ele>
        <time>2017-06-26T09:49:24Z</time>
      </trkpt>
      <trkpt lat="48.59073" lon="6.46348">
        <ele>287</ele>
        <time>2017-06-26T09:49:25Z</time>
      </trkpt>
      <trkpt lat="48.5907" lon="6.4635">
        <ele>287</ele>
        <time>2017-06-26T09:49:26Z</time>
      </trkpt>
      <trkpt lat="48.59066" lon="6.4635">
        <ele>287</ele>
        <time>2017-06-26T09:49:27Z</time>
      </trkpt>
      <trkpt lat="48.59063" lon="6.46348">
        <ele>287</ele>
        <time>2017-06-26T09:49:28Z</time>
      </trkpt>
      <trkpt lat="48.5906" lon="6.46346">
        <ele>287</ele>
        <time>2017-06-26T09:49:29Z</time>
      </trkpt>
      <trkpt lat="48.59058" lon="6.46344">
        <ele>286</ele>
        <time>2017-06-26T09:49:30Z</time>
      </trkpt>
      <trkpt lat="48.59056" lon="6.46342">
        <ele>286</ele>
        <time>2017-06-26T09:49:31Z</time>
      </trkpt>
      <trkpt lat="48.59054" lon="6.4634">
        <ele>286</ele>
        <time>2017-06-26T09:49:32Z</time>
      </trkpt>
      <trkpt lat="48.59052" lon="6.46338">
        <ele>286</ele>
        <time>2017-06-26T09:49:33Z</time>
      </trkpt>
      <trkpt lat="48.5905" lon="6.46337">
        <ele>286</ele>
        <time>2017-06-26T09:49:34Z</time>
      </trkpt>
      <trkpt lat="48.59048" lon="6.46336">
        <ele>286</ele>
        <time>2017-06-26T09:49:35Z</time>
      </trkpt>
      <trkpt lat="48.59045" lon="6.46334">
        <ele>285</ele>
        <time>2017-06-26T09:49:36Z</time>
      </trkpt>
      <trkpt lat="48.59043" lon="6.4633">
        <ele>285</ele>
        <time>2017-06-26T09:49:37Z</time>
      </trkpt>
      <trkpt lat="48.5904" lon="6.46326">
        <ele>285</ele>
        <time>2017-06-26T09:49:38Z</time>
      </trkpt>
      <trkpt lat="48.59038" lon="6.46322">
        <ele>285</ele>
        <time>2017-06-26T09:49:39Z</time>
      </trkpt>
      <trkpt lat="48.59037" lon="6.46318">
        <ele>285</ele>
        <time>2017-06-26T09:49:40Z</time>
      </trkpt>
      <trkpt lat="48.59036" lon="6.46315">
        <ele>284</ele>
        <time>2017-06-26T09:49:41Z</time>
      </trkpt>
      <trkpt lat="48.59034" lon="6.46313">
        <ele>284</ele>
        <time>2017-06-26T09:49:42Z</time>
      </trkpt>
      <trkpt lat="48.59031" lon="6.46311">
        <ele>284</ele>
        <time>2017-06-26T09:49:43Z</time>
      </trkpt>
      <trkpt lat="48.59029" lon="6.46309">
        <ele>284</ele>
        <time>2017-06-26T09:49:44Z</time>
      </trkpt>
      <trkpt lat="48.59028" lon="6.46308">
        <ele>284</ele>
        <time>2017-06-26T09:49:45Z</time>
      </trkpt>
      <trkpt lat="48.59026" lon="6.46306">
        <ele>284</ele>
        <time>2017-06-26T09:49:46Z</time>
      </trkpt>
      <trkpt lat="48.59023" lon="6.46304">
        <ele>284</ele>
        <time>2017-06-26T09:49:47Z</time>
      </trkpt>
      <trkpt lat="48.59021" lon="6.46302">
        <ele>284</ele>
        <time>2017-06-26T09:49:48Z</time>
      </trkpt>
      <trkpt lat="48.59018" lon="6.46299">
        <ele>284</ele>
        <time>2017-06-26T09:49:49Z</time>
      </trkpt>
      <trkpt lat="48.59017" lon="6.46297">
        <ele>284</ele>
        <time>2017-06-26T09:49:50Z</time>
      </trkpt>
      <trkpt lat="48.59014" lon="6.46294">
        <ele>284</ele>
        <time>2017-06-26T09:49:51Z</time>
      </trkpt>
      <trkpt lat="48.59012" lon="6.46292">
        <ele>284</ele>
        <time>2017-06-26T09:49:52Z</time>
      </trkpt>
      <trkpt lat="48.59011" lon="6.4629">
        <ele>284</ele>
        <time>2017-06-26T09:49:53Z</time>
      </trkpt>
      <trkpt lat="48.5901" lon="6.46287">
        <ele>284</ele>
        <time>2017-06-26T09:49:54Z</time>
      </trkpt>
      <trkpt lat="48.59009" lon="6.46284">
        <ele>284</ele>
        <time>2017-06-26T09:49:55Z</time>
      </trkpt>
      <trkpt lat="48.59008" lon="6.46281">
        <ele>284</ele>
        <time>2017-06-26T09:49:56Z</time>
      </trkpt>
      <trkpt lat="48.59006" lon="6.46279">
        <ele>284</ele>
        <time>2017-06-26T09:49:57Z</time>
      </trkpt>
      <trkpt lat="48.59004" lon="6.46276">
        <ele>284</ele>
        <time>2017-06-26T09:49:58Z</time>
      </trkpt>
      <trkpt lat="48.59003" lon="6.46273">
        <ele>284</ele>
        <time>2017-06-26T09:49:59Z</time>
      </trkpt>
      <trkpt lat="48.59001" lon="6.46271">
        <ele>284</ele>
        <time>2017-06-26T09:50:00Z</time>
      </trkpt>
      <trkpt lat="48.59" lon="6.46269">
        <ele>284</ele>
        <time>2017-06-26T09:50:01Z</time>
      </trkpt>
      <trkpt lat="48.58998" lon="6.46267">
        <ele>284</ele>
        <time>2017-06-26T09:50:02Z</time>
      </trkpt>
      <trkpt lat="48.58996" lon="6.46264">
        <ele>284</ele>
        <time>2017-06-26T09:50:03Z</time>
      </trkpt>
      <trkpt lat="48.58993" lon="6.46261">
        <ele>284</ele>
        <time>2017-06-26T09:50:04Z</time>
      </trkpt>
      <trkpt lat="48.5899" lon="6.46258">
        <ele>285</ele>
        <time>2017-06-26T09:50:05Z</time>
      </trkpt>
      <trkpt lat="48.58988" lon="6.46255">
        <ele>285</ele>
        <time>2017-06-26T09:50:06Z</time>
      </trkpt>
      <trkpt lat="48.58986" lon="6.46251">
        <ele>285</ele>
        <time>2017-06-26T09:50:07Z</time>
      </trkpt>
      <trkpt lat="48.58984" lon="6.46248">
        <ele>285</ele>
        <time>2017-06-26T09:50:08Z</time>
      </trkpt>
      <trkpt lat="48.58983" lon="6.46245">
        <ele>285</ele>
        <time>2017-06-26T09:50:09Z</time>
      </trkpt>
      <trkpt lat="48.58982" lon="6.46242">
        <ele>285</ele>
        <time>2017-06-26T09:50:10Z</time>
      </trkpt>
      <trkpt lat="48.5898" lon="6.46239">
        <ele>285</ele>
        <time>2017-06-26T09:50:11Z</time>
      </trkpt>
      <trkpt lat="48.58978" lon="6.46236">
        <ele>285</ele>
        <time>2017-06-26T09:50:12Z</time>
      </trkpt>
      <trkpt lat="48.58976" lon="6.46232">
        <ele>285</ele>
        <time>2017-06-26T09:50:13Z</time>
      </trkpt>
      <trkpt lat="48.58974" lon="6.46229">
        <ele>285</ele>
        <time>2017-06-26T09:50:14Z</time>
      </trkpt>
      <trkpt lat="48.58971" lon="6.46225">
        <ele>285</ele>
        <time>2017-06-26T09:50:15Z</time>
      </trkpt>
      <trkpt lat="48.58969" lon="6.46222">
        <ele>285</ele>
        <time>2017-06-26T09:50:16Z</time>
      </trkpt>
      <trkpt lat="48.58967" lon="6.46221">
        <ele>285</ele>
        <time>2017-06-26T09:50:17Z</time>
      </trkpt>
      <trkpt lat="48.58965" lon="6.46219">
        <ele>285</ele>
        <time>2017-06-26T09:50:18Z</time>
      </trkpt>
      <trkpt lat="48.58963" lon="6.46217">
        <ele>285</ele>
        <time>2017-06-26T09:50:19Z</time>
      </trkpt>
      <trkpt lat="48.58961" lon="6.46215">
        <ele>285</ele>
        <time>2017-06-26T09:50:20Z</time>
      </trkpt>
      <trkpt lat="48.58959" lon="6.46213">
        <ele>285</ele>
        <time>2017-06-26T09:50:21Z</time>
      </trkpt>
      <trkpt lat="48.58957" lon="6.4621">
        <ele>285</ele>
        <time>2017-06-26T09:50:22Z</time>
      </trkpt>
      <trkpt lat="48.58955" lon="6.46208">
        <ele>285</ele>
        <time>2017-06-26T09:50:23Z</time>
      </trkpt>
      <trkpt lat="48.58953" lon="6.46205">
        <ele>285</ele>
        <time>2017-06-26T09:50:24Z</time>
      </trkpt>
      <trkpt lat="48.5895" lon="6.46203">
        <ele>285</ele>
        <time>2017-06-26T09:50:25Z</time>
      </trkpt>
      <trkpt lat="48.58948" lon="6.46201">
        <ele>285</ele>
        <time>2017-06-26T09:50:26Z</time>
      </trkpt>
      <trkpt lat="48.58945" lon="6.46199">
        <ele>285</ele>
        <time>2017-06-26T09:50:27Z</time>
      </trkpt>
      <trkpt lat="48.58943" lon="6.46196">
        <ele>285</ele>
        <time>2017-06-26T09:50:28Z</time>
      </trkpt>
      <trkpt lat="48.58941" lon="6.46194">
        <ele>285</ele>
        <time>2017-06-26T09:50:29Z</time>
      </trkpt>
      <trkpt lat="48.58939" lon="6.46192">
        <ele>285</ele>
        <time>2017-06-26T09:50:30Z</time>
      </trkpt>
      <trkpt lat="48.58937" lon="6.4619">
        <ele>285</ele>
        <time>2017-06-26T09:50:31Z</time>
      </trkpt>
      <trkpt lat="48.58935" lon="6.46187">
        <ele>284</ele>
        <time>2017-06-26T09:50:33Z</time>
      </trkpt>
      <trkpt lat="48.58933" lon="6.46184">
        <ele>284</ele>
        <time>2017-06-26T09:50:34Z</time>
      </trkpt>
      <trkpt lat="48.58932" lon="6.46182">
        <ele>284</ele>
        <time>2017-06-26T09:50:35Z</time>
      </trkpt>
      <trkpt lat="48.5893" lon="6.4618">
        <ele>284</ele>
        <time>2017-06-26T09:50:36Z</time>
      </trkpt>
      <trkpt lat="48.58929" lon="6.46178">
        <ele>284</ele>
        <time>2017-06-26T09:50:37Z</time>
      </trkpt>
      <trkpt lat="48.58928" lon="6.46176">
        <ele>284</ele>
        <time>2017-06-26T09:50:38Z</time>
      </trkpt>
      <trkpt lat="48.58926" lon="6.46174">
        <ele>284</ele>
        <time>2017-06-26T09:50:39Z</time>
      </trkpt>
      <trkpt lat="48.58924" lon="6.46172">
        <ele>284</ele>
        <time>2017-06-26T09:50:40Z</time>
      </trkpt>
      <trkpt lat="48.58923" lon="6.4617">
        <ele>284</ele>
        <time>2017-06-26T09:50:41Z</time>
      </trkpt>
      <trkpt lat="48.5892" lon="6.46168">
        <ele>284</ele>
        <time>2017-06-26T09:50:43Z</time>
      </trkpt>
      <trkpt lat="48.58919" lon="6.46166">
        <ele>284</ele>
        <time>2017-06-26T09:50:44Z</time>
      </trkpt>
      <trkpt lat="48.58916" lon="6.46163">
        <ele>284</ele>
        <time>2017-06-26T09:50:46Z</time>
      </trkpt>
      <trkpt lat="48.58913" lon="6.4616">
        <ele>283</ele>
        <time>2017-06-26T09:50:48Z</time>
      </trkpt>
      <trkpt lat="48.58911" lon="6.46157">
        <ele>283</ele>
        <time>2017-06-26T09:50:50Z</time>
      </trkpt>
      <trkpt lat="48.58908" lon="6.46155">
        <ele>283</ele>
        <time>2017-06-26T09:50:52Z</time>
      </trkpt>
      <trkpt lat="48.58906" lon="6.46153">
        <ele>283</ele>
        <time>2017-06-26T09:50:53Z</time>
      </trkpt>
      <trkpt lat="48.58904" lon="6.46151">
        <ele>284</ele>
        <time>2017-06-26T09:50:54Z</time>
      </trkpt>
      <trkpt lat="48.58902" lon="6.46149">
        <ele>284</ele>
        <time>2017-06-26T09:50:55Z</time>
      </trkpt>
      <trkpt lat="48.589" lon="6.46148">
        <ele>284</ele>
        <time>2017-06-26T09:50:56Z</time>
      </trkpt>
      <trkpt lat="48.58898" lon="6.46146">
        <ele>284</ele>
        <time>2017-06-26T09:50:57Z</time>
      </trkpt>
      <trkpt lat="48.58896" lon="6.46143">
        <ele>284</ele>
        <time>2017-06-26T09:50:58Z</time>
      </trkpt>
      <trkpt lat="48.58894" lon="6.46141">
        <ele>284</ele>
        <time>2017-06-26T09:50:59Z</time>
      </trkpt>
      <trkpt lat="48.58892" lon="6.46139">
        <ele>284</ele>
        <time>2017-06-26T09:51:00Z</time>
      </trkpt>
      <trkpt lat="48.58891" lon="6.46137">
        <ele>284</ele>
        <time>2017-06-26T09:51:01Z</time>
      </trkpt>
      <trkpt lat="48.58889" lon="6.46135">
        <ele>284</ele>
        <time>2017-06-26T09:51:02Z</time>
      </trkpt>
      <trkpt lat="48.58888" lon="6.46133">
        <ele>284</ele>
        <time>2017-06-26T09:51:03Z</time>
      </trkpt>
      <trkpt lat="48.58886" lon="6.4613">
        <ele>284</ele>
        <time>2017-06-26T09:51:04Z</time>
      </trkpt>
      <trkpt lat="48.58884" lon="6.46126">
        <ele>284</ele>
        <time>2017-06-26T09:51:05Z</time>
      </trkpt>
      <trkpt lat="48.58883" lon="6.46122">
        <ele>284</ele>
        <time>2017-06-26T09:51:06Z</time>
      </trkpt>
      <trkpt lat="48.58881" lon="6.46119">
        <ele>284</ele>
        <time>2017-06-26T09:51:07Z</time>
      </trkpt>
      <trkpt lat="48.5888" lon="6.46116">
        <ele>284</ele>
        <time>2017-06-26T09:51:08Z</time>
      </trkpt>
      <trkpt lat="48.58879" lon="6.46114">
        <ele>284</ele>
        <time>2017-06-26T09:51:09Z</time>
      </trkpt>
      <trkpt lat="48.58878" lon="6.46111">
        <ele>284</ele>
        <time>2017-06-26T09:51:10Z</time>
      </trkpt>
      <trkpt lat="48.58875" lon="6.46108">
        <ele>284</ele>
        <time>2017-06-26T09:51:12Z</time>
      </trkpt>
      <trkpt lat="48.58873" lon="6.46105">
        <ele>284</ele>
        <time>2017-06-26T09:51:14Z</time>
      </trkpt>
      <trkpt lat="48.58871" lon="6.46102">
        <ele>284</ele>
        <time>2017-06-26T09:51:15Z</time>
      </trkpt>
      <trkpt lat="48.58869" lon="6.461">
        <ele>284</ele>
        <time>2017-06-26T09:51:17Z</time>
      </trkpt>
      <trkpt lat="48.58867" lon="6.46098">
        <ele>284</ele>
        <time>2017-06-26T09:51:19Z</time>
      </trkpt>
      <trkpt lat="48.58865" lon="6.46095">
        <ele>283</ele>
        <time>2017-06-26T09:51:21Z</time>
      </trkpt>
      <trkpt lat="48.58862" lon="6.46092">
        <ele>283</ele>
        <time>2017-06-26T09:51:23Z</time>
      </trkpt>
      <trkpt lat="48.5886" lon="6.46088">
        <ele>283</ele>
        <time>2017-06-26T09:51:25Z</time>
      </trkpt>
      <trkpt lat="48.58859" lon="6.46085">
        <ele>283</ele>
        <time>2017-06-26T09:51:27Z</time>
      </trkpt>
      <trkpt lat="48.58857" lon="6.46083">
        <ele>284</ele>
        <time>2017-06-26T09:51:29Z</time>
      </trkpt>
      <trkpt lat="48.58855" lon="6.4608">
        <ele>284</ele>
        <time>2017-06-26T09:51:31Z</time>
      </trkpt>
      <trkpt lat="48.58853" lon="6.46076">
        <ele>284</ele>
        <time>2017-06-26T09:51:33Z</time>
      </trkpt>
      <trkpt lat="48.58851" lon="6.46073">
        <ele>284</ele>
        <time>2017-06-26T09:51:35Z</time>
      </trkpt>
      <trkpt lat="48.58849" lon="6.4607">
        <ele>284</ele>
        <time>2017-06-26T09:51:37Z</time>
      </trkpt>
      <trkpt lat="48.58847" lon="6.46068">
        <ele>284</ele>
        <time>2017-06-26T09:51:38Z</time>
      </trkpt>
      <trkpt lat="48.58846" lon="6.46066">
        <ele>283</ele>
        <time>2017-06-26T09:51:39Z</time>
      </trkpt>
      <trkpt lat="48.58844" lon="6.46065">
        <ele>283</ele>
        <time>2017-06-26T09:51:40Z</time>
      </trkpt>
      <trkpt lat="48.58843" lon="6.46062">
        <ele>283</ele>
        <time>2017-06-26T09:51:42Z</time>
      </trkpt>
      <trkpt lat="48.58841" lon="6.46058">
        <ele>284</ele>
        <time>2017-06-26T09:51:44Z</time>
      </trkpt>
      <trkpt lat="48.58841" lon="6.46055">
        <ele>285</ele>
        <time>2017-06-26T09:51:46Z</time>
      </trkpt>
      <trkpt lat="48.58839" lon="6.46053">
        <ele>285</ele>
        <time>2017-06-26T09:51:48Z</time>
      </trkpt>
      <trkpt lat="48.58838" lon="6.4605">
        <ele>285</ele>
        <time>2017-06-26T09:51:49Z</time>
      </trkpt>
      <trkpt lat="48.58836" lon="6.46048">
        <ele>285</ele>
        <time>2017-06-26T09:51:50Z</time>
      </trkpt>
      <trkpt lat="48.58835" lon="6.46044">
        <ele>285</ele>
        <time>2017-06-26T09:51:52Z</time>
      </trkpt>
      <trkpt lat="48.58833" lon="6.46041">
        <ele>286</ele>
        <time>2017-06-26T09:51:54Z</time>
      </trkpt>
      <trkpt lat="48.58831" lon="6.46037">
        <ele>286</ele>
        <time>2017-06-26T09:51:56Z</time>
      </trkpt>
      <trkpt lat="48.58831" lon="6.46034">
        <ele>286</ele>
        <time>2017-06-26T09:51:57Z</time>
      </trkpt>
      <trkpt lat="48.5883" lon="6.46031">
        <ele>286</ele>
        <time>2017-06-26T09:51:58Z</time>
      </trkpt>
      <trkpt lat="48.58829" lon="6.46028">
        <ele>286</ele>
        <time>2017-06-26T09:51:59Z</time>
      </trkpt>
      <trkpt lat="48.58828" lon="6.46023">
        <ele>286</ele>
        <time>2017-06-26T09:52:01Z</time>
      </trkpt>
      <trkpt lat="48.58827" lon="6.46019">
        <ele>286</ele>
        <time>2017-06-26T09:52:03Z</time>
      </trkpt>
      <trkpt lat="48.58824" lon="6.46016">
        <ele>287</ele>
        <time>2017-06-26T09:52:05Z</time>
      </trkpt>
      <trkpt lat="48.58823" lon="6.46014">
        <ele>287</ele>
        <time>2017-06-26T09:52:06Z</time>
      </trkpt>
      <trkpt lat="48.58821" lon="6.46012">
        <ele>287</ele>
        <time>2017-06-26T09:52:07Z</time>
      </trkpt>
      <trkpt lat="48.58819" lon="6.46009">
        <ele>287</ele>
        <time>2017-06-26T09:52:08Z</time>
      </trkpt>
      <trkpt lat="48.58817" lon="6.46007">
        <ele>288</ele>
        <time>2017-06-26T09:52:09Z</time>
      </trkpt>
      <trkpt lat="48.58815" lon="6.46004">
        <ele>288</ele>
        <time>2017-06-26T09:52:10Z</time>
      </trkpt>
      <trkpt lat="48.58813" lon="6.46001">
        <ele>288</ele>
        <time>2017-06-26T09:52:11Z</time>
      </trkpt>
      <trkpt lat="48.5881" lon="6.45998">
        <ele>288</ele>
        <time>2017-06-26T09:52:12Z</time>
      </trkpt>
      <trkpt lat="48.58809" lon="6.45994">
        <ele>288</ele>
        <time>2017-06-26T09:52:13Z</time>
      </trkpt>
      <trkpt lat="48.58807" lon="6.4599">
        <ele>288</ele>
        <time>2017-06-26T09:52:14Z</time>
      </trkpt>
      <trkpt lat="48.58805" lon="6.45987">
        <ele>288</ele>
        <time>2017-06-26T09:52:15Z</time>
      </trkpt>
      <trkpt lat="48.58804" lon="6.45984">
        <ele>288</ele>
        <time>2017-06-26T09:52:16Z</time>
      </trkpt>
      <trkpt lat="48.58802" lon="6.45982">
        <ele>288</ele>
        <time>2017-06-26T09:52:17Z</time>
      </trkpt>
      <trkpt lat="48.588" lon="6.4598">
        <ele>288</ele>
        <time>2017-06-26T09:52:18Z</time>
      </trkpt>
      <trkpt lat="48.58798" lon="6.45977">
        <ele>288</ele>
        <time>2017-06-26T09:52:19Z</time>
      </trkpt>
      <trkpt lat="48.58796" lon="6.45974">
        <ele>288</ele>
        <time>2017-06-26T09:52:20Z</time>
      </trkpt>
      <trkpt lat="48.58793" lon="6.45971">
        <ele>288</ele>
        <time>2017-06-26T09:52:21Z</time>
      </trkpt>
      <trkpt lat="48.58791" lon="6.45969">
        <ele>288</ele>
        <time>2017-06-26T09:52:22Z</time>
      </trkpt>
      <trkpt lat="48.58788" lon="6.45966">
        <ele>288</ele>
        <time>2017-06-26T09:52:23Z</time>
      </trkpt>
      <trkpt lat="48.58786" lon="6.45964">
        <ele>288</ele>
        <time>2017-06-26T09:52:24Z</time>
      </trkpt>
      <trkpt lat="48.58784" lon="6.45961">
        <ele>288</ele>
        <time>2017-06-26T09:52:25Z</time>
      </trkpt>
      <trkpt lat="48.58781" lon="6.45957">
        <ele>288</ele>
        <time>2017-06-26T09:52:26Z</time>
      </trkpt>
      <trkpt lat="48.58779" lon="6.45954">
        <ele>288</ele>
        <time>2017-06-26T09:52:27Z</time>
      </trkpt>
      <trkpt lat="48.58777" lon="6.45951">
        <ele>288</ele>
        <time>2017-06-26T09:52:28Z</time>
      </trkpt>
      <trkpt lat="48.58775" lon="6.45947">
        <ele>288</ele>
        <time>2017-06-26T09:52:29Z</time>
      </trkpt>
      <trkpt lat="48.58773" lon="6.45944">
        <ele>288</ele>
        <time>2017-06-26T09:52:30Z</time>
      </trkpt>
      <trkpt lat="48.58771" lon="6.45941">
        <ele>288</ele>
        <time>2017-06-26T09:52:31Z</time>
      </trkpt>
      <trkpt lat="48.58769" lon="6.45939">
        <ele>288</ele>
        <time>2017-06-26T09:52:32Z</time>
      </trkpt>
      <trkpt lat="48.58766" lon="6.45936">
        <ele>288</ele>
        <time>2017-06-26T09:52:33Z</time>
      </trkpt>
      <trkpt lat="48.58763" lon="6.45933">
        <ele>288</ele>
        <time>2017-06-26T09:52:34Z</time>
      </trkpt>
      <trkpt lat="48.58761" lon="6.45931">
        <ele>287</ele>
        <time>2017-06-26T09:52:35Z</time>
      </trkpt>
      <trkpt lat="48.58759" lon="6.45928">
        <ele>287</ele>
        <time>2017-06-26T09:52:36Z</time>
      </trkpt>
      <trkpt lat="48.58757" lon="6.45924">
        <ele>287</ele>
        <time>2017-06-26T09:52:37Z</time>
      </trkpt>
      <trkpt lat="48.58755" lon="6.45921">
        <ele>288</ele>
        <time>2017-06-26T09:52:38Z</time>
      </trkpt>
      <trkpt lat="48.58752" lon="6.45918">
        <ele>287</ele>
        <time>2017-06-26T09:52:39Z</time>
      </trkpt>
      <trkpt lat="48.58749" lon="6.45914">
        <ele>287</ele>
        <time>2017-06-26T09:52:40Z</time>
      </trkpt>
      <trkpt lat="48.58746" lon="6.4591">
        <ele>287</ele>
        <time>2017-06-26T09:52:41Z</time>
      </trkpt>
      <trkpt lat="48.58744" lon="6.45907">
        <ele>287</ele>
        <time>2017-06-26T09:52:42Z</time>
      </trkpt>
      <trkpt lat="48.58742" lon="6.45904">
        <ele>287</ele>
        <time>2017-06-26T09:52:43Z</time>
      </trkpt>
      <trkpt lat="48.5874" lon="6.45899">
        <ele>287</ele>
        <time>2017-06-26T09:52:44Z</time>
      </trkpt>
      <trkpt lat="48.58738" lon="6.45896">
        <ele>287</ele>
        <time>2017-06-26T09:52:45Z</time>
      </trkpt>
      <trkpt lat="48.58735" lon="6.45893">
        <ele>287</ele>
        <time>2017-06-26T09:52:46Z</time>
      </trkpt>
      <trkpt lat="48.58732" lon="6.4589">
        <ele>287</ele>
        <time>2017-06-26T09:52:47Z</time>
      </trkpt>
      <trkpt lat="48.5873" lon="6.45888">
        <ele>287</ele>
        <time>2017-06-26T09:52:48Z</time>
      </trkpt>
      <trkpt lat="48.58728" lon="6.45885">
        <ele>287</ele>
        <time>2017-06-26T09:52:49Z</time>
      </trkpt>
      <trkpt lat="48.58725" lon="6.45883">
        <ele>287</ele>
        <time>2017-06-26T09:52:50Z</time>
      </trkpt>
      <trkpt lat="48.58722" lon="6.4588">
        <ele>287</ele>
        <time>2017-06-26T09:52:51Z</time>
      </trkpt>
      <trkpt lat="48.58719" lon="6.45877">
        <ele>287</ele>
        <time>2017-06-26T09:52:52Z</time>
      </trkpt>
      <trkpt lat="48.58717" lon="6.45874">
        <ele>287</ele>
        <time>2017-06-26T09:52:53Z</time>
      </trkpt>
      <trkpt lat="48.58714" lon="6.45871">
        <ele>287</ele>
        <time>2017-06-26T09:52:54Z</time>
      </trkpt>
      <trkpt lat="48.58712" lon="6.45868">
        <ele>287</ele>
        <time>2017-06-26T09:52:55Z</time>
      </trkpt>
      <trkpt lat="48.58709" lon="6.45865">
        <ele>287</ele>
        <time>2017-06-26T09:52:56Z</time>
      </trkpt>
      <trkpt lat="48.58706" lon="6.45862">
        <ele>287</ele>
        <time>2017-06-26T09:52:57Z</time>
      </trkpt>
      <trkpt lat="48.58704" lon="6.45859">
        <ele>287</ele>
        <time>2017-06-26T09:52:58Z</time>
      </trkpt>
      <trkpt lat="48.58702" lon="6.45857">
        <ele>287</ele>
        <time>2017-06-26T09:52:59Z</time>
      </trkpt>
      <trkpt lat="48.58699" lon="6.45854">
        <ele>287</ele>
        <time>2017-06-26T09:53:00Z</time>
      </trkpt>
      <trkpt lat="48.58697" lon="6.45851">
        <ele>287</ele>
        <time>2017-06-26T09:53:01Z</time>
      </trkpt>
      <trkpt lat="48.58695" lon="6.45848">
        <ele>287</ele>
        <time>2017-06-26T09:53:02Z</time>
      </trkpt>
      <trkpt lat="48.58693" lon="6.45845">
        <ele>287</ele>
        <time>2017-06-26T09:53:03Z</time>
      </trkpt>
      <trkpt lat="48.58691" lon="6.45843">
        <ele>287</ele>
        <time>2017-06-26T09:53:04Z</time>
      </trkpt>
      <trkpt lat="48.58689" lon="6.4584">
        <ele>287</ele>
        <time>2017-06-26T09:53:05Z</time>
      </trkpt>
      <trkpt lat="48.58686" lon="6.45837">
        <ele>287</ele>
        <time>2017-06-26T09:53:06Z</time>
      </trkpt>
      <trkpt lat="48.58684" lon="6.45834">
        <ele>287</ele>
        <time>2017-06-26T09:53:07Z</time>
      </trkpt>
      <trkpt lat="48.58682" lon="6.4583">
        <ele>287</ele>
        <time>2017-06-26T09:53:08Z</time>
      </trkpt>
      <trkpt lat="48.58679" lon="6.45827">
        <ele>287</ele>
        <time>2017-06-26T09:53:09Z</time>
      </trkpt>
      <trkpt lat="48.58677" lon="6.45824">
        <ele>287</ele>
        <time>2017-06-26T09:53:10Z</time>
      </trkpt>
      <trkpt lat="48.58675" lon="6.45822">
        <ele>287</ele>
        <time>2017-06-26T09:53:11Z</time>
      </trkpt>
      <trkpt lat="48.58674" lon="6.45819">
        <ele>286</ele>
        <time>2017-06-26T09:53:12Z</time>
      </trkpt>
      <trkpt lat="48.58672" lon="6.45816">
        <ele>286</ele>
        <time>2017-06-26T09:53:13Z</time>
      </trkpt>
      <trkpt lat="48.5867" lon="6.45814">
        <ele>286</ele>
        <time>2017-06-26T09:53:14Z</time>
      </trkpt>
      <trkpt lat="48.58668" lon="6.45811">
        <ele>286</ele>
        <time>2017-06-26T09:53:15Z</time>
      </trkpt>
      <trkpt lat="48.58666" lon="6.45808">
        <ele>285</ele>
        <time>2017-06-26T09:53:16Z</time>
      </trkpt>
      <trkpt lat="48.58664" lon="6.45805">
        <ele>285</ele>
        <time>2017-06-26T09:53:17Z</time>
      </trkpt>
      <trkpt lat="48.58662" lon="6.45801">
        <ele>285</ele>
        <time>2017-06-26T09:53:18Z</time>
      </trkpt>
      <trkpt lat="48.58661" lon="6.45796">
        <ele>284</ele>
        <time>2017-06-26T09:53:19Z</time>
      </trkpt>
      <trkpt lat="48.58659" lon="6.45792">
        <ele>284</ele>
        <time>2017-06-26T09:53:20Z</time>
      </trkpt>
      <trkpt lat="48.58656" lon="6.45789">
        <ele>284</ele>
        <time>2017-06-26T09:53:21Z</time>
      </trkpt>
      <trkpt lat="48.58653" lon="6.45787">
        <ele>284</ele>
        <time>2017-06-26T09:53:22Z</time>
      </trkpt>
      <trkpt lat="48.5865" lon="6.45785">
        <ele>283</ele>
        <time>2017-06-26T09:53:23Z</time>
      </trkpt>
      <trkpt lat="48.58646" lon="6.45782">
        <ele>283</ele>
        <time>2017-06-26T09:53:24Z</time>
      </trkpt>
      <trkpt lat="48.58644" lon="6.4578">
        <ele>283</ele>
        <time>2017-06-26T09:53:25Z</time>
      </trkpt>
      <trkpt lat="48.58642" lon="6.45776">
        <ele>283</ele>
        <time>2017-06-26T09:53:26Z</time>
      </trkpt>
      <trkpt lat="48.58639" lon="6.45773">
        <ele>283</ele>
        <time>2017-06-26T09:53:27Z</time>
      </trkpt>
      <trkpt lat="48.58636" lon="6.45769">
        <ele>283</ele>
        <time>2017-06-26T09:53:28Z</time>
      </trkpt>
      <trkpt lat="48.58634" lon="6.45764">
        <ele>282</ele>
        <time>2017-06-26T09:53:29Z</time>
      </trkpt>
      <trkpt lat="48.58633" lon="6.45759">
        <ele>282</ele>
        <time>2017-06-26T09:53:30Z</time>
      </trkpt>
      <trkpt lat="48.58634" lon="6.45755">
        <ele>282</ele>
        <time>2017-06-26T09:53:31Z</time>
      </trkpt>
      <trkpt lat="48.58635" lon="6.45752">
        <ele>282</ele>
        <time>2017-06-26T09:53:32Z</time>
      </trkpt>
      <trkpt lat="48.58637" lon="6.45747">
        <ele>282</ele>
        <time>2017-06-26T09:53:34Z</time>
      </trkpt>
      <trkpt lat="48.58638" lon="6.45744">
        <ele>282</ele>
        <time>2017-06-26T09:53:35Z</time>
      </trkpt>
      <trkpt lat="48.58639" lon="6.45741">
        <ele>281</ele>
        <time>2017-06-26T09:53:36Z</time>
      </trkpt>
      <trkpt lat="48.58641" lon="6.45739">
        <ele>281</ele>
        <time>2017-06-26T09:53:37Z</time>
      </trkpt>
      <trkpt lat="48.58642" lon="6.45736">
        <ele>281</ele>
        <time>2017-06-26T09:53:38Z</time>
      </trkpt>
      <trkpt lat="48.58643" lon="6.45733">
        <ele>281</ele>
        <time>2017-06-26T09:53:39Z</time>
      </trkpt>
      <trkpt lat="48.58645" lon="6.45729">
        <ele>281</ele>
        <time>2017-06-26T09:53:40Z</time>
      </trkpt>
      <trkpt lat="48.58646" lon="6.45726">
        <ele>281</ele>
        <time>2017-06-26T09:53:41Z</time>
      </trkpt>
      <trkpt lat="48.58647" lon="6.45724">
        <ele>282</ele>
        <time>2017-06-26T09:53:42Z</time>
      </trkpt>
      <trkpt lat="48.58648" lon="6.45721">
        <ele>282</ele>
        <time>2017-06-26T09:53:43Z</time>
      </trkpt>
      <trkpt lat="48.58649" lon="6.45718">
        <ele>282</ele>
        <time>2017-06-26T09:53:44Z</time>
      </trkpt>
      <trkpt lat="48.58651" lon="6.45715">
        <ele>282</ele>
        <time>2017-06-26T09:53:45Z</time>
      </trkpt>
      <trkpt lat="48.58652" lon="6.45712">
        <ele>282</ele>
        <time>2017-06-26T09:53:46Z</time>
      </trkpt>
      <trkpt lat="48.58653" lon="6.45709">
        <ele>282</ele>
        <time>2017-06-26T09:53:47Z</time>
      </trkpt>
      <trkpt lat="48.58655" lon="6.45706">
        <ele>282</ele>
        <time>2017-06-26T09:53:48Z</time>
      </trkpt>
      <trkpt lat="48.58656" lon="6.45704">
        <ele>282</ele>
        <time>2017-06-26T09:53:49Z</time>
      </trkpt>
      <trkpt lat="48.58657" lon="6.45702">
        <ele>282</ele>
        <time>2017-06-26T09:53:50Z</time>
      </trkpt>
      <trkpt lat="48.58658" lon="6.45699">
        <ele>283</ele>
        <time>2017-06-26T09:53:51Z</time>
      </trkpt>
      <trkpt lat="48.5866" lon="6.45697">
        <ele>283</ele>
        <time>2017-06-26T09:53:52Z</time>
      </trkpt>
      <trkpt lat="48.58661" lon="6.45694">
        <ele>283</ele>
        <time>2017-06-26T09:53:53Z</time>
      </trkpt>
      <trkpt lat="48.58663" lon="6.45691">
        <ele>283</ele>
        <time>2017-06-26T09:53:55Z</time>
      </trkpt>
      <trkpt lat="48.58665" lon="6.45687">
        <ele>284</ele>
        <time>2017-06-26T09:53:57Z</time>
      </trkpt>
      <trkpt lat="48.58667" lon="6.45684">
        <ele>284</ele>
        <time>2017-06-26T09:53:59Z</time>
      </trkpt>
      <trkpt lat="48.58669" lon="6.45681">
        <ele>284</ele>
        <time>2017-06-26T09:54:01Z</time>
      </trkpt>
      <trkpt lat="48.58671" lon="6.45677">
        <ele>285</ele>
        <time>2017-06-26T09:54:03Z</time>
      </trkpt>
      <trkpt lat="48.58673" lon="6.45673">
        <ele>285</ele>
        <time>2017-06-26T09:54:05Z</time>
      </trkpt>
      <trkpt lat="48.58674" lon="6.45671">
        <ele>285</ele>
        <time>2017-06-26T09:54:06Z</time>
      </trkpt>
      <trkpt lat="48.58675" lon="6.45668">
        <ele>285</ele>
        <time>2017-06-26T09:54:07Z</time>
      </trkpt>
      <trkpt lat="48.58676" lon="6.45666">
        <ele>285</ele>
        <time>2017-06-26T09:54:08Z</time>
      </trkpt>
      <trkpt lat="48.58677" lon="6.45662">
        <ele>285</ele>
        <time>2017-06-26T09:54:10Z</time>
      </trkpt>
      <trkpt lat="48.58679" lon="6.4566">
        <ele>285</ele>
        <time>2017-06-26T09:54:11Z</time>
      </trkpt>
      <trkpt lat="48.58681" lon="6.45656">
        <ele>285</ele>
        <time>2017-06-26T09:54:13Z</time>
      </trkpt>
      <trkpt lat="48.58682" lon="6.45653">
        <ele>285</ele>
        <time>2017-06-26T09:54:15Z</time>
      </trkpt>
      <trkpt lat="48.58684" lon="6.4565">
        <ele>286</ele>
        <time>2017-06-26T09:54:17Z</time>
      </trkpt>
      <trkpt lat="48.58686" lon="6.45649">
        <ele>286</ele>
        <time>2017-06-26T09:54:18Z</time>
      </trkpt>
      <trkpt lat="48.58688" lon="6.45645">
        <ele>286</ele>
        <time>2017-06-26T09:54:20Z</time>
      </trkpt>
      <trkpt lat="48.58689" lon="6.45643">
        <ele>285</ele>
        <time>2017-06-26T09:54:21Z</time>
      </trkpt>
      <trkpt lat="48.58691" lon="6.4564">
        <ele>285</ele>
        <time>2017-06-26T09:54:22Z</time>
      </trkpt>
      <trkpt lat="48.58693" lon="6.45637">
        <ele>285</ele>
        <time>2017-06-26T09:54:24Z</time>
      </trkpt>
      <trkpt lat="48.58695" lon="6.45635">
        <ele>285</ele>
        <time>2017-06-26T09:54:25Z</time>
      </trkpt>
      <trkpt lat="48.58696" lon="6.45633">
        <ele>285</ele>
        <time>2017-06-26T09:54:26Z</time>
      </trkpt>
      <trkpt lat="48.58698" lon="6.4563">
        <ele>286</ele>
        <time>2017-06-26T09:54:27Z</time>
      </trkpt>
      <trkpt lat="48.58699" lon="6.45628">
        <ele>286</ele>
        <time>2017-06-26T09:54:28Z</time>
      </trkpt>
      <trkpt lat="48.587" lon="6.45626">
        <ele>286</ele>
        <time>2017-06-26T09:54:29Z</time>
      </trkpt>
      <trkpt lat="48.58702" lon="6.45624">
        <ele>286</ele>
        <time>2017-06-26T09:54:30Z</time>
      </trkpt>
      <trkpt lat="48.58703" lon="6.45622">
        <ele>286</ele>
        <time>2017-06-26T09:54:31Z</time>
      </trkpt>
      <trkpt lat="48.58704" lon="6.45619">
        <ele>286</ele>
        <time>2017-06-26T09:54:32Z</time>
      </trkpt>
      <trkpt lat="48.58706" lon="6.45617">
        <ele>287</ele>
        <time>2017-06-26T09:54:33Z</time>
      </trkpt>
      <trkpt lat="48.58707" lon="6.45615">
        <ele>287</ele>
        <time>2017-06-26T09:54:34Z</time>
      </trkpt>
      <trkpt lat="48.58709" lon="6.45613">
        <ele>287</ele>
        <time>2017-06-26T09:54:35Z</time>
      </trkpt>
      <trkpt lat="48.5871" lon="6.45611">
        <ele>287</ele>
        <time>2017-06-26T09:54:36Z</time>
      </trkpt>
      <trkpt lat="48.58712" lon="6.4561">
        <ele>287</ele>
        <time>2017-06-26T09:54:37Z</time>
      </trkpt>
      <trkpt lat="48.58714" lon="6.45606">
        <ele>287</ele>
        <time>2017-06-26T09:54:39Z</time>
      </trkpt>
      <trkpt lat="48.58717" lon="6.45603">
        <ele>287</ele>
        <time>2017-06-26T09:54:41Z</time>
      </trkpt>
      <trkpt lat="48.58718" lon="6.45602">
        <ele>287</ele>
        <time>2017-06-26T09:54:42Z</time>
      </trkpt>
      <trkpt lat="48.5872" lon="6.456">
        <ele>287</ele>
        <time>2017-06-26T09:54:43Z</time>
      </trkpt>
      <trkpt lat="48.58722" lon="6.45597">
        <ele>288</ele>
        <time>2017-06-26T09:54:45Z</time>
      </trkpt>
      <trkpt lat="48.58724" lon="6.45594">
        <ele>288</ele>
        <time>2017-06-26T09:54:47Z</time>
      </trkpt>
      <trkpt lat="48.58726" lon="6.45591">
        <ele>288</ele>
        <time>2017-06-26T09:54:49Z</time>
      </trkpt>
      <trkpt lat="48.58729" lon="6.45587">
        <ele>288</ele>
        <time>2017-06-26T09:54:51Z</time>
      </trkpt>
      <trkpt lat="48.58731" lon="6.45583">
        <ele>288</ele>
        <time>2017-06-26T09:54:53Z</time>
      </trkpt>
      <trkpt lat="48.58734" lon="6.45581">
        <ele>289</ele>
        <time>2017-06-26T09:54:55Z</time>
      </trkpt>
      <trkpt lat="48.58736" lon="6.45577">
        <ele>289</ele>
        <time>2017-06-26T09:54:57Z</time>
      </trkpt>
      <trkpt lat="48.58737" lon="6.45573">
        <ele>290</ele>
        <time>2017-06-26T09:54:59Z</time>
      </trkpt>
      <trkpt lat="48.58738" lon="6.45569">
        <ele>290</ele>
        <time>2017-06-26T09:55:01Z</time>
      </trkpt>
      <trkpt lat="48.5874" lon="6.45564">
        <ele>290</ele>
        <time>2017-06-26T09:55:03Z</time>
      </trkpt>
      <trkpt lat="48.58741" lon="6.45559">
        <ele>290</ele>
        <time>2017-06-26T09:55:05Z</time>
      </trkpt>
      <trkpt lat="48.58742" lon="6.45557">
        <ele>291</ele>
        <time>2017-06-26T09:55:06Z</time>
      </trkpt>
      <trkpt lat="48.58742" lon="6.45554">
        <ele>291</ele>
        <time>2017-06-26T09:55:07Z</time>
      </trkpt>
      <trkpt lat="48.58743" lon="6.45549">
        <ele>291</ele>
        <time>2017-06-26T09:55:09Z</time>
      </trkpt>
      <trkpt lat="48.58745" lon="6.45544">
        <ele>291</ele>
        <time>2017-06-26T09:55:11Z</time>
      </trkpt>
      <trkpt lat="48.58746" lon="6.45542">
        <ele>291</ele>
        <time>2017-06-26T09:55:12Z</time>
      </trkpt>
      <trkpt lat="48.58747" lon="6.4554">
        <ele>291</ele>
        <time>2017-06-26T09:55:13Z</time>
      </trkpt>
      <trkpt lat="48.58749" lon="6.45539">
        <ele>291</ele>
        <time>2017-06-26T09:55:14Z</time>
      </trkpt>
      <trkpt lat="48.5875" lon="6.45537">
        <ele>291</ele>
        <time>2017-06-26T09:55:15Z</time>
      </trkpt>
      <trkpt lat="48.58752" lon="6.45534">
        <ele>292</ele>
        <time>2017-06-26T09:55:17Z</time>
      </trkpt>
      <trkpt lat="48.58754" lon="6.45533">
        <ele>292</ele>
        <time>2017-06-26T09:55:18Z</time>
      </trkpt>
      <trkpt lat="48.58756" lon="6.45532">
        <ele>292</ele>
        <time>2017-06-26T09:55:19Z</time>
      </trkpt>
      <trkpt lat="48.58758" lon="6.45531">
        <ele>292</ele>
        <time>2017-06-26T09:55:20Z</time>
      </trkpt>
      <trkpt lat="48.5876" lon="6.45532">
        <ele>292</ele>
        <time>2017-06-26T09:55:21Z</time>
      </trkpt>
      <trkpt lat="48.58763" lon="6.45531">
        <ele>293</ele>
        <time>2017-06-26T09:55:22Z</time>
      </trkpt>
      <trkpt lat="48.58765" lon="6.45531">
        <ele>293</ele>
        <time>2017-06-26T09:55:23Z</time>
      </trkpt>
      <trkpt lat="48.58768" lon="6.45531">
        <ele>293</ele>
        <time>2017-06-26T09:55:24Z</time>
      </trkpt>
      <trkpt lat="48.5877" lon="6.4553">
        <ele>292</ele>
        <time>2017-06-26T09:55:25Z</time>
      </trkpt>
      <trkpt lat="48.58773" lon="6.4553">
        <ele>292</ele>
        <time>2017-06-26T09:55:26Z</time>
      </trkpt>
      <trkpt lat="48.58775" lon="6.4553">
        <ele>292</ele>
        <time>2017-06-26T09:55:27Z</time>
      </trkpt>
      <trkpt lat="48.58777" lon="6.4553">
        <ele>292</ele>
        <time>2017-06-26T09:55:28Z</time>
      </trkpt>
      <trkpt lat="48.5878" lon="6.4553">
        <ele>292</ele>
        <time>2017-06-26T09:55:29Z</time>
      </trkpt>
      <trkpt lat="48.58782" lon="6.45531">
        <ele>292</ele>
        <time>2017-06-26T09:55:30Z</time>
      </trkpt>
      <trkpt lat="48.58784" lon="6.45532">
        <ele>292</ele>
        <time>2017-06-26T09:55:31Z</time>
      </trkpt>
      <trkpt lat="48.58786" lon="6.45532">
        <ele>292</ele>
        <time>2017-06-26T09:55:32Z</time>
      </trkpt>
      <trkpt lat="48.58789" lon="6.45532">
        <ele>292</ele>
        <time>2017-06-26T09:55:33Z</time>
      </trkpt>
      <trkpt lat="48.58791" lon="6.45532">
        <ele>292</ele>
        <time>2017-06-26T09:55:34Z</time>
      </trkpt>
      <trkpt lat="48.58793" lon="6.45532">
        <ele>292</ele>
        <time>2017-06-26T09:55:35Z</time>
      </trkpt>
      <trkpt lat="48.58796" lon="6.45532">
        <ele>292</ele>
        <time>2017-06-26T09:55:37Z</time>
      </trkpt>
      <trkpt lat="48.58798" lon="6.45531">
        <ele>292</ele>
        <time>2017-06-26T09:55:38Z</time>
      </trkpt>
      <trkpt lat="48.588" lon="6.45528">
        <ele>293</ele>
        <time>2017-06-26T09:55:40Z</time>
      </trkpt>
      <trkpt lat="48.58801" lon="6.45524">
        <ele>293</ele>
        <time>2017-06-26T09:55:42Z</time>
      </trkpt>
      <trkpt lat="48.58801" lon="6.4552">
        <ele>293</ele>
        <time>2017-06-26T09:55:44Z</time>
      </trkpt>
      <trkpt lat="48.588" lon="6.45516">
        <ele>294</ele>
        <time>2017-06-26T09:55:46Z</time>
      </trkpt>
      <trkpt lat="48.58799" lon="6.45512">
        <ele>294</ele>
        <time>2017-06-26T09:55:48Z</time>
      </trkpt>
      <trkpt lat="48.58798" lon="6.45509">
        <ele>295</ele>
        <time>2017-06-26T09:55:50Z</time>
      </trkpt>
      <trkpt lat="48.58798" lon="6.45506">
        <ele>295</ele>
        <time>2017-06-26T09:55:52Z</time>
      </trkpt>
      <trkpt lat="48.58797" lon="6.45503">
        <ele>295</ele>
        <time>2017-06-26T09:55:54Z</time>
      </trkpt>
      <trkpt lat="48.58798" lon="6.45498">
        <ele>295</ele>
        <time>2017-06-26T09:55:56Z</time>
      </trkpt>
      <trkpt lat="48.58799" lon="6.45495">
        <ele>295</ele>
        <time>2017-06-26T09:55:57Z</time>
      </trkpt>
      <trkpt lat="48.588" lon="6.45492">
        <ele>295</ele>
        <time>2017-06-26T09:55:58Z</time>
      </trkpt>
      <trkpt lat="48.58801" lon="6.45489">
        <ele>295</ele>
        <time>2017-06-26T09:55:59Z</time>
      </trkpt>
      <trkpt lat="48.58801" lon="6.45485">
        <ele>295</ele>
        <time>2017-06-26T09:56:00Z</time>
      </trkpt>
      <trkpt lat="48.58802" lon="6.45482">
        <ele>295</ele>
        <time>2017-06-26T09:56:01Z</time>
      </trkpt>
      <trkpt lat="48.58803" lon="6.45478">
        <ele>295</ele>
        <time>2017-06-26T09:56:02Z</time>
      </trkpt>
      <trkpt lat="48.58805" lon="6.45475">
        <ele>295</ele>
        <time>2017-06-26T09:56:03Z</time>
      </trkpt>
      <trkpt lat="48.58806" lon="6.45472">
        <ele>295</ele>
        <time>2017-06-26T09:56:04Z</time>
      </trkpt>
      <trkpt lat="48.58807" lon="6.45469">
        <ele>295</ele>
        <time>2017-06-26T09:56:05Z</time>
      </trkpt>
      <trkpt lat="48.58807" lon="6.45466">
        <ele>296</ele>
        <time>2017-06-26T09:56:06Z</time>
      </trkpt>
      <trkpt lat="48.58806" lon="6.45462">
        <ele>296</ele>
        <time>2017-06-26T09:56:07Z</time>
      </trkpt>
      <trkpt lat="48.58806" lon="6.45458">
        <ele>296</ele>
        <time>2017-06-26T09:56:08Z</time>
      </trkpt>
      <trkpt lat="48.58806" lon="6.45454">
        <ele>296</ele>
        <time>2017-06-26T09:56:09Z</time>
      </trkpt>
      <trkpt lat="48.58806" lon="6.4545">
        <ele>296</ele>
        <time>2017-06-26T09:56:10Z</time>
      </trkpt>
      <trkpt lat="48.58807" lon="6.45446">
        <ele>296</ele>
        <time>2017-06-26T09:56:11Z</time>
      </trkpt>
      <trkpt lat="48.58807" lon="6.45443">
        <ele>296</ele>
        <time>2017-06-26T09:56:12Z</time>
      </trkpt>
      <trkpt lat="48.58806" lon="6.45439">
        <ele>296</ele>
        <time>2017-06-26T09:56:13Z</time>
      </trkpt>
      <trkpt lat="48.58807" lon="6.45435">
        <ele>296</ele>
        <time>2017-06-26T09:56:14Z</time>
      </trkpt>
      <trkpt lat="48.58807" lon="6.45431">
        <ele>297</ele>
        <time>2017-06-26T09:56:15Z</time>
      </trkpt>
      <trkpt lat="48.58808" lon="6.45427">
        <ele>297</ele>
        <time>2017-06-26T09:56:16Z</time>
      </trkpt>
      <trkpt lat="48.58808" lon="6.45424">
        <ele>297</ele>
        <time>2017-06-26T09:56:17Z</time>
      </trkpt>
      <trkpt lat="48.58809" lon="6.4542">
        <ele>297</ele>
        <time>2017-06-26T09:56:18Z</time>
      </trkpt>
      <trkpt lat="48.58809" lon="6.45417">
        <ele>297</ele>
        <time>2017-06-26T09:56:19Z</time>
      </trkpt>
      <trkpt lat="48.58809" lon="6.45413">
        <ele>297</ele>
        <time>2017-06-26T09:56:20Z</time>
      </trkpt>
      <trkpt lat="48.58808" lon="6.45409">
        <ele>297</ele>
        <time>2017-06-26T09:56:21Z</time>
      </trkpt>
      <trkpt lat="48.58806" lon="6.45406">
        <ele>297</ele>
        <time>2017-06-26T09:56:22Z</time>
      </trkpt>
      <trkpt lat="48.58805" lon="6.45403">
        <ele>297</ele>
        <time>2017-06-26T09:56:23Z</time>
      </trkpt>
      <trkpt lat="48.58803" lon="6.45401">
        <ele>297</ele>
        <time>2017-06-26T09:56:24Z</time>
      </trkpt>
      <trkpt lat="48.58802" lon="6.45399">
        <ele>297</ele>
        <time>2017-06-26T09:56:25Z</time>
      </trkpt>
      <trkpt lat="48.588" lon="6.45397">
        <ele>297</ele>
        <time>2017-06-26T09:56:26Z</time>
      </trkpt>
      <trkpt lat="48.58798" lon="6.45395">
        <ele>297</ele>
        <time>2017-06-26T09:56:27Z</time>
      </trkpt>
      <trkpt lat="48.58797" lon="6.45392">
        <ele>297</ele>
        <time>2017-06-26T09:56:28Z</time>
      </trkpt>
      <trkpt lat="48.58795" lon="6.4539">
        <ele>297</ele>
        <time>2017-06-26T09:56:29Z</time>
      </trkpt>
      <trkpt lat="48.58794" lon="6.45387">
        <ele>298</ele>
        <time>2017-06-26T09:56:30Z</time>
      </trkpt>
      <trkpt lat="48.58792" lon="6.45383">
        <ele>298</ele>
        <time>2017-06-26T09:56:31Z</time>
      </trkpt>
      <trkpt lat="48.5879" lon="6.45379">
        <ele>298</ele>
        <time>2017-06-26T09:56:32Z</time>
      </trkpt>
      <trkpt lat="48.58788" lon="6.45376">
        <ele>298</ele>
        <time>2017-06-26T09:56:33Z</time>
      </trkpt>
      <trkpt lat="48.58786" lon="6.45373">
        <ele>298</ele>
        <time>2017-06-26T09:56:34Z</time>
      </trkpt>
      <trkpt lat="48.58784" lon="6.45371">
        <ele>298</ele>
        <time>2017-06-26T09:56:35Z</time>
      </trkpt>
      <trkpt lat="48.58782" lon="6.45369">
        <ele>298</ele>
        <time>2017-06-26T09:56:36Z</time>
      </trkpt>
      <trkpt lat="48.5878" lon="6.45366">
        <ele>298</ele>
        <time>2017-06-26T09:56:37Z</time>
      </trkpt>
      <trkpt lat="48.58779" lon="6.45363">
        <ele>298</ele>
        <time>2017-06-26T09:56:38Z</time>
      </trkpt>
      <trkpt lat="48.58776" lon="6.45361">
        <ele>298</ele>
        <time>2017-06-26T09:56:39Z</time>
      </trkpt>
      <trkpt lat="48.58774" lon="6.45358">
        <ele>298</ele>
        <time>2017-06-26T09:56:40Z</time>
      </trkpt>
      <trkpt lat="48.58772" lon="6.45355">
        <ele>298</ele>
        <time>2017-06-26T09:56:41Z</time>
      </trkpt>
      <trkpt lat="48.5877" lon="6.45352">
        <ele>298</ele>
        <time>2017-06-26T09:56:42Z</time>
      </trkpt>
      <trkpt lat="48.58768" lon="6.4535">
        <ele>298</ele>
        <time>2017-06-26T09:56:43Z</time>
      </trkpt>
      <trkpt lat="48.58766" lon="6.45349">
        <ele>298</ele>
        <time>2017-06-26T09:56:44Z</time>
      </trkpt>
      <trkpt lat="48.58764" lon="6.45349">
        <ele>298</ele>
        <time>2017-06-26T09:56:45Z</time>
      </trkpt>
      <trkpt lat="48.58761" lon="6.45347">
        <ele>298</ele>
        <time>2017-06-26T09:56:46Z</time>
      </trkpt>
      <trkpt lat="48.58758" lon="6.45345">
        <ele>298</ele>
        <time>2017-06-26T09:56:47Z</time>
      </trkpt>
      <trkpt lat="48.58756" lon="6.45343">
        <ele>298</ele>
        <time>2017-06-26T09:56:48Z</time>
      </trkpt>
      <trkpt lat="48.58754" lon="6.45341">
        <ele>298</ele>
        <time>2017-06-26T09:56:49Z</time>
      </trkpt>
      <trkpt lat="48.58751" lon="6.4534">
        <ele>298</ele>
        <time>2017-06-26T09:56:50Z</time>
      </trkpt>
      <trkpt lat="48.58749" lon="6.45338">
        <ele>298</ele>
        <time>2017-06-26T09:56:51Z</time>
      </trkpt>
      <trkpt lat="48.58746" lon="6.45337">
        <ele>298</ele>
        <time>2017-06-26T09:56:52Z</time>
      </trkpt>
      <trkpt lat="48.58744" lon="6.45336">
        <ele>298</ele>
        <time>2017-06-26T09:56:53Z</time>
      </trkpt>
      <trkpt lat="48.58741" lon="6.45334">
        <ele>298</ele>
        <time>2017-06-26T09:56:54Z</time>
      </trkpt>
      <trkpt lat="48.58738" lon="6.45332">
        <ele>298</ele>
        <time>2017-06-26T09:56:55Z</time>
      </trkpt>
      <trkpt lat="48.58735" lon="6.4533">
        <ele>298</ele>
        <time>2017-06-26T09:56:56Z</time>
      </trkpt>
      <trkpt lat="48.58733" lon="6.45328">
        <ele>298</ele>
        <time>2017-06-26T09:56:57Z</time>
      </trkpt>
      <trkpt lat="48.58732" lon="6.45326">
        <ele>298</ele>
        <time>2017-06-26T09:56:58Z</time>
      </trkpt>
      <trkpt lat="48.5873" lon="6.45325">
        <ele>298</ele>
        <time>2017-06-26T09:56:59Z</time>
      </trkpt>
      <trkpt lat="48.58729" lon="6.45323">
        <ele>298</ele>
        <time>2017-06-26T09:57:00Z</time>
      </trkpt>
      <trkpt lat="48.58724" lon="6.45318">
        <ele>298</ele>
        <time>2017-06-26T09:57:01Z</time>
      </trkpt>
      <trkpt lat="48.58722" lon="6.45315">
        <ele>298</ele>
        <time>2017-06-26T09:57:02Z</time>
      </trkpt>
      <trkpt lat="48.58719" lon="6.45312">
        <ele>298</ele>
        <time>2017-06-26T09:57:03Z</time>
      </trkpt>
      <trkpt lat="48.58717" lon="6.45309">
        <ele>298</ele>
        <time>2017-06-26T09:57:04Z</time>
      </trkpt>
      <trkpt lat="48.58715" lon="6.45305">
        <ele>298</ele>
        <time>2017-06-26T09:57:05Z</time>
      </trkpt>
      <trkpt lat="48.58713" lon="6.45302">
        <ele>298</ele>
        <time>2017-06-26T09:57:06Z</time>
      </trkpt>
      <trkpt lat="48.5871" lon="6.45298">
        <ele>298</ele>
        <time>2017-06-26T09:57:07Z</time>
      </trkpt>
      <trkpt lat="48.58708" lon="6.45296">
        <ele>298</ele>
        <time>2017-06-26T09:57:08Z</time>
      </trkpt>
      <trkpt lat="48.58705" lon="6.45294">
        <ele>298</ele>
        <time>2017-06-26T09:57:09Z</time>
      </trkpt>
      <trkpt lat="48.58702" lon="6.45293">
        <ele>298</ele>
        <time>2017-06-26T09:57:10Z</time>
      </trkpt>
      <trkpt lat="48.58699" lon="6.45292">
        <ele>298</ele>
        <time>2017-06-26T09:57:11Z</time>
      </trkpt>
      <trkpt lat="48.58696" lon="6.45291">
        <ele>298</ele>
        <time>2017-06-26T09:57:12Z</time>
      </trkpt>
      <trkpt lat="48.58694" lon="6.45291">
        <ele>298</ele>
        <time>2017-06-26T09:57:13Z</time>
      </trkpt>
      <trkpt lat="48.58691" lon="6.45291">
        <ele>298</ele>
        <time>2017-06-26T09:57:14Z</time>
      </trkpt>
      <trkpt lat="48.58689" lon="6.4529">
        <ele>298</ele>
        <time>2017-06-26T09:57:15Z</time>
      </trkpt>
      <trkpt lat="48.58687" lon="6.45289">
        <ele>298</ele>
        <time>2017-06-26T09:57:16Z</time>
      </trkpt>
      <trkpt lat="48.58684" lon="6.45287">
        <ele>298</ele>
        <time>2017-06-26T09:57:17Z</time>
      </trkpt>
      <trkpt lat="48.58682" lon="6.45285">
        <ele>298</ele>
        <time>2017-06-26T09:57:18Z</time>
      </trkpt>
      <trkpt lat="48.58679" lon="6.45283">
        <ele>297</ele>
        <time>2017-06-26T09:57:19Z</time>
      </trkpt>
      <trkpt lat="48.58676" lon="6.45281">
        <ele>297</ele>
        <time>2017-06-26T09:57:20Z</time>
      </trkpt>
      <trkpt lat="48.58673" lon="6.4528">
        <ele>297</ele>
        <time>2017-06-26T09:57:21Z</time>
      </trkpt>
      <trkpt lat="48.58671" lon="6.45278">
        <ele>297</ele>
        <time>2017-06-26T09:57:22Z</time>
      </trkpt>
      <trkpt lat="48.58666" lon="6.45275">
        <ele>296</ele>
        <time>2017-06-26T09:57:23Z</time>
      </trkpt>
      <trkpt lat="48.58663" lon="6.45274">
        <ele>296</ele>
        <time>2017-06-26T09:57:24Z</time>
      </trkpt>
      <trkpt lat="48.58661" lon="6.45272">
        <ele>296</ele>
        <time>2017-06-26T09:57:25Z</time>
      </trkpt>
      <trkpt lat="48.58656" lon="6.45269">
        <ele>296</ele>
        <time>2017-06-26T09:57:26Z</time>
      </trkpt>
      <trkpt lat="48.58653" lon="6.45267">
        <ele>296</ele>
        <time>2017-06-26T09:57:27Z</time>
      </trkpt>
      <trkpt lat="48.58649" lon="6.45265">
        <ele>296</ele>
        <time>2017-06-26T09:57:28Z</time>
      </trkpt>
      <trkpt lat="48.58646" lon="6.45263">
        <ele>296</ele>
        <time>2017-06-26T09:57:29Z</time>
      </trkpt>
      <trkpt lat="48.58643" lon="6.45262">
        <ele>295</ele>
        <time>2017-06-26T09:57:30Z</time>
      </trkpt>
      <trkpt lat="48.5864" lon="6.45259">
        <ele>295</ele>
        <time>2017-06-26T09:57:31Z</time>
      </trkpt>
      <trkpt lat="48.58638" lon="6.45257">
        <ele>295</ele>
        <time>2017-06-26T09:57:32Z</time>
      </trkpt>
      <trkpt lat="48.58635" lon="6.45254">
        <ele>295</ele>
        <time>2017-06-26T09:57:33Z</time>
      </trkpt>
      <trkpt lat="48.58633" lon="6.45251">
        <ele>295</ele>
        <time>2017-06-26T09:57:34Z</time>
      </trkpt>
      <trkpt lat="48.58631" lon="6.45247">
        <ele>295</ele>
        <time>2017-06-26T09:57:35Z</time>
      </trkpt>
      <trkpt lat="48.58629" lon="6.45243">
        <ele>295</ele>
        <time>2017-06-26T09:57:36Z</time>
      </trkpt>
      <trkpt lat="48.58627" lon="6.45241">
        <ele>295</ele>
        <time>2017-06-26T09:57:37Z</time>
      </trkpt>
      <trkpt lat="48.58625" lon="6.4524">
        <ele>295</ele>
        <time>2017-06-26T09:57:38Z</time>
      </trkpt>
      <trkpt lat="48.58623" lon="6.45238">
        <ele>295</ele>
        <time>2017-06-26T09:57:39Z</time>
      </trkpt>
      <trkpt lat="48.58621" lon="6.45235">
        <ele>295</ele>
        <time>2017-06-26T09:57:40Z</time>
      </trkpt>
      <trkpt lat="48.58619" lon="6.45232">
        <ele>295</ele>
        <time>2017-06-26T09:57:41Z</time>
      </trkpt>
      <trkpt lat="48.58617" lon="6.4523">
        <ele>295</ele>
        <time>2017-06-26T09:57:42Z</time>
      </trkpt>
      <trkpt lat="48.58615" lon="6.45228">
        <ele>295</ele>
        <time>2017-06-26T09:57:43Z</time>
      </trkpt>
      <trkpt lat="48.58613" lon="6.45225">
        <ele>295</ele>
        <time>2017-06-26T09:57:44Z</time>
      </trkpt>
      <trkpt lat="48.58611" lon="6.45222">
        <ele>295</ele>
        <time>2017-06-26T09:57:45Z</time>
      </trkpt>
      <trkpt lat="48.58609" lon="6.45219">
        <ele>295</ele>
        <time>2017-06-26T09:57:46Z</time>
      </trkpt>
      <trkpt lat="48.58607" lon="6.45216">
        <ele>295</ele>
        <time>2017-06-26T09:57:47Z</time>
      </trkpt>
      <trkpt lat="48.58605" lon="6.45213">
        <ele>295</ele>
        <time>2017-06-26T09:57:48Z</time>
      </trkpt>
      <trkpt lat="48.58603" lon="6.4521">
        <ele>295</ele>
        <time>2017-06-26T09:57:49Z</time>
      </trkpt>
      <trkpt lat="48.586" lon="6.45207">
        <ele>295</ele>
        <time>2017-06-26T09:57:50Z</time>
      </trkpt>
      <trkpt lat="48.58597" lon="6.45204">
        <ele>295</ele>
        <time>2017-06-26T09:57:51Z</time>
      </trkpt>
      <trkpt lat="48.58594" lon="6.45201">
        <ele>295</ele>
        <time>2017-06-26T09:57:52Z</time>
      </trkpt>
      <trkpt lat="48.58591" lon="6.45198">
        <ele>294</ele>
        <time>2017-06-26T09:57:53Z</time>
      </trkpt>
      <trkpt lat="48.58588" lon="6.45195">
        <ele>294</ele>
        <time>2017-06-26T09:57:54Z</time>
      </trkpt>
      <trkpt lat="48.58586" lon="6.45193">
        <ele>294</ele>
        <time>2017-06-26T09:57:55Z</time>
      </trkpt>
      <trkpt lat="48.58583" lon="6.45191">
        <ele>294</ele>
        <time>2017-06-26T09:57:56Z</time>
      </trkpt>
      <trkpt lat="48.5858" lon="6.4519">
        <ele>294</ele>
        <time>2017-06-26T09:57:57Z</time>
      </trkpt>
      <trkpt lat="48.58577" lon="6.45189">
        <ele>294</ele>
        <time>2017-06-26T09:57:58Z</time>
      </trkpt>
      <trkpt lat="48.58575" lon="6.45188">
        <ele>293</ele>
        <time>2017-06-26T09:57:59Z</time>
      </trkpt>
      <trkpt lat="48.58572" lon="6.45186">
        <ele>293</ele>
        <time>2017-06-26T09:58:00Z</time>
      </trkpt>
      <trkpt lat="48.5857" lon="6.45183">
        <ele>293</ele>
        <time>2017-06-26T09:58:01Z</time>
      </trkpt>
      <trkpt lat="48.58568" lon="6.45179">
        <ele>293</ele>
        <time>2017-06-26T09:58:02Z</time>
      </trkpt>
      <trkpt lat="48.58567" lon="6.45175">
        <ele>293</ele>
        <time>2017-06-26T09:58:03Z</time>
      </trkpt>
      <trkpt lat="48.58566" lon="6.45171">
        <ele>293</ele>
        <time>2017-06-26T09:58:04Z</time>
      </trkpt>
      <trkpt lat="48.58564" lon="6.45168">
        <ele>293</ele>
        <time>2017-06-26T09:58:05Z</time>
      </trkpt>
      <trkpt lat="48.58562" lon="6.45166">
        <ele>293</ele>
        <time>2017-06-26T09:58:06Z</time>
      </trkpt>
      <trkpt lat="48.5856" lon="6.45164">
        <ele>293</ele>
        <time>2017-06-26T09:58:07Z</time>
      </trkpt>
      <trkpt lat="48.58557" lon="6.45162">
        <ele>293</ele>
        <time>2017-06-26T09:58:08Z</time>
      </trkpt>
      <trkpt lat="48.58555" lon="6.45159">
        <ele>293</ele>
        <time>2017-06-26T09:58:09Z</time>
      </trkpt>
      <trkpt lat="48.58553" lon="6.45156">
        <ele>293</ele>
        <time>2017-06-26T09:58:10Z</time>
      </trkpt>
      <trkpt lat="48.58552" lon="6.45153">
        <ele>292</ele>
        <time>2017-06-26T09:58:11Z</time>
      </trkpt>
      <trkpt lat="48.5855" lon="6.4515">
        <ele>292</ele>
        <time>2017-06-26T09:58:12Z</time>
      </trkpt>
      <trkpt lat="48.58548" lon="6.45147">
        <ele>292</ele>
        <time>2017-06-26T09:58:13Z</time>
      </trkpt>
      <trkpt lat="48.58546" lon="6.45145">
        <ele>292</ele>
        <time>2017-06-26T09:58:14Z</time>
      </trkpt>
      <trkpt lat="48.58543" lon="6.45143">
        <ele>292</ele>
        <time>2017-06-26T09:58:15Z</time>
      </trkpt>
      <trkpt lat="48.58541" lon="6.4514">
        <ele>292</ele>
        <time>2017-06-26T09:58:16Z</time>
      </trkpt>
      <trkpt lat="48.58539" lon="6.45138">
        <ele>292</ele>
        <time>2017-06-26T09:58:17Z</time>
      </trkpt>
      <trkpt lat="48.58537" lon="6.45135">
        <ele>292</ele>
        <time>2017-06-26T09:58:18Z</time>
      </trkpt>
      <trkpt lat="48.58535" lon="6.45133">
        <ele>292</ele>
        <time>2017-06-26T09:58:19Z</time>
      </trkpt>
      <trkpt lat="48.58534" lon="6.45129">
        <ele>292</ele>
        <time>2017-06-26T09:58:20Z</time>
      </trkpt>
      <trkpt lat="48.58531" lon="6.45127">
        <ele>292</ele>
        <time>2017-06-26T09:58:21Z</time>
      </trkpt>
      <trkpt lat="48.58529" lon="6.45125">
        <ele>291</ele>
        <time>2017-06-26T09:58:22Z</time>
      </trkpt>
      <trkpt lat="48.58526" lon="6.45124">
        <ele>291</ele>
        <time>2017-06-26T09:58:23Z</time>
      </trkpt>
      <trkpt lat="48.58524" lon="6.45122">
        <ele>291</ele>
        <time>2017-06-26T09:58:24Z</time>
      </trkpt>
      <trkpt lat="48.58522" lon="6.4512">
        <ele>291</ele>
        <time>2017-06-26T09:58:25Z</time>
      </trkpt>
      <trkpt lat="48.58519" lon="6.45119">
        <ele>291</ele>
        <time>2017-06-26T09:58:26Z</time>
      </trkpt>
      <trkpt lat="48.58517" lon="6.45118">
        <ele>290</ele>
        <time>2017-06-26T09:58:27Z</time>
      </trkpt>
      <trkpt lat="48.58515" lon="6.45118">
        <ele>290</ele>
        <time>2017-06-26T09:58:28Z</time>
      </trkpt>
      <trkpt lat="48.58513" lon="6.45118">
        <ele>290</ele>
        <time>2017-06-26T09:58:29Z</time>
      </trkpt>
      <trkpt lat="48.58511" lon="6.45118">
        <ele>289</ele>
        <time>2017-06-26T09:58:30Z</time>
      </trkpt>
      <trkpt lat="48.58509" lon="6.45117">
        <ele>289</ele>
        <time>2017-06-26T09:58:31Z</time>
      </trkpt>
      <trkpt lat="48.58507" lon="6.45118">
        <ele>289</ele>
        <time>2017-06-26T09:58:33Z</time>
      </trkpt>
      <trkpt lat="48.58504" lon="6.4512">
        <ele>288</ele>
        <time>2017-06-26T09:58:35Z</time>
      </trkpt>
      <trkpt lat="48.58502" lon="6.45121">
        <ele>288</ele>
        <time>2017-06-26T09:58:36Z</time>
      </trkpt>
      <trkpt lat="48.585" lon="6.45123">
        <ele>288</ele>
        <time>2017-06-26T09:58:37Z</time>
      </trkpt>
      <trkpt lat="48.58498" lon="6.45125">
        <ele>288</ele>
        <time>2017-06-26T09:58:38Z</time>
      </trkpt>
      <trkpt lat="48.58496" lon="6.45127">
        <ele>288</ele>
        <time>2017-06-26T09:58:39Z</time>
      </trkpt>
      <trkpt lat="48.58493" lon="6.45129">
        <ele>288</ele>
        <time>2017-06-26T09:58:40Z</time>
      </trkpt>
      <trkpt lat="48.5849" lon="6.4513">
        <ele>287</ele>
        <time>2017-06-26T09:58:41Z</time>
      </trkpt>
      <trkpt lat="48.58487" lon="6.45129">
        <ele>287</ele>
        <time>2017-06-26T09:58:42Z</time>
      </trkpt>
      <trkpt lat="48.58483" lon="6.45129">
        <ele>287</ele>
        <time>2017-06-26T09:58:43Z</time>
      </trkpt>
      <trkpt lat="48.5848" lon="6.45127">
        <ele>287</ele>
        <time>2017-06-26T09:58:44Z</time>
      </trkpt>
      <trkpt lat="48.58477" lon="6.45125">
        <ele>287</ele>
        <time>2017-06-26T09:58:45Z</time>
      </trkpt>
      <trkpt lat="48.58474" lon="6.45123">
        <ele>287</ele>
        <time>2017-06-26T09:58:46Z</time>
      </trkpt>
      <trkpt lat="48.58472" lon="6.4512">
        <ele>287</ele>
        <time>2017-06-26T09:58:47Z</time>
      </trkpt>
      <trkpt lat="48.58469" lon="6.45118">
        <ele>287</ele>
        <time>2017-06-26T09:58:48Z</time>
      </trkpt>
      <trkpt lat="48.58467" lon="6.45116">
        <ele>286</ele>
        <time>2017-06-26T09:58:49Z</time>
      </trkpt>
      <trkpt lat="48.58464" lon="6.45113">
        <ele>286</ele>
        <time>2017-06-26T09:58:50Z</time>
      </trkpt>
      <trkpt lat="48.58462" lon="6.45111">
        <ele>286</ele>
        <time>2017-06-26T09:58:51Z</time>
      </trkpt>
      <trkpt lat="48.58459" lon="6.45108">
        <ele>286</ele>
        <time>2017-06-26T09:58:52Z</time>
      </trkpt>
      <trkpt lat="48.58457" lon="6.45106">
        <ele>286</ele>
        <time>2017-06-26T09:58:53Z</time>
      </trkpt>
      <trkpt lat="48.58454" lon="6.45104">
        <ele>286</ele>
        <time>2017-06-26T09:58:54Z</time>
      </trkpt>
      <trkpt lat="48.58452" lon="6.45101">
        <ele>286</ele>
        <time>2017-06-26T09:58:55Z</time>
      </trkpt>
      <trkpt lat="48.5845" lon="6.45099">
        <ele>286</ele>
        <time>2017-06-26T09:58:56Z</time>
      </trkpt>
      <trkpt lat="48.58448" lon="6.45097">
        <ele>286</ele>
        <time>2017-06-26T09:58:57Z</time>
      </trkpt>
      <trkpt lat="48.58445" lon="6.45095">
        <ele>286</ele>
        <time>2017-06-26T09:58:58Z</time>
      </trkpt>
      <trkpt lat="48.58442" lon="6.45093">
        <ele>285</ele>
        <time>2017-06-26T09:58:59Z</time>
      </trkpt>
      <trkpt lat="48.5844" lon="6.4509">
        <ele>285</ele>
        <time>2017-06-26T09:59:00Z</time>
      </trkpt>
      <trkpt lat="48.58437" lon="6.45088">
        <ele>285</ele>
        <time>2017-06-26T09:59:01Z</time>
      </trkpt>
      <trkpt lat="48.58434" lon="6.45086">
        <ele>285</ele>
        <time>2017-06-26T09:59:02Z</time>
      </trkpt>
      <trkpt lat="48.58432" lon="6.45084">
        <ele>286</ele>
        <time>2017-06-26T09:59:03Z</time>
      </trkpt>
      <trkpt lat="48.5843" lon="6.45081">
        <ele>286</ele>
        <time>2017-06-26T09:59:04Z</time>
      </trkpt>
      <trkpt lat="48.58428" lon="6.45079">
        <ele>286</ele>
        <time>2017-06-26T09:59:05Z</time>
      </trkpt>
      <trkpt lat="48.58425" lon="6.45076">
        <ele>286</ele>
        <time>2017-06-26T09:59:06Z</time>
      </trkpt>
      <trkpt lat="48.58423" lon="6.45073">
        <ele>286</ele>
        <time>2017-06-26T09:59:07Z</time>
      </trkpt>
      <trkpt lat="48.58421" lon="6.4507">
        <ele>286</ele>
        <time>2017-06-26T09:59:08Z</time>
      </trkpt>
      <trkpt lat="48.58419" lon="6.45067">
        <ele>286</ele>
        <time>2017-06-26T09:59:09Z</time>
      </trkpt>
      <trkpt lat="48.58416" lon="6.45065">
        <ele>286</ele>
        <time>2017-06-26T09:59:10Z</time>
      </trkpt>
      <trkpt lat="48.58414" lon="6.45062">
        <ele>286</ele>
        <time>2017-06-26T09:59:11Z</time>
      </trkpt>
      <trkpt lat="48.58411" lon="6.45059">
        <ele>286</ele>
        <time>2017-06-26T09:59:12Z</time>
      </trkpt>
      <trkpt lat="48.58409" lon="6.45057">
        <ele>286</ele>
        <time>2017-06-26T09:59:13Z</time>
      </trkpt>
      <trkpt lat="48.58406" lon="6.45054">
        <ele>286</ele>
        <time>2017-06-26T09:59:14Z</time>
      </trkpt>
      <trkpt lat="48.58403" lon="6.45052">
        <ele>286</ele>
        <time>2017-06-26T09:59:15Z</time>
      </trkpt>
      <trkpt lat="48.58401" lon="6.4505">
        <ele>286</ele>
        <time>2017-06-26T09:59:16Z</time>
      </trkpt>
      <trkpt lat="48.58399" lon="6.45047">
        <ele>286</ele>
        <time>2017-06-26T09:59:17Z</time>
      </trkpt>
      <trkpt lat="48.58396" lon="6.45046">
        <ele>286</ele>
        <time>2017-06-26T09:59:18Z</time>
      </trkpt>
      <trkpt lat="48.58393" lon="6.45044">
        <ele>286</ele>
        <time>2017-06-26T09:59:19Z</time>
      </trkpt>
      <trkpt lat="48.58391" lon="6.45042">
        <ele>286</ele>
        <time>2017-06-26T09:59:20Z</time>
      </trkpt>
      <trkpt lat="48.58388" lon="6.4504">
        <ele>286</ele>
        <time>2017-06-26T09:59:21Z</time>
      </trkpt>
      <trkpt lat="48.58385" lon="6.45038">
        <ele>286</ele>
        <time>2017-06-26T09:59:22Z</time>
      </trkpt>
      <trkpt lat="48.58383" lon="6.45036">
        <ele>286</ele>
        <time>2017-06-26T09:59:23Z</time>
      </trkpt>
      <trkpt lat="48.5838" lon="6.45034">
        <ele>287</ele>
        <time>2017-06-26T09:59:24Z</time>
      </trkpt>
      <trkpt lat="48.58377" lon="6.45032">
        <ele>287</ele>
        <time>2017-06-26T09:59:25Z</time>
      </trkpt>
      <trkpt lat="48.58375" lon="6.4503">
        <ele>287</ele>
        <time>2017-06-26T09:59:26Z</time>
      </trkpt>
      <trkpt lat="48.58373" lon="6.45028">
        <ele>287</ele>
        <time>2017-06-26T09:59:27Z</time>
      </trkpt>
      <trkpt lat="48.5837" lon="6.45026">
        <ele>287</ele>
        <time>2017-06-26T09:59:28Z</time>
      </trkpt>
      <trkpt lat="48.58368" lon="6.45025">
        <ele>287</ele>
        <time>2017-06-26T09:59:29Z</time>
      </trkpt>
      <trkpt lat="48.58365" lon="6.45023">
        <ele>287</ele>
        <time>2017-06-26T09:59:30Z</time>
      </trkpt>
      <trkpt lat="48.58363" lon="6.45022">
        <ele>288</ele>
        <time>2017-06-26T09:59:31Z</time>
      </trkpt>
      <trkpt lat="48.5836" lon="6.4502">
        <ele>288</ele>
        <time>2017-06-26T09:59:32Z</time>
      </trkpt>
      <trkpt lat="48.58358" lon="6.45018">
        <ele>288</ele>
        <time>2017-06-26T09:59:33Z</time>
      </trkpt>
      <trkpt lat="48.58355" lon="6.45016">
        <ele>288</ele>
        <time>2017-06-26T09:59:34Z</time>
      </trkpt>
      <trkpt lat="48.58353" lon="6.45015">
        <ele>288</ele>
        <time>2017-06-26T09:59:35Z</time>
      </trkpt>
      <trkpt lat="48.5835" lon="6.45013">
        <ele>288</ele>
        <time>2017-06-26T09:59:36Z</time>
      </trkpt>
      <trkpt lat="48.58347" lon="6.45011">
        <ele>288</ele>
        <time>2017-06-26T09:59:37Z</time>
      </trkpt>
      <trkpt lat="48.58344" lon="6.4501">
        <ele>288</ele>
        <time>2017-06-26T09:59:38Z</time>
      </trkpt>
      <trkpt lat="48.58341" lon="6.45008">
        <ele>288</ele>
        <time>2017-06-26T09:59:39Z</time>
      </trkpt>
      <trkpt lat="48.58338" lon="6.45006">
        <ele>288</ele>
        <time>2017-06-26T09:59:40Z</time>
      </trkpt>
      <trkpt lat="48.58336" lon="6.45005">
        <ele>288</ele>
        <time>2017-06-26T09:59:41Z</time>
      </trkpt>
      <trkpt lat="48.58333" lon="6.45004">
        <ele>288</ele>
        <time>2017-06-26T09:59:42Z</time>
      </trkpt>
      <trkpt lat="48.58331" lon="6.45003">
        <ele>288</ele>
        <time>2017-06-26T09:59:43Z</time>
      </trkpt>
      <trkpt lat="48.58329" lon="6.45001">
        <ele>289</ele>
        <time>2017-06-26T09:59:44Z</time>
      </trkpt>
      <trkpt lat="48.58326" lon="6.45">
        <ele>289</ele>
        <time>2017-06-26T09:59:45Z</time>
      </trkpt>
      <trkpt lat="48.58324" lon="6.44999">
        <ele>289</ele>
        <time>2017-06-26T09:59:46Z</time>
      </trkpt>
      <trkpt lat="48.58322" lon="6.44998">
        <ele>289</ele>
        <time>2017-06-26T09:59:47Z</time>
      </trkpt>
      <trkpt lat="48.5832" lon="6.44997">
        <ele>289</ele>
        <time>2017-06-26T09:59:48Z</time>
      </trkpt>
      <trkpt lat="48.58318" lon="6.44995">
        <ele>289</ele>
        <time>2017-06-26T09:59:49Z</time>
      </trkpt>
      <trkpt lat="48.58316" lon="6.44993">
        <ele>289</ele>
        <time>2017-06-26T09:59:50Z</time>
      </trkpt>
      <trkpt lat="48.58314" lon="6.44991">
        <ele>289</ele>
        <time>2017-06-26T09:59:51Z</time>
      </trkpt>
      <trkpt lat="48.58312" lon="6.4499">
        <ele>290</ele>
        <time>2017-06-26T09:59:52Z</time>
      </trkpt>
      <trkpt lat="48.5831" lon="6.44989">
        <ele>290</ele>
        <time>2017-06-26T09:59:53Z</time>
      </trkpt>
      <trkpt lat="48.58308" lon="6.44987">
        <ele>290</ele>
        <time>2017-06-26T09:59:54Z</time>
      </trkpt>
      <trkpt lat="48.58305" lon="6.44985">
        <ele>290</ele>
        <time>2017-06-26T09:59:55Z</time>
      </trkpt>
      <trkpt lat="48.58303" lon="6.44982">
        <ele>290</ele>
        <time>2017-06-26T09:59:56Z</time>
      </trkpt>
    </trkseg>
  </trk>
  <trk>
    <name><![CDATA[5km]]></name>
    <extensions>
      <line xmlns="http://www.topografix.com/GPX/gpx_style/0/2">
        <color>FF0000</color>
        <opacity>0.85</opacity>
        <width>9</width>
          <extensions>
            <sens>1</sens>
          </extensions>
      </line>
    </extensions>
    <trkseg>
      <trkpt lat="48.58489" lon="6.45123">
        <ele>271.1</ele>
      </trkpt>
      <trkpt lat="48.58416" lon="6.45058">
        <ele>271.2</ele>
      </trkpt>
      <trkpt lat="48.58344" lon="6.45005">
        <ele>275.8</ele>
      </trkpt>
      <trkpt lat="48.58282" lon="6.4496">
        <ele>277.5</ele>
      </trkpt>
      <trkpt lat="48.58171" lon="6.45161">
        <ele>264.1</ele>
      </trkpt>
      <trkpt lat="48.58233" lon="6.45612">
        <ele>255</ele>
      </trkpt>
      <trkpt lat="48.58164" lon="6.45563">
        <ele>261.6</ele>
      </trkpt>
      <trkpt lat="48.57981" lon="6.45711">
        <ele>265.7</ele>
      </trkpt>
      <trkpt lat="48.57942" lon="6.45705">
        <ele>262.3</ele>
      </trkpt>
      <trkpt lat="48.57911" lon="6.45608">
        <ele>264.3</ele>
      </trkpt>
      <trkpt lat="48.57895" lon="6.45553">
        <ele>265.5</ele>
      </trkpt>
      <trkpt lat="48.57856" lon="6.45521">
        <ele>265.2</ele>
      </trkpt>
      <trkpt lat="48.57953" lon="6.45295">
        <ele>274</ele>
      </trkpt>
      <trkpt lat="48.57617" lon="6.44869">
        <ele>275.1</ele>
      </trkpt>
      <trkpt lat="48.57551" lon="6.44785">
        <ele>272.6</ele>
      </trkpt>
      <trkpt lat="48.57533" lon="6.44762">
        <ele>272.2</ele>
      </trkpt>
      <trkpt lat="48.57525" lon="6.44728">
        <ele>272</ele>
      </trkpt>
      <trkpt lat="48.57524" lon="6.44622">
        <ele>272.6</ele>
      </trkpt>
      <trkpt lat="48.57417" lon="6.44559">
        <ele>273.9</ele>
      </trkpt>
      <trkpt lat="48.57484" lon="6.44396">
        <ele>270.6</ele>
      </trkpt>
      <trkpt lat="48.57388" lon="6.44235">
        <ele>269.5</ele>
      </trkpt>
      <trkpt lat="48.57492" lon="6.44013">
        <ele>278.2</ele>
      </trkpt>
      <trkpt lat="48.57496" lon="6.43964">
        <ele>279.9</ele>
      </trkpt>
      <trkpt lat="48.57557" lon="6.43915">
        <ele>282</ele>
      </trkpt>
      <trkpt lat="48.57657" lon="6.44015">
        <ele>281</ele>
      </trkpt>
      <trkpt lat="48.57709" lon="6.4408">
        <ele>281.5</ele>
      </trkpt>
      <trkpt lat="48.57778" lon="6.44234">
        <ele>284</ele>
      </trkpt>
      <trkpt lat="48.5754" lon="6.44608">
        <ele>273</ele>
      </trkpt>
      <trkpt lat="48.57856" lon="6.44414">
        <ele>284.6</ele>
      </trkpt>
      <trkpt lat="48.57901" lon="6.44513">
        <ele>284.4</ele>
      </trkpt>
      <trkpt lat="48.57959" lon="6.44582">
        <ele>285.5</ele>
      </trkpt>
      <trkpt lat="48.57996" lon="6.44571">
        <ele>286</ele>
      </trkpt>
      <trkpt lat="48.58017" lon="6.44598">
        <ele>286</ele>
      </trkpt>
      <trkpt lat="48.58105" lon="6.44709">
        <ele>285</ele>
      </trkpt>
      <trkpt lat="48.58165" lon="6.44808">
        <ele>282.9</ele>
      </trkpt>
      <trkpt lat="48.58247" lon="6.44891">
        <ele>279.9</ele>
      </trkpt>
      <trkpt lat="48.58276" lon="6.44922">
        <ele>278.8</ele>
      </trkpt>
      <trkpt lat="48.58281" lon="6.44958">
        <ele>277.6</ele>
      </trkpt>
      <trkpt lat="48.5831" lon="6.4498">
        <ele>277.5</ele>
      </trkpt>
      <trkpt lat="48.5849" lon="6.45122">
        <ele>271.3</ele>
      </trkpt>
    </trkseg>
  </trk>
</gpx>